<?xml version='1.0' encoding='UTF-8'?><gpx version="1.1" creator="JPX - https://github.com/jenetics/jpx" xmlns="http://www.topografix.com/GPX/1/1"><trk><trkseg><trkpt lat="43.896852184500574" lon="11.957521203395544"><ele>768.0</ele><time>2026-05-02T07:14:21.001Z</time></trkpt><trkpt lat="43.897183605035025" lon="11.957413348353237"><ele>768.0</ele><time>2026-05-02T07:14:21.999Z</time></trkpt><trkpt lat="43.897254058958985" lon="11.957351239833327"><ele>768.0</ele><time>2026-05-02T07:14:39.991Z</time></trkpt><trkpt lat="43.89720515506274" lon="11.957413072949842"><ele>768.0</ele><time>2026-05-02T07:14:47.995Z</time></trkpt><trkpt lat="43.89713552866253" lon="11.957411467047798"><ele>768.0</ele><time>2026-05-02T07:15:12Z</time></trkpt><trkpt lat="43.89726210259152" lon="11.957448660373425"><ele>768.0</ele><time>2026-05-02T07:15:22Z</time></trkpt><trkpt lat="43.89720390667696" lon="11.957385987916586"><ele>768.0</ele><time>2026-05-02T07:15:38.001Z</time></trkpt><trkpt lat="43.89718437647697" lon="11.957508377276836"><ele>768.0</ele><time>2026-05-02T07:16:26.001Z</time></trkpt><trkpt lat="43.89716562414433" lon="11.957595008548324"><ele>768.0</ele><time>2026-05-02T07:16:30.001Z</time></trkpt><trkpt lat="43.89712376224276" lon="11.957699659854104"><ele>768.0</ele><time>2026-05-02T07:16:34.001Z</time></trkpt><trkpt lat="43.89705231658063" lon="11.957648151722852"><ele>768.0</ele><time>2026-05-02T07:16:36.001Z</time></trkpt><trkpt lat="43.89704206984423" lon="11.957547220424207"><ele>768.0</ele><time>2026-05-02T07:16:38.001Z</time></trkpt><trkpt lat="43.89699368966939" lon="11.957420818109295"><ele>768.0</ele><time>2026-05-02T07:16:40.001Z</time></trkpt><trkpt lat="43.89695252140696" lon="11.957304794085275"><ele>768.0</ele><time>2026-05-02T07:16:42.001Z</time></trkpt><trkpt lat="43.89692972035006" lon="11.95717991102704"><ele>768.0</ele><time>2026-05-02T07:16:44.001Z</time></trkpt><trkpt lat="43.896907530129596" lon="11.957086747964423"><ele>768.0</ele><time>2026-05-02T07:16:45.001Z</time></trkpt><trkpt lat="43.89687216593453" lon="11.956977721049514"><ele>768.0</ele><time>2026-05-02T07:16:46.001Z</time></trkpt><trkpt lat="43.89683550334418" lon="11.956873667456813"><ele>768.0</ele><time>2026-05-02T07:16:47.001Z</time></trkpt><trkpt lat="43.896798417477726" lon="11.956797657126645"><ele>768.0</ele><time>2026-05-02T07:16:48.001Z</time></trkpt><trkpt lat="43.896702131644716" lon="11.956690211185517"><ele>768.0</ele><time>2026-05-02T07:16:50.001Z</time></trkpt><trkpt lat="43.89663458083427" lon="11.956639199935069"><ele>768.0</ele><time>2026-05-02T07:16:51.001Z</time></trkpt><trkpt lat="43.89656894320339" lon="11.956601634025088"><ele>767.4</ele><time>2026-05-02T07:16:52.001Z</time></trkpt><trkpt lat="43.89645508106681" lon="11.956550386694476"><ele>766.8</ele><time>2026-05-02T07:16:54Z</time></trkpt><trkpt lat="43.89638556513047" lon="11.956523064587618"><ele>766.2</ele><time>2026-05-02T07:16:55Z</time></trkpt><trkpt lat="43.896283944025505" lon="11.956510911561587"><ele>765.6</ele><time>2026-05-02T07:16:56Z</time></trkpt><trkpt lat="43.89618782256292" lon="11.956520594254437"><ele>765.0</ele><time>2026-05-02T07:16:57Z</time></trkpt><trkpt lat="43.89609224110373" lon="11.956549702761484"><ele>765.0</ele><time>2026-05-02T07:16:58Z</time></trkpt><trkpt lat="43.89600290700439" lon="11.95659696969997"><ele>765.0</ele><time>2026-05-02T07:16:59Z</time></trkpt><trkpt lat="43.895908376169174" lon="11.95665344443565"><ele>765.0</ele><time>2026-05-02T07:17:00Z</time></trkpt><trkpt lat="43.89582508159841" lon="11.956699734491487"><ele>765.0</ele><time>2026-05-02T07:17:01Z</time></trkpt><trkpt lat="43.89574454665428" lon="11.956720016070431"><ele>765.0</ele><time>2026-05-02T07:17:02Z</time></trkpt><trkpt lat="43.89564937037989" lon="11.956770944156792"><ele>769.2857142857143</ele><time>2026-05-02T07:17:03Z</time></trkpt><trkpt lat="43.895562827862335" lon="11.956814420848316"><ele>773.5714285714286</ele><time>2026-05-02T07:17:04Z</time></trkpt><trkpt lat="43.89548935525896" lon="11.956849806144882"><ele>777.8571428571429</ele><time>2026-05-02T07:17:05Z</time></trkpt><trkpt lat="43.895420004735314" lon="11.956878270871735"><ele>782.1428571428571</ele><time>2026-05-02T07:17:06Z</time></trkpt><trkpt lat="43.89536246111004" lon="11.956915481626254"><ele>786.4285714285714</ele><time>2026-05-02T07:17:07Z</time></trkpt><trkpt lat="43.89529867603591" lon="11.956937277509308"><ele>790.7142857142858</ele><time>2026-05-02T07:17:08Z</time></trkpt><trkpt lat="43.895223537280046" lon="11.956942791268075"><ele>795.0</ele><time>2026-05-02T07:17:09Z</time></trkpt><trkpt lat="43.89515083765015" lon="11.95690788824645"><ele>795.0</ele><time>2026-05-02T07:17:10Z</time></trkpt><trkpt lat="43.895104950249525" lon="11.956847628356764"><ele>795.0</ele><time>2026-05-02T07:17:11Z</time></trkpt><trkpt lat="43.89505730972976" lon="11.956705166954613"><ele>795.0</ele><time>2026-05-02T07:17:13Z</time></trkpt><trkpt lat="43.89502040666301" lon="11.956629165892407"><ele>795.0</ele><time>2026-05-02T07:17:14Z</time></trkpt><trkpt lat="43.894973433327735" lon="11.956502440697331"><ele>795.0</ele><time>2026-05-02T07:17:15Z</time></trkpt><trkpt lat="43.894914168308354" lon="11.956318961349304"><ele>788.8</ele><time>2026-05-02T07:17:16Z</time></trkpt><trkpt lat="43.894856132571434" lon="11.956178115206765"><ele>782.6</ele><time>2026-05-02T07:17:17Z</time></trkpt><trkpt lat="43.89480715665096" lon="11.95605939895273"><ele>776.4000000000001</ele><time>2026-05-02T07:17:18Z</time></trkpt><trkpt lat="43.89475607270192" lon="11.955964516134538"><ele>770.2</ele><time>2026-05-02T07:17:19Z</time></trkpt><trkpt lat="43.89470312042704" lon="11.955855383651995"><ele>764.0</ele><time>2026-05-02T07:17:20Z</time></trkpt><trkpt lat="43.89463917550479" lon="11.955757353698138"><ele>765.3333333333333</ele><time>2026-05-02T07:17:21Z</time></trkpt><trkpt lat="43.89457380187796" lon="11.955682513621072"><ele>766.6666666666666</ele><time>2026-05-02T07:17:22Z</time></trkpt><trkpt lat="43.894513986340016" lon="11.955611323307233"><ele>768.0</ele><time>2026-05-02T07:17:23Z</time></trkpt><trkpt lat="43.89444683998125" lon="11.955535483589756"><ele>769.3333333333333</ele><time>2026-05-02T07:17:24Z</time></trkpt><trkpt lat="43.894375827552096" lon="11.95545849771876"><ele>770.6666666666666</ele><time>2026-05-02T07:17:25Z</time></trkpt><trkpt lat="43.89430523649287" lon="11.955378246917808"><ele>772.0</ele><time>2026-05-02T07:17:26Z</time></trkpt><trkpt lat="43.89423162027084" lon="11.955303460265178"><ele>771.9999999999999</ele><time>2026-05-02T07:17:27Z</time></trkpt><trkpt lat="43.89416486971457" lon="11.95523483124662"><ele>772.0</ele><time>2026-05-02T07:17:28Z</time></trkpt><trkpt lat="43.89409614756112" lon="11.955166693076617"><ele>772.0</ele><time>2026-05-02T07:17:29Z</time></trkpt><trkpt lat="43.894026561702404" lon="11.955090839047674"><ele>772.0</ele><time>2026-05-02T07:17:30Z</time></trkpt><trkpt lat="43.89395555459227" lon="11.955013073055571"><ele>771.9999999999999</ele><time>2026-05-02T07:17:31Z</time></trkpt><trkpt lat="43.89388470871577" lon="11.954942245791761"><ele>772.0</ele><time>2026-05-02T07:17:32Z</time></trkpt><trkpt lat="43.89381714746069" lon="11.954883151934736"><ele>771.4000000000001</ele><time>2026-05-02T07:17:33Z</time></trkpt><trkpt lat="43.89374521978015" lon="11.954826502622055"><ele>770.8000000000001</ele><time>2026-05-02T07:17:34Z</time></trkpt><trkpt lat="43.893658413012254" lon="11.9547577896913"><ele>770.2</ele><time>2026-05-02T07:17:35Z</time></trkpt><trkpt lat="43.89356021305409" lon="11.954692690422258"><ele>769.6</ele><time>2026-05-02T07:17:36Z</time></trkpt><trkpt lat="43.893469405203504" lon="11.95463232285786"><ele>769.0</ele><time>2026-05-02T07:17:37Z</time></trkpt><trkpt lat="43.89338344607249" lon="11.954582019184175"><ele>769.0</ele><time>2026-05-02T07:17:38Z</time></trkpt><trkpt lat="43.89328019655724" lon="11.954556235568967"><ele>769.0</ele><time>2026-05-02T07:17:39Z</time></trkpt><trkpt lat="43.89316960097871" lon="11.954557566032697"><ele>769.0</ele><time>2026-05-02T07:17:40Z</time></trkpt><trkpt lat="43.893067907104665" lon="11.954593757745775"><ele>769.0</ele><time>2026-05-02T07:17:41Z</time></trkpt><trkpt lat="43.892961212713615" lon="11.954644056389741"><ele>769.0</ele><time>2026-05-02T07:17:42Z</time></trkpt><trkpt lat="43.89286759367819" lon="11.95474497939529"><ele>769.0</ele><time>2026-05-02T07:17:43Z</time></trkpt><trkpt lat="43.89279260788119" lon="11.954889027262615"><ele>769.0</ele><time>2026-05-02T07:17:44Z</time></trkpt><trkpt lat="43.89273786485603" lon="11.955045911667467"><ele>769.0</ele><time>2026-05-02T07:17:45Z</time></trkpt><trkpt lat="43.892705236551" lon="11.955179632978153"><ele>769.0</ele><time>2026-05-02T07:17:46Z</time></trkpt><trkpt lat="43.89266926562551" lon="11.955315198289382"><ele>771.4000000000001</ele><time>2026-05-02T07:17:47Z</time></trkpt><trkpt lat="43.89261531438771" lon="11.95542851889183"><ele>773.8</ele><time>2026-05-02T07:17:48Z</time></trkpt><trkpt lat="43.89254297689413" lon="11.95549985731727"><ele>776.2</ele><time>2026-05-02T07:17:49Z</time></trkpt><trkpt lat="43.89244787069719" lon="11.955513274953573"><ele>778.5999999999999</ele><time>2026-05-02T07:17:50Z</time></trkpt><trkpt lat="43.8923456921035" lon="11.955465144931226"><ele>781.0</ele><time>2026-05-02T07:17:51Z</time></trkpt><trkpt lat="43.89224058322969" lon="11.955364465195537"><ele>781.0</ele><time>2026-05-02T07:17:52Z</time></trkpt><trkpt lat="43.89213042047048" lon="11.955258256427115"><ele>781.0</ele><time>2026-05-02T07:17:53Z</time></trkpt><trkpt lat="43.892012834753" lon="11.955204366104999"><ele>781.0</ele><time>2026-05-02T07:17:54Z</time></trkpt><trkpt lat="43.89190239906873" lon="11.955182872681629"><ele>781.0</ele><time>2026-05-02T07:17:55Z</time></trkpt><trkpt lat="43.891782704443116" lon="11.955167510008538"><ele>781.5</ele><time>2026-05-02T07:17:56Z</time></trkpt><trkpt lat="43.89166528960416" lon="11.955151834941406"><ele>782.0</ele><time>2026-05-02T07:17:57Z</time></trkpt><trkpt lat="43.89154122063074" lon="11.955143260802123"><ele>782.5</ele><time>2026-05-02T07:17:58Z</time></trkpt><trkpt lat="43.89141634732273" lon="11.955139873507127"><ele>783.0</ele><time>2026-05-02T07:17:59Z</time></trkpt><trkpt lat="43.89128584648311" lon="11.955153061019779"><ele>783.0</ele><time>2026-05-02T07:18:00Z</time></trkpt><trkpt lat="43.891150842575236" lon="11.955175328913006"><ele>783.0</ele><time>2026-05-02T07:18:01Z</time></trkpt><trkpt lat="43.891021163656255" lon="11.955186403618322"><ele>783.0</ele><time>2026-05-02T07:18:02Z</time></trkpt><trkpt lat="43.89089907123435" lon="11.955175279842033"><ele>783.0</ele><time>2026-05-02T07:18:03Z</time></trkpt><trkpt lat="43.8907890552899" lon="11.955179821339998"><ele>785.0</ele><time>2026-05-02T07:18:04Z</time></trkpt><trkpt lat="43.890685040607465" lon="11.955202901837513"><ele>787.0</ele><time>2026-05-02T07:18:05Z</time></trkpt><trkpt lat="43.890573887339926" lon="11.955283248159326"><ele>789.0</ele><time>2026-05-02T07:18:06Z</time></trkpt><trkpt lat="43.890444400083375" lon="11.955385952524614"><ele>791.0</ele><time>2026-05-02T07:18:07Z</time></trkpt><trkpt lat="43.89030204428293" lon="11.955477955297733"><ele>791.0</ele><time>2026-05-02T07:18:08Z</time></trkpt><trkpt lat="43.89014631582444" lon="11.955514963459054"><ele>791.0</ele><time>2026-05-02T07:18:09Z</time></trkpt><trkpt lat="43.89001219019292" lon="11.955506153387569"><ele>791.0</ele><time>2026-05-02T07:18:10Z</time></trkpt><trkpt lat="43.889895240091626" lon="11.95550762071817"><ele>791.0</ele><time>2026-05-02T07:18:11Z</time></trkpt><trkpt lat="43.88979187624257" lon="11.955515773263743"><ele>791.4</ele><time>2026-05-02T07:18:12Z</time></trkpt><trkpt lat="43.88967705574602" lon="11.955522086864105"><ele>791.8</ele><time>2026-05-02T07:18:13Z</time></trkpt><trkpt lat="43.88957486265498" lon="11.955537428972443"><ele>792.1999999999999</ele><time>2026-05-02T07:18:14Z</time></trkpt><trkpt lat="43.8894774208968" lon="11.9555543231825"><ele>792.5999999999999</ele><time>2026-05-02T07:18:15Z</time></trkpt><trkpt lat="43.889372045643114" lon="11.95556551013215"><ele>793.0</ele><time>2026-05-02T07:18:16Z</time></trkpt><trkpt lat="43.88927521174805" lon="11.95561184648414"><ele>792.75</ele><time>2026-05-02T07:18:17Z</time></trkpt><trkpt lat="43.88917124550027" lon="11.955694936940741"><ele>792.5</ele><time>2026-05-02T07:18:18Z</time></trkpt><trkpt lat="43.88908889245617" lon="11.95580413364814"><ele>792.25</ele><time>2026-05-02T07:18:19Z</time></trkpt><trkpt lat="43.88901534591674" lon="11.955944821973139"><ele>792.0</ele><time>2026-05-02T07:18:20Z</time></trkpt><trkpt lat="43.88896046766142" lon="11.956102999470206"><ele>792.0</ele><time>2026-05-02T07:18:21Z</time></trkpt><trkpt lat="43.88892395939496" lon="11.956252859309293"><ele>792.0</ele><time>2026-05-02T07:18:22Z</time></trkpt><trkpt lat="43.88888687682898" lon="11.95637895202142"><ele>792.0</ele><time>2026-05-02T07:18:23Z</time></trkpt><trkpt lat="43.888843141618075" lon="11.956526376352643"><ele>792.0</ele><time>2026-05-02T07:18:24Z</time></trkpt><trkpt lat="43.888802610299244" lon="11.956693432498346"><ele>792.25</ele><time>2026-05-02T07:18:25Z</time></trkpt><trkpt lat="43.88876440152381" lon="11.95686499753188"><ele>792.5</ele><time>2026-05-02T07:18:26Z</time></trkpt><trkpt lat="43.88875357900399" lon="11.957035809448067"><ele>792.75</ele><time>2026-05-02T07:18:27Z</time></trkpt><trkpt lat="43.88872224346394" lon="11.957184437325939"><ele>793.0</ele><time>2026-05-02T07:18:28Z</time></trkpt><trkpt lat="43.88868914812166" lon="11.957344859076679"><ele>793.0</ele><time>2026-05-02T07:18:29Z</time></trkpt><trkpt lat="43.888651903501035" lon="11.957510405741056"><ele>793.0</ele><time>2026-05-02T07:18:30Z</time></trkpt><trkpt lat="43.88860509589003" lon="11.957655988805302"><ele>793.0</ele><time>2026-05-02T07:18:31Z</time></trkpt><trkpt lat="43.88854448208293" lon="11.957787856835724"><ele>793.0</ele><time>2026-05-02T07:18:32Z</time></trkpt><trkpt lat="43.88848041001146" lon="11.957917032307526"><ele>792.0</ele><time>2026-05-02T07:18:33Z</time></trkpt><trkpt lat="43.88840494581318" lon="11.958035866767124"><ele>791.0</ele><time>2026-05-02T07:18:34Z</time></trkpt><trkpt lat="43.88832826054412" lon="11.958151744834097"><ele>790.0</ele><time>2026-05-02T07:18:35Z</time></trkpt><trkpt lat="43.88824585827794" lon="11.958259971608861"><ele>789.0</ele><time>2026-05-02T07:18:36Z</time></trkpt><trkpt lat="43.88814697248309" lon="11.958353247761005"><ele>793.25</ele><time>2026-05-02T07:18:37Z</time></trkpt><trkpt lat="43.88804171314697" lon="11.958441150713393"><ele>797.5</ele><time>2026-05-02T07:18:38Z</time></trkpt><trkpt lat="43.88794147631888" lon="11.95851798934184"><ele>801.75</ele><time>2026-05-02T07:18:39Z</time></trkpt><trkpt lat="43.88781712420573" lon="11.958587771712008"><ele>806.0</ele><time>2026-05-02T07:18:40Z</time></trkpt><trkpt lat="43.887675698869394" lon="11.95859517790161"><ele>802.5</ele><time>2026-05-02T07:18:41Z</time></trkpt><trkpt lat="43.88754311461141" lon="11.958555787988255"><ele>799.0</ele><time>2026-05-02T07:18:42Z</time></trkpt><trkpt lat="43.88743711811421" lon="11.958496154954037"><ele>795.5</ele><time>2026-05-02T07:18:43Z</time></trkpt><trkpt lat="43.887334118703876" lon="11.958462195176194"><ele>792.0</ele><time>2026-05-02T07:18:44Z</time></trkpt><trkpt lat="43.887214302596526" lon="11.958448164669539"><ele>792.0</ele><time>2026-05-02T07:18:45Z</time></trkpt><trkpt lat="43.88709761010039" lon="11.958463765030125"><ele>792.0</ele><time>2026-05-02T07:18:46Z</time></trkpt><trkpt lat="43.886985895992126" lon="11.958499494889061"><ele>792.0</ele><time>2026-05-02T07:18:47Z</time></trkpt><trkpt lat="43.886876266625045" lon="11.95855123607183"><ele>792.0</ele><time>2026-05-02T07:18:48Z</time></trkpt><trkpt lat="43.88676350665635" lon="11.958621106388751"><ele>789.25</ele><time>2026-05-02T07:18:49Z</time></trkpt><trkpt lat="43.886655754455255" lon="11.958689307912552"><ele>786.5</ele><time>2026-05-02T07:18:50Z</time></trkpt><trkpt lat="43.886556609010846" lon="11.95875919174363"><ele>783.75</ele><time>2026-05-02T07:18:51Z</time></trkpt><trkpt lat="43.88647152489589" lon="11.958849491044372"><ele>781.0</ele><time>2026-05-02T07:18:52Z</time></trkpt><trkpt lat="43.88638676354034" lon="11.958959346242025"><ele>781.0</ele><time>2026-05-02T07:18:53Z</time></trkpt><trkpt lat="43.88630305872526" lon="11.959078158383848"><ele>781.0</ele><time>2026-05-02T07:18:54Z</time></trkpt><trkpt lat="43.88622414434627" lon="11.959185756053094"><ele>781.0</ele><time>2026-05-02T07:18:55Z</time></trkpt><trkpt lat="43.88613294033248" lon="11.95926216769432"><ele>781.0</ele><time>2026-05-02T07:18:56Z</time></trkpt><trkpt lat="43.88602034414673" lon="11.959302362296015"><ele>778.25</ele><time>2026-05-02T07:18:57Z</time></trkpt><trkpt lat="43.88588341814352" lon="11.959277823083944"><ele>775.5</ele><time>2026-05-02T07:18:58Z</time></trkpt><trkpt lat="43.885750274546005" lon="11.959222742456495"><ele>772.75</ele><time>2026-05-02T07:18:59Z</time></trkpt><trkpt lat="43.88564739196379" lon="11.959116864667957"><ele>770.0</ele><time>2026-05-02T07:19:00Z</time></trkpt><trkpt lat="43.88556373940431" lon="11.959007727916946"><ele>770.0</ele><time>2026-05-02T07:19:01Z</time></trkpt><trkpt lat="43.885476493651915" lon="11.95891591994216"><ele>770.0</ele><time>2026-05-02T07:19:02Z</time></trkpt><trkpt lat="43.88538756928135" lon="11.95882740765736"><ele>770.0</ele><time>2026-05-02T07:19:03Z</time></trkpt><trkpt lat="43.88528744713911" lon="11.958731334674905"><ele>770.0</ele><time>2026-05-02T07:19:04Z</time></trkpt><trkpt lat="43.885188642674834" lon="11.958637979300043"><ele>770.0</ele><time>2026-05-02T07:19:05Z</time></trkpt><trkpt lat="43.88509760840234" lon="11.958549126145494"><ele>770.0</ele><time>2026-05-02T07:19:06Z</time></trkpt><trkpt lat="43.8850043083172" lon="11.958454845572943"><ele>770.0</ele><time>2026-05-02T07:19:07Z</time></trkpt><trkpt lat="43.88490691690778" lon="11.958360686109259"><ele>770.0</ele><time>2026-05-02T07:19:08Z</time></trkpt><trkpt lat="43.88481084471213" lon="11.95826799516501"><ele>769.4</ele><time>2026-05-02T07:19:09Z</time></trkpt><trkpt lat="43.88472643162493" lon="11.958171246967947"><ele>768.8</ele><time>2026-05-02T07:19:10Z</time></trkpt><trkpt lat="43.88464450260197" lon="11.95806775814628"><ele>768.2</ele><time>2026-05-02T07:19:11Z</time></trkpt><trkpt lat="43.88456222396951" lon="11.957971124773085"><ele>767.6</ele><time>2026-05-02T07:19:12Z</time></trkpt><trkpt lat="43.884499932823275" lon="11.957855011497536"><ele>767.0</ele><time>2026-05-02T07:19:13Z</time></trkpt><trkpt lat="43.88442799461267" lon="11.957757541578948"><ele>767.0</ele><time>2026-05-02T07:19:14Z</time></trkpt><trkpt lat="43.88435962514978" lon="11.957681692281037"><ele>767.0</ele><time>2026-05-02T07:19:15Z</time></trkpt><trkpt lat="43.88428605360629" lon="11.957634343281542"><ele>767.0</ele><time>2026-05-02T07:19:16Z</time></trkpt><trkpt lat="43.88420438335742" lon="11.957597099555937"><ele>767.0</ele><time>2026-05-02T07:19:17Z</time></trkpt><trkpt lat="43.88414221379772" lon="11.95754505028633"><ele>767.0</ele><time>2026-05-02T07:19:18Z</time></trkpt><trkpt lat="43.88410275487632" lon="11.957466898786928"><ele>767.0</ele><time>2026-05-02T07:19:19Z</time></trkpt><trkpt lat="43.88406680378489" lon="11.95738839371092"><ele>766.5</ele><time>2026-05-02T07:19:20Z</time></trkpt><trkpt lat="43.88401524485663" lon="11.957336268520745"><ele>766.0</ele><time>2026-05-02T07:19:21Z</time></trkpt><trkpt lat="43.883953910971336" lon="11.957298165838207"><ele>765.5</ele><time>2026-05-02T07:19:22Z</time></trkpt><trkpt lat="43.883875590847296" lon="11.957260184785737"><ele>765.0</ele><time>2026-05-02T07:19:23Z</time></trkpt><trkpt lat="43.88377532769537" lon="11.957222831171428"><ele>764.5</ele><time>2026-05-02T07:19:24Z</time></trkpt><trkpt lat="43.88365260824232" lon="11.957209116549826"><ele>764.0</ele><time>2026-05-02T07:19:25Z</time></trkpt><trkpt lat="43.883528988989674" lon="11.957202124631698"><ele>764.6</ele><time>2026-05-02T07:19:26Z</time></trkpt><trkpt lat="43.88342747425002" lon="11.957223781209068"><ele>765.2</ele><time>2026-05-02T07:19:27Z</time></trkpt><trkpt lat="43.88334172573699" lon="11.957249427146303"><ele>765.8000000000001</ele><time>2026-05-02T07:19:28Z</time></trkpt><trkpt lat="43.88324434151549" lon="11.957273929013905"><ele>766.4000000000001</ele><time>2026-05-02T07:19:29Z</time></trkpt><trkpt lat="43.88314665048938" lon="11.957309241597663"><ele>767.0</ele><time>2026-05-02T07:19:30Z</time></trkpt><trkpt lat="43.88305959231981" lon="11.957328874631846"><ele>767.0</ele><time>2026-05-02T07:19:31Z</time></trkpt><trkpt lat="43.88298718569373" lon="11.957344179942973"><ele>767.0</ele><time>2026-05-02T07:19:32Z</time></trkpt><trkpt lat="43.882906785041634" lon="11.95735160305444"><ele>767.0</ele><time>2026-05-02T07:19:33Z</time></trkpt><trkpt lat="43.88282391620614" lon="11.957362017645014"><ele>767.0</ele><time>2026-05-02T07:19:34Z</time></trkpt><trkpt lat="43.882741732268755" lon="11.957348594551156"><ele>767.0</ele><time>2026-05-02T07:19:35Z</time></trkpt><trkpt lat="43.8826518345521" lon="11.957314499109582"><ele>767.0</ele><time>2026-05-02T07:19:36Z</time></trkpt><trkpt lat="43.882566924212625" lon="11.957271347387064"><ele>768.8</ele><time>2026-05-02T07:19:37Z</time></trkpt><trkpt lat="43.88248788691375" lon="11.957198015878456"><ele>770.6</ele><time>2026-05-02T07:19:38Z</time></trkpt><trkpt lat="43.882409114155294" lon="11.957133125442555"><ele>772.4</ele><time>2026-05-02T07:19:39Z</time></trkpt><trkpt lat="43.882317553139785" lon="11.957089235513436"><ele>774.1999999999999</ele><time>2026-05-02T07:19:40Z</time></trkpt><trkpt lat="43.88222483994728" lon="11.957078039605861"><ele>776.0</ele><time>2026-05-02T07:19:41Z</time></trkpt><trkpt lat="43.882133807462374" lon="11.957069990792135"><ele>776.0</ele><time>2026-05-02T07:19:42Z</time></trkpt><trkpt lat="43.882039541871634" lon="11.957066846311626"><ele>776.0</ele><time>2026-05-02T07:19:43Z</time></trkpt><trkpt lat="43.88194445774563" lon="11.95704981622836"><ele>776.0</ele><time>2026-05-02T07:19:44Z</time></trkpt><trkpt lat="43.88185080447424" lon="11.957007242624233"><ele>776.0</ele><time>2026-05-02T07:19:45Z</time></trkpt><trkpt lat="43.88178257493109" lon="11.956955042382301"><ele>776.0</ele><time>2026-05-02T07:19:46Z</time></trkpt><trkpt lat="43.88171255996161" lon="11.956878646223"><ele>776.5999999999999</ele><time>2026-05-02T07:19:47Z</time></trkpt><trkpt lat="43.881643472419604" lon="11.956795275636523"><ele>777.2</ele><time>2026-05-02T07:19:48Z</time></trkpt><trkpt lat="43.88157231513432" lon="11.956697590745835"><ele>777.8</ele><time>2026-05-02T07:19:49Z</time></trkpt><trkpt lat="43.88150665628786" lon="11.956589293991026"><ele>778.4000000000001</ele><time>2026-05-02T07:19:50Z</time></trkpt><trkpt lat="43.88144229717824" lon="11.956468529022816"><ele>779.0</ele><time>2026-05-02T07:19:51Z</time></trkpt><trkpt lat="43.88138224524564" lon="11.956347927163486"><ele>779.0</ele><time>2026-05-02T07:19:52Z</time></trkpt><trkpt lat="43.881319509810375" lon="11.956223590703498"><ele>779.0</ele><time>2026-05-02T07:19:53Z</time></trkpt><trkpt lat="43.88125075634431" lon="11.956098130219583"><ele>779.0</ele><time>2026-05-02T07:19:54Z</time></trkpt><trkpt lat="43.881187697645714" lon="11.955991752393432"><ele>779.0</ele><time>2026-05-02T07:19:55Z</time></trkpt><trkpt lat="43.88112351007143" lon="11.955886629936172"><ele>779.0</ele><time>2026-05-02T07:19:56Z</time></trkpt><trkpt lat="43.881062347216584" lon="11.955794093497767"><ele>779.0</ele><time>2026-05-02T07:19:57Z</time></trkpt><trkpt lat="43.88100266899837" lon="11.955707411808719"><ele>779.0</ele><time>2026-05-02T07:19:58Z</time></trkpt><trkpt lat="43.88093996547941" lon="11.955617939953607"><ele>779.0</ele><time>2026-05-02T07:19:59Z</time></trkpt><trkpt lat="43.88087393651281" lon="11.955527828827417"><ele>779.0</ele><time>2026-05-02T07:20:00Z</time></trkpt><trkpt lat="43.88080429746088" lon="11.955435046365503"><ele>779.0</ele><time>2026-05-02T07:20:01Z</time></trkpt><trkpt lat="43.880729801064156" lon="11.955332031967655"><ele>780.4000000000001</ele><time>2026-05-02T07:20:02Z</time></trkpt><trkpt lat="43.880657228176744" lon="11.955232934081005"><ele>781.8</ele><time>2026-05-02T07:20:03Z</time></trkpt><trkpt lat="43.880585663757586" lon="11.955149889972095"><ele>783.2</ele><time>2026-05-02T07:20:04Z</time></trkpt><trkpt lat="43.880512018557994" lon="11.955063739058913"><ele>784.5999999999999</ele><time>2026-05-02T07:20:05Z</time></trkpt><trkpt lat="43.88042512429219" lon="11.954982829925104"><ele>786.0</ele><time>2026-05-02T07:20:06Z</time></trkpt><trkpt lat="43.88033419092665" lon="11.954907964751474"><ele>786.0</ele><time>2026-05-02T07:20:07Z</time></trkpt><trkpt lat="43.88025507657408" lon="11.95483929394089"><ele>786.0</ele><time>2026-05-02T07:20:08Z</time></trkpt><trkpt lat="43.88016913374278" lon="11.95476313106451"><ele>786.0</ele><time>2026-05-02T07:20:09Z</time></trkpt><trkpt lat="43.880085716006604" lon="11.954686914894872"><ele>786.0</ele><time>2026-05-02T07:20:10Z</time></trkpt><trkpt lat="43.880006695726" lon="11.954614808362022"><ele>786.0</ele><time>2026-05-02T07:20:11Z</time></trkpt><trkpt lat="43.87992859195997" lon="11.954547040309519"><ele>785.8333333333334</ele><time>2026-05-02T07:20:12Z</time></trkpt><trkpt lat="43.87985511702387" lon="11.95447874023057"><ele>785.6666666666667</ele><time>2026-05-02T07:20:13Z</time></trkpt><trkpt lat="43.879786893350364" lon="11.954409659163217"><ele>785.5</ele><time>2026-05-02T07:20:14Z</time></trkpt><trkpt lat="43.87973208674879" lon="11.954329742039551"><ele>785.3333333333334</ele><time>2026-05-02T07:20:15Z</time></trkpt><trkpt lat="43.87970586500132" lon="11.954223018514982"><ele>785.1666666666667</ele><time>2026-05-02T07:20:16Z</time></trkpt><trkpt lat="43.87969166983771" lon="11.954099690910446"><ele>785.0</ele><time>2026-05-02T07:20:17Z</time></trkpt><trkpt lat="43.87968407605077" lon="11.953996722524979"><ele>785.5000000000001</ele><time>2026-05-02T07:20:18Z</time></trkpt><trkpt lat="43.87968347819497" lon="11.953904304890907"><ele>786.0</ele><time>2026-05-02T07:20:19Z</time></trkpt><trkpt lat="43.87968438155294" lon="11.953794310319187"><ele>786.5</ele><time>2026-05-02T07:20:20Z</time></trkpt><trkpt lat="43.87969644931535" lon="11.953689698071905"><ele>787.0</ele><time>2026-05-02T07:20:21Z</time></trkpt><trkpt lat="43.87972660012046" lon="11.953556334389518"><ele>787.5000000000001</ele><time>2026-05-02T07:20:23Z</time></trkpt><trkpt lat="43.879692817111646" lon="11.953427967636793"><ele>788.0</ele><time>2026-05-02T07:20:25Z</time></trkpt><trkpt lat="43.8796326533957" lon="11.953397505932639"><ele>788.0</ele><time>2026-05-02T07:20:26Z</time></trkpt><trkpt lat="43.879522953576156" lon="11.95337979157652"><ele>788.0</ele><time>2026-05-02T07:20:28Z</time></trkpt><trkpt lat="43.87941618697704" lon="11.953279004949888"><ele>788.0</ele><time>2026-05-02T07:20:30Z</time></trkpt><trkpt lat="43.879361018567444" lon="11.953202146031641"><ele>788.0</ele><time>2026-05-02T07:20:31Z</time></trkpt><trkpt lat="43.879315020658474" lon="11.953114264369349"><ele>788.0</ele><time>2026-05-02T07:20:32Z</time></trkpt><trkpt lat="43.87928288121106" lon="11.953024959439537"><ele>790.0000000000001</ele><time>2026-05-02T07:20:33Z</time></trkpt><trkpt lat="43.8792276895297" lon="11.952874494807963"><ele>792.0</ele><time>2026-05-02T07:20:35Z</time></trkpt><trkpt lat="43.87919813772819" lon="11.952784305952845"><ele>794.0</ele><time>2026-05-02T07:20:36Z</time></trkpt><trkpt lat="43.879173361956596" lon="11.952685122936533"><ele>796.0</ele><time>2026-05-02T07:20:37Z</time></trkpt><trkpt lat="43.879144742946" lon="11.952590865580577"><ele>798.0000000000001</ele><time>2026-05-02T07:20:38Z</time></trkpt><trkpt lat="43.879111987327384" lon="11.952501407534943"><ele>800.0</ele><time>2026-05-02T07:20:39Z</time></trkpt><trkpt lat="43.8790717820715" lon="11.952418602031809"><ele>801.8333333333334</ele><time>2026-05-02T07:20:40Z</time></trkpt><trkpt lat="43.87902120491407" lon="11.952336387105527"><ele>803.6666666666667</ele><time>2026-05-02T07:20:41Z</time></trkpt><trkpt lat="43.8789634462589" lon="11.952262655774431"><ele>805.5</ele><time>2026-05-02T07:20:42Z</time></trkpt><trkpt lat="43.87889487726253" lon="11.952196363625557"><ele>807.3333333333333</ele><time>2026-05-02T07:20:43Z</time></trkpt><trkpt lat="43.87881974913611" lon="11.952140895467"><ele>809.1666666666666</ele><time>2026-05-02T07:20:44Z</time></trkpt><trkpt lat="43.87875446943342" lon="11.952071110052874"><ele>811.0</ele><time>2026-05-02T07:20:45Z</time></trkpt><trkpt lat="43.878695699128784" lon="11.952016059475138"><ele>810.9999999999999</ele><time>2026-05-02T07:20:46Z</time></trkpt><trkpt lat="43.878629077930995" lon="11.951958707916743"><ele>811.0</ele><time>2026-05-02T07:20:47Z</time></trkpt><trkpt lat="43.87856009744209" lon="11.951893254083238"><ele>811.0</ele><time>2026-05-02T07:20:48Z</time></trkpt><trkpt lat="43.87849224359246" lon="11.951836054835585"><ele>811.0</ele><time>2026-05-02T07:20:49Z</time></trkpt><trkpt lat="43.878431664601685" lon="11.951785021425033"><ele>810.9999999999999</ele><time>2026-05-02T07:20:50Z</time></trkpt><trkpt lat="43.878372698271946" lon="11.951730985624994"><ele>811.0</ele><time>2026-05-02T07:20:51Z</time></trkpt><trkpt lat="43.878311138737935" lon="11.951683854341827"><ele>812.3333333333333</ele><time>2026-05-02T07:20:52Z</time></trkpt><trkpt lat="43.878245703658756" lon="11.951647419340869"><ele>813.6666666666666</ele><time>2026-05-02T07:20:53Z</time></trkpt><trkpt lat="43.878174903228846" lon="11.951606677227122"><ele>815.0</ele><time>2026-05-02T07:20:54Z</time></trkpt><trkpt lat="43.878108579670354" lon="11.951560144230667"><ele>816.3333333333333</ele><time>2026-05-02T07:20:55Z</time></trkpt><trkpt lat="43.87803518025208" lon="11.951500690831338"><ele>817.6666666666666</ele><time>2026-05-02T07:20:56Z</time></trkpt><trkpt lat="43.87798013636944" lon="11.951455793654942"><ele>819.0</ele><time>2026-05-02T07:20:57Z</time></trkpt><trkpt lat="43.8778875165337" lon="11.951339577643084"><ele>819.0</ele><time>2026-05-02T07:20:59Z</time></trkpt><trkpt lat="43.8778333444167" lon="11.951278967368006"><ele>819.0</ele><time>2026-05-02T07:21:00Z</time></trkpt><trkpt lat="43.87777440496428" lon="11.951228310362472"><ele>819.0</ele><time>2026-05-02T07:21:01Z</time></trkpt><trkpt lat="43.87771502111337" lon="11.951184324798973"><ele>819.0</ele><time>2026-05-02T07:21:02Z</time></trkpt><trkpt lat="43.877648024700214" lon="11.95112412243215"><ele>819.0</ele><time>2026-05-02T07:21:03Z</time></trkpt><trkpt lat="43.87757980363884" lon="11.951077741841818"><ele>819.0</ele><time>2026-05-02T07:21:04Z</time></trkpt><trkpt lat="43.87751870570972" lon="11.951032220403658"><ele>819.0</ele><time>2026-05-02T07:21:05Z</time></trkpt><trkpt lat="43.877405564615145" lon="11.950935667123117"><ele>821.1666666666666</ele><time>2026-05-02T07:21:07Z</time></trkpt><trkpt lat="43.87734501326229" lon="11.950869966267481"><ele>823.3333333333333</ele><time>2026-05-02T07:21:08Z</time></trkpt><trkpt lat="43.87724428338328" lon="11.95078580698036"><ele>825.5</ele><time>2026-05-02T07:21:10Z</time></trkpt><trkpt lat="43.877180680426875" lon="11.950757484978014"><ele>827.6666666666666</ele><time>2026-05-02T07:21:11Z</time></trkpt><trkpt lat="43.877121172248934" lon="11.950721119399486"><ele>829.8333333333333</ele><time>2026-05-02T07:21:12Z</time></trkpt><trkpt lat="43.87706227158708" lon="11.950688068427407"><ele>832.0</ele><time>2026-05-02T07:21:13Z</time></trkpt><trkpt lat="43.87699185581734" lon="11.950657885389656"><ele>831.9999999999999</ele><time>2026-05-02T07:21:14Z</time></trkpt><trkpt lat="43.87691102743061" lon="11.950632539516253"><ele>832.0</ele><time>2026-05-02T07:21:15Z</time></trkpt><trkpt lat="43.87683576594043" lon="11.95060888229018"><ele>832.0</ele><time>2026-05-02T07:21:16Z</time></trkpt><trkpt lat="43.87671827367111" lon="11.95059699454997"><ele>832.0</ele><time>2026-05-02T07:21:18Z</time></trkpt><trkpt lat="43.876648510622786" lon="11.950576083245151"><ele>831.9999999999999</ele><time>2026-05-02T07:21:19Z</time></trkpt><trkpt lat="43.87657731738897" lon="11.95057434680013"><ele>832.0</ele><time>2026-05-02T07:21:20Z</time></trkpt><trkpt lat="43.87650456452061" lon="11.950561539984324"><ele>832.4000000000001</ele><time>2026-05-02T07:21:21Z</time></trkpt><trkpt lat="43.87641260969959" lon="11.950571169814854"><ele>832.8000000000001</ele><time>2026-05-02T07:21:23Z</time></trkpt><trkpt lat="43.876296837631806" lon="11.950594188423914"><ele>833.2</ele><time>2026-05-02T07:21:25Z</time></trkpt><trkpt lat="43.87621032281236" lon="11.95055099726701"><ele>833.6</ele><time>2026-05-02T07:21:27Z</time></trkpt><trkpt lat="43.8761681042053" lon="11.95045340043786"><ele>834.0</ele><time>2026-05-02T07:21:29Z</time></trkpt><trkpt lat="43.8761424513208" lon="11.950308572548813"><ele>834.0</ele><time>2026-05-02T07:21:31Z</time></trkpt><trkpt lat="43.87613727375623" lon="11.950219126763901"><ele>834.0</ele><time>2026-05-02T07:21:32Z</time></trkpt><trkpt lat="43.87610941777699" lon="11.950068564094778"><ele>834.0</ele><time>2026-05-02T07:21:34Z</time></trkpt><trkpt lat="43.87609984215477" lon="11.949968655287918"><ele>834.0</ele><time>2026-05-02T07:21:35Z</time></trkpt><trkpt lat="43.876082769989374" lon="11.949865596595131"><ele>834.0</ele><time>2026-05-02T07:21:36Z</time></trkpt><trkpt lat="43.87605870511321" lon="11.949760038919234"><ele>834.0</ele><time>2026-05-02T07:21:37Z</time></trkpt><trkpt lat="43.8760356562384" lon="11.949653582834923"><ele>835.0</ele><time>2026-05-02T07:21:38Z</time></trkpt><trkpt lat="43.87601416553112" lon="11.94955100552385"><ele>836.0</ele><time>2026-05-02T07:21:39Z</time></trkpt><trkpt lat="43.87598420415348" lon="11.949452226852157"><ele>837.0</ele><time>2026-05-02T07:21:40Z</time></trkpt><trkpt lat="43.87595715191098" lon="11.949344273581932"><ele>838.0</ele><time>2026-05-02T07:21:41Z</time></trkpt><trkpt lat="43.87592984275335" lon="11.94924050732608"><ele>839.0</ele><time>2026-05-02T07:21:42Z</time></trkpt><trkpt lat="43.87590795091183" lon="11.949144922425807"><ele>840.0</ele><time>2026-05-02T07:21:43Z</time></trkpt><trkpt lat="43.87587820850956" lon="11.949037560473895"><ele>842.0</ele><time>2026-05-02T07:21:44Z</time></trkpt><trkpt lat="43.87585021428669" lon="11.948930452659509"><ele>844.0</ele><time>2026-05-02T07:21:45Z</time></trkpt><trkpt lat="43.87583366333424" lon="11.948827049166713"><ele>846.0</ele><time>2026-05-02T07:21:46Z</time></trkpt><trkpt lat="43.87581092740986" lon="11.948707187154092"><ele>848.0</ele><time>2026-05-02T07:21:47Z</time></trkpt><trkpt lat="43.87577924772931" lon="11.948587540769898"><ele>850.0</ele><time>2026-05-02T07:21:48Z</time></trkpt><trkpt lat="43.87574779555052" lon="11.948463689398212"><ele>852.0</ele><time>2026-05-02T07:21:49Z</time></trkpt><trkpt lat="43.87571943391261" lon="11.948365508715407"><ele>853.8333333333334</ele><time>2026-05-02T07:21:50Z</time></trkpt><trkpt lat="43.87568716331503" lon="11.948251351882266"><ele>855.6666666666667</ele><time>2026-05-02T07:21:51Z</time></trkpt><trkpt lat="43.875642128217265" lon="11.948144065036713"><ele>857.5</ele><time>2026-05-02T07:21:52Z</time></trkpt><trkpt lat="43.87559946742784" lon="11.948047455295626"><ele>859.3333333333334</ele><time>2026-05-02T07:21:53Z</time></trkpt><trkpt lat="43.87555923826765" lon="11.94795767263502"><ele>861.1666666666667</ele><time>2026-05-02T07:21:54Z</time></trkpt><trkpt lat="43.87552603993011" lon="11.94785375916367"><ele>863.0</ele><time>2026-05-02T07:21:55Z</time></trkpt><trkpt lat="43.87550280693039" lon="11.947746686640656"><ele>863.0000000000001</ele><time>2026-05-02T07:21:56Z</time></trkpt><trkpt lat="43.87549533584244" lon="11.947636486001157"><ele>863.0</ele><time>2026-05-02T07:21:57Z</time></trkpt><trkpt lat="43.87551845150037" lon="11.947459519660452"><ele>863.0</ele><time>2026-05-02T07:21:59Z</time></trkpt><trkpt lat="43.87553346741701" lon="11.947362267210325"><ele>863.0</ele><time>2026-05-02T07:22:00Z</time></trkpt><trkpt lat="43.875548465805124" lon="11.947265608016046"><ele>863.0000000000001</ele><time>2026-05-02T07:22:01Z</time></trkpt><trkpt lat="43.87556803708058" lon="11.947162851816897"><ele>863.0</ele><time>2026-05-02T07:22:02Z</time></trkpt><trkpt lat="43.87559241167187" lon="11.94705728304531"><ele>864.6666666666667</ele><time>2026-05-02T07:22:03Z</time></trkpt><trkpt lat="43.87561809151072" lon="11.946944748368765"><ele>866.3333333333334</ele><time>2026-05-02T07:22:04Z</time></trkpt><trkpt lat="43.87564007403213" lon="11.946839413144964"><ele>868.0</ele><time>2026-05-02T07:22:05Z</time></trkpt><trkpt lat="43.87565691436034" lon="11.94673368724533"><ele>869.6666666666667</ele><time>2026-05-02T07:22:06Z</time></trkpt><trkpt lat="43.87567542899413" lon="11.946645113209518"><ele>871.3333333333334</ele><time>2026-05-02T07:22:07Z</time></trkpt><trkpt lat="43.87570954385289" lon="11.946498196784663"><ele>873.0</ele><time>2026-05-02T07:22:09Z</time></trkpt><trkpt lat="43.87571097294917" lon="11.946395951873933"><ele>874.1666666666666</ele><time>2026-05-02T07:22:11Z</time></trkpt><trkpt lat="43.875635657379235" lon="11.946319564145671"><ele>875.3333333333333</ele><time>2026-05-02T07:22:13Z</time></trkpt><trkpt lat="43.87556041529473" lon="11.946224812735826"><ele>876.5</ele><time>2026-05-02T07:22:14Z</time></trkpt><trkpt lat="43.87548921767011" lon="11.946135907639352"><ele>877.6666666666666</ele><time>2026-05-02T07:22:15Z</time></trkpt><trkpt lat="43.875437382901865" lon="11.946080735116281"><ele>878.8333333333333</ele><time>2026-05-02T07:22:16Z</time></trkpt><trkpt lat="43.87539141216473" lon="11.946001660664264"><ele>880.0</ele><time>2026-05-02T07:22:18Z</time></trkpt><trkpt lat="43.875334054627714" lon="11.945946560063394"><ele>880.0</ele><time>2026-05-02T07:22:56Z</time></trkpt><trkpt lat="43.87525174512678" lon="11.945909980834607"><ele>880.0</ele><time>2026-05-02T07:24:41Z</time></trkpt><trkpt lat="43.8751608047134" lon="11.945865218353271"><ele>880.0</ele><time>2026-05-02T07:24:43Z</time></trkpt><trkpt lat="43.87504973508654" lon="11.945869850882488"><ele>880.0</ele><time>2026-05-02T07:24:45Z</time></trkpt><trkpt lat="43.87492456608879" lon="11.945849032564414"><ele>880.0</ele><time>2026-05-02T07:24:47Z</time></trkpt><trkpt lat="43.87485027882234" lon="11.945807484989993"><ele>881.1666666666666</ele><time>2026-05-02T07:24:48Z</time></trkpt><trkpt lat="43.87477261467998" lon="11.945762609983598"><ele>882.3333333333333</ele><time>2026-05-02T07:24:49Z</time></trkpt><trkpt lat="43.87469361285675" lon="11.94571844133251"><ele>883.5</ele><time>2026-05-02T07:24:50Z</time></trkpt><trkpt lat="43.87462414620359" lon="11.94569471423514"><ele>884.6666666666667</ele><time>2026-05-02T07:24:51Z</time></trkpt><trkpt lat="43.87455145351092" lon="11.945679172171547"><ele>885.8333333333334</ele><time>2026-05-02T07:24:52Z</time></trkpt><trkpt lat="43.87447458979251" lon="11.945664257308342"><ele>887.0</ele><time>2026-05-02T07:24:53Z</time></trkpt><trkpt lat="43.87439439172544" lon="11.945663457901576"><ele>887.0000000000001</ele><time>2026-05-02T07:24:54Z</time></trkpt><trkpt lat="43.87431149975278" lon="11.945699148413425"><ele>887.0</ele><time>2026-05-02T07:24:55Z</time></trkpt><trkpt lat="43.87422579409966" lon="11.9457097288985"><ele>887.0</ele><time>2026-05-02T07:24:56Z</time></trkpt><trkpt lat="43.87414168585633" lon="11.945725409208652"><ele>887.0</ele><time>2026-05-02T07:24:57Z</time></trkpt><trkpt lat="43.87405274255611" lon="11.945749855998478"><ele>887.0000000000001</ele><time>2026-05-02T07:24:58Z</time></trkpt><trkpt lat="43.87398121658975" lon="11.945771867610251"><ele>887.0</ele><time>2026-05-02T07:24:59Z</time></trkpt><trkpt lat="43.87391642100022" lon="11.945785237859592"><ele>888.8</ele><time>2026-05-02T07:25:00Z</time></trkpt><trkpt lat="43.8738380757631" lon="11.945814905868557"><ele>890.6</ele><time>2026-05-02T07:25:01Z</time></trkpt><trkpt lat="43.87371833199126" lon="11.94580929640961"><ele>892.3999999999999</ele><time>2026-05-02T07:25:03Z</time></trkpt><trkpt lat="43.87363123856426" lon="11.94576786533467"><ele>894.1999999999999</ele><time>2026-05-02T07:25:05Z</time></trkpt><trkpt lat="43.87351918368384" lon="11.945714347671975"><ele>896.0</ele><time>2026-05-02T07:25:07Z</time></trkpt><trkpt lat="43.87340920740599" lon="11.94563589447808"><ele>896.5000000000001</ele><time>2026-05-02T07:25:09Z</time></trkpt><trkpt lat="43.87334063216187" lon="11.945552533631304"><ele>897.0</ele><time>2026-05-02T07:25:11Z</time></trkpt><trkpt lat="43.87327525517438" lon="11.945510593627613"><ele>897.5</ele><time>2026-05-02T07:25:13Z</time></trkpt><trkpt lat="43.87319977576956" lon="11.945495189722253"><ele>898.0</ele><time>2026-05-02T07:25:15Z</time></trkpt><trkpt lat="43.873120218439674" lon="11.945500043436564"><ele>898.5000000000001</ele><time>2026-05-02T07:25:16Z</time></trkpt><trkpt lat="43.87303232696608" lon="11.945511619610572"><ele>899.0</ele><time>2026-05-02T07:25:17Z</time></trkpt><trkpt lat="43.8729608402017" lon="11.945531426524331"><ele>899.0000000000001</ele><time>2026-05-02T07:25:18Z</time></trkpt><trkpt lat="43.87289111630896" lon="11.945567676661675"><ele>899.0</ele><time>2026-05-02T07:25:19Z</time></trkpt><trkpt lat="43.872826530032704" lon="11.945632206224085"><ele>899.0</ele><time>2026-05-02T07:25:20Z</time></trkpt><trkpt lat="43.87275261547645" lon="11.94570169879031"><ele>899.0</ele><time>2026-05-02T07:25:21Z</time></trkpt><trkpt lat="43.872672895130044" lon="11.945738593868848"><ele>899.0000000000001</ele><time>2026-05-02T07:25:22Z</time></trkpt><trkpt lat="43.87256694346229" lon="11.945742249965761"><ele>899.0</ele><time>2026-05-02T07:25:24Z</time></trkpt><trkpt lat="43.87247057490404" lon="11.945719384090976"><ele>899.8000000000001</ele><time>2026-05-02T07:25:26Z</time></trkpt><trkpt lat="43.87238187448838" lon="11.945640210625188"><ele>900.6000000000001</ele><time>2026-05-02T07:25:28Z</time></trkpt><trkpt lat="43.872279593984565" lon="11.945536603716254"><ele>901.4</ele><time>2026-05-02T07:25:30Z</time></trkpt><trkpt lat="43.872207017020806" lon="11.945513999856953"><ele>902.2</ele><time>2026-05-02T07:25:32Z</time></trkpt><trkpt lat="43.87212350533941" lon="11.945592274227462"><ele>903.0</ele><time>2026-05-02T07:25:34Z</time></trkpt><trkpt lat="43.872022585223284" lon="11.945661142337821"><ele>903.0</ele><time>2026-05-02T07:25:36Z</time></trkpt><trkpt lat="43.871914415310506" lon="11.945709198507076"><ele>903.0</ele><time>2026-05-02T07:25:38Z</time></trkpt><trkpt lat="43.87186906071143" lon="11.945770043245503"><ele>903.0</ele><time>2026-05-02T07:25:39Z</time></trkpt><trkpt lat="43.87182195684491" lon="11.945830408965259"><ele>903.0</ele><time>2026-05-02T07:25:40Z</time></trkpt><trkpt lat="43.87172706895017" lon="11.945838814399155"><ele>903.0</ele><time>2026-05-02T07:25:42Z</time></trkpt><trkpt lat="43.871658196905315" lon="11.945807309741292"><ele>903.0</ele><time>2026-05-02T07:25:43Z</time></trkpt><trkpt lat="43.87159465008142" lon="11.945774444934994"><ele>905.5</ele><time>2026-05-02T07:25:44Z</time></trkpt><trkpt lat="43.87152329305328" lon="11.945736587405696"><ele>908.0</ele><time>2026-05-02T07:25:45Z</time></trkpt><trkpt lat="43.871464923596896" lon="11.945693143701556"><ele>910.5</ele><time>2026-05-02T07:25:46Z</time></trkpt><trkpt lat="43.87137048001712" lon="11.945640870049163"><ele>913.0</ele><time>2026-05-02T07:25:48Z</time></trkpt><trkpt lat="43.87130641307627" lon="11.94563437542138"><ele>915.5</ele><time>2026-05-02T07:26:44Z</time></trkpt><trkpt lat="43.87121770061529" lon="11.945652903245819"><ele>918.0</ele><time>2026-05-02T07:26:47Z</time></trkpt><trkpt lat="43.871154392395916" lon="11.945647702784822"><ele>918.0</ele><time>2026-05-02T07:26:49Z</time></trkpt><trkpt lat="43.871063453813356" lon="11.945662964481272"><ele>918.0</ele><time>2026-05-02T07:27:32Z</time></trkpt><trkpt lat="43.87096325795833" lon="11.945644466581692"><ele>918.0</ele><time>2026-05-02T07:27:34Z</time></trkpt><trkpt lat="43.870875058606764" lon="11.945612370400987"><ele>918.0</ele><time>2026-05-02T07:27:36Z</time></trkpt><trkpt lat="43.870782592625666" lon="11.945601128712763"><ele>918.0</ele><time>2026-05-02T07:27:38Z</time></trkpt><trkpt lat="43.87066820754183" lon="11.945607332380341"><ele>919.8333333333334</ele><time>2026-05-02T07:27:40Z</time></trkpt><trkpt lat="43.8705734300216" lon="11.945612573389878"><ele>921.6666666666667</ele><time>2026-05-02T07:27:42Z</time></trkpt><trkpt lat="43.87048335381908" lon="11.945591293067006"><ele>923.5</ele><time>2026-05-02T07:27:44Z</time></trkpt><trkpt lat="43.870417099146195" lon="11.945563085967628"><ele>925.3333333333334</ele><time>2026-05-02T07:27:46Z</time></trkpt><trkpt lat="43.87035012462499" lon="11.945589461480743"><ele>927.1666666666667</ele><time>2026-05-02T07:28:13Z</time></trkpt><trkpt lat="43.870230792376205" lon="11.945573206965257"><ele>929.0</ele><time>2026-05-02T07:28:15Z</time></trkpt><trkpt lat="43.870162841913896" lon="11.945554918066703"><ele>930.5000000000001</ele><time>2026-05-02T07:28:16Z</time></trkpt><trkpt lat="43.87006183712981" lon="11.94554473453672"><ele>932.0</ele><time>2026-05-02T07:28:18Z</time></trkpt><trkpt lat="43.86997874683902" lon="11.945551481375913"><ele>933.5</ele><time>2026-05-02T07:28:21Z</time></trkpt><trkpt lat="43.86990776070286" lon="11.945581304174127"><ele>935.0</ele><time>2026-05-02T07:28:23Z</time></trkpt><trkpt lat="43.86983157864111" lon="11.945568753245773"><ele>936.5000000000001</ele><time>2026-05-02T07:28:25Z</time></trkpt><trkpt lat="43.86975171633909" lon="11.945516167833139"><ele>938.0</ele><time>2026-05-02T07:28:28Z</time></trkpt><trkpt lat="43.8697012701201" lon="11.945451368749367"><ele>938.0000000000001</ele><time>2026-05-02T07:28:49Z</time></trkpt><trkpt lat="43.86963922371931" lon="11.94538409994241"><ele>938.0</ele><time>2026-05-02T07:28:51Z</time></trkpt><trkpt lat="43.869575433917205" lon="11.945280550802927"><ele>938.0</ele><time>2026-05-02T07:28:54Z</time></trkpt><trkpt lat="43.86952459074043" lon="11.945190044638437"><ele>938.0</ele><time>2026-05-02T07:28:57Z</time></trkpt><trkpt lat="43.86948654567522" lon="11.945116719804718"><ele>938.0000000000001</ele><time>2026-05-02T07:28:59Z</time></trkpt><trkpt lat="43.8694362877333" lon="11.945024080917268"><ele>938.0</ele><time>2026-05-02T07:29:01Z</time></trkpt><trkpt lat="43.869395211076174" lon="11.94492965316965"><ele>937.6666666666667</ele><time>2026-05-02T07:29:03Z</time></trkpt><trkpt lat="43.86935923290337" lon="11.944835260673115"><ele>937.3333333333334</ele><time>2026-05-02T07:29:05Z</time></trkpt><trkpt lat="43.86932150930711" lon="11.94474380070082"><ele>937.0</ele><time>2026-05-02T07:29:07Z</time></trkpt><trkpt lat="43.8692882181061" lon="11.944655774761426"><ele>936.6666666666667</ele><time>2026-05-02T07:29:09Z</time></trkpt><trkpt lat="43.86924885131812" lon="11.944578255666556"><ele>936.3333333333334</ele><time>2026-05-02T07:29:11Z</time></trkpt><trkpt lat="43.8691698929945" lon="11.944487490970033"><ele>936.0</ele><time>2026-05-02T07:29:13Z</time></trkpt><trkpt lat="43.86907592139049" lon="11.944411173257173"><ele>936.0</ele><time>2026-05-02T07:29:15Z</time></trkpt><trkpt lat="43.86898539534443" lon="11.94434012250058"><ele>935.9999999999999</ele><time>2026-05-02T07:29:17Z</time></trkpt><trkpt lat="43.868894070056214" lon="11.944305593492961"><ele>935.9999999999999</ele><time>2026-05-02T07:29:19Z</time></trkpt><trkpt lat="43.86881458829966" lon="11.944311271846393"><ele>936.0</ele><time>2026-05-02T07:29:21Z</time></trkpt><trkpt lat="43.86873286774576" lon="11.944328087913766"><ele>936.0</ele><time>2026-05-02T07:29:23Z</time></trkpt><trkpt lat="43.86863604753713" lon="11.944323821246659"><ele>936.0</ele><time>2026-05-02T07:29:25Z</time></trkpt><trkpt lat="43.86854411239162" lon="11.944301439614124"><ele>936.0000000000001</ele><time>2026-05-02T07:29:27Z</time></trkpt><trkpt lat="43.86845312627808" lon="11.944280973411185"><ele>936.0</ele><time>2026-05-02T07:29:29Z</time></trkpt><trkpt lat="43.86838679332286" lon="11.944265342102176"><ele>936.0</ele><time>2026-05-02T07:29:31Z</time></trkpt><trkpt lat="43.868331682317496" lon="11.944218052597956"><ele>936.0000000000001</ele><time>2026-05-02T07:29:33Z</time></trkpt><trkpt lat="43.8683048545248" lon="11.944131556861741"><ele>936.0</ele><time>2026-05-02T07:29:35Z</time></trkpt><trkpt lat="43.86828349939008" lon="11.944047939391536"><ele>936.0</ele><time>2026-05-02T07:29:37Z</time></trkpt><trkpt lat="43.86827982182655" lon="11.943955113004103"><ele>934.6666666666666</ele><time>2026-05-02T07:29:39Z</time></trkpt><trkpt lat="43.86827202117068" lon="11.943859637836736"><ele>933.3333333333333</ele><time>2026-05-02T07:29:41Z</time></trkpt><trkpt lat="43.86827150196053" lon="11.94376805595686"><ele>932.0</ele><time>2026-05-02T07:29:43Z</time></trkpt><trkpt lat="43.86827962053878" lon="11.943645643350916"><ele>930.6666666666666</ele><time>2026-05-02T07:29:46Z</time></trkpt><trkpt lat="43.86827780832677" lon="11.943523645746959"><ele>929.3333333333333</ele><time>2026-05-02T07:29:49Z</time></trkpt><trkpt lat="43.868270993081325" lon="11.943396267637668"><ele>928.0</ele><time>2026-05-02T07:29:52Z</time></trkpt><trkpt lat="43.86827306425656" lon="11.943263377011387"><ele>927.9999999999999</ele><time>2026-05-02T07:29:55Z</time></trkpt><trkpt lat="43.86826695887941" lon="11.943162127924284"><ele>928.0</ele><time>2026-05-02T07:29:57Z</time></trkpt><trkpt lat="43.86825078690321" lon="11.9430550202431"><ele>928.0</ele><time>2026-05-02T07:29:59Z</time></trkpt><trkpt lat="43.86826577287115" lon="11.94293414060501"><ele>928.0</ele><time>2026-05-02T07:30:02Z</time></trkpt><trkpt lat="43.86824952714673" lon="11.942839873798649"><ele>927.9999999999999</ele><time>2026-05-02T07:30:05Z</time></trkpt><trkpt lat="43.86824659668048" lon="11.942685709073379"><ele>928.0</ele><time>2026-05-02T07:30:08Z</time></trkpt><trkpt lat="43.86826236327723" lon="11.942597699431184"><ele>927.8333333333333</ele><time>2026-05-02T07:30:11Z</time></trkpt><trkpt lat="43.86829784763881" lon="11.942506754437913"><ele>927.6666666666666</ele><time>2026-05-02T07:30:13Z</time></trkpt><trkpt lat="43.86833587064283" lon="11.942417614971975"><ele>927.5</ele><time>2026-05-02T07:30:15Z</time></trkpt><trkpt lat="43.86837665213364" lon="11.942337727330283"><ele>927.3333333333333</ele><time>2026-05-02T07:30:17Z</time></trkpt><trkpt lat="43.868391030938874" lon="11.94224952352326"><ele>927.1666666666666</ele><time>2026-05-02T07:30:19Z</time></trkpt><trkpt lat="43.868387483242465" lon="11.942120765284164"><ele>927.0</ele><time>2026-05-02T07:30:21Z</time></trkpt><trkpt lat="43.868403570352704" lon="11.9419910233296"><ele>927.0</ele><time>2026-05-02T07:30:23Z</time></trkpt><trkpt lat="43.86841643839664" lon="11.9418947956935"><ele>927.0</ele><time>2026-05-02T07:30:25Z</time></trkpt><trkpt lat="43.86845591712108" lon="11.941804491531668"><ele>927.0</ele><time>2026-05-02T07:30:27Z</time></trkpt><trkpt lat="43.86847405462323" lon="11.941678530250066"><ele>927.0</ele><time>2026-05-02T07:30:29Z</time></trkpt><trkpt lat="43.868505559390655" lon="11.94153173475958"><ele>927.0</ele><time>2026-05-02T07:30:31Z</time></trkpt><trkpt lat="43.86849396090456" lon="11.94139561385538"><ele>927.0</ele><time>2026-05-02T07:30:33Z</time></trkpt><trkpt lat="43.868469321102566" lon="11.941294760378279"><ele>925.6666666666666</ele><time>2026-05-02T07:30:35Z</time></trkpt><trkpt lat="43.868449403156596" lon="11.941196233311974"><ele>924.3333333333333</ele><time>2026-05-02T07:30:37Z</time></trkpt><trkpt lat="43.86843589400767" lon="11.941073461900029"><ele>923.0</ele><time>2026-05-02T07:30:39Z</time></trkpt><trkpt lat="43.86843713529234" lon="11.94097230471074"><ele>921.6666666666666</ele><time>2026-05-02T07:30:41Z</time></trkpt><trkpt lat="43.86842735569492" lon="11.940838192873187"><ele>920.3333333333333</ele><time>2026-05-02T07:30:44Z</time></trkpt><trkpt lat="43.868392290906236" lon="11.94073426649726"><ele>919.0</ele><time>2026-05-02T07:30:46Z</time></trkpt><trkpt lat="43.86838989550733" lon="11.940610642531633"><ele>919.1666666666666</ele><time>2026-05-02T07:30:48Z</time></trkpt><trkpt lat="43.86836710658121" lon="11.940487892906871"><ele>919.3333333333333</ele><time>2026-05-02T07:30:50Z</time></trkpt><trkpt lat="43.86834713792484" lon="11.940371301680925"><ele>919.5</ele><time>2026-05-02T07:30:52Z</time></trkpt><trkpt lat="43.8683446374703" lon="11.940268748166364"><ele>919.6666666666667</ele><time>2026-05-02T07:30:54Z</time></trkpt><trkpt lat="43.86831556645013" lon="11.940138727880994"><ele>919.8333333333334</ele><time>2026-05-02T07:30:57Z</time></trkpt><trkpt lat="43.86824270771496" lon="11.940054071324804"><ele>920.0</ele><time>2026-05-02T07:30:59Z</time></trkpt><trkpt lat="43.86816838508223" lon="11.939957489612745"><ele>920.0000000000001</ele><time>2026-05-02T07:31:01Z</time></trkpt><trkpt lat="43.86810253146265" lon="11.93989570092863"><ele>920.0</ele><time>2026-05-02T07:31:03Z</time></trkpt><trkpt lat="43.86807123146249" lon="11.939801589563503"><ele>920.0</ele><time>2026-05-02T07:31:10Z</time></trkpt><trkpt lat="43.86804651771468" lon="11.939714947269914"><ele>920.0</ele><time>2026-05-02T07:31:13Z</time></trkpt><trkpt lat="43.868024457109065" lon="11.939628662782527"><ele>920.0000000000001</ele><time>2026-05-02T07:31:19Z</time></trkpt><trkpt lat="43.868039710473624" lon="11.939477400498879"><ele>920.0</ele><time>2026-05-02T07:31:21Z</time></trkpt><trkpt lat="43.868060410223706" lon="11.939384129333947"><ele>920.0000000000001</ele><time>2026-05-02T07:31:23Z</time></trkpt><trkpt lat="43.86810182495087" lon="11.93929943951008"><ele>920.0</ele><time>2026-05-02T07:31:25Z</time></trkpt><trkpt lat="43.868074562328616" lon="11.939212964668005"><ele>920.0</ele><time>2026-05-02T07:31:29Z</time></trkpt><trkpt lat="43.86802526100492" lon="11.939076614193185"><ele>920.0</ele><time>2026-05-02T07:31:42Z</time></trkpt><trkpt lat="43.86797887392415" lon="11.938979284626518"><ele>920.0000000000001</ele><time>2026-05-02T07:31:44Z</time></trkpt><trkpt lat="43.86792482620882" lon="11.938908742269382"><ele>920.0</ele><time>2026-05-02T07:31:46Z</time></trkpt><trkpt lat="43.867849673752914" lon="11.938915968598442"><ele>920.1666666666667</ele><time>2026-05-02T07:32:01Z</time></trkpt><trkpt lat="43.86777886651356" lon="11.938875293232536"><ele>920.3333333333334</ele><time>2026-05-02T07:32:04Z</time></trkpt><trkpt lat="43.86773085161332" lon="11.938779516230452"><ele>920.5</ele><time>2026-05-02T07:32:06Z</time></trkpt><trkpt lat="43.86768108691838" lon="11.938670155887435"><ele>920.6666666666667</ele><time>2026-05-02T07:32:08Z</time></trkpt><trkpt lat="43.86762339199195" lon="11.93858953249221"><ele>920.8333333333334</ele><time>2026-05-02T07:32:11Z</time></trkpt><trkpt lat="43.86754315056378" lon="11.93849076347551"><ele>921.0</ele><time>2026-05-02T07:32:13Z</time></trkpt><trkpt lat="43.86748874319906" lon="11.938442195542235"><ele>921.0</ele><time>2026-05-02T07:32:43Z</time></trkpt><trkpt lat="43.86743442200789" lon="11.93839135635219"><ele>921.0</ele><time>2026-05-02T07:32:45Z</time></trkpt><trkpt lat="43.867364605618" lon="11.938346394576065"><ele>921.0</ele><time>2026-05-02T07:32:48Z</time></trkpt><trkpt lat="43.86728038665738" lon="11.938314623537154"><ele>921.0</ele><time>2026-05-02T07:33:00Z</time></trkpt><trkpt lat="43.86721841100767" lon="11.93828392496457"><ele>921.0</ele><time>2026-05-02T07:33:43Z</time></trkpt><trkpt lat="43.867155751177464" lon="11.938246771151375"><ele>921.0</ele><time>2026-05-02T07:34:14Z</time></trkpt><trkpt lat="43.867072130838395" lon="11.938199575529607"><ele>921.3333333333334</ele><time>2026-05-02T07:34:17Z</time></trkpt><trkpt lat="43.86700026952067" lon="11.938150972746541"><ele>921.6666666666667</ele><time>2026-05-02T07:34:19Z</time></trkpt><trkpt lat="43.86691517679306" lon="11.938096396482058"><ele>922.0</ele><time>2026-05-02T07:34:22Z</time></trkpt><trkpt lat="43.86686470106413" lon="11.938034601786423"><ele>922.3333333333334</ele><time>2026-05-02T07:34:24Z</time></trkpt><trkpt lat="43.866807344067894" lon="11.937959880524181"><ele>922.6666666666667</ele><time>2026-05-02T07:34:26Z</time></trkpt><trkpt lat="43.86672532689105" lon="11.937878164305669"><ele>923.0</ele><time>2026-05-02T07:34:28Z</time></trkpt><trkpt lat="43.86667325163609" lon="11.93780438864421"><ele>922.8333333333334</ele><time>2026-05-02T07:34:30Z</time></trkpt><trkpt lat="43.86661964144707" lon="11.937746812684104"><ele>922.6666666666667</ele><time>2026-05-02T07:34:32Z</time></trkpt><trkpt lat="43.86656082056178" lon="11.93766604066559"><ele>922.5</ele><time>2026-05-02T07:34:40Z</time></trkpt><trkpt lat="43.86651410957997" lon="11.937561646895805"><ele>922.3333333333333</ele><time>2026-05-02T07:34:58Z</time></trkpt><trkpt lat="43.86646637349745" lon="11.937500114200652"><ele>922.1666666666666</ele><time>2026-05-02T07:34:59Z</time></trkpt><trkpt lat="43.86637960567612" lon="11.937420017812878"><ele>922.0</ele><time>2026-05-02T07:35:01Z</time></trkpt><trkpt lat="43.86631743527569" lon="11.937376344866593"><ele>922.0</ele><time>2026-05-02T07:35:03Z</time></trkpt><trkpt lat="43.866202793069085" lon="11.937334636656102"><ele>922.0</ele><time>2026-05-02T07:35:05Z</time></trkpt><trkpt lat="43.8660950075739" lon="11.93731728016009"><ele>922.0</ele><time>2026-05-02T07:35:07Z</time></trkpt><trkpt lat="43.866022957105365" lon="11.93738016683482"><ele>922.0</ele><time>2026-05-02T07:35:09Z</time></trkpt><trkpt lat="43.8659466783315" lon="11.937396343225082"><ele>922.0</ele><time>2026-05-02T07:35:11Z</time></trkpt><trkpt lat="43.86584773259648" lon="11.937394331341054"><ele>924.4000000000001</ele><time>2026-05-02T07:35:13Z</time></trkpt><trkpt lat="43.86576690924619" lon="11.937355706274138"><ele>926.8000000000001</ele><time>2026-05-02T07:35:15Z</time></trkpt><trkpt lat="43.865678279940525" lon="11.937320004773419"><ele>929.2</ele><time>2026-05-02T07:35:17Z</time></trkpt><trkpt lat="43.86558283254789" lon="11.93729471763974"><ele>931.6</ele><time>2026-05-02T07:35:19Z</time></trkpt><trkpt lat="43.86548658381733" lon="11.937265317097149"><ele>934.0</ele><time>2026-05-02T07:35:21Z</time></trkpt><trkpt lat="43.865405288174976" lon="11.937154715332005"><ele>934.0</ele><time>2026-05-02T07:35:23Z</time></trkpt><trkpt lat="43.865337171293746" lon="11.937054467638648"><ele>934.0000000000001</ele><time>2026-05-02T07:35:25Z</time></trkpt><trkpt lat="43.865277846906885" lon="11.936959893113931"><ele>934.0000000000001</ele><time>2026-05-02T07:35:27Z</time></trkpt><trkpt lat="43.86523409695596" lon="11.936872224021343"><ele>934.0</ele><time>2026-05-02T07:35:29Z</time></trkpt><trkpt lat="43.86520051863629" lon="11.936750756359777"><ele>934.0</ele><time>2026-05-02T07:35:31Z</time></trkpt><trkpt lat="43.86514264190073" lon="11.936647632668828"><ele>935.1666666666666</ele><time>2026-05-02T07:35:33Z</time></trkpt><trkpt lat="43.865097364235375" lon="11.936544858240513"><ele>936.3333333333333</ele><time>2026-05-02T07:35:35Z</time></trkpt><trkpt lat="43.86504222746983" lon="11.936423079656135"><ele>937.5</ele><time>2026-05-02T07:35:37Z</time></trkpt><trkpt lat="43.86498626749182" lon="11.936357926196756"><ele>938.6666666666667</ele><time>2026-05-02T07:35:39Z</time></trkpt><trkpt lat="43.86493044881832" lon="11.936292378159855"><ele>939.8333333333334</ele><time>2026-05-02T07:35:41Z</time></trkpt><trkpt lat="43.86487854331456" lon="11.936204539616734"><ele>941.0</ele><time>2026-05-02T07:35:44Z</time></trkpt><trkpt lat="43.86482868138225" lon="11.93612115262195"><ele>941.0000000000001</ele><time>2026-05-02T07:35:46Z</time></trkpt><trkpt lat="43.86477303213949" lon="11.93602333118655"><ele>941.0</ele><time>2026-05-02T07:35:48Z</time></trkpt><trkpt lat="43.864723153729145" lon="11.935933606043184"><ele>941.0</ele><time>2026-05-02T07:35:50Z</time></trkpt><trkpt lat="43.864657099605516" lon="11.93584475372557"><ele>941.0</ele><time>2026-05-02T07:35:52Z</time></trkpt><trkpt lat="43.86462390773745" lon="11.935759550949811"><ele>941.0000000000001</ele><time>2026-05-02T07:35:54Z</time></trkpt><trkpt lat="43.86457647234111" lon="11.935667272213166"><ele>941.0</ele><time>2026-05-02T07:35:56Z</time></trkpt><trkpt lat="43.86453466686847" lon="11.935583916492547"><ele>941.8333333333334</ele><time>2026-05-02T07:35:59Z</time></trkpt><trkpt lat="43.86444922594902" lon="11.935525284853572"><ele>942.6666666666667</ele><time>2026-05-02T07:38:00Z</time></trkpt><trkpt lat="43.86437086785542" lon="11.935507957326303"><ele>943.5</ele><time>2026-05-02T07:38:02Z</time></trkpt><trkpt lat="43.8643106639424" lon="11.93544850767145"><ele>944.3333333333333</ele><time>2026-05-02T07:38:04Z</time></trkpt><trkpt lat="43.86425870300005" lon="11.935328580869745"><ele>945.1666666666666</ele><time>2026-05-02T07:38:07Z</time></trkpt><trkpt lat="43.86421715479238" lon="11.935226681413548"><ele>946.0</ele><time>2026-05-02T07:38:09Z</time></trkpt><trkpt lat="43.86412755210336" lon="11.935199932634074"><ele>945.9999999999999</ele><time>2026-05-02T07:38:11Z</time></trkpt><trkpt lat="43.86405556613295" lon="11.93520518562507"><ele>946.0</ele><time>2026-05-02T07:38:13Z</time></trkpt><trkpt lat="43.86397725824153" lon="11.935230686944589"><ele>946.0</ele><time>2026-05-02T07:38:15Z</time></trkpt><trkpt lat="43.86390011979801" lon="11.935190003045024"><ele>946.0</ele><time>2026-05-02T07:38:17Z</time></trkpt><trkpt lat="43.863844026930565" lon="11.935116964593753"><ele>945.9999999999999</ele><time>2026-05-02T07:38:19Z</time></trkpt><trkpt lat="43.863773966410335" lon="11.935146423659694"><ele>946.0</ele><time>2026-05-02T07:38:21Z</time></trkpt><trkpt lat="43.86371739292968" lon="11.935200314768315"><ele>945.9999999999999</ele><time>2026-05-02T07:38:23Z</time></trkpt><trkpt lat="43.86363881417107" lon="11.935216593394411"><ele>946.0</ele><time>2026-05-02T07:38:25Z</time></trkpt><trkpt lat="43.86355777349487" lon="11.935200271961095"><ele>946.0</ele><time>2026-05-02T07:38:27Z</time></trkpt><trkpt lat="43.86347394183522" lon="11.935179905680503"><ele>946.0</ele><time>2026-05-02T07:38:29Z</time></trkpt><trkpt lat="43.86341024531726" lon="11.935199801704954"><ele>945.9999999999999</ele><time>2026-05-02T07:38:31Z</time></trkpt><trkpt lat="43.863334298878975" lon="11.935178242499186"><ele>946.0</ele><time>2026-05-02T07:38:34Z</time></trkpt><trkpt lat="43.8632780294709" lon="11.935086056245826"><ele>949.4999999999999</ele><time>2026-05-02T07:38:36Z</time></trkpt><trkpt lat="43.863178704738274" lon="11.935078399279625"><ele>953.0</ele><time>2026-05-02T07:38:39Z</time></trkpt><trkpt lat="43.86309768624737" lon="11.935098216832854"><ele>956.5</ele><time>2026-05-02T07:38:41Z</time></trkpt><trkpt lat="43.86300196741989" lon="11.935075424590618"><ele>960.0</ele><time>2026-05-02T07:38:43Z</time></trkpt><trkpt lat="43.86293864144544" lon="11.935093959684227"><ele>963.4999999999999</ele><time>2026-05-02T07:38:46Z</time></trkpt><trkpt lat="43.862868272634124" lon="11.935084495701357"><ele>967.0</ele><time>2026-05-02T07:38:49Z</time></trkpt><trkpt lat="43.862878773615805" lon="11.934992956568758"><ele>969.9999999999999</ele><time>2026-05-02T07:38:51Z</time></trkpt><trkpt lat="43.862823747868234" lon="11.934943989203115"><ele>973.0</ele><time>2026-05-02T07:38:54Z</time></trkpt><trkpt lat="43.86274294091627" lon="11.934895312103274"><ele>976.0</ele><time>2026-05-02T07:38:57Z</time></trkpt><trkpt lat="43.862723189501054" lon="11.93480972445994"><ele>979.0</ele><time>2026-05-02T07:38:59Z</time></trkpt><trkpt lat="43.86281735448243" lon="11.934779576498931"><ele>981.9999999999999</ele><time>2026-05-02T07:39:02Z</time></trkpt><trkpt lat="43.862881234924394" lon="11.934737433910955"><ele>985.0</ele><time>2026-05-02T07:39:05Z</time></trkpt><trkpt lat="43.86286696626193" lon="11.934649397855503"><ele>984.9999999999999</ele><time>2026-05-02T07:39:07Z</time></trkpt><trkpt lat="43.862771809050024" lon="11.93460114753814"><ele>985.0</ele><time>2026-05-02T07:39:17Z</time></trkpt><trkpt lat="43.86270768741822" lon="11.934523246481467"><ele>985.0</ele><time>2026-05-02T07:39:19Z</time></trkpt><trkpt lat="43.86264212031536" lon="11.934448821667791"><ele>985.0</ele><time>2026-05-02T07:39:21Z</time></trkpt><trkpt lat="43.8625763781389" lon="11.934402918916462"><ele>984.9999999999999</ele><time>2026-05-02T07:39:23Z</time></trkpt><trkpt lat="43.86251947598155" lon="11.934360104760154"><ele>985.0</ele><time>2026-05-02T07:39:26Z</time></trkpt><trkpt lat="43.862425224888355" lon="11.934283833091847"><ele>989.8333333333333</ele><time>2026-05-02T07:39:28Z</time></trkpt><trkpt lat="43.86235700502699" lon="11.934192378952192"><ele>994.6666666666666</ele><time>2026-05-02T07:39:30Z</time></trkpt><trkpt lat="43.86230761322978" lon="11.934098856634265"><ele>999.5</ele><time>2026-05-02T07:39:32Z</time></trkpt><trkpt lat="43.862229356355286" lon="11.933991783830189"><ele>1004.3333333333333</ele><time>2026-05-02T07:39:34Z</time></trkpt><trkpt lat="43.86216304288183" lon="11.933970180173855"><ele>1009.1666666666666</ele><time>2026-05-02T07:39:37Z</time></trkpt><trkpt lat="43.862093420184145" lon="11.93395025035982"><ele>1014.0</ele><time>2026-05-02T07:39:39Z</time></trkpt><trkpt lat="43.862011887453676" lon="11.933844762710502"><ele>1014.0</ele><time>2026-05-02T07:39:40Z</time></trkpt><trkpt lat="43.86194292732" lon="11.933712040865435"><ele>1014.0000000000001</ele><time>2026-05-02T07:39:42Z</time></trkpt><trkpt lat="43.86193386182785" lon="11.933558454694152"><ele>1014.0000000000001</ele><time>2026-05-02T07:39:44Z</time></trkpt><trkpt lat="43.861877724818335" lon="11.933474883521884"><ele>1014.0</ele><time>2026-05-02T07:39:46Z</time></trkpt><trkpt lat="43.86179101588915" lon="11.93344307499245"><ele>1014.0</ele><time>2026-05-02T07:39:48Z</time></trkpt><trkpt lat="43.86165042169677" lon="11.933446766516393"><ele>1017.4000000000001</ele><time>2026-05-02T07:39:50Z</time></trkpt><trkpt lat="43.86154439884764" lon="11.933471322183118"><ele>1020.8000000000001</ele><time>2026-05-02T07:39:52Z</time></trkpt><trkpt lat="43.861425427809195" lon="11.933471489899015"><ele>1024.1999999999998</ele><time>2026-05-02T07:39:55Z</time></trkpt><trkpt lat="43.861354723488716" lon="11.933429122525126"><ele>1027.6</ele><time>2026-05-02T07:39:56Z</time></trkpt><trkpt lat="43.86127433984694" lon="11.933321544898034"><ele>1031.0</ele><time>2026-05-02T07:39:58Z</time></trkpt><trkpt lat="43.86125458104753" lon="11.933233225630078"><ele>1032.8333333333335</ele><time>2026-05-02T07:39:59Z</time></trkpt><trkpt lat="43.86120927577585" lon="11.933143138940334"><ele>1034.6666666666667</ele><time>2026-05-02T07:40:02Z</time></trkpt><trkpt lat="43.861139173060195" lon="11.933155879478866"><ele>1036.5</ele><time>2026-05-02T07:41:00Z</time></trkpt><trkpt lat="43.86104701369296" lon="11.933125946556126"><ele>1038.3333333333333</ele><time>2026-05-02T07:41:02Z</time></trkpt><trkpt lat="43.86097765178142" lon="11.93309619264855"><ele>1040.1666666666665</ele><time>2026-05-02T07:41:04Z</time></trkpt><trkpt lat="43.86090744216165" lon="11.933090680457541"><ele>1042.0</ele><time>2026-05-02T07:41:06Z</time></trkpt><trkpt lat="43.86078650791691" lon="11.933090108392312"><ele>1044.0</ele><time>2026-05-02T07:41:08Z</time></trkpt><trkpt lat="43.86064746926755" lon="11.933100351605917"><ele>1046.0</ele><time>2026-05-02T07:41:10Z</time></trkpt><trkpt lat="43.860579248202406" lon="11.93312263965598"><ele>1048.0</ele><time>2026-05-02T07:41:11Z</time></trkpt><trkpt lat="43.860504095026315" lon="11.933139135540733"><ele>1050.0</ele><time>2026-05-02T07:41:12Z</time></trkpt><trkpt lat="43.86038844713144" lon="11.933155054296368"><ele>1052.0</ele><time>2026-05-02T07:41:14Z</time></trkpt><trkpt lat="43.86029339781522" lon="11.93317363068228"><ele>1052.0</ele><time>2026-05-02T07:41:16Z</time></trkpt><trkpt lat="43.86021573457737" lon="11.933177947783713"><ele>1052.0</ele><time>2026-05-02T07:41:18Z</time></trkpt><trkpt lat="43.86015089987095" lon="11.933216540505892"><ele>1052.0</ele><time>2026-05-02T07:41:21Z</time></trkpt><trkpt lat="43.86007280506838" lon="11.933224626083415"><ele>1052.0</ele><time>2026-05-02T07:41:24Z</time></trkpt><trkpt lat="43.85998621167303" lon="11.933204766778873"><ele>1052.0</ele><time>2026-05-02T07:41:26Z</time></trkpt><trkpt lat="43.85991730800173" lon="11.933182873382718"><ele>1052.0</ele><time>2026-05-02T07:41:28Z</time></trkpt><trkpt lat="43.85980089481775" lon="11.933161792605146"><ele>1053.6</ele><time>2026-05-02T07:41:30Z</time></trkpt><trkpt lat="43.859705520517984" lon="11.933119658628465"><ele>1055.2</ele><time>2026-05-02T07:41:32Z</time></trkpt><trkpt lat="43.859573328186215" lon="11.933081257960316"><ele>1056.8</ele><time>2026-05-02T07:41:34Z</time></trkpt><trkpt lat="43.85948354485291" lon="11.933075375176104"><ele>1058.4</ele><time>2026-05-02T07:41:56Z</time></trkpt><trkpt lat="43.85941217345848" lon="11.933034845601133"><ele>1060.0</ele><time>2026-05-02T07:41:58Z</time></trkpt><trkpt lat="43.859349725507215" lon="11.933009547936596"><ele>1059.0</ele><time>2026-05-02T07:41:59Z</time></trkpt><trkpt lat="43.859245197230344" lon="11.932977272578805"><ele>1058.0</ele><time>2026-05-02T07:42:01Z</time></trkpt><trkpt lat="43.85918598492822" lon="11.93294749343529"><ele>1057.0</ele><time>2026-05-02T07:42:02Z</time></trkpt><trkpt lat="43.85908035737728" lon="11.932928981521757"><ele>1056.0</ele><time>2026-05-02T07:42:04Z</time></trkpt><trkpt lat="43.859013785153685" lon="11.932886191480788"><ele>1055.0</ele><time>2026-05-02T07:42:05Z</time></trkpt><trkpt lat="43.85892985461301" lon="11.932845647177283"><ele>1054.0</ele><time>2026-05-02T07:42:06Z</time></trkpt><trkpt lat="43.858858527673505" lon="11.93281146917541"><ele>1054.0</ele><time>2026-05-02T07:42:07Z</time></trkpt><trkpt lat="43.85874806799753" lon="11.93272456903163"><ele>1054.0</ele><time>2026-05-02T07:42:09Z</time></trkpt><trkpt lat="43.85868902563775" lon="11.932685150885362"><ele>1054.0</ele><time>2026-05-02T07:42:10Z</time></trkpt><trkpt lat="43.85862223076598" lon="11.932662342929946"><ele>1054.0</ele><time>2026-05-02T07:42:11Z</time></trkpt><trkpt lat="43.858556318452415" lon="11.932603152973494"><ele>1054.0</ele><time>2026-05-02T07:42:12Z</time></trkpt><trkpt lat="43.85848615320567" lon="11.932582874454464"><ele>1054.0</ele><time>2026-05-02T07:42:13Z</time></trkpt><trkpt lat="43.8584207802228" lon="11.932581767653119"><ele>1051.2</ele><time>2026-05-02T07:42:14Z</time></trkpt><trkpt lat="43.858305771705346" lon="11.932563906127337"><ele>1048.4</ele><time>2026-05-02T07:42:16Z</time></trkpt><trkpt lat="43.858244189846594" lon="11.932583900699289"><ele>1045.6</ele><time>2026-05-02T07:42:17Z</time></trkpt><trkpt lat="43.85813516524415" lon="11.932662531816527"><ele>1042.8</ele><time>2026-05-02T07:42:19Z</time></trkpt><trkpt lat="43.858068049473275" lon="11.932724577462704"><ele>1040.0</ele><time>2026-05-02T07:42:21Z</time></trkpt><trkpt lat="43.85796352005131" lon="11.932712613345258"><ele>1040.0</ele><time>2026-05-02T07:42:23Z</time></trkpt><trkpt lat="43.85785464797274" lon="11.932693195083674"><ele>1040.0</ele><time>2026-05-02T07:42:25Z</time></trkpt><trkpt lat="43.85775498772693" lon="11.932711990199126"><ele>1040.0</ele><time>2026-05-02T07:42:27Z</time></trkpt><trkpt lat="43.85768379326095" lon="11.932764406073517"><ele>1040.0</ele><time>2026-05-02T07:42:29Z</time></trkpt><trkpt lat="43.85759071099755" lon="11.932761360739185"><ele>1040.0</ele><time>2026-05-02T07:42:31Z</time></trkpt><trkpt lat="43.85750539875549" lon="11.93271841705579"><ele>1038.5</ele><time>2026-05-02T07:42:33Z</time></trkpt><trkpt lat="43.857437711963605" lon="11.932698095129764"><ele>1037.0</ele><time>2026-05-02T07:42:35Z</time></trkpt><trkpt lat="43.85732433678413" lon="11.932752630016205"><ele>1035.5</ele><time>2026-05-02T07:42:37Z</time></trkpt><trkpt lat="43.85728375177754" lon="11.932822437438793"><ele>1034.0</ele><time>2026-05-02T07:42:38Z</time></trkpt><trkpt lat="43.85722412337251" lon="11.932897963968525"><ele>1032.5</ele><time>2026-05-02T07:42:41Z</time></trkpt><trkpt lat="43.8571481040646" lon="11.932931517958432"><ele>1031.0</ele><time>2026-05-02T07:42:43Z</time></trkpt><trkpt lat="43.85707115689785" lon="11.932963871167349"><ele>1031.0</ele><time>2026-05-02T07:42:45Z</time></trkpt><trkpt lat="43.856999637580955" lon="11.932956454348657"><ele>1031.0</ele><time>2026-05-02T07:42:47Z</time></trkpt><trkpt lat="43.85692880760385" lon="11.932962930308548"><ele>1031.0</ele><time>2026-05-02T07:42:49Z</time></trkpt><trkpt lat="43.85681051824157" lon="11.93296125044158"><ele>1031.0</ele><time>2026-05-02T07:42:51Z</time></trkpt><trkpt lat="43.85673854978569" lon="11.932939217242776"><ele>1031.0</ele><time>2026-05-02T07:42:53Z</time></trkpt><trkpt lat="43.85668127425987" lon="11.932902837458155"><ele>1031.0</ele><time>2026-05-02T07:42:54Z</time></trkpt><trkpt lat="43.856595315249294" lon="11.932837469415734"><ele>1028.2</ele><time>2026-05-02T07:42:56Z</time></trkpt><trkpt lat="43.8565023391925" lon="11.932783683241505"><ele>1025.3999999999999</ele><time>2026-05-02T07:42:58Z</time></trkpt><trkpt lat="43.85643125686541" lon="11.932719735727414"><ele>1022.6</ele><time>2026-05-02T07:43:00Z</time></trkpt><trkpt lat="43.856338231194904" lon="11.932693278661098"><ele>1019.8</ele><time>2026-05-02T07:43:02Z</time></trkpt><trkpt lat="43.856242789445325" lon="11.932635215549896"><ele>1017.0</ele><time>2026-05-02T07:43:04Z</time></trkpt><trkpt lat="43.85614049327305" lon="11.932587031497055"><ele>1016.8333333333334</ele><time>2026-05-02T07:43:06Z</time></trkpt><trkpt lat="43.856027244641986" lon="11.93250274407324"><ele>1016.6666666666667</ele><time>2026-05-02T07:43:08Z</time></trkpt><trkpt lat="43.8559113708119" lon="11.932458786632784"><ele>1016.5</ele><time>2026-05-02T07:43:10Z</time></trkpt><trkpt lat="43.855852367621125" lon="11.932414921712805"><ele>1016.3333333333334</ele><time>2026-05-02T07:43:11Z</time></trkpt><trkpt lat="43.85579614503497" lon="11.93237234531824"><ele>1016.1666666666667</ele><time>2026-05-02T07:43:12Z</time></trkpt><trkpt lat="43.85574058713808" lon="11.932320093093573"><ele>1016.0</ele><time>2026-05-02T07:43:13Z</time></trkpt><trkpt lat="43.85568420724732" lon="11.932269670506393"><ele>1015.4</ele><time>2026-05-02T07:43:14Z</time></trkpt><trkpt lat="43.85562870290306" lon="11.932217239282823"><ele>1014.8</ele><time>2026-05-02T07:43:15Z</time></trkpt><trkpt lat="43.85556754208017" lon="11.932134994381524"><ele>1014.1999999999999</ele><time>2026-05-02T07:43:17Z</time></trkpt><trkpt lat="43.855458120170354" lon="11.932027997756032"><ele>1013.5999999999999</ele><time>2026-05-02T07:43:19Z</time></trkpt><trkpt lat="43.85539837106369" lon="11.931992178036088"><ele>1013.0</ele><time>2026-05-02T07:43:20Z</time></trkpt><trkpt lat="43.85528513467966" lon="11.931937530316933"><ele>1013.0000000000001</ele><time>2026-05-02T07:43:22Z</time></trkpt><trkpt lat="43.85520860607949" lon="11.931913284834147"><ele>1013.0</ele><time>2026-05-02T07:43:23Z</time></trkpt><trkpt lat="43.85513566926293" lon="11.931877513352966"><ele>1013.0</ele><time>2026-05-02T07:43:24Z</time></trkpt><trkpt lat="43.85507626946461" lon="11.931825896619214"><ele>1013.0</ele><time>2026-05-02T07:43:25Z</time></trkpt><trkpt lat="43.855012734714805" lon="11.931769561869558"><ele>1013.0000000000001</ele><time>2026-05-02T07:43:26Z</time></trkpt><trkpt lat="43.854959635846896" lon="11.931708996152201"><ele>1013.0</ele><time>2026-05-02T07:43:27Z</time></trkpt><trkpt lat="43.854880138831724" lon="11.931609926396943"><ele>1010.0</ele><time>2026-05-02T07:43:29Z</time></trkpt><trkpt lat="43.854803038122796" lon="11.931521019272614"><ele>1007.0</ele><time>2026-05-02T07:43:31Z</time></trkpt><trkpt lat="43.85471492213963" lon="11.931508817055274"><ele>1004.0</ele><time>2026-05-02T07:43:33Z</time></trkpt><trkpt lat="43.854604025291295" lon="11.931510646286391"><ele>1001.0</ele><time>2026-05-02T07:43:35Z</time></trkpt><trkpt lat="43.85454208005456" lon="11.931485435912107"><ele>998.0</ele><time>2026-05-02T07:43:36Z</time></trkpt><trkpt lat="43.85443653285629" lon="11.931431103448709"><ele>998.0</ele><time>2026-05-02T07:43:38Z</time></trkpt><trkpt lat="43.85433077378293" lon="11.931365001075164"><ele>998.0</ele><time>2026-05-02T07:43:40Z</time></trkpt><trkpt lat="43.85423242847844" lon="11.931295426055033"><ele>998.0</ele><time>2026-05-02T07:43:42Z</time></trkpt><trkpt lat="43.85417816111746" lon="11.931239957637423"><ele>998.0</ele><time>2026-05-02T07:43:43Z</time></trkpt><trkpt lat="43.854105205899906" lon="11.931147620068085"><ele>998.0</ele><time>2026-05-02T07:43:45Z</time></trkpt><trkpt lat="43.85400690759917" lon="11.93107622920258"><ele>996.8</ele><time>2026-05-02T07:43:47Z</time></trkpt><trkpt lat="43.85391592985741" lon="11.931003654754472"><ele>995.5999999999999</ele><time>2026-05-02T07:43:49Z</time></trkpt><trkpt lat="43.853816168829745" lon="11.930915125742564"><ele>994.4000000000001</ele><time>2026-05-02T07:43:51Z</time></trkpt><trkpt lat="43.85373498920037" lon="11.930856992378526"><ele>993.2</ele><time>2026-05-02T07:43:53Z</time></trkpt><trkpt lat="43.853660186161505" lon="11.930751685473824"><ele>992.0</ele><time>2026-05-02T07:43:56Z</time></trkpt><trkpt lat="43.85359541382781" lon="11.930661957362503"><ele>989.6</ele><time>2026-05-02T07:43:58Z</time></trkpt><trkpt lat="43.85344784488362" lon="11.930547151263433"><ele>987.2</ele><time>2026-05-02T07:44:02Z</time></trkpt><trkpt lat="43.85338928625938" lon="11.930488937825048"><ele>984.8</ele><time>2026-05-02T07:44:58Z</time></trkpt><trkpt lat="43.85332500513114" lon="11.930457160709294"><ele>982.4</ele><time>2026-05-02T07:45:00Z</time></trkpt><trkpt lat="43.85325708253579" lon="11.930425438111726"><ele>980.0</ele><time>2026-05-02T07:45:08Z</time></trkpt><trkpt lat="43.85322296605339" lon="11.930340791072847"><ele>980.0</ele><time>2026-05-02T07:45:12Z</time></trkpt><trkpt lat="43.853185878113266" lon="11.930270241385266"><ele>980.0</ele><time>2026-05-02T07:45:18Z</time></trkpt><trkpt lat="43.8531122042128" lon="11.930201898614802"><ele>980.0</ele><time>2026-05-02T07:45:20Z</time></trkpt><trkpt lat="43.85300447419165" lon="11.930104787009965"><ele>980.0</ele><time>2026-05-02T07:45:22Z</time></trkpt><trkpt lat="43.85294519843856" lon="11.930064475308663"><ele>980.0</ele><time>2026-05-02T07:45:23Z</time></trkpt><trkpt lat="43.85285816215177" lon="11.929980125362615"><ele>980.4</ele><time>2026-05-02T07:45:25Z</time></trkpt><trkpt lat="43.8527956519584" lon="11.929948648127"><ele>980.8</ele><time>2026-05-02T07:45:26Z</time></trkpt><trkpt lat="43.85266225294449" lon="11.92991239663566"><ele>981.2</ele><time>2026-05-02T07:45:28Z</time></trkpt><trkpt lat="43.85259766352748" lon="11.92989039917728"><ele>981.6</ele><time>2026-05-02T07:45:29Z</time></trkpt><trkpt lat="43.852540866330685" lon="11.929849285416502"><ele>982.0</ele><time>2026-05-02T07:45:30Z</time></trkpt><trkpt lat="43.85241079904326" lon="11.929840904827616"><ele>981.9999999999999</ele><time>2026-05-02T07:45:32Z</time></trkpt><trkpt lat="43.85232803152216" lon="11.92982768641433"><ele>982.0</ele><time>2026-05-02T07:45:33Z</time></trkpt><trkpt lat="43.852252498528664" lon="11.929814720706036"><ele>982.0</ele><time>2026-05-02T07:45:34Z</time></trkpt><trkpt lat="43.85216916056484" lon="11.929801202174158"><ele>982.0</ele><time>2026-05-02T07:45:35Z</time></trkpt><trkpt lat="43.852086113851236" lon="11.92979370356545"><ele>981.9999999999999</ele><time>2026-05-02T07:45:36Z</time></trkpt><trkpt lat="43.851991447087464" lon="11.92984337053087"><ele>982.0</ele><time>2026-05-02T07:45:37Z</time></trkpt><trkpt lat="43.85191133463848" lon="11.929898870695267"><ele>982.0</ele><time>2026-05-02T07:45:38Z</time></trkpt><trkpt lat="43.851830229010375" lon="11.92996936288086"><ele>982.0</ele><time>2026-05-02T07:45:39Z</time></trkpt><trkpt lat="43.85176248921515" lon="11.930057009625337"><ele>982.0</ele><time>2026-05-02T07:45:40Z</time></trkpt><trkpt lat="43.851688358621885" lon="11.930158566210958"><ele>982.0</ele><time>2026-05-02T07:45:42Z</time></trkpt><trkpt lat="43.85168431257497" lon="11.930257458694834"><ele>982.0</ele><time>2026-05-02T07:45:43Z</time></trkpt><trkpt lat="43.85166864782169" lon="11.93038784165925"><ele>980.8333333333333</ele><time>2026-05-02T07:45:44Z</time></trkpt><trkpt lat="43.85164322398549" lon="11.9304884863842"><ele>979.6666666666666</ele><time>2026-05-02T07:45:45Z</time></trkpt><trkpt lat="43.85155331501218" lon="11.930607541868964"><ele>978.5</ele><time>2026-05-02T07:45:47Z</time></trkpt><trkpt lat="43.851505706396715" lon="11.93068132156796"><ele>977.3333333333333</ele><time>2026-05-02T07:45:48Z</time></trkpt><trkpt lat="43.85145422647868" lon="11.930791895245722"><ele>976.1666666666666</ele><time>2026-05-02T07:45:49Z</time></trkpt><trkpt lat="43.85141080046311" lon="11.930879933273765"><ele>975.0</ele><time>2026-05-02T07:45:50Z</time></trkpt><trkpt lat="43.851358805132016" lon="11.930931538863309"><ele>975.0</ele><time>2026-05-02T07:45:51Z</time></trkpt><trkpt lat="43.85125471198229" lon="11.930919258591661"><ele>975.0</ele><time>2026-05-02T07:45:53Z</time></trkpt><trkpt lat="43.85117246897882" lon="11.930869899961278"><ele>975.0</ele><time>2026-05-02T07:45:54Z</time></trkpt><trkpt lat="43.851086678434505" lon="11.930786935234782"><ele>975.0</ele><time>2026-05-02T07:45:55Z</time></trkpt><trkpt lat="43.85100416684508" lon="11.930694348500483"><ele>975.0</ele><time>2026-05-02T07:45:56Z</time></trkpt><trkpt lat="43.85093112659127" lon="11.930629696698949"><ele>977.0</ele><time>2026-05-02T07:45:57Z</time></trkpt><trkpt lat="43.850858557900956" lon="11.930579085456442"><ele>979.0</ele><time>2026-05-02T07:45:58Z</time></trkpt><trkpt lat="43.8507587385395" lon="11.930522521175458"><ele>981.0</ele><time>2026-05-02T07:45:59Z</time></trkpt><trkpt lat="43.850662502324475" lon="11.930487900097022"><ele>983.0</ele><time>2026-05-02T07:46:00Z</time></trkpt><trkpt lat="43.85056225439983" lon="11.930472073203937"><ele>985.0</ele><time>2026-05-02T07:46:01Z</time></trkpt><trkpt lat="43.85044975008102" lon="11.93046059933033"><ele>984.9999999999999</ele><time>2026-05-02T07:46:02Z</time></trkpt><trkpt lat="43.85035766884658" lon="11.930469956316246"><ele>985.0</ele><time>2026-05-02T07:46:03Z</time></trkpt><trkpt lat="43.850264934232605" lon="11.930476905897535"><ele>985.0</ele><time>2026-05-02T07:46:04Z</time></trkpt><trkpt lat="43.85018931460454" lon="11.930511466738942"><ele>985.0</ele><time>2026-05-02T07:46:05Z</time></trkpt><trkpt lat="43.85011704385908" lon="11.930568951790152"><ele>984.9999999999999</ele><time>2026-05-02T07:46:06Z</time></trkpt><trkpt lat="43.85005698462143" lon="11.930611057449934"><ele>985.0</ele><time>2026-05-02T07:46:07Z</time></trkpt><trkpt lat="43.84996956040211" lon="11.930632796205147"><ele>983.0</ele><time>2026-05-02T07:46:08Z</time></trkpt><trkpt lat="43.84986479086755" lon="11.930617884892452"><ele>981.0</ele><time>2026-05-02T07:46:09Z</time></trkpt><trkpt lat="43.84973735274221" lon="11.93058827275979"><ele>979.0</ele><time>2026-05-02T07:46:10Z</time></trkpt><trkpt lat="43.849618361922566" lon="11.93056024919312"><ele>977.0</ele><time>2026-05-02T07:46:11Z</time></trkpt><trkpt lat="43.84951497644825" lon="11.930506838297616"><ele>977.0000000000001</ele><time>2026-05-02T07:46:12Z</time></trkpt><trkpt lat="43.84944773951297" lon="11.930463013027936"><ele>977.0</ele><time>2026-05-02T07:46:13Z</time></trkpt><trkpt lat="43.849369809090234" lon="11.930463410298946"><ele>977.0</ele><time>2026-05-02T07:46:14Z</time></trkpt><trkpt lat="43.84928434932733" lon="11.930464371359433"><ele>977.0</ele><time>2026-05-02T07:46:15Z</time></trkpt><trkpt lat="43.84920079775232" lon="11.930450231862807"><ele>977.0000000000001</ele><time>2026-05-02T07:46:16Z</time></trkpt><trkpt lat="43.84910946794923" lon="11.930475704957512"><ele>977.0</ele><time>2026-05-02T07:46:17Z</time></trkpt><trkpt lat="43.84903174206954" lon="11.930512744727071"><ele>976.4000000000001</ele><time>2026-05-02T07:46:18Z</time></trkpt><trkpt lat="43.84896158062105" lon="11.930538218381361"><ele>975.8000000000001</ele><time>2026-05-02T07:46:19Z</time></trkpt><trkpt lat="43.84888296672389" lon="11.930551384543119"><ele>975.2</ele><time>2026-05-02T07:46:20Z</time></trkpt><trkpt lat="43.84878930708781" lon="11.930537555692306"><ele>974.6</ele><time>2026-05-02T07:46:21Z</time></trkpt><trkpt lat="43.84868904941214" lon="11.93051454056196"><ele>974.0</ele><time>2026-05-02T07:46:22Z</time></trkpt><trkpt lat="43.848573274798305" lon="11.930469649276416"><ele>971.4000000000001</ele><time>2026-05-02T07:46:23Z</time></trkpt><trkpt lat="43.84845724724414" lon="11.9304432314151"><ele>968.8000000000001</ele><time>2026-05-02T07:46:24Z</time></trkpt><trkpt lat="43.84835473091918" lon="11.930418240198943"><ele>966.1999999999999</ele><time>2026-05-02T07:46:25Z</time></trkpt><trkpt lat="43.848264178288034" lon="11.930405781891249"><ele>963.5999999999999</ele><time>2026-05-02T07:46:26Z</time></trkpt><trkpt lat="43.8481764805521" lon="11.930398625314899"><ele>961.0</ele><time>2026-05-02T07:46:27Z</time></trkpt><trkpt lat="43.84810311884497" lon="11.93038445000139"><ele>960.9999999999999</ele><time>2026-05-02T07:46:28Z</time></trkpt><trkpt lat="43.8480344749122" lon="11.930348222108591"><ele>961.0</ele><time>2026-05-02T07:46:29Z</time></trkpt><trkpt lat="43.84796521152077" lon="11.930304213544042"><ele>961.0</ele><time>2026-05-02T07:46:30Z</time></trkpt><trkpt lat="43.84789384274349" lon="11.930292846234696"><ele>961.0</ele><time>2026-05-02T07:46:31Z</time></trkpt><trkpt lat="43.847815451775375" lon="11.930317520923941"><ele>960.9999999999999</ele><time>2026-05-02T07:46:32Z</time></trkpt><trkpt lat="43.84774057297787" lon="11.930358980378713"><ele>961.0</ele><time>2026-05-02T07:46:33Z</time></trkpt><trkpt lat="43.84766338056651" lon="11.930365052905822"><ele>961.8333333333333</ele><time>2026-05-02T07:46:34Z</time></trkpt><trkpt lat="43.84758719221" lon="11.93034588616514"><ele>962.6666666666666</ele><time>2026-05-02T07:46:35Z</time></trkpt><trkpt lat="43.84751439058096" lon="11.930318923108581"><ele>963.5</ele><time>2026-05-02T07:46:36Z</time></trkpt><trkpt lat="43.8474483242501" lon="11.930288792608568"><ele>964.3333333333333</ele><time>2026-05-02T07:46:37Z</time></trkpt><trkpt lat="43.84734660860785" lon="11.930235219988914"><ele>965.1666666666666</ele><time>2026-05-02T07:46:39Z</time></trkpt><trkpt lat="43.847272415591576" lon="11.930197242319858"><ele>966.0</ele><time>2026-05-02T07:46:40Z</time></trkpt><trkpt lat="43.8471871521375" lon="11.930159605252914"><ele>966.0</ele><time>2026-05-02T07:46:41Z</time></trkpt><trkpt lat="43.84710148473942" lon="11.930106207517085"><ele>965.9999999999999</ele><time>2026-05-02T07:46:42Z</time></trkpt><trkpt lat="43.8470259468979" lon="11.93004599634276"><ele>965.9999999999999</ele><time>2026-05-02T07:46:43Z</time></trkpt><trkpt lat="43.84695958416867" lon="11.92999022944376"><ele>966.0</ele><time>2026-05-02T07:46:44Z</time></trkpt><trkpt lat="43.846850760552854" lon="11.929892167190687"><ele>966.0</ele><time>2026-05-02T07:46:46Z</time></trkpt><trkpt lat="43.84678641940647" lon="11.929841146875548"><ele>970.6666666666666</ele><time>2026-05-02T07:46:47Z</time></trkpt><trkpt lat="43.84671464151319" lon="11.929784042081948"><ele>975.3333333333333</ele><time>2026-05-02T07:46:48Z</time></trkpt><trkpt lat="43.846635700607166" lon="11.92973273965823"><ele>980.0</ele><time>2026-05-02T07:46:49Z</time></trkpt><trkpt lat="43.846558945856934" lon="11.929696046594048"><ele>984.6666666666666</ele><time>2026-05-02T07:46:50Z</time></trkpt><trkpt lat="43.84645859684308" lon="11.929626318806628"><ele>989.3333333333333</ele><time>2026-05-02T07:46:52Z</time></trkpt><trkpt lat="43.84642635530628" lon="11.929547661206838"><ele>994.0</ele><time>2026-05-02T07:46:53Z</time></trkpt><trkpt lat="43.846408501338445" lon="11.929443873161826"><ele>993.9999999999999</ele><time>2026-05-02T07:46:54Z</time></trkpt><trkpt lat="43.84640694177121" lon="11.929343102397294"><ele>994.0</ele><time>2026-05-02T07:46:55Z</time></trkpt><trkpt lat="43.846416086226355" lon="11.929253292462489"><ele>994.0</ele><time>2026-05-02T07:46:56Z</time></trkpt><trkpt lat="43.84644903591134" lon="11.929101606523096"><ele>994.0</ele><time>2026-05-02T07:46:58Z</time></trkpt><trkpt lat="43.84639347407366" lon="11.929019873907745"><ele>993.9999999999999</ele><time>2026-05-02T07:47:00Z</time></trkpt><trkpt lat="43.846307743415686" lon="11.929022438398443"><ele>994.0</ele><time>2026-05-02T07:47:02Z</time></trkpt><trkpt lat="43.84619905917643" lon="11.929111407681026"><ele>993.9999999999999</ele><time>2026-05-02T07:47:04Z</time></trkpt><trkpt lat="43.8461271817319" lon="11.929180608356823"><ele>994.0</ele><time>2026-05-02T07:47:05Z</time></trkpt><trkpt lat="43.84607114611778" lon="11.929224484270442"><ele>994.0</ele><time>2026-05-02T07:47:06Z</time></trkpt><trkpt lat="43.845962267705765" lon="11.929295556511056"><ele>994.0</ele><time>2026-05-02T07:47:08Z</time></trkpt><trkpt lat="43.84589634144014" lon="11.929327986075645"><ele>993.9999999999999</ele><time>2026-05-02T07:47:09Z</time></trkpt><trkpt lat="43.84583239454016" lon="11.929367150777555"><ele>994.0</ele><time>2026-05-02T07:47:10Z</time></trkpt><trkpt lat="43.84576596782224" lon="11.929410592699789"><ele>998.8333333333333</ele><time>2026-05-02T07:47:11Z</time></trkpt><trkpt lat="43.84569631064158" lon="11.929436018725296"><ele>1003.6666666666666</ele><time>2026-05-02T07:47:12Z</time></trkpt><trkpt lat="43.84563658676587" lon="11.929469791038258"><ele>1008.5</ele><time>2026-05-02T07:47:13Z</time></trkpt><trkpt lat="43.84557549325384" lon="11.92951525128736"><ele>1013.3333333333333</ele><time>2026-05-02T07:47:14Z</time></trkpt><trkpt lat="43.84545264974128" lon="11.929510219657255"><ele>1018.1666666666666</ele><time>2026-05-02T07:47:16Z</time></trkpt><trkpt lat="43.84534341636765" lon="11.92951543268793"><ele>1023.0</ele><time>2026-05-02T07:47:18Z</time></trkpt><trkpt lat="43.84525880793223" lon="11.92950529011186"><ele>1023.0</ele><time>2026-05-02T07:47:19Z</time></trkpt><trkpt lat="43.845151722304266" lon="11.929489521984426"><ele>1023.0</ele><time>2026-05-02T07:47:20Z</time></trkpt><trkpt lat="43.84505658586937" lon="11.92948506674026"><ele>1023.0</ele><time>2026-05-02T07:47:21Z</time></trkpt><trkpt lat="43.84497586011407" lon="11.929459408278763"><ele>1023.0</ele><time>2026-05-02T07:47:22Z</time></trkpt><trkpt lat="43.84490689307041" lon="11.929407520605345"><ele>1023.0</ele><time>2026-05-02T07:47:23Z</time></trkpt><trkpt lat="43.844845607574875" lon="11.92935914488841"><ele>1023.0</ele><time>2026-05-02T07:47:24Z</time></trkpt><trkpt lat="43.84478824853695" lon="11.929316966660435"><ele>1021.8333333333334</ele><time>2026-05-02T07:47:25Z</time></trkpt><trkpt lat="43.84471648162787" lon="11.92927073319842"><ele>1020.6666666666667</ele><time>2026-05-02T07:47:26Z</time></trkpt><trkpt lat="43.84464554694596" lon="11.92921204111308"><ele>1019.5</ele><time>2026-05-02T07:47:27Z</time></trkpt><trkpt lat="43.844592753185054" lon="11.929143042209919"><ele>1018.3333333333334</ele><time>2026-05-02T07:47:29Z</time></trkpt><trkpt lat="43.844542301861004" lon="11.929055068079556"><ele>1017.1666666666667</ele><time>2026-05-02T07:48:23Z</time></trkpt><trkpt lat="43.84444942964826" lon="11.928940085810737"><ele>1016.0</ele><time>2026-05-02T07:48:25Z</time></trkpt><trkpt lat="43.84440616831311" lon="11.928873191092459"><ele>1016.0000000000001</ele><time>2026-05-02T07:48:26Z</time></trkpt><trkpt lat="43.84437339469658" lon="11.928784899189997"><ele>1016.0</ele><time>2026-05-02T07:48:27Z</time></trkpt><trkpt lat="43.84436001708358" lon="11.92869816352436"><ele>1016.0</ele><time>2026-05-02T07:48:28Z</time></trkpt><trkpt lat="43.84435069623113" lon="11.928558568031447"><ele>1016.0</ele><time>2026-05-02T07:48:30Z</time></trkpt><trkpt lat="43.84427918167611" lon="11.928429141260555"><ele>1016.0000000000001</ele><time>2026-05-02T07:48:32Z</time></trkpt><trkpt lat="43.844210115753" lon="11.928395262707129"><ele>1016.0</ele><time>2026-05-02T07:48:33Z</time></trkpt><trkpt lat="43.84414470852386" lon="11.92834469905787"><ele>1018.1428571428571</ele><time>2026-05-02T07:48:34Z</time></trkpt><trkpt lat="43.84407951173053" lon="11.928293084021034"><ele>1020.2857142857142</ele><time>2026-05-02T07:48:35Z</time></trkpt><trkpt lat="43.84402267017824" lon="11.928246844861317"><ele>1022.4285714285713</ele><time>2026-05-02T07:48:36Z</time></trkpt><trkpt lat="43.84397044748769" lon="11.928193510315136"><ele>1024.5714285714284</ele><time>2026-05-02T07:48:37Z</time></trkpt><trkpt lat="43.84390009540675" lon="11.928161047805654"><ele>1026.7142857142856</ele><time>2026-05-02T07:48:38Z</time></trkpt><trkpt lat="43.84383114983839" lon="11.928127549484477"><ele>1028.857142857143</ele><time>2026-05-02T07:48:39Z</time></trkpt><trkpt lat="43.84376773479239" lon="11.928103018549466"><ele>1031.0</ele><time>2026-05-02T07:48:40Z</time></trkpt><trkpt lat="43.84367224344432" lon="11.928100707278947"><ele>1031.0</ele><time>2026-05-02T07:48:42Z</time></trkpt><trkpt lat="43.843578791731005" lon="11.928071462555158"><ele>1031.0</ele><time>2026-05-02T07:48:44Z</time></trkpt><trkpt lat="43.84352038351953" lon="11.927954933938095"><ele>1031.0</ele><time>2026-05-02T07:48:46Z</time></trkpt><trkpt lat="43.84348201485584" lon="11.927857936205301"><ele>1031.0</ele><time>2026-05-02T07:48:47Z</time></trkpt><trkpt lat="43.84344437073748" lon="11.927758663890376"><ele>1031.0</ele><time>2026-05-02T07:48:48Z</time></trkpt><trkpt lat="43.843411115891264" lon="11.927679268803514"><ele>1031.0</ele><time>2026-05-02T07:48:49Z</time></trkpt><trkpt lat="43.84337304748021" lon="11.927498075589435"><ele>1032.5</ele><time>2026-05-02T07:48:51Z</time></trkpt><trkpt lat="43.84335698463197" lon="11.927392754763083"><ele>1034.0</ele><time>2026-05-02T07:48:52Z</time></trkpt><trkpt lat="43.84335551050639" lon="11.927279904361448"><ele>1035.5</ele><time>2026-05-02T07:48:53Z</time></trkpt><trkpt lat="43.843366362114196" lon="11.92715107969255"><ele>1037.0</ele><time>2026-05-02T07:48:54Z</time></trkpt><trkpt lat="43.84335886538517" lon="11.927046735061884"><ele>1038.5</ele><time>2026-05-02T07:48:55Z</time></trkpt><trkpt lat="43.84333454661771" lon="11.92694297872032"><ele>1040.0</ele><time>2026-05-02T07:48:56Z</time></trkpt><trkpt lat="43.84333146477283" lon="11.926832715668978"><ele>1040.0</ele><time>2026-05-02T07:48:57Z</time></trkpt><trkpt lat="43.84333836115421" lon="11.926721110310451"><ele>1040.0</ele><time>2026-05-02T07:48:58Z</time></trkpt><trkpt lat="43.84336478259234" lon="11.926597826903551"><ele>1040.0</ele><time>2026-05-02T07:48:59Z</time></trkpt><trkpt lat="43.843405518423026" lon="11.926488675710022"><ele>1040.0</ele><time>2026-05-02T07:49:00Z</time></trkpt><trkpt lat="43.84344767941565" lon="11.926388258378617"><ele>1040.0</ele><time>2026-05-02T07:49:01Z</time></trkpt><trkpt lat="43.84348133924331" lon="11.926271460916563"><ele>1040.0</ele><time>2026-05-02T07:49:02Z</time></trkpt><trkpt lat="43.84349757301325" lon="11.926147208995072"><ele>1040.6</ele><time>2026-05-02T07:49:03Z</time></trkpt><trkpt lat="43.843502591950994" lon="11.926024833315829"><ele>1041.2</ele><time>2026-05-02T07:49:04Z</time></trkpt><trkpt lat="43.84349481059908" lon="11.925890846682789"><ele>1041.8</ele><time>2026-05-02T07:49:05Z</time></trkpt><trkpt lat="43.843477175788244" lon="11.92576499388723"><ele>1042.4</ele><time>2026-05-02T07:49:06Z</time></trkpt><trkpt lat="43.84344457689529" lon="11.925650998854346"><ele>1043.0</ele><time>2026-05-02T07:49:07Z</time></trkpt><trkpt lat="43.843412191109216" lon="11.925541127218665"><ele>1043.0</ele><time>2026-05-02T07:49:08Z</time></trkpt><trkpt lat="43.843377643118835" lon="11.925421621935063"><ele>1043.0</ele><time>2026-05-02T07:49:09Z</time></trkpt><trkpt lat="43.84333459780044" lon="11.92532296047009"><ele>1043.0</ele><time>2026-05-02T07:49:10Z</time></trkpt><trkpt lat="43.84329440774244" lon="11.92522938627407"><ele>1043.0</ele><time>2026-05-02T07:49:11Z</time></trkpt><trkpt lat="43.843256659086094" lon="11.925128796107508"><ele>1043.0</ele><time>2026-05-02T07:49:12Z</time></trkpt><trkpt lat="43.84322105313909" lon="11.925039708749729"><ele>1043.0</ele><time>2026-05-02T07:49:13Z</time></trkpt><trkpt lat="43.84318956113103" lon="11.924960029510622"><ele>1044.6666666666667</ele><time>2026-05-02T07:49:14Z</time></trkpt><trkpt lat="43.84313115827407" lon="11.924872268685654"><ele>1046.3333333333335</ele><time>2026-05-02T07:49:15Z</time></trkpt><trkpt lat="43.843061706108905" lon="11.924802964004098"><ele>1048.0</ele><time>2026-05-02T07:49:16Z</time></trkpt><trkpt lat="43.843006301861486" lon="11.924749648842525"><ele>1049.6666666666667</ele><time>2026-05-02T07:49:17Z</time></trkpt><trkpt lat="43.84294525870065" lon="11.92468855757026"><ele>1051.3333333333333</ele><time>2026-05-02T07:49:18Z</time></trkpt><trkpt lat="43.84289408706423" lon="11.92461247394489"><ele>1053.0</ele><time>2026-05-02T07:49:19Z</time></trkpt><trkpt lat="43.84284961626346" lon="11.924513199744435"><ele>1053.0</ele><time>2026-05-02T07:49:20Z</time></trkpt><trkpt lat="43.84283086967581" lon="11.92439067450375"><ele>1053.0</ele><time>2026-05-02T07:49:21Z</time></trkpt><trkpt lat="43.8428113099374" lon="11.924276732704111"><ele>1053.0</ele><time>2026-05-02T07:49:22Z</time></trkpt><trkpt lat="43.842797921005335" lon="11.924183253027962"><ele>1053.0</ele><time>2026-05-02T07:49:23Z</time></trkpt><trkpt lat="43.84277083511947" lon="11.924090019303813"><ele>1053.0</ele><time>2026-05-02T07:49:24Z</time></trkpt><trkpt lat="43.84273276955954" lon="11.923996331948883"><ele>1053.0</ele><time>2026-05-02T07:49:25Z</time></trkpt><trkpt lat="43.84270101220151" lon="11.92390893015473"><ele>1053.3333333333333</ele><time>2026-05-02T07:49:26Z</time></trkpt><trkpt lat="43.842640003551004" lon="11.923823888490457"><ele>1053.6666666666667</ele><time>2026-05-02T07:49:27Z</time></trkpt><trkpt lat="43.842572643026045" lon="11.923751070954312"><ele>1054.0</ele><time>2026-05-02T07:49:28Z</time></trkpt><trkpt lat="43.84251962127985" lon="11.923698583080258"><ele>1054.3333333333335</ele><time>2026-05-02T07:49:29Z</time></trkpt><trkpt lat="43.842467456063915" lon="11.923645599255781"><ele>1054.6666666666667</ele><time>2026-05-02T07:49:30Z</time></trkpt><trkpt lat="43.84240394339701" lon="11.923610607616451"><ele>1055.0</ele><time>2026-05-02T07:49:31Z</time></trkpt><trkpt lat="43.84229312426804" lon="11.923633964040869"><ele>1055.0</ele><time>2026-05-02T07:49:33Z</time></trkpt><trkpt lat="43.84217647250291" lon="11.923715531271188"><ele>1055.0</ele><time>2026-05-02T07:49:35Z</time></trkpt><trkpt lat="43.842108786817384" lon="11.923749096266947"><ele>1055.0</ele><time>2026-05-02T07:49:36Z</time></trkpt><trkpt lat="43.842038936067034" lon="11.923757078011382"><ele>1055.0</ele><time>2026-05-02T07:49:37Z</time></trkpt><trkpt lat="43.84193788185434" lon="11.923734938474421"><ele>1055.0</ele><time>2026-05-02T07:49:39Z</time></trkpt><trkpt lat="43.84184986007493" lon="11.923639915146206"><ele>1055.0</ele><time>2026-05-02T07:49:41Z</time></trkpt><trkpt lat="43.84179287873242" lon="11.92354581692846"><ele>1055.0</ele><time>2026-05-02T07:49:42Z</time></trkpt><trkpt lat="43.841725523123586" lon="11.92344292016234"><ele>1055.0</ele><time>2026-05-02T07:49:43Z</time></trkpt><trkpt lat="43.84166267428486" lon="11.9233809776822"><ele>1055.0</ele><time>2026-05-02T07:49:44Z</time></trkpt><trkpt lat="43.841598165844815" lon="11.923340273423625"><ele>1055.0</ele><time>2026-05-02T07:49:45Z</time></trkpt><trkpt lat="43.84151218070383" lon="11.923247469489842"><ele>1055.0</ele><time>2026-05-02T07:49:47Z</time></trkpt><trkpt lat="43.84148408873469" lon="11.923153426622113"><ele>1055.0</ele><time>2026-05-02T07:49:48Z</time></trkpt><trkpt lat="43.84146537854305" lon="11.923057192564938"><ele>1055.0</ele><time>2026-05-02T07:49:49Z</time></trkpt><trkpt lat="43.84145200307976" lon="11.922941794943466"><ele>1055.0</ele><time>2026-05-02T07:49:50Z</time></trkpt><trkpt lat="43.841426918422336" lon="11.922828217318385"><ele>1055.0</ele><time>2026-05-02T07:49:51Z</time></trkpt><trkpt lat="43.84137773815095" lon="11.9226868228833"><ele>1055.0</ele><time>2026-05-02T07:49:52Z</time></trkpt><trkpt lat="43.84131632997969" lon="11.922536575454975"><ele>1055.3333333333335</ele><time>2026-05-02T07:49:53Z</time></trkpt><trkpt lat="43.84126032293172" lon="11.922413013117653"><ele>1055.6666666666667</ele><time>2026-05-02T07:49:54Z</time></trkpt><trkpt lat="43.84123200720943" lon="11.922327396146954"><ele>1056.0</ele><time>2026-05-02T07:49:55Z</time></trkpt><trkpt lat="43.84121482757767" lon="11.922241448792239"><ele>1056.3333333333333</ele><time>2026-05-02T07:49:56Z</time></trkpt><trkpt lat="43.8411896467307" lon="11.922153309049918"><ele>1056.6666666666665</ele><time>2026-05-02T07:49:57Z</time></trkpt><trkpt lat="43.84113256769031" lon="11.922066056765914"><ele>1057.0</ele><time>2026-05-02T07:49:58Z</time></trkpt><trkpt lat="43.841081958600974" lon="11.922001639097818"><ele>1057.0</ele><time>2026-05-02T07:49:59Z</time></trkpt><trkpt lat="43.84101363691218" lon="11.921951247620465"><ele>1057.0</ele><time>2026-05-02T07:50:00Z</time></trkpt><trkpt lat="43.84091848950841" lon="11.921900913098808"><ele>1057.0</ele><time>2026-05-02T07:50:01Z</time></trkpt><trkpt lat="43.84080684450607" lon="11.921857075405585"><ele>1057.0</ele><time>2026-05-02T07:50:02Z</time></trkpt><trkpt lat="43.840686716274305" lon="11.921818222941143"><ele>1057.0</ele><time>2026-05-02T07:50:03Z</time></trkpt><trkpt lat="43.840578661113256" lon="11.921782102496387"><ele>1051.8</ele><time>2026-05-02T07:50:04Z</time></trkpt><trkpt lat="43.84048812635899" lon="11.921735432671676"><ele>1046.6</ele><time>2026-05-02T07:50:05Z</time></trkpt><trkpt lat="43.840422957162374" lon="11.921695058850737"><ele>1041.3999999999999</ele><time>2026-05-02T07:50:06Z</time></trkpt><trkpt lat="43.84028022834334" lon="11.921667468170291"><ele>1036.2</ele><time>2026-05-02T07:50:08Z</time></trkpt><trkpt lat="43.84018296435548" lon="11.921684014417215"><ele>1031.0</ele><time>2026-05-02T07:50:09Z</time></trkpt><trkpt lat="43.84007322505419" lon="11.921729277744548"><ele>1025.0</ele><time>2026-05-02T07:50:10Z</time></trkpt><trkpt lat="43.839946025850004" lon="11.921789182860618"><ele>1019.0</ele><time>2026-05-02T07:50:11Z</time></trkpt><trkpt lat="43.83983148589115" lon="11.92183592604427"><ele>1013.0</ele><time>2026-05-02T07:50:12Z</time></trkpt><trkpt lat="43.83972441049088" lon="11.92186932657116"><ele>1007.0</ele><time>2026-05-02T07:50:13Z</time></trkpt><trkpt lat="43.8396181195236" lon="11.92190738015258"><ele>1007.0</ele><time>2026-05-02T07:50:14Z</time></trkpt><trkpt lat="43.839507903412745" lon="11.921960832664853"><ele>1007.0</ele><time>2026-05-02T07:50:15Z</time></trkpt><trkpt lat="43.839404511281025" lon="11.922003750251134"><ele>1007.0</ele><time>2026-05-02T07:50:16Z</time></trkpt><trkpt lat="43.839292241913775" lon="11.922033356912781"><ele>1007.0</ele><time>2026-05-02T07:50:17Z</time></trkpt><trkpt lat="43.83917231853801" lon="11.92205982145381"><ele>1010.0</ele><time>2026-05-02T07:50:18Z</time></trkpt><trkpt lat="43.83906356697123" lon="11.922089154146748"><ele>1013.0</ele><time>2026-05-02T07:50:19Z</time></trkpt><trkpt lat="43.83896247950214" lon="11.922105963476644"><ele>1016.0</ele><time>2026-05-02T07:50:20Z</time></trkpt><trkpt lat="43.83885311935788" lon="11.922121720915925"><ele>1019.0</ele><time>2026-05-02T07:50:21Z</time></trkpt><trkpt lat="43.838743367100335" lon="11.922152399430063"><ele>1022.0</ele><time>2026-05-02T07:50:22Z</time></trkpt><trkpt lat="43.83865485280537" lon="11.922219923226612"><ele>1022.0</ele><time>2026-05-02T07:50:23Z</time></trkpt><trkpt lat="43.838552387499135" lon="11.922296815512134"><ele>1022.0</ele><time>2026-05-02T07:50:24Z</time></trkpt><trkpt lat="43.83845615267976" lon="11.92236407476753"><ele>1022.0</ele><time>2026-05-02T07:50:25Z</time></trkpt><trkpt lat="43.83836032546784" lon="11.922390446561545"><ele>1022.0</ele><time>2026-05-02T07:50:26Z</time></trkpt><trkpt lat="43.83824899282219" lon="11.922388101020426"><ele>1022.0</ele><time>2026-05-02T07:50:27Z</time></trkpt><trkpt lat="43.83814427069492" lon="11.922378186087753"><ele>1025.4</ele><time>2026-05-02T07:50:28Z</time></trkpt><trkpt lat="43.83806227164851" lon="11.922367310795146"><ele>1028.8000000000002</ele><time>2026-05-02T07:50:29Z</time></trkpt><trkpt lat="43.83796222273281" lon="11.922366339808534"><ele>1032.2</ele><time>2026-05-02T07:50:30Z</time></trkpt><trkpt lat="43.837860579565344" lon="11.922361853205025"><ele>1035.6000000000001</ele><time>2026-05-02T07:50:31Z</time></trkpt><trkpt lat="43.837775157631654" lon="11.92234573376297"><ele>1039.0</ele><time>2026-05-02T07:50:32Z</time></trkpt><trkpt lat="43.83769161479023" lon="11.922316166967923"><ele>1035.6000000000001</ele><time>2026-05-02T07:50:33Z</time></trkpt><trkpt lat="43.83760050294135" lon="11.922249696009697"><ele>1032.2</ele><time>2026-05-02T07:50:34Z</time></trkpt><trkpt lat="43.83750318841957" lon="11.922183950027"><ele>1028.8000000000002</ele><time>2026-05-02T07:50:35Z</time></trkpt><trkpt lat="43.83740673278244" lon="11.9221443445923"><ele>1025.4</ele><time>2026-05-02T07:50:36Z</time></trkpt><trkpt lat="43.83729856197836" lon="11.922122159263434"><ele>1022.0</ele><time>2026-05-02T07:50:37Z</time></trkpt><trkpt lat="43.837173390550234" lon="11.922110725055337"><ele>1022.0</ele><time>2026-05-02T07:50:38Z</time></trkpt><trkpt lat="43.837054049194755" lon="11.922103990222288"><ele>1022.0</ele><time>2026-05-02T07:50:39Z</time></trkpt><trkpt lat="43.8369527231254" lon="11.922104675658716"><ele>1022.0</ele><time>2026-05-02T07:50:40Z</time></trkpt><trkpt lat="43.836853311057894" lon="11.922095900263079"><ele>1022.0</ele><time>2026-05-02T07:50:41Z</time></trkpt><trkpt lat="43.83675211858905" lon="11.92208122193096"><ele>1022.0</ele><time>2026-05-02T07:50:42Z</time></trkpt><trkpt lat="43.83665792326369" lon="11.922056054026443"><ele>1022.2</ele><time>2026-05-02T07:50:43Z</time></trkpt><trkpt lat="43.83655186547486" lon="11.922014536537366"><ele>1022.4000000000001</ele><time>2026-05-02T07:50:44Z</time></trkpt><trkpt lat="43.83645424281597" lon="11.92194988403022"><ele>1022.5999999999999</ele><time>2026-05-02T07:50:45Z</time></trkpt><trkpt lat="43.8363699420634" lon="11.921890081681246"><ele>1022.8</ele><time>2026-05-02T07:50:46Z</time></trkpt><trkpt lat="43.836289192139944" lon="11.92183023632504"><ele>1023.0</ele><time>2026-05-02T07:50:47Z</time></trkpt><trkpt lat="43.83621323869734" lon="11.921768651542747"><ele>1022.2</ele><time>2026-05-02T07:50:48Z</time></trkpt><trkpt lat="43.8361385081021" lon="11.921702173502073"><ele>1021.4</ele><time>2026-05-02T07:50:49Z</time></trkpt><trkpt lat="43.83606610984237" lon="11.921629158455493"><ele>1020.6000000000001</ele><time>2026-05-02T07:50:50Z</time></trkpt><trkpt lat="43.8359887999403" lon="11.921535718939781"><ele>1019.8000000000001</ele><time>2026-05-02T07:50:51Z</time></trkpt><trkpt lat="43.835903568319914" lon="11.921443772109432"><ele>1019.0</ele><time>2026-05-02T07:50:52Z</time></trkpt><trkpt lat="43.83581956568923" lon="11.921358224486413"><ele>1020.8000000000001</ele><time>2026-05-02T07:50:53Z</time></trkpt><trkpt lat="43.83573915740157" lon="11.921284409808194"><ele>1022.6000000000001</ele><time>2026-05-02T07:50:54Z</time></trkpt><trkpt lat="43.835642678860026" lon="11.921212016511918"><ele>1024.4</ele><time>2026-05-02T07:50:55Z</time></trkpt><trkpt lat="43.835552694667754" lon="11.921157311724373"><ele>1026.2</ele><time>2026-05-02T07:50:56Z</time></trkpt><trkpt lat="43.83546233945728" lon="11.921106436632519"><ele>1028.0</ele><time>2026-05-02T07:50:57Z</time></trkpt><trkpt lat="43.835386186906106" lon="11.921041347240896"><ele>1028.0</ele><time>2026-05-02T07:50:58Z</time></trkpt><trkpt lat="43.8353007106534" lon="11.920960624000957"><ele>1028.0</ele><time>2026-05-02T07:50:59Z</time></trkpt><trkpt lat="43.83521042167704" lon="11.92088568705528"><ele>1028.0</ele><time>2026-05-02T07:51:00Z</time></trkpt><trkpt lat="43.83511890282242" lon="11.920841811123008"><ele>1028.0</ele><time>2026-05-02T07:51:01Z</time></trkpt><trkpt lat="43.835012381112335" lon="11.920804218571272"><ele>1028.0</ele><time>2026-05-02T07:51:02Z</time></trkpt><trkpt lat="43.83492271145089" lon="11.920777426873808"><ele>1030.2</ele><time>2026-05-02T07:51:03Z</time></trkpt><trkpt lat="43.834841182846255" lon="11.920752120851146"><ele>1032.4</ele><time>2026-05-02T07:51:04Z</time></trkpt><trkpt lat="43.834745566540164" lon="11.9207485134266"><ele>1034.6000000000001</ele><time>2026-05-02T07:51:05Z</time></trkpt><trkpt lat="43.83464427391632" lon="11.920757177781896"><ele>1036.8</ele><time>2026-05-02T07:51:06Z</time></trkpt><trkpt lat="43.834554851483894" lon="11.920800744382435"><ele>1039.0</ele><time>2026-05-02T07:51:07Z</time></trkpt><trkpt lat="43.83448972202624" lon="11.920851527053786"><ele>1037.0</ele><time>2026-05-02T07:51:08Z</time></trkpt><trkpt lat="43.83444251533889" lon="11.920923921451498"><ele>1035.0</ele><time>2026-05-02T07:51:09Z</time></trkpt><trkpt lat="43.83439690812919" lon="11.920990958750485"><ele>1033.0</ele><time>2026-05-02T07:51:10Z</time></trkpt><trkpt lat="43.834366940921804" lon="11.921085368172232"><ele>1031.0</ele><time>2026-05-02T07:51:11Z</time></trkpt><trkpt lat="43.834335766953295" lon="11.92120520294252"><ele>1029.0</ele><time>2026-05-02T07:51:12Z</time></trkpt><trkpt lat="43.83423700675794" lon="11.921276629159625"><ele>1027.0</ele><time>2026-05-02T07:51:14Z</time></trkpt><trkpt lat="43.834135952207205" lon="11.921197259180168"><ele>1027.0</ele><time>2026-05-02T07:51:16Z</time></trkpt><trkpt lat="43.834093819910606" lon="11.92108109059504"><ele>1027.0</ele><time>2026-05-02T07:51:17Z</time></trkpt><trkpt lat="43.83405746868877" lon="11.920936621703424"><ele>1027.0</ele><time>2026-05-02T07:51:18Z</time></trkpt><trkpt lat="43.834040520166596" lon="11.920788185531825"><ele>1027.0</ele><time>2026-05-02T07:51:19Z</time></trkpt><trkpt lat="43.8340259416602" lon="11.920665702831284"><ele>1027.0</ele><time>2026-05-02T07:51:20Z</time></trkpt><trkpt lat="43.83399848687269" lon="11.920549106855177"><ele>1029.8333333333333</ele><time>2026-05-02T07:51:21Z</time></trkpt><trkpt lat="43.83396946258176" lon="11.920457984961038"><ele>1032.6666666666665</ele><time>2026-05-02T07:51:22Z</time></trkpt><trkpt lat="43.83394377021617" lon="11.920365207428507"><ele>1035.5</ele><time>2026-05-02T07:51:23Z</time></trkpt><trkpt lat="43.83392522068776" lon="11.920256112532769"><ele>1038.3333333333333</ele><time>2026-05-02T07:51:24Z</time></trkpt><trkpt lat="43.83389594983252" lon="11.920176113688676"><ele>1041.1666666666667</ele><time>2026-05-02T07:51:25Z</time></trkpt><trkpt lat="43.83383528947671" lon="11.920054383922892"><ele>1044.0</ele><time>2026-05-02T07:51:27Z</time></trkpt><trkpt lat="43.83377710357197" lon="11.920001282933926"><ele>1043.5</ele><time>2026-05-02T07:51:28Z</time></trkpt><trkpt lat="43.83369692346567" lon="11.9199786080499"><ele>1043.0</ele><time>2026-05-02T07:51:29Z</time></trkpt><trkpt lat="43.83361552332784" lon="11.919971216979704"><ele>1042.5</ele><time>2026-05-02T07:51:30Z</time></trkpt><trkpt lat="43.833515545928506" lon="11.919902799036892"><ele>1042.0</ele><time>2026-05-02T07:51:32Z</time></trkpt><trkpt lat="43.83349307386939" lon="11.919814042244983"><ele>1041.5</ele><time>2026-05-02T07:51:33Z</time></trkpt><trkpt lat="43.83347976998475" lon="11.91971360299443"><ele>1041.0</ele><time>2026-05-02T07:51:34Z</time></trkpt><trkpt lat="43.83345189545902" lon="11.919626468902155"><ele>1041.0</ele><time>2026-05-02T07:51:35Z</time></trkpt><trkpt lat="43.83339156193869" lon="11.919572878806497"><ele>1041.0</ele><time>2026-05-02T07:51:36Z</time></trkpt><trkpt lat="43.833268215393026" lon="11.919555722168813"><ele>1041.0</ele><time>2026-05-02T07:51:38Z</time></trkpt><trkpt lat="43.833192574796755" lon="11.919556031386849"><ele>1041.0</ele><time>2026-05-02T07:51:39Z</time></trkpt><trkpt lat="43.833123350896976" lon="11.919538527292747"><ele>1041.0</ele><time>2026-05-02T07:51:40Z</time></trkpt><trkpt lat="43.833059017531816" lon="11.91954609928914"><ele>1041.0</ele><time>2026-05-02T07:51:41Z</time></trkpt><trkpt lat="43.83295589456055" lon="11.919656870684362"><ele>1041.0</ele><time>2026-05-02T07:51:43Z</time></trkpt><trkpt lat="43.8329080998014" lon="11.91975945761058"><ele>1041.0</ele><time>2026-05-02T07:51:45Z</time></trkpt><trkpt lat="43.83283188168667" lon="11.919798003282313"><ele>1041.0</ele><time>2026-05-02T07:51:48Z</time></trkpt><trkpt lat="43.83277254078947" lon="11.919846490683787"><ele>1041.0</ele><time>2026-05-02T07:51:49Z</time></trkpt><trkpt lat="43.832754429563735" lon="11.919990238346344"><ele>1041.0</ele><time>2026-05-02T07:51:51Z</time></trkpt><trkpt lat="43.83270268547372" lon="11.920084315211058"><ele>1041.0</ele><time>2026-05-02T07:51:53Z</time></trkpt><trkpt lat="43.832639436733835" lon="11.920098330850625"><ele>1037.5</ele><time>2026-05-02T07:51:54Z</time></trkpt><trkpt lat="43.83255605667361" lon="11.92008017415134"><ele>1034.0</ele><time>2026-05-02T07:51:56Z</time></trkpt><trkpt lat="43.832469699660834" lon="11.920084915665878"><ele>1030.5</ele><time>2026-05-02T07:51:58Z</time></trkpt><trkpt lat="43.83242423288455" lon="11.920156047670044"><ele>1027.0</ele><time>2026-05-02T07:51:59Z</time></trkpt><trkpt lat="43.83239806525995" lon="11.92025667845384"><ele>1023.5</ele><time>2026-05-02T07:52:00Z</time></trkpt><trkpt lat="43.8323843777683" lon="11.92036418413937"><ele>1020.0</ele><time>2026-05-02T07:52:01Z</time></trkpt><trkpt lat="43.83235805466141" lon="11.920478342729892"><ele>1020.0</ele><time>2026-05-02T07:52:03Z</time></trkpt><trkpt lat="43.83223524489819" lon="11.92044607372994"><ele>1020.0</ele><time>2026-05-02T07:52:05Z</time></trkpt><trkpt lat="43.8321719158408" lon="11.92041279676448"><ele>1020.0</ele><time>2026-05-02T07:52:06Z</time></trkpt><trkpt lat="43.83206688446614" lon="11.920394755658831"><ele>1020.0</ele><time>2026-05-02T07:52:08Z</time></trkpt><trkpt lat="43.831969722189015" lon="11.920389523358521"><ele>1020.0</ele><time>2026-05-02T07:52:10Z</time></trkpt><trkpt lat="43.83191076889611" lon="11.920422409252"><ele>1020.0</ele><time>2026-05-02T07:52:11Z</time></trkpt><trkpt lat="43.83181319790929" lon="11.920522461825175"><ele>1020.0</ele><time>2026-05-02T07:52:13Z</time></trkpt><trkpt lat="43.83175653066088" lon="11.920573659856046"><ele>1020.0</ele><time>2026-05-02T07:52:14Z</time></trkpt><trkpt lat="43.831664807737" lon="11.920640862997903"><ele>1020.0</ele><time>2026-05-02T07:52:16Z</time></trkpt><trkpt lat="43.83162172324841" lon="11.920719176732593"><ele>1020.0</ele><time>2026-05-02T07:52:17Z</time></trkpt><trkpt lat="43.8315784899819" lon="11.92080278971016"><ele>1020.0</ele><time>2026-05-02T07:52:18Z</time></trkpt><trkpt lat="43.83154150397564" lon="11.920883297373317"><ele>1019.6666666666666</ele><time>2026-05-02T07:52:19Z</time></trkpt><trkpt lat="43.831498699589275" lon="11.920955232750144"><ele>1019.3333333333333</ele><time>2026-05-02T07:52:20Z</time></trkpt><trkpt lat="43.83144087284356" lon="11.921026862878781"><ele>1019.0</ele><time>2026-05-02T07:52:21Z</time></trkpt><trkpt lat="43.831387377962706" lon="11.92108878323617"><ele>1018.6666666666666</ele><time>2026-05-02T07:52:22Z</time></trkpt><trkpt lat="43.831306749299785" lon="11.921182600846882"><ele>1018.3333333333333</ele><time>2026-05-02T07:52:24Z</time></trkpt><trkpt lat="43.831258679291096" lon="11.921293465646686"><ele>1018.0</ele><time>2026-05-02T07:52:26Z</time></trkpt><trkpt lat="43.83118867603332" lon="11.921341587289525"><ele>1017.9999999999999</ele><time>2026-05-02T07:52:28Z</time></trkpt><trkpt lat="43.83112707857907" lon="11.921362482521047"><ele>1018.0</ele><time>2026-05-02T07:52:30Z</time></trkpt><trkpt lat="43.831073194397995" lon="11.921317343173707"><ele>1018.0</ele><time>2026-05-02T07:52:32Z</time></trkpt><trkpt lat="43.8310145709508" lon="11.921227002006702"><ele>1018.0</ele><time>2026-05-02T07:52:34Z</time></trkpt><trkpt lat="43.83092999068586" lon="11.921129776097422"><ele>1017.9999999999999</ele><time>2026-05-02T07:52:36Z</time></trkpt><trkpt lat="43.83085915535727" lon="11.921028545577146"><ele>1018.0</ele><time>2026-05-02T07:52:38Z</time></trkpt><trkpt lat="43.83076309451087" lon="11.920945643743543"><ele>1020.25</ele><time>2026-05-02T07:52:40Z</time></trkpt><trkpt lat="43.8307086679515" lon="11.920816671280091"><ele>1022.5</ele><time>2026-05-02T07:52:43Z</time></trkpt><trkpt lat="43.83074028664062" lon="11.920664632269709"><ele>1024.75</ele><time>2026-05-02T07:52:45Z</time></trkpt><trkpt lat="43.83074485435951" lon="11.920508200897647"><ele>1027.0</ele><time>2026-05-02T07:52:47Z</time></trkpt><trkpt lat="43.83073692084094" lon="11.920345500625823"><ele>1027.0</ele><time>2026-05-02T07:52:49Z</time></trkpt><trkpt lat="43.83072701057212" lon="11.920249035436939"><ele>1027.0</ele><time>2026-05-02T07:52:50Z</time></trkpt><trkpt lat="43.83067816808957" lon="11.920115961638121"><ele>1027.0</ele><time>2026-05-02T07:52:52Z</time></trkpt><trkpt lat="43.83066338900113" lon="11.919968583792915"><ele>1027.0</ele><time>2026-05-02T07:52:54Z</time></trkpt><trkpt lat="43.830656870495325" lon="11.919857084011346"><ele>1027.0</ele><time>2026-05-02T07:52:55Z</time></trkpt><trkpt lat="43.83061720599922" lon="11.919771699447455"><ele>1027.0</ele><time>2026-05-02T07:52:56Z</time></trkpt><trkpt lat="43.83056670535157" lon="11.91964169689397"><ele>1027.0</ele><time>2026-05-02T07:52:58Z</time></trkpt><trkpt lat="43.830634223470526" lon="11.919521811770533"><ele>1027.0</ele><time>2026-05-02T07:53:00Z</time></trkpt><trkpt lat="43.830703318345336" lon="11.91944970594275"><ele>1027.0</ele><time>2026-05-02T07:53:02Z</time></trkpt><trkpt lat="43.83068595109037" lon="11.919362025318534"><ele>1027.0</ele><time>2026-05-02T07:53:04Z</time></trkpt><trkpt lat="43.830662781610556" lon="11.919220814033588"><ele>1027.0</ele><time>2026-05-02T07:53:07Z</time></trkpt><trkpt lat="43.83063522297173" lon="11.919074177870547"><ele>1026.4</ele><time>2026-05-02T07:53:09Z</time></trkpt><trkpt lat="43.83065431843636" lon="11.918914068930068"><ele>1025.8000000000002</ele><time>2026-05-02T07:53:11Z</time></trkpt><trkpt lat="43.83071923467804" lon="11.918791084620143"><ele>1025.2</ele><time>2026-05-02T07:53:13Z</time></trkpt><trkpt lat="43.830732456817984" lon="11.918650456067052"><ele>1024.6000000000001</ele><time>2026-05-02T07:53:15Z</time></trkpt><trkpt lat="43.83070830730357" lon="11.91856656879086"><ele>1024.0</ele><time>2026-05-02T07:53:16Z</time></trkpt><trkpt lat="43.83065542463001" lon="11.918457598117525"><ele>1024.4</ele><time>2026-05-02T07:53:18Z</time></trkpt><trkpt lat="43.8305944132537" lon="11.91831057389463"><ele>1024.8000000000002</ele><time>2026-05-02T07:53:20Z</time></trkpt><trkpt lat="43.83056377887947" lon="11.918232739779699"><ele>1025.1999999999998</ele><time>2026-05-02T07:53:21Z</time></trkpt><trkpt lat="43.830509001491535" lon="11.918076954181135"><ele>1025.6</ele><time>2026-05-02T07:53:23Z</time></trkpt><trkpt lat="43.83043894978583" lon="11.917971640125895"><ele>1026.0</ele><time>2026-05-02T07:53:25Z</time></trkpt><trkpt lat="43.83038569503597" lon="11.917904197115716"><ele>1026.0</ele><time>2026-05-02T07:53:26Z</time></trkpt><trkpt lat="43.830326537852606" lon="11.91783639313342"><ele>1026.0</ele><time>2026-05-02T07:53:27Z</time></trkpt><trkpt lat="43.83025481065924" lon="11.917786323285725"><ele>1026.0</ele><time>2026-05-02T07:53:28Z</time></trkpt><trkpt lat="43.8301920574993" lon="11.917763641690657"><ele>1026.0</ele><time>2026-05-02T07:53:29Z</time></trkpt><trkpt lat="43.830121110470564" lon="11.917758867053253"><ele>1026.0</ele><time>2026-05-02T07:53:30Z</time></trkpt><trkpt lat="43.83003998999244" lon="11.917767491962296"><ele>1026.0</ele><time>2026-05-02T07:53:31Z</time></trkpt><trkpt lat="43.829959275388866" lon="11.917779885074475"><ele>1024.0</ele><time>2026-05-02T07:53:33Z</time></trkpt><trkpt lat="43.82994504918937" lon="11.917657293988523"><ele>1022.0</ele><time>2026-05-02T07:53:35Z</time></trkpt><trkpt lat="43.82994816467441" lon="11.917500214952378"><ele>1020.0</ele><time>2026-05-02T07:53:37Z</time></trkpt><trkpt lat="43.82990194297909" lon="11.91743607766477"><ele>1018.0</ele><time>2026-05-02T07:53:38Z</time></trkpt><trkpt lat="43.82982722215647" lon="11.917369302834688"><ele>1016.0</ele><time>2026-05-02T07:53:40Z</time></trkpt><trkpt lat="43.82975570827742" lon="11.917357603077656"><ele>1014.0</ele><time>2026-05-02T07:53:42Z</time></trkpt><trkpt lat="43.82969450045492" lon="11.91728199695347"><ele>1014.0</ele><time>2026-05-02T07:53:44Z</time></trkpt><trkpt lat="43.829650746108825" lon="11.91714646555425"><ele>1014.0</ele><time>2026-05-02T07:53:46Z</time></trkpt><trkpt lat="43.829619895223125" lon="11.917069360523106"><ele>1014.0</ele><time>2026-05-02T07:53:47Z</time></trkpt><trkpt lat="43.82956599744964" lon="11.917017917233814"><ele>1014.0</ele><time>2026-05-02T07:53:48Z</time></trkpt><trkpt lat="43.829507634330724" lon="11.916982381835174"><ele>1014.0</ele><time>2026-05-02T07:53:49Z</time></trkpt><trkpt lat="43.82938304436831" lon="11.916967180668998"><ele>1014.0</ele><time>2026-05-02T07:53:51Z</time></trkpt><trkpt lat="43.82930582996304" lon="11.916854695777557"><ele>1011.8000000000001</ele><time>2026-05-02T07:53:53Z</time></trkpt><trkpt lat="43.8292496474412" lon="11.91674452732924"><ele>1009.6000000000001</ele><time>2026-05-02T07:53:55Z</time></trkpt><trkpt lat="43.82924600843202" lon="11.916605102574225"><ele>1007.4</ele><time>2026-05-02T07:53:57Z</time></trkpt><trkpt lat="43.82917295763425" lon="11.916463503726012"><ele>1005.2</ele><time>2026-05-02T07:53:59Z</time></trkpt><trkpt lat="43.82911670065498" lon="11.91640572745127"><ele>1003.0</ele><time>2026-05-02T07:54:00Z</time></trkpt><trkpt lat="43.829032906941016" lon="11.91630544447709"><ele>1002.9999999999999</ele><time>2026-05-02T07:54:02Z</time></trkpt><trkpt lat="43.828938420801364" lon="11.9162530350796"><ele>1003.0</ele><time>2026-05-02T07:54:04Z</time></trkpt><trkpt lat="43.82889319491261" lon="11.916149984341217"><ele>1003.0</ele><time>2026-05-02T07:54:07Z</time></trkpt><trkpt lat="43.828846273630816" lon="11.916053354835585"><ele>1003.0</ele><time>2026-05-02T07:54:09Z</time></trkpt><trkpt lat="43.82878926763122" lon="11.915970658987499"><ele>1002.9999999999999</ele><time>2026-05-02T07:54:12Z</time></trkpt><trkpt lat="43.82874392948916" lon="11.915888206869816"><ele>1003.0</ele><time>2026-05-02T07:54:14Z</time></trkpt><trkpt lat="43.82865695393514" lon="11.915846147065107"><ele>1002.9999999999999</ele><time>2026-05-02T07:54:16Z</time></trkpt><trkpt lat="43.82853417741442" lon="11.915847468816336"><ele>1003.0</ele><time>2026-05-02T07:54:18Z</time></trkpt><trkpt lat="43.82846954053172" lon="11.915858395643395"><ele>1003.0</ele><time>2026-05-02T07:54:19Z</time></trkpt><trkpt lat="43.8283982518994" lon="11.915864915139748"><ele>1003.0</ele><time>2026-05-02T07:54:20Z</time></trkpt><trkpt lat="43.82832371851538" lon="11.915879316636326"><ele>1002.9999999999999</ele><time>2026-05-02T07:54:21Z</time></trkpt><trkpt lat="43.82825194272893" lon="11.915888593581425"><ele>1003.0</ele><time>2026-05-02T07:54:22Z</time></trkpt><trkpt lat="43.82817548954698" lon="11.91589942132464"><ele>1003.6666666666666</ele><time>2026-05-02T07:54:23Z</time></trkpt><trkpt lat="43.82810815711694" lon="11.915892116145102"><ele>1004.3333333333333</ele><time>2026-05-02T07:54:24Z</time></trkpt><trkpt lat="43.82803698149299" lon="11.915873677070074"><ele>1005.0</ele><time>2026-05-02T07:54:25Z</time></trkpt><trkpt lat="43.827964649604596" lon="11.915827480644946"><ele>1005.6666666666667</ele><time>2026-05-02T07:54:26Z</time></trkpt><trkpt lat="43.827901847652136" lon="11.915749539206379"><ele>1006.3333333333334</ele><time>2026-05-02T07:54:27Z</time></trkpt><trkpt lat="43.82784515238984" lon="11.915669473642549"><ele>1007.0</ele><time>2026-05-02T07:54:28Z</time></trkpt><trkpt lat="43.827775574137796" lon="11.915589829593568"><ele>1007.0</ele><time>2026-05-02T07:54:29Z</time></trkpt><trkpt lat="43.82768671857866" lon="11.915536156627336"><ele>1007.0</ele><time>2026-05-02T07:54:30Z</time></trkpt><trkpt lat="43.827588323443415" lon="11.91550970236734"><ele>1007.0</ele><time>2026-05-02T07:54:31Z</time></trkpt><trkpt lat="43.827482198820086" lon="11.915499402754792"><ele>1007.0</ele><time>2026-05-02T07:54:32Z</time></trkpt><trkpt lat="43.8273688562397" lon="11.915510255632181"><ele>1007.0</ele><time>2026-05-02T07:54:33Z</time></trkpt><trkpt lat="43.827255661726575" lon="11.91552135669242"><ele>1008.6</ele><time>2026-05-02T07:54:34Z</time></trkpt><trkpt lat="43.82713959479379" lon="11.915525721330559"><ele>1010.2</ele><time>2026-05-02T07:54:35Z</time></trkpt><trkpt lat="43.82702536376757" lon="11.915530809916902"><ele>1011.8</ele><time>2026-05-02T07:54:36Z</time></trkpt><trkpt lat="43.826927323009215" lon="11.915543975157535"><ele>1013.4</ele><time>2026-05-02T07:54:37Z</time></trkpt><trkpt lat="43.82684332090547" lon="11.915561699695802"><ele>1015.0</ele><time>2026-05-02T07:54:38Z</time></trkpt><trkpt lat="43.826769229585636" lon="11.915574248562242"><ele>1014.9999999999999</ele><time>2026-05-02T07:54:39Z</time></trkpt><trkpt lat="43.826704306008004" lon="11.915559684882567"><ele>1015.0</ele><time>2026-05-02T07:54:40Z</time></trkpt><trkpt lat="43.82665207301628" lon="11.915510731371112"><ele>1015.0</ele><time>2026-05-02T07:54:41Z</time></trkpt><trkpt lat="43.82659163562193" lon="11.915407937870816"><ele>1015.0</ele><time>2026-05-02T07:54:42Z</time></trkpt><trkpt lat="43.82653084151228" lon="11.915284320168896"><ele>1014.9999999999999</ele><time>2026-05-02T07:54:43Z</time></trkpt><trkpt lat="43.826459258612225" lon="11.91518403782976"><ele>1015.0</ele><time>2026-05-02T07:54:44Z</time></trkpt><trkpt lat="43.8263784798525" lon="11.915114994300238"><ele>1013.8</ele><time>2026-05-02T07:54:45Z</time></trkpt><trkpt lat="43.826280543669384" lon="11.915058715512139"><ele>1012.6</ele><time>2026-05-02T07:54:46Z</time></trkpt><trkpt lat="43.82617838240136" lon="11.915025949798464"><ele>1011.4000000000001</ele><time>2026-05-02T07:54:47Z</time></trkpt><trkpt lat="43.826083321009044" lon="11.914987653967167"><ele>1010.2</ele><time>2026-05-02T07:54:48Z</time></trkpt><trkpt lat="43.82599169866135" lon="11.914945627352585"><ele>1009.0</ele><time>2026-05-02T07:54:49Z</time></trkpt><trkpt lat="43.82590456086151" lon="11.914897303577362"><ele>1009.0</ele><time>2026-05-02T07:54:50Z</time></trkpt><trkpt lat="43.82581370460026" lon="11.914858754445191"><ele>1009.0000000000001</ele><time>2026-05-02T07:54:51Z</time></trkpt><trkpt lat="43.825726982290355" lon="11.91482752501504"><ele>1009.0000000000001</ele><time>2026-05-02T07:54:52Z</time></trkpt><trkpt lat="43.82563270910641" lon="11.914814133110871"><ele>1009.0</ele><time>2026-05-02T07:54:53Z</time></trkpt><trkpt lat="43.82553558775521" lon="11.914815732808206"><ele>1009.0</ele><time>2026-05-02T07:54:54Z</time></trkpt><trkpt lat="43.825434215320186" lon="11.914836410902241"><ele>1009.0</ele><time>2026-05-02T07:54:55Z</time></trkpt><trkpt lat="43.82532363970988" lon="11.91485248392861"><ele>1009.0</ele><time>2026-05-02T07:54:56Z</time></trkpt><trkpt lat="43.82520805219766" lon="11.914876888916748"><ele>1009.0</ele><time>2026-05-02T07:54:57Z</time></trkpt><trkpt lat="43.82508887286103" lon="11.914878724531892"><ele>1009.0</ele><time>2026-05-02T07:54:58Z</time></trkpt><trkpt lat="43.82497021474496" lon="11.914869014658564"><ele>1007.6</ele><time>2026-05-02T07:54:59Z</time></trkpt><trkpt lat="43.82486431236373" lon="11.914853607783991"><ele>1006.2</ele><time>2026-05-02T07:55:00Z</time></trkpt><trkpt lat="43.82476772277232" lon="11.914832765143247"><ele>1004.8000000000001</ele><time>2026-05-02T07:55:01Z</time></trkpt><trkpt lat="43.82466442573228" lon="11.914809115389899"><ele>1003.4000000000001</ele><time>2026-05-02T07:55:02Z</time></trkpt><trkpt lat="43.82455091528702" lon="11.914785661199598"><ele>1002.0</ele><time>2026-05-02T07:55:03Z</time></trkpt><trkpt lat="43.82442599686156" lon="11.914765411649398"><ele>1002.5</ele><time>2026-05-02T07:55:04Z</time></trkpt><trkpt lat="43.82430123118861" lon="11.914737716675253"><ele>1003.0</ele><time>2026-05-02T07:55:05Z</time></trkpt><trkpt lat="43.82417206440522" lon="11.914699319626667"><ele>1003.5</ele><time>2026-05-02T07:55:06Z</time></trkpt><trkpt lat="43.82404474345556" lon="11.914666516891396"><ele>1004.0</ele><time>2026-05-02T07:55:07Z</time></trkpt><trkpt lat="43.823919523206705" lon="11.914659959599184"><ele>1004.0000000000001</ele><time>2026-05-02T07:55:08Z</time></trkpt><trkpt lat="43.823799747405246" lon="11.914662326243551"><ele>1004.0</ele><time>2026-05-02T07:55:09Z</time></trkpt><trkpt lat="43.82371198174847" lon="11.914661053236085"><ele>1004.0</ele><time>2026-05-02T07:55:10Z</time></trkpt><trkpt lat="43.82364753943726" lon="11.914640398052759"><ele>1004.0</ele><time>2026-05-02T07:55:11Z</time></trkpt><trkpt lat="43.82359177528587" lon="11.91459847219252"><ele>1004.0000000000001</ele><time>2026-05-02T07:55:12Z</time></trkpt><trkpt lat="43.82353365323164" lon="11.914532769279905"><ele>1004.0</ele><time>2026-05-02T07:55:13Z</time></trkpt><trkpt lat="43.823492232814424" lon="11.91443799306052"><ele>1009.0000000000001</ele><time>2026-05-02T07:55:14Z</time></trkpt><trkpt lat="43.823453727807106" lon="11.914348647839109"><ele>1014.0</ele><time>2026-05-02T07:55:15Z</time></trkpt><trkpt lat="43.823398939068284" lon="11.914305260671963"><ele>1019.0</ele><time>2026-05-02T07:55:16Z</time></trkpt><trkpt lat="43.82331351751758" lon="11.914300627130448"><ele>1024.0</ele><time>2026-05-02T07:55:17Z</time></trkpt><trkpt lat="43.823220291511696" lon="11.914314660376052"><ele>1029.0</ele><time>2026-05-02T07:55:18Z</time></trkpt><trkpt lat="43.823118173343005" lon="11.914332036580284"><ele>1034.0</ele><time>2026-05-02T07:55:19Z</time></trkpt><trkpt lat="43.8230435164226" lon="11.914313712243397"><ele>1034.0</ele><time>2026-05-02T07:55:20Z</time></trkpt><trkpt lat="43.82299018198011" lon="11.914244979701856"><ele>1034.0</ele><time>2026-05-02T07:55:21Z</time></trkpt><trkpt lat="43.82293246153352" lon="11.914141122786114"><ele>1034.0</ele><time>2026-05-02T07:55:22Z</time></trkpt><trkpt lat="43.82286184272636" lon="11.914052925036811"><ele>1034.0</ele><time>2026-05-02T07:55:23Z</time></trkpt><trkpt lat="43.8227988694795" lon="11.914013594354044"><ele>1034.0</ele><time>2026-05-02T07:55:24Z</time></trkpt><trkpt lat="43.82273601095177" lon="11.914023392457894"><ele>1034.0</ele><time>2026-05-02T07:55:25Z</time></trkpt><trkpt lat="43.82265472906406" lon="11.914056678302286"><ele>1035.6000000000001</ele><time>2026-05-02T07:55:26Z</time></trkpt><trkpt lat="43.822571476986354" lon="11.91411936135798"><ele>1037.2</ele><time>2026-05-02T07:55:27Z</time></trkpt><trkpt lat="43.82249018201612" lon="11.914183811284481"><ele>1038.8000000000002</ele><time>2026-05-02T07:55:28Z</time></trkpt><trkpt lat="43.822397230478465" lon="11.914244924203627"><ele>1040.4</ele><time>2026-05-02T07:55:29Z</time></trkpt><trkpt lat="43.82231530042782" lon="11.914294225629408"><ele>1042.0</ele><time>2026-05-02T07:55:30Z</time></trkpt><trkpt lat="43.82224265787056" lon="11.914342142063465"><ele>1042.0</ele><time>2026-05-02T07:55:31Z</time></trkpt><trkpt lat="43.82216651548233" lon="11.914389628709754"><ele>1042.0</ele><time>2026-05-02T07:55:32Z</time></trkpt><trkpt lat="43.82209498342663" lon="11.91442327067129"><ele>1042.0</ele><time>2026-05-02T07:55:33Z</time></trkpt><trkpt lat="43.822025591528146" lon="11.914425479792898"><ele>1042.0</ele><time>2026-05-02T07:55:34Z</time></trkpt><trkpt lat="43.82195861225518" lon="11.914393489541956"><ele>1042.0</ele><time>2026-05-02T07:55:35Z</time></trkpt><trkpt lat="43.82190084831143" lon="11.914316857888535"><ele>1042.0</ele><time>2026-05-02T07:55:36Z</time></trkpt><trkpt lat="43.82184147191595" lon="11.914233814504776"><ele>1042.0</ele><time>2026-05-02T07:55:37Z</time></trkpt><trkpt lat="43.821796006767755" lon="11.91416472531693"><ele>1042.0</ele><time>2026-05-02T07:55:38Z</time></trkpt><trkpt lat="43.8216859241292" lon="11.914087418455297"><ele>1042.0</ele><time>2026-05-02T07:55:40Z</time></trkpt><trkpt lat="43.8215995237467" lon="11.91407135334815"><ele>1042.0</ele><time>2026-05-02T07:55:41Z</time></trkpt><trkpt lat="43.82151765700541" lon="11.914061779955423"><ele>1042.0</ele><time>2026-05-02T07:55:42Z</time></trkpt><trkpt lat="43.8214257834139" lon="11.914066914859044"><ele>1042.0</ele><time>2026-05-02T07:55:43Z</time></trkpt><trkpt lat="43.821340431445215" lon="11.914056720757682"><ele>1042.0</ele><time>2026-05-02T07:55:44Z</time></trkpt><trkpt lat="43.82127892397928" lon="11.914025647837677"><ele>1042.0</ele><time>2026-05-02T07:55:45Z</time></trkpt><trkpt lat="43.82121029103989" lon="11.913959875839282"><ele>1042.0</ele><time>2026-05-02T07:55:47Z</time></trkpt><trkpt lat="43.82112866912939" lon="11.913924405196685"><ele>1042.0</ele><time>2026-05-02T07:55:51Z</time></trkpt><trkpt lat="43.82104736244841" lon="11.913849670636045"><ele>1042.0</ele><time>2026-05-02T07:55:54Z</time></trkpt><trkpt lat="43.82099036409344" lon="11.913809147437693"><ele>1039.8333333333333</ele><time>2026-05-02T07:57:50Z</time></trkpt><trkpt lat="43.820935366498716" lon="11.913754734617635"><ele>1037.6666666666665</ele><time>2026-05-02T07:57:51Z</time></trkpt><trkpt lat="43.82083668474527" lon="11.913659735219833"><ele>1035.5</ele><time>2026-05-02T07:57:53Z</time></trkpt><trkpt lat="43.82076910806084" lon="11.913587188577047"><ele>1033.3333333333333</ele><time>2026-05-02T07:57:54Z</time></trkpt><trkpt lat="43.820704365092084" lon="11.913512079817233"><ele>1031.1666666666667</ele><time>2026-05-02T07:57:55Z</time></trkpt><trkpt lat="43.82065650597758" lon="11.913428702150279"><ele>1029.0</ele><time>2026-05-02T07:57:56Z</time></trkpt><trkpt lat="43.82061644718965" lon="11.913336488213632"><ele>1029.0</ele><time>2026-05-02T07:57:57Z</time></trkpt><trkpt lat="43.820579797199485" lon="11.913230345903452"><ele>1029.0</ele><time>2026-05-02T07:57:58Z</time></trkpt><trkpt lat="43.82054887725147" lon="11.913119830747673"><ele>1029.0</ele><time>2026-05-02T07:57:59Z</time></trkpt><trkpt lat="43.82052299471216" lon="11.913018152887801"><ele>1029.0</ele><time>2026-05-02T07:58:00Z</time></trkpt><trkpt lat="43.82049282894559" lon="11.912921247743068"><ele>1029.0</ele><time>2026-05-02T07:58:01Z</time></trkpt><trkpt lat="43.82046551940605" lon="11.912803920887706"><ele>1029.0</ele><time>2026-05-02T07:58:02Z</time></trkpt><trkpt lat="43.820440906439174" lon="11.912691852342261"><ele>1028.5</ele><time>2026-05-02T07:58:03Z</time></trkpt><trkpt lat="43.82040914664232" lon="11.912529060962797"><ele>1028.0</ele><time>2026-05-02T07:58:05Z</time></trkpt><trkpt lat="43.82036391311208" lon="11.912437004958331"><ele>1027.5</ele><time>2026-05-02T07:58:06Z</time></trkpt><trkpt lat="43.82031274598339" lon="11.91236554071883"><ele>1027.0</ele><time>2026-05-02T07:58:07Z</time></trkpt><trkpt lat="43.82025375930205" lon="11.912322782433328"><ele>1026.5</ele><time>2026-05-02T07:58:08Z</time></trkpt><trkpt lat="43.8201865961598" lon="11.912250223496438"><ele>1026.0</ele><time>2026-05-02T07:58:09Z</time></trkpt><trkpt lat="43.82013304469652" lon="11.912170337444813"><ele>1026.0</ele><time>2026-05-02T07:58:10Z</time></trkpt><trkpt lat="43.82008084863255" lon="11.912092055972746"><ele>1026.0</ele><time>2026-05-02T07:58:11Z</time></trkpt><trkpt lat="43.820021452600265" lon="11.912005426901132"><ele>1026.0</ele><time>2026-05-02T07:58:12Z</time></trkpt><trkpt lat="43.81997487825101" lon="11.911927626482056"><ele>1026.0</ele><time>2026-05-02T07:58:13Z</time></trkpt><trkpt lat="43.81991722935706" lon="11.911831972769022"><ele>1026.0</ele><time>2026-05-02T07:58:14Z</time></trkpt><trkpt lat="43.81985170715868" lon="11.91174792495011"><ele>1026.0</ele><time>2026-05-02T07:58:15Z</time></trkpt><trkpt lat="43.81978628003643" lon="11.911685466358543"><ele>1025.6666666666667</ele><time>2026-05-02T07:58:16Z</time></trkpt><trkpt lat="43.819713973789376" lon="11.911630921691582"><ele>1025.3333333333333</ele><time>2026-05-02T07:58:17Z</time></trkpt><trkpt lat="43.819636864719556" lon="11.911584078476869"><ele>1025.0</ele><time>2026-05-02T07:58:18Z</time></trkpt><trkpt lat="43.81957126256996" lon="11.911537785672932"><ele>1024.6666666666665</ele><time>2026-05-02T07:58:19Z</time></trkpt><trkpt lat="43.819508275972105" lon="11.91151578300962"><ele>1024.3333333333333</ele><time>2026-05-02T07:58:20Z</time></trkpt><trkpt lat="43.81943479937303" lon="11.911498022564627"><ele>1024.0</ele><time>2026-05-02T07:58:21Z</time></trkpt><trkpt lat="43.81930888084946" lon="11.911495445228905"><ele>1023.9999999999999</ele><time>2026-05-02T07:58:23Z</time></trkpt><trkpt lat="43.81924585541516" lon="11.911510371132707"><ele>1024.0</ele><time>2026-05-02T07:58:24Z</time></trkpt><trkpt lat="43.81917021558721" lon="11.911520010747717"><ele>1024.0</ele><time>2026-05-02T07:58:25Z</time></trkpt><trkpt lat="43.81909066007327" lon="11.911520370038652"><ele>1024.0</ele><time>2026-05-02T07:58:26Z</time></trkpt><trkpt lat="43.8190004023336" lon="11.911523021284887"><ele>1023.9999999999999</ele><time>2026-05-02T07:58:27Z</time></trkpt><trkpt lat="43.818908236074634" lon="11.911515112498522"><ele>1024.0</ele><time>2026-05-02T07:58:28Z</time></trkpt><trkpt lat="43.81882565113466" lon="11.911506043616832"><ele>1024.0</ele><time>2026-05-02T07:58:29Z</time></trkpt><trkpt lat="43.81873750722935" lon="11.911518244868125"><ele>1024.0</ele><time>2026-05-02T07:58:30Z</time></trkpt><trkpt lat="43.81864974021625" lon="11.911566250804977"><ele>1024.0</ele><time>2026-05-02T07:58:31Z</time></trkpt><trkpt lat="43.81854944848224" lon="11.911655860941488"><ele>1024.0</ele><time>2026-05-02T07:58:32Z</time></trkpt><trkpt lat="43.81845112141672" lon="11.911735720010704"><ele>1024.0</ele><time>2026-05-02T07:58:33Z</time></trkpt><trkpt lat="43.818369868265826" lon="11.911802240175605"><ele>1021.8000000000001</ele><time>2026-05-02T07:58:34Z</time></trkpt><trkpt lat="43.818289373724596" lon="11.911851438504815"><ele>1019.6000000000001</ele><time>2026-05-02T07:58:35Z</time></trkpt><trkpt lat="43.818215268928704" lon="11.911899262456183"><ele>1017.4</ele><time>2026-05-02T07:58:36Z</time></trkpt><trkpt lat="43.81810966785633" lon="11.911953220658765"><ele>1015.2</ele><time>2026-05-02T07:58:37Z</time></trkpt><trkpt lat="43.81800780504949" lon="11.912000507194739"><ele>1013.0</ele><time>2026-05-02T07:58:38Z</time></trkpt><trkpt lat="43.81791813523669" lon="11.912037066837138"><ele>1013.0</ele><time>2026-05-02T07:58:39Z</time></trkpt><trkpt lat="43.817830953110885" lon="11.912113947324462"><ele>1013.0</ele><time>2026-05-02T07:58:40Z</time></trkpt><trkpt lat="43.81775695790837" lon="11.912219496281475"><ele>1013.0</ele><time>2026-05-02T07:58:41Z</time></trkpt><trkpt lat="43.81769354964228" lon="11.912303656627879"><ele>1013.0</ele><time>2026-05-02T07:58:42Z</time></trkpt><trkpt lat="43.81763022260012" lon="11.912400855123563"><ele>1013.0</ele><time>2026-05-02T07:58:43Z</time></trkpt><trkpt lat="43.817587555512375" lon="11.912531077141095"><ele>1009.8</ele><time>2026-05-02T07:58:44Z</time></trkpt><trkpt lat="43.81757749932896" lon="11.912676272716999"><ele>1006.5999999999999</ele><time>2026-05-02T07:58:45Z</time></trkpt><trkpt lat="43.81754812729277" lon="11.912787344651173"><ele>1003.4000000000001</ele><time>2026-05-02T07:58:46Z</time></trkpt><trkpt lat="43.81749001778118" lon="11.912908945294872"><ele>1000.2</ele><time>2026-05-02T07:58:48Z</time></trkpt><trkpt lat="43.817344450622954" lon="11.912850869684258"><ele>997.0</ele><time>2026-05-02T07:58:50Z</time></trkpt><trkpt lat="43.81726408495756" lon="11.912766754971276"><ele>997.0</ele><time>2026-05-02T07:58:51Z</time></trkpt><trkpt lat="43.81717833979257" lon="11.912672788952708"><ele>997.0</ele><time>2026-05-02T07:58:52Z</time></trkpt><trkpt lat="43.81707796365073" lon="11.912603289435916"><ele>997.0</ele><time>2026-05-02T07:58:53Z</time></trkpt><trkpt lat="43.81697588647531" lon="11.912579812844148"><ele>997.0</ele><time>2026-05-02T07:58:54Z</time></trkpt><trkpt lat="43.81686466030889" lon="11.912564552146403"><ele>997.0</ele><time>2026-05-02T07:58:55Z</time></trkpt><trkpt lat="43.816792465404895" lon="11.912516709405452"><ele>998.8</ele><time>2026-05-02T07:58:56Z</time></trkpt><trkpt lat="43.81669931950461" lon="11.912533519263832"><ele>1000.6</ele><time>2026-05-02T07:58:57Z</time></trkpt><trkpt lat="43.8166071735346" lon="11.912593507530708"><ele>1002.3999999999999</ele><time>2026-05-02T07:58:58Z</time></trkpt><trkpt lat="43.81652022203646" lon="11.91266517733424"><ele>1004.1999999999999</ele><time>2026-05-02T07:58:59Z</time></trkpt><trkpt lat="43.816465121680416" lon="11.912751915715887"><ele>1006.0</ele><time>2026-05-02T07:59:00Z</time></trkpt><trkpt lat="43.81641757132989" lon="11.912865819156623"><ele>1006.0</ele><time>2026-05-02T07:59:01Z</time></trkpt><trkpt lat="43.81638948296577" lon="11.9129984851109"><ele>1006.0</ele><time>2026-05-02T07:59:02Z</time></trkpt><trkpt lat="43.81637638311756" lon="11.913148859407613"><ele>1006.0</ele><time>2026-05-02T07:59:03Z</time></trkpt><trkpt lat="43.81634570856378" lon="11.91331268091418"><ele>1006.0</ele><time>2026-05-02T07:59:04Z</time></trkpt><trkpt lat="43.81630505629984" lon="11.913485731304734"><ele>1003.8333333333333</ele><time>2026-05-02T07:59:05Z</time></trkpt><trkpt lat="43.816291753905105" lon="11.91362612349305"><ele>1001.6666666666666</ele><time>2026-05-02T07:59:06Z</time></trkpt><trkpt lat="43.81628409908788" lon="11.913725430920614"><ele>999.5</ele><time>2026-05-02T07:59:07Z</time></trkpt><trkpt lat="43.81627370562313" lon="11.913813083199521"><ele>997.3333333333333</ele><time>2026-05-02T07:59:08Z</time></trkpt><trkpt lat="43.81623271928882" lon="11.91388587906133"><ele>995.1666666666666</ele><time>2026-05-02T07:59:09Z</time></trkpt><trkpt lat="43.81616171235625" lon="11.913955733471411"><ele>993.0</ele><time>2026-05-02T07:59:10Z</time></trkpt><trkpt lat="43.816082140297304" lon="11.91400983864724"><ele>993.0</ele><time>2026-05-02T07:59:11Z</time></trkpt><trkpt lat="43.816010518962806" lon="11.914091960618467"><ele>993.0</ele><time>2026-05-02T07:59:12Z</time></trkpt><trkpt lat="43.81597597943858" lon="11.914195807678997"><ele>993.0</ele><time>2026-05-02T07:59:13Z</time></trkpt><trkpt lat="43.815989375640214" lon="11.914318629357588"><ele>993.0</ele><time>2026-05-02T07:59:14Z</time></trkpt><trkpt lat="43.81601326145872" lon="11.914422659254726"><ele>993.0</ele><time>2026-05-02T07:59:15Z</time></trkpt><trkpt lat="43.816046413508595" lon="11.914508576407403"><ele>993.0</ele><time>2026-05-02T07:59:16Z</time></trkpt><trkpt lat="43.81609879452816" lon="11.914581156404852"><ele>992.4285714285713</ele><time>2026-05-02T07:59:17Z</time></trkpt><trkpt lat="43.816161203585246" lon="11.914647747525148"><ele>991.8571428571429</ele><time>2026-05-02T07:59:18Z</time></trkpt><trkpt lat="43.81622379664473" lon="11.914699866189366"><ele>991.2857142857142</ele><time>2026-05-02T07:59:19Z</time></trkpt><trkpt lat="43.81627787998598" lon="11.914758260101133"><ele>990.7142857142857</ele><time>2026-05-02T07:59:20Z</time></trkpt><trkpt lat="43.816316596942755" lon="11.914830869284767"><ele>990.1428571428571</ele><time>2026-05-02T07:59:21Z</time></trkpt><trkpt lat="43.81634764855642" lon="11.91491236638286"><ele>989.5714285714286</ele><time>2026-05-02T07:59:22Z</time></trkpt><trkpt lat="43.81635990567739" lon="11.915025761066822"><ele>989.0</ele><time>2026-05-02T07:59:23Z</time></trkpt><trkpt lat="43.81635377353142" lon="11.915133808108111"><ele>989.0000000000001</ele><time>2026-05-02T07:59:24Z</time></trkpt><trkpt lat="43.816333383091354" lon="11.915230835392496"><ele>989.0</ele><time>2026-05-02T07:59:25Z</time></trkpt><trkpt lat="43.81626483366065" lon="11.915311163736044"><ele>989.0</ele><time>2026-05-02T07:59:27Z</time></trkpt><trkpt lat="43.81617870400761" lon="11.915295838152911"><ele>989.0</ele><time>2026-05-02T07:59:29Z</time></trkpt><trkpt lat="43.81610600187379" lon="11.915221820134702"><ele>989.0000000000001</ele><time>2026-05-02T07:59:31Z</time></trkpt><trkpt lat="43.81605630176669" lon="11.915134494029408"><ele>989.0</ele><time>2026-05-02T07:59:33Z</time></trkpt><trkpt lat="43.816046224348945" lon="11.915024696855037"><ele>989.0000000000001</ele><time>2026-05-02T07:59:41Z</time></trkpt><trkpt lat="43.81606595520673" lon="11.91493347771592"><ele>989.0</ele><time>2026-05-02T07:59:42Z</time></trkpt><trkpt lat="43.81604771294895" lon="11.914836460327043"><ele>989.0</ele><time>2026-05-02T07:59:43Z</time></trkpt><trkpt lat="43.815982329925646" lon="11.914768970321976"><ele>989.0</ele><time>2026-05-02T07:59:44Z</time></trkpt><trkpt lat="43.81589094296916" lon="11.91476433377384"><ele>989.0000000000001</ele><time>2026-05-02T07:59:45Z</time></trkpt><trkpt lat="43.81578727060492" lon="11.914792796410945"><ele>989.0</ele><time>2026-05-02T07:59:46Z</time></trkpt><trkpt lat="43.81568656955061" lon="11.914828820877258"><ele>991.75</ele><time>2026-05-02T07:59:47Z</time></trkpt><trkpt lat="43.81557673531001" lon="11.914854138265268"><ele>994.5</ele><time>2026-05-02T07:59:48Z</time></trkpt><trkpt lat="43.81544388393436" lon="11.91488896930122"><ele>997.25</ele><time>2026-05-02T07:59:49Z</time></trkpt><trkpt lat="43.81531405316583" lon="11.914922509580004"><ele>1000.0</ele><time>2026-05-02T07:59:50Z</time></trkpt><trkpt lat="43.815187456661754" lon="11.91496019122642"><ele>997.3333333333333</ele><time>2026-05-02T07:59:51Z</time></trkpt><trkpt lat="43.81505105836344" lon="11.915029883722024"><ele>994.6666666666667</ele><time>2026-05-02T07:59:52Z</time></trkpt><trkpt lat="43.814905306481954" lon="11.915111040011835"><ele>992.0</ele><time>2026-05-02T07:59:53Z</time></trkpt><trkpt lat="43.81476721253506" lon="11.91519469771252"><ele>992.0</ele><time>2026-05-02T07:59:54Z</time></trkpt><trkpt lat="43.814656631059336" lon="11.915286081471333"><ele>992.0</ele><time>2026-05-02T07:59:55Z</time></trkpt><trkpt lat="43.814567005427065" lon="11.915421292075644"><ele>992.0</ele><time>2026-05-02T07:59:56Z</time></trkpt><trkpt lat="43.81452005152513" lon="11.915575093772322"><ele>992.0</ele><time>2026-05-02T07:59:57Z</time></trkpt><trkpt lat="43.814463202111455" lon="11.915716555215148"><ele>992.0</ele><time>2026-05-02T07:59:58Z</time></trkpt><trkpt lat="43.81442175482868" lon="11.91582658070452"><ele>992.0</ele><time>2026-05-02T07:59:59Z</time></trkpt><trkpt lat="43.81434995404683" lon="11.915894066956888"><ele>992.0</ele><time>2026-05-02T08:00:00Z</time></trkpt><trkpt lat="43.81424673060739" lon="11.915866489365062"><ele>992.0</ele><time>2026-05-02T08:00:01Z</time></trkpt><trkpt lat="43.81413646861182" lon="11.915849376140892"><ele>992.0</ele><time>2026-05-02T08:00:02Z</time></trkpt><trkpt lat="43.81399731552002" lon="11.915836193845424"><ele>998.5</ele><time>2026-05-02T08:00:03Z</time></trkpt><trkpt lat="43.813858267428046" lon="11.915798825065622"><ele>1005.0</ele><time>2026-05-02T08:00:04Z</time></trkpt><trkpt lat="43.81370619322445" lon="11.915776935348342"><ele>1011.5</ele><time>2026-05-02T08:00:05Z</time></trkpt><trkpt lat="43.81355793164834" lon="11.915759827379183"><ele>1018.0</ele><time>2026-05-02T08:00:06Z</time></trkpt><trkpt lat="43.81341752725717" lon="11.9157309222317"><ele>1019.75</ele><time>2026-05-02T08:00:07Z</time></trkpt><trkpt lat="43.813288848665685" lon="11.915706700989984"><ele>1021.5</ele><time>2026-05-02T08:00:08Z</time></trkpt><trkpt lat="43.81317101903122" lon="11.915698700772664"><ele>1023.25</ele><time>2026-05-02T08:00:09Z</time></trkpt><trkpt lat="43.81305633445214" lon="11.915694006944769"><ele>1025.0</ele><time>2026-05-02T08:00:10Z</time></trkpt><trkpt lat="43.81294099394597" lon="11.915723470661955"><ele>1025.0</ele><time>2026-05-02T08:00:11Z</time></trkpt><trkpt lat="43.812820766489786" lon="11.915770850989963"><ele>1025.0</ele><time>2026-05-02T08:00:12Z</time></trkpt><trkpt lat="43.81271024775742" lon="11.915877441745797"><ele>1025.0</ele><time>2026-05-02T08:00:13Z</time></trkpt><trkpt lat="43.81262395283796" lon="11.916027732388423"><ele>1025.0</ele><time>2026-05-02T08:00:14Z</time></trkpt><trkpt lat="43.81254599561269" lon="11.91612553164234"><ele>1020.5</ele><time>2026-05-02T08:00:15Z</time></trkpt><trkpt lat="43.81245783287281" lon="11.916224551751961"><ele>1016.0</ele><time>2026-05-02T08:00:16Z</time></trkpt><trkpt lat="43.812347286672725" lon="11.916181487165172"><ele>1011.5</ele><time>2026-05-02T08:00:17Z</time></trkpt><trkpt lat="43.81224034457466" lon="11.916132155252827"><ele>1007.0</ele><time>2026-05-02T08:00:18Z</time></trkpt><trkpt lat="43.8121304756424" lon="11.91608440362102"><ele>1007.0</ele><time>2026-05-02T08:00:19Z</time></trkpt><trkpt lat="43.812022540449135" lon="11.916059216236187"><ele>1007.0</ele><time>2026-05-02T08:00:20Z</time></trkpt><trkpt lat="43.81193644411277" lon="11.916017250511567"><ele>1007.0</ele><time>2026-05-02T08:00:21Z</time></trkpt><trkpt lat="43.81185087061741" lon="11.91601021893354"><ele>1007.0</ele><time>2026-05-02T08:00:22Z</time></trkpt><trkpt lat="43.8117483078375" lon="11.91605985991952"><ele>1007.0</ele><time>2026-05-02T08:00:23Z</time></trkpt><trkpt lat="43.81164994125297" lon="11.91613857953427"><ele>1009.4000000000001</ele><time>2026-05-02T08:00:24Z</time></trkpt><trkpt lat="43.811543362205434" lon="11.916211446829688"><ele>1011.8000000000001</ele><time>2026-05-02T08:00:25Z</time></trkpt><trkpt lat="43.81144850545513" lon="11.916242415289377"><ele>1014.2</ele><time>2026-05-02T08:00:26Z</time></trkpt><trkpt lat="43.81133748436869" lon="11.916243249733895"><ele>1016.6</ele><time>2026-05-02T08:00:27Z</time></trkpt><trkpt lat="43.811222105743454" lon="11.91627716906548"><ele>1019.0</ele><time>2026-05-02T08:00:28Z</time></trkpt><trkpt lat="43.81111368919779" lon="11.916319156366908"><ele>1019.0</ele><time>2026-05-02T08:00:29Z</time></trkpt><trkpt lat="43.81102127243288" lon="11.916380205261008"><ele>1019.0</ele><time>2026-05-02T08:00:30Z</time></trkpt><trkpt lat="43.81094693820991" lon="11.916504078671302"><ele>1019.0</ele><time>2026-05-02T08:00:31Z</time></trkpt><trkpt lat="43.81090404362389" lon="11.91666956160128"><ele>1019.0</ele><time>2026-05-02T08:00:32Z</time></trkpt><trkpt lat="43.81089402817685" lon="11.916820145546113"><ele>1021.4000000000001</ele><time>2026-05-02T08:00:33Z</time></trkpt><trkpt lat="43.81090767098087" lon="11.91696544021749"><ele>1023.8000000000001</ele><time>2026-05-02T08:00:34Z</time></trkpt><trkpt lat="43.810856124794924" lon="11.917074222550534"><ele>1026.1999999999998</ele><time>2026-05-02T08:00:35Z</time></trkpt><trkpt lat="43.81077082583887" lon="11.91710588220282"><ele>1028.6</ele><time>2026-05-02T08:00:36Z</time></trkpt><trkpt lat="43.810674809151934" lon="11.917141581582358"><ele>1031.0</ele><time>2026-05-02T08:00:37Z</time></trkpt><trkpt lat="43.81055508997682" lon="11.917182843366435"><ele>1031.0</ele><time>2026-05-02T08:00:38Z</time></trkpt><trkpt lat="43.8104487082145" lon="11.917241082754625"><ele>1031.0</ele><time>2026-05-02T08:00:39Z</time></trkpt><trkpt lat="43.81035590252467" lon="11.917316567650117"><ele>1031.0</ele><time>2026-05-02T08:00:40Z</time></trkpt><trkpt lat="43.810276967582936" lon="11.917475182825623"><ele>1031.0</ele><time>2026-05-02T08:00:41Z</time></trkpt><trkpt lat="43.810216901054005" lon="11.917645496973742"><ele>1027.5</ele><time>2026-05-02T08:00:42Z</time></trkpt><trkpt lat="43.81022610978546" lon="11.917838407575902"><ele>1024.0</ele><time>2026-05-02T08:00:43Z</time></trkpt><trkpt lat="43.81025696212199" lon="11.918011700889565"><ele>1020.5</ele><time>2026-05-02T08:00:44Z</time></trkpt><trkpt lat="43.81031728359782" lon="11.918149951750244"><ele>1017.0</ele><time>2026-05-02T08:00:45Z</time></trkpt><trkpt lat="43.81033183750839" lon="11.918254541359424"><ele>1017.0</ele><time>2026-05-02T08:00:46Z</time></trkpt><trkpt lat="43.8103296447345" lon="11.918359156752796"><ele>1017.0</ele><time>2026-05-02T08:00:47Z</time></trkpt><trkpt lat="43.81028371244642" lon="11.918454522604442"><ele>1017.0</ele><time>2026-05-02T08:00:48Z</time></trkpt><trkpt lat="43.810180709016265" lon="11.91849897905839"><ele>1017.0</ele><time>2026-05-02T08:00:49Z</time></trkpt><trkpt lat="43.81010893854376" lon="11.918610034725601"><ele>1017.0</ele><time>2026-05-02T08:00:50Z</time></trkpt><trkpt lat="43.81005078931707" lon="11.918742245941592"><ele>1027.25</ele><time>2026-05-02T08:00:51Z</time></trkpt><trkpt lat="43.810016810060326" lon="11.91891328518834"><ele>1037.5</ele><time>2026-05-02T08:00:52Z</time></trkpt><trkpt lat="43.80994076208043" lon="11.919040707118818"><ele>1047.75</ele><time>2026-05-02T08:00:53Z</time></trkpt><trkpt lat="43.80986613292825" lon="11.919142879094819"><ele>1058.0</ele><time>2026-05-02T08:00:54Z</time></trkpt><trkpt lat="43.8098015995602" lon="11.919246042554352"><ele>1058.0</ele><time>2026-05-02T08:00:55Z</time></trkpt><trkpt lat="43.8097618766814" lon="11.919353103367909"><ele>1058.0</ele><time>2026-05-02T08:00:56Z</time></trkpt><trkpt lat="43.80977583797921" lon="11.919513585264745"><ele>1058.0</ele><time>2026-05-02T08:00:57Z</time></trkpt><trkpt lat="43.80984350566577" lon="11.91968604390319"><ele>1058.0</ele><time>2026-05-02T08:00:58Z</time></trkpt><trkpt lat="43.809882480950364" lon="11.919835211897787"><ele>1058.0</ele><time>2026-05-02T08:00:59Z</time></trkpt><trkpt lat="43.80990792788103" lon="11.91995666178094"><ele>1058.0</ele><time>2026-05-02T08:01:00Z</time></trkpt><trkpt lat="43.80992463690727" lon="11.920060520109754"><ele>1058.0</ele><time>2026-05-02T08:01:01Z</time></trkpt><trkpt lat="43.80990698851667" lon="11.92016124818269"><ele>1058.0</ele><time>2026-05-02T08:01:02Z</time></trkpt><trkpt lat="43.809838456172095" lon="11.920232922478059"><ele>1058.0</ele><time>2026-05-02T08:01:03Z</time></trkpt><trkpt lat="43.80973953169476" lon="11.920286505656287"><ele>1058.0</ele><time>2026-05-02T08:01:04Z</time></trkpt><trkpt lat="43.80961715411155" lon="11.920345704365314"><ele>1058.75</ele><time>2026-05-02T08:01:05Z</time></trkpt><trkpt lat="43.809501290653785" lon="11.920430025727066"><ele>1059.5</ele><time>2026-05-02T08:01:06Z</time></trkpt><trkpt lat="43.80936890862941" lon="11.920476862212169"><ele>1060.25</ele><time>2026-05-02T08:01:07Z</time></trkpt><trkpt lat="43.80924999810423" lon="11.920540874375892"><ele>1061.0</ele><time>2026-05-02T08:01:08Z</time></trkpt><trkpt lat="43.80915845611665" lon="11.920605951016247"><ele>1061.0</ele><time>2026-05-02T08:01:09Z</time></trkpt><trkpt lat="43.80906474782025" lon="11.920646289879809"><ele>1061.0</ele><time>2026-05-02T08:01:10Z</time></trkpt><trkpt lat="43.808983365508965" lon="11.920664741767073"><ele>1061.0</ele><time>2026-05-02T08:01:11Z</time></trkpt><trkpt lat="43.80889250301311" lon="11.920641911529675"><ele>1061.0</ele><time>2026-05-02T08:01:12Z</time></trkpt><trkpt lat="43.80881428549402" lon="11.920560122853464"><ele>1061.0</ele><time>2026-05-02T08:01:13Z</time></trkpt><trkpt lat="43.80876931799061" lon="11.920411491503856"><ele>1061.0</ele><time>2026-05-02T08:01:14Z</time></trkpt><trkpt lat="43.808758587079375" lon="11.920220640200984"><ele>1061.0</ele><time>2026-05-02T08:01:15Z</time></trkpt><trkpt lat="43.808750364371924" lon="11.920050452338483"><ele>1061.0</ele><time>2026-05-02T08:01:16Z</time></trkpt><trkpt lat="43.80875656454902" lon="11.919896773586098"><ele>1061.0</ele><time>2026-05-02T08:01:17Z</time></trkpt><trkpt lat="43.808734208498514" lon="11.919751873632277"><ele>1069.0</ele><time>2026-05-02T08:01:18Z</time></trkpt><trkpt lat="43.80872834855092" lon="11.919598811915543"><ele>1077.0</ele><time>2026-05-02T08:01:19Z</time></trkpt><trkpt lat="43.80873851219146" lon="11.919431635233662"><ele>1085.0</ele><time>2026-05-02T08:01:20Z</time></trkpt><trkpt lat="43.808730165582176" lon="11.919225467137188"><ele>1093.0</ele><time>2026-05-02T08:01:21Z</time></trkpt><trkpt lat="43.8087208816739" lon="11.919028810440187"><ele>1097.5</ele><time>2026-05-02T08:01:22Z</time></trkpt><trkpt lat="43.80869963519689" lon="11.918878523968333"><ele>1102.0</ele><time>2026-05-02T08:01:23Z</time></trkpt><trkpt lat="43.80870858903695" lon="11.918731358554657"><ele>1106.5</ele><time>2026-05-02T08:01:24Z</time></trkpt><trkpt lat="43.808705247561555" lon="11.918554953802156"><ele>1111.0</ele><time>2026-05-02T08:01:25Z</time></trkpt><trkpt lat="43.80870870910552" lon="11.91836552766645"><ele>1112.25</ele><time>2026-05-02T08:01:26Z</time></trkpt><trkpt lat="43.80873025367676" lon="11.918190012934515"><ele>1113.5</ele><time>2026-05-02T08:01:27Z</time></trkpt><trkpt lat="43.80875073067765" lon="11.918026791326662"><ele>1114.75</ele><time>2026-05-02T08:01:28Z</time></trkpt><trkpt lat="43.808789204215806" lon="11.917879430039637"><ele>1116.0</ele><time>2026-05-02T08:01:29Z</time></trkpt><trkpt lat="43.80881476435991" lon="11.917727141993852"><ele>1116.0</ele><time>2026-05-02T08:01:30Z</time></trkpt><trkpt lat="43.808827298090065" lon="11.917578379975401"><ele>1116.0</ele><time>2026-05-02T08:01:31Z</time></trkpt><trkpt lat="43.80884625551215" lon="11.917428577078722"><ele>1116.0</ele><time>2026-05-02T08:01:32Z</time></trkpt><trkpt lat="43.80883722743667" lon="11.91728294954571"><ele>1116.0</ele><time>2026-05-02T08:01:33Z</time></trkpt><trkpt lat="43.80878696718535" lon="11.917166762562086"><ele>1116.0</ele><time>2026-05-02T08:01:34Z</time></trkpt><trkpt lat="43.808678152551394" lon="11.91704269064281"><ele>1117.0</ele><time>2026-05-02T08:01:35Z</time></trkpt><trkpt lat="43.80853874534329" lon="11.916962407140966"><ele>1118.0</ele><time>2026-05-02T08:01:36Z</time></trkpt><trkpt lat="43.808429315549375" lon="11.916899925598655"><ele>1119.0</ele><time>2026-05-02T08:01:37Z</time></trkpt><trkpt lat="43.80833385003869" lon="11.91681042689651"><ele>1120.0</ele><time>2026-05-02T08:01:38Z</time></trkpt><trkpt lat="43.8082702376978" lon="11.916635677913986"><ele>1120.75</ele><time>2026-05-02T08:01:39Z</time></trkpt><trkpt lat="43.80819654951881" lon="11.916502612317837"><ele>1121.5</ele><time>2026-05-02T08:01:40Z</time></trkpt><trkpt lat="43.808117167193124" lon="11.916400548080853"><ele>1122.25</ele><time>2026-05-02T08:01:41Z</time></trkpt><trkpt lat="43.80797887207546" lon="11.916320435930837"><ele>1123.0</ele><time>2026-05-02T08:01:42Z</time></trkpt><trkpt lat="43.80782456121194" lon="11.916307758018773"><ele>1123.0</ele><time>2026-05-02T08:01:43Z</time></trkpt><trkpt lat="43.80766810506331" lon="11.916332023338667"><ele>1123.0</ele><time>2026-05-02T08:01:44Z</time></trkpt><trkpt lat="43.80753091958015" lon="11.916368740727684"><ele>1123.0</ele><time>2026-05-02T08:01:45Z</time></trkpt><trkpt lat="43.807379592087536" lon="11.916315516127561"><ele>1119.0</ele><time>2026-05-02T08:01:46Z</time></trkpt><trkpt lat="43.80723646064535" lon="11.916238882132497"><ele>1115.0</ele><time>2026-05-02T08:01:47Z</time></trkpt><trkpt lat="43.80708784308509" lon="11.916186569391158"><ele>1111.0</ele><time>2026-05-02T08:01:48Z</time></trkpt><trkpt lat="43.80695263607238" lon="11.91612388320341"><ele>1107.0</ele><time>2026-05-02T08:01:49Z</time></trkpt><trkpt lat="43.80683510327452" lon="11.916150417205376"><ele>1109.6666666666667</ele><time>2026-05-02T08:01:50Z</time></trkpt><trkpt lat="43.80671150966639" lon="11.91625200571326"><ele>1112.3333333333335</ele><time>2026-05-02T08:01:51Z</time></trkpt><trkpt lat="43.806601408905635" lon="11.916403434123982"><ele>1115.0</ele><time>2026-05-02T08:01:52Z</time></trkpt><trkpt lat="43.80651431513603" lon="11.916584544349393"><ele>1115.0</ele><time>2026-05-02T08:01:53Z</time></trkpt><trkpt lat="43.80643512661049" lon="11.916702526298705"><ele>1115.0</ele><time>2026-05-02T08:01:54Z</time></trkpt><trkpt lat="43.80634424121529" lon="11.916751928779295"><ele>1115.0</ele><time>2026-05-02T08:01:55Z</time></trkpt><trkpt lat="43.806212723156435" lon="11.916774805979998"><ele>1115.0</ele><time>2026-05-02T08:01:56Z</time></trkpt><trkpt lat="43.80609596033772" lon="11.9167908297803"><ele>1115.75</ele><time>2026-05-02T08:01:57Z</time></trkpt><trkpt lat="43.80600373896966" lon="11.916757786571234"><ele>1116.5</ele><time>2026-05-02T08:01:58Z</time></trkpt><trkpt lat="43.80593831944577" lon="11.916645115578099"><ele>1117.25</ele><time>2026-05-02T08:01:59Z</time></trkpt><trkpt lat="43.8058950167268" lon="11.916482252531814"><ele>1118.0</ele><time>2026-05-02T08:02:00Z</time></trkpt><trkpt lat="43.8058403409235" lon="11.916295908255732"><ele>1118.0</ele><time>2026-05-02T08:02:01Z</time></trkpt><trkpt lat="43.805771969877966" lon="11.916098151248088"><ele>1118.0</ele><time>2026-05-02T08:02:02Z</time></trkpt><trkpt lat="43.80571849883623" lon="11.915888787658757"><ele>1118.0</ele><time>2026-05-02T08:02:03Z</time></trkpt><trkpt lat="43.805671601875" lon="11.915710673183249"><ele>1124.5</ele><time>2026-05-02T08:02:04Z</time></trkpt><trkpt lat="43.80561659418217" lon="11.915571954812872"><ele>1131.0</ele><time>2026-05-02T08:02:05Z</time></trkpt><trkpt lat="43.80551164016032" lon="11.915454161741522"><ele>1137.5</ele><time>2026-05-02T08:02:06Z</time></trkpt><trkpt lat="43.80536484181138" lon="11.915377162779384"><ele>1144.0</ele><time>2026-05-02T08:02:07Z</time></trkpt><trkpt lat="43.80520446097985" lon="11.915334215007597"><ele>1137.3333333333333</ele><time>2026-05-02T08:02:08Z</time></trkpt><trkpt lat="43.805030953820705" lon="11.915322183396565"><ele>1130.6666666666667</ele><time>2026-05-02T08:02:09Z</time></trkpt><trkpt lat="43.804870244120224" lon="11.91531359296812"><ele>1124.0</ele><time>2026-05-02T08:02:10Z</time></trkpt><trkpt lat="43.804732413479876" lon="11.9153344793915"><ele>1124.0</ele><time>2026-05-02T08:02:11Z</time></trkpt><trkpt lat="43.80458782154063" lon="11.91539000627948"><ele>1124.0</ele><time>2026-05-02T08:02:12Z</time></trkpt><trkpt lat="43.80446062761081" lon="11.91551273346091"><ele>1124.0</ele><time>2026-05-02T08:02:13Z</time></trkpt><trkpt lat="43.80432505598012" lon="11.915744034833295"><ele>1115.6666666666667</ele><time>2026-05-02T08:02:14Z</time></trkpt><trkpt lat="43.80418139803502" lon="11.915928086373404"><ele>1107.3333333333333</ele><time>2026-05-02T08:02:15Z</time></trkpt><trkpt lat="43.80402629929646" lon="11.916059749493533"><ele>1099.0</ele><time>2026-05-02T08:02:16Z</time></trkpt><trkpt lat="43.80388576433742" lon="11.916208675537916"><ele>1099.0</ele><time>2026-05-02T08:02:17Z</time></trkpt><trkpt lat="43.803726483604976" lon="11.91636930509029"><ele>1099.0</ele><time>2026-05-02T08:02:18Z</time></trkpt><trkpt lat="43.803593153913575" lon="11.916497188352485"><ele>1099.0</ele><time>2026-05-02T08:02:19Z</time></trkpt><trkpt lat="43.803493319026295" lon="11.916600865816466"><ele>1103.8</ele><time>2026-05-02T08:02:20Z</time></trkpt><trkpt lat="43.80342985005297" lon="11.916661750559252"><ele>1108.6000000000001</ele><time>2026-05-02T08:02:21Z</time></trkpt><trkpt lat="43.80335029194241" lon="11.916715514698405"><ele>1113.4</ele><time>2026-05-02T08:02:22Z</time></trkpt><trkpt lat="43.80325676331717" lon="11.916718026123009"><ele>1118.2</ele><time>2026-05-02T08:02:23Z</time></trkpt><trkpt lat="43.80319419874705" lon="11.916589677958637"><ele>1123.0</ele><time>2026-05-02T08:02:24Z</time></trkpt><trkpt lat="43.80313595688341" lon="11.916454687026388"><ele>1123.0</ele><time>2026-05-02T08:02:25Z</time></trkpt><trkpt lat="43.80311949917928" lon="11.916260877253475"><ele>1123.0</ele><time>2026-05-02T08:02:26Z</time></trkpt><trkpt lat="43.80311752537888" lon="11.91604093057396"><ele>1123.0</ele><time>2026-05-02T08:02:27Z</time></trkpt><trkpt lat="43.80312105165522" lon="11.915843526141902"><ele>1123.0</ele><time>2026-05-02T08:02:28Z</time></trkpt><trkpt lat="43.803117863328396" lon="11.915664283241867"><ele>1131.3333333333333</ele><time>2026-05-02T08:02:29Z</time></trkpt><trkpt lat="43.803168900951796" lon="11.91548597735229"><ele>1139.6666666666667</ele><time>2026-05-02T08:02:30Z</time></trkpt><trkpt lat="43.80325490903051" lon="11.915304151995578"><ele>1148.0</ele><time>2026-05-02T08:02:31Z</time></trkpt><trkpt lat="43.803349462623714" lon="11.915115174727381"><ele>1148.3333333333335</ele><time>2026-05-02T08:02:32Z</time></trkpt><trkpt lat="43.803382589913745" lon="11.914878142559648"><ele>1148.6666666666667</ele><time>2026-05-02T08:02:33Z</time></trkpt><trkpt lat="43.80337798857084" lon="11.914592183595651"><ele>1149.0</ele><time>2026-05-02T08:02:34Z</time></trkpt><trkpt lat="43.8033776728241" lon="11.914330332998581"><ele>1152.25</ele><time>2026-05-02T08:02:35Z</time></trkpt><trkpt lat="43.80338833495921" lon="11.914137098254"><ele>1155.5</ele><time>2026-05-02T08:02:36Z</time></trkpt><trkpt lat="43.803375798196186" lon="11.913960112175632"><ele>1158.75</ele><time>2026-05-02T08:02:37Z</time></trkpt><trkpt lat="43.80327695605174" lon="11.913800099514464"><ele>1162.0</ele><time>2026-05-02T08:02:38Z</time></trkpt><trkpt lat="43.80316527828172" lon="11.913670851582502"><ele>1162.0</ele><time>2026-05-02T08:02:39Z</time></trkpt><trkpt lat="43.803004335427495" lon="11.913592827645031"><ele>1162.0</ele><time>2026-05-02T08:02:40Z</time></trkpt><trkpt lat="43.80282012154742" lon="11.913522057697206"><ele>1162.0</ele><time>2026-05-02T08:02:41Z</time></trkpt><trkpt lat="43.802624637725344" lon="11.913446397519637"><ele>1170.3333333333333</ele><time>2026-05-02T08:02:42Z</time></trkpt><trkpt lat="43.80244860556639" lon="11.913355700527719"><ele>1178.6666666666667</ele><time>2026-05-02T08:02:43Z</time></trkpt><trkpt lat="43.80226668345672" lon="11.913334369321941"><ele>1187.0</ele><time>2026-05-02T08:02:44Z</time></trkpt><trkpt lat="43.802083744568634" lon="11.913352599432924"><ele>1187.0</ele><time>2026-05-02T08:02:45Z</time></trkpt><trkpt lat="43.801883575705155" lon="11.913373880767939"><ele>1187.0</ele><time>2026-05-02T08:02:46Z</time></trkpt><trkpt lat="43.8017061449412" lon="11.913342580698565"><ele>1187.0</ele><time>2026-05-02T08:02:47Z</time></trkpt><trkpt lat="43.801534707580984" lon="11.913327124409069"><ele>1185.6666666666667</ele><time>2026-05-02T08:02:48Z</time></trkpt><trkpt lat="43.80135428245657" lon="11.91338814082785"><ele>1184.3333333333333</ele><time>2026-05-02T08:02:49Z</time></trkpt><trkpt lat="43.80116723664951" lon="11.913494350130373"><ele>1183.0</ele><time>2026-05-02T08:02:50Z</time></trkpt><trkpt lat="43.80101137407947" lon="11.913610046022695"><ele>1174.3333333333333</ele><time>2026-05-02T08:02:51Z</time></trkpt><trkpt lat="43.800847867598065" lon="11.913671035516588"><ele>1165.6666666666667</ele><time>2026-05-02T08:02:52Z</time></trkpt><trkpt lat="43.800702054638414" lon="11.913708093232218"><ele>1157.0</ele><time>2026-05-02T08:02:53Z</time></trkpt><trkpt lat="43.80055915287215" lon="11.913732912524692"><ele>1157.0</ele><time>2026-05-02T08:02:54Z</time></trkpt><trkpt lat="43.80040648317182" lon="11.913725767764166"><ele>1157.0</ele><time>2026-05-02T08:02:55Z</time></trkpt><trkpt lat="43.800256278958514" lon="11.913696445384215"><ele>1157.0</ele><time>2026-05-02T08:02:56Z</time></trkpt><trkpt lat="43.800110787574056" lon="11.913687037065682"><ele>1158.0</ele><time>2026-05-02T08:02:57Z</time></trkpt><trkpt lat="43.79994902389599" lon="11.913707511108377"><ele>1159.0</ele><time>2026-05-02T08:02:58Z</time></trkpt><trkpt lat="43.799800087226345" lon="11.91373912167956"><ele>1160.0</ele><time>2026-05-02T08:02:59Z</time></trkpt><trkpt lat="43.79967228663671" lon="11.913746371024285"><ele>1161.0</ele><time>2026-05-02T08:03:00Z</time></trkpt><trkpt lat="43.799581307748106" lon="11.913763543806377"><ele>1161.0</ele><time>2026-05-02T08:03:01Z</time></trkpt><trkpt lat="43.799510458586774" lon="11.913783189452792"><ele>1161.0</ele><time>2026-05-02T08:03:02Z</time></trkpt><trkpt lat="43.799446614068266" lon="11.913795519925772"><ele>1161.0</ele><time>2026-05-02T08:03:03Z</time></trkpt><trkpt lat="43.79936845381273" lon="11.913849630339037"><ele>1161.0</ele><time>2026-05-02T08:03:04Z</time></trkpt><trkpt lat="43.79928216333092" lon="11.913941660290064"><ele>1161.0</ele><time>2026-05-02T08:03:05Z</time></trkpt><trkpt lat="43.799228158557646" lon="11.914004006866506"><ele>1161.0</ele><time>2026-05-02T08:03:06Z</time></trkpt><trkpt lat="43.79919306906682" lon="11.91411253957681"><ele>1158.0</ele><time>2026-05-02T08:03:07Z</time></trkpt><trkpt lat="43.79918341598908" lon="11.914252303604238"><ele>1155.0</ele><time>2026-05-02T08:03:08Z</time></trkpt><trkpt lat="43.79913907754265" lon="11.914393732323862"><ele>1152.0</ele><time>2026-05-02T08:03:09Z</time></trkpt><trkpt lat="43.7990765072403" lon="11.914464147555698"><ele>1149.0</ele><time>2026-05-02T08:03:10Z</time></trkpt><trkpt lat="43.79898553552377" lon="11.91447310417024"><ele>1146.0</ele><time>2026-05-02T08:03:11Z</time></trkpt><trkpt lat="43.79885196326557" lon="11.914458496500142"><ele>1146.0</ele><time>2026-05-02T08:03:12Z</time></trkpt><trkpt lat="43.79874311321875" lon="11.914424520654803"><ele>1146.0</ele><time>2026-05-02T08:03:13Z</time></trkpt><trkpt lat="43.798638358880815" lon="11.914428395883977"><ele>1146.0</ele><time>2026-05-02T08:03:14Z</time></trkpt><trkpt lat="43.79853478246032" lon="11.914467353585815"><ele>1146.0</ele><time>2026-05-02T08:03:15Z</time></trkpt><trkpt lat="43.798431357695236" lon="11.91455880018887"><ele>1146.0</ele><time>2026-05-02T08:03:16Z</time></trkpt><trkpt lat="43.798364451819204" lon="11.914639026943323"><ele>1150.0</ele><time>2026-05-02T08:03:17Z</time></trkpt><trkpt lat="43.798299490679675" lon="11.914703098777546"><ele>1154.0</ele><time>2026-05-02T08:03:18Z</time></trkpt><trkpt lat="43.79821362722221" lon="11.914759961089784"><ele>1158.0</ele><time>2026-05-02T08:03:19Z</time></trkpt><trkpt lat="43.79812996294875" lon="11.914792298254008"><ele>1162.0</ele><time>2026-05-02T08:03:20Z</time></trkpt><trkpt lat="43.798069741229476" lon="11.914846325251085"><ele>1166.0</ele><time>2026-05-02T08:03:21Z</time></trkpt><trkpt lat="43.79801742233862" lon="11.914919009144096"><ele>1170.0</ele><time>2026-05-02T08:03:22Z</time></trkpt><trkpt lat="43.797953319567796" lon="11.914991900838288"><ele>1170.0</ele><time>2026-05-02T08:03:23Z</time></trkpt><trkpt lat="43.797901759104256" lon="11.915068860874955"><ele>1170.0</ele><time>2026-05-02T08:03:24Z</time></trkpt><trkpt lat="43.79784794881335" lon="11.91514025502246"><ele>1170.0</ele><time>2026-05-02T08:03:25Z</time></trkpt><trkpt lat="43.79779406420078" lon="11.915190296343821"><ele>1170.0</ele><time>2026-05-02T08:03:26Z</time></trkpt><trkpt lat="43.79766376035594" lon="11.91521982551779"><ele>1170.0</ele><time>2026-05-02T08:03:28Z</time></trkpt><trkpt lat="43.7975399479338" lon="11.915144708504222"><ele>1170.6666666666667</ele><time>2026-05-02T08:03:30Z</time></trkpt><trkpt lat="43.7975082671724" lon="11.91505732076099"><ele>1171.3333333333333</ele><time>2026-05-02T08:03:31Z</time></trkpt><trkpt lat="43.79745192998384" lon="11.914932775232622"><ele>1172.0</ele><time>2026-05-02T08:03:33Z</time></trkpt><trkpt lat="43.79738635536734" lon="11.914891351491772"><ele>1172.6666666666665</ele><time>2026-05-02T08:03:36Z</time></trkpt><trkpt lat="43.79740603416578" lon="11.914983382370817"><ele>1173.3333333333333</ele><time>2026-05-02T08:08:23Z</time></trkpt><trkpt lat="43.79738023250788" lon="11.915107719981416"><ele>1174.0</ele><time>2026-05-02T08:08:25Z</time></trkpt><trkpt lat="43.797330516249154" lon="11.915166214074215"><ele>1172.1666666666665</ele><time>2026-05-02T08:08:38Z</time></trkpt><trkpt lat="43.797315391259765" lon="11.915259868814648"><ele>1170.3333333333333</ele><time>2026-05-02T08:08:40Z</time></trkpt><trkpt lat="43.7973147692402" lon="11.915364843939582"><ele>1168.5</ele><time>2026-05-02T08:08:42Z</time></trkpt><trkpt lat="43.7972774999531" lon="11.915463216142852"><ele>1166.6666666666667</ele><time>2026-05-02T08:08:44Z</time></trkpt><trkpt lat="43.79726757554584" lon="11.915552285317453"><ele>1164.8333333333335</ele><time>2026-05-02T08:08:46Z</time></trkpt><trkpt lat="43.79724507009963" lon="11.915665161882814"><ele>1163.0</ele><time>2026-05-02T08:08:49Z</time></trkpt><trkpt lat="43.79715566046534" lon="11.915759779538055"><ele>1163.0</ele><time>2026-05-02T08:08:52Z</time></trkpt><trkpt lat="43.79707202431504" lon="11.915855900855519"><ele>1163.0</ele><time>2026-05-02T08:08:54Z</time></trkpt><trkpt lat="43.797006880511915" lon="11.915971670957013"><ele>1163.0</ele><time>2026-05-02T08:08:56Z</time></trkpt><trkpt lat="43.79696795542273" lon="11.916076203175795"><ele>1163.0</ele><time>2026-05-02T08:08:58Z</time></trkpt><trkpt lat="43.79691675509918" lon="11.916150885301919"><ele>1163.0</ele><time>2026-05-02T08:09:00Z</time></trkpt><trkpt lat="43.796839152446275" lon="11.916195285009687"><ele>1168.8</ele><time>2026-05-02T08:09:02Z</time></trkpt><trkpt lat="43.796746963352085" lon="11.91620414329331"><ele>1174.6</ele><time>2026-05-02T08:09:04Z</time></trkpt><trkpt lat="43.79665173850414" lon="11.916244090485757"><ele>1180.4</ele><time>2026-05-02T08:09:06Z</time></trkpt><trkpt lat="43.79656923821031" lon="11.9162906615405"><ele>1186.2</ele><time>2026-05-02T08:09:07Z</time></trkpt><trkpt lat="43.796485797447666" lon="11.916332983971856"><ele>1192.0</ele><time>2026-05-02T08:09:08Z</time></trkpt><trkpt lat="43.7963850557285" lon="11.916349616649873"><ele>1192.0</ele><time>2026-05-02T08:09:10Z</time></trkpt><trkpt lat="43.79630529548443" lon="11.916360550639785"><ele>1192.0</ele><time>2026-05-02T08:09:11Z</time></trkpt><trkpt lat="43.79623517486389" lon="11.916377278905001"><ele>1192.0</ele><time>2026-05-02T08:09:12Z</time></trkpt><trkpt lat="43.796134928962836" lon="11.916406124119902"><ele>1192.0</ele><time>2026-05-02T08:09:14Z</time></trkpt><trkpt lat="43.79605627419222" lon="11.916497683826222"><ele>1192.0</ele><time>2026-05-02T08:09:18Z</time></trkpt><trkpt lat="43.796018689530285" lon="11.916592750667695"><ele>1192.0</ele><time>2026-05-02T08:09:21Z</time></trkpt><trkpt lat="43.79607168611932" lon="11.916735755530977"><ele>1193.4</ele><time>2026-05-02T08:09:23Z</time></trkpt><trkpt lat="43.79606102820235" lon="11.91685999931523"><ele>1194.8000000000002</ele><time>2026-05-02T08:09:24Z</time></trkpt><trkpt lat="43.79597667884629" lon="11.916962704581266"><ele>1196.2</ele><time>2026-05-02T08:09:25Z</time></trkpt><trkpt lat="43.79591429100107" lon="11.917040847595334"><ele>1197.6000000000001</ele><time>2026-05-02T08:09:26Z</time></trkpt><trkpt lat="43.79586609880945" lon="11.917122914885999"><ele>1199.0</ele><time>2026-05-02T08:09:27Z</time></trkpt><trkpt lat="43.795811754658985" lon="11.917281483374717"><ele>1199.0</ele><time>2026-05-02T08:09:29Z</time></trkpt><trkpt lat="43.79576918015414" lon="11.917352774256962"><ele>1199.0</ele><time>2026-05-02T08:09:30Z</time></trkpt><trkpt lat="43.79571702284001" lon="11.917434861686571"><ele>1199.0</ele><time>2026-05-02T08:09:32Z</time></trkpt><trkpt lat="43.7956574099772" lon="11.917516391822144"><ele>1199.0</ele><time>2026-05-02T08:09:46Z</time></trkpt><trkpt lat="43.79558961451932" lon="11.917563494556077"><ele>1199.0</ele><time>2026-05-02T08:10:27Z</time></trkpt><trkpt lat="43.79553193253552" lon="11.917603479597577"><ele>1199.0</ele><time>2026-05-02T08:10:29Z</time></trkpt><trkpt lat="43.79547672173083" lon="11.917709098808464"><ele>1195.4</ele><time>2026-05-02T08:10:31Z</time></trkpt><trkpt lat="43.79545153173053" lon="11.917789475035027"><ele>1191.8000000000002</ele><time>2026-05-02T08:10:32Z</time></trkpt><trkpt lat="43.795412074225496" lon="11.917907164406438"><ele>1188.1999999999998</ele><time>2026-05-02T08:10:34Z</time></trkpt><trkpt lat="43.795348301861964" lon="11.917958721501709"><ele>1184.6</ele><time>2026-05-02T08:10:36Z</time></trkpt><trkpt lat="43.795232344947074" lon="11.91794191363869"><ele>1181.0</ele><time>2026-05-02T08:10:38Z</time></trkpt><trkpt lat="43.795108249978135" lon="11.917917909911992"><ele>1181.0</ele><time>2026-05-02T08:10:40Z</time></trkpt><trkpt lat="43.7949850291623" lon="11.917929849627242"><ele>1181.0</ele><time>2026-05-02T08:10:42Z</time></trkpt><trkpt lat="43.794902499010874" lon="11.917969157208129"><ele>1181.0</ele><time>2026-05-02T08:10:43Z</time></trkpt><trkpt lat="43.79482966241394" lon="11.91799848245966"><ele>1181.0</ele><time>2026-05-02T08:10:44Z</time></trkpt><trkpt lat="43.79475997936999" lon="11.91804170251745"><ele>1181.0</ele><time>2026-05-02T08:10:45Z</time></trkpt><trkpt lat="43.79469820887944" lon="11.918081064938658"><ele>1181.0</ele><time>2026-05-02T08:10:46Z</time></trkpt><trkpt lat="43.79464357978604" lon="11.918130618202948"><ele>1181.0</ele><time>2026-05-02T08:10:47Z</time></trkpt><trkpt lat="43.7945801257023" lon="11.91820539019759"><ele>1181.0</ele><time>2026-05-02T08:10:48Z</time></trkpt><trkpt lat="43.79452282616517" lon="11.918290654226462"><ele>1181.0</ele><time>2026-05-02T08:10:49Z</time></trkpt><trkpt lat="43.7944680158092" lon="11.918351420375501"><ele>1181.0</ele><time>2026-05-02T08:10:50Z</time></trkpt><trkpt lat="43.794390845183436" lon="11.918491857641525"><ele>1181.0</ele><time>2026-05-02T08:10:52Z</time></trkpt><trkpt lat="43.79433517106619" lon="11.91857958194171"><ele>1181.0</ele><time>2026-05-02T08:10:53Z</time></trkpt><trkpt lat="43.79428197352671" lon="11.918640473931369"><ele>1182.0</ele><time>2026-05-02T08:10:54Z</time></trkpt><trkpt lat="43.7942669494176" lon="11.91874420206308"><ele>1183.0</ele><time>2026-05-02T08:10:56Z</time></trkpt><trkpt lat="43.79423712914479" lon="11.91882731367453"><ele>1184.0</ele><time>2026-05-02T08:10:59Z</time></trkpt><trkpt lat="43.794201630572694" lon="11.918951322682105"><ele>1185.0</ele><time>2026-05-02T08:11:05Z</time></trkpt><trkpt lat="43.79417860221312" lon="11.919079870162868"><ele>1186.0</ele><time>2026-05-02T08:11:07Z</time></trkpt><trkpt lat="43.79415162589537" lon="11.919167039134344"><ele>1187.0</ele><time>2026-05-02T08:11:08Z</time></trkpt><trkpt lat="43.79411295983165" lon="11.919304758551323"><ele>1187.0</ele><time>2026-05-02T08:11:10Z</time></trkpt><trkpt lat="43.79410510238554" lon="11.919438441568984"><ele>1187.0</ele><time>2026-05-02T08:11:13Z</time></trkpt><trkpt lat="43.794095371138894" lon="11.919526305661705"><ele>1187.0</ele><time>2026-05-02T08:11:16Z</time></trkpt><trkpt lat="43.7940808680143" lon="11.919620076063172"><ele>1187.0</ele><time>2026-05-02T08:11:22Z</time></trkpt><trkpt lat="43.79409952161983" lon="11.919767558415483"><ele>1187.0</ele><time>2026-05-02T08:11:25Z</time></trkpt><trkpt lat="43.794099481483684" lon="11.920014074802495"><ele>1187.0</ele><time>2026-05-02T08:11:26Z</time></trkpt><trkpt lat="43.79410940431776" lon="11.920116685035739"><ele>1187.0</ele><time>2026-05-02T08:11:27Z</time></trkpt><trkpt lat="43.79412590202419" lon="11.920218697201927"><ele>1187.0</ele><time>2026-05-02T08:11:28Z</time></trkpt><trkpt lat="43.794127021981154" lon="11.920319589044079"><ele>1187.0</ele><time>2026-05-02T08:11:29Z</time></trkpt><trkpt lat="43.79415376873477" lon="11.920433892848493"><ele>1187.0</ele><time>2026-05-02T08:11:31Z</time></trkpt><trkpt lat="43.79414843447783" lon="11.920590515478223"><ele>1187.0</ele><time>2026-05-02T08:11:33Z</time></trkpt><trkpt lat="43.794134910816304" lon="11.92074268139202"><ele>1187.0</ele><time>2026-05-02T08:11:35Z</time></trkpt><trkpt lat="43.794140769186185" lon="11.920830189835735"><ele>1187.0</ele><time>2026-05-02T08:11:36Z</time></trkpt><trkpt lat="43.794124195101816" lon="11.921010821609224"><ele>1187.0</ele><time>2026-05-02T08:11:38Z</time></trkpt><trkpt lat="43.79414845636123" lon="11.921093239144776"><ele>1187.0</ele><time>2026-05-02T08:11:39Z</time></trkpt><trkpt lat="43.79414747281391" lon="11.921242585249605"><ele>1187.0</ele><time>2026-05-02T08:11:41Z</time></trkpt><trkpt lat="43.794167804628046" lon="11.921363732384936"><ele>1184.6</ele><time>2026-05-02T08:11:44Z</time></trkpt><trkpt lat="43.79413868949258" lon="11.92152595635172"><ele>1182.2</ele><time>2026-05-02T08:11:46Z</time></trkpt><trkpt lat="43.79416354938315" lon="11.921686289268383"><ele>1179.8</ele><time>2026-05-02T08:11:49Z</time></trkpt><trkpt lat="43.794208094706555" lon="11.921761399500094"><ele>1177.4</ele><time>2026-05-02T08:11:51Z</time></trkpt><trkpt lat="43.79423810359432" lon="11.92184462360647"><ele>1175.0</ele><time>2026-05-02T08:12:02Z</time></trkpt><trkpt lat="43.79427552777646" lon="11.921938420661428"><ele>1174.3333333333335</ele><time>2026-05-02T08:12:04Z</time></trkpt><trkpt lat="43.79430082748298" lon="11.92210923725308"><ele>1173.6666666666667</ele><time>2026-05-02T08:12:06Z</time></trkpt><trkpt lat="43.79429050875791" lon="11.92220432427576"><ele>1173.0</ele><time>2026-05-02T08:12:07Z</time></trkpt><trkpt lat="43.794279890190204" lon="11.922320195322026"><ele>1172.3333333333333</ele><time>2026-05-02T08:12:08Z</time></trkpt><trkpt lat="43.79425537172847" lon="11.922417346528853"><ele>1171.6666666666665</ele><time>2026-05-02T08:12:09Z</time></trkpt><trkpt lat="43.794243529081584" lon="11.922522776340525"><ele>1171.0</ele><time>2026-05-02T08:12:10Z</time></trkpt><trkpt lat="43.79422200654881" lon="11.922636860032762"><ele>1170.2</ele><time>2026-05-02T08:12:11Z</time></trkpt><trkpt lat="43.79418895281742" lon="11.92272283173461"><ele>1169.3999999999999</ele><time>2026-05-02T08:12:13Z</time></trkpt><trkpt lat="43.79417986488283" lon="11.922858684025675"><ele>1168.6</ele><time>2026-05-02T08:12:15Z</time></trkpt><trkpt lat="43.794149553934794" lon="11.923031502540718"><ele>1167.8</ele><time>2026-05-02T08:12:17Z</time></trkpt><trkpt lat="43.79409746663072" lon="11.92314088578839"><ele>1167.0</ele><time>2026-05-02T08:12:18Z</time></trkpt><trkpt lat="43.7940487130542" lon="11.923220894447846"><ele>1167.0</ele><time>2026-05-02T08:12:19Z</time></trkpt><trkpt lat="43.794002251356964" lon="11.923302463783095"><ele>1167.0</ele><time>2026-05-02T08:12:20Z</time></trkpt><trkpt lat="43.79399150076902" lon="11.923402292448763"><ele>1167.0</ele><time>2026-05-02T08:12:21Z</time></trkpt><trkpt lat="43.79399276915266" lon="11.923508002829893"><ele>1167.0</ele><time>2026-05-02T08:12:22Z</time></trkpt><trkpt lat="43.79400941310348" lon="11.92362017963366"><ele>1167.0</ele><time>2026-05-02T08:12:23Z</time></trkpt><trkpt lat="43.79402480086991" lon="11.923734442436986"><ele>1167.0</ele><time>2026-05-02T08:12:24Z</time></trkpt><trkpt lat="43.79401290469696" lon="11.92387176057007"><ele>1166.0</ele><time>2026-05-02T08:12:25Z</time></trkpt><trkpt lat="43.79400042940598" lon="11.923970589324007"><ele>1165.0</ele><time>2026-05-02T08:12:26Z</time></trkpt><trkpt lat="43.793989136642665" lon="11.924081735504942"><ele>1164.0</ele><time>2026-05-02T08:12:27Z</time></trkpt><trkpt lat="43.793986910067765" lon="11.9241886950897"><ele>1163.0</ele><time>2026-05-02T08:12:28Z</time></trkpt><trkpt lat="43.79397936304733" lon="11.924288633484549"><ele>1162.0</ele><time>2026-05-02T08:12:29Z</time></trkpt><trkpt lat="43.79396667876232" lon="11.924385123947864"><ele>1161.0</ele><time>2026-05-02T08:12:30Z</time></trkpt><trkpt lat="43.793894753889184" lon="11.924538530259937"><ele>1160.6</ele><time>2026-05-02T08:12:32Z</time></trkpt><trkpt lat="43.79384274676463" lon="11.924636641469354"><ele>1160.1999999999998</ele><time>2026-05-02T08:12:34Z</time></trkpt><trkpt lat="43.793812802900945" lon="11.92471994774973"><ele>1159.8000000000002</ele><time>2026-05-02T08:12:35Z</time></trkpt><trkpt lat="43.79373661870881" lon="11.924776787578628"><ele>1159.4</ele><time>2026-05-02T08:12:36Z</time></trkpt><trkpt lat="43.793633663955674" lon="11.924826431847896"><ele>1159.0</ele><time>2026-05-02T08:12:37Z</time></trkpt><trkpt lat="43.79353345573749" lon="11.924876694656076"><ele>1161.2</ele><time>2026-05-02T08:12:38Z</time></trkpt><trkpt lat="43.793436806748666" lon="11.924924475959791"><ele>1163.4</ele><time>2026-05-02T08:12:39Z</time></trkpt><trkpt lat="43.79332046857255" lon="11.925027824502422"><ele>1165.6</ele><time>2026-05-02T08:12:40Z</time></trkpt><trkpt lat="43.79321465087909" lon="11.925090021337244"><ele>1167.8</ele><time>2026-05-02T08:12:41Z</time></trkpt><trkpt lat="43.793139994879276" lon="11.925098726398133"><ele>1170.0</ele><time>2026-05-02T08:12:42Z</time></trkpt><trkpt lat="43.79307941151305" lon="11.925140728236077"><ele>1172.6</ele><time>2026-05-02T08:12:43Z</time></trkpt><trkpt lat="43.793040170858994" lon="11.92524335383417"><ele>1175.2</ele><time>2026-05-02T08:12:44Z</time></trkpt><trkpt lat="43.792978436534376" lon="11.925362984799394"><ele>1177.8</ele><time>2026-05-02T08:12:45Z</time></trkpt><trkpt lat="43.79287854014289" lon="11.925475897255689"><ele>1180.4</ele><time>2026-05-02T08:12:46Z</time></trkpt><trkpt lat="43.792815558839735" lon="11.92555527594947"><ele>1183.0</ele><time>2026-05-02T08:12:47Z</time></trkpt><trkpt lat="43.792744422940444" lon="11.925641496143982"><ele>1183.0</ele><time>2026-05-02T08:12:48Z</time></trkpt><trkpt lat="43.79268525065057" lon="11.925708827292409"><ele>1183.0</ele><time>2026-05-02T08:12:49Z</time></trkpt><trkpt lat="43.79263232880274" lon="11.92576567232643"><ele>1183.0</ele><time>2026-05-02T08:12:50Z</time></trkpt><trkpt lat="43.792590536039604" lon="11.925871193136272"><ele>1183.0</ele><time>2026-05-02T08:12:52Z</time></trkpt><trkpt lat="43.79262190688304" lon="11.925954548066224"><ele>1183.0</ele><time>2026-05-02T08:12:54Z</time></trkpt><trkpt lat="43.79266995513905" lon="11.926029004364093"><ele>1183.0</ele><time>2026-05-02T08:12:55Z</time></trkpt><trkpt lat="43.79273596102812" lon="11.926124384031239"><ele>1179.0</ele><time>2026-05-02T08:12:56Z</time></trkpt><trkpt lat="43.79281830225746" lon="11.926221187757172"><ele>1175.0</ele><time>2026-05-02T08:12:58Z</time></trkpt><trkpt lat="43.79284578741265" lon="11.926332554347844"><ele>1171.0</ele><time>2026-05-02T08:13:00Z</time></trkpt><trkpt lat="43.79290468385145" lon="11.926403885287245"><ele>1167.0</ele><time>2026-05-02T08:13:03Z</time></trkpt><trkpt lat="43.79298223975617" lon="11.926415725550399"><ele>1163.0</ele><time>2026-05-02T08:13:06Z</time></trkpt><trkpt lat="43.79308460696506" lon="11.926459290361729"><ele>1163.0</ele><time>2026-05-02T08:13:08Z</time></trkpt><trkpt lat="43.79319180762604" lon="11.926546574569969"><ele>1163.0</ele><time>2026-05-02T08:13:10Z</time></trkpt><trkpt lat="43.79329395955633" lon="11.926600575490374"><ele>1163.0</ele><time>2026-05-02T08:13:12Z</time></trkpt><trkpt lat="43.793372470774706" lon="11.92671729718636"><ele>1163.0</ele><time>2026-05-02T08:13:14Z</time></trkpt><trkpt lat="43.79340723040113" lon="11.92683991466132"><ele>1163.0</ele><time>2026-05-02T08:13:16Z</time></trkpt><trkpt lat="43.79344411172121" lon="11.92693973956122"><ele>1162.2</ele><time>2026-05-02T08:13:19Z</time></trkpt><trkpt lat="43.793498104941314" lon="11.927040614641394"><ele>1161.4</ele><time>2026-05-02T08:13:22Z</time></trkpt><trkpt lat="43.79352904965594" lon="11.927123792358815"><ele>1160.6000000000001</ele><time>2026-05-02T08:13:24Z</time></trkpt><trkpt lat="43.793572885941614" lon="11.927318609461791"><ele>1159.8</ele><time>2026-05-02T08:13:26Z</time></trkpt><trkpt lat="43.79355361260181" lon="11.927514028605295"><ele>1159.0</ele><time>2026-05-02T08:13:27Z</time></trkpt><trkpt lat="43.79361026415156" lon="11.927702042285963"><ele>1157.6666666666665</ele><time>2026-05-02T08:13:28Z</time></trkpt><trkpt lat="43.79361326226696" lon="11.92784473265382"><ele>1156.3333333333333</ele><time>2026-05-02T08:13:29Z</time></trkpt><trkpt lat="43.79361745093747" lon="11.927971349602725"><ele>1155.0</ele><time>2026-05-02T08:13:30Z</time></trkpt><trkpt lat="43.79364439293918" lon="11.928056161936786"><ele>1153.6666666666667</ele><time>2026-05-02T08:13:31Z</time></trkpt><trkpt lat="43.79367830786794" lon="11.928135932754508"><ele>1152.3333333333335</ele><time>2026-05-02T08:13:32Z</time></trkpt><trkpt lat="43.79374768860276" lon="11.928248575506473"><ele>1151.0</ele><time>2026-05-02T08:13:33Z</time></trkpt><trkpt lat="43.793811009317096" lon="11.928359175022909"><ele>1150.3999999999999</ele><time>2026-05-02T08:13:34Z</time></trkpt><trkpt lat="43.79387251900247" lon="11.928422479584587"><ele>1149.8</ele><time>2026-05-02T08:13:35Z</time></trkpt><trkpt lat="43.79393063356829" lon="11.92847475367675"><ele>1149.1999999999998</ele><time>2026-05-02T08:13:36Z</time></trkpt><trkpt lat="43.794003266310455" lon="11.928602407680705"><ele>1148.6</ele><time>2026-05-02T08:13:38Z</time></trkpt><trkpt lat="43.79399855963001" lon="11.928793629146465"><ele>1148.0</ele><time>2026-05-02T08:13:40Z</time></trkpt><trkpt lat="43.79399889784095" lon="11.92888565073767"><ele>1148.0</ele><time>2026-05-02T08:13:41Z</time></trkpt><trkpt lat="43.79399308626378" lon="11.928981020203981"><ele>1148.0</ele><time>2026-05-02T08:13:42Z</time></trkpt><trkpt lat="43.79396535739183" lon="11.929140157910187"><ele>1148.0</ele><time>2026-05-02T08:13:44Z</time></trkpt><trkpt lat="43.79391574111853" lon="11.929216397645106"><ele>1148.0</ele><time>2026-05-02T08:13:45Z</time></trkpt><trkpt lat="43.79385353425709" lon="11.92929172011384"><ele>1148.0</ele><time>2026-05-02T08:13:46Z</time></trkpt><trkpt lat="43.79380154422993" lon="11.92938412427683"><ele>1148.0</ele><time>2026-05-02T08:13:47Z</time></trkpt><trkpt lat="43.793767737022414" lon="11.929464297883126"><ele>1146.6666666666667</ele><time>2026-05-02T08:13:48Z</time></trkpt><trkpt lat="43.793737779208975" lon="11.92955350703732"><ele>1145.3333333333335</ele><time>2026-05-02T08:13:49Z</time></trkpt><trkpt lat="43.79372518065548" lon="11.929647243166643"><ele>1144.0</ele><time>2026-05-02T08:13:51Z</time></trkpt><trkpt lat="43.7936752632196" lon="11.92975086621695"><ele>1142.6666666666667</ele><time>2026-05-02T08:13:54Z</time></trkpt><trkpt lat="43.793631436538625" lon="11.92984485520645"><ele>1141.3333333333333</ele><time>2026-05-02T08:13:56Z</time></trkpt><trkpt lat="43.79360607251051" lon="11.929939177362472"><ele>1140.0</ele><time>2026-05-02T08:14:00Z</time></trkpt><trkpt lat="43.793616049354014" lon="11.930054053784398"><ele>1140.7142857142858</ele><time>2026-05-02T08:15:47Z</time></trkpt><trkpt lat="43.79362169445903" lon="11.930144107949578"><ele>1141.4285714285716</ele><time>2026-05-02T08:15:51Z</time></trkpt><trkpt lat="43.79357392135723" lon="11.930238369400968"><ele>1142.1428571428573</ele><time>2026-05-02T08:16:00Z</time></trkpt><trkpt lat="43.79352303965897" lon="11.930310237062628"><ele>1142.857142857143</ele><time>2026-05-02T08:16:04Z</time></trkpt><trkpt lat="43.793457252948635" lon="11.930326232382653"><ele>1143.5714285714287</ele><time>2026-05-02T08:16:07Z</time></trkpt><trkpt lat="43.79342041628944" lon="11.93039890075505"><ele>1144.2857142857144</ele><time>2026-05-02T08:16:14Z</time></trkpt><trkpt lat="43.79337613785145" lon="11.930461898415079"><ele>1145.0</ele><time>2026-05-02T08:16:19Z</time></trkpt><trkpt lat="43.793350938418655" lon="11.930554995955815"><ele>1149.0</ele><time>2026-05-02T08:16:22Z</time></trkpt><trkpt lat="43.793318869345455" lon="11.930630712346769"><ele>1153.0</ele><time>2026-05-02T08:16:23Z</time></trkpt><trkpt lat="43.79326404978423" lon="11.930705029011344"><ele>1157.0</ele><time>2026-05-02T08:16:25Z</time></trkpt><trkpt lat="43.79317954305996" lon="11.930855393216772"><ele>1161.0</ele><time>2026-05-02T08:16:27Z</time></trkpt><trkpt lat="43.793149419280944" lon="11.930952764192309"><ele>1165.0</ele><time>2026-05-02T08:16:28Z</time></trkpt><trkpt lat="43.79311403553994" lon="11.931132079926599"><ele>1166.2</ele><time>2026-05-02T08:16:30Z</time></trkpt><trkpt lat="43.79312827683957" lon="11.931240893352289"><ele>1167.4</ele><time>2026-05-02T08:16:31Z</time></trkpt><trkpt lat="43.79310347667018" lon="11.931326612320131"><ele>1168.6</ele><time>2026-05-02T08:16:32Z</time></trkpt><trkpt lat="43.7930808172239" lon="11.931416650875951"><ele>1169.8</ele><time>2026-05-02T08:16:33Z</time></trkpt><trkpt lat="43.79300853968901" lon="11.931605680021852"><ele>1171.0</ele><time>2026-05-02T08:16:35Z</time></trkpt><trkpt lat="43.79296891417758" lon="11.931722821489506"><ele>1168.2</ele><time>2026-05-02T08:16:36Z</time></trkpt><trkpt lat="43.7929536578878" lon="11.931841925995226"><ele>1165.3999999999999</ele><time>2026-05-02T08:16:37Z</time></trkpt><trkpt lat="43.792921633899475" lon="11.931969530495877"><ele>1162.6</ele><time>2026-05-02T08:16:38Z</time></trkpt><trkpt lat="43.79284531739916" lon="11.932115553854175"><ele>1159.8</ele><time>2026-05-02T08:16:40Z</time></trkpt><trkpt lat="43.79277624548378" lon="11.932211178022028"><ele>1157.0</ele><time>2026-05-02T08:16:41Z</time></trkpt><trkpt lat="43.79274532973162" lon="11.932287528902854"><ele>1157.0</ele><time>2026-05-02T08:16:42Z</time></trkpt><trkpt lat="43.792665091613266" lon="11.932430896663378"><ele>1157.0</ele><time>2026-05-02T08:16:44Z</time></trkpt><trkpt lat="43.792664240393485" lon="11.932542921022863"><ele>1157.0</ele><time>2026-05-02T08:16:45Z</time></trkpt><trkpt lat="43.792644833380486" lon="11.932644626887523"><ele>1157.0</ele><time>2026-05-02T08:16:46Z</time></trkpt><trkpt lat="43.79258039397037" lon="11.932753898383213"><ele>1157.0</ele><time>2026-05-02T08:16:47Z</time></trkpt><trkpt lat="43.79251086033586" lon="11.932823869867928"><ele>1157.0</ele><time>2026-05-02T08:16:48Z</time></trkpt><trkpt lat="43.79243430751027" lon="11.932868963216947"><ele>1157.0</ele><time>2026-05-02T08:16:49Z</time></trkpt><trkpt lat="43.792366293663655" lon="11.93291573155524"><ele>1157.0</ele><time>2026-05-02T08:16:50Z</time></trkpt><trkpt lat="43.79229092158483" lon="11.932979641108382"><ele>1157.0</ele><time>2026-05-02T08:16:52Z</time></trkpt><trkpt lat="43.79223028208531" lon="11.933121031718668"><ele>1157.0</ele><time>2026-05-02T08:16:54Z</time></trkpt><trkpt lat="43.792199187913745" lon="11.93320841843043"><ele>1157.0</ele><time>2026-05-02T08:16:55Z</time></trkpt><trkpt lat="43.792151016872786" lon="11.933333295194577"><ele>1155.4</ele><time>2026-05-02T08:16:57Z</time></trkpt><trkpt lat="43.79211720546006" lon="11.93347984716191"><ele>1153.8000000000002</ele><time>2026-05-02T08:16:59Z</time></trkpt><trkpt lat="43.79206418284533" lon="11.93356965435468"><ele>1152.2</ele><time>2026-05-02T08:17:00Z</time></trkpt><trkpt lat="43.79200703230874" lon="11.933677367664819"><ele>1150.6000000000001</ele><time>2026-05-02T08:17:01Z</time></trkpt><trkpt lat="43.79197007960109" lon="11.933789371698202"><ele>1149.0</ele><time>2026-05-02T08:17:02Z</time></trkpt><trkpt lat="43.79190563430319" lon="11.933907694091365"><ele>1149.0</ele><time>2026-05-02T08:17:03Z</time></trkpt><trkpt lat="43.79186257487657" lon="11.934013360382801"><ele>1149.0</ele><time>2026-05-02T08:17:04Z</time></trkpt><trkpt lat="43.79181841491368" lon="11.934120116658468"><ele>1149.0</ele><time>2026-05-02T08:17:05Z</time></trkpt><trkpt lat="43.791792615625894" lon="11.93425950272893"><ele>1149.0</ele><time>2026-05-02T08:17:08Z</time></trkpt><trkpt lat="43.79174230902197" lon="11.934359171052394"><ele>1149.0</ele><time>2026-05-02T08:17:10Z</time></trkpt><trkpt lat="43.791712946471556" lon="11.934499134147968"><ele>1154.6000000000001</ele><time>2026-05-02T08:17:13Z</time></trkpt><trkpt lat="43.79165649687917" lon="11.934621582064027"><ele>1160.2</ele><time>2026-05-02T08:17:15Z</time></trkpt><trkpt lat="43.791612687769266" lon="11.934695099151298"><ele>1165.8000000000002</ele><time>2026-05-02T08:17:20Z</time></trkpt><trkpt lat="43.791506499980656" lon="11.934793873985567"><ele>1171.4</ele><time>2026-05-02T08:17:22Z</time></trkpt><trkpt lat="43.791440993434506" lon="11.934864501198845"><ele>1177.0</ele><time>2026-05-02T08:17:23Z</time></trkpt><trkpt lat="43.79136385002891" lon="11.934912044174805"><ele>1177.0</ele><time>2026-05-02T08:17:24Z</time></trkpt><trkpt lat="43.79129810867107" lon="11.934955570271878"><ele>1177.0</ele><time>2026-05-02T08:17:25Z</time></trkpt><trkpt lat="43.791252152732746" lon="11.93502326792612"><ele>1177.0</ele><time>2026-05-02T08:17:26Z</time></trkpt><trkpt lat="43.79120546083633" lon="11.935082225767248"><ele>1177.0</ele><time>2026-05-02T08:17:27Z</time></trkpt><trkpt lat="43.791144473317075" lon="11.935124806923572"><ele>1177.0</ele><time>2026-05-02T08:17:28Z</time></trkpt><trkpt lat="43.791082431103845" lon="11.935234078657356"><ele>1177.0</ele><time>2026-05-02T08:17:30Z</time></trkpt><trkpt lat="43.791060749813134" lon="11.935428977040061"><ele>1175.6</ele><time>2026-05-02T08:17:32Z</time></trkpt><trkpt lat="43.791042831929616" lon="11.935561302356994"><ele>1174.2</ele><time>2026-05-02T08:17:33Z</time></trkpt><trkpt lat="43.79099138023524" lon="11.935680244986267"><ele>1172.8</ele><time>2026-05-02T08:17:34Z</time></trkpt><trkpt lat="43.79095250511944" lon="11.93577357169536"><ele>1171.4</ele><time>2026-05-02T08:17:35Z</time></trkpt><trkpt lat="43.7909212840849" lon="11.935858798296408"><ele>1170.0</ele><time>2026-05-02T08:17:36Z</time></trkpt><trkpt lat="43.790890184808006" lon="11.936031050726594"><ele>1169.2</ele><time>2026-05-02T08:17:38Z</time></trkpt><trkpt lat="43.79089525554065" lon="11.936161162966442"><ele>1168.4</ele><time>2026-05-02T08:17:39Z</time></trkpt><trkpt lat="43.7909040018583" lon="11.936313812935671"><ele>1167.6</ele><time>2026-05-02T08:17:40Z</time></trkpt><trkpt lat="43.79092765402212" lon="11.936467860445939"><ele>1166.8</ele><time>2026-05-02T08:17:41Z</time></trkpt><trkpt lat="43.790934216473204" lon="11.936635975092164"><ele>1166.0</ele><time>2026-05-02T08:17:42Z</time></trkpt><trkpt lat="43.79092564555588" lon="11.936792403236673"><ele>1166.0</ele><time>2026-05-02T08:17:43Z</time></trkpt><trkpt lat="43.79091289487581" lon="11.936921884156979"><ele>1166.0</ele><time>2026-05-02T08:17:44Z</time></trkpt><trkpt lat="43.790927552606625" lon="11.937058790713182"><ele>1166.0</ele><time>2026-05-02T08:17:45Z</time></trkpt><trkpt lat="43.790936040052586" lon="11.93719765797884"><ele>1166.0</ele><time>2026-05-02T08:17:46Z</time></trkpt><trkpt lat="43.79092382133622" lon="11.937342173406085"><ele>1166.0</ele><time>2026-05-02T08:17:47Z</time></trkpt><trkpt lat="43.79090982978252" lon="11.93747725194534"><ele>1167.0</ele><time>2026-05-02T08:17:48Z</time></trkpt><trkpt lat="43.79088930366078" lon="11.93761019527193"><ele>1168.0</ele><time>2026-05-02T08:17:49Z</time></trkpt><trkpt lat="43.79086717305254" lon="11.937764635350485"><ele>1169.0</ele><time>2026-05-02T08:17:50Z</time></trkpt><trkpt lat="43.790835401546516" lon="11.937923600799044"><ele>1170.0</ele><time>2026-05-02T08:17:51Z</time></trkpt><trkpt lat="43.790800906959426" lon="11.938077845552753"><ele>1171.0</ele><time>2026-05-02T08:17:52Z</time></trkpt><trkpt lat="43.790820914344515" lon="11.938216372831903"><ele>1171.0</ele><time>2026-05-02T08:17:53Z</time></trkpt><trkpt lat="43.790848717680596" lon="11.938347122677017"><ele>1171.0</ele><time>2026-05-02T08:17:54Z</time></trkpt><trkpt lat="43.79086727660943" lon="11.93846132212427"><ele>1171.0</ele><time>2026-05-02T08:17:55Z</time></trkpt><trkpt lat="43.790869467160256" lon="11.938657308747944"><ele>1171.0</ele><time>2026-05-02T08:17:57Z</time></trkpt><trkpt lat="43.79084710930368" lon="11.938759912723375"><ele>1171.0</ele><time>2026-05-02T08:17:58Z</time></trkpt><trkpt lat="43.79081385002859" lon="11.93886050735046"><ele>1171.0</ele><time>2026-05-02T08:17:59Z</time></trkpt><trkpt lat="43.790807026756454" lon="11.93895277991407"><ele>1171.0</ele><time>2026-05-02T08:18:00Z</time></trkpt><trkpt lat="43.790792152326745" lon="11.939118912544426"><ele>1171.0</ele><time>2026-05-02T08:18:02Z</time></trkpt><trkpt lat="43.79082318963526" lon="11.939207656112702"><ele>1171.0</ele><time>2026-05-02T08:18:03Z</time></trkpt><trkpt lat="43.79084122942281" lon="11.939306004470621"><ele>1171.0</ele><time>2026-05-02T08:18:04Z</time></trkpt><trkpt lat="43.79088881860947" lon="11.93936801957446"><ele>1171.0</ele><time>2026-05-02T08:18:05Z</time></trkpt><trkpt lat="43.790929148414016" lon="11.939501018344272"><ele>1169.6</ele><time>2026-05-02T08:18:07Z</time></trkpt><trkpt lat="43.79091696257423" lon="11.939649820888885"><ele>1168.1999999999998</ele><time>2026-05-02T08:18:09Z</time></trkpt><trkpt lat="43.790871879448815" lon="11.939726048318871"><ele>1166.8000000000002</ele><time>2026-05-02T08:18:10Z</time></trkpt><trkpt lat="43.790785445471" lon="11.939797778466778"><ele>1165.4</ele><time>2026-05-02T08:18:11Z</time></trkpt><trkpt lat="43.790728151080614" lon="11.939864080089388"><ele>1164.0</ele><time>2026-05-02T08:18:12Z</time></trkpt><trkpt lat="43.790656350659106" lon="11.939957605894294"><ele>1164.2</ele><time>2026-05-02T08:18:14Z</time></trkpt><trkpt lat="43.790571870275706" lon="11.940050191185785"><ele>1164.4</ele><time>2026-05-02T08:18:16Z</time></trkpt><trkpt lat="43.79050040745287" lon="11.940132837663477"><ele>1164.6</ele><time>2026-05-02T08:18:18Z</time></trkpt><trkpt lat="43.79043028376605" lon="11.94016677652075"><ele>1164.8</ele><time>2026-05-02T08:18:20Z</time></trkpt><trkpt lat="43.79035043087642" lon="11.940248105618029"><ele>1165.0</ele><time>2026-05-02T08:18:22Z</time></trkpt><trkpt lat="43.790271110610796" lon="11.94032121678738"><ele>1165.0</ele><time>2026-05-02T08:18:24Z</time></trkpt><trkpt lat="43.79020322273127" lon="11.940433896591053"><ele>1165.0</ele><time>2026-05-02T08:18:26Z</time></trkpt><trkpt lat="43.79014692842938" lon="11.940524520967276"><ele>1165.0</ele><time>2026-05-02T08:18:28Z</time></trkpt><trkpt lat="43.79009780543401" lon="11.940606983214595"><ele>1165.0</ele><time>2026-05-02T08:18:29Z</time></trkpt><trkpt lat="43.79004698451092" lon="11.940690727322322"><ele>1165.0</ele><time>2026-05-02T08:18:30Z</time></trkpt><trkpt lat="43.789958745321194" lon="11.940757603682362"><ele>1165.0</ele><time>2026-05-02T08:18:31Z</time></trkpt><trkpt lat="43.78983661580987" lon="11.940810340129266"><ele>1164.4</ele><time>2026-05-02T08:18:32Z</time></trkpt><trkpt lat="43.789728876558904" lon="11.940814616463802"><ele>1163.8</ele><time>2026-05-02T08:18:33Z</time></trkpt><trkpt lat="43.789637119581606" lon="11.940824839668885"><ele>1163.2</ele><time>2026-05-02T08:18:34Z</time></trkpt><trkpt lat="43.789555000208665" lon="11.94085359812156"><ele>1162.6</ele><time>2026-05-02T08:18:35Z</time></trkpt><trkpt lat="43.78947718357941" lon="11.940895704081703"><ele>1162.0</ele><time>2026-05-02T08:18:36Z</time></trkpt><trkpt lat="43.789374924161955" lon="11.940977856357769"><ele>1161.2</ele><time>2026-05-02T08:18:37Z</time></trkpt><trkpt lat="43.78928109887329" lon="11.941055866397056"><ele>1160.4</ele><time>2026-05-02T08:18:38Z</time></trkpt><trkpt lat="43.78922100171714" lon="11.94110574124705"><ele>1159.6</ele><time>2026-05-02T08:18:39Z</time></trkpt><trkpt lat="43.78909216845028" lon="11.941196209857639"><ele>1158.8</ele><time>2026-05-02T08:18:41Z</time></trkpt><trkpt lat="43.78902661095335" lon="11.941254832333152"><ele>1158.0</ele><time>2026-05-02T08:18:42Z</time></trkpt><trkpt lat="43.788919431371355" lon="11.941373986106804"><ele>1157.9999999999998</ele><time>2026-05-02T08:18:44Z</time></trkpt><trkpt lat="43.788884661463435" lon="11.94147419336517"><ele>1158.0</ele><time>2026-05-02T08:18:45Z</time></trkpt><trkpt lat="43.78886208055018" lon="11.941561727411827"><ele>1158.0</ele><time>2026-05-02T08:18:46Z</time></trkpt><trkpt lat="43.788833773859324" lon="11.941648947878706"><ele>1158.0</ele><time>2026-05-02T08:18:47Z</time></trkpt><trkpt lat="43.788781988011955" lon="11.941718656625504"><ele>1158.0</ele><time>2026-05-02T08:18:48Z</time></trkpt><trkpt lat="43.788714568908276" lon="11.941783192329813"><ele>1157.9999999999998</ele><time>2026-05-02T08:18:49Z</time></trkpt><trkpt lat="43.788663848413236" lon="11.94185118917729"><ele>1158.0</ele><time>2026-05-02T08:18:50Z</time></trkpt><trkpt lat="43.78862363388458" lon="11.94191880645594"><ele>1160.6</ele><time>2026-05-02T08:18:51Z</time></trkpt><trkpt lat="43.788569116939364" lon="11.94203772795516"><ele>1163.1999999999998</ele><time>2026-05-02T08:18:53Z</time></trkpt><trkpt lat="43.78851585174912" lon="11.942182151952197"><ele>1165.8</ele><time>2026-05-02T08:18:55Z</time></trkpt><trkpt lat="43.78848779490652" lon="11.942278155235433"><ele>1168.3999999999999</ele><time>2026-05-02T08:18:56Z</time></trkpt><trkpt lat="43.78846332684434" lon="11.942392323470175"><ele>1171.0</ele><time>2026-05-02T08:18:57Z</time></trkpt><trkpt lat="43.78845119688776" lon="11.942515546392297"><ele>1162.8</ele><time>2026-05-02T08:18:58Z</time></trkpt><trkpt lat="43.78841548411006" lon="11.942624748880187"><ele>1154.6</ele><time>2026-05-02T08:18:59Z</time></trkpt><trkpt lat="43.78836748683969" lon="11.942739163400399"><ele>1146.4</ele><time>2026-05-02T08:19:00Z</time></trkpt><trkpt lat="43.78832210034837" lon="11.942828914088443"><ele>1138.2</ele><time>2026-05-02T08:19:01Z</time></trkpt><trkpt lat="43.788247340831425" lon="11.942909014706752"><ele>1130.0</ele><time>2026-05-02T08:19:03Z</time></trkpt><trkpt lat="43.788199415432636" lon="11.943026606548884"><ele>1130.0</ele><time>2026-05-02T08:19:05Z</time></trkpt><trkpt lat="43.788218704350314" lon="11.94312193365706"><ele>1130.0</ele><time>2026-05-02T08:19:06Z</time></trkpt><trkpt lat="43.7882835770035" lon="11.943218466200067"><ele>1130.0</ele><time>2026-05-02T08:19:07Z</time></trkpt><trkpt lat="43.78830592242935" lon="11.94331730334833"><ele>1130.0</ele><time>2026-05-02T08:19:08Z</time></trkpt><trkpt lat="43.78833024366412" lon="11.943492207573376"><ele>1130.0</ele><time>2026-05-02T08:19:10Z</time></trkpt><trkpt lat="43.78830919699059" lon="11.94358700475581"><ele>1130.0</ele><time>2026-05-02T08:19:11Z</time></trkpt><trkpt lat="43.788270208883006" lon="11.943715316599153"><ele>1128.6</ele><time>2026-05-02T08:19:13Z</time></trkpt><trkpt lat="43.78827720046108" lon="11.943831991799357"><ele>1127.2</ele><time>2026-05-02T08:19:14Z</time></trkpt><trkpt lat="43.78831728652422" lon="11.943967082148264"><ele>1125.8</ele><time>2026-05-02T08:19:15Z</time></trkpt><trkpt lat="43.788338987190095" lon="11.94408166766134"><ele>1124.4</ele><time>2026-05-02T08:19:16Z</time></trkpt><trkpt lat="43.78836945374403" lon="11.94419782998568"><ele>1123.0</ele><time>2026-05-02T08:19:17Z</time></trkpt><trkpt lat="43.78843001645184" lon="11.94430202990733"><ele>1121.1666666666665</ele><time>2026-05-02T08:19:18Z</time></trkpt><trkpt lat="43.788461917191896" lon="11.944428635383817"><ele>1119.3333333333333</ele><time>2026-05-02T08:19:19Z</time></trkpt><trkpt lat="43.78849339561017" lon="11.944505153308693"><ele>1117.5</ele><time>2026-05-02T08:19:20Z</time></trkpt><trkpt lat="43.78858593687408" lon="11.94461662565818"><ele>1115.6666666666667</ele><time>2026-05-02T08:19:22Z</time></trkpt><trkpt lat="43.78865700638561" lon="11.94470267722368"><ele>1113.8333333333335</ele><time>2026-05-02T08:19:23Z</time></trkpt><trkpt lat="43.78870965161374" lon="11.94476510311427"><ele>1112.0</ele><time>2026-05-02T08:19:24Z</time></trkpt><trkpt lat="43.788728375509486" lon="11.944861477129091"><ele>1118.1666666666667</ele><time>2026-05-02T08:19:25Z</time></trkpt><trkpt lat="43.78870137737306" lon="11.945005981126481"><ele>1124.3333333333335</ele><time>2026-05-02T08:19:26Z</time></trkpt><trkpt lat="43.788662622702766" lon="11.945077334979974"><ele>1130.5</ele><time>2026-05-02T08:19:27Z</time></trkpt><trkpt lat="43.78861157782317" lon="11.945179169412247"><ele>1136.6666666666667</ele><time>2026-05-02T08:19:28Z</time></trkpt><trkpt lat="43.78857634529979" lon="11.94526843136285"><ele>1142.8333333333333</ele><time>2026-05-02T08:19:29Z</time></trkpt><trkpt lat="43.78856441684108" lon="11.945355483137487"><ele>1149.0</ele><time>2026-05-02T08:19:30Z</time></trkpt><trkpt lat="43.78854829094852" lon="11.945442047274568"><ele>1149.0</ele><time>2026-05-02T08:19:31Z</time></trkpt><trkpt lat="43.78852012674882" lon="11.945583568205828"><ele>1149.0</ele><time>2026-05-02T08:19:32Z</time></trkpt><trkpt lat="43.788511866837574" lon="11.945702689030826"><ele>1149.0</ele><time>2026-05-02T08:19:33Z</time></trkpt><trkpt lat="43.788491092847664" lon="11.945800265327495"><ele>1149.0</ele><time>2026-05-02T08:19:34Z</time></trkpt><trkpt lat="43.78843429456065" lon="11.945896270300182"><ele>1149.0</ele><time>2026-05-02T08:19:35Z</time></trkpt><trkpt lat="43.78838107147703" lon="11.945994879468026"><ele>1149.0</ele><time>2026-05-02T08:19:36Z</time></trkpt><trkpt lat="43.788312940060216" lon="11.94610654722477"><ele>1143.3333333333333</ele><time>2026-05-02T08:19:38Z</time></trkpt><trkpt lat="43.78828832396298" lon="11.946196556968388"><ele>1137.6666666666667</ele><time>2026-05-02T08:19:39Z</time></trkpt><trkpt lat="43.788265754843074" lon="11.946327946829168"><ele>1132.0</ele><time>2026-05-02T08:19:40Z</time></trkpt><trkpt lat="43.788251236025275" lon="11.946463312863289"><ele>1126.3333333333335</ele><time>2026-05-02T08:19:41Z</time></trkpt><trkpt lat="43.78821281238506" lon="11.946534724448517"><ele>1120.6666666666667</ele><time>2026-05-02T08:19:42Z</time></trkpt><trkpt lat="43.78813047382694" lon="11.946557136478129"><ele>1115.0</ele><time>2026-05-02T08:19:44Z</time></trkpt><trkpt lat="43.78810769856043" lon="11.946709241657613"><ele>1117.0</ele><time>2026-05-02T08:19:46Z</time></trkpt><trkpt lat="43.78807799995492" lon="11.946788586411083"><ele>1119.0</ele><time>2026-05-02T08:19:48Z</time></trkpt><trkpt lat="43.78793891480904" lon="11.946854375046225"><ele>1121.0</ele><time>2026-05-02T08:19:50Z</time></trkpt><trkpt lat="43.78784771140168" lon="11.946879565125395"><ele>1123.0</ele><time>2026-05-02T08:19:51Z</time></trkpt><trkpt lat="43.787768448378706" lon="11.946892764910809"><ele>1125.0</ele><time>2026-05-02T08:19:52Z</time></trkpt><trkpt lat="43.78768988968308" lon="11.946909191020806"><ele>1122.6666666666667</ele><time>2026-05-02T08:19:53Z</time></trkpt><trkpt lat="43.78760897428519" lon="11.94696332293403"><ele>1120.3333333333333</ele><time>2026-05-02T08:19:55Z</time></trkpt><trkpt lat="43.787553486734744" lon="11.947102066449233"><ele>1118.0</ele><time>2026-05-02T08:19:57Z</time></trkpt><trkpt lat="43.7875180163185" lon="11.94719293670166"><ele>1115.6666666666665</ele><time>2026-05-02T08:19:58Z</time></trkpt><trkpt lat="43.78746723044713" lon="11.947262100809272"><ele>1113.3333333333333</ele><time>2026-05-02T08:19:59Z</time></trkpt><trkpt lat="43.78741835764976" lon="11.947344008587953"><ele>1111.0</ele><time>2026-05-02T08:21:12Z</time></trkpt><trkpt lat="43.78738221909303" lon="11.947437880808476"><ele>1113.0</ele><time>2026-05-02T08:21:14Z</time></trkpt><trkpt lat="43.78735318547809" lon="11.947547948674345"><ele>1115.0</ele><time>2026-05-02T08:21:16Z</time></trkpt><trkpt lat="43.78730073262575" lon="11.947697365258085"><ele>1117.0</ele><time>2026-05-02T08:21:18Z</time></trkpt><trkpt lat="43.78722158903009" lon="11.947813808843382"><ele>1119.0</ele><time>2026-05-02T08:21:20Z</time></trkpt><trkpt lat="43.78716294375375" lon="11.947950938374104"><ele>1121.0</ele><time>2026-05-02T08:21:22Z</time></trkpt><trkpt lat="43.787123703190325" lon="11.94802683583703"><ele>1121.0</ele><time>2026-05-02T08:21:23Z</time></trkpt><trkpt lat="43.78707098183086" lon="11.948119758370872"><ele>1121.0</ele><time>2026-05-02T08:21:24Z</time></trkpt><trkpt lat="43.787018632200855" lon="11.948284856751961"><ele>1121.0</ele><time>2026-05-02T08:21:26Z</time></trkpt><trkpt lat="43.786983930930134" lon="11.94840885269046"><ele>1121.0</ele><time>2026-05-02T08:21:27Z</time></trkpt><trkpt lat="43.78694215958022" lon="11.948500461282267"><ele>1121.0</ele><time>2026-05-02T08:21:28Z</time></trkpt><trkpt lat="43.78691960000906" lon="11.948603515708294"><ele>1120.1666666666667</ele><time>2026-05-02T08:21:29Z</time></trkpt><trkpt lat="43.78688207177408" lon="11.94867669555375"><ele>1119.3333333333335</ele><time>2026-05-02T08:21:30Z</time></trkpt><trkpt lat="43.78684460990729" lon="11.9487494617052"><ele>1118.5</ele><time>2026-05-02T08:21:31Z</time></trkpt><trkpt lat="43.78677875216868" lon="11.948869377693004"><ele>1117.6666666666667</ele><time>2026-05-02T08:21:33Z</time></trkpt><trkpt lat="43.78674096190295" lon="11.948952707176375"><ele>1116.8333333333333</ele><time>2026-05-02T08:21:34Z</time></trkpt><trkpt lat="43.78668372161603" lon="11.949064537303855"><ele>1116.0</ele><time>2026-05-02T08:21:35Z</time></trkpt><trkpt lat="43.786624547899706" lon="11.94912791273008"><ele>1119.3999999999999</ele><time>2026-05-02T08:21:36Z</time></trkpt><trkpt lat="43.78656114077159" lon="11.94922179165124"><ele>1122.8</ele><time>2026-05-02T08:21:38Z</time></trkpt><trkpt lat="43.78649497612132" lon="11.949322533892648"><ele>1126.1999999999998</ele><time>2026-05-02T08:21:40Z</time></trkpt><trkpt lat="43.786456577686046" lon="11.94942310123981"><ele>1129.6</ele><time>2026-05-02T08:21:41Z</time></trkpt><trkpt lat="43.786441541991536" lon="11.949542137720059"><ele>1133.0</ele><time>2026-05-02T08:21:43Z</time></trkpt><trkpt lat="43.786322028202704" lon="11.949618224262103"><ele>1133.0</ele><time>2026-05-02T08:21:45Z</time></trkpt><trkpt lat="43.786250231569895" lon="11.949678956993"><ele>1133.0</ele><time>2026-05-02T08:21:46Z</time></trkpt><trkpt lat="43.78620198682286" lon="11.949770148020844"><ele>1133.0</ele><time>2026-05-02T08:21:47Z</time></trkpt><trkpt lat="43.78612813020775" lon="11.949833794297898"><ele>1133.0</ele><time>2026-05-02T08:21:48Z</time></trkpt><trkpt lat="43.7860647263867" lon="11.949883505698452"><ele>1133.0</ele><time>2026-05-02T08:21:49Z</time></trkpt><trkpt lat="43.78595803587221" lon="11.949947693289891"><ele>1133.0</ele><time>2026-05-02T08:21:51Z</time></trkpt><trkpt lat="43.78590018732385" lon="11.950019494956381"><ele>1134.2</ele><time>2026-05-02T08:21:52Z</time></trkpt><trkpt lat="43.78584463287095" lon="11.950117820416873"><ele>1135.4</ele><time>2026-05-02T08:21:53Z</time></trkpt><trkpt lat="43.7857824031179" lon="11.950210805820495"><ele>1136.6000000000001</ele><time>2026-05-02T08:21:54Z</time></trkpt><trkpt lat="43.78572725595215" lon="11.95029041745561"><ele>1137.8</ele><time>2026-05-02T08:21:55Z</time></trkpt><trkpt lat="43.78567233411601" lon="11.950357993157002"><ele>1139.0</ele><time>2026-05-02T08:21:56Z</time></trkpt><trkpt lat="43.785549045515374" lon="11.950415358871545"><ele>1139.0</ele><time>2026-05-02T08:21:58Z</time></trkpt><trkpt lat="43.785480922028405" lon="11.950452318156312"><ele>1139.0</ele><time>2026-05-02T08:21:59Z</time></trkpt><trkpt lat="43.78540868716941" lon="11.95052182985156"><ele>1139.0</ele><time>2026-05-02T08:22:00Z</time></trkpt><trkpt lat="43.78533501508108" lon="11.950601697643618"><ele>1139.0</ele><time>2026-05-02T08:22:01Z</time></trkpt><trkpt lat="43.78525885724639" lon="11.950653718911038"><ele>1139.0</ele><time>2026-05-02T08:22:02Z</time></trkpt><trkpt lat="43.78518795968394" lon="11.950700046708826"><ele>1139.0</ele><time>2026-05-02T08:22:03Z</time></trkpt><trkpt lat="43.78508116285263" lon="11.950721616913018"><ele>1136.6000000000001</ele><time>2026-05-02T08:22:05Z</time></trkpt><trkpt lat="43.78497676552408" lon="11.950738622530173"><ele>1134.2</ele><time>2026-05-02T08:22:07Z</time></trkpt><trkpt lat="43.7849037926863" lon="11.95082567418258"><ele>1131.8000000000002</ele><time>2026-05-02T08:22:09Z</time></trkpt><trkpt lat="43.78485485454221" lon="11.950888815378471"><ele>1129.4</ele><time>2026-05-02T08:22:10Z</time></trkpt><trkpt lat="43.784755270882705" lon="11.950943266449086"><ele>1127.0</ele><time>2026-05-02T08:22:12Z</time></trkpt><trkpt lat="43.78466670320589" lon="11.951027160257315"><ele>1128.0</ele><time>2026-05-02T08:22:14Z</time></trkpt><trkpt lat="43.784576873862534" lon="11.951078380073241"><ele>1129.0</ele><time>2026-05-02T08:22:16Z</time></trkpt><trkpt lat="43.78451840685108" lon="11.95117561866255"><ele>1130.0</ele><time>2026-05-02T08:22:20Z</time></trkpt><trkpt lat="43.78444668980207" lon="11.951245994727705"><ele>1131.0</ele><time>2026-05-02T08:22:22Z</time></trkpt><trkpt lat="43.78434689917799" lon="11.951276134483278"><ele>1132.0</ele><time>2026-05-02T08:23:08Z</time></trkpt><trkpt lat="43.78429970577687" lon="11.951368915799097"><ele>1132.0</ele><time>2026-05-02T08:24:03Z</time></trkpt><trkpt lat="43.78423947592136" lon="11.951424156065082"><ele>1132.0</ele><time>2026-05-02T08:24:09Z</time></trkpt><trkpt lat="43.78417157032804" lon="11.951513186913608"><ele>1132.0</ele><time>2026-05-02T08:24:12Z</time></trkpt><trkpt lat="43.78409813621883" lon="11.951629982434858"><ele>1132.0</ele><time>2026-05-02T08:24:14Z</time></trkpt><trkpt lat="43.78402108508506" lon="11.951657804435236"><ele>1132.0</ele><time>2026-05-02T08:24:31Z</time></trkpt><trkpt lat="43.78396586190093" lon="11.95158381139071"><ele>1132.0</ele><time>2026-05-02T08:24:34Z</time></trkpt><trkpt lat="43.783884387436075" lon="11.951550526069141"><ele>1132.0</ele><time>2026-05-02T08:24:36Z</time></trkpt><trkpt lat="43.78379849033426" lon="11.95157665060198"><ele>1132.0</ele><time>2026-05-02T08:24:39Z</time></trkpt><trkpt lat="43.78373677202229" lon="11.95160686582465"><ele>1132.0</ele><time>2026-05-02T08:24:41Z</time></trkpt><trkpt lat="43.78365828585034" lon="11.951594361130242"><ele>1132.0</ele><time>2026-05-02T08:24:43Z</time></trkpt><trkpt lat="43.78358271552708" lon="11.951577970837718"><ele>1132.0</ele><time>2026-05-02T08:24:45Z</time></trkpt><trkpt lat="43.783511494921086" lon="11.95152600970382"><ele>1132.0</ele><time>2026-05-02T08:24:48Z</time></trkpt><trkpt lat="43.78340889632919" lon="11.951544186386792"><ele>1131.0</ele><time>2026-05-02T08:24:51Z</time></trkpt><trkpt lat="43.78332965741406" lon="11.951523311615414"><ele>1130.0</ele><time>2026-05-02T08:25:10Z</time></trkpt><trkpt lat="43.78323950358525" lon="11.95153072088047"><ele>1129.0</ele><time>2026-05-02T08:25:22Z</time></trkpt><trkpt lat="43.78316028677541" lon="11.951527022720413"><ele>1128.0</ele><time>2026-05-02T08:25:24Z</time></trkpt><trkpt lat="43.783060093047524" lon="11.951511217218123"><ele>1127.0</ele><time>2026-05-02T08:25:26Z</time></trkpt><trkpt lat="43.78296870787013" lon="11.951501412602303"><ele>1126.0</ele><time>2026-05-02T08:25:28Z</time></trkpt><trkpt lat="43.782880633573015" lon="11.951455844902954"><ele>1126.0</ele><time>2026-05-02T08:25:31Z</time></trkpt><trkpt lat="43.78280645001638" lon="11.951431207998066"><ele>1126.0</ele><time>2026-05-02T08:25:32Z</time></trkpt><trkpt lat="43.7827084366589" lon="11.951402585254618"><ele>1126.0</ele><time>2026-05-02T08:25:34Z</time></trkpt><trkpt lat="43.78264127896973" lon="11.951366992768548"><ele>1126.0</ele><time>2026-05-02T08:26:22Z</time></trkpt><trkpt lat="43.78253829502981" lon="11.951372114385848"><ele>1126.0</ele><time>2026-05-02T08:29:40Z</time></trkpt><trkpt lat="43.78246613004359" lon="11.951349137639738"><ele>1126.0</ele><time>2026-05-02T08:29:42Z</time></trkpt><trkpt lat="43.78237966231309" lon="11.951307475318398"><ele>1129.6</ele><time>2026-05-02T08:31:09Z</time></trkpt><trkpt lat="43.782275059913104" lon="11.951252767771017"><ele>1133.1999999999998</ele><time>2026-05-02T08:31:11Z</time></trkpt><trkpt lat="43.7821719843573" lon="11.951255969291996"><ele>1136.8000000000002</ele><time>2026-05-02T08:31:13Z</time></trkpt><trkpt lat="43.78210485271729" lon="11.951270496159925"><ele>1140.4</ele><time>2026-05-02T08:31:14Z</time></trkpt><trkpt lat="43.78201377237376" lon="11.951207291940138"><ele>1144.0</ele><time>2026-05-02T08:31:16Z</time></trkpt><trkpt lat="43.78193956770129" lon="11.951183068872188"><ele>1143.9999999999998</ele><time>2026-05-02T08:31:19Z</time></trkpt><trkpt lat="43.7818527027221" lon="11.951170130625584"><ele>1144.0</ele><time>2026-05-02T08:31:32Z</time></trkpt><trkpt lat="43.78178206253524" lon="11.951206925459406"><ele>1144.0</ele><time>2026-05-02T08:35:36Z</time></trkpt><trkpt lat="43.78175286485899" lon="11.951299407569836"><ele>1144.0</ele><time>2026-05-02T08:35:46Z</time></trkpt><trkpt lat="43.78168773318007" lon="11.951276468369135"><ele>1144.0</ele><time>2026-05-02T08:35:53Z</time></trkpt><trkpt lat="43.7816140131835" lon="11.951276047515005"><ele>1143.9999999999998</ele><time>2026-05-02T08:35:59Z</time></trkpt><trkpt lat="43.78155112495361" lon="11.951266933228657"><ele>1144.0</ele><time>2026-05-02T08:36:07Z</time></trkpt><trkpt lat="43.78160656338054" lon="11.951189689982954"><ele>1147.8571428571427</ele><time>2026-05-02T08:36:17Z</time></trkpt><trkpt lat="43.781675972797835" lon="11.951224989396241"><ele>1151.7142857142858</ele><time>2026-05-02T08:36:21Z</time></trkpt><trkpt lat="43.78174667573875" lon="11.951159051730931"><ele>1155.5714285714284</ele><time>2026-05-02T08:36:26Z</time></trkpt><trkpt lat="43.78180785692165" lon="11.951136002718053"><ele>1159.4285714285713</ele><time>2026-05-02T08:36:34Z</time></trkpt><trkpt lat="43.781777504981115" lon="11.951213152977905"><ele>1163.2857142857142</ele><time>2026-05-02T08:36:46Z</time></trkpt><trkpt lat="43.781716840263265" lon="11.951281360603085"><ele>1167.142857142857</ele><time>2026-05-02T08:36:55Z</time></trkpt><trkpt lat="43.781644527325405" lon="11.951258176902805"><ele>1171.0</ele><time>2026-05-02T08:37:03Z</time></trkpt><trkpt lat="43.781580019284135" lon="11.95126926052197"><ele>1171.0</ele><time>2026-05-02T08:37:10Z</time></trkpt><trkpt lat="43.78151300267478" lon="11.951274132193005"><ele>1171.0</ele><time>2026-05-02T08:37:19Z</time></trkpt><trkpt lat="43.78144429330047" lon="11.951299150381672"><ele>1171.0</ele><time>2026-05-02T08:37:31Z</time></trkpt><trkpt lat="43.78136929051863" lon="11.951313391465437"><ele>1171.0</ele><time>2026-05-02T08:39:11Z</time></trkpt><trkpt lat="43.78128128632879" lon="11.95130141658846"><ele>1171.0</ele><time>2026-05-02T08:39:14Z</time></trkpt><trkpt lat="43.78120016246395" lon="11.951248433775913"><ele>1171.0</ele><time>2026-05-02T08:39:51Z</time></trkpt><trkpt lat="43.78115069784116" lon="11.951304517529984"><ele>1171.0</ele><time>2026-05-02T08:41:01Z</time></trkpt><trkpt lat="43.78109050963413" lon="11.951267785083605"><ele>1171.0</ele><time>2026-05-02T08:43:17Z</time></trkpt><trkpt lat="43.781017733576306" lon="11.951237182741256"><ele>1171.0</ele><time>2026-05-02T08:44:11Z</time></trkpt><trkpt lat="43.7809909253108" lon="11.95110357440152"><ele>1171.0</ele><time>2026-05-02T08:46:02Z</time></trkpt><trkpt lat="43.780994726730974" lon="11.95119582486753"><ele>1171.0</ele><time>2026-05-02T08:46:59Z</time></trkpt><trkpt lat="43.78093297349873" lon="11.951217556777205"><ele>1171.0</ele><time>2026-05-02T08:47:04Z</time></trkpt><trkpt lat="43.78087458983738" lon="11.951260498512074"><ele>1171.0</ele><time>2026-05-02T08:47:13Z</time></trkpt><trkpt lat="43.78081983598796" lon="11.951211186272591"><ele>1174.0</ele><time>2026-05-02T08:47:25Z</time></trkpt><trkpt lat="43.78076385155229" lon="11.951163986668151"><ele>1177.0</ele><time>2026-05-02T08:47:36Z</time></trkpt><trkpt lat="43.78069455032574" lon="11.951134324561684"><ele>1180.0</ele><time>2026-05-02T08:47:52Z</time></trkpt><trkpt lat="43.78063645779761" lon="11.951068980269724"><ele>1183.0</ele><time>2026-05-02T08:48:06Z</time></trkpt><trkpt lat="43.78059419488212" lon="11.951000532187857"><ele>1186.0</ele><time>2026-05-02T08:48:13Z</time></trkpt><trkpt lat="43.780514843697794" lon="11.950960859523152"><ele>1189.0</ele><time>2026-05-02T08:48:32Z</time></trkpt><trkpt lat="43.780461693869874" lon="11.95105254685378"><ele>1192.0</ele><time>2026-05-02T08:48:57Z</time></trkpt><trkpt lat="43.7804302601825" lon="11.951130977060041"><ele>1192.0</ele><time>2026-05-02T08:51:35Z</time></trkpt><trkpt lat="43.78034363694724" lon="11.951142054788535"><ele>1192.0</ele><time>2026-05-02T08:52:31Z</time></trkpt><trkpt lat="43.78025470028481" lon="11.95109362299488"><ele>1192.0</ele><time>2026-05-02T08:53:10Z</time></trkpt><trkpt lat="43.78018919260989" lon="11.951090607855994"><ele>1192.0</ele><time>2026-05-02T08:53:13Z</time></trkpt><trkpt lat="43.780118080612546" lon="11.951090430191748"><ele>1192.0</ele><time>2026-05-02T08:53:16Z</time></trkpt><trkpt lat="43.780047695027626" lon="11.951038952694237"><ele>1192.0</ele><time>2026-05-02T08:53:18Z</time></trkpt><trkpt lat="43.77997302654065" lon="11.95101458874096"><ele>1195.1666666666665</ele><time>2026-05-02T08:53:20Z</time></trkpt><trkpt lat="43.779904032496255" lon="11.951052350685229"><ele>1198.3333333333333</ele><time>2026-05-02T08:53:22Z</time></trkpt><trkpt lat="43.77983971740329" lon="11.951076699485734"><ele>1201.5</ele><time>2026-05-02T08:53:25Z</time></trkpt><trkpt lat="43.77978450218051" lon="11.951133757028146"><ele>1204.6666666666667</ele><time>2026-05-02T08:53:27Z</time></trkpt><trkpt lat="43.77968099120565" lon="11.951140994342984"><ele>1207.8333333333335</ele><time>2026-05-02T08:53:29Z</time></trkpt><trkpt lat="43.77958150437679" lon="11.95113005851204"><ele>1211.0</ele><time>2026-05-02T08:53:31Z</time></trkpt><trkpt lat="43.77949435658616" lon="11.951122461595524"><ele>1211.0</ele><time>2026-05-02T08:53:33Z</time></trkpt><trkpt lat="43.779410304121626" lon="11.951146794417152"><ele>1211.0</ele><time>2026-05-02T08:53:35Z</time></trkpt><trkpt lat="43.779341118744895" lon="11.951179292031727"><ele>1211.0</ele><time>2026-05-02T08:53:38Z</time></trkpt><trkpt lat="43.779273310499356" lon="11.951146358460768"><ele>1211.0</ele><time>2026-05-02T08:53:40Z</time></trkpt><trkpt lat="43.77918482951528" lon="11.951103908121546"><ele>1211.0</ele><time>2026-05-02T08:53:42Z</time></trkpt><trkpt lat="43.77910389183755" lon="11.951104889343917"><ele>1211.0</ele><time>2026-05-02T08:53:47Z</time></trkpt><trkpt lat="43.779041769709025" lon="11.951152131279821"><ele>1212.6</ele><time>2026-05-02T08:53:49Z</time></trkpt><trkpt lat="43.77897260078513" lon="11.95122869840358"><ele>1214.1999999999998</ele><time>2026-05-02T08:53:51Z</time></trkpt><trkpt lat="43.778870572892174" lon="11.951257374460004"><ele>1215.8000000000002</ele><time>2026-05-02T08:53:53Z</time></trkpt><trkpt lat="43.77876880439063" lon="11.951282366869018"><ele>1217.4</ele><time>2026-05-02T08:53:55Z</time></trkpt><trkpt lat="43.77863975286596" lon="11.951246046490262"><ele>1219.0</ele><time>2026-05-02T08:53:57Z</time></trkpt><trkpt lat="43.77857658480822" lon="11.951240335737339"><ele>1220.6666666666665</ele><time>2026-05-02T08:53:58Z</time></trkpt><trkpt lat="43.77850718094259" lon="11.951216349011784"><ele>1222.3333333333333</ele><time>2026-05-02T08:53:59Z</time></trkpt><trkpt lat="43.77843418070299" lon="11.9512321865536"><ele>1224.0</ele><time>2026-05-02T08:54:00Z</time></trkpt><trkpt lat="43.77835218352895" lon="11.95125541016564"><ele>1225.6666666666667</ele><time>2026-05-02T08:54:01Z</time></trkpt><trkpt lat="43.778272222815815" lon="11.951245465002975"><ele>1227.3333333333335</ele><time>2026-05-02T08:54:02Z</time></trkpt><trkpt lat="43.778162844366896" lon="11.951251134195006"><ele>1229.0</ele><time>2026-05-02T08:54:04Z</time></trkpt><trkpt lat="43.77806857224254" lon="11.95127621161383"><ele>1229.0</ele><time>2026-05-02T08:54:06Z</time></trkpt><trkpt lat="43.777975068641055" lon="11.951324159716057"><ele>1229.0</ele><time>2026-05-02T08:54:08Z</time></trkpt><trkpt lat="43.77789136090945" lon="11.951391600300749"><ele>1229.0</ele><time>2026-05-02T08:54:10Z</time></trkpt><trkpt lat="43.777818831006144" lon="11.951474650019787"><ele>1229.0</ele><time>2026-05-02T08:54:12Z</time></trkpt><trkpt lat="43.77772021431311" lon="11.951564130269213"><ele>1229.0</ele><time>2026-05-02T08:54:15Z</time></trkpt><trkpt lat="43.77762654792199" lon="11.951622077087036"><ele>1230.6666666666667</ele><time>2026-05-02T08:54:17Z</time></trkpt><trkpt lat="43.777550929998384" lon="11.951697945102012"><ele>1232.3333333333335</ele><time>2026-05-02T08:54:19Z</time></trkpt><trkpt lat="43.77749393908388" lon="11.951743398038353"><ele>1234.0</ele><time>2026-05-02T08:54:21Z</time></trkpt><trkpt lat="43.777449574727626" lon="11.951814663599771"><ele>1235.6666666666667</ele><time>2026-05-02T08:54:22Z</time></trkpt><trkpt lat="43.77740602111292" lon="11.951930582472386"><ele>1237.3333333333333</ele><time>2026-05-02T08:54:24Z</time></trkpt><trkpt lat="43.77735677821817" lon="11.952043621337467"><ele>1239.0</ele><time>2026-05-02T08:54:26Z</time></trkpt><trkpt lat="43.77733467494153" lon="11.952129246561652"><ele>1235.5</ele><time>2026-05-02T08:54:28Z</time></trkpt><trkpt lat="43.77729075128939" lon="11.952251484542485"><ele>1232.0</ele><time>2026-05-02T08:54:31Z</time></trkpt><trkpt lat="43.777247010603475" lon="11.952318124708384"><ele>1228.5</ele><time>2026-05-02T08:54:32Z</time></trkpt><trkpt lat="43.777179496292604" lon="11.952369273913979"><ele>1225.0</ele><time>2026-05-02T08:54:33Z</time></trkpt><trkpt lat="43.7771219970114" lon="11.952411005731332"><ele>1221.5</ele><time>2026-05-02T08:54:34Z</time></trkpt><trkpt lat="43.777056401908546" lon="11.952469265187426"><ele>1218.0</ele><time>2026-05-02T08:54:35Z</time></trkpt><trkpt lat="43.777001765189844" lon="11.952549259229714"><ele>1214.3333333333333</ele><time>2026-05-02T08:54:36Z</time></trkpt><trkpt lat="43.776960018580915" lon="11.952623502450496"><ele>1210.6666666666667</ele><time>2026-05-02T08:54:37Z</time></trkpt><trkpt lat="43.776911070651195" lon="11.952709490035867"><ele>1207.0</ele><time>2026-05-02T08:54:38Z</time></trkpt><trkpt lat="43.7768626102345" lon="11.952783198163466"><ele>1203.3333333333335</ele><time>2026-05-02T08:54:39Z</time></trkpt><trkpt lat="43.776831125371096" lon="11.952858894024626"><ele>1199.6666666666667</ele><time>2026-05-02T08:54:42Z</time></trkpt><trkpt lat="43.77678708617543" lon="11.952960494459086"><ele>1196.0</ele><time>2026-05-02T08:54:44Z</time></trkpt><trkpt lat="43.77676022985756" lon="11.953078085594262"><ele>1205.3999999999999</ele><time>2026-05-02T08:54:46Z</time></trkpt><trkpt lat="43.77670422118871" lon="11.953168392964454"><ele>1214.8</ele><time>2026-05-02T08:54:48Z</time></trkpt><trkpt lat="43.77671038661896" lon="11.953322053233258"><ele>1224.1999999999998</ele><time>2026-05-02T08:54:50Z</time></trkpt><trkpt lat="43.776694924554164" lon="11.953426063543041"><ele>1233.6</ele><time>2026-05-02T08:54:53Z</time></trkpt><trkpt lat="43.776641998325296" lon="11.95348846272704"><ele>1243.0</ele><time>2026-05-02T08:54:54Z</time></trkpt><trkpt lat="43.776543570938244" lon="11.953559687087003"><ele>1246.1666666666665</ele><time>2026-05-02T08:54:56Z</time></trkpt><trkpt lat="43.77647210644692" lon="11.953558525993385"><ele>1249.3333333333333</ele><time>2026-05-02T08:54:58Z</time></trkpt><trkpt lat="43.7764055244257" lon="11.953579676330067"><ele>1252.5</ele><time>2026-05-02T08:55:00Z</time></trkpt><trkpt lat="43.77629280190818" lon="11.953592715130982"><ele>1255.6666666666667</ele><time>2026-05-02T08:55:02Z</time></trkpt><trkpt lat="43.77622239806246" lon="11.95360316981935"><ele>1258.8333333333335</ele><time>2026-05-02T08:55:03Z</time></trkpt><trkpt lat="43.77610901954456" lon="11.953577790888389"><ele>1262.0</ele><time>2026-05-02T08:55:05Z</time></trkpt><trkpt lat="43.77604697549802" lon="11.953540147030404"><ele>1260.5</ele><time>2026-05-02T08:55:06Z</time></trkpt><trkpt lat="43.776015577997754" lon="11.953456078324011"><ele>1259.0</ele><time>2026-05-02T08:55:07Z</time></trkpt><trkpt lat="43.775983807865835" lon="11.9533594850717"><ele>1257.5</ele><time>2026-05-02T08:55:08Z</time></trkpt><trkpt lat="43.77595350212293" lon="11.953215597147377"><ele>1256.0</ele><time>2026-05-02T08:55:10Z</time></trkpt><trkpt lat="43.775931839950324" lon="11.953133729172517"><ele>1254.5</ele><time>2026-05-02T08:55:11Z</time></trkpt><trkpt lat="43.77588994084046" lon="11.953047504033197"><ele>1253.0</ele><time>2026-05-02T08:55:12Z</time></trkpt><trkpt lat="43.7758622172081" lon="11.952927432952706"><ele>1253.0</ele><time>2026-05-02T08:55:14Z</time></trkpt><trkpt lat="43.77582423936739" lon="11.952855637816228"><ele>1253.0</ele><time>2026-05-02T08:55:16Z</time></trkpt><trkpt lat="43.775719565117484" lon="11.952772623080497"><ele>1253.0</ele><time>2026-05-02T08:55:18Z</time></trkpt><trkpt lat="43.77561995748219" lon="11.952737748113366"><ele>1253.0</ele><time>2026-05-02T08:55:20Z</time></trkpt><trkpt lat="43.77551193186103" lon="11.952686465963597"><ele>1253.0</ele><time>2026-05-02T08:55:22Z</time></trkpt><trkpt lat="43.77537645714261" lon="11.952695131146193"><ele>1253.0</ele><time>2026-05-02T08:55:24Z</time></trkpt><trkpt lat="43.77530515266259" lon="11.952693185561781"><ele>1253.0</ele><time>2026-05-02T08:55:25Z</time></trkpt><trkpt lat="43.775219497955575" lon="11.952699927461847"><ele>1253.0</ele><time>2026-05-02T08:55:26Z</time></trkpt><trkpt lat="43.77513057172629" lon="11.952710208785554"><ele>1253.0</ele><time>2026-05-02T08:55:27Z</time></trkpt><trkpt lat="43.774993115794544" lon="11.952709566960465"><ele>1253.0</ele><time>2026-05-02T08:55:29Z</time></trkpt><trkpt lat="43.774927495582084" lon="11.952695364640299"><ele>1253.5</ele><time>2026-05-02T08:55:30Z</time></trkpt><trkpt lat="43.77484095617193" lon="11.952659690189838"><ele>1254.0</ele><time>2026-05-02T08:55:31Z</time></trkpt><trkpt lat="43.77475129296773" lon="11.952639173383215"><ele>1254.5</ele><time>2026-05-02T08:55:32Z</time></trkpt><trkpt lat="43.774666420420246" lon="11.952626479913311"><ele>1255.0</ele><time>2026-05-02T08:55:33Z</time></trkpt><trkpt lat="43.77456337789115" lon="11.952621040995407"><ele>1255.5</ele><time>2026-05-02T08:55:34Z</time></trkpt><trkpt lat="43.77449135973992" lon="11.952599299279797"><ele>1256.0</ele><time>2026-05-02T08:55:35Z</time></trkpt><trkpt lat="43.774415352119995" lon="11.952596800180011"><ele>1252.3999999999999</ele><time>2026-05-02T08:55:36Z</time></trkpt><trkpt lat="43.77432815864075" lon="11.952605446354257"><ele>1248.8</ele><time>2026-05-02T08:55:37Z</time></trkpt><trkpt lat="43.774219283079546" lon="11.95261122765863"><ele>1245.1999999999998</ele><time>2026-05-02T08:55:38Z</time></trkpt><trkpt lat="43.77412148133148" lon="11.952638475879295"><ele>1241.6</ele><time>2026-05-02T08:55:39Z</time></trkpt><trkpt lat="43.774017653549926" lon="11.952682504705232"><ele>1238.0</ele><time>2026-05-02T08:55:40Z</time></trkpt><trkpt lat="43.77394876669999" lon="11.952760724127435"><ele>1238.0</ele><time>2026-05-02T08:55:41Z</time></trkpt><trkpt lat="43.77386358667788" lon="11.952800186168245"><ele>1238.0</ele><time>2026-05-02T08:55:42Z</time></trkpt><trkpt lat="43.773789550921755" lon="11.952806614201828"><ele>1238.0</ele><time>2026-05-02T08:55:43Z</time></trkpt><trkpt lat="43.77371254889223" lon="11.952864552870855"><ele>1238.0</ele><time>2026-05-02T08:55:44Z</time></trkpt><trkpt lat="43.7736530330776" lon="11.952922448399816"><ele>1238.0</ele><time>2026-05-02T08:55:45Z</time></trkpt><trkpt lat="43.77359597228081" lon="11.952974388689285"><ele>1238.0</ele><time>2026-05-02T08:55:46Z</time></trkpt><trkpt lat="43.773560158989014" lon="11.953062912930172"><ele>1238.0</ele><time>2026-05-02T08:55:48Z</time></trkpt><trkpt lat="43.77353561786921" lon="11.953156265720871"><ele>1238.0</ele><time>2026-05-02T08:55:51Z</time></trkpt><trkpt lat="43.773519326633945" lon="11.953254466906406"><ele>1238.0</ele><time>2026-05-02T08:55:53Z</time></trkpt><trkpt lat="43.77354044675729" lon="11.953363514062675"><ele>1238.0</ele><time>2026-05-02T08:55:55Z</time></trkpt><trkpt lat="43.77357455986317" lon="11.953456577306477"><ele>1238.0</ele><time>2026-05-02T08:55:57Z</time></trkpt><trkpt lat="43.77358753271492" lon="11.953549622086678"><ele>1238.0</ele><time>2026-05-02T08:55:59Z</time></trkpt><trkpt lat="43.77361860351272" lon="11.95366520704111"><ele>1238.5</ele><time>2026-05-02T08:56:01Z</time></trkpt><trkpt lat="43.77362011703063" lon="11.953825006738114"><ele>1239.0</ele><time>2026-05-02T08:56:03Z</time></trkpt><trkpt lat="43.773594207377556" lon="11.953927621853818"><ele>1239.5</ele><time>2026-05-02T08:56:04Z</time></trkpt><trkpt lat="43.77357388996233" lon="11.954029754549493"><ele>1240.0</ele><time>2026-05-02T08:56:05Z</time></trkpt><trkpt lat="43.77355509012767" lon="11.954117567180436"><ele>1240.5</ele><time>2026-05-02T08:56:06Z</time></trkpt><trkpt lat="43.7735485428691" lon="11.954225312297728"><ele>1241.0</ele><time>2026-05-02T08:56:07Z</time></trkpt><trkpt lat="43.77354293835366" lon="11.954342562420589"><ele>1241.5</ele><time>2026-05-02T08:56:08Z</time></trkpt><trkpt lat="43.773550275685054" lon="11.954440388158314"><ele>1242.0</ele><time>2026-05-02T08:56:09Z</time></trkpt><trkpt lat="43.77358097324614" lon="11.954588745992472"><ele>1242.5</ele><time>2026-05-02T08:56:11Z</time></trkpt><trkpt lat="43.77355735347549" lon="11.954669596235776"><ele>1243.0</ele><time>2026-05-02T08:56:12Z</time></trkpt><trkpt lat="43.77350942794592" lon="11.954776914871147"><ele>1243.5</ele><time>2026-05-02T08:56:13Z</time></trkpt><trkpt lat="43.7734729614586" lon="11.954869739462328"><ele>1244.0</ele><time>2026-05-02T08:56:14Z</time></trkpt><trkpt lat="43.773455029321596" lon="11.954986768727604"><ele>1236.5</ele><time>2026-05-02T08:56:15Z</time></trkpt><trkpt lat="43.77340902829432" lon="11.955067513376257"><ele>1229.0</ele><time>2026-05-02T08:56:16Z</time></trkpt><trkpt lat="43.77337425718141" lon="11.955152674272167"><ele>1221.5</ele><time>2026-05-02T08:56:17Z</time></trkpt><trkpt lat="43.77335909388559" lon="11.955247021658492"><ele>1214.0</ele><time>2026-05-02T08:56:18Z</time></trkpt><trkpt lat="43.77337070835642" lon="11.955358200276713"><ele>1206.5</ele><time>2026-05-02T08:56:19Z</time></trkpt><trkpt lat="43.77332008084317" lon="11.955485295698958"><ele>1199.0</ele><time>2026-05-02T08:56:21Z</time></trkpt><trkpt lat="43.77331499778901" lon="11.955618505754993"><ele>1199.0</ele><time>2026-05-02T08:56:23Z</time></trkpt><trkpt lat="43.77335102955574" lon="11.955724262359636"><ele>1199.0</ele><time>2026-05-02T08:56:25Z</time></trkpt><trkpt lat="43.77346353605848" lon="11.95583939312901"><ele>1199.0</ele><time>2026-05-02T08:56:27Z</time></trkpt><trkpt lat="43.77354196821346" lon="11.955895763678772"><ele>1199.0</ele><time>2026-05-02T08:56:28Z</time></trkpt><trkpt lat="43.773591333026744" lon="11.955950175712848"><ele>1199.0</ele><time>2026-05-02T08:56:29Z</time></trkpt><trkpt lat="43.77370295305322" lon="11.95608155823292"><ele>1204.2</ele><time>2026-05-02T08:56:31Z</time></trkpt><trkpt lat="43.773745473314236" lon="11.956159845610408"><ele>1209.4</ele><time>2026-05-02T08:56:32Z</time></trkpt><trkpt lat="43.7737659143519" lon="11.95625390974362"><ele>1214.6</ele><time>2026-05-02T08:56:33Z</time></trkpt><trkpt lat="43.77379004750481" lon="11.95635077092203"><ele>1219.8</ele><time>2026-05-02T08:56:34Z</time></trkpt><trkpt lat="43.77378878573683" lon="11.956553803489605"><ele>1225.0</ele><time>2026-05-02T08:56:36Z</time></trkpt><trkpt lat="43.773782276156574" lon="11.95667445372683"><ele>1224.6666666666665</ele><time>2026-05-02T08:56:37Z</time></trkpt><trkpt lat="43.77375326528745" lon="11.956775704349647"><ele>1224.3333333333333</ele><time>2026-05-02T08:56:38Z</time></trkpt><trkpt lat="43.773729365660046" lon="11.956886376226347"><ele>1224.0</ele><time>2026-05-02T08:56:39Z</time></trkpt><trkpt lat="43.77368054355583" lon="11.957002426330831"><ele>1223.6666666666667</ele><time>2026-05-02T08:56:40Z</time></trkpt><trkpt lat="43.77361995921071" lon="11.95708034881285"><ele>1223.3333333333335</ele><time>2026-05-02T08:56:41Z</time></trkpt><trkpt lat="43.77356277691177" lon="11.957158369082455"><ele>1223.0</ele><time>2026-05-02T08:56:42Z</time></trkpt><trkpt lat="43.77352387710475" lon="11.957248584912064"><ele>1218.6</ele><time>2026-05-02T08:56:43Z</time></trkpt><trkpt lat="43.773462726579865" lon="11.957292179490072"><ele>1214.1999999999998</ele><time>2026-05-02T08:56:44Z</time></trkpt><trkpt lat="43.773320486651286" lon="11.957428470493085"><ele>1209.8</ele><time>2026-05-02T08:56:46Z</time></trkpt><trkpt lat="43.77325949595423" lon="11.957528537009907"><ele>1205.3999999999999</ele><time>2026-05-02T08:56:47Z</time></trkpt><trkpt lat="43.77319584127353" lon="11.957592069765498"><ele>1201.0</ele><time>2026-05-02T08:56:48Z</time></trkpt><trkpt lat="43.773127094985455" lon="11.957657853503058"><ele>1201.0</ele><time>2026-05-02T08:56:49Z</time></trkpt><trkpt lat="43.77308927056751" lon="11.95773129175787"><ele>1201.0</ele><time>2026-05-02T08:56:50Z</time></trkpt><trkpt lat="43.77304176274752" lon="11.957795654742693"><ele>1201.0</ele><time>2026-05-02T08:56:51Z</time></trkpt><trkpt lat="43.77296370455097" lon="11.957897204003288"><ele>1201.0</ele><time>2026-05-02T08:56:53Z</time></trkpt><trkpt lat="43.772919560700295" lon="11.957996075825337"><ele>1201.0</ele><time>2026-05-02T08:56:55Z</time></trkpt><trkpt lat="43.772937483422915" lon="11.958159487362053"><ele>1201.0</ele><time>2026-05-02T08:56:57Z</time></trkpt><trkpt lat="43.77297968796514" lon="11.958245838411191"><ele>1199.2</ele><time>2026-05-02T08:56:58Z</time></trkpt><trkpt lat="43.77303619027764" lon="11.95839334067295"><ele>1197.3999999999999</ele><time>2026-05-02T08:57:00Z</time></trkpt><trkpt lat="43.773107872899324" lon="11.958502670552676"><ele>1195.6</ele><time>2026-05-02T08:57:02Z</time></trkpt><trkpt lat="43.773149632052764" lon="11.95857140151451"><ele>1193.8</ele><time>2026-05-02T08:57:03Z</time></trkpt><trkpt lat="43.77315632220552" lon="11.95868213916562"><ele>1192.0</ele><time>2026-05-02T08:57:15Z</time></trkpt><trkpt lat="43.773171057070456" lon="11.958788387620984"><ele>1192.0</ele><time>2026-05-02T08:57:22Z</time></trkpt><trkpt lat="43.77320514387565" lon="11.958887110248401"><ele>1192.0</ele><time>2026-05-02T08:57:38Z</time></trkpt><trkpt lat="43.77317005287767" lon="11.958969512998333"><ele>1192.0</ele><time>2026-05-02T08:57:40Z</time></trkpt><trkpt lat="43.77316435128014" lon="11.95906608734196"><ele>1192.0</ele><time>2026-05-02T08:57:43Z</time></trkpt><trkpt lat="43.77314401089785" lon="11.959187415935105"><ele>1192.0</ele><time>2026-05-02T08:57:57Z</time></trkpt><trkpt lat="43.77308757964053" lon="11.959293631635937"><ele>1192.0</ele><time>2026-05-02T08:57:59Z</time></trkpt><trkpt lat="43.773027838649405" lon="11.959401059751597"><ele>1190.8</ele><time>2026-05-02T08:58:01Z</time></trkpt><trkpt lat="43.77300051746873" lon="11.95954643183749"><ele>1189.6</ele><time>2026-05-02T08:58:03Z</time></trkpt><trkpt lat="43.77299775198512" lon="11.959671029561981"><ele>1188.3999999999999</ele><time>2026-05-02T08:58:05Z</time></trkpt><trkpt lat="43.77300079800135" lon="11.959811225921495"><ele>1187.2</ele><time>2026-05-02T08:58:07Z</time></trkpt><trkpt lat="43.77297640769823" lon="11.959931976816698"><ele>1186.0</ele><time>2026-05-02T08:58:09Z</time></trkpt><trkpt lat="43.77291992791874" lon="11.960037497475959"><ele>1182.6</ele><time>2026-05-02T08:58:11Z</time></trkpt><trkpt lat="43.77285556765828" lon="11.960109494511528"><ele>1179.1999999999998</ele><time>2026-05-02T08:58:14Z</time></trkpt><trkpt lat="43.77283459507882" lon="11.960208984745568"><ele>1175.8000000000002</ele><time>2026-05-02T08:58:41Z</time></trkpt><trkpt lat="43.77283968539953" lon="11.960328815112629"><ele>1172.4</ele><time>2026-05-02T08:58:43Z</time></trkpt><trkpt lat="43.77283865484313" lon="11.960517267538377"><ele>1169.0</ele><time>2026-05-02T08:58:45Z</time></trkpt><trkpt lat="43.77283447079382" lon="11.960686282318374"><ele>1169.0</ele><time>2026-05-02T08:58:47Z</time></trkpt><trkpt lat="43.772798315303696" lon="11.960809410451652"><ele>1169.0</ele><time>2026-05-02T08:58:48Z</time></trkpt><trkpt lat="43.772753967372545" lon="11.960902727831904"><ele>1169.0</ele><time>2026-05-02T08:58:49Z</time></trkpt><trkpt lat="43.772733810675504" lon="11.960990487466612"><ele>1169.0</ele><time>2026-05-02T08:58:50Z</time></trkpt><trkpt lat="43.772690643330705" lon="11.961151134566608"><ele>1169.0</ele><time>2026-05-02T08:58:52Z</time></trkpt><trkpt lat="43.772698802160775" lon="11.961280843803607"><ele>1168.4</ele><time>2026-05-02T08:58:53Z</time></trkpt><trkpt lat="43.772688054915825" lon="11.961398335332648"><ele>1167.8000000000002</ele><time>2026-05-02T08:58:54Z</time></trkpt><trkpt lat="43.77264360310604" lon="11.961574017803953"><ele>1167.1999999999998</ele><time>2026-05-02T08:58:56Z</time></trkpt><trkpt lat="43.77263025006892" lon="11.961678266312273"><ele>1166.6</ele><time>2026-05-02T08:58:57Z</time></trkpt><trkpt lat="43.77259823616717" lon="11.961828155993448"><ele>1166.0</ele><time>2026-05-02T08:58:59Z</time></trkpt><trkpt lat="43.77259639842287" lon="11.961983697509996"><ele>1166.0</ele><time>2026-05-02T08:59:01Z</time></trkpt><trkpt lat="43.77261813213844" lon="11.962073987175861"><ele>1166.0</ele><time>2026-05-02T08:59:04Z</time></trkpt><trkpt lat="43.772615746654196" lon="11.962173000787365"><ele>1166.0</ele><time>2026-05-02T09:00:20Z</time></trkpt><trkpt lat="43.77259080660674" lon="11.962284778364847"><ele>1166.0</ele><time>2026-05-02T09:00:23Z</time></trkpt><trkpt lat="43.77253553446767" lon="11.962407186980691"><ele>1166.0</ele><time>2026-05-02T09:00:25Z</time></trkpt><trkpt lat="43.77248150842255" lon="11.962546616410856"><ele>1166.0</ele><time>2026-05-02T09:00:27Z</time></trkpt><trkpt lat="43.77243617097559" lon="11.96265690755445"><ele>1163.8333333333335</ele><time>2026-05-02T09:00:29Z</time></trkpt><trkpt lat="43.772387972069794" lon="11.962743998913384"><ele>1161.6666666666667</ele><time>2026-05-02T09:00:31Z</time></trkpt><trkpt lat="43.77233387077309" lon="11.962853222418994"><ele>1159.5</ele><time>2026-05-02T09:00:33Z</time></trkpt><trkpt lat="43.772309874734624" lon="11.96294149367273"><ele>1157.3333333333333</ele><time>2026-05-02T09:00:34Z</time></trkpt><trkpt lat="43.772274748778216" lon="11.963046113784792"><ele>1155.1666666666665</ele><time>2026-05-02T09:00:35Z</time></trkpt><trkpt lat="43.77224969732058" lon="11.96312892190188"><ele>1153.0</ele><time>2026-05-02T09:00:36Z</time></trkpt><trkpt lat="43.772225205076055" lon="11.963273808376135"><ele>1151.3333333333333</ele><time>2026-05-02T09:00:38Z</time></trkpt><trkpt lat="43.77219478564533" lon="11.963371110340463"><ele>1149.6666666666665</ele><time>2026-05-02T09:00:40Z</time></trkpt><trkpt lat="43.77216114112695" lon="11.963519430042892"><ele>1148.0</ele><time>2026-05-02T09:00:42Z</time></trkpt><trkpt lat="43.772128282167444" lon="11.96360119380331"><ele>1146.3333333333333</ele><time>2026-05-02T09:00:43Z</time></trkpt><trkpt lat="43.772096661482614" lon="11.96372799272971"><ele>1144.6666666666667</ele><time>2026-05-02T09:00:45Z</time></trkpt><trkpt lat="43.77208814261212" lon="11.963829379715003"><ele>1143.0</ele><time>2026-05-02T09:00:47Z</time></trkpt><trkpt lat="43.772035464225596" lon="11.963943238147158"><ele>1143.0</ele><time>2026-05-02T09:00:49Z</time></trkpt><trkpt lat="43.77202186704804" lon="11.964110210260795"><ele>1143.0</ele><time>2026-05-02T09:00:51Z</time></trkpt><trkpt lat="43.77201462132836" lon="11.964212513186773"><ele>1143.0</ele><time>2026-05-02T09:00:52Z</time></trkpt><trkpt lat="43.77200868788707" lon="11.964345814667764"><ele>1143.0</ele><time>2026-05-02T09:00:54Z</time></trkpt><trkpt lat="43.77199229723546" lon="11.964456526058388"><ele>1143.0</ele><time>2026-05-02T09:00:56Z</time></trkpt><trkpt lat="43.77197377731351" lon="11.964644863264075"><ele>1142.8333333333333</ele><time>2026-05-02T09:00:58Z</time></trkpt><trkpt lat="43.7719750128584" lon="11.964740286504849"><ele>1142.6666666666667</ele><time>2026-05-02T09:00:59Z</time></trkpt><trkpt lat="43.771975205547776" lon="11.964839999469117"><ele>1142.5</ele><time>2026-05-02T09:01:00Z</time></trkpt><trkpt lat="43.7719916422598" lon="11.964962791342003"><ele>1142.3333333333335</ele><time>2026-05-02T09:01:02Z</time></trkpt><trkpt lat="43.77203503878219" lon="11.965050385377591"><ele>1142.1666666666667</ele><time>2026-05-02T09:01:04Z</time></trkpt><trkpt lat="43.77204999355" lon="11.965160299654784"><ele>1142.0</ele><time>2026-05-02T09:01:06Z</time></trkpt><trkpt lat="43.772071201105646" lon="11.965297146595098"><ele>1142.0</ele><time>2026-05-02T09:01:08Z</time></trkpt><trkpt lat="43.77208587596642" lon="11.965439358553185"><ele>1142.0</ele><time>2026-05-02T09:01:10Z</time></trkpt><trkpt lat="43.7720799269046" lon="11.965583376226071"><ele>1142.0</ele><time>2026-05-02T09:01:12Z</time></trkpt><trkpt lat="43.77205834549912" lon="11.965765521952633"><ele>1142.0</ele><time>2026-05-02T09:01:14Z</time></trkpt><trkpt lat="43.772048975572424" lon="11.965921051875691"><ele>1140.0</ele><time>2026-05-02T09:01:16Z</time></trkpt><trkpt lat="43.772016595395165" lon="11.966076014579308"><ele>1138.0</ele><time>2026-05-02T09:01:18Z</time></trkpt><trkpt lat="43.77198528460824" lon="11.966178460336396"><ele>1136.0</ele><time>2026-05-02T09:01:22Z</time></trkpt><trkpt lat="43.77190924210125" lon="11.966255650371753"><ele>1134.0</ele><time>2026-05-02T09:01:25Z</time></trkpt><trkpt lat="43.771854395662714" lon="11.966312318878126"><ele>1132.0</ele><time>2026-05-02T09:01:27Z</time></trkpt><trkpt lat="43.77183564166863" lon="11.966415229194887"><ele>1130.0</ele><time>2026-05-02T09:01:29Z</time></trkpt><trkpt lat="43.77179181488204" lon="11.966482809656519"><ele>1130.6666666666667</ele><time>2026-05-02T09:01:31Z</time></trkpt><trkpt lat="43.77173625162595" lon="11.9665705202541"><ele>1131.3333333333335</ele><time>2026-05-02T09:01:34Z</time></trkpt><trkpt lat="43.77165458635902" lon="11.96658538113201"><ele>1132.0</ele><time>2026-05-02T09:01:36Z</time></trkpt><trkpt lat="43.77160689215634" lon="11.966645426852251"><ele>1132.6666666666667</ele><time>2026-05-02T09:01:37Z</time></trkpt><trkpt lat="43.771537086268445" lon="11.966714553448158"><ele>1133.3333333333333</ele><time>2026-05-02T09:01:39Z</time></trkpt><trkpt lat="43.771463841514496" lon="11.966739327583966"><ele>1134.0</ele><time>2026-05-02T09:01:41Z</time></trkpt><trkpt lat="43.77140084108215" lon="11.966837866053178"><ele>1134.0</ele><time>2026-05-02T09:01:43Z</time></trkpt><trkpt lat="43.77133948490767" lon="11.966886270315335"><ele>1134.0</ele><time>2026-05-02T09:01:45Z</time></trkpt><trkpt lat="43.77126296109983" lon="11.966928557204296"><ele>1134.0</ele><time>2026-05-02T09:01:47Z</time></trkpt><trkpt lat="43.771149896855405" lon="11.967043465662373"><ele>1134.0</ele><time>2026-05-02T09:01:49Z</time></trkpt><trkpt lat="43.771087435517686" lon="11.967094024852843"><ele>1134.0</ele><time>2026-05-02T09:01:50Z</time></trkpt><trkpt lat="43.77100759632714" lon="11.96716970648404"><ele>1138.0</ele><time>2026-05-02T09:01:52Z</time></trkpt><trkpt lat="43.77095221255504" lon="11.967239028738863"><ele>1142.0</ele><time>2026-05-02T09:01:54Z</time></trkpt><trkpt lat="43.770849716969" lon="11.967271256822563"><ele>1146.0</ele><time>2026-05-02T09:01:56Z</time></trkpt><trkpt lat="43.77078590873818" lon="11.967298321108961"><ele>1150.0</ele><time>2026-05-02T09:01:57Z</time></trkpt><trkpt lat="43.770710811559205" lon="11.967289791131035"><ele>1154.0</ele><time>2026-05-02T09:01:58Z</time></trkpt><trkpt lat="43.77064539357776" lon="11.96727585596407"><ele>1158.0</ele><time>2026-05-02T09:01:59Z</time></trkpt><trkpt lat="43.770560910163496" lon="11.967270013913282"><ele>1158.0</ele><time>2026-05-02T09:02:02Z</time></trkpt><trkpt lat="43.77047464228171" lon="11.967278400260309"><ele>1158.0</ele><time>2026-05-02T09:02:05Z</time></trkpt><trkpt lat="43.770421030755884" lon="11.967340453707354"><ele>1158.0</ele><time>2026-05-02T09:02:07Z</time></trkpt><trkpt lat="43.77037303095782" lon="11.967429887154333"><ele>1158.0</ele><time>2026-05-02T09:02:09Z</time></trkpt><trkpt lat="43.77029259718614" lon="11.967511326963818"><ele>1158.0</ele><time>2026-05-02T09:02:12Z</time></trkpt><trkpt lat="43.77024346502294" lon="11.96760725169381"><ele>1158.0</ele><time>2026-05-02T09:02:14Z</time></trkpt><trkpt lat="43.77017292680506" lon="11.967719864383515"><ele>1158.2</ele><time>2026-05-02T09:02:16Z</time></trkpt><trkpt lat="43.770090291382914" lon="11.967824725796019"><ele>1158.4</ele><time>2026-05-02T09:02:18Z</time></trkpt><trkpt lat="43.77003674260784" lon="11.967919074589004"><ele>1158.6000000000001</ele><time>2026-05-02T09:02:20Z</time></trkpt><trkpt lat="43.769998146873164" lon="11.968019233743272"><ele>1158.8</ele><time>2026-05-02T09:02:22Z</time></trkpt><trkpt lat="43.76994086260142" lon="11.968152944651328"><ele>1159.0</ele><time>2026-05-02T09:02:25Z</time></trkpt><trkpt lat="43.76987382467568" lon="11.968248390629125"><ele>1154.3333333333333</ele><time>2026-05-02T09:02:27Z</time></trkpt><trkpt lat="43.76982514284212" lon="11.968380787429119"><ele>1149.6666666666665</ele><time>2026-05-02T09:02:30Z</time></trkpt><trkpt lat="43.76978587147288" lon="11.968458277002512"><ele>1145.0</ele><time>2026-05-02T09:02:32Z</time></trkpt><trkpt lat="43.769733890352384" lon="11.968521741861295"><ele>1140.3333333333333</ele><time>2026-05-02T09:02:34Z</time></trkpt><trkpt lat="43.769682557054175" lon="11.968593772757636"><ele>1135.6666666666667</ele><time>2026-05-02T09:02:37Z</time></trkpt><trkpt lat="43.769633833915385" lon="11.968675114959572"><ele>1131.0</ele><time>2026-05-02T09:02:40Z</time></trkpt><trkpt lat="43.76958294149298" lon="11.96874164461209"><ele>1131.0</ele><time>2026-05-02T09:02:43Z</time></trkpt><trkpt lat="43.769531403590214" lon="11.968831365837923"><ele>1131.0</ele><time>2026-05-02T09:03:44Z</time></trkpt><trkpt lat="43.7694694191557" lon="11.968899226484798"><ele>1131.0</ele><time>2026-05-02T09:03:47Z</time></trkpt><trkpt lat="43.76942341626698" lon="11.969002886721618"><ele>1131.0</ele><time>2026-05-02T09:03:49Z</time></trkpt><trkpt lat="43.769367766502" lon="11.969113465692931"><ele>1131.0</ele><time>2026-05-02T09:03:51Z</time></trkpt><trkpt lat="43.769334054632644" lon="11.969190132756118"><ele>1131.0</ele><time>2026-05-02T09:03:53Z</time></trkpt><trkpt lat="43.769289527734884" lon="11.969261123130302"><ele>1134.3333333333333</ele><time>2026-05-02T09:04:39Z</time></trkpt><trkpt lat="43.769237165568214" lon="11.96935438606679"><ele>1137.6666666666667</ele><time>2026-05-02T09:04:43Z</time></trkpt><trkpt lat="43.769185339779725" lon="11.96941267800093"><ele>1141.0</ele><time>2026-05-02T09:04:46Z</time></trkpt><trkpt lat="43.769158402694686" lon="11.969509560912515"><ele>1144.3333333333335</ele><time>2026-05-02T09:04:48Z</time></trkpt><trkpt lat="43.76914948086247" lon="11.96960292079089"><ele>1147.6666666666667</ele><time>2026-05-02T09:04:50Z</time></trkpt><trkpt lat="43.769134030816105" lon="11.969721616454933"><ele>1151.0</ele><time>2026-05-02T09:04:52Z</time></trkpt><trkpt lat="43.76907167704821" lon="11.969827334909334"><ele>1151.0</ele><time>2026-05-02T09:04:54Z</time></trkpt><trkpt lat="43.76899796669579" lon="11.969944302673136"><ele>1151.0</ele><time>2026-05-02T09:04:56Z</time></trkpt><trkpt lat="43.768957977181536" lon="11.970069425396744"><ele>1151.0</ele><time>2026-05-02T09:04:58Z</time></trkpt><trkpt lat="43.7688729918476" lon="11.970185538265275"><ele>1151.0</ele><time>2026-05-02T09:05:00Z</time></trkpt><trkpt lat="43.76884437348762" lon="11.970294149265287"><ele>1151.0</ele><time>2026-05-02T09:05:02Z</time></trkpt><trkpt lat="43.76883061411138" lon="11.970390798034233"><ele>1150.2</ele><time>2026-05-02T09:05:04Z</time></trkpt><trkpt lat="43.76882586303065" lon="11.970525664366038"><ele>1149.3999999999999</ele><time>2026-05-02T09:05:06Z</time></trkpt><trkpt lat="43.76886659945178" lon="11.970631749738901"><ele>1148.6</ele><time>2026-05-02T09:05:08Z</time></trkpt><trkpt lat="43.76891560855507" lon="11.97074452092697"><ele>1147.8</ele><time>2026-05-02T09:05:10Z</time></trkpt><trkpt lat="43.76892674191741" lon="11.970894777187757"><ele>1147.0</ele><time>2026-05-02T09:05:12Z</time></trkpt><trkpt lat="43.76890936487511" lon="11.971035420988425"><ele>1146.8</ele><time>2026-05-02T09:05:14Z</time></trkpt><trkpt lat="43.768852660811405" lon="11.971154374764852"><ele>1146.6</ele><time>2026-05-02T09:05:16Z</time></trkpt><trkpt lat="43.76878890741411" lon="11.97125918181907"><ele>1146.3999999999999</ele><time>2026-05-02T09:05:18Z</time></trkpt><trkpt lat="43.76883542135736" lon="11.97135709379285"><ele>1146.2</ele><time>2026-05-02T09:05:22Z</time></trkpt><trkpt lat="43.768881877100945" lon="11.971480515602718"><ele>1146.0</ele><time>2026-05-02T09:05:24Z</time></trkpt><trkpt lat="43.768911067050006" lon="11.97158867772927"><ele>1147.8333333333333</ele><time>2026-05-02T09:05:26Z</time></trkpt><trkpt lat="43.768920220336476" lon="11.97172177799534"><ele>1149.6666666666667</ele><time>2026-05-02T09:05:28Z</time></trkpt><trkpt lat="43.76892985348823" lon="11.971877783555087"><ele>1151.5</ele><time>2026-05-02T09:05:30Z</time></trkpt><trkpt lat="43.76892415478651" lon="11.971980411073979"><ele>1153.3333333333335</ele><time>2026-05-02T09:05:31Z</time></trkpt><trkpt lat="43.76892783273194" lon="11.972071836687103"><ele>1155.1666666666667</ele><time>2026-05-02T09:05:32Z</time></trkpt><trkpt lat="43.76893760846741" lon="11.972162780759842"><ele>1157.0</ele><time>2026-05-02T09:05:33Z</time></trkpt><trkpt lat="43.76895313584422" lon="11.972289461022761"><ele>1157.0</ele><time>2026-05-02T09:05:35Z</time></trkpt><trkpt lat="43.76894880367239" lon="11.972448519089484"><ele>1157.0</ele><time>2026-05-02T09:05:37Z</time></trkpt><trkpt lat="43.768894654030355" lon="11.972606532994877"><ele>1157.0</ele><time>2026-05-02T09:05:39Z</time></trkpt><trkpt lat="43.76888427603697" lon="11.972712831748263"><ele>1157.0</ele><time>2026-05-02T09:05:40Z</time></trkpt><trkpt lat="43.76890404844402" lon="11.97284627979391"><ele>1157.0</ele><time>2026-05-02T09:05:42Z</time></trkpt><trkpt lat="43.76891812019522" lon="11.972993613579042"><ele>1157.8333333333335</ele><time>2026-05-02T09:05:45Z</time></trkpt><trkpt lat="43.76897551192313" lon="11.973044024031527"><ele>1158.6666666666667</ele><time>2026-05-02T09:06:07Z</time></trkpt><trkpt lat="43.76895982669499" lon="11.973144418712748"><ele>1159.5</ele><time>2026-05-02T09:06:10Z</time></trkpt><trkpt lat="43.76890188679962" lon="11.97326624704719"><ele>1160.3333333333333</ele><time>2026-05-02T09:06:12Z</time></trkpt><trkpt lat="43.76885868224454" lon="11.973341550925205"><ele>1161.1666666666665</ele><time>2026-05-02T09:06:14Z</time></trkpt><trkpt lat="43.76880538328021" lon="11.973441261768697"><ele>1162.0</ele><time>2026-05-02T09:06:16Z</time></trkpt><trkpt lat="43.76875774892153" lon="11.973579980200997"><ele>1161.5</ele><time>2026-05-02T09:06:18Z</time></trkpt><trkpt lat="43.76870895289401" lon="11.97368142850991"><ele>1161.0</ele><time>2026-05-02T09:06:20Z</time></trkpt><trkpt lat="43.768653783179" lon="11.97379808976568"><ele>1160.5</ele><time>2026-05-02T09:06:22Z</time></trkpt><trkpt lat="43.76859704426017" lon="11.973883482389274"><ele>1160.0</ele><time>2026-05-02T09:06:24Z</time></trkpt><trkpt lat="43.76853948271628" lon="11.973962088729413"><ele>1159.5</ele><time>2026-05-02T09:06:27Z</time></trkpt><trkpt lat="43.76849243374464" lon="11.974051882856914"><ele>1159.0</ele><time>2026-05-02T09:06:30Z</time></trkpt><trkpt lat="43.76844659087555" lon="11.974180736710265"><ele>1159.4</ele><time>2026-05-02T09:06:32Z</time></trkpt><trkpt lat="43.768394964142104" lon="11.974345972515511"><ele>1159.8000000000002</ele><time>2026-05-02T09:06:34Z</time></trkpt><trkpt lat="43.768363902566556" lon="11.97444452401331"><ele>1160.1999999999998</ele><time>2026-05-02T09:06:35Z</time></trkpt><trkpt lat="43.76832716568924" lon="11.974560761760044"><ele>1160.6</ele><time>2026-05-02T09:06:36Z</time></trkpt><trkpt lat="43.76828925421293" lon="11.974677622317335"><ele>1161.0</ele><time>2026-05-02T09:06:37Z</time></trkpt><trkpt lat="43.768266452363314" lon="11.974790558770612"><ele>1161.0</ele><time>2026-05-02T09:06:38Z</time></trkpt><trkpt lat="43.768263658541905" lon="11.974938239904988"><ele>1161.0</ele><time>2026-05-02T09:06:40Z</time></trkpt><trkpt lat="43.76826405380326" lon="11.975027257081745"><ele>1161.0</ele><time>2026-05-02T09:06:41Z</time></trkpt><trkpt lat="43.76824424903252" lon="11.975136879144626"><ele>1161.0</ele><time>2026-05-02T09:06:42Z</time></trkpt><trkpt lat="43.76822627587293" lon="11.975223393390452"><ele>1161.0</ele><time>2026-05-02T09:06:43Z</time></trkpt><trkpt lat="43.76819486533089" lon="11.975342955227807"><ele>1161.0</ele><time>2026-05-02T09:06:44Z</time></trkpt><trkpt lat="43.76818028984239" lon="11.975437061061953"><ele>1159.6666666666667</ele><time>2026-05-02T09:06:45Z</time></trkpt><trkpt lat="43.76814622795486" lon="11.975527811706499"><ele>1158.3333333333333</ele><time>2026-05-02T09:06:46Z</time></trkpt><trkpt lat="43.76807926877091" lon="11.975622803310761"><ele>1157.0</ele><time>2026-05-02T09:06:48Z</time></trkpt><trkpt lat="43.768039183305994" lon="11.975692547298737"><ele>1155.6666666666665</ele><time>2026-05-02T09:06:49Z</time></trkpt><trkpt lat="43.768025438963825" lon="11.975790913143118"><ele>1154.3333333333333</ele><time>2026-05-02T09:06:50Z</time></trkpt><trkpt lat="43.76798224155499" lon="11.975924989476724"><ele>1153.0</ele><time>2026-05-02T09:06:51Z</time></trkpt><trkpt lat="43.76793852216442" lon="11.97602138240885"><ele>1151.6666666666665</ele><time>2026-05-02T09:06:52Z</time></trkpt><trkpt lat="43.767909654354774" lon="11.976124350145518"><ele>1150.3333333333333</ele><time>2026-05-02T09:06:53Z</time></trkpt><trkpt lat="43.76789696937305" lon="11.976225350488136"><ele>1149.0</ele><time>2026-05-02T09:06:54Z</time></trkpt><trkpt lat="43.76787827427768" lon="11.976326388246449"><ele>1147.6666666666667</ele><time>2026-05-02T09:06:55Z</time></trkpt><trkpt lat="43.76785204638364" lon="11.976454059647043"><ele>1146.3333333333335</ele><time>2026-05-02T09:06:57Z</time></trkpt><trkpt lat="43.76786724743211" lon="11.976575963193183"><ele>1145.0</ele><time>2026-05-02T09:07:01Z</time></trkpt><trkpt lat="43.767857291692586" lon="11.97666850565499"><ele>1142.6</ele><time>2026-05-02T09:07:03Z</time></trkpt><trkpt lat="43.767817518025105" lon="11.976783461449124"><ele>1140.2</ele><time>2026-05-02T09:07:05Z</time></trkpt><trkpt lat="43.76778133779456" lon="11.976917417885288"><ele>1137.8</ele><time>2026-05-02T09:07:09Z</time></trkpt><trkpt lat="43.767684073545155" lon="11.977002524851178"><ele>1135.4</ele><time>2026-05-02T09:07:11Z</time></trkpt><trkpt lat="43.767631334078104" lon="11.977051098385141"><ele>1133.0</ele><time>2026-05-02T09:07:13Z</time></trkpt><trkpt lat="43.76759533234386" lon="11.977165913167527"><ele>1139.1666666666667</ele><time>2026-05-02T09:07:16Z</time></trkpt><trkpt lat="43.76755105571401" lon="11.977266762392949"><ele>1145.3333333333335</ele><time>2026-05-02T09:07:17Z</time></trkpt><trkpt lat="43.76753265871236" lon="11.97737911500403"><ele>1151.5</ele><time>2026-05-02T09:07:19Z</time></trkpt><trkpt lat="43.76750550340132" lon="11.977489949639256"><ele>1157.6666666666667</ele><time>2026-05-02T09:07:21Z</time></trkpt><trkpt lat="43.76749408088041" lon="11.977608973073684"><ele>1163.8333333333333</ele><time>2026-05-02T09:07:23Z</time></trkpt><trkpt lat="43.76743291239161" lon="11.977698040411843"><ele>1170.0</ele><time>2026-05-02T09:07:26Z</time></trkpt><trkpt lat="43.76735962139673" lon="11.977746493117413"><ele>1170.0</ele><time>2026-05-02T09:07:29Z</time></trkpt><trkpt lat="43.76725347397987" lon="11.977750086627106"><ele>1170.0</ele><time>2026-05-02T09:07:31Z</time></trkpt><trkpt lat="43.767170133899775" lon="11.977742858588792"><ele>1170.0</ele><time>2026-05-02T09:07:34Z</time></trkpt><trkpt lat="43.76709097498107" lon="11.977691266787415"><ele>1170.0</ele><time>2026-05-02T09:07:36Z</time></trkpt><trkpt lat="43.76699228600641" lon="11.977617769304752"><ele>1170.0</ele><time>2026-05-02T09:07:39Z</time></trkpt><trkpt lat="43.76688525273663" lon="11.977594614373306"><ele>1170.8333333333333</ele><time>2026-05-02T09:07:41Z</time></trkpt><trkpt lat="43.766789775169556" lon="11.977570748751617"><ele>1171.6666666666667</ele><time>2026-05-02T09:07:43Z</time></trkpt><trkpt lat="43.76670296224326" lon="11.977585080932329"><ele>1172.5</ele><time>2026-05-02T09:07:46Z</time></trkpt><trkpt lat="43.766636830934786" lon="11.977584857490342"><ele>1173.3333333333335</ele><time>2026-05-02T09:07:48Z</time></trkpt><trkpt lat="43.76657062623311" lon="11.977580300584505"><ele>1174.1666666666667</ele><time>2026-05-02T09:07:52Z</time></trkpt><trkpt lat="43.766485797644265" lon="11.977581545231766"><ele>1175.0</ele><time>2026-05-02T09:08:15Z</time></trkpt><trkpt lat="43.76640975905165" lon="11.977589320281362"><ele>1175.0</ele><time>2026-05-02T09:08:18Z</time></trkpt><trkpt lat="43.76637513434397" lon="11.977718977033586"><ele>1175.0</ele><time>2026-05-02T09:08:21Z</time></trkpt><trkpt lat="43.76632670547263" lon="11.977838083076342"><ele>1175.0</ele><time>2026-05-02T09:08:23Z</time></trkpt><trkpt lat="43.76632470461123" lon="11.97796080788503"><ele>1175.0</ele><time>2026-05-02T09:08:24Z</time></trkpt><trkpt lat="43.766304245641955" lon="11.978089802057305"><ele>1175.0</ele><time>2026-05-02T09:08:26Z</time></trkpt><trkpt lat="43.766277413817136" lon="11.978173161408025"><ele>1175.0</ele><time>2026-05-02T09:08:28Z</time></trkpt><trkpt lat="43.766240891809616" lon="11.978279700678"><ele>1173.857142857143</ele><time>2026-05-02T09:08:30Z</time></trkpt><trkpt lat="43.76619341425461" lon="11.978362371797898"><ele>1172.7142857142858</ele><time>2026-05-02T09:08:32Z</time></trkpt><trkpt lat="43.76613605379644" lon="11.978423212586724"><ele>1171.5714285714287</ele><time>2026-05-02T09:08:35Z</time></trkpt><trkpt lat="43.766105000969965" lon="11.978501700144982"><ele>1170.4285714285716</ele><time>2026-05-02T09:08:43Z</time></trkpt><trkpt lat="43.766048121579836" lon="11.978574764930908"><ele>1169.2857142857144</ele><time>2026-05-02T09:08:46Z</time></trkpt><trkpt lat="43.7660010015275" lon="11.978656514915189"><ele>1168.142857142857</ele><time>2026-05-02T09:08:48Z</time></trkpt><trkpt lat="43.765965985056276" lon="11.97874440827731"><ele>1167.0</ele><time>2026-05-02T09:08:50Z</time></trkpt><trkpt lat="43.76590643151265" lon="11.978837474335688"><ele>1167.0</ele><time>2026-05-02T09:08:53Z</time></trkpt><trkpt lat="43.765886665150646" lon="11.978929129617987"><ele>1167.0</ele><time>2026-05-02T09:08:56Z</time></trkpt><trkpt lat="43.765808105357785" lon="11.979015371729611"><ele>1167.0</ele><time>2026-05-02T09:08:58Z</time></trkpt><trkpt lat="43.76575603702991" lon="11.97907852535711"><ele>1167.0</ele><time>2026-05-02T09:09:00Z</time></trkpt><trkpt lat="43.765738384611346" lon="11.979163335924763"><ele>1167.0</ele><time>2026-05-02T09:09:03Z</time></trkpt><trkpt lat="43.76569979485608" lon="11.97923390018465"><ele>1167.0</ele><time>2026-05-02T09:09:06Z</time></trkpt><trkpt lat="43.765637853254226" lon="11.979286301694803"><ele>1167.0</ele><time>2026-05-02T09:09:16Z</time></trkpt><trkpt lat="43.765580411821226" lon="11.979349985762637"><ele>1164.0</ele><time>2026-05-02T09:09:21Z</time></trkpt><trkpt lat="43.76553624066438" lon="11.979432849173188"><ele>1161.0</ele><time>2026-05-02T09:09:24Z</time></trkpt><trkpt lat="43.76552654755888" lon="11.979529925703305"><ele>1158.0</ele><time>2026-05-02T09:09:27Z</time></trkpt><trkpt lat="43.765535195372344" lon="11.979640701397203"><ele>1155.0</ele><time>2026-05-02T09:09:30Z</time></trkpt><trkpt lat="43.76547758824135" lon="11.97976225376813"><ele>1152.0</ele><time>2026-05-02T09:09:33Z</time></trkpt><trkpt lat="43.7654070101083" lon="11.979867387588666"><ele>1149.0</ele><time>2026-05-02T09:09:35Z</time></trkpt><trkpt lat="43.7653697306838" lon="11.979991443212452"><ele>1146.8333333333333</ele><time>2026-05-02T09:09:37Z</time></trkpt><trkpt lat="43.765307847103045" lon="11.980093901403295"><ele>1144.6666666666667</ele><time>2026-05-02T09:09:39Z</time></trkpt><trkpt lat="43.765288762104234" lon="11.980182971818314"><ele>1142.5</ele><time>2026-05-02T09:09:41Z</time></trkpt><trkpt lat="43.76523902989131" lon="11.980309422723627"><ele>1140.3333333333335</ele><time>2026-05-02T09:09:43Z</time></trkpt><trkpt lat="43.76522600687353" lon="11.980418998665996"><ele>1138.1666666666667</ele><time>2026-05-02T09:09:46Z</time></trkpt><trkpt lat="43.765224937885726" lon="11.980554953535126"><ele>1136.0</ele><time>2026-05-02T09:09:48Z</time></trkpt><trkpt lat="43.76518720858447" lon="11.98067723352178"><ele>1143.3333333333335</ele><time>2026-05-02T09:09:50Z</time></trkpt><trkpt lat="43.76517762162296" lon="11.980814970085513"><ele>1150.6666666666667</ele><time>2026-05-02T09:09:52Z</time></trkpt><trkpt lat="43.76516746458124" lon="11.980952130781711"><ele>1158.0</ele><time>2026-05-02T09:09:54Z</time></trkpt><trkpt lat="43.765124382699796" lon="11.981047155182635"><ele>1165.3333333333333</ele><time>2026-05-02T09:09:55Z</time></trkpt><trkpt lat="43.76508444530667" lon="11.981134585494088"><ele>1172.6666666666665</ele><time>2026-05-02T09:09:56Z</time></trkpt><trkpt lat="43.765059812132726" lon="11.9812281977065"><ele>1180.0</ele><time>2026-05-02T09:09:57Z</time></trkpt><trkpt lat="43.76504794844043" lon="11.981378456058964"><ele>1181.3333333333333</ele><time>2026-05-02T09:09:59Z</time></trkpt><trkpt lat="43.76501935952053" lon="11.981468338973176"><ele>1182.6666666666665</ele><time>2026-05-02T09:10:01Z</time></trkpt><trkpt lat="43.76500480559674" lon="11.981581044418046"><ele>1184.0</ele><time>2026-05-02T09:10:03Z</time></trkpt><trkpt lat="43.76502241852669" lon="11.981695586236317"><ele>1185.3333333333333</ele><time>2026-05-02T09:10:05Z</time></trkpt><trkpt lat="43.76502845245008" lon="11.981805606628688"><ele>1186.6666666666667</ele><time>2026-05-02T09:10:07Z</time></trkpt><trkpt lat="43.76498319190086" lon="11.981922420600183"><ele>1188.0</ele><time>2026-05-02T09:10:09Z</time></trkpt><trkpt lat="43.764964649717044" lon="11.982019276724165"><ele>1188.4</ele><time>2026-05-02T09:10:11Z</time></trkpt><trkpt lat="43.764933746091295" lon="11.982103129495176"><ele>1188.8</ele><time>2026-05-02T09:10:12Z</time></trkpt><trkpt lat="43.764855896576854" lon="11.982221013976421"><ele>1189.2</ele><time>2026-05-02T09:10:14Z</time></trkpt><trkpt lat="43.76478638022418" lon="11.98232652452997"><ele>1189.6</ele><time>2026-05-02T09:10:17Z</time></trkpt><trkpt lat="43.76473589650664" lon="11.982393435310792"><ele>1190.0</ele><time>2026-05-02T09:10:19Z</time></trkpt><trkpt lat="43.764670838938734" lon="11.982500713343436"><ele>1189.1666666666667</ele><time>2026-05-02T09:10:22Z</time></trkpt><trkpt lat="43.764677920495956" lon="11.982612138735586"><ele>1188.3333333333335</ele><time>2026-05-02T09:10:24Z</time></trkpt><trkpt lat="43.764618366851735" lon="11.982688246960906"><ele>1187.5</ele><time>2026-05-02T09:10:27Z</time></trkpt><trkpt lat="43.764544676252285" lon="11.982740477851028"><ele>1186.6666666666667</ele><time>2026-05-02T09:10:29Z</time></trkpt><trkpt lat="43.76446743340759" lon="11.98281920365546"><ele>1185.8333333333333</ele><time>2026-05-02T09:10:32Z</time></trkpt><trkpt lat="43.76438570442551" lon="11.982878155233943"><ele>1185.0</ele><time>2026-05-02T09:10:34Z</time></trkpt><trkpt lat="43.764320464819974" lon="11.982929934107982"><ele>1188.0</ele><time>2026-05-02T09:10:35Z</time></trkpt><trkpt lat="43.76426580337712" lon="11.982976021795794"><ele>1191.0</ele><time>2026-05-02T09:10:36Z</time></trkpt><trkpt lat="43.764183683206966" lon="11.983044754845254"><ele>1194.0</ele><time>2026-05-02T09:10:38Z</time></trkpt><trkpt lat="43.7641271758759" lon="11.983118300607472"><ele>1197.0</ele><time>2026-05-02T09:10:41Z</time></trkpt><trkpt lat="43.76406211038403" lon="11.98316745880059"><ele>1200.0</ele><time>2026-05-02T09:10:43Z</time></trkpt><trkpt lat="43.76399364468206" lon="11.983277090991871"><ele>1203.0</ele><time>2026-05-02T09:10:46Z</time></trkpt><trkpt lat="43.76391710469269" lon="11.983330983014545"><ele>1199.0</ele><time>2026-05-02T09:10:48Z</time></trkpt><trkpt lat="43.763806062167596" lon="11.983402018351148"><ele>1195.0</ele><time>2026-05-02T09:10:50Z</time></trkpt><trkpt lat="43.76370592289448" lon="11.983452674939372"><ele>1191.0</ele><time>2026-05-02T09:10:52Z</time></trkpt><trkpt lat="43.763651292349216" lon="11.98351277072338"><ele>1187.0</ele><time>2026-05-02T09:10:54Z</time></trkpt><trkpt lat="43.76354003678141" lon="11.983591914153585"><ele>1183.0</ele><time>2026-05-02T09:10:56Z</time></trkpt><trkpt lat="43.76343571603943" lon="11.983694591646206"><ele>1183.0</ele><time>2026-05-02T09:10:58Z</time></trkpt><trkpt lat="43.763320382457735" lon="11.983734669359905"><ele>1183.0</ele><time>2026-05-02T09:11:00Z</time></trkpt><trkpt lat="43.76325365475571" lon="11.983740418896396"><ele>1183.0</ele><time>2026-05-02T09:11:02Z</time></trkpt><trkpt lat="43.763189741137474" lon="11.983755231063277"><ele>1183.0</ele><time>2026-05-02T09:11:04Z</time></trkpt><trkpt lat="43.76314200951481" lon="11.983827012547192"><ele>1183.0</ele><time>2026-05-02T09:11:07Z</time></trkpt><trkpt lat="43.76308467463242" lon="11.983894689108448"><ele>1183.0</ele><time>2026-05-02T09:11:28Z</time></trkpt><trkpt lat="43.76301481207857" lon="11.983946454687809"><ele>1183.0</ele><time>2026-05-02T09:11:32Z</time></trkpt><trkpt lat="43.76298019636069" lon="11.984039337579485"><ele>1183.0</ele><time>2026-05-02T09:11:40Z</time></trkpt><trkpt lat="43.76293074140662" lon="11.984101772609574"><ele>1183.0</ele><time>2026-05-02T09:11:42Z</time></trkpt><trkpt lat="43.76288449344018" lon="11.98417340737589"><ele>1183.0</ele><time>2026-05-02T09:11:45Z</time></trkpt><trkpt lat="43.762765129586136" lon="11.98427978422687"><ele>1183.0</ele><time>2026-05-02T09:13:02Z</time></trkpt><trkpt lat="43.762699056401345" lon="11.984262682591835"><ele>1183.0</ele><time>2026-05-02T09:13:04Z</time></trkpt><trkpt lat="43.76264252635632" lon="11.984313839756622"><ele>1184.8333333333333</ele><time>2026-05-02T09:13:06Z</time></trkpt><trkpt lat="43.762600469994055" lon="11.984424906068915"><ele>1186.6666666666665</ele><time>2026-05-02T09:15:28Z</time></trkpt><trkpt lat="43.762556270354274" lon="11.984517130414513"><ele>1188.5</ele><time>2026-05-02T09:15:31Z</time></trkpt><trkpt lat="43.76249876480526" lon="11.984593886624143"><ele>1190.3333333333333</ele><time>2026-05-02T09:16:02Z</time></trkpt><trkpt lat="43.76248462580758" lon="11.984693069705413"><ele>1192.1666666666667</ele><time>2026-05-02T09:16:06Z</time></trkpt><trkpt lat="43.76248676405475" lon="11.984817756250324"><ele>1194.0</ele><time>2026-05-02T09:16:10Z</time></trkpt><trkpt lat="43.76247048700958" lon="11.984926073520764"><ele>1194.0000000000002</ele><time>2026-05-02T09:16:13Z</time></trkpt><trkpt lat="43.76245308607001" lon="11.985018945829118"><ele>1194.0</ele><time>2026-05-02T09:16:15Z</time></trkpt><trkpt lat="43.76244032863589" lon="11.985104845520665"><ele>1194.0</ele><time>2026-05-02T09:16:17Z</time></trkpt><trkpt lat="43.762410310783416" lon="11.985182253868622"><ele>1194.0</ele><time>2026-05-02T09:16:20Z</time></trkpt><trkpt lat="43.7623388991151" lon="11.985244589835268"><ele>1194.0</ele><time>2026-05-02T09:16:42Z</time></trkpt><trkpt lat="43.76228276738224" lon="11.985284739580402"><ele>1194.0000000000002</ele><time>2026-05-02T09:17:25Z</time></trkpt><trkpt lat="43.76220229665219" lon="11.985248924050866"><ele>1194.0</ele><time>2026-05-02T09:17:27Z</time></trkpt><trkpt lat="43.76215086025103" lon="11.985300054393475"><ele>1194.0000000000002</ele><time>2026-05-02T09:17:30Z</time></trkpt><trkpt lat="43.7621929918151" lon="11.985407458386794"><ele>1194.0</ele><time>2026-05-02T09:18:46Z</time></trkpt><trkpt lat="43.76220201482961" lon="11.985511533131984"><ele>1194.0</ele><time>2026-05-02T09:19:49Z</time></trkpt><trkpt lat="43.7621846636537" lon="11.985617635998027"><ele>1194.0</ele><time>2026-05-02T09:19:52Z</time></trkpt><trkpt lat="43.76216835238954" lon="11.98570193297152"><ele>1194.0</ele><time>2026-05-02T09:19:54Z</time></trkpt><trkpt lat="43.762132310410415" lon="11.985787476173684"><ele>1194.0000000000002</ele><time>2026-05-02T09:19:57Z</time></trkpt><trkpt lat="43.76212765462717" lon="11.985879335512118"><ele>1194.0</ele><time>2026-05-02T09:20:01Z</time></trkpt><trkpt lat="43.76208473656757" lon="11.985985320884252"><ele>1193.857142857143</ele><time>2026-05-02T09:20:39Z</time></trkpt><trkpt lat="43.762084558222156" lon="11.986083092368817"><ele>1193.7142857142858</ele><time>2026-05-02T09:20:41Z</time></trkpt><trkpt lat="43.76204470222829" lon="11.986163293990304"><ele>1193.5714285714284</ele><time>2026-05-02T09:20:56Z</time></trkpt><trkpt lat="43.762034146017584" lon="11.986253019450775"><ele>1193.4285714285716</ele><time>2026-05-02T09:21:00Z</time></trkpt><trkpt lat="43.76200132922213" lon="11.986339790914867"><ele>1193.2857142857142</ele><time>2026-05-02T09:21:07Z</time></trkpt><trkpt lat="43.761997025040216" lon="11.986436765289262"><ele>1193.142857142857</ele><time>2026-05-02T09:21:09Z</time></trkpt><trkpt lat="43.761937898998994" lon="11.986484405716347"><ele>1193.0</ele><time>2026-05-02T09:21:15Z</time></trkpt><trkpt lat="43.76188980726683" lon="11.986545976464042"><ele>1198.3333333333335</ele><time>2026-05-02T09:21:45Z</time></trkpt><trkpt lat="43.76181971862687" lon="11.986524820468015"><ele>1203.6666666666667</ele><time>2026-05-02T09:21:47Z</time></trkpt><trkpt lat="43.76174168565009" lon="11.986529835716288"><ele>1209.0</ele><time>2026-05-02T09:21:49Z</time></trkpt><trkpt lat="43.76165901924272" lon="11.986508275705324"><ele>1214.3333333333333</ele><time>2026-05-02T09:21:51Z</time></trkpt><trkpt lat="43.76156505718971" lon="11.986492538876044"><ele>1219.6666666666665</ele><time>2026-05-02T09:21:54Z</time></trkpt><trkpt lat="43.761479817797166" lon="11.986460645812823"><ele>1225.0</ele><time>2026-05-02T09:21:57Z</time></trkpt><trkpt lat="43.76139895047188" lon="11.986451967341296"><ele>1225.0</ele><time>2026-05-02T09:22:01Z</time></trkpt><trkpt lat="43.76131607848206" lon="11.98646800562114"><ele>1225.0</ele><time>2026-05-02T09:22:05Z</time></trkpt><trkpt lat="43.76124426241132" lon="11.986436823811587"><ele>1225.0</ele><time>2026-05-02T09:22:08Z</time></trkpt><trkpt lat="43.7611734158918" lon="11.986395440388442"><ele>1225.0</ele><time>2026-05-02T09:22:10Z</time></trkpt><trkpt lat="43.761103568752304" lon="11.986353245998616"><ele>1225.0</ele><time>2026-05-02T09:22:13Z</time></trkpt><trkpt lat="43.76102613943097" lon="11.986317005900208"><ele>1225.0</ele><time>2026-05-02T09:22:15Z</time></trkpt><trkpt lat="43.76096188882184" lon="11.986270110718461"><ele>1223.3333333333333</ele><time>2026-05-02T09:22:18Z</time></trkpt><trkpt lat="43.76088485349697" lon="11.986247851493694"><ele>1221.6666666666665</ele><time>2026-05-02T09:22:21Z</time></trkpt><trkpt lat="43.76080325055555" lon="11.986207047812222"><ele>1220.0</ele><time>2026-05-02T09:22:24Z</time></trkpt><trkpt lat="43.76071904994485" lon="11.986159079164286"><ele>1218.3333333333333</ele><time>2026-05-02T09:22:27Z</time></trkpt><trkpt lat="43.760653096923676" lon="11.986132182209424"><ele>1216.6666666666667</ele><time>2026-05-02T09:22:29Z</time></trkpt><trkpt lat="43.76058945563704" lon="11.986147208738693"><ele>1215.0</ele><time>2026-05-02T09:22:32Z</time></trkpt><trkpt lat="43.7605205976143" lon="11.986169536119656"><ele>1215.0000000000002</ele><time>2026-05-02T09:22:35Z</time></trkpt><trkpt lat="43.7604468749065" lon="11.986192197504048"><ele>1215.0</ele><time>2026-05-02T09:22:40Z</time></trkpt><trkpt lat="43.760376716263785" lon="11.986213672619709"><ele>1215.0</ele><time>2026-05-02T09:22:51Z</time></trkpt><trkpt lat="43.76031464275669" lon="11.986245180747256"><ele>1215.0</ele><time>2026-05-02T09:22:58Z</time></trkpt><trkpt lat="43.760249333901896" lon="11.986237189885255"><ele>1215.0</ele><time>2026-05-02T09:23:01Z</time></trkpt><trkpt lat="43.76017728253146" lon="11.986245678031729"><ele>1215.0000000000002</ele><time>2026-05-02T09:23:04Z</time></trkpt><trkpt lat="43.760106458147334" lon="11.986212455627564"><ele>1215.0</ele><time>2026-05-02T09:23:07Z</time></trkpt><trkpt lat="43.760029756903485" lon="11.98620661104434"><ele>1212.5</ele><time>2026-05-02T09:23:10Z</time></trkpt><trkpt lat="43.75994926649788" lon="11.986173917435938"><ele>1210.0</ele><time>2026-05-02T09:23:12Z</time></trkpt><trkpt lat="43.75984114109958" lon="11.986131679873068"><ele>1207.5</ele><time>2026-05-02T09:23:14Z</time></trkpt><trkpt lat="43.7597812069388" lon="11.98609998194679"><ele>1205.0</ele><time>2026-05-02T09:23:16Z</time></trkpt><trkpt lat="43.75968814804616" lon="11.986099113400952"><ele>1202.5</ele><time>2026-05-02T09:23:19Z</time></trkpt><trkpt lat="43.75959829874426" lon="11.986100240473398"><ele>1200.0</ele><time>2026-05-02T09:23:22Z</time></trkpt><trkpt lat="43.759526554600804" lon="11.986112621503793"><ele>1200.0</ele><time>2026-05-02T09:23:24Z</time></trkpt><trkpt lat="43.75944079512552" lon="11.986101569711542"><ele>1200.0</ele><time>2026-05-02T09:23:26Z</time></trkpt><trkpt lat="43.75937024249409" lon="11.98611772107323"><ele>1200.0</ele><time>2026-05-02T09:23:29Z</time></trkpt><trkpt lat="43.759307094186205" lon="11.986133982927853"><ele>1200.0</ele><time>2026-05-02T09:23:31Z</time></trkpt><trkpt lat="43.75923854965671" lon="11.986119917321624"><ele>1200.0</ele><time>2026-05-02T09:23:34Z</time></trkpt><trkpt lat="43.75914214216503" lon="11.986117922629484"><ele>1200.0</ele><time>2026-05-02T09:23:37Z</time></trkpt><trkpt lat="43.75905946380342" lon="11.9860834101748"><ele>1197.5714285714284</ele><time>2026-05-02T09:23:39Z</time></trkpt><trkpt lat="43.75898740860345" lon="11.986072024714744"><ele>1195.142857142857</ele><time>2026-05-02T09:23:43Z</time></trkpt><trkpt lat="43.75890907038935" lon="11.98607206341918"><ele>1192.7142857142858</ele><time>2026-05-02T09:23:47Z</time></trkpt><trkpt lat="43.758834270522506" lon="11.986078311661071"><ele>1190.2857142857142</ele><time>2026-05-02T09:23:51Z</time></trkpt><trkpt lat="43.758771362170194" lon="11.986089157505642"><ele>1187.857142857143</ele><time>2026-05-02T09:23:54Z</time></trkpt><trkpt lat="43.758704253615875" lon="11.986133795935112"><ele>1185.4285714285713</ele><time>2026-05-02T09:23:58Z</time></trkpt><trkpt lat="43.758627261968606" lon="11.986173926349869"><ele>1183.0</ele><time>2026-05-02T09:24:01Z</time></trkpt><trkpt lat="43.75856578243003" lon="11.98615383249435"><ele>1182.7142857142858</ele><time>2026-05-02T09:24:03Z</time></trkpt><trkpt lat="43.758494133498345" lon="11.986079571546393"><ele>1182.4285714285716</ele><time>2026-05-02T09:24:06Z</time></trkpt><trkpt lat="43.758469438857006" lon="11.985999374686049"><ele>1182.142857142857</ele><time>2026-05-02T09:24:08Z</time></trkpt><trkpt lat="43.75845003295393" lon="11.985912294477174"><ele>1181.857142857143</ele><time>2026-05-02T09:24:10Z</time></trkpt><trkpt lat="43.75841644845819" lon="11.98581465765858"><ele>1181.5714285714287</ele><time>2026-05-02T09:24:13Z</time></trkpt><trkpt lat="43.75838180439332" lon="11.985741497918392"><ele>1181.2857142857142</ele><time>2026-05-02T09:24:15Z</time></trkpt><trkpt lat="43.75832758862971" lon="11.985683421518939"><ele>1181.0</ele><time>2026-05-02T09:24:18Z</time></trkpt><trkpt lat="43.758266121903745" lon="11.98563040169901"><ele>1181.0</ele><time>2026-05-02T09:24:20Z</time></trkpt><trkpt lat="43.75820677688002" lon="11.985591355060192"><ele>1181.0</ele><time>2026-05-02T09:24:21Z</time></trkpt><trkpt lat="43.75814325688468" lon="11.985549063047836"><ele>1181.0</ele><time>2026-05-02T09:24:22Z</time></trkpt><trkpt lat="43.75807983264455" lon="11.985531176369454"><ele>1181.0</ele><time>2026-05-02T09:24:23Z</time></trkpt><trkpt lat="43.75801432225169" lon="11.98548092701574"><ele>1181.0</ele><time>2026-05-02T09:24:25Z</time></trkpt><trkpt lat="43.757917836502216" lon="11.98540671151569"><ele>1181.0</ele><time>2026-05-02T09:24:27Z</time></trkpt><trkpt lat="43.757845036941255" lon="11.98537860986304"><ele>1181.0</ele><time>2026-05-02T09:24:28Z</time></trkpt><trkpt lat="43.75773960245889" lon="11.985329577602755"><ele>1181.0</ele><time>2026-05-02T09:24:30Z</time></trkpt><trkpt lat="43.7576499560819" lon="11.985346945167374"><ele>1181.0</ele><time>2026-05-02T09:24:32Z</time></trkpt><trkpt lat="43.75757357439572" lon="11.985372085800387"><ele>1181.0</ele><time>2026-05-02T09:24:33Z</time></trkpt><trkpt lat="43.75745367289214" lon="11.985382445478537"><ele>1181.0</ele><time>2026-05-02T09:24:35Z</time></trkpt><trkpt lat="43.757354922821825" lon="11.985375442209149"><ele>1179.8333333333335</ele><time>2026-05-02T09:24:37Z</time></trkpt><trkpt lat="43.757293188939435" lon="11.985354174477964"><ele>1178.6666666666667</ele><time>2026-05-02T09:24:38Z</time></trkpt><trkpt lat="43.75721786590266" lon="11.985304198704462"><ele>1177.5</ele><time>2026-05-02T09:24:40Z</time></trkpt><trkpt lat="43.75714213728024" lon="11.985259615317466"><ele>1176.3333333333333</ele><time>2026-05-02T09:24:42Z</time></trkpt><trkpt lat="43.75707798696532" lon="11.985238751000669"><ele>1175.1666666666665</ele><time>2026-05-02T09:24:43Z</time></trkpt><trkpt lat="43.75697669256124" lon="11.985184082737877"><ele>1174.0</ele><time>2026-05-02T09:24:45Z</time></trkpt><trkpt lat="43.75691276103439" lon="11.98516851610106"><ele>1173.3333333333333</ele><time>2026-05-02T09:24:46Z</time></trkpt><trkpt lat="43.75684030714064" lon="11.985134011266007"><ele>1172.6666666666665</ele><time>2026-05-02T09:24:52Z</time></trkpt><trkpt lat="43.75676785077323" lon="11.985052950213783"><ele>1172.0</ele><time>2026-05-02T09:24:54Z</time></trkpt><trkpt lat="43.75668930027079" lon="11.984986657982027"><ele>1171.3333333333333</ele><time>2026-05-02T09:24:56Z</time></trkpt><trkpt lat="43.75663516143525" lon="11.98493436819667"><ele>1170.6666666666667</ele><time>2026-05-02T09:24:57Z</time></trkpt><trkpt lat="43.75657754243194" lon="11.984875937459167"><ele>1170.0</ele><time>2026-05-02T09:24:58Z</time></trkpt><trkpt lat="43.756490520331646" lon="11.984770913161233"><ele>1173.2</ele><time>2026-05-02T09:25:00Z</time></trkpt><trkpt lat="43.7564239691563" lon="11.984659945385959"><ele>1176.4</ele><time>2026-05-02T09:25:02Z</time></trkpt><trkpt lat="43.75632330695468" lon="11.984646165216896"><ele>1179.6</ele><time>2026-05-02T09:25:05Z</time></trkpt><trkpt lat="43.756265015566846" lon="11.984682951376847"><ele>1182.8</ele><time>2026-05-02T09:25:06Z</time></trkpt><trkpt lat="43.75615249069159" lon="11.984717706253935"><ele>1186.0</ele><time>2026-05-02T09:25:08Z</time></trkpt><trkpt lat="43.75605722205961" lon="11.984758932101498"><ele>1187.0</ele><time>2026-05-02T09:25:10Z</time></trkpt><trkpt lat="43.75598483632747" lon="11.98481110901826"><ele>1188.0</ele><time>2026-05-02T09:25:12Z</time></trkpt><trkpt lat="43.755911685193176" lon="11.98484606554334"><ele>1189.0</ele><time>2026-05-02T09:25:13Z</time></trkpt><trkpt lat="43.75584986019066" lon="11.98489443291175"><ele>1190.0</ele><time>2026-05-02T09:25:14Z</time></trkpt><trkpt lat="43.75572662037208" lon="11.98494892298456"><ele>1191.0</ele><time>2026-05-02T09:25:16Z</time></trkpt><trkpt lat="43.75562888121582" lon="11.98496690646273"><ele>1191.0</ele><time>2026-05-02T09:25:18Z</time></trkpt><trkpt lat="43.75552057489101" lon="11.984967989649295"><ele>1191.0</ele><time>2026-05-02T09:25:20Z</time></trkpt><trkpt lat="43.7554094693462" lon="11.984994060799142"><ele>1191.0</ele><time>2026-05-02T09:25:22Z</time></trkpt><trkpt lat="43.75530246452445" lon="11.985040374334996"><ele>1191.0</ele><time>2026-05-02T09:25:24Z</time></trkpt><trkpt lat="43.75524175277861" lon="11.985068846019452"><ele>1191.0</ele><time>2026-05-02T09:25:25Z</time></trkpt><trkpt lat="43.755168235682454" lon="11.985088073487212"><ele>1191.5</ele><time>2026-05-02T09:25:27Z</time></trkpt><trkpt lat="43.75509054759626" lon="11.985049197221423"><ele>1192.0</ele><time>2026-05-02T09:25:29Z</time></trkpt><trkpt lat="43.75502474640967" lon="11.985014400723474"><ele>1192.5</ele><time>2026-05-02T09:25:32Z</time></trkpt><trkpt lat="43.754936094216426" lon="11.985011461340694"><ele>1193.0</ele><time>2026-05-02T09:25:34Z</time></trkpt><trkpt lat="43.75487450246883" lon="11.984954238317663"><ele>1193.5</ele><time>2026-05-02T09:25:36Z</time></trkpt><trkpt lat="43.75478798978791" lon="11.984911528800184"><ele>1194.0</ele><time>2026-05-02T09:25:40Z</time></trkpt><trkpt lat="43.75470300996448" lon="11.984862399408414"><ele>1194.0</ele><time>2026-05-02T09:25:43Z</time></trkpt><trkpt lat="43.75461749888952" lon="11.984802084663237"><ele>1194.0</ele><time>2026-05-02T09:25:45Z</time></trkpt><trkpt lat="43.75453205479088" lon="11.98475702661939"><ele>1194.0</ele><time>2026-05-02T09:25:48Z</time></trkpt><trkpt lat="43.754483129996125" lon="11.984661487593973"><ele>1194.0</ele><time>2026-05-02T09:25:51Z</time></trkpt><trkpt lat="43.754431680462034" lon="11.984592874908973"><ele>1194.0</ele><time>2026-05-02T09:25:52Z</time></trkpt><trkpt lat="43.75439413400366" lon="11.984498459245208"><ele>1194.0</ele><time>2026-05-02T09:25:54Z</time></trkpt><trkpt lat="43.75429803440378" lon="11.984425975193634"><ele>1191.75</ele><time>2026-05-02T09:25:56Z</time></trkpt><trkpt lat="43.75419878844797" lon="11.98435307397283"><ele>1189.5</ele><time>2026-05-02T09:25:58Z</time></trkpt><trkpt lat="43.75405340228947" lon="11.984212989183964"><ele>1187.25</ele><time>2026-05-02T09:26:00Z</time></trkpt><trkpt lat="43.75393841577559" lon="11.98418379743554"><ele>1185.0</ele><time>2026-05-02T09:26:02Z</time></trkpt><trkpt lat="43.753842510072005" lon="11.98417831395887"><ele>1183.0</ele><time>2026-05-02T09:26:04Z</time></trkpt><trkpt lat="43.75372804307041" lon="11.984140709421352"><ele>1181.0</ele><time>2026-05-02T09:26:06Z</time></trkpt><trkpt lat="43.753625528024216" lon="11.984077607254449"><ele>1179.0</ele><time>2026-05-02T09:26:08Z</time></trkpt><trkpt lat="43.753437828105604" lon="11.984033209103428"><ele>1177.0</ele><time>2026-05-02T09:26:19Z</time></trkpt><trkpt lat="43.75337183948873" lon="11.98401687045206"><ele>1177.0</ele><time>2026-05-02T09:26:21Z</time></trkpt><trkpt lat="43.75328864723767" lon="11.983991640403195"><ele>1177.0</ele><time>2026-05-02T09:26:24Z</time></trkpt><trkpt lat="43.7531956402762" lon="11.983954716363042"><ele>1177.0</ele><time>2026-05-02T09:26:26Z</time></trkpt><trkpt lat="43.75309080494494" lon="11.983959068805367"><ele>1177.0</ele><time>2026-05-02T09:26:28Z</time></trkpt><trkpt lat="43.753006647439825" lon="11.983921332274937"><ele>1177.0</ele><time>2026-05-02T09:26:30Z</time></trkpt><trkpt lat="43.75291333053754" lon="11.983917999306733"><ele>1177.0</ele><time>2026-05-02T09:26:33Z</time></trkpt><trkpt lat="43.752828743175286" lon="11.983933551986972"><ele>1177.0</ele><time>2026-05-02T09:26:36Z</time></trkpt><trkpt lat="43.75276363789369" lon="11.983881865212803"><ele>1177.0</ele><time>2026-05-02T09:26:38Z</time></trkpt><trkpt lat="43.75268895453679" lon="11.983835439026732"><ele>1177.0</ele><time>2026-05-02T09:26:40Z</time></trkpt><trkpt lat="43.75259983012003" lon="11.983754108324202"><ele>1177.0</ele><time>2026-05-02T09:26:42Z</time></trkpt><trkpt lat="43.75252609300435" lon="11.983676484589058"><ele>1177.0</ele><time>2026-05-02T09:26:44Z</time></trkpt><trkpt lat="43.75245319557066" lon="11.983573185046724"><ele>1175.1666666666665</ele><time>2026-05-02T09:26:46Z</time></trkpt><trkpt lat="43.7523931922697" lon="11.983476964147119"><ele>1173.3333333333333</ele><time>2026-05-02T09:26:48Z</time></trkpt><trkpt lat="43.752319204298715" lon="11.983407937653784"><ele>1171.5</ele><time>2026-05-02T09:26:52Z</time></trkpt><trkpt lat="43.75219126687835" lon="11.983389586302534"><ele>1169.6666666666667</ele><time>2026-05-02T09:26:54Z</time></trkpt><trkpt lat="43.75212853975797" lon="11.9834148076785"><ele>1167.8333333333335</ele><time>2026-05-02T09:26:55Z</time></trkpt><trkpt lat="43.752061725987716" lon="11.983439964346182"><ele>1166.0</ele><time>2026-05-02T09:26:56Z</time></trkpt><trkpt lat="43.75197004741884" lon="11.983500107918488"><ele>1166.0000000000002</ele><time>2026-05-02T09:26:58Z</time></trkpt><trkpt lat="43.75190169436645" lon="11.983497218668344"><ele>1166.0</ele><time>2026-05-02T09:27:00Z</time></trkpt><trkpt lat="43.751833734940824" lon="11.983478784682129"><ele>1166.0</ele><time>2026-05-02T09:27:01Z</time></trkpt><trkpt lat="43.75175522486716" lon="11.98346988298818"><ele>1166.0</ele><time>2026-05-02T09:27:02Z</time></trkpt><trkpt lat="43.75169143096857" lon="11.983444849034345"><ele>1166.0</ele><time>2026-05-02T09:27:03Z</time></trkpt><trkpt lat="43.75160919890948" lon="11.983436171043769"><ele>1166.0000000000002</ele><time>2026-05-02T09:27:04Z</time></trkpt><trkpt lat="43.751534035228225" lon="11.98344197424864"><ele>1166.0</ele><time>2026-05-02T09:27:05Z</time></trkpt><trkpt lat="43.75146792962547" lon="11.983436899592903"><ele>1165.0</ele><time>2026-05-02T09:27:08Z</time></trkpt><trkpt lat="43.7514048637007" lon="11.983353186614309"><ele>1164.0</ele><time>2026-05-02T09:27:10Z</time></trkpt><trkpt lat="43.751349601299324" lon="11.9832706898029"><ele>1163.0</ele><time>2026-05-02T09:27:12Z</time></trkpt><trkpt lat="43.75131881992691" lon="11.983146563546777"><ele>1162.0</ele><time>2026-05-02T09:27:14Z</time></trkpt><trkpt lat="43.75132642215922" lon="11.98302374642252"><ele>1161.0</ele><time>2026-05-02T09:27:16Z</time></trkpt><trkpt lat="43.7513219525791" lon="11.982914171593428"><ele>1160.0</ele><time>2026-05-02T09:27:18Z</time></trkpt><trkpt lat="43.75127452458406" lon="11.982771214110008"><ele>1160.0</ele><time>2026-05-02T09:27:21Z</time></trkpt><trkpt lat="43.75122431088184" lon="11.982681696606214"><ele>1160.0</ele><time>2026-05-02T09:27:23Z</time></trkpt><trkpt lat="43.75116381237405" lon="11.9825821549688"><ele>1160.0</ele><time>2026-05-02T09:27:25Z</time></trkpt><trkpt lat="43.75110759324001" lon="11.982481978888922"><ele>1160.0</ele><time>2026-05-02T09:27:27Z</time></trkpt><trkpt lat="43.751060759697545" lon="11.982415058857207"><ele>1160.0</ele><time>2026-05-02T09:27:29Z</time></trkpt><trkpt lat="43.75099558470873" lon="11.98236146378001"><ele>1160.0</ele><time>2026-05-02T09:27:32Z</time></trkpt><trkpt lat="43.750912603797865" lon="11.982331732131755"><ele>1159.3333333333335</ele><time>2026-05-02T09:27:34Z</time></trkpt><trkpt lat="43.7508208854056" lon="11.98231428032478"><ele>1158.6666666666667</ele><time>2026-05-02T09:27:36Z</time></trkpt><trkpt lat="43.75073057493517" lon="11.982313454529361"><ele>1158.0</ele><time>2026-05-02T09:27:38Z</time></trkpt><trkpt lat="43.750649381469664" lon="11.982277582415703"><ele>1157.3333333333333</ele><time>2026-05-02T09:27:42Z</time></trkpt><trkpt lat="43.75057864066193" lon="11.982217942783908"><ele>1156.6666666666665</ele><time>2026-05-02T09:27:45Z</time></trkpt><trkpt lat="43.75051105894778" lon="11.982207268662862"><ele>1156.0</ele><time>2026-05-02T09:27:47Z</time></trkpt><trkpt lat="43.7504342265739" lon="11.982200684906378"><ele>1156.0</ele><time>2026-05-02T09:27:49Z</time></trkpt><trkpt lat="43.750363443319905" lon="11.98217007014534"><ele>1156.0</ele><time>2026-05-02T09:28:40Z</time></trkpt><trkpt lat="43.750309916730515" lon="11.98211157758813"><ele>1156.0</ele><time>2026-05-02T09:28:43Z</time></trkpt><trkpt lat="43.75024304514401" lon="11.98212048763129"><ele>1156.0</ele><time>2026-05-02T09:29:07Z</time></trkpt><trkpt lat="43.750203268600046" lon="11.982209800704446"><ele>1156.0</ele><time>2026-05-02T09:29:14Z</time></trkpt><trkpt lat="43.75012094602691" lon="11.982235137041302"><ele>1156.0</ele><time>2026-05-02T09:29:25Z</time></trkpt><trkpt lat="43.75003760879115" lon="11.98224182086184"><ele>1153.3333333333333</ele><time>2026-05-02T09:29:28Z</time></trkpt><trkpt lat="43.74996354822957" lon="11.98231608868453"><ele>1150.6666666666665</ele><time>2026-05-02T09:29:31Z</time></trkpt><trkpt lat="43.749896101088204" lon="11.982344572725005"><ele>1148.0</ele><time>2026-05-02T09:29:34Z</time></trkpt><trkpt lat="43.749812700860794" lon="11.982381483363447"><ele>1145.3333333333333</ele><time>2026-05-02T09:29:37Z</time></trkpt><trkpt lat="43.74975111476934" lon="11.982410914907371"><ele>1142.6666666666667</ele><time>2026-05-02T09:29:39Z</time></trkpt><trkpt lat="43.7496535695233" lon="11.982442138059167"><ele>1140.0</ele><time>2026-05-02T09:29:42Z</time></trkpt><trkpt lat="43.74957245493729" lon="11.98244308327519"><ele>1140.0</ele><time>2026-05-02T09:29:44Z</time></trkpt><trkpt lat="43.74948230879143" lon="11.982439337546587"><ele>1140.0</ele><time>2026-05-02T09:29:47Z</time></trkpt><trkpt lat="43.74944006155471" lon="11.982353128605315"><ele>1140.0</ele><time>2026-05-02T09:29:49Z</time></trkpt><trkpt lat="43.749349349533816" lon="11.982361931032951"><ele>1140.0</ele><time>2026-05-02T09:29:52Z</time></trkpt><trkpt lat="43.74928042431559" lon="11.982363496591054"><ele>1140.0</ele><time>2026-05-02T09:29:54Z</time></trkpt><trkpt lat="43.74918647788004" lon="11.982389730843678"><ele>1140.0</ele><time>2026-05-02T09:29:57Z</time></trkpt><trkpt lat="43.749100284509396" lon="11.982424097555922"><ele>1138.1666666666667</ele><time>2026-05-02T09:30:01Z</time></trkpt><trkpt lat="43.74902561510792" lon="11.98242530787833"><ele>1136.3333333333333</ele><time>2026-05-02T09:30:06Z</time></trkpt><trkpt lat="43.748952577536194" lon="11.982388738689343"><ele>1134.5</ele><time>2026-05-02T09:30:09Z</time></trkpt><trkpt lat="43.74891004885174" lon="11.982314522368306"><ele>1132.6666666666665</ele><time>2026-05-02T09:30:12Z</time></trkpt><trkpt lat="43.748842432089404" lon="11.982277875716687"><ele>1130.8333333333333</ele><time>2026-05-02T09:30:14Z</time></trkpt><trkpt lat="43.74875623322443" lon="11.982247221284714"><ele>1129.0</ele><time>2026-05-02T09:30:16Z</time></trkpt><trkpt lat="43.74867455404887" lon="11.982294298991638"><ele>1129.0</ele><time>2026-05-02T09:30:19Z</time></trkpt><trkpt lat="43.748599568625714" lon="11.982310484925078"><ele>1129.0</ele><time>2026-05-02T09:30:20Z</time></trkpt><trkpt lat="43.748526668266514" lon="11.98231349781294"><ele>1129.0</ele><time>2026-05-02T09:30:22Z</time></trkpt><trkpt lat="43.74845233970598" lon="11.9823232788799"><ele>1129.0</ele><time>2026-05-02T09:30:24Z</time></trkpt><trkpt lat="43.74838663978163" lon="11.982341584140421"><ele>1129.0</ele><time>2026-05-02T09:30:26Z</time></trkpt><trkpt lat="43.74832281109507" lon="11.982360669970324"><ele>1129.0</ele><time>2026-05-02T09:30:33Z</time></trkpt><trkpt lat="43.74822404694269" lon="11.982416236674078"><ele>1127.6666666666665</ele><time>2026-05-02T09:30:36Z</time></trkpt><trkpt lat="43.74813907611151" lon="11.982425163810847"><ele>1126.3333333333333</ele><time>2026-05-02T09:30:38Z</time></trkpt><trkpt lat="43.74804256554264" lon="11.982448973816894"><ele>1125.0</ele><time>2026-05-02T09:30:40Z</time></trkpt><trkpt lat="43.74797386852714" lon="11.982479429513903"><ele>1123.6666666666667</ele><time>2026-05-02T09:30:42Z</time></trkpt><trkpt lat="43.74787966454324" lon="11.982521005344376"><ele>1122.3333333333335</ele><time>2026-05-02T09:30:44Z</time></trkpt><trkpt lat="43.74780596497394" lon="11.982549824917621"><ele>1121.0</ele><time>2026-05-02T09:30:46Z</time></trkpt><trkpt lat="43.74770673933017" lon="11.982549252508381"><ele>1119.5</ele><time>2026-05-02T09:30:48Z</time></trkpt><trkpt lat="43.747634901731914" lon="11.982562432891758"><ele>1118.0</ele><time>2026-05-02T09:30:50Z</time></trkpt><trkpt lat="43.74755087426736" lon="11.982609623836817"><ele>1116.5</ele><time>2026-05-02T09:30:52Z</time></trkpt><trkpt lat="43.74745663255822" lon="11.982652609075837"><ele>1115.0</ele><time>2026-05-02T09:30:54Z</time></trkpt><trkpt lat="43.74738571487649" lon="11.982649650563596"><ele>1113.5</ele><time>2026-05-02T09:30:56Z</time></trkpt><trkpt lat="43.74727453788284" lon="11.982611040949715"><ele>1112.0</ele><time>2026-05-02T09:30:58Z</time></trkpt><trkpt lat="43.74715806716568" lon="11.982627097299842"><ele>1112.0</ele><time>2026-05-02T09:31:00Z</time></trkpt><trkpt lat="43.747063284989366" lon="11.982602366732674"><ele>1112.0</ele><time>2026-05-02T09:31:02Z</time></trkpt><trkpt lat="43.746959559630945" lon="11.982580296759801"><ele>1112.0</ele><time>2026-05-02T09:31:04Z</time></trkpt><trkpt lat="43.746861191887284" lon="11.982564676632835"><ele>1112.0</ele><time>2026-05-02T09:31:06Z</time></trkpt><trkpt lat="43.746775917674654" lon="11.982573401156555"><ele>1112.0</ele><time>2026-05-02T09:31:08Z</time></trkpt><trkpt lat="43.74671975098534" lon="11.982667760064302"><ele>1111.4285714285713</ele><time>2026-05-02T09:31:11Z</time></trkpt><trkpt lat="43.74667127492407" lon="11.98274322950766"><ele>1110.857142857143</ele><time>2026-05-02T09:31:14Z</time></trkpt><trkpt lat="43.74660005400578" lon="11.982767859214626"><ele>1110.2857142857142</ele><time>2026-05-02T09:31:17Z</time></trkpt><trkpt lat="43.74653443371569" lon="11.982799396443294"><ele>1109.7142857142858</ele><time>2026-05-02T09:31:20Z</time></trkpt><trkpt lat="43.74646318740067" lon="11.982818777617036"><ele>1109.142857142857</ele><time>2026-05-02T09:31:23Z</time></trkpt><trkpt lat="43.746393466010545" lon="11.982814493089831"><ele>1108.5714285714284</ele><time>2026-05-02T09:31:26Z</time></trkpt><trkpt lat="43.746331223230555" lon="11.982878535894622"><ele>1108.0</ele><time>2026-05-02T09:31:35Z</time></trkpt><trkpt lat="43.74628398518833" lon="11.982944263055401"><ele>1108.0</ele><time>2026-05-02T09:31:37Z</time></trkpt><trkpt lat="43.74624240015122" lon="11.98301520097906"><ele>1108.0</ele><time>2026-05-02T09:31:39Z</time></trkpt><trkpt lat="43.746152366829136" lon="11.98305881670102"><ele>1108.0</ele><time>2026-05-02T09:31:41Z</time></trkpt><trkpt lat="43.74608249240183" lon="11.98307921606598"><ele>1108.0</ele><time>2026-05-02T09:31:43Z</time></trkpt><trkpt lat="43.74599321479065" lon="11.983104220345986"><ele>1108.0</ele><time>2026-05-02T09:31:46Z</time></trkpt><trkpt lat="43.74593028884093" lon="11.983131548462962"><ele>1108.0</ele><time>2026-05-02T09:31:48Z</time></trkpt><trkpt lat="43.74583706036757" lon="11.983140272767505"><ele>1105.0</ele><time>2026-05-02T09:31:51Z</time></trkpt><trkpt lat="43.74576037911507" lon="11.983143039627091"><ele>1102.0</ele><time>2026-05-02T09:31:53Z</time></trkpt><trkpt lat="43.74570307499394" lon="11.983077794234092"><ele>1099.0</ele><time>2026-05-02T09:31:56Z</time></trkpt><trkpt lat="43.74567328702729" lon="11.982998593139701"><ele>1096.0</ele><time>2026-05-02T09:31:59Z</time></trkpt><trkpt lat="43.74560665512543" lon="11.982909783518272"><ele>1093.0</ele><time>2026-05-02T09:32:04Z</time></trkpt><trkpt lat="43.74554576063713" lon="11.982842048670966"><ele>1090.0</ele><time>2026-05-02T09:32:07Z</time></trkpt><trkpt lat="43.74547560784896" lon="11.982782975894919"><ele>1090.0</ele><time>2026-05-02T09:32:10Z</time></trkpt><trkpt lat="43.74541296006825" lon="11.982745472527455"><ele>1090.0</ele><time>2026-05-02T09:32:12Z</time></trkpt><trkpt lat="43.74535333814958" lon="11.982707255366616"><ele>1090.0</ele><time>2026-05-02T09:32:14Z</time></trkpt><trkpt lat="43.74529156912636" lon="11.982686241933836"><ele>1090.0</ele><time>2026-05-02T09:32:16Z</time></trkpt><trkpt lat="43.745202460537215" lon="11.982645780993098"><ele>1090.0</ele><time>2026-05-02T09:32:19Z</time></trkpt><trkpt lat="43.74510675048561" lon="11.982543474869445"><ele>1090.0</ele><time>2026-05-02T09:32:21Z</time></trkpt><trkpt lat="43.74505662277756" lon="11.982475816549051"><ele>1084.2</ele><time>2026-05-02T09:32:22Z</time></trkpt><trkpt lat="43.744991476556926" lon="11.982425081155984"><ele>1078.4</ele><time>2026-05-02T09:32:23Z</time></trkpt><trkpt lat="43.74492626644228" lon="11.982321000336144"><ele>1072.6</ele><time>2026-05-02T09:32:25Z</time></trkpt><trkpt lat="43.7448523453317" lon="11.982229728282666"><ele>1066.8</ele><time>2026-05-02T09:32:27Z</time></trkpt><trkpt lat="43.7447919829305" lon="11.98212127631669"><ele>1061.0</ele><time>2026-05-02T09:32:30Z</time></trkpt><trkpt lat="43.74471595480443" lon="11.98207654744724"><ele>1061.0</ele><time>2026-05-02T09:33:45Z</time></trkpt><trkpt lat="43.74463205134612" lon="11.982043323729346"><ele>1061.0</ele><time>2026-05-02T09:33:47Z</time></trkpt><trkpt lat="43.74456909053977" lon="11.981996319600201"><ele>1061.0</ele><time>2026-05-02T09:33:49Z</time></trkpt><trkpt lat="43.74447828514636" lon="11.981926841487741"><ele>1061.0</ele><time>2026-05-02T09:33:51Z</time></trkpt><trkpt lat="43.744368887136154" lon="11.981900038592416"><ele>1061.0</ele><time>2026-05-02T09:33:53Z</time></trkpt><trkpt lat="43.744267319771794" lon="11.981822590308207"><ele>1058.857142857143</ele><time>2026-05-02T09:33:55Z</time></trkpt><trkpt lat="43.74420146149568" lon="11.981795913341266"><ele>1056.7142857142858</ele><time>2026-05-02T09:33:56Z</time></trkpt><trkpt lat="43.74413857606501" lon="11.981770440610443"><ele>1054.5714285714284</ele><time>2026-05-02T09:33:57Z</time></trkpt><trkpt lat="43.744070899892264" lon="11.981767048152982"><ele>1052.4285714285716</ele><time>2026-05-02T09:33:58Z</time></trkpt><trkpt lat="43.74400849818625" lon="11.981748975457823"><ele>1050.2857142857142</ele><time>2026-05-02T09:33:59Z</time></trkpt><trkpt lat="43.74393449183871" lon="11.981710899308249"><ele>1048.142857142857</ele><time>2026-05-02T09:34:00Z</time></trkpt><trkpt lat="43.7438508607177" lon="11.981736724487687"><ele>1046.0</ele><time>2026-05-02T09:34:01Z</time></trkpt><trkpt lat="43.743768287193625" lon="11.981731700255075"><ele>1046.0</ele><time>2026-05-02T09:34:02Z</time></trkpt><trkpt lat="43.74368454249975" lon="11.981724408131928"><ele>1046.0</ele><time>2026-05-02T09:34:03Z</time></trkpt><trkpt lat="43.74360180946864" lon="11.98171541843447"><ele>1046.0</ele><time>2026-05-02T09:34:04Z</time></trkpt><trkpt lat="43.7435228686101" lon="11.981705202189739"><ele>1046.0</ele><time>2026-05-02T09:34:05Z</time></trkpt><trkpt lat="43.74345566036553" lon="11.981675002536596"><ele>1046.0</ele><time>2026-05-02T09:34:06Z</time></trkpt><trkpt lat="43.74340363566982" lon="11.981622648131497"><ele>1046.0</ele><time>2026-05-02T09:34:07Z</time></trkpt><trkpt lat="43.743330233163356" lon="11.981471186725322"><ele>1045.8333333333335</ele><time>2026-05-02T09:34:09Z</time></trkpt><trkpt lat="43.74329849538053" lon="11.981351228735825"><ele>1045.6666666666667</ele><time>2026-05-02T09:34:10Z</time></trkpt><trkpt lat="43.74324928063863" lon="11.981219212253029"><ele>1045.5</ele><time>2026-05-02T09:34:11Z</time></trkpt><trkpt lat="43.74320106994889" lon="11.981114286433813"><ele>1045.3333333333333</ele><time>2026-05-02T09:34:12Z</time></trkpt><trkpt lat="43.7431561890827" lon="11.981039334303055"><ele>1045.1666666666665</ele><time>2026-05-02T09:34:13Z</time></trkpt><trkpt lat="43.743119326482734" lon="11.980964063486667"><ele>1045.0</ele><time>2026-05-02T09:34:14Z</time></trkpt><trkpt lat="43.743073715909766" lon="11.980897945577727"><ele>1044.6666666666665</ele><time>2026-05-02T09:34:15Z</time></trkpt><trkpt lat="43.74303238429172" lon="11.980820139925413"><ele>1044.3333333333333</ele><time>2026-05-02T09:34:16Z</time></trkpt><trkpt lat="43.74297220787943" lon="11.980761352066184"><ele>1044.0</ele><time>2026-05-02T09:34:17Z</time></trkpt><trkpt lat="43.74290493068295" lon="11.980718933260736"><ele>1043.6666666666667</ele><time>2026-05-02T09:34:18Z</time></trkpt><trkpt lat="43.74282585241958" lon="11.980700248899867"><ele>1043.3333333333335</ele><time>2026-05-02T09:34:19Z</time></trkpt><trkpt lat="43.742742638586805" lon="11.980701336541998"><ele>1043.0</ele><time>2026-05-02T09:34:20Z</time></trkpt><trkpt lat="43.74266343551153" lon="11.980712695572233"><ele>1043.0</ele><time>2026-05-02T09:34:21Z</time></trkpt><trkpt lat="43.74256796835354" lon="11.9807389251553"><ele>1043.0</ele><time>2026-05-02T09:34:22Z</time></trkpt><trkpt lat="43.74245681476824" lon="11.980752403272083"><ele>1043.0</ele><time>2026-05-02T09:34:23Z</time></trkpt><trkpt lat="43.74233984678747" lon="11.9807358253439"><ele>1043.0</ele><time>2026-05-02T09:34:24Z</time></trkpt><trkpt lat="43.74224070237597" lon="11.980741037632972"><ele>1043.0</ele><time>2026-05-02T09:34:25Z</time></trkpt><trkpt lat="43.74214797045873" lon="11.98074785351375"><ele>1043.0</ele><time>2026-05-02T09:34:26Z</time></trkpt><trkpt lat="43.74204590927745" lon="11.980777223464226"><ele>1043.0</ele><time>2026-05-02T09:34:27Z</time></trkpt><trkpt lat="43.741964363032835" lon="11.980783257423985"><ele>1043.0</ele><time>2026-05-02T09:34:28Z</time></trkpt><trkpt lat="43.74188631705325" lon="11.98078772883581"><ele>1043.0</ele><time>2026-05-02T09:34:29Z</time></trkpt><trkpt lat="43.74179844680716" lon="11.980798185910905"><ele>1043.0</ele><time>2026-05-02T09:34:30Z</time></trkpt><trkpt lat="43.74170253831497" lon="11.980798042432827"><ele>1043.0</ele><time>2026-05-02T09:34:31Z</time></trkpt><trkpt lat="43.74161151512073" lon="11.980812891676962"><ele>1041.3333333333335</ele><time>2026-05-02T09:34:32Z</time></trkpt><trkpt lat="43.741518224397055" lon="11.980828110817454"><ele>1039.6666666666667</ele><time>2026-05-02T09:34:33Z</time></trkpt><trkpt lat="43.74142250496377" lon="11.980844335251424"><ele>1038.0</ele><time>2026-05-02T09:34:34Z</time></trkpt><trkpt lat="43.74134432668002" lon="11.980858045804798"><ele>1036.3333333333333</ele><time>2026-05-02T09:34:35Z</time></trkpt><trkpt lat="43.74127495892461" lon="11.980870211224495"><ele>1034.6666666666665</ele><time>2026-05-02T09:34:36Z</time></trkpt><trkpt lat="43.74120064423633" lon="11.980890838963953"><ele>1033.0</ele><time>2026-05-02T09:34:37Z</time></trkpt><trkpt lat="43.74113328720781" lon="11.980870873773961"><ele>1033.4</ele><time>2026-05-02T09:34:38Z</time></trkpt><trkpt lat="43.74104107037641" lon="11.980734827968602"><ele>1033.8</ele><time>2026-05-02T09:34:40Z</time></trkpt><trkpt lat="43.74097106331207" lon="11.980679513567717"><ele>1034.2</ele><time>2026-05-02T09:34:41Z</time></trkpt><trkpt lat="43.740913593144406" lon="11.980616922774736"><ele>1034.6</ele><time>2026-05-02T09:34:42Z</time></trkpt><trkpt lat="43.740818843560064" lon="11.980531014540203"><ele>1035.0</ele><time>2026-05-02T09:34:44Z</time></trkpt><trkpt lat="43.74069612489957" lon="11.980515373574121"><ele>1035.0</ele><time>2026-05-02T09:35:11Z</time></trkpt><trkpt lat="43.74062285768288" lon="11.98048421172954"><ele>1035.0</ele><time>2026-05-02T09:35:12Z</time></trkpt><trkpt lat="43.74054920578082" lon="11.980432345332698"><ele>1035.0</ele><time>2026-05-02T09:35:13Z</time></trkpt><trkpt lat="43.740463687405374" lon="11.980300036775722"><ele>1035.0</ele><time>2026-05-02T09:35:14Z</time></trkpt><trkpt lat="43.7403512231889" lon="11.980237512368888"><ele>1035.0</ele><time>2026-05-02T09:35:15Z</time></trkpt><trkpt lat="43.74023461398749" lon="11.980182650291368"><ele>1035.8333333333333</ele><time>2026-05-02T09:35:16Z</time></trkpt><trkpt lat="43.74014296890821" lon="11.980135473656246"><ele>1036.6666666666667</ele><time>2026-05-02T09:35:17Z</time></trkpt><trkpt lat="43.74006835223141" lon="11.980089551291686"><ele>1037.5</ele><time>2026-05-02T09:35:18Z</time></trkpt><trkpt lat="43.739987821524835" lon="11.980060949513733"><ele>1038.3333333333335</ele><time>2026-05-02T09:35:19Z</time></trkpt><trkpt lat="43.7399251869401" lon="11.9800186847884"><ele>1039.1666666666667</ele><time>2026-05-02T09:35:20Z</time></trkpt><trkpt lat="43.73983541940174" lon="11.979935657501885"><ele>1040.0</ele><time>2026-05-02T09:35:22Z</time></trkpt><trkpt lat="43.73975827295363" lon="11.979861184932819"><ele>1040.0000000000002</ele><time>2026-05-02T09:35:24Z</time></trkpt><trkpt lat="43.739695688509286" lon="11.979841221161527"><ele>1040.0</ele><time>2026-05-02T09:35:25Z</time></trkpt><trkpt lat="43.739647220799256" lon="11.979784943990172"><ele>1040.0</ele><time>2026-05-02T09:35:26Z</time></trkpt><trkpt lat="43.73959791617832" lon="11.979729550051132"><ele>1040.0</ele><time>2026-05-02T09:35:27Z</time></trkpt><trkpt lat="43.739547100192965" lon="11.979665162713948"><ele>1040.0</ele><time>2026-05-02T09:35:28Z</time></trkpt><trkpt lat="43.7394849855355" lon="11.979577210934355"><ele>1040.0000000000002</ele><time>2026-05-02T09:35:29Z</time></trkpt><trkpt lat="43.7394293252981" lon="11.979471518753124"><ele>1040.0</ele><time>2026-05-02T09:35:30Z</time></trkpt><trkpt lat="43.739379336355285" lon="11.979360750774301"><ele>1040.8333333333335</ele><time>2026-05-02T09:35:31Z</time></trkpt><trkpt lat="43.73933041092547" lon="11.979264056447766"><ele>1041.6666666666667</ele><time>2026-05-02T09:35:32Z</time></trkpt><trkpt lat="43.73929103215216" lon="11.979189143426867"><ele>1042.5</ele><time>2026-05-02T09:35:33Z</time></trkpt><trkpt lat="43.73924965342732" lon="11.979104297718548"><ele>1043.3333333333333</ele><time>2026-05-02T09:35:34Z</time></trkpt><trkpt lat="43.73917286802841" lon="11.978980292928219"><ele>1044.1666666666665</ele><time>2026-05-02T09:35:36Z</time></trkpt><trkpt lat="43.73912389556054" lon="11.978924731449505"><ele>1045.0</ele><time>2026-05-02T09:35:37Z</time></trkpt><trkpt lat="43.73907081465324" lon="11.978846110034711"><ele>1045.0</ele><time>2026-05-02T09:35:38Z</time></trkpt><trkpt lat="43.73900866670627" lon="11.978770018382129"><ele>1045.0</ele><time>2026-05-02T09:35:39Z</time></trkpt><trkpt lat="43.738942416516956" lon="11.97871365230816"><ele>1045.0</ele><time>2026-05-02T09:35:40Z</time></trkpt><trkpt lat="43.73888340335784" lon="11.978658656409033"><ele>1045.0</ele><time>2026-05-02T09:35:41Z</time></trkpt><trkpt lat="43.73876062118438" lon="11.978623040612264"><ele>1045.0</ele><time>2026-05-02T09:35:43Z</time></trkpt><trkpt lat="43.738683632380855" lon="11.978633816465969"><ele>1045.0</ele><time>2026-05-02T09:35:44Z</time></trkpt><trkpt lat="43.73860456427005" lon="11.978653749826222"><ele>1046.2</ele><time>2026-05-02T09:35:45Z</time></trkpt><trkpt lat="43.73851373268428" lon="11.978681192186968"><ele>1047.4</ele><time>2026-05-02T09:35:46Z</time></trkpt><trkpt lat="43.73842433963132" lon="11.978725906852992"><ele>1048.6</ele><time>2026-05-02T09:35:47Z</time></trkpt><trkpt lat="43.738348055700804" lon="11.978772719600308"><ele>1049.8</ele><time>2026-05-02T09:35:48Z</time></trkpt><trkpt lat="43.7382674475859" lon="11.97880833366019"><ele>1051.0</ele><time>2026-05-02T09:35:49Z</time></trkpt><trkpt lat="43.738170701202336" lon="11.978854481938475"><ele>1051.0</ele><time>2026-05-02T09:35:50Z</time></trkpt><trkpt lat="43.73806317107404" lon="11.978900113071324"><ele>1051.0</ele><time>2026-05-02T09:35:51Z</time></trkpt><trkpt lat="43.73794908484349" lon="11.978959985580534"><ele>1051.0</ele><time>2026-05-02T09:35:52Z</time></trkpt><trkpt lat="43.737816707364075" lon="11.979033869461544"><ele>1051.0</ele><time>2026-05-02T09:35:53Z</time></trkpt><trkpt lat="43.737677404175145" lon="11.979098611058122"><ele>1050.75</ele><time>2026-05-02T09:35:54Z</time></trkpt><trkpt lat="43.73756041135712" lon="11.979165115668186"><ele>1050.5</ele><time>2026-05-02T09:35:55Z</time></trkpt><trkpt lat="43.737452771423996" lon="11.979217149010989"><ele>1050.25</ele><time>2026-05-02T09:35:56Z</time></trkpt><trkpt lat="43.73733277224425" lon="11.97927056625207"><ele>1050.0</ele><time>2026-05-02T09:35:57Z</time></trkpt><trkpt lat="43.737208418450955" lon="11.979327116359192"><ele>1052.25</ele><time>2026-05-02T09:35:58Z</time></trkpt><trkpt lat="43.73708228615968" lon="11.979391134465423"><ele>1054.5</ele><time>2026-05-02T09:35:59Z</time></trkpt><trkpt lat="43.7369550633304" lon="11.97946929062768"><ele>1056.75</ele><time>2026-05-02T09:36:00Z</time></trkpt><trkpt lat="43.736834658731375" lon="11.9795323583189"><ele>1059.0</ele><time>2026-05-02T09:36:01Z</time></trkpt><trkpt lat="43.7367153426565" lon="11.979591997832152"><ele>1059.0</ele><time>2026-05-02T09:36:02Z</time></trkpt><trkpt lat="43.73659997213461" lon="11.979651420524293"><ele>1059.0</ele><time>2026-05-02T09:36:03Z</time></trkpt><trkpt lat="43.73649529393095" lon="11.979689312985416"><ele>1059.0</ele><time>2026-05-02T09:36:04Z</time></trkpt><trkpt lat="43.73638245661195" lon="11.979745519822416"><ele>1059.0</ele><time>2026-05-02T09:36:05Z</time></trkpt><trkpt lat="43.73626244505846" lon="11.979808366010076"><ele>1059.0</ele><time>2026-05-02T09:36:06Z</time></trkpt><trkpt lat="43.73613561724989" lon="11.979865884192643"><ele>1059.0</ele><time>2026-05-02T09:36:07Z</time></trkpt><trkpt lat="43.73602394649935" lon="11.979915852441366"><ele>1059.0</ele><time>2026-05-02T09:36:08Z</time></trkpt><trkpt lat="43.73593325661802" lon="11.979951610442026"><ele>1059.0</ele><time>2026-05-02T09:36:09Z</time></trkpt><trkpt lat="43.73580775532251" lon="11.979967853690349"><ele>1058.6000000000001</ele><time>2026-05-02T09:36:11Z</time></trkpt><trkpt lat="43.73572481483961" lon="11.979921587083865"><ele>1058.2</ele><time>2026-05-02T09:36:12Z</time></trkpt><trkpt lat="43.73562594369294" lon="11.979920996277587"><ele>1057.8000000000002</ele><time>2026-05-02T09:36:13Z</time></trkpt><trkpt lat="43.73553008479767" lon="11.979900569464375"><ele>1057.4</ele><time>2026-05-02T09:36:14Z</time></trkpt><trkpt lat="43.73543731238308" lon="11.979876914753643"><ele>1057.0</ele><time>2026-05-02T09:36:15Z</time></trkpt><trkpt lat="43.73534039715035" lon="11.979848444757216"><ele>1057.0</ele><time>2026-05-02T09:36:16Z</time></trkpt><trkpt lat="43.735254489131485" lon="11.979818126625213"><ele>1057.0</ele><time>2026-05-02T09:36:17Z</time></trkpt><trkpt lat="43.7351865929855" lon="11.979792880273237"><ele>1057.0</ele><time>2026-05-02T09:36:18Z</time></trkpt><trkpt lat="43.73511375743812" lon="11.979767335598929"><ele>1057.0</ele><time>2026-05-02T09:36:19Z</time></trkpt><trkpt lat="43.73504613257417" lon="11.979764079142553"><ele>1057.0</ele><time>2026-05-02T09:36:20Z</time></trkpt><trkpt lat="43.73496658493339" lon="11.979795455196891"><ele>1057.0</ele><time>2026-05-02T09:36:21Z</time></trkpt><trkpt lat="43.73489776162967" lon="11.9798478306213"><ele>1058.0</ele><time>2026-05-02T09:36:22Z</time></trkpt><trkpt lat="43.734835106702" lon="11.979929282268982"><ele>1059.0</ele><time>2026-05-02T09:36:23Z</time></trkpt><trkpt lat="43.734781149134456" lon="11.980046136714698"><ele>1060.0</ele><time>2026-05-02T09:36:24Z</time></trkpt><trkpt lat="43.73473923598143" lon="11.980176537131015"><ele>1061.0</ele><time>2026-05-02T09:36:25Z</time></trkpt><trkpt lat="43.734700437283806" lon="11.980288454365589"><ele>1062.0</ele><time>2026-05-02T09:36:26Z</time></trkpt><trkpt lat="43.734663113594" lon="11.980397427304602"><ele>1063.0</ele><time>2026-05-02T09:36:27Z</time></trkpt><trkpt lat="43.734604837057645" lon="11.98048149756161"><ele>1064.0</ele><time>2026-05-02T09:36:28Z</time></trkpt><trkpt lat="43.73455541455891" lon="11.980566876468988"><ele>1065.0</ele><time>2026-05-02T09:36:29Z</time></trkpt><trkpt lat="43.73450884333562" lon="11.98063750796486"><ele>1066.0</ele><time>2026-05-02T09:36:30Z</time></trkpt><trkpt lat="43.73444859733604" lon="11.980707228293022"><ele>1067.0</ele><time>2026-05-02T09:36:31Z</time></trkpt><trkpt lat="43.73437531844561" lon="11.980768185202784"><ele>1068.0</ele><time>2026-05-02T09:36:32Z</time></trkpt><trkpt lat="43.73429569763625" lon="11.980819854404917"><ele>1070.6666666666667</ele><time>2026-05-02T09:36:33Z</time></trkpt><trkpt lat="43.73422518581197" lon="11.98085696370399"><ele>1073.3333333333333</ele><time>2026-05-02T09:36:34Z</time></trkpt><trkpt lat="43.7341544490989" lon="11.980880921215036"><ele>1076.0</ele><time>2026-05-02T09:36:35Z</time></trkpt><trkpt lat="43.734068328028776" lon="11.980915241201696"><ele>1078.6666666666665</ele><time>2026-05-02T09:36:36Z</time></trkpt><trkpt lat="43.73398343516853" lon="11.980942207361846"><ele>1081.3333333333333</ele><time>2026-05-02T09:36:37Z</time></trkpt><trkpt lat="43.73389541866176" lon="11.980970434208805"><ele>1084.0</ele><time>2026-05-02T09:36:38Z</time></trkpt><trkpt lat="43.73379749964608" lon="11.980995668168807"><ele>1084.0</ele><time>2026-05-02T09:36:39Z</time></trkpt><trkpt lat="43.733698158574306" lon="11.98103318011737"><ele>1084.0</ele><time>2026-05-02T09:36:40Z</time></trkpt><trkpt lat="43.733588768444356" lon="11.981093654866813"><ele>1084.0</ele><time>2026-05-02T09:36:41Z</time></trkpt><trkpt lat="43.73347278098908" lon="11.981156735462548"><ele>1084.0</ele><time>2026-05-02T09:36:42Z</time></trkpt><trkpt lat="43.733387900481965" lon="11.981183320361218"><ele>1084.0</ele><time>2026-05-02T09:36:43Z</time></trkpt><trkpt lat="43.733254811351856" lon="11.981188925800106"><ele>1084.2</ele><time>2026-05-02T09:36:45Z</time></trkpt><trkpt lat="43.73317460538503" lon="11.981169982033673"><ele>1084.4</ele><time>2026-05-02T09:36:46Z</time></trkpt><trkpt lat="43.733114560159954" lon="11.981118744050212"><ele>1084.6</ele><time>2026-05-02T09:36:47Z</time></trkpt><trkpt lat="43.73305605699858" lon="11.981025053572317"><ele>1084.8</ele><time>2026-05-02T09:36:48Z</time></trkpt><trkpt lat="43.73299699664895" lon="11.980896453010848"><ele>1085.0</ele><time>2026-05-02T09:36:49Z</time></trkpt><trkpt lat="43.73294457742845" lon="11.980749501183764"><ele>1082.2</ele><time>2026-05-02T09:36:50Z</time></trkpt><trkpt lat="43.73289706203918" lon="11.980610431952393"><ele>1079.4</ele><time>2026-05-02T09:36:51Z</time></trkpt><trkpt lat="43.73285617512136" lon="11.980463820407675"><ele>1076.6</ele><time>2026-05-02T09:36:52Z</time></trkpt><trkpt lat="43.73282490213503" lon="11.980335378102792"><ele>1073.8</ele><time>2026-05-02T09:36:53Z</time></trkpt><trkpt lat="43.73278702342815" lon="11.98020806745716"><ele>1071.0</ele><time>2026-05-02T09:36:54Z</time></trkpt><trkpt lat="43.73274580278246" lon="11.980089613384935"><ele>1073.5</ele><time>2026-05-02T09:36:55Z</time></trkpt><trkpt lat="43.73268179909564" lon="11.980022770922726"><ele>1076.0</ele><time>2026-05-02T09:36:56Z</time></trkpt><trkpt lat="43.732615577018294" lon="11.979962092147213"><ele>1078.5</ele><time>2026-05-02T09:36:57Z</time></trkpt><trkpt lat="43.73254213098806" lon="11.979894539581586"><ele>1081.0</ele><time>2026-05-02T09:36:58Z</time></trkpt><trkpt lat="43.73245927614933" lon="11.97983758245446"><ele>1083.5</ele><time>2026-05-02T09:36:59Z</time></trkpt><trkpt lat="43.732374654759425" lon="11.97977371500342"><ele>1086.0</ele><time>2026-05-02T09:37:00Z</time></trkpt><trkpt lat="43.73228055409597" lon="11.979713858311108"><ele>1086.0</ele><time>2026-05-02T09:37:01Z</time></trkpt><trkpt lat="43.732202373950415" lon="11.979646306609904"><ele>1086.0</ele><time>2026-05-02T09:37:02Z</time></trkpt><trkpt lat="43.732132962919316" lon="11.979569016820045"><ele>1086.0</ele><time>2026-05-02T09:37:03Z</time></trkpt><trkpt lat="43.73205084273926" lon="11.97949831894519"><ele>1086.0</ele><time>2026-05-02T09:37:04Z</time></trkpt><trkpt lat="43.731972513968856" lon="11.979418129960077"><ele>1086.0</ele><time>2026-05-02T09:37:05Z</time></trkpt><trkpt lat="43.73189379200823" lon="11.97934427366767"><ele>1087.6</ele><time>2026-05-02T09:37:06Z</time></trkpt><trkpt lat="43.73180376533933" lon="11.979281700588983"><ele>1089.1999999999998</ele><time>2026-05-02T09:37:07Z</time></trkpt><trkpt lat="43.731705996764454" lon="11.9792065343789"><ele>1090.8000000000002</ele><time>2026-05-02T09:37:08Z</time></trkpt><trkpt lat="43.73160926731462" lon="11.979127850873386"><ele>1092.4</ele><time>2026-05-02T09:37:09Z</time></trkpt><trkpt lat="43.73152943703356" lon="11.979037396427703"><ele>1094.0</ele><time>2026-05-02T09:37:10Z</time></trkpt><trkpt lat="43.731465615108995" lon="11.978965403707305"><ele>1094.0</ele><time>2026-05-02T09:37:11Z</time></trkpt><trkpt lat="43.73141315747811" lon="11.978907050589626"><ele>1094.0</ele><time>2026-05-02T09:37:12Z</time></trkpt><trkpt lat="43.73132381888853" lon="11.978779143186317"><ele>1094.0</ele><time>2026-05-02T09:37:14Z</time></trkpt><trkpt lat="43.73126223153547" lon="11.978672885896172"><ele>1094.0</ele><time>2026-05-02T09:37:16Z</time></trkpt><trkpt lat="43.73115524346589" lon="11.978588783126925"><ele>1094.0</ele><time>2026-05-02T09:37:18Z</time></trkpt><trkpt lat="43.731086927381064" lon="11.97853812441712"><ele>1096.5</ele><time>2026-05-02T09:37:19Z</time></trkpt><trkpt lat="43.73101687947649" lon="11.978478599778057"><ele>1099.0</ele><time>2026-05-02T09:37:20Z</time></trkpt><trkpt lat="43.73095692241693" lon="11.978388611244453"><ele>1101.5</ele><time>2026-05-02T09:37:21Z</time></trkpt><trkpt lat="43.73092575468107" lon="11.978305001818164"><ele>1104.0</ele><time>2026-05-02T09:37:22Z</time></trkpt><trkpt lat="43.73084564982708" lon="11.978156686833909"><ele>1106.5</ele><time>2026-05-02T09:37:24Z</time></trkpt><trkpt lat="43.730798287158066" lon="11.978083116196942"><ele>1109.0</ele><time>2026-05-02T09:37:25Z</time></trkpt><trkpt lat="43.73076439059443" lon="11.977993565950381"><ele>1109.0</ele><time>2026-05-02T09:37:26Z</time></trkpt><trkpt lat="43.73074241855678" lon="11.977896347000545"><ele>1109.0</ele><time>2026-05-02T09:37:27Z</time></trkpt><trkpt lat="43.73074893520135" lon="11.977732806648726"><ele>1109.0</ele><time>2026-05-02T09:37:29Z</time></trkpt><trkpt lat="43.73076833771684" lon="11.977632450731026"><ele>1109.0</ele><time>2026-05-02T09:37:30Z</time></trkpt><trkpt lat="43.7308007487702" lon="11.977531123443555"><ele>1109.0</ele><time>2026-05-02T09:37:31Z</time></trkpt><trkpt lat="43.73084812234187" lon="11.97743752435974"><ele>1109.0</ele><time>2026-05-02T09:37:32Z</time></trkpt><trkpt lat="43.73089329156195" lon="11.977345494317738"><ele>1109.0</ele><time>2026-05-02T09:37:33Z</time></trkpt><trkpt lat="43.73092896447188" lon="11.977247482281387"><ele>1109.0</ele><time>2026-05-02T09:37:34Z</time></trkpt><trkpt lat="43.73097401439229" lon="11.977157292433521"><ele>1109.0</ele><time>2026-05-02T09:37:35Z</time></trkpt><trkpt lat="43.73102359767742" lon="11.977070203617945"><ele>1109.0</ele><time>2026-05-02T09:37:36Z</time></trkpt><trkpt lat="43.731076326855685" lon="11.976989605472552"><ele>1109.0</ele><time>2026-05-02T09:37:37Z</time></trkpt><trkpt lat="43.73113050701583" lon="11.976892082059765"><ele>1109.0</ele><time>2026-05-02T09:37:38Z</time></trkpt><trkpt lat="43.731185674927204" lon="11.976777501405065"><ele>1102.8</ele><time>2026-05-02T09:37:39Z</time></trkpt><trkpt lat="43.73123554897959" lon="11.976663283547094"><ele>1096.6000000000001</ele><time>2026-05-02T09:37:40Z</time></trkpt><trkpt lat="43.73127380367393" lon="11.976554792853062"><ele>1090.4</ele><time>2026-05-02T09:37:41Z</time></trkpt><trkpt lat="43.73130353219083" lon="11.976439888981163"><ele>1084.2</ele><time>2026-05-02T09:37:42Z</time></trkpt><trkpt lat="43.7313133469028" lon="11.97632002130347"><ele>1078.0</ele><time>2026-05-02T09:37:43Z</time></trkpt><trkpt lat="43.73129496716391" lon="11.97618982725541"><ele>1078.0</ele><time>2026-05-02T09:37:44Z</time></trkpt><trkpt lat="43.731249078534205" lon="11.976078456509946"><ele>1078.0</ele><time>2026-05-02T09:37:45Z</time></trkpt><trkpt lat="43.73118510966162" lon="11.97597665386798"><ele>1078.0</ele><time>2026-05-02T09:37:46Z</time></trkpt><trkpt lat="43.73110051012878" lon="11.975887065615996"><ele>1078.0</ele><time>2026-05-02T09:37:47Z</time></trkpt><trkpt lat="43.73100518483982" lon="11.975802627643617"><ele>1078.0</ele><time>2026-05-02T09:37:48Z</time></trkpt><trkpt lat="43.73091225714153" lon="11.975725065835856"><ele>1083.4</ele><time>2026-05-02T09:37:49Z</time></trkpt><trkpt lat="43.73082882034851" lon="11.975640345782294"><ele>1088.8</ele><time>2026-05-02T09:37:50Z</time></trkpt><trkpt lat="43.73074285822988" lon="11.975551102643161"><ele>1094.2</ele><time>2026-05-02T09:37:51Z</time></trkpt><trkpt lat="43.73065884029124" lon="11.97546358273022"><ele>1099.6</ele><time>2026-05-02T09:37:52Z</time></trkpt><trkpt lat="43.730578055141805" lon="11.975383185838192"><ele>1105.0</ele><time>2026-05-02T09:37:53Z</time></trkpt><trkpt lat="43.730492982586924" lon="11.975297929496229"><ele>1105.0</ele><time>2026-05-02T09:37:54Z</time></trkpt><trkpt lat="43.73041625172753" lon="11.975224685011204"><ele>1105.0</ele><time>2026-05-02T09:37:55Z</time></trkpt><trkpt lat="43.73034535882384" lon="11.975171463914656"><ele>1105.0</ele><time>2026-05-02T09:37:56Z</time></trkpt><trkpt lat="43.730258557273466" lon="11.975121448539852"><ele>1105.0</ele><time>2026-05-02T09:37:57Z</time></trkpt><trkpt lat="43.73014701340743" lon="11.975090296083774"><ele>1105.0</ele><time>2026-05-02T09:37:58Z</time></trkpt><trkpt lat="43.730040260576345" lon="11.97505850739699"><ele>1104.8</ele><time>2026-05-02T09:37:59Z</time></trkpt><trkpt lat="43.729954602084334" lon="11.97503104930963"><ele>1104.6</ele><time>2026-05-02T09:38:00Z</time></trkpt><trkpt lat="43.729856198170765" lon="11.974995331385854"><ele>1104.4</ele><time>2026-05-02T09:38:01Z</time></trkpt><trkpt lat="43.72974752173811" lon="11.974961241808419"><ele>1104.2</ele><time>2026-05-02T09:38:02Z</time></trkpt><trkpt lat="43.72965824975133" lon="11.97493326628951"><ele>1104.0</ele><time>2026-05-02T09:38:03Z</time></trkpt><trkpt lat="43.7295663740545" lon="11.974895034827462"><ele>1104.0</ele><time>2026-05-02T09:38:04Z</time></trkpt><trkpt lat="43.729467181210325" lon="11.974849447717393"><ele>1104.0</ele><time>2026-05-02T09:38:05Z</time></trkpt><trkpt lat="43.72936866738659" lon="11.974813646225082"><ele>1104.0</ele><time>2026-05-02T09:38:06Z</time></trkpt><trkpt lat="43.7292854929713" lon="11.974810236856177"><ele>1104.0</ele><time>2026-05-02T09:38:07Z</time></trkpt><trkpt lat="43.72920161174673" lon="11.974803870583289"><ele>1104.0</ele><time>2026-05-02T09:38:08Z</time></trkpt><trkpt lat="43.72911906692997" lon="11.974761088975153"><ele>1105.4</ele><time>2026-05-02T09:38:09Z</time></trkpt><trkpt lat="43.72903358558554" lon="11.974739078147207"><ele>1106.8000000000002</ele><time>2026-05-02T09:38:10Z</time></trkpt><trkpt lat="43.72895094982591" lon="11.97471522281827"><ele>1108.1999999999998</ele><time>2026-05-02T09:38:11Z</time></trkpt><trkpt lat="43.728850163403045" lon="11.974703594870103"><ele>1109.6</ele><time>2026-05-02T09:38:12Z</time></trkpt><trkpt lat="43.728750822998684" lon="11.974660219380722"><ele>1111.0</ele><time>2026-05-02T09:38:13Z</time></trkpt><trkpt lat="43.728666403170045" lon="11.974623284872386"><ele>1111.0</ele><time>2026-05-02T09:38:14Z</time></trkpt><trkpt lat="43.728573087215715" lon="11.974588656375284"><ele>1111.0</ele><time>2026-05-02T09:38:15Z</time></trkpt><trkpt lat="43.72847725102556" lon="11.974556170676498"><ele>1111.0</ele><time>2026-05-02T09:38:16Z</time></trkpt><trkpt lat="43.72836542236891" lon="11.974525250974935"><ele>1111.0</ele><time>2026-05-02T09:38:17Z</time></trkpt><trkpt lat="43.7282664907241" lon="11.974500659013756"><ele>1111.0</ele><time>2026-05-02T09:38:18Z</time></trkpt><trkpt lat="43.72817818062511" lon="11.974469228277728"><ele>1111.6</ele><time>2026-05-02T09:38:19Z</time></trkpt><trkpt lat="43.728073918605816" lon="11.974454474327416"><ele>1112.1999999999998</ele><time>2026-05-02T09:38:20Z</time></trkpt><trkpt lat="43.727975614530315" lon="11.974472777039184"><ele>1112.8000000000002</ele><time>2026-05-02T09:38:21Z</time></trkpt><trkpt lat="43.727896600091825" lon="11.97450167685111"><ele>1113.4</ele><time>2026-05-02T09:38:22Z</time></trkpt><trkpt lat="43.72781061201672" lon="11.974535449165518"><ele>1114.0</ele><time>2026-05-02T09:38:23Z</time></trkpt><trkpt lat="43.72772511496608" lon="11.974599483917224"><ele>1112.4</ele><time>2026-05-02T09:38:24Z</time></trkpt><trkpt lat="43.72762490951878" lon="11.974661065869899"><ele>1110.8000000000002</ele><time>2026-05-02T09:38:25Z</time></trkpt><trkpt lat="43.72752118226338" lon="11.974733532654295"><ele>1109.1999999999998</ele><time>2026-05-02T09:38:26Z</time></trkpt><trkpt lat="43.7274198404235" lon="11.974810829710611"><ele>1107.6</ele><time>2026-05-02T09:38:27Z</time></trkpt><trkpt lat="43.72732876187665" lon="11.974882077180833"><ele>1106.0</ele><time>2026-05-02T09:38:28Z</time></trkpt><trkpt lat="43.7272370917636" lon="11.974965473756809"><ele>1108.2</ele><time>2026-05-02T09:38:29Z</time></trkpt><trkpt lat="43.72713324080415" lon="11.97503535402971"><ele>1110.3999999999999</ele><time>2026-05-02T09:38:30Z</time></trkpt><trkpt lat="43.72705010305055" lon="11.975096575570278"><ele>1112.6</ele><time>2026-05-02T09:38:31Z</time></trkpt><trkpt lat="43.72697563390195" lon="11.975170656519648"><ele>1114.8</ele><time>2026-05-02T09:38:32Z</time></trkpt><trkpt lat="43.72691066836016" lon="11.975274790471017"><ele>1117.0</ele><time>2026-05-02T09:38:33Z</time></trkpt><trkpt lat="43.72686939120324" lon="11.975410961982583"><ele>1113.25</ele><time>2026-05-02T09:38:34Z</time></trkpt><trkpt lat="43.72683784331749" lon="11.975570290125379"><ele>1109.5</ele><time>2026-05-02T09:38:35Z</time></trkpt><trkpt lat="43.72684039777055" lon="11.975749671391421"><ele>1105.75</ele><time>2026-05-02T09:38:36Z</time></trkpt><trkpt lat="43.72683441134752" lon="11.975933096957004"><ele>1102.0</ele><time>2026-05-02T09:38:37Z</time></trkpt><trkpt lat="43.72683453235433" lon="11.976093091368671"><ele>1102.0</ele><time>2026-05-02T09:38:38Z</time></trkpt><trkpt lat="43.72683469170022" lon="11.976226256020034"><ele>1102.0</ele><time>2026-05-02T09:38:39Z</time></trkpt><trkpt lat="43.726827839561025" lon="11.97634231501434"><ele>1102.0</ele><time>2026-05-02T09:38:40Z</time></trkpt><trkpt lat="43.72680646218798" lon="11.976450577007068"><ele>1102.0</ele><time>2026-05-02T09:38:41Z</time></trkpt><trkpt lat="43.72676386195808" lon="11.976555706394059"><ele>1102.0</ele><time>2026-05-02T09:38:42Z</time></trkpt><trkpt lat="43.72671122650123" lon="11.976646295348365"><ele>1102.0</ele><time>2026-05-02T09:38:43Z</time></trkpt><trkpt lat="43.72664436918299" lon="11.97672053702381"><ele>1102.0</ele><time>2026-05-02T09:38:44Z</time></trkpt><trkpt lat="43.726566710688964" lon="11.97677103184013"><ele>1102.0</ele><time>2026-05-02T09:38:45Z</time></trkpt><trkpt lat="43.72649186203915" lon="11.976791118882312"><ele>1102.0</ele><time>2026-05-02T09:38:46Z</time></trkpt><trkpt lat="43.72640465318674" lon="11.976775934538646"><ele>1102.0</ele><time>2026-05-02T09:38:47Z</time></trkpt><trkpt lat="43.72632278606866" lon="11.976737254787425"><ele>1102.0</ele><time>2026-05-02T09:38:48Z</time></trkpt><trkpt lat="43.726225151311546" lon="11.976678467805582"><ele>1102.0</ele><time>2026-05-02T09:38:49Z</time></trkpt><trkpt lat="43.72614625758862" lon="11.97662663320967"><ele>1102.0</ele><time>2026-05-02T09:38:50Z</time></trkpt><trkpt lat="43.72606453334965" lon="11.976560162104569"><ele>1102.0</ele><time>2026-05-02T09:38:51Z</time></trkpt><trkpt lat="43.72596799323767" lon="11.976500988851456"><ele>1102.0</ele><time>2026-05-02T09:38:52Z</time></trkpt><trkpt lat="43.72588361124109" lon="11.976434998754183"><ele>1102.0</ele><time>2026-05-02T09:38:53Z</time></trkpt><trkpt lat="43.725803600391245" lon="11.976385891267528"><ele>1102.0</ele><time>2026-05-02T09:38:54Z</time></trkpt><trkpt lat="43.72571277515443" lon="11.976386130756712"><ele>1101.4</ele><time>2026-05-02T09:38:55Z</time></trkpt><trkpt lat="43.725593520861125" lon="11.976377008681904"><ele>1100.8000000000002</ele><time>2026-05-02T09:38:56Z</time></trkpt><trkpt lat="43.72548609823985" lon="11.976347195045122"><ele>1100.2</ele><time>2026-05-02T09:38:57Z</time></trkpt><trkpt lat="43.72538657343513" lon="11.976341343063703"><ele>1099.6000000000001</ele><time>2026-05-02T09:38:58Z</time></trkpt><trkpt lat="43.725270722391514" lon="11.976340769537703"><ele>1099.0</ele><time>2026-05-02T09:38:59Z</time></trkpt><trkpt lat="43.72516676953933" lon="11.976341854678502"><ele>1098.2</ele><time>2026-05-02T09:39:00Z</time></trkpt><trkpt lat="43.72506858165656" lon="11.97633215060127"><ele>1097.4</ele><time>2026-05-02T09:39:01Z</time></trkpt><trkpt lat="43.72498721723269" lon="11.976330336127988"><ele>1096.6</ele><time>2026-05-02T09:39:02Z</time></trkpt><trkpt lat="43.724900961793075" lon="11.976330474567767"><ele>1095.8</ele><time>2026-05-02T09:39:03Z</time></trkpt><trkpt lat="43.72479685562089" lon="11.976309105565324"><ele>1095.0</ele><time>2026-05-02T09:39:04Z</time></trkpt><trkpt lat="43.72469656380507" lon="11.976294347904277"><ele>1095.0</ele><time>2026-05-02T09:39:05Z</time></trkpt><trkpt lat="43.724613800485585" lon="11.976265020510958"><ele>1095.0</ele><time>2026-05-02T09:39:06Z</time></trkpt><trkpt lat="43.724531560165815" lon="11.976233176670132"><ele>1095.0</ele><time>2026-05-02T09:39:07Z</time></trkpt><trkpt lat="43.72446061135229" lon="11.976194999374124"><ele>1095.0</ele><time>2026-05-02T09:39:08Z</time></trkpt><trkpt lat="43.72440285495819" lon="11.976144826980846"><ele>1095.0</ele><time>2026-05-02T09:39:09Z</time></trkpt><trkpt lat="43.72433605529253" lon="11.976075549948938"><ele>1095.0</ele><time>2026-05-02T09:39:10Z</time></trkpt><trkpt lat="43.72426596725647" lon="11.975974012698863"><ele>1095.4</ele><time>2026-05-02T09:39:11Z</time></trkpt><trkpt lat="43.7241955755009" lon="11.975856360962888"><ele>1095.8</ele><time>2026-05-02T09:39:12Z</time></trkpt><trkpt lat="43.724141729254676" lon="11.97573688296363"><ele>1096.2</ele><time>2026-05-02T09:39:13Z</time></trkpt><trkpt lat="43.72409984555425" lon="11.975623555944505"><ele>1096.6</ele><time>2026-05-02T09:39:14Z</time></trkpt><trkpt lat="43.72405255836243" lon="11.975510551768107"><ele>1097.0</ele><time>2026-05-02T09:39:15Z</time></trkpt><trkpt lat="43.723993303994526" lon="11.975399967655116"><ele>1094.4</ele><time>2026-05-02T09:39:16Z</time></trkpt><trkpt lat="43.72391505317494" lon="11.975287392475261"><ele>1091.8000000000002</ele><time>2026-05-02T09:39:17Z</time></trkpt><trkpt lat="43.723843465098724" lon="11.975174196503573"><ele>1089.2</ele><time>2026-05-02T09:39:18Z</time></trkpt><trkpt lat="43.72377788101458" lon="11.975056004515613"><ele>1086.6000000000001</ele><time>2026-05-02T09:39:19Z</time></trkpt><trkpt lat="43.723731027498786" lon="11.974939215148627"><ele>1084.0</ele><time>2026-05-02T09:39:20Z</time></trkpt><trkpt lat="43.72369483554722" lon="11.974817678037603"><ele>1081.6000000000001</ele><time>2026-05-02T09:39:21Z</time></trkpt><trkpt lat="43.7236750296239" lon="11.974707588086458"><ele>1079.2</ele><time>2026-05-02T09:39:22Z</time></trkpt><trkpt lat="43.72366259539634" lon="11.974575517280448"><ele>1076.8000000000002</ele><time>2026-05-02T09:39:23Z</time></trkpt><trkpt lat="43.723647602124096" lon="11.974422304493542"><ele>1074.4</ele><time>2026-05-02T09:39:24Z</time></trkpt><trkpt lat="43.72361260786605" lon="11.974261920265034"><ele>1072.0</ele><time>2026-05-02T09:39:25Z</time></trkpt><trkpt lat="43.72360814542393" lon="11.974127876418947"><ele>1070.4</ele><time>2026-05-02T09:39:26Z</time></trkpt><trkpt lat="43.72359701103859" lon="11.973990261853027"><ele>1068.8000000000002</ele><time>2026-05-02T09:39:27Z</time></trkpt><trkpt lat="43.7235895674602" lon="11.97386862260451"><ele>1067.2</ele><time>2026-05-02T09:39:28Z</time></trkpt><trkpt lat="43.72356225975236" lon="11.973738109138091"><ele>1065.6000000000001</ele><time>2026-05-02T09:39:29Z</time></trkpt><trkpt lat="43.723515683029376" lon="11.97361784106885"><ele>1064.0</ele><time>2026-05-02T09:39:30Z</time></trkpt><trkpt lat="43.72350104180923" lon="11.973503330641751"><ele>1066.6000000000001</ele><time>2026-05-02T09:39:31Z</time></trkpt><trkpt lat="43.723488107409516" lon="11.973395895700477"><ele>1069.2</ele><time>2026-05-02T09:39:32Z</time></trkpt><trkpt lat="43.72345203062294" lon="11.973286222550993"><ele>1071.8000000000002</ele><time>2026-05-02T09:39:33Z</time></trkpt><trkpt lat="43.72340020641154" lon="11.973180105558734"><ele>1074.4</ele><time>2026-05-02T09:39:34Z</time></trkpt><trkpt lat="43.72332352516471" lon="11.97310396063627"><ele>1077.0</ele><time>2026-05-02T09:39:35Z</time></trkpt><trkpt lat="43.72321897974133" lon="11.97304395546316"><ele>1077.0</ele><time>2026-05-02T09:39:36Z</time></trkpt><trkpt lat="43.723113605616994" lon="11.973002683103319"><ele>1077.0</ele><time>2026-05-02T09:39:37Z</time></trkpt><trkpt lat="43.723014971696976" lon="11.972967912749247"><ele>1077.0</ele><time>2026-05-02T09:39:38Z</time></trkpt><trkpt lat="43.7229292669793" lon="11.972935028016517"><ele>1077.0</ele><time>2026-05-02T09:39:39Z</time></trkpt><trkpt lat="43.72283222051458" lon="11.972911969834925"><ele>1077.0</ele><time>2026-05-02T09:39:40Z</time></trkpt><trkpt lat="43.722739966529964" lon="11.972917917520757"><ele>1077.0</ele><time>2026-05-02T09:39:41Z</time></trkpt><trkpt lat="43.72266457493767" lon="11.972957994321181"><ele>1077.0</ele><time>2026-05-02T09:39:42Z</time></trkpt><trkpt lat="43.72258390412897" lon="11.973021097245462"><ele>1077.0</ele><time>2026-05-02T09:39:43Z</time></trkpt><trkpt lat="43.722496401381626" lon="11.973103025307486"><ele>1077.0</ele><time>2026-05-02T09:39:44Z</time></trkpt><trkpt lat="43.72240619868509" lon="11.973195258602773"><ele>1077.0</ele><time>2026-05-02T09:39:45Z</time></trkpt><trkpt lat="43.72231456805535" lon="11.973289972361512"><ele>1078.2</ele><time>2026-05-02T09:39:46Z</time></trkpt><trkpt lat="43.72223725128752" lon="11.973378831628022"><ele>1079.4</ele><time>2026-05-02T09:39:47Z</time></trkpt><trkpt lat="43.72215227476432" lon="11.97345615954384"><ele>1080.6</ele><time>2026-05-02T09:39:48Z</time></trkpt><trkpt lat="43.72206277176254" lon="11.973534843620147"><ele>1081.8</ele><time>2026-05-02T09:39:49Z</time></trkpt><trkpt lat="43.721998336789916" lon="11.973588820448834"><ele>1083.0</ele><time>2026-05-02T09:39:50Z</time></trkpt><trkpt lat="43.72194365620077" lon="11.973666592523427"><ele>1083.0</ele><time>2026-05-02T09:39:52Z</time></trkpt><trkpt lat="43.72203517144847" lon="11.973723829264165"><ele>1083.0</ele><time>2026-05-02T09:41:56Z</time></trkpt><trkpt lat="43.72210251016627" lon="11.973723148582613"><ele>1083.0</ele><time>2026-05-02T09:41:57Z</time></trkpt><trkpt lat="43.722165256548074" lon="11.973743127161205"><ele>1083.0</ele><time>2026-05-02T09:41:58Z</time></trkpt><trkpt lat="43.72222670424887" lon="11.973770979281586"><ele>1083.0</ele><time>2026-05-02T09:41:59Z</time></trkpt><trkpt lat="43.72232630659805" lon="11.973844341400623"><ele>1083.0</ele><time>2026-05-02T09:42:01Z</time></trkpt><trkpt lat="43.72239795839806" lon="11.9739196965697"><ele>1083.0</ele><time>2026-05-02T09:42:03Z</time></trkpt><trkpt lat="43.72246649169344" lon="11.974001235422344"><ele>1083.0</ele><time>2026-05-02T09:42:05Z</time></trkpt><trkpt lat="43.72252163788233" lon="11.974109973178118"><ele>1083.0</ele><time>2026-05-02T09:42:07Z</time></trkpt><trkpt lat="43.7225481944908" lon="11.974199939750694"><ele>1083.0</ele><time>2026-05-02T09:42:08Z</time></trkpt><trkpt lat="43.72258900748839" lon="11.97432394963286"><ele>1083.0</ele><time>2026-05-02T09:42:10Z</time></trkpt><trkpt lat="43.722644226207166" lon="11.974392134286802"><ele>1083.0</ele><time>2026-05-02T09:42:14Z</time></trkpt><trkpt lat="43.72273187332259" lon="11.974498731810174"><ele>1084.3333333333333</ele><time>2026-05-02T09:42:16Z</time></trkpt><trkpt lat="43.72282534285688" lon="11.974587913808344"><ele>1085.6666666666667</ele><time>2026-05-02T09:42:18Z</time></trkpt><trkpt lat="43.72290805882487" lon="11.974675994097172"><ele>1087.0</ele><time>2026-05-02T09:42:20Z</time></trkpt><trkpt lat="43.722944218324166" lon="11.97474982880329"><ele>1088.3333333333335</ele><time>2026-05-02T09:42:21Z</time></trkpt><trkpt lat="43.722974756319445" lon="11.974826069372487"><ele>1089.6666666666667</ele><time>2026-05-02T09:42:22Z</time></trkpt><trkpt lat="43.723010512366386" lon="11.974902278715886"><ele>1091.0</ele><time>2026-05-02T09:42:23Z</time></trkpt><trkpt lat="43.7230516364453" lon="11.974972619418185"><ele>1091.8</ele><time>2026-05-02T09:42:24Z</time></trkpt><trkpt lat="43.72309565484448" lon="11.97503659936926"><ele>1092.6</ele><time>2026-05-02T09:42:25Z</time></trkpt><trkpt lat="43.72315122317877" lon="11.97509492122686"><ele>1093.4</ele><time>2026-05-02T09:42:26Z</time></trkpt><trkpt lat="43.723221558939834" lon="11.975209744748668"><ele>1094.2</ele><time>2026-05-02T09:42:28Z</time></trkpt><trkpt lat="43.72323758497365" lon="11.975376915011728"><ele>1095.0</ele><time>2026-05-02T09:42:30Z</time></trkpt><trkpt lat="43.723236509376285" lon="11.975534796197952"><ele>1095.0</ele><time>2026-05-02T09:42:32Z</time></trkpt><trkpt lat="43.72326147384477" lon="11.975619057004275"><ele>1095.0</ele><time>2026-05-02T09:42:33Z</time></trkpt><trkpt lat="43.72329089046772" lon="11.975714855069173"><ele>1095.0</ele><time>2026-05-02T09:42:34Z</time></trkpt><trkpt lat="43.7233097102454" lon="11.975811723762533"><ele>1095.0</ele><time>2026-05-02T09:42:35Z</time></trkpt><trkpt lat="43.723339651508645" lon="11.975898340066896"><ele>1095.0</ele><time>2026-05-02T09:42:36Z</time></trkpt><trkpt lat="43.72340914908144" lon="11.976054658648895"><ele>1095.0</ele><time>2026-05-02T09:42:38Z</time></trkpt><trkpt lat="43.72344635134974" lon="11.976153878887361"><ele>1096.1666666666667</ele><time>2026-05-02T09:42:39Z</time></trkpt><trkpt lat="43.7234726543939" lon="11.97625404913889"><ele>1097.3333333333333</ele><time>2026-05-02T09:42:40Z</time></trkpt><trkpt lat="43.723483689238506" lon="11.97636373273401"><ele>1098.5</ele><time>2026-05-02T09:42:41Z</time></trkpt><trkpt lat="43.72349910708408" lon="11.976469880871418"><ele>1099.6666666666665</ele><time>2026-05-02T09:42:42Z</time></trkpt><trkpt lat="43.7235054249048" lon="11.976566681969107"><ele>1100.8333333333333</ele><time>2026-05-02T09:42:43Z</time></trkpt><trkpt lat="43.72350760650201" lon="11.976683393092115"><ele>1102.0</ele><time>2026-05-02T09:42:44Z</time></trkpt><trkpt lat="43.72349801537945" lon="11.976802334762072"><ele>1103.5</ele><time>2026-05-02T09:42:45Z</time></trkpt><trkpt lat="43.723492933411876" lon="11.976913732342929"><ele>1105.0</ele><time>2026-05-02T09:42:46Z</time></trkpt><trkpt lat="43.72349333397664" lon="11.97702467392049"><ele>1106.5</ele><time>2026-05-02T09:42:47Z</time></trkpt><trkpt lat="43.7235006557468" lon="11.977133053768878"><ele>1108.0</ele><time>2026-05-02T09:42:48Z</time></trkpt><trkpt lat="43.72350100207394" lon="11.977243715229342"><ele>1109.5</ele><time>2026-05-02T09:42:49Z</time></trkpt><trkpt lat="43.72349117461789" lon="11.977357553014741"><ele>1111.0</ele><time>2026-05-02T09:42:50Z</time></trkpt><trkpt lat="43.72348023358111" lon="11.977467013065178"><ele>1112.8333333333333</ele><time>2026-05-02T09:42:51Z</time></trkpt><trkpt lat="43.72346377240182" lon="11.97757171200279"><ele>1114.6666666666665</ele><time>2026-05-02T09:42:52Z</time></trkpt><trkpt lat="43.7234359937861" lon="11.977677962302227"><ele>1116.5</ele><time>2026-05-02T09:42:53Z</time></trkpt><trkpt lat="43.723405380365456" lon="11.977779910137066"><ele>1118.3333333333333</ele><time>2026-05-02T09:42:54Z</time></trkpt><trkpt lat="43.723381777645166" lon="11.97787527691825"><ele>1120.1666666666667</ele><time>2026-05-02T09:42:55Z</time></trkpt><trkpt lat="43.72336706352041" lon="11.977984603478621"><ele>1122.0</ele><time>2026-05-02T09:42:56Z</time></trkpt><trkpt lat="43.72335984750985" lon="11.978108086021289"><ele>1122.0</ele><time>2026-05-02T09:42:57Z</time></trkpt><trkpt lat="43.72333696907557" lon="11.978234784661884"><ele>1122.0</ele><time>2026-05-02T09:42:58Z</time></trkpt><trkpt lat="43.72331660648962" lon="11.978323380532283"><ele>1122.0</ele><time>2026-05-02T09:42:59Z</time></trkpt><trkpt lat="43.723313589941604" lon="11.978413771820234"><ele>1122.0</ele><time>2026-05-02T09:43:00Z</time></trkpt><trkpt lat="43.72329449773427" lon="11.978501954868504"><ele>1122.0</ele><time>2026-05-02T09:43:01Z</time></trkpt><trkpt lat="43.723263895973226" lon="11.978613668553667"><ele>1122.0</ele><time>2026-05-02T09:43:02Z</time></trkpt><trkpt lat="43.72321128088948" lon="11.978697506182614"><ele>1124.4</ele><time>2026-05-02T09:43:03Z</time></trkpt><trkpt lat="43.723164078116426" lon="11.978770456154004"><ele>1126.8000000000002</ele><time>2026-05-02T09:43:04Z</time></trkpt><trkpt lat="43.72311001050216" lon="11.978838994655229"><ele>1129.2</ele><time>2026-05-02T09:43:05Z</time></trkpt><trkpt lat="43.72306571928075" lon="11.978974718446297"><ele>1131.6000000000001</ele><time>2026-05-02T09:43:07Z</time></trkpt><trkpt lat="43.72309332513825" lon="11.97912743685484"><ele>1134.0</ele><time>2026-05-02T09:43:09Z</time></trkpt><trkpt lat="43.723121773284525" lon="11.979237438967495"><ele>1135.4</ele><time>2026-05-02T09:43:10Z</time></trkpt><trkpt lat="43.7231432112499" lon="11.979357829345036"><ele>1136.8000000000002</ele><time>2026-05-02T09:43:11Z</time></trkpt><trkpt lat="43.723150692730506" lon="11.979473094699856"><ele>1138.1999999999998</ele><time>2026-05-02T09:43:12Z</time></trkpt><trkpt lat="43.7231123815979" lon="11.979618417495416"><ele>1139.6</ele><time>2026-05-02T09:43:14Z</time></trkpt><trkpt lat="43.72307752232327" lon="11.979753612451987"><ele>1141.0</ele><time>2026-05-02T09:43:16Z</time></trkpt><trkpt lat="43.72306404576443" lon="11.979873364673535"><ele>1141.0</ele><time>2026-05-02T09:43:17Z</time></trkpt><trkpt lat="43.723054727162875" lon="11.979975774950196"><ele>1141.0</ele><time>2026-05-02T09:43:18Z</time></trkpt><trkpt lat="43.72303520554694" lon="11.980085451183967"><ele>1141.0</ele><time>2026-05-02T09:43:20Z</time></trkpt><trkpt lat="43.723006709296754" lon="11.980232470256878"><ele>1141.0</ele><time>2026-05-02T09:43:22Z</time></trkpt><trkpt lat="43.722971668233086" lon="11.980351162567487"><ele>1141.0</ele><time>2026-05-02T09:43:24Z</time></trkpt><trkpt lat="43.722929909818156" lon="11.980427073408679"><ele>1141.0</ele><time>2026-05-02T09:43:28Z</time></trkpt><trkpt lat="43.722847533216616" lon="11.980551339957255"><ele>1140.3999999999999</ele><time>2026-05-02T09:43:31Z</time></trkpt><trkpt lat="43.722787036800135" lon="11.980645853848749"><ele>1139.8</ele><time>2026-05-02T09:43:32Z</time></trkpt><trkpt lat="43.722724236722165" lon="11.980752319645713"><ele>1139.1999999999998</ele><time>2026-05-02T09:43:34Z</time></trkpt><trkpt lat="43.72268221346691" lon="11.980830935731436"><ele>1138.6</ele><time>2026-05-02T09:43:35Z</time></trkpt><trkpt lat="43.72262283623774" lon="11.980961404434474"><ele>1138.0</ele><time>2026-05-02T09:43:37Z</time></trkpt><trkpt lat="43.72256266905946" lon="11.981113487948418"><ele>1136.0</ele><time>2026-05-02T09:43:39Z</time></trkpt><trkpt lat="43.722584108889706" lon="11.98128222575272"><ele>1134.0</ele><time>2026-05-02T09:43:41Z</time></trkpt><trkpt lat="43.72258217450111" lon="11.98138062941767"><ele>1132.0</ele><time>2026-05-02T09:43:42Z</time></trkpt><trkpt lat="43.72255928886157" lon="11.981475011856709"><ele>1130.0</ele><time>2026-05-02T09:43:43Z</time></trkpt><trkpt lat="43.72248569536245" lon="11.981603100999553"><ele>1128.0</ele><time>2026-05-02T09:43:45Z</time></trkpt><trkpt lat="43.72246003055421" lon="11.981683897306524"><ele>1126.0</ele><time>2026-05-02T09:43:46Z</time></trkpt><trkpt lat="43.72241118853718" lon="11.981820023051917"><ele>1123.3999999999999</ele><time>2026-05-02T09:43:48Z</time></trkpt><trkpt lat="43.722413473747565" lon="11.9819204147135"><ele>1120.8</ele><time>2026-05-02T09:43:49Z</time></trkpt><trkpt lat="43.722436206865886" lon="11.982013185219678"><ele>1118.1999999999998</ele><time>2026-05-02T09:43:50Z</time></trkpt><trkpt lat="43.72239960331118" lon="11.982145689685776"><ele>1115.6</ele><time>2026-05-02T09:43:52Z</time></trkpt><trkpt lat="43.722322615587885" lon="11.982216771569744"><ele>1113.0</ele><time>2026-05-02T09:43:54Z</time></trkpt><trkpt lat="43.7222154505235" lon="11.982148580976865"><ele>1113.0</ele><time>2026-05-02T09:43:56Z</time></trkpt><trkpt lat="43.722159865568784" lon="11.982069054445768"><ele>1113.0</ele><time>2026-05-02T09:43:57Z</time></trkpt><trkpt lat="43.72210098409052" lon="11.982003822355031"><ele>1113.0</ele><time>2026-05-02T09:43:58Z</time></trkpt><trkpt lat="43.72202907494341" lon="11.98196997582506"><ele>1113.0</ele><time>2026-05-02T09:43:59Z</time></trkpt><trkpt lat="43.7219175397258" lon="11.981988604343892"><ele>1113.0</ele><time>2026-05-02T09:44:01Z</time></trkpt><trkpt lat="43.72182688854203" lon="11.982119632980512"><ele>1113.6</ele><time>2026-05-02T09:44:03Z</time></trkpt><trkpt lat="43.721817589034465" lon="11.982283053264869"><ele>1114.1999999999998</ele><time>2026-05-02T09:44:04Z</time></trkpt><trkpt lat="43.721800245772734" lon="11.982396543857316"><ele>1114.8</ele><time>2026-05-02T09:44:05Z</time></trkpt><trkpt lat="43.721772324219096" lon="11.982488826138061"><ele>1115.3999999999999</ele><time>2026-05-02T09:44:06Z</time></trkpt><trkpt lat="43.72170067361577" lon="11.982642287198143"><ele>1116.0</ele><time>2026-05-02T09:44:08Z</time></trkpt><trkpt lat="43.72166994884535" lon="11.982738646802716"><ele>1116.0</ele><time>2026-05-02T09:44:09Z</time></trkpt><trkpt lat="43.72164345972483" lon="11.98283309021831"><ele>1116.0</ele><time>2026-05-02T09:44:10Z</time></trkpt><trkpt lat="43.72162387685482" lon="11.982937353990156"><ele>1116.0</ele><time>2026-05-02T09:44:11Z</time></trkpt><trkpt lat="43.72159940267664" lon="11.983057257465042"><ele>1116.0</ele><time>2026-05-02T09:44:12Z</time></trkpt><trkpt lat="43.721577827090336" lon="11.983169968602814"><ele>1116.0</ele><time>2026-05-02T09:44:13Z</time></trkpt><trkpt lat="43.72155341344512" lon="11.983258309467205"><ele>1116.0</ele><time>2026-05-02T09:44:14Z</time></trkpt><trkpt lat="43.72152741071161" lon="11.983355026031102"><ele>1115.3333333333333</ele><time>2026-05-02T09:44:15Z</time></trkpt><trkpt lat="43.72150624580185" lon="11.98346286635031"><ele>1114.6666666666667</ele><time>2026-05-02T09:44:16Z</time></trkpt><trkpt lat="43.721485378241915" lon="11.983597312467671"><ele>1114.0</ele><time>2026-05-02T09:44:18Z</time></trkpt><trkpt lat="43.72150266520926" lon="11.983709669278959"><ele>1113.3333333333335</ele><time>2026-05-02T09:44:22Z</time></trkpt><trkpt lat="43.72146729237728" lon="11.98385503839347"><ele>1112.6666666666667</ele><time>2026-05-02T09:44:24Z</time></trkpt><trkpt lat="43.7215056040707" lon="11.983942001437725"><ele>1112.0</ele><time>2026-05-02T09:44:26Z</time></trkpt><trkpt lat="43.72154455965331" lon="11.984059011086787"><ele>1112.0</ele><time>2026-05-02T09:44:28Z</time></trkpt><trkpt lat="43.72153712579176" lon="11.984161052353066"><ele>1112.0</ele><time>2026-05-02T09:44:30Z</time></trkpt><trkpt lat="43.72152695901305" lon="11.984304795805269"><ele>1112.0</ele><time>2026-05-02T09:44:32Z</time></trkpt><trkpt lat="43.721538103589715" lon="11.984438624049012"><ele>1112.0</ele><time>2026-05-02T09:44:34Z</time></trkpt><trkpt lat="43.721594016010684" lon="11.984528513910112"><ele>1112.0</ele><time>2026-05-02T09:44:36Z</time></trkpt><trkpt lat="43.72158232345606" lon="11.984649586275795"><ele>1112.2</ele><time>2026-05-02T09:44:38Z</time></trkpt><trkpt lat="43.72151186315024" lon="11.984729885474504"><ele>1112.4</ele><time>2026-05-02T09:44:40Z</time></trkpt><trkpt lat="43.721426488790954" lon="11.984757749274515"><ele>1112.6</ele><time>2026-05-02T09:44:42Z</time></trkpt><trkpt lat="43.72132191528098" lon="11.984807539699744"><ele>1112.8</ele><time>2026-05-02T09:44:44Z</time></trkpt><trkpt lat="43.72122741046028" lon="11.98487507210336"><ele>1113.0</ele><time>2026-05-02T09:44:46Z</time></trkpt><trkpt lat="43.72115403130037" lon="11.984982160001842"><ele>1110.4</ele><time>2026-05-02T09:44:48Z</time></trkpt><trkpt lat="43.72109399446076" lon="11.98508140386776"><ele>1107.8</ele><time>2026-05-02T09:44:50Z</time></trkpt><trkpt lat="43.72100729191555" lon="11.985171305793104"><ele>1105.2</ele><time>2026-05-02T09:44:52Z</time></trkpt><trkpt lat="43.720924473436696" lon="11.985268949667255"><ele>1102.6</ele><time>2026-05-02T09:44:54Z</time></trkpt><trkpt lat="43.72085461021318" lon="11.985326280499114"><ele>1100.0</ele><time>2026-05-02T09:44:55Z</time></trkpt><trkpt lat="43.72078879792892" lon="11.985387055199542"><ele>1104.5</ele><time>2026-05-02T09:44:56Z</time></trkpt><trkpt lat="43.72071212924975" lon="11.985441720768781"><ele>1109.0</ele><time>2026-05-02T09:44:57Z</time></trkpt><trkpt lat="43.72060814938144" lon="11.98556131818694"><ele>1113.5</ele><time>2026-05-02T09:44:59Z</time></trkpt><trkpt lat="43.72056067368683" lon="11.985629231842687"><ele>1118.0</ele><time>2026-05-02T09:45:00Z</time></trkpt><trkpt lat="43.72050576068597" lon="11.985673106156723"><ele>1122.5</ele><time>2026-05-02T09:45:01Z</time></trkpt><trkpt lat="43.72045458956489" lon="11.985729084630862"><ele>1127.0</ele><time>2026-05-02T09:45:02Z</time></trkpt><trkpt lat="43.720389688775725" lon="11.985814731660582"><ele>1127.6</ele><time>2026-05-02T09:45:04Z</time></trkpt><trkpt lat="43.72033048695084" lon="11.985878482210941"><ele>1128.2</ele><time>2026-05-02T09:45:06Z</time></trkpt><trkpt lat="43.720263230472725" lon="11.985965497033627"><ele>1128.8</ele><time>2026-05-02T09:45:08Z</time></trkpt><trkpt lat="43.72019380126489" lon="11.986051260709912"><ele>1129.4</ele><time>2026-05-02T09:45:11Z</time></trkpt><trkpt lat="43.7201095817682" lon="11.986144818879874"><ele>1130.0</ele><time>2026-05-02T09:45:13Z</time></trkpt><trkpt lat="43.72002593244339" lon="11.986255699716219"><ele>1130.0</ele><time>2026-05-02T09:45:15Z</time></trkpt><trkpt lat="43.71997352496437" lon="11.986313393060508"><ele>1130.0</ele><time>2026-05-02T09:45:16Z</time></trkpt><trkpt lat="43.71991741255429" lon="11.98638664675579"><ele>1130.0</ele><time>2026-05-02T09:45:17Z</time></trkpt><trkpt lat="43.71986676279557" lon="11.98645363278977"><ele>1130.0</ele><time>2026-05-02T09:45:18Z</time></trkpt><trkpt lat="43.71978269095244" lon="11.986592965998067"><ele>1130.0</ele><time>2026-05-02T09:45:20Z</time></trkpt><trkpt lat="43.71974796892241" lon="11.986686366296297"><ele>1130.0</ele><time>2026-05-02T09:45:21Z</time></trkpt><trkpt lat="43.7197243532081" lon="11.986776825762968"><ele>1127.1666666666667</ele><time>2026-05-02T09:45:22Z</time></trkpt><trkpt lat="43.71969666489825" lon="11.986861991607377"><ele>1124.3333333333335</ele><time>2026-05-02T09:45:23Z</time></trkpt><trkpt lat="43.71966730999529" lon="11.986950620030084"><ele>1121.5</ele><time>2026-05-02T09:45:24Z</time></trkpt><trkpt lat="43.719634898527445" lon="11.987032626246037"><ele>1118.6666666666667</ele><time>2026-05-02T09:45:25Z</time></trkpt><trkpt lat="43.71960321618479" lon="11.987118474570694"><ele>1115.8333333333333</ele><time>2026-05-02T09:45:26Z</time></trkpt><trkpt lat="43.71954365418629" lon="11.987253764202517"><ele>1113.0</ele><time>2026-05-02T09:45:28Z</time></trkpt><trkpt lat="43.719504407696235" lon="11.987335587523098"><ele>1113.0</ele><time>2026-05-02T09:45:29Z</time></trkpt><trkpt lat="43.71943575733135" lon="11.987499435209052"><ele>1113.0</ele><time>2026-05-02T09:45:31Z</time></trkpt><trkpt lat="43.71937768675761" lon="11.9876362202434"><ele>1113.0</ele><time>2026-05-02T09:45:33Z</time></trkpt><trkpt lat="43.719333266427135" lon="11.987744869901212"><ele>1113.0</ele><time>2026-05-02T09:45:35Z</time></trkpt><trkpt lat="43.719288823200024" lon="11.98785134261944"><ele>1113.0</ele><time>2026-05-02T09:45:37Z</time></trkpt><trkpt lat="43.719249421441695" lon="11.987974050598472"><ele>1111.5</ele><time>2026-05-02T09:45:39Z</time></trkpt><trkpt lat="43.7192329644624" lon="11.988060039244063"><ele>1110.0</ele><time>2026-05-02T09:45:40Z</time></trkpt><trkpt lat="43.71920898941802" lon="11.988154943234154"><ele>1108.5</ele><time>2026-05-02T09:45:41Z</time></trkpt><trkpt lat="43.71917016320195" lon="11.988247331401658"><ele>1107.0</ele><time>2026-05-02T09:45:42Z</time></trkpt><trkpt lat="43.71913343857972" lon="11.988327420628776"><ele>1105.5</ele><time>2026-05-02T09:45:43Z</time></trkpt><trkpt lat="43.71903117973337" lon="11.988433370538337"><ele>1104.0</ele><time>2026-05-02T09:45:45Z</time></trkpt><trkpt lat="43.718973582896076" lon="11.988481644067305"><ele>1104.0</ele><time>2026-05-02T09:45:46Z</time></trkpt><trkpt lat="43.718912391169084" lon="11.988546721047014"><ele>1104.0</ele><time>2026-05-02T09:45:47Z</time></trkpt><trkpt lat="43.71883049964124" lon="11.988601280372086"><ele>1104.0</ele><time>2026-05-02T09:45:49Z</time></trkpt><trkpt lat="43.71877205318371" lon="11.98864895184817"><ele>1104.0</ele><time>2026-05-02T09:45:50Z</time></trkpt><trkpt lat="43.71871868451965" lon="11.988701851709994"><ele>1104.0</ele><time>2026-05-02T09:45:51Z</time></trkpt><trkpt lat="43.71867479634547" lon="11.988780685667399"><ele>1104.0</ele><time>2026-05-02T09:45:52Z</time></trkpt><trkpt lat="43.71862381789845" lon="11.988855197504005"><ele>1104.0</ele><time>2026-05-02T09:45:53Z</time></trkpt><trkpt lat="43.718521748265225" lon="11.9890223504173"><ele>1107.2</ele><time>2026-05-02T09:45:55Z</time></trkpt><trkpt lat="43.718438350301355" lon="11.989122726140229"><ele>1110.4</ele><time>2026-05-02T09:45:56Z</time></trkpt><trkpt lat="43.718358396732505" lon="11.989219828699278"><ele>1113.6</ele><time>2026-05-02T09:45:57Z</time></trkpt><trkpt lat="43.71829760385258" lon="11.989300421881492"><ele>1116.8</ele><time>2026-05-02T09:45:58Z</time></trkpt><trkpt lat="43.71825302975973" lon="11.989376149994692"><ele>1120.0</ele><time>2026-05-02T09:45:59Z</time></trkpt><trkpt lat="43.71817306669231" lon="11.989451228340481"><ele>1120.0</ele><time>2026-05-02T09:46:00Z</time></trkpt><trkpt lat="43.71811091378933" lon="11.989507220713818"><ele>1120.0</ele><time>2026-05-02T09:46:01Z</time></trkpt><trkpt lat="43.71805273639565" lon="11.98957732889328"><ele>1120.0</ele><time>2026-05-02T09:46:02Z</time></trkpt><trkpt lat="43.71801606775081" lon="11.989688725314991"><ele>1120.0</ele><time>2026-05-02T09:46:03Z</time></trkpt><trkpt lat="43.71796786891796" lon="11.98980054524554"><ele>1120.0</ele><time>2026-05-02T09:46:04Z</time></trkpt><trkpt lat="43.71792492972486" lon="11.989898589023726"><ele>1120.0</ele><time>2026-05-02T09:46:05Z</time></trkpt><trkpt lat="43.717877691892646" lon="11.990024593446668"><ele>1123.4</ele><time>2026-05-02T09:46:06Z</time></trkpt><trkpt lat="43.717827697859526" lon="11.990130969236949"><ele>1126.8</ele><time>2026-05-02T09:46:07Z</time></trkpt><trkpt lat="43.717761194224444" lon="11.990225983227502"><ele>1130.2</ele><time>2026-05-02T09:46:08Z</time></trkpt><trkpt lat="43.717706809460495" lon="11.990284144884871"><ele>1133.6</ele><time>2026-05-02T09:46:09Z</time></trkpt><trkpt lat="43.717616413912154" lon="11.990396628982362"><ele>1137.0</ele><time>2026-05-02T09:46:11Z</time></trkpt><trkpt lat="43.717559140341066" lon="11.990479259548547"><ele>1137.0</ele><time>2026-05-02T09:46:12Z</time></trkpt><trkpt lat="43.717504769045334" lon="11.990562831119709"><ele>1137.0</ele><time>2026-05-02T09:46:13Z</time></trkpt><trkpt lat="43.71744854656065" lon="11.990651915206083"><ele>1137.0</ele><time>2026-05-02T09:46:14Z</time></trkpt><trkpt lat="43.717385685528605" lon="11.990733617747331"><ele>1137.0</ele><time>2026-05-02T09:46:15Z</time></trkpt><trkpt lat="43.71734270063" lon="11.990832337469273"><ele>1137.0</ele><time>2026-05-02T09:46:16Z</time></trkpt><trkpt lat="43.717276025167486" lon="11.990897185790029"><ele>1137.0</ele><time>2026-05-02T09:46:17Z</time></trkpt><trkpt lat="43.717208787468785" lon="11.990958500773397"><ele>1135.5</ele><time>2026-05-02T09:46:18Z</time></trkpt><trkpt lat="43.7171314762248" lon="11.99101211096903"><ele>1134.0</ele><time>2026-05-02T09:46:19Z</time></trkpt><trkpt lat="43.71704881174892" lon="11.991039852795566"><ele>1132.5</ele><time>2026-05-02T09:46:20Z</time></trkpt><trkpt lat="43.71696615335757" lon="11.99106502930656"><ele>1131.0</ele><time>2026-05-02T09:46:21Z</time></trkpt><trkpt lat="43.71688917762091" lon="11.991099901478652"><ele>1129.5</ele><time>2026-05-02T09:46:22Z</time></trkpt><trkpt lat="43.71681260521856" lon="11.991120999624284"><ele>1128.0</ele><time>2026-05-02T09:46:23Z</time></trkpt><trkpt lat="43.71672206489911" lon="11.991122729221972"><ele>1135.4</ele><time>2026-05-02T09:46:24Z</time></trkpt><trkpt lat="43.71662196456747" lon="11.991117036408095"><ele>1142.8</ele><time>2026-05-02T09:46:25Z</time></trkpt><trkpt lat="43.71652762828213" lon="11.991109566914497"><ele>1150.2</ele><time>2026-05-02T09:46:26Z</time></trkpt><trkpt lat="43.71642805550419" lon="11.991083496298357"><ele>1157.6</ele><time>2026-05-02T09:46:27Z</time></trkpt><trkpt lat="43.71634251849569" lon="11.991047598779224"><ele>1165.0</ele><time>2026-05-02T09:46:28Z</time></trkpt><trkpt lat="43.7162598302919" lon="11.99098226153164"><ele>1165.0</ele><time>2026-05-02T09:46:29Z</time></trkpt><trkpt lat="43.716164865362984" lon="11.990934507563978"><ele>1165.0</ele><time>2026-05-02T09:46:30Z</time></trkpt><trkpt lat="43.716071806715945" lon="11.99088796655746"><ele>1165.0</ele><time>2026-05-02T09:46:31Z</time></trkpt><trkpt lat="43.71594637981079" lon="11.99084383374119"><ele>1165.0</ele><time>2026-05-02T09:46:33Z</time></trkpt><trkpt lat="43.71587282678766" lon="11.990834959729336"><ele>1165.0</ele><time>2026-05-02T09:47:06Z</time></trkpt><trkpt lat="43.71580164384247" lon="11.99078180414721"><ele>1167.0</ele><time>2026-05-02T09:47:10Z</time></trkpt><trkpt lat="43.715730435006215" lon="11.990853424978205"><ele>1169.0</ele><time>2026-05-02T09:47:15Z</time></trkpt><trkpt lat="43.715681583747475" lon="11.990953473274828"><ele>1171.0</ele><time>2026-05-02T09:47:17Z</time></trkpt><trkpt lat="43.715646061006105" lon="11.991061327247035"><ele>1173.0</ele><time>2026-05-02T09:47:19Z</time></trkpt><trkpt lat="43.71562396564986" lon="11.99117494257193"><ele>1175.0</ele><time>2026-05-02T09:47:21Z</time></trkpt><trkpt lat="43.71559199186569" lon="11.991251537386393"><ele>1177.0</ele><time>2026-05-02T09:47:22Z</time></trkpt><trkpt lat="43.71556204106794" lon="11.991383588577595"><ele>1177.0</ele><time>2026-05-02T09:47:24Z</time></trkpt><trkpt lat="43.71550692912404" lon="11.991481584771627"><ele>1177.0</ele><time>2026-05-02T09:47:26Z</time></trkpt><trkpt lat="43.71542616523515" lon="11.99158400849431"><ele>1177.0</ele><time>2026-05-02T09:47:28Z</time></trkpt><trkpt lat="43.71535486358084" lon="11.991692262744268"><ele>1177.0</ele><time>2026-05-02T09:47:30Z</time></trkpt><trkpt lat="43.715319609802165" lon="11.991771392127038"><ele>1177.0</ele><time>2026-05-02T09:47:32Z</time></trkpt><trkpt lat="43.71525053106776" lon="11.991834948935574"><ele>1175.2</ele><time>2026-05-02T09:47:33Z</time></trkpt><trkpt lat="43.7151602719965" lon="11.99194947815795"><ele>1173.4</ele><time>2026-05-02T09:47:35Z</time></trkpt><trkpt lat="43.7150958529965" lon="11.992046176040727"><ele>1171.6</ele><time>2026-05-02T09:47:37Z</time></trkpt><trkpt lat="43.71503322170034" lon="11.992119475608057"><ele>1169.8</ele><time>2026-05-02T09:47:39Z</time></trkpt><trkpt lat="43.71496187353559" lon="11.992230866943267"><ele>1168.0</ele><time>2026-05-02T09:47:41Z</time></trkpt><trkpt lat="43.71492868413996" lon="11.992315746668853"><ele>1168.0</ele><time>2026-05-02T09:47:42Z</time></trkpt><trkpt lat="43.71489906302284" lon="11.992417212994162"><ele>1168.0</ele><time>2026-05-02T09:47:44Z</time></trkpt><trkpt lat="43.714881876100975" lon="11.992528923227365"><ele>1168.0</ele><time>2026-05-02T09:47:46Z</time></trkpt><trkpt lat="43.71487997334174" lon="11.992636487913765"><ele>1168.0</ele><time>2026-05-02T09:47:48Z</time></trkpt><trkpt lat="43.71486378334656" lon="11.992724805680924"><ele>1168.0</ele><time>2026-05-02T09:47:49Z</time></trkpt><trkpt lat="43.71485598211244" lon="11.992834087922235"><ele>1168.0</ele><time>2026-05-02T09:47:51Z</time></trkpt><trkpt lat="43.714824703385275" lon="11.992982153276145"><ele>1167.3333333333333</ele><time>2026-05-02T09:47:53Z</time></trkpt><trkpt lat="43.71482963047915" lon="11.993098844324773"><ele>1166.6666666666665</ele><time>2026-05-02T09:47:55Z</time></trkpt><trkpt lat="43.714820844570006" lon="11.993261879739316"><ele>1166.0</ele><time>2026-05-02T09:47:58Z</time></trkpt><trkpt lat="43.71479768736455" lon="11.993367025369894"><ele>1165.3333333333333</ele><time>2026-05-02T09:48:00Z</time></trkpt><trkpt lat="43.7147544211415" lon="11.993453733751315"><ele>1164.6666666666667</ele><time>2026-05-02T09:48:02Z</time></trkpt><trkpt lat="43.714746307920564" lon="11.993578934411786"><ele>1164.0</ele><time>2026-05-02T09:48:04Z</time></trkpt><trkpt lat="43.71469435465805" lon="11.993733415038056"><ele>1160.6666666666667</ele><time>2026-05-02T09:48:06Z</time></trkpt><trkpt lat="43.71469123245887" lon="11.993855612882927"><ele>1157.3333333333333</ele><time>2026-05-02T09:48:08Z</time></trkpt><trkpt lat="43.71468629463838" lon="11.99398424056526"><ele>1154.0</ele><time>2026-05-02T09:48:10Z</time></trkpt><trkpt lat="43.71464025004612" lon="11.994105103017572"><ele>1150.6666666666665</ele><time>2026-05-02T09:48:12Z</time></trkpt><trkpt lat="43.71459167903088" lon="11.99416992142018"><ele>1147.3333333333333</ele><time>2026-05-02T09:48:13Z</time></trkpt><trkpt lat="43.71453571897399" lon="11.994232981073417"><ele>1144.0</ele><time>2026-05-02T09:48:14Z</time></trkpt><trkpt lat="43.71450498695155" lon="11.994312027113361"><ele>1139.8</ele><time>2026-05-02T09:48:15Z</time></trkpt><trkpt lat="43.71445436904297" lon="11.994397346054967"><ele>1135.6000000000001</ele><time>2026-05-02T09:48:17Z</time></trkpt><trkpt lat="43.71433432471874" lon="11.994450518857404"><ele>1131.4</ele><time>2026-05-02T09:48:19Z</time></trkpt><trkpt lat="43.71423908298482" lon="11.994533446979354"><ele>1127.2</ele><time>2026-05-02T09:48:21Z</time></trkpt><trkpt lat="43.714178217402655" lon="11.994601338388957"><ele>1123.0</ele><time>2026-05-02T09:48:22Z</time></trkpt><trkpt lat="43.71410949240068" lon="11.994668473589055"><ele>1123.0</ele><time>2026-05-02T09:48:23Z</time></trkpt><trkpt lat="43.714045299776224" lon="11.994761630822596"><ele>1123.0</ele><time>2026-05-02T09:48:25Z</time></trkpt><trkpt lat="43.71394321714512" lon="11.994847624715158"><ele>1123.0</ele><time>2026-05-02T09:48:27Z</time></trkpt><trkpt lat="43.71388636123145" lon="11.994907046647313"><ele>1123.0</ele><time>2026-05-02T09:48:28Z</time></trkpt><trkpt lat="43.71383494990157" lon="11.994980175737556"><ele>1123.0</ele><time>2026-05-02T09:48:29Z</time></trkpt><trkpt lat="43.71376783242334" lon="11.995102727245044"><ele>1121.3333333333333</ele><time>2026-05-02T09:48:31Z</time></trkpt><trkpt lat="43.71371617535126" lon="11.995208942727587"><ele>1119.6666666666665</ele><time>2026-05-02T09:48:34Z</time></trkpt><trkpt lat="43.71366969599206" lon="11.995311060811789"><ele>1118.0</ele><time>2026-05-02T09:48:36Z</time></trkpt><trkpt lat="43.7136482352771" lon="11.995406879493007"><ele>1116.3333333333333</ele><time>2026-05-02T09:48:38Z</time></trkpt><trkpt lat="43.713581846769735" lon="11.995552027224418"><ele>1114.6666666666667</ele><time>2026-05-02T09:48:40Z</time></trkpt><trkpt lat="43.71354743155149" lon="11.99563076873495"><ele>1113.0</ele><time>2026-05-02T09:48:41Z</time></trkpt><trkpt lat="43.71347611193852" lon="11.995765095474114"><ele>1110.3333333333333</ele><time>2026-05-02T09:48:43Z</time></trkpt><trkpt lat="43.713451156930006" lon="11.995846168591472"><ele>1107.6666666666667</ele><time>2026-05-02T09:48:44Z</time></trkpt><trkpt lat="43.713422713929965" lon="11.995938966282008"><ele>1105.0</ele><time>2026-05-02T09:48:45Z</time></trkpt><trkpt lat="43.713367654853904" lon="11.99606443283321"><ele>1102.3333333333335</ele><time>2026-05-02T09:48:47Z</time></trkpt><trkpt lat="43.71332137723267" lon="11.996206803754045"><ele>1099.6666666666667</ele><time>2026-05-02T09:48:49Z</time></trkpt><trkpt lat="43.713306488157286" lon="11.996295431111204"><ele>1097.0</ele><time>2026-05-02T09:48:51Z</time></trkpt><trkpt lat="43.71324815608763" lon="11.996387298233541"><ele>1097.0</ele><time>2026-05-02T09:48:54Z</time></trkpt><trkpt lat="43.71319134401805" lon="11.996466462932576"><ele>1097.0</ele><time>2026-05-02T09:49:25Z</time></trkpt><trkpt lat="43.71313842892849" lon="11.996582637220506"><ele>1097.0</ele><time>2026-05-02T09:49:27Z</time></trkpt><trkpt lat="43.7130939036112" lon="11.996679601745926"><ele>1097.0</ele><time>2026-05-02T09:49:29Z</time></trkpt><trkpt lat="43.71306391738182" lon="11.996799076418384"><ele>1097.0</ele><time>2026-05-02T09:49:31Z</time></trkpt><trkpt lat="43.71301875644314" lon="11.996861036970792"><ele>1097.0</ele><time>2026-05-02T09:49:33Z</time></trkpt><trkpt lat="43.71294903542617" lon="11.996945646321826"><ele>1094.5</ele><time>2026-05-02T09:49:39Z</time></trkpt><trkpt lat="43.7128899923666" lon="11.997075478802264"><ele>1092.0</ele><time>2026-05-02T09:49:41Z</time></trkpt><trkpt lat="43.71286311940195" lon="11.997162114670616"><ele>1089.5</ele><time>2026-05-02T09:49:42Z</time></trkpt><trkpt lat="43.71283752626555" lon="11.99724855037079"><ele>1087.0</ele><time>2026-05-02T09:49:43Z</time></trkpt><trkpt lat="43.71280119918579" lon="11.997381480654655"><ele>1084.5</ele><time>2026-05-02T09:49:45Z</time></trkpt><trkpt lat="43.71276263100768" lon="11.997477072281347"><ele>1082.0</ele><time>2026-05-02T09:49:47Z</time></trkpt><trkpt lat="43.71271097380018" lon="11.997638136810284"><ele>1082.0</ele><time>2026-05-02T09:49:49Z</time></trkpt><trkpt lat="43.71268133869044" lon="11.997719654272283"><ele>1082.0</ele><time>2026-05-02T09:49:50Z</time></trkpt><trkpt lat="43.71262771426896" lon="11.997817352712756"><ele>1082.0</ele><time>2026-05-02T09:49:52Z</time></trkpt><trkpt lat="43.71258306273544" lon="11.997889495062239"><ele>1082.0</ele><time>2026-05-02T09:49:54Z</time></trkpt><trkpt lat="43.712520264813094" lon="11.997952483317535"><ele>1082.0</ele><time>2026-05-02T09:49:56Z</time></trkpt><trkpt lat="43.71245095735693" lon="11.998043530939304"><ele>1082.0</ele><time>2026-05-02T09:49:58Z</time></trkpt><trkpt lat="43.71240417431165" lon="11.998136799546602"><ele>1082.0</ele><time>2026-05-02T09:50:00Z</time></trkpt><trkpt lat="43.712361394121004" lon="11.998243034140906"><ele>1082.0</ele><time>2026-05-02T09:50:02Z</time></trkpt><trkpt lat="43.71229811698502" lon="11.998310124971168"><ele>1082.0</ele><time>2026-05-02T09:50:04Z</time></trkpt><trkpt lat="43.71222551475171" lon="11.99841272117343"><ele>1082.0</ele><time>2026-05-02T09:50:06Z</time></trkpt><trkpt lat="43.71216909874791" lon="11.99850703534657"><ele>1082.0</ele><time>2026-05-02T09:50:08Z</time></trkpt><trkpt lat="43.71212131378029" lon="11.998595043702025"><ele>1082.0</ele><time>2026-05-02T09:50:10Z</time></trkpt><trkpt lat="43.71207032045189" lon="11.998738837750443"><ele>1079.2</ele><time>2026-05-02T09:50:12Z</time></trkpt><trkpt lat="43.71201176376629" lon="11.998867192940654"><ele>1076.4</ele><time>2026-05-02T09:50:14Z</time></trkpt><trkpt lat="43.71193215824203" lon="11.998979200844843"><ele>1073.6</ele><time>2026-05-02T09:50:16Z</time></trkpt><trkpt lat="43.71185706530076" lon="11.999085282214613"><ele>1070.8</ele><time>2026-05-02T09:50:18Z</time></trkpt><trkpt lat="43.71177009891443" lon="11.99919517928887"><ele>1068.0</ele><time>2026-05-02T09:50:20Z</time></trkpt><trkpt lat="43.711701174706945" lon="11.99929645850457"><ele>1066.2</ele><time>2026-05-02T09:50:22Z</time></trkpt><trkpt lat="43.71165159748897" lon="11.9993886267251"><ele>1064.4</ele><time>2026-05-02T09:50:24Z</time></trkpt><trkpt lat="43.71161006478591" lon="11.999506504637104"><ele>1062.6000000000001</ele><time>2026-05-02T09:50:26Z</time></trkpt><trkpt lat="43.71159689363543" lon="11.999643675112875"><ele>1060.8</ele><time>2026-05-02T09:50:28Z</time></trkpt><trkpt lat="43.71160259353472" lon="11.999782740327314"><ele>1059.0</ele><time>2026-05-02T09:50:30Z</time></trkpt><trkpt lat="43.71160584916419" lon="11.999898678995567"><ele>1059.0</ele><time>2026-05-02T09:50:32Z</time></trkpt><trkpt lat="43.71161457102886" lon="12.000056030857575"><ele>1059.0</ele><time>2026-05-02T09:50:34Z</time></trkpt><trkpt lat="43.71160579612222" lon="12.000203623790584"><ele>1059.0</ele><time>2026-05-02T09:50:36Z</time></trkpt><trkpt lat="43.71152823593887" lon="12.000364879040067"><ele>1059.0</ele><time>2026-05-02T09:50:38Z</time></trkpt><trkpt lat="43.71148151259106" lon="12.000462282443808"><ele>1059.0</ele><time>2026-05-02T09:50:39Z</time></trkpt><trkpt lat="43.71144358123011" lon="12.000560649400482"><ele>1059.0</ele><time>2026-05-02T09:50:40Z</time></trkpt><trkpt lat="43.7114138204055" lon="12.00067587835244"><ele>1059.0</ele><time>2026-05-02T09:50:41Z</time></trkpt><trkpt lat="43.711369555334244" lon="12.000778778975443"><ele>1059.0</ele><time>2026-05-02T09:50:42Z</time></trkpt><trkpt lat="43.71133901806189" lon="12.00087438814432"><ele>1059.0</ele><time>2026-05-02T09:50:43Z</time></trkpt><trkpt lat="43.71129570266008" lon="12.000959821973426"><ele>1059.0</ele><time>2026-05-02T09:50:44Z</time></trkpt><trkpt lat="43.7112499876652" lon="12.001032393034695"><ele>1059.0</ele><time>2026-05-02T09:50:45Z</time></trkpt><trkpt lat="43.71119986159921" lon="12.001152969455367"><ele>1057.6000000000001</ele><time>2026-05-02T09:50:46Z</time></trkpt><trkpt lat="43.71114612261974" lon="12.0012626480601"><ele>1056.2</ele><time>2026-05-02T09:50:47Z</time></trkpt><trkpt lat="43.7111003338022" lon="12.001395025774757"><ele>1054.8000000000002</ele><time>2026-05-02T09:50:48Z</time></trkpt><trkpt lat="43.71104495678682" lon="12.001512984475786"><ele>1053.4</ele><time>2026-05-02T09:50:49Z</time></trkpt><trkpt lat="43.711002799446966" lon="12.00163552800004"><ele>1052.0</ele><time>2026-05-02T09:50:50Z</time></trkpt><trkpt lat="43.710969131549554" lon="12.001752178084912"><ele>1051.6666666666667</ele><time>2026-05-02T09:50:51Z</time></trkpt><trkpt lat="43.7109215074425" lon="12.001862580342983"><ele>1051.3333333333335</ele><time>2026-05-02T09:50:52Z</time></trkpt><trkpt lat="43.71087106943385" lon="12.001973488110822"><ele>1051.0</ele><time>2026-05-02T09:50:53Z</time></trkpt><trkpt lat="43.710830790006966" lon="12.002060654641067"><ele>1050.6666666666667</ele><time>2026-05-02T09:50:54Z</time></trkpt><trkpt lat="43.7107990491097" lon="12.002161861950922"><ele>1050.3333333333333</ele><time>2026-05-02T09:50:55Z</time></trkpt><trkpt lat="43.71076652138851" lon="12.002282670440907"><ele>1050.0</ele><time>2026-05-02T09:50:56Z</time></trkpt><trkpt lat="43.71072497954891" lon="12.00238956948501"><ele>1050.0</ele><time>2026-05-02T09:50:57Z</time></trkpt><trkpt lat="43.71067729149486" lon="12.002475397783131"><ele>1050.0</ele><time>2026-05-02T09:50:58Z</time></trkpt><trkpt lat="43.71063999904882" lon="12.002574371894482"><ele>1050.0</ele><time>2026-05-02T09:50:59Z</time></trkpt><trkpt lat="43.7105896707578" lon="12.002698474970671"><ele>1050.0</ele><time>2026-05-02T09:51:00Z</time></trkpt><trkpt lat="43.7105379791525" lon="12.002811042270503"><ele>1050.0</ele><time>2026-05-02T09:51:01Z</time></trkpt><trkpt lat="43.71048490957608" lon="12.002909813827982"><ele>1050.0</ele><time>2026-05-02T09:51:02Z</time></trkpt><trkpt lat="43.71044133798775" lon="12.003006516713992"><ele>1049.5</ele><time>2026-05-02T09:51:03Z</time></trkpt><trkpt lat="43.71040144265872" lon="12.003096008327278"><ele>1049.0</ele><time>2026-05-02T09:51:04Z</time></trkpt><trkpt lat="43.71034728779761" lon="12.00319099724206"><ele>1048.5</ele><time>2026-05-02T09:51:05Z</time></trkpt><trkpt lat="43.710304328342374" lon="12.003280533410752"><ele>1048.0</ele><time>2026-05-02T09:51:06Z</time></trkpt><trkpt lat="43.710250938776575" lon="12.003365425455138"><ele>1047.5</ele><time>2026-05-02T09:51:07Z</time></trkpt><trkpt lat="43.71019779343441" lon="12.003444284498336"><ele>1047.0</ele><time>2026-05-02T09:51:08Z</time></trkpt><trkpt lat="43.71014468694009" lon="12.003523632859977"><ele>1046.1666666666667</ele><time>2026-05-02T09:51:09Z</time></trkpt><trkpt lat="43.71008334054859" lon="12.003590693189231"><ele>1045.3333333333333</ele><time>2026-05-02T09:51:10Z</time></trkpt><trkpt lat="43.7100089071254" lon="12.003666463022963"><ele>1044.5</ele><time>2026-05-02T09:51:11Z</time></trkpt><trkpt lat="43.709933531304436" lon="12.003725293885626"><ele>1043.6666666666665</ele><time>2026-05-02T09:51:12Z</time></trkpt><trkpt lat="43.70985966525188" lon="12.003771538245893"><ele>1042.8333333333333</ele><time>2026-05-02T09:51:13Z</time></trkpt><trkpt lat="43.70980467102735" lon="12.003819405940773"><ele>1042.0</ele><time>2026-05-02T09:51:14Z</time></trkpt><trkpt lat="43.70976569313724" lon="12.00388804561173"><ele>1042.0</ele><time>2026-05-02T09:51:15Z</time></trkpt><trkpt lat="43.70971384186594" lon="12.004029966831997"><ele>1042.0</ele><time>2026-05-02T09:51:17Z</time></trkpt><trkpt lat="43.709680716799014" lon="12.004105687748355"><ele>1042.0</ele><time>2026-05-02T09:51:18Z</time></trkpt><trkpt lat="43.709629302058254" lon="12.00417685306723"><ele>1042.0</ele><time>2026-05-02T09:51:19Z</time></trkpt><trkpt lat="43.70956926235332" lon="12.004243768938089"><ele>1042.0</ele><time>2026-05-02T09:51:20Z</time></trkpt><trkpt lat="43.7095044004664" lon="12.004316618068897"><ele>1042.0</ele><time>2026-05-02T09:51:21Z</time></trkpt><trkpt lat="43.709434014380186" lon="12.004421273469763"><ele>1038.4</ele><time>2026-05-02T09:51:22Z</time></trkpt><trkpt lat="43.70937113275002" lon="12.004531122609148"><ele>1034.8000000000002</ele><time>2026-05-02T09:51:23Z</time></trkpt><trkpt lat="43.70929796196286" lon="12.004617382183325"><ele>1031.2</ele><time>2026-05-02T09:51:24Z</time></trkpt><trkpt lat="43.70921764620454" lon="12.004690096925682"><ele>1027.6000000000001</ele><time>2026-05-02T09:51:25Z</time></trkpt><trkpt lat="43.709154024912046" lon="12.004785190438419"><ele>1024.0</ele><time>2026-05-02T09:51:26Z</time></trkpt><trkpt lat="43.70908689649946" lon="12.004864124165337"><ele>1023.9999999999999</ele><time>2026-05-02T09:51:27Z</time></trkpt><trkpt lat="43.70901817055819" lon="12.004951492831227"><ele>1024.0</ele><time>2026-05-02T09:51:28Z</time></trkpt><trkpt lat="43.70894993634687" lon="12.00503181685274"><ele>1024.0</ele><time>2026-05-02T09:51:29Z</time></trkpt><trkpt lat="43.70889019731832" lon="12.005104701677453"><ele>1024.0</ele><time>2026-05-02T09:51:30Z</time></trkpt><trkpt lat="43.70883015427458" lon="12.005177224039286"><ele>1023.9999999999999</ele><time>2026-05-02T09:51:31Z</time></trkpt><trkpt lat="43.708778914151395" lon="12.005251130251267"><ele>1024.0</ele><time>2026-05-02T09:51:32Z</time></trkpt><trkpt lat="43.70872032914706" lon="12.005332380477286"><ele>1021.8333333333333</ele><time>2026-05-02T09:51:33Z</time></trkpt><trkpt lat="43.708656413288665" lon="12.005403525599574"><ele>1019.6666666666666</ele><time>2026-05-02T09:51:34Z</time></trkpt><trkpt lat="43.70859012928244" lon="12.005464827646918"><ele>1017.5</ele><time>2026-05-02T09:51:35Z</time></trkpt><trkpt lat="43.70852536144636" lon="12.005517308237458"><ele>1015.3333333333333</ele><time>2026-05-02T09:51:36Z</time></trkpt><trkpt lat="43.70845673155703" lon="12.005581709131532"><ele>1013.1666666666666</ele><time>2026-05-02T09:51:37Z</time></trkpt><trkpt lat="43.708400300604424" lon="12.00563288839707"><ele>1011.0</ele><time>2026-05-02T09:51:38Z</time></trkpt><trkpt lat="43.70834927063722" lon="12.005688270207274"><ele>1011.0</ele><time>2026-05-02T09:51:39Z</time></trkpt><trkpt lat="43.70827528142142" lon="12.005762573310411"><ele>1011.0</ele><time>2026-05-02T09:51:41Z</time></trkpt><trkpt lat="43.70821911165888" lon="12.005890527985478"><ele>1011.0</ele><time>2026-05-02T09:51:43Z</time></trkpt><trkpt lat="43.70820815817821" lon="12.005988921785436"><ele>1011.0</ele><time>2026-05-02T09:51:44Z</time></trkpt><trkpt lat="43.70818802009938" lon="12.006085357196266"><ele>1011.0</ele><time>2026-05-02T09:51:45Z</time></trkpt><trkpt lat="43.70817118111518" lon="12.006172540539904"><ele>1011.0</ele><time>2026-05-02T09:51:46Z</time></trkpt><trkpt lat="43.708141617845165" lon="12.006268797934021"><ele>1009.6666666666666</ele><time>2026-05-02T09:51:48Z</time></trkpt><trkpt lat="43.70812522495625" lon="12.006388475893496"><ele>1008.3333333333333</ele><time>2026-05-02T09:51:51Z</time></trkpt><trkpt lat="43.70811662171978" lon="12.00647956567809"><ele>1007.0</ele><time>2026-05-02T09:52:00Z</time></trkpt><trkpt lat="43.70811058295519" lon="12.00656758600374"><ele>1005.6666666666666</ele><time>2026-05-02T09:52:02Z</time></trkpt><trkpt lat="43.70810257146939" lon="12.006673539307148"><ele>1004.3333333333333</ele><time>2026-05-02T09:52:04Z</time></trkpt><trkpt lat="43.70807826215723" lon="12.006798869014668"><ele>1003.0</ele><time>2026-05-02T09:52:06Z</time></trkpt><trkpt lat="43.70806132316026" lon="12.006900796020549"><ele>999.3333333333333</ele><time>2026-05-02T09:52:08Z</time></trkpt><trkpt lat="43.70805237564805" lon="12.007003434132638"><ele>995.6666666666666</ele><time>2026-05-02T09:52:11Z</time></trkpt><trkpt lat="43.708030671782254" lon="12.007136845928166"><ele>992.0</ele><time>2026-05-02T09:52:13Z</time></trkpt><trkpt lat="43.708017126950146" lon="12.0072220996893"><ele>988.3333333333333</ele><time>2026-05-02T09:52:14Z</time></trkpt><trkpt lat="43.70799336521786" lon="12.007370905975135"><ele>984.6666666666666</ele><time>2026-05-02T09:52:16Z</time></trkpt><trkpt lat="43.707981623925015" lon="12.007481683928681"><ele>981.0</ele><time>2026-05-02T09:52:18Z</time></trkpt><trkpt lat="43.7079825682247" lon="12.007594808415964"><ele>978.3333333333334</ele><time>2026-05-02T09:52:20Z</time></trkpt><trkpt lat="43.70796977036674" lon="12.007707947286487"><ele>975.6666666666667</ele><time>2026-05-02T09:52:22Z</time></trkpt><trkpt lat="43.70793206761909" lon="12.007785910567714"><ele>973.0</ele><time>2026-05-02T09:52:24Z</time></trkpt><trkpt lat="43.7079089290767" lon="12.007902879122454"><ele>970.3333333333334</ele><time>2026-05-02T09:53:10Z</time></trkpt><trkpt lat="43.70789344655652" lon="12.008064848105846"><ele>967.6666666666667</ele><time>2026-05-02T09:53:12Z</time></trkpt><trkpt lat="43.707884600139714" lon="12.008156188231924"><ele>965.0</ele><time>2026-05-02T09:53:13Z</time></trkpt><trkpt lat="43.70787985054111" lon="12.008247487756899"><ele>964.3333333333334</ele><time>2026-05-02T09:53:14Z</time></trkpt><trkpt lat="43.70786701645919" lon="12.008350536492166"><ele>963.6666666666667</ele><time>2026-05-02T09:53:15Z</time></trkpt><trkpt lat="43.70779890378701" lon="12.00849253394009"><ele>963.0</ele><time>2026-05-02T09:53:17Z</time></trkpt><trkpt lat="43.707740935482576" lon="12.008550792950295"><ele>962.3333333333333</ele><time>2026-05-02T09:53:18Z</time></trkpt><trkpt lat="43.707670125918476" lon="12.008615876511554"><ele>961.6666666666666</ele><time>2026-05-02T09:53:19Z</time></trkpt><trkpt lat="43.70759566175032" lon="12.00868744664824"><ele>961.0</ele><time>2026-05-02T09:53:20Z</time></trkpt><trkpt lat="43.70751818756086" lon="12.008760074674134"><ele>960.9999999999999</ele><time>2026-05-02T09:53:21Z</time></trkpt><trkpt lat="43.707437179011116" lon="12.008841440214429"><ele>961.0</ele><time>2026-05-02T09:53:22Z</time></trkpt><trkpt lat="43.7073739570288" lon="12.008906456092076"><ele>961.0</ele><time>2026-05-02T09:53:23Z</time></trkpt><trkpt lat="43.70731847895138" lon="12.00895801746436"><ele>961.0</ele><time>2026-05-02T09:53:24Z</time></trkpt><trkpt lat="43.707253134865894" lon="12.009005890811014"><ele>960.9999999999999</ele><time>2026-05-02T09:53:25Z</time></trkpt><trkpt lat="43.70718904845396" lon="12.00907543702452"><ele>961.0</ele><time>2026-05-02T09:53:26Z</time></trkpt><trkpt lat="43.70712357441838" lon="12.009148417712668"><ele>959.9999999999999</ele><time>2026-05-02T09:53:27Z</time></trkpt><trkpt lat="43.7070679912555" lon="12.009201760451388"><ele>959.0</ele><time>2026-05-02T09:53:28Z</time></trkpt><trkpt lat="43.70700104898878" lon="12.009240247170792"><ele>958.0</ele><time>2026-05-02T09:53:29Z</time></trkpt><trkpt lat="43.70694356273129" lon="12.009280533030564"><ele>957.0</ele><time>2026-05-02T09:53:30Z</time></trkpt><trkpt lat="43.70685152151051" lon="12.009349557921967"><ele>955.9999999999999</ele><time>2026-05-02T09:53:32Z</time></trkpt><trkpt lat="43.70676159470152" lon="12.009410372390812"><ele>955.0</ele><time>2026-05-02T09:53:34Z</time></trkpt><trkpt lat="43.706654910168254" lon="12.009466375754865"><ele>953.8</ele><time>2026-05-02T09:53:36Z</time></trkpt><trkpt lat="43.70654972248949" lon="12.009534058875758"><ele>952.6</ele><time>2026-05-02T09:53:38Z</time></trkpt><trkpt lat="43.706484179924274" lon="12.009550550485516"><ele>951.4000000000001</ele><time>2026-05-02T09:53:39Z</time></trkpt><trkpt lat="43.70637572157806" lon="12.009603698120584"><ele>950.2</ele><time>2026-05-02T09:53:41Z</time></trkpt><trkpt lat="43.70631524557391" lon="12.009708916049274"><ele>949.0</ele><time>2026-05-02T09:53:43Z</time></trkpt><trkpt lat="43.706296873754596" lon="12.009884397753735"><ele>948.9999999999999</ele><time>2026-05-02T09:53:45Z</time></trkpt><trkpt lat="43.706279300371506" lon="12.00998378481903"><ele>949.0</ele><time>2026-05-02T09:53:46Z</time></trkpt><trkpt lat="43.70626085228783" lon="12.010080017471655"><ele>949.0</ele><time>2026-05-02T09:53:47Z</time></trkpt><trkpt lat="43.70623470756805" lon="12.010177907046485"><ele>949.0</ele><time>2026-05-02T09:53:48Z</time></trkpt><trkpt lat="43.70621854990164" lon="12.01028727773658"><ele>948.9999999999999</ele><time>2026-05-02T09:53:49Z</time></trkpt><trkpt lat="43.70619421971801" lon="12.010389529825453"><ele>949.0</ele><time>2026-05-02T09:53:50Z</time></trkpt><trkpt lat="43.70616974795696" lon="12.01050565625125"><ele>947.4999999999999</ele><time>2026-05-02T09:53:51Z</time></trkpt><trkpt lat="43.70613809205912" lon="12.010609962201368"><ele>946.0</ele><time>2026-05-02T09:53:52Z</time></trkpt><trkpt lat="43.70611724008537" lon="12.010706218699044"><ele>944.5</ele><time>2026-05-02T09:53:53Z</time></trkpt><trkpt lat="43.706096493413405" lon="12.010808587807805"><ele>943.0</ele><time>2026-05-02T09:53:54Z</time></trkpt><trkpt lat="43.706080550751494" lon="12.010904353247632"><ele>941.4999999999999</ele><time>2026-05-02T09:53:55Z</time></trkpt><trkpt lat="43.70605889640468" lon="12.011023609057755"><ele>940.0</ele><time>2026-05-02T09:53:56Z</time></trkpt><trkpt lat="43.70602627872884" lon="12.011127621397069"><ele>938.0</ele><time>2026-05-02T09:53:57Z</time></trkpt><trkpt lat="43.70598379232354" lon="12.011212912723813"><ele>936.0</ele><time>2026-05-02T09:53:58Z</time></trkpt><trkpt lat="43.70592460955721" lon="12.011284000382997"><ele>934.0</ele><time>2026-05-02T09:53:59Z</time></trkpt><trkpt lat="43.70585025497641" lon="12.011387244662668"><ele>932.0</ele><time>2026-05-02T09:54:00Z</time></trkpt><trkpt lat="43.70576703906622" lon="12.01149179071177"><ele>930.0</ele><time>2026-05-02T09:54:01Z</time></trkpt><trkpt lat="43.705685565315235" lon="12.011595064835388"><ele>928.3333333333334</ele><time>2026-05-02T09:54:02Z</time></trkpt><trkpt lat="43.705618779586295" lon="12.011676449147684"><ele>926.6666666666667</ele><time>2026-05-02T09:54:03Z</time></trkpt><trkpt lat="43.70555380390864" lon="12.011761391645694"><ele>925.0</ele><time>2026-05-02T09:54:04Z</time></trkpt><trkpt lat="43.70548688772582" lon="12.011838967770204"><ele>923.3333333333334</ele><time>2026-05-02T09:54:05Z</time></trkpt><trkpt lat="43.70543669045748" lon="12.011926264692695"><ele>921.6666666666667</ele><time>2026-05-02T09:54:06Z</time></trkpt><trkpt lat="43.705390438382956" lon="12.012020228275794"><ele>920.0</ele><time>2026-05-02T09:54:07Z</time></trkpt><trkpt lat="43.70536923839277" lon="12.012112661454262"><ele>920.0</ele><time>2026-05-02T09:54:08Z</time></trkpt><trkpt lat="43.70534257582359" lon="12.012210224217396"><ele>920.0</ele><time>2026-05-02T09:54:09Z</time></trkpt><trkpt lat="43.705310017211524" lon="12.012347168805954"><ele>920.0</ele><time>2026-05-02T09:54:10Z</time></trkpt><trkpt lat="43.70527978397936" lon="12.012492627001532"><ele>920.0</ele><time>2026-05-02T09:54:11Z</time></trkpt><trkpt lat="43.705224322320134" lon="12.012613427717255"><ele>920.0</ele><time>2026-05-02T09:54:12Z</time></trkpt><trkpt lat="43.70517950497436" lon="12.012760686519472"><ele>918.1666666666667</ele><time>2026-05-02T09:54:13Z</time></trkpt><trkpt lat="43.70514631299122" lon="12.012896407461067"><ele>916.3333333333334</ele><time>2026-05-02T09:54:14Z</time></trkpt><trkpt lat="43.70509514324874" lon="12.013022867000062"><ele>914.5</ele><time>2026-05-02T09:54:15Z</time></trkpt><trkpt lat="43.705050849127325" lon="12.013121987385663"><ele>912.6666666666667</ele><time>2026-05-02T09:54:16Z</time></trkpt><trkpt lat="43.70500832855602" lon="12.013214801080276"><ele>910.8333333333334</ele><time>2026-05-02T09:54:18Z</time></trkpt><trkpt lat="43.7050030561435" lon="12.013321431925343"><ele>909.0</ele><time>2026-05-02T09:55:01Z</time></trkpt><trkpt lat="43.70498836453131" lon="12.013447696050397"><ele>908.8000000000001</ele><time>2026-05-02T09:55:03Z</time></trkpt><trkpt lat="43.7049318562953" lon="12.01359884687303"><ele>908.6000000000001</ele><time>2026-05-02T09:55:05Z</time></trkpt><trkpt lat="43.70489141616848" lon="12.013726320918423"><ele>908.4</ele><time>2026-05-02T09:55:07Z</time></trkpt><trkpt lat="43.70484117785258" lon="12.01386761316884"><ele>908.2</ele><time>2026-05-02T09:55:09Z</time></trkpt><trkpt lat="43.70478676573139" lon="12.013972326984806"><ele>908.0</ele><time>2026-05-02T09:55:11Z</time></trkpt><trkpt lat="43.70476412011215" lon="12.014084756274436"><ele>907.6666666666667</ele><time>2026-05-02T09:55:13Z</time></trkpt><trkpt lat="43.70472877082555" lon="12.01426194101307"><ele>907.3333333333334</ele><time>2026-05-02T09:55:15Z</time></trkpt><trkpt lat="43.704707306341376" lon="12.014347697174088"><ele>907.0</ele><time>2026-05-02T09:55:16Z</time></trkpt><trkpt lat="43.70468716894446" lon="12.01443233326345"><ele>906.6666666666667</ele><time>2026-05-02T09:55:17Z</time></trkpt><trkpt lat="43.704667347248495" lon="12.014530693207352"><ele>906.3333333333334</ele><time>2026-05-02T09:55:18Z</time></trkpt><trkpt lat="43.704655820546314" lon="12.014628115459846"><ele>906.0</ele><time>2026-05-02T09:55:19Z</time></trkpt><trkpt lat="43.704648720201" lon="12.014735296008508"><ele>906.0</ele><time>2026-05-02T09:55:28Z</time></trkpt><trkpt lat="43.704631690176114" lon="12.014843378445278"><ele>905.9999999999999</ele><time>2026-05-02T09:55:31Z</time></trkpt><trkpt lat="43.7045752194063" lon="12.014960947460116"><ele>905.9999999999999</ele><time>2026-05-02T09:55:33Z</time></trkpt><trkpt lat="43.70453604404031" lon="12.015089786422038"><ele>906.0</ele><time>2026-05-02T09:55:35Z</time></trkpt><trkpt lat="43.70452068024243" lon="12.015263911931346"><ele>906.0</ele><time>2026-05-02T09:55:37Z</time></trkpt><trkpt lat="43.704485973213494" lon="12.015355334015888"><ele>906.6666666666666</ele><time>2026-05-02T09:55:38Z</time></trkpt><trkpt lat="43.70446178279236" lon="12.015437200513372"><ele>907.3333333333333</ele><time>2026-05-02T09:55:39Z</time></trkpt><trkpt lat="43.70442061562016" lon="12.015536397225754"><ele>908.0</ele><time>2026-05-02T09:55:40Z</time></trkpt><trkpt lat="43.70439361729635" lon="12.015628872152593"><ele>908.6666666666666</ele><time>2026-05-02T09:55:41Z</time></trkpt><trkpt lat="43.704365458873326" lon="12.015728342182332"><ele>909.3333333333333</ele><time>2026-05-02T09:55:42Z</time></trkpt><trkpt lat="43.7043281314461" lon="12.015815837542942"><ele>910.0</ele><time>2026-05-02T09:55:43Z</time></trkpt><trkpt lat="43.70427981646998" lon="12.015908053848511"><ele>910.6666666666666</ele><time>2026-05-02T09:55:44Z</time></trkpt><trkpt lat="43.70424003303056" lon="12.01600901855967"><ele>911.3333333333333</ele><time>2026-05-02T09:55:45Z</time></trkpt><trkpt lat="43.70419017797723" lon="12.01608028531114"><ele>912.0</ele><time>2026-05-02T09:55:46Z</time></trkpt><trkpt lat="43.704154263054384" lon="12.016226525100945"><ele>912.6666666666667</ele><time>2026-05-02T09:55:48Z</time></trkpt><trkpt lat="43.704149261516065" lon="12.016364544511557"><ele>913.3333333333334</ele><time>2026-05-02T09:55:50Z</time></trkpt><trkpt lat="43.704129725969736" lon="12.016447780358238"><ele>914.0</ele><time>2026-05-02T09:55:51Z</time></trkpt><trkpt lat="43.70410968858826" lon="12.016598053738427"><ele>913.6666666666667</ele><time>2026-05-02T09:55:53Z</time></trkpt><trkpt lat="43.70407484141424" lon="12.016713135531402"><ele>913.3333333333334</ele><time>2026-05-02T09:55:55Z</time></trkpt><trkpt lat="43.70403465496339" lon="12.016796398735805"><ele>913.0</ele><time>2026-05-02T09:55:57Z</time></trkpt><trkpt lat="43.70399365282646" lon="12.016897618309137"><ele>912.6666666666667</ele><time>2026-05-02T09:55:59Z</time></trkpt><trkpt lat="43.70394707155508" lon="12.017016659782293"><ele>912.3333333333334</ele><time>2026-05-02T09:56:01Z</time></trkpt><trkpt lat="43.703925080017605" lon="12.017134180326053"><ele>912.0</ele><time>2026-05-02T09:56:03Z</time></trkpt><trkpt lat="43.70391963676135" lon="12.017224526627661"><ele>912.0</ele><time>2026-05-02T09:56:05Z</time></trkpt><trkpt lat="43.70390196573134" lon="12.017308164478154"><ele>911.9999999999999</ele><time>2026-05-02T09:56:08Z</time></trkpt><trkpt lat="43.70388314007997" lon="12.017398485161817"><ele>912.0</ele><time>2026-05-02T09:56:13Z</time></trkpt><trkpt lat="43.70390757867344" lon="12.017483321273733"><ele>912.0</ele><time>2026-05-02T09:56:26Z</time></trkpt><trkpt lat="43.70390809761186" lon="12.017573263976194"><ele>911.9999999999999</ele><time>2026-05-02T09:56:30Z</time></trkpt><trkpt lat="43.70388869540498" lon="12.0176566182338"><ele>912.0</ele><time>2026-05-02T09:56:33Z</time></trkpt><trkpt lat="43.70387754551326" lon="12.017744477009042"><ele>912.0</ele><time>2026-05-02T09:56:36Z</time></trkpt><trkpt lat="43.7038809994028" lon="12.017839473801208"><ele>910.2857142857142</ele><time>2026-05-02T09:56:39Z</time></trkpt><trkpt lat="43.703855644576606" lon="12.017921763840388"><ele>908.5714285714284</ele><time>2026-05-02T09:56:42Z</time></trkpt><trkpt lat="43.70382293289634" lon="12.018002792031945"><ele>906.8571428571429</ele><time>2026-05-02T09:56:46Z</time></trkpt><trkpt lat="43.70382540638343" lon="12.018113418487044"><ele>905.1428571428571</ele><time>2026-05-02T09:56:49Z</time></trkpt><trkpt lat="43.703810190215194" lon="12.018205375123154"><ele>903.4285714285714</ele><time>2026-05-02T09:56:52Z</time></trkpt><trkpt lat="43.70376983751514" lon="12.018285177952482"><ele>901.7142857142858</ele><time>2026-05-02T09:57:00Z</time></trkpt><trkpt lat="43.703730072590574" lon="12.018360358234993"><ele>900.0000000000001</ele><time>2026-05-02T09:57:03Z</time></trkpt><trkpt lat="43.703734783695204" lon="12.018454835478886"><ele>896.8333333333334</ele><time>2026-05-02T09:57:07Z</time></trkpt><trkpt lat="43.70375187916525" lon="12.018553356305327"><ele>893.6666666666667</ele><time>2026-05-02T09:57:12Z</time></trkpt><trkpt lat="43.703801384357114" lon="12.018657788859242"><ele>890.5</ele><time>2026-05-02T09:57:16Z</time></trkpt><trkpt lat="43.70383896254287" lon="12.018774906303856"><ele>887.3333333333334</ele><time>2026-05-02T09:57:20Z</time></trkpt><trkpt lat="43.703844044942045" lon="12.018895178776205"><ele>884.1666666666667</ele><time>2026-05-02T09:57:22Z</time></trkpt><trkpt lat="43.703894956087616" lon="12.018991276129167"><ele>881.0</ele><time>2026-05-02T09:57:24Z</time></trkpt><trkpt lat="43.70394390246543" lon="12.019068533007328"><ele>879.5000000000001</ele><time>2026-05-02T09:57:26Z</time></trkpt><trkpt lat="43.7039944666664" lon="12.019174032261805"><ele>878.0</ele><time>2026-05-02T09:57:28Z</time></trkpt><trkpt lat="43.70406229500649" lon="12.019268249428364"><ele>876.5</ele><time>2026-05-02T09:57:30Z</time></trkpt><trkpt lat="43.7041048302783" lon="12.019373004075629"><ele>875.0</ele><time>2026-05-02T09:57:32Z</time></trkpt><trkpt lat="43.70417254889703" lon="12.019480945913422"><ele>873.5000000000001</ele><time>2026-05-02T09:57:34Z</time></trkpt><trkpt lat="43.70422498522916" lon="12.019542813927169"><ele>872.0</ele><time>2026-05-02T09:57:35Z</time></trkpt><trkpt lat="43.70426635259583" lon="12.019631377305075"><ele>872.0000000000001</ele><time>2026-05-02T09:57:39Z</time></trkpt><trkpt lat="43.704195715603696" lon="12.019743175135702"><ele>872.0</ele><time>2026-05-02T09:57:41Z</time></trkpt><trkpt lat="43.70411756468766" lon="12.019797583361544"><ele>872.0</ele><time>2026-05-02T09:57:43Z</time></trkpt><trkpt lat="43.70405322667538" lon="12.019864331059019"><ele>872.0</ele><time>2026-05-02T09:57:45Z</time></trkpt><trkpt lat="43.703978942077526" lon="12.019919043570427"><ele>872.0000000000001</ele><time>2026-05-02T09:57:47Z</time></trkpt><trkpt lat="43.703915275408754" lon="12.019958664778258"><ele>872.0</ele><time>2026-05-02T09:57:49Z</time></trkpt><trkpt lat="43.70387305515858" lon="12.02003127862195"><ele>871.0</ele><time>2026-05-02T09:57:52Z</time></trkpt><trkpt lat="43.7038236769343" lon="12.020116027092488"><ele>870.0</ele><time>2026-05-02T09:57:55Z</time></trkpt><trkpt lat="43.70373814232963" lon="12.02016612157242"><ele>869.0</ele><time>2026-05-02T09:57:58Z</time></trkpt><trkpt lat="43.703673092139205" lon="12.020263047501462"><ele>868.0</ele><time>2026-05-02T09:58:01Z</time></trkpt><trkpt lat="43.703583178914954" lon="12.020347720973765"><ele>867.0</ele><time>2026-05-02T09:58:04Z</time></trkpt><trkpt lat="43.70350925987574" lon="12.020393705783968"><ele>866.0</ele><time>2026-05-02T09:58:06Z</time></trkpt><trkpt lat="43.70343154407388" lon="12.020427959986979"><ele>865.0</ele><time>2026-05-02T09:58:09Z</time></trkpt><trkpt lat="43.70336561030446" lon="12.020443693981994"><ele>864.0</ele><time>2026-05-02T09:58:11Z</time></trkpt><trkpt lat="43.70329563226226" lon="12.020448561273492"><ele>863.0</ele><time>2026-05-02T09:58:13Z</time></trkpt><trkpt lat="43.7032089385946" lon="12.02047498243564"><ele>862.0</ele><time>2026-05-02T09:58:17Z</time></trkpt><trkpt lat="43.703140364739596" lon="12.020522285218597"><ele>861.0</ele><time>2026-05-02T09:58:20Z</time></trkpt><trkpt lat="43.7030613363422" lon="12.020567039049249"><ele>861.0</ele><time>2026-05-02T09:58:23Z</time></trkpt><trkpt lat="43.702995715746354" lon="12.020615079187817"><ele>861.0</ele><time>2026-05-02T09:58:26Z</time></trkpt><trkpt lat="43.70293774871342" lon="12.02068937224098"><ele>861.0</ele><time>2026-05-02T09:58:29Z</time></trkpt><trkpt lat="43.70287620932705" lon="12.020731478773863"><ele>861.0</ele><time>2026-05-02T09:58:31Z</time></trkpt><trkpt lat="43.70279948466721" lon="12.020740311160985"><ele>861.0</ele><time>2026-05-02T09:58:34Z</time></trkpt><trkpt lat="43.702699461495335" lon="12.020744215418151"><ele>861.0</ele><time>2026-05-02T09:58:37Z</time></trkpt><trkpt lat="43.70263874386516" lon="12.020772510407845"><ele>859.2857142857143</ele><time>2026-05-02T09:58:39Z</time></trkpt><trkpt lat="43.702572635093816" lon="12.020762647676529"><ele>857.5714285714286</ele><time>2026-05-02T09:58:42Z</time></trkpt><trkpt lat="43.70248428190764" lon="12.020778689738018"><ele>855.8571428571429</ele><time>2026-05-02T09:58:45Z</time></trkpt><trkpt lat="43.70241274604409" lon="12.020820103203782"><ele>854.1428571428571</ele><time>2026-05-02T09:58:48Z</time></trkpt><trkpt lat="43.70233539137134" lon="12.02084023688424"><ele>852.4285714285714</ele><time>2026-05-02T09:58:50Z</time></trkpt><trkpt lat="43.70227346109145" lon="12.020879595141396"><ele>850.7142857142858</ele><time>2026-05-02T09:58:54Z</time></trkpt><trkpt lat="43.70221340887545" lon="12.020925875346332"><ele>849.0</ele><time>2026-05-02T09:58:56Z</time></trkpt><trkpt lat="43.70215216238165" lon="12.020994413184608"><ele>849.0</ele><time>2026-05-02T09:58:58Z</time></trkpt><trkpt lat="43.70210859047873" lon="12.02106271550112"><ele>849.0</ele><time>2026-05-02T09:59:00Z</time></trkpt><trkpt lat="43.70206585051319" lon="12.0211410254569"><ele>849.0</ele><time>2026-05-02T09:59:02Z</time></trkpt><trkpt lat="43.70203682306392" lon="12.021250790810862"><ele>849.0</ele><time>2026-05-02T09:59:05Z</time></trkpt><trkpt lat="43.70197963093425" lon="12.02133508966749"><ele>849.0</ele><time>2026-05-02T09:59:07Z</time></trkpt><trkpt lat="43.7019550284734" lon="12.021415714105405"><ele>849.0</ele><time>2026-05-02T09:59:09Z</time></trkpt><trkpt lat="43.70190119309559" lon="12.021511618438446"><ele>846.8571428571429</ele><time>2026-05-02T09:59:12Z</time></trkpt><trkpt lat="43.701895774152156" lon="12.02160175215213"><ele>844.7142857142858</ele><time>2026-05-02T09:59:14Z</time></trkpt><trkpt lat="43.70189514018539" lon="12.021697035513554"><ele>842.5714285714287</ele><time>2026-05-02T09:59:16Z</time></trkpt><trkpt lat="43.701886840383374" lon="12.021793099087272"><ele>840.4285714285714</ele><time>2026-05-02T09:59:19Z</time></trkpt><trkpt lat="43.70186290843095" lon="12.021901034747662"><ele>838.2857142857142</ele><time>2026-05-02T09:59:23Z</time></trkpt><trkpt lat="43.70188774765506" lon="12.021990042788538"><ele>836.1428571428572</ele><time>2026-05-02T09:59:26Z</time></trkpt><trkpt lat="43.701883894178856" lon="12.022078437070137"><ele>834.0</ele><time>2026-05-02T09:59:29Z</time></trkpt><trkpt lat="43.70193332696059" lon="12.02217814526658"><ele>833.5</ele><time>2026-05-02T09:59:34Z</time></trkpt><trkpt lat="43.70191111560424" lon="12.022293335470872"><ele>833.0</ele><time>2026-05-02T09:59:37Z</time></trkpt><trkpt lat="43.701878386749456" lon="12.022384373257456"><ele>832.5</ele><time>2026-05-02T09:59:39Z</time></trkpt><trkpt lat="43.70181283256024" lon="12.022423900788997"><ele>832.0</ele><time>2026-05-02T09:59:42Z</time></trkpt><trkpt lat="43.701768097733705" lon="12.022350776034601"><ele>831.5</ele><time>2026-05-02T09:59:57Z</time></trkpt><trkpt lat="43.70168592098641" lon="12.02233065240061"><ele>831.0</ele><time>2026-05-02T10:00:49Z</time></trkpt><trkpt lat="43.70159587795072" lon="12.02223912713569"><ele>831.0</ele><time>2026-05-02T10:00:51Z</time></trkpt><trkpt lat="43.70152477525959" lon="12.022157571145053"><ele>831.0</ele><time>2026-05-02T10:00:53Z</time></trkpt><trkpt lat="43.701425121228766" lon="12.02204610640313"><ele>831.0</ele><time>2026-05-02T10:00:55Z</time></trkpt><trkpt lat="43.701361020278384" lon="12.02199676490197"><ele>831.0</ele><time>2026-05-02T10:00:56Z</time></trkpt><trkpt lat="43.70129563105333" lon="12.021944625715776"><ele>831.0</ele><time>2026-05-02T10:00:57Z</time></trkpt><trkpt lat="43.70123599528665" lon="12.021891829470189"><ele>831.0</ele><time>2026-05-02T10:00:58Z</time></trkpt><trkpt lat="43.701175410363206" lon="12.021856635396864"><ele>825.1999999999999</ele><time>2026-05-02T10:00:59Z</time></trkpt><trkpt lat="43.70107929274849" lon="12.0217905314179"><ele>819.4</ele><time>2026-05-02T10:01:01Z</time></trkpt><trkpt lat="43.70095655430096" lon="12.02180412752814"><ele>813.6</ele><time>2026-05-02T10:01:03Z</time></trkpt><trkpt lat="43.700859508637926" lon="12.021837860648397"><ele>807.8</ele><time>2026-05-02T10:01:04Z</time></trkpt><trkpt lat="43.700748358398194" lon="12.021863479284752"><ele>802.0</ele><time>2026-05-02T10:01:05Z</time></trkpt><trkpt lat="43.70063798926477" lon="12.021891263835652"><ele>802.0</ele><time>2026-05-02T10:01:06Z</time></trkpt><trkpt lat="43.70054486259106" lon="12.021945696918994"><ele>802.0</ele><time>2026-05-02T10:01:07Z</time></trkpt><trkpt lat="43.70046133833648" lon="12.022014578425399"><ele>802.0</ele><time>2026-05-02T10:01:08Z</time></trkpt><trkpt lat="43.70038738395947" lon="12.022112198784034"><ele>802.0</ele><time>2026-05-02T10:01:09Z</time></trkpt><trkpt lat="43.70031961384803" lon="12.022196931444824"><ele>802.0</ele><time>2026-05-02T10:01:10Z</time></trkpt><trkpt lat="43.700227552664025" lon="12.0222711032571"><ele>800.0</ele><time>2026-05-02T10:01:11Z</time></trkpt><trkpt lat="43.700126710206455" lon="12.022326008493287"><ele>798.0</ele><time>2026-05-02T10:01:12Z</time></trkpt><trkpt lat="43.70001572324014" lon="12.022368525633784"><ele>796.0</ele><time>2026-05-02T10:01:13Z</time></trkpt><trkpt lat="43.699916802751495" lon="12.02239569587002"><ele>794.0</ele><time>2026-05-02T10:01:14Z</time></trkpt><trkpt lat="43.69981679523034" lon="12.022407387509574"><ele>792.0</ele><time>2026-05-02T10:01:15Z</time></trkpt><trkpt lat="43.699720318667296" lon="12.022452059210504"><ele>791.25</ele><time>2026-05-02T10:01:16Z</time></trkpt><trkpt lat="43.69962301198384" lon="12.02252439142606"><ele>790.5</ele><time>2026-05-02T10:01:17Z</time></trkpt><trkpt lat="43.699511668668016" lon="12.02262530672155"><ele>789.75</ele><time>2026-05-02T10:01:18Z</time></trkpt><trkpt lat="43.699400974478216" lon="12.022708468977893"><ele>789.0</ele><time>2026-05-02T10:01:19Z</time></trkpt><trkpt lat="43.699306072095254" lon="12.022784958808518"><ele>789.0</ele><time>2026-05-02T10:01:20Z</time></trkpt><trkpt lat="43.69920347437686" lon="12.022859345568557"><ele>789.0</ele><time>2026-05-02T10:01:21Z</time></trkpt><trkpt lat="43.6990994417859" lon="12.02289967414707"><ele>789.0</ele><time>2026-05-02T10:01:22Z</time></trkpt><trkpt lat="43.698990650080965" lon="12.022913350321742"><ele>789.0</ele><time>2026-05-02T10:01:23Z</time></trkpt><trkpt lat="43.69887970873345" lon="12.02292410752285"><ele>789.0</ele><time>2026-05-02T10:01:24Z</time></trkpt><trkpt lat="43.698775792980484" lon="12.022938530861179"><ele>789.0</ele><time>2026-05-02T10:01:25Z</time></trkpt><trkpt lat="43.69869658739933" lon="12.022967074796842"><ele>789.0</ele><time>2026-05-02T10:01:26Z</time></trkpt><trkpt lat="43.698607375102846" lon="12.023051297152568"><ele>789.0</ele><time>2026-05-02T10:01:27Z</time></trkpt><trkpt lat="43.698520855166784" lon="12.023158452576205"><ele>789.0</ele><time>2026-05-02T10:01:28Z</time></trkpt><trkpt lat="43.698459591469515" lon="12.023266789671931"><ele>789.0</ele><time>2026-05-02T10:01:29Z</time></trkpt><trkpt lat="43.69842108217021" lon="12.023360234975712"><ele>788.6</ele><time>2026-05-02T10:01:30Z</time></trkpt><trkpt lat="43.698371838423704" lon="12.023422823591874"><ele>788.2</ele><time>2026-05-02T10:01:31Z</time></trkpt><trkpt lat="43.698280597186184" lon="12.02346555637641"><ele>787.8000000000001</ele><time>2026-05-02T10:01:32Z</time></trkpt><trkpt lat="43.69817143611649" lon="12.023464518822864"><ele>787.4000000000001</ele><time>2026-05-02T10:01:33Z</time></trkpt><trkpt lat="43.69804274589636" lon="12.023425303393173"><ele>787.0</ele><time>2026-05-02T10:01:34Z</time></trkpt><trkpt lat="43.697911741536984" lon="12.023398902078354"><ele>787.0</ele><time>2026-05-02T10:01:35Z</time></trkpt><trkpt lat="43.69779540819874" lon="12.02338194740908"><ele>787.0</ele><time>2026-05-02T10:01:36Z</time></trkpt><trkpt lat="43.6976684473159" lon="12.023398209842144"><ele>787.0</ele><time>2026-05-02T10:01:37Z</time></trkpt><trkpt lat="43.697542625393375" lon="12.023441470712271"><ele>787.0</ele><time>2026-05-02T10:01:38Z</time></trkpt><trkpt lat="43.69740365728261" lon="12.02352707249899"><ele>785.0</ele><time>2026-05-02T10:01:39Z</time></trkpt><trkpt lat="43.697312018141396" lon="12.023560505397416"><ele>783.0</ele><time>2026-05-02T10:01:40Z</time></trkpt><trkpt lat="43.697218136471136" lon="12.023603099050543"><ele>781.0</ele><time>2026-05-02T10:01:41Z</time></trkpt><trkpt lat="43.69712989339084" lon="12.023664306195824"><ele>779.0</ele><time>2026-05-02T10:01:42Z</time></trkpt><trkpt lat="43.6970236704677" lon="12.023717399873187"><ele>777.0</ele><time>2026-05-02T10:01:43Z</time></trkpt><trkpt lat="43.69690048707866" lon="12.023745695885806"><ele>774.25</ele><time>2026-05-02T10:01:44Z</time></trkpt><trkpt lat="43.69677890202332" lon="12.023760953166807"><ele>771.5</ele><time>2026-05-02T10:01:45Z</time></trkpt><trkpt lat="43.69667343757097" lon="12.023799366173312"><ele>768.75</ele><time>2026-05-02T10:01:46Z</time></trkpt><trkpt lat="43.69657606131666" lon="12.023880102307961"><ele>766.0</ele><time>2026-05-02T10:01:47Z</time></trkpt><trkpt lat="43.696477442753945" lon="12.02395773496841"><ele>766.0</ele><time>2026-05-02T10:01:48Z</time></trkpt><trkpt lat="43.69638635859216" lon="12.024015784801819"><ele>766.0</ele><time>2026-05-02T10:01:49Z</time></trkpt><trkpt lat="43.69627779856203" lon="12.024050799471818"><ele>766.0</ele><time>2026-05-02T10:01:50Z</time></trkpt><trkpt lat="43.696156888047376" lon="12.02407062071874"><ele>766.0</ele><time>2026-05-02T10:01:51Z</time></trkpt><trkpt lat="43.69603885247226" lon="12.02408389382866"><ele>762.25</ele><time>2026-05-02T10:01:52Z</time></trkpt><trkpt lat="43.695926906656894" lon="12.024107044660783"><ele>758.5</ele><time>2026-05-02T10:01:53Z</time></trkpt><trkpt lat="43.69582017426852" lon="12.024157032318358"><ele>754.75</ele><time>2026-05-02T10:01:54Z</time></trkpt><trkpt lat="43.69570451917897" lon="12.02424649641474"><ele>751.0</ele><time>2026-05-02T10:01:55Z</time></trkpt><trkpt lat="43.69559690101754" lon="12.024337986727824"><ele>751.0</ele><time>2026-05-02T10:01:56Z</time></trkpt><trkpt lat="43.695491560305" lon="12.024429019311127"><ele>751.0</ele><time>2026-05-02T10:01:57Z</time></trkpt><trkpt lat="43.69537560941883" lon="12.024537100278998"><ele>751.0</ele><time>2026-05-02T10:01:58Z</time></trkpt><trkpt lat="43.695255389557" lon="12.024651535065269"><ele>751.0</ele><time>2026-05-02T10:01:59Z</time></trkpt><trkpt lat="43.6951340693801" lon="12.024768691065432"><ele>749.75</ele><time>2026-05-02T10:02:00Z</time></trkpt><trkpt lat="43.69501698689678" lon="12.024880676704074"><ele>748.5</ele><time>2026-05-02T10:02:01Z</time></trkpt><trkpt lat="43.694914201749725" lon="12.024965278839625"><ele>747.25</ele><time>2026-05-02T10:02:02Z</time></trkpt><trkpt lat="43.69481381069944" lon="12.025039568501768"><ele>746.0</ele><time>2026-05-02T10:02:03Z</time></trkpt><trkpt lat="43.69470544501989" lon="12.025136547218683"><ele>746.0</ele><time>2026-05-02T10:02:04Z</time></trkpt><trkpt lat="43.69458909928313" lon="12.02524159429716"><ele>746.0</ele><time>2026-05-02T10:02:05Z</time></trkpt><trkpt lat="43.69450195137094" lon="12.025344640884315"><ele>746.0</ele><time>2026-05-02T10:02:06Z</time></trkpt><trkpt lat="43.69442484417475" lon="12.02545801256407"><ele>746.0</ele><time>2026-05-02T10:02:07Z</time></trkpt><trkpt lat="43.69435601088339" lon="12.025597900944444"><ele>745.5999999999999</ele><time>2026-05-02T10:02:08Z</time></trkpt><trkpt lat="43.69429629184492" lon="12.025722161553343"><ele>745.2</ele><time>2026-05-02T10:02:09Z</time></trkpt><trkpt lat="43.694234887963674" lon="12.025802509689552"><ele>744.8</ele><time>2026-05-02T10:02:10Z</time></trkpt><trkpt lat="43.69417458624702" lon="12.025885266128933"><ele>744.4000000000001</ele><time>2026-05-02T10:02:11Z</time></trkpt><trkpt lat="43.694092714306514" lon="12.025933016427071"><ele>744.0</ele><time>2026-05-02T10:02:12Z</time></trkpt><trkpt lat="43.693986467676645" lon="12.025953345029787"><ele>744.0</ele><time>2026-05-02T10:02:13Z</time></trkpt><trkpt lat="43.69387949825349" lon="12.025925555791842"><ele>744.0</ele><time>2026-05-02T10:02:14Z</time></trkpt><trkpt lat="43.693771384746086" lon="12.025905577730192"><ele>744.0</ele><time>2026-05-02T10:02:15Z</time></trkpt><trkpt lat="43.693652675606195" lon="12.025917498733092"><ele>744.0</ele><time>2026-05-02T10:02:16Z</time></trkpt><trkpt lat="43.693539907403384" lon="12.025955304434849"><ele>742.75</ele><time>2026-05-02T10:02:17Z</time></trkpt><trkpt lat="43.69343375397412" lon="12.026013081168125"><ele>741.5</ele><time>2026-05-02T10:02:18Z</time></trkpt><trkpt lat="43.693320927828886" lon="12.02609318370286"><ele>740.25</ele><time>2026-05-02T10:02:19Z</time></trkpt><trkpt lat="43.693204480455684" lon="12.026191703034335"><ele>739.0</ele><time>2026-05-02T10:02:20Z</time></trkpt><trkpt lat="43.693080007357565" lon="12.026310770384855"><ele>739.0</ele><time>2026-05-02T10:02:21Z</time></trkpt><trkpt lat="43.692955278725385" lon="12.026414030344885"><ele>739.0</ele><time>2026-05-02T10:02:22Z</time></trkpt><trkpt lat="43.692842954021" lon="12.026489887802327"><ele>739.0</ele><time>2026-05-02T10:02:23Z</time></trkpt><trkpt lat="43.69273775731976" lon="12.026553348787226"><ele>739.0</ele><time>2026-05-02T10:02:24Z</time></trkpt><trkpt lat="43.69264358153044" lon="12.026619815350951"><ele>737.8000000000001</ele><time>2026-05-02T10:02:25Z</time></trkpt><trkpt lat="43.692560135333544" lon="12.026678992656013"><ele>736.6</ele><time>2026-05-02T10:02:26Z</time></trkpt><trkpt lat="43.69248698890498" lon="12.0267088092193"><ele>735.4</ele><time>2026-05-02T10:02:27Z</time></trkpt><trkpt lat="43.69237901175381" lon="12.026704602068964"><ele>734.2</ele><time>2026-05-02T10:02:28Z</time></trkpt><trkpt lat="43.692259948538855" lon="12.026660949691452"><ele>733.0</ele><time>2026-05-02T10:02:29Z</time></trkpt><trkpt lat="43.69216489151474" lon="12.02662428732815"><ele>733.0</ele><time>2026-05-02T10:02:30Z</time></trkpt><trkpt lat="43.692074820593476" lon="12.026628070928718"><ele>733.0</ele><time>2026-05-02T10:02:31Z</time></trkpt><trkpt lat="43.69195745497087" lon="12.026675243723595"><ele>733.0</ele><time>2026-05-02T10:02:32Z</time></trkpt><trkpt lat="43.69182735628206" lon="12.026734913169497"><ele>733.0</ele><time>2026-05-02T10:02:33Z</time></trkpt><trkpt lat="43.69170350206335" lon="12.026784407070345"><ele>730.75</ele><time>2026-05-02T10:02:34Z</time></trkpt><trkpt lat="43.69159069503293" lon="12.02683259179611"><ele>728.5</ele><time>2026-05-02T10:02:35Z</time></trkpt><trkpt lat="43.69148251336839" lon="12.026874747176722"><ele>726.25</ele><time>2026-05-02T10:02:36Z</time></trkpt><trkpt lat="43.69137681075892" lon="12.026915973175173"><ele>724.0</ele><time>2026-05-02T10:02:37Z</time></trkpt><trkpt lat="43.691272307360606" lon="12.026962835463282"><ele>724.0</ele><time>2026-05-02T10:02:38Z</time></trkpt><trkpt lat="43.69116917686255" lon="12.026999258378702"><ele>724.0</ele><time>2026-05-02T10:02:39Z</time></trkpt><trkpt lat="43.691056744298706" lon="12.027013592340314"><ele>724.0</ele><time>2026-05-02T10:02:40Z</time></trkpt><trkpt lat="43.690938885103776" lon="12.027031150771588"><ele>724.0</ele><time>2026-05-02T10:02:41Z</time></trkpt><trkpt lat="43.69083299076339" lon="12.027043097340298"><ele>724.0</ele><time>2026-05-02T10:02:42Z</time></trkpt><trkpt lat="43.69073151040444" lon="12.027045240888272"><ele>722.4000000000001</ele><time>2026-05-02T10:02:43Z</time></trkpt><trkpt lat="43.690630238798335" lon="12.027049091091559"><ele>720.8</ele><time>2026-05-02T10:02:44Z</time></trkpt><trkpt lat="43.69053475189254" lon="12.027060537900747"><ele>719.2</ele><time>2026-05-02T10:02:45Z</time></trkpt><trkpt lat="43.690446105740264" lon="12.027066653803411"><ele>717.5999999999999</ele><time>2026-05-02T10:02:46Z</time></trkpt><trkpt lat="43.69035301947621" lon="12.027070449544771"><ele>716.0</ele><time>2026-05-02T10:02:47Z</time></trkpt><trkpt lat="43.690252586423306" lon="12.02706054641464"><ele>713.5999999999999</ele><time>2026-05-02T10:02:48Z</time></trkpt><trkpt lat="43.69013756443844" lon="12.027070609551668"><ele>711.2</ele><time>2026-05-02T10:02:49Z</time></trkpt><trkpt lat="43.69001825779311" lon="12.027094833091404"><ele>708.8</ele><time>2026-05-02T10:02:50Z</time></trkpt><trkpt lat="43.68991178914652" lon="12.027114052681403"><ele>706.4000000000001</ele><time>2026-05-02T10:02:51Z</time></trkpt><trkpt lat="43.689816265465005" lon="12.027163320687851"><ele>704.0</ele><time>2026-05-02T10:02:52Z</time></trkpt><trkpt lat="43.68972459623575" lon="12.027221509676206"><ele>704.0</ele><time>2026-05-02T10:02:53Z</time></trkpt><trkpt lat="43.689630475287075" lon="12.027294976555025"><ele>704.0</ele><time>2026-05-02T10:02:54Z</time></trkpt><trkpt lat="43.68954734817253" lon="12.027372183864932"><ele>704.0</ele><time>2026-05-02T10:02:55Z</time></trkpt><trkpt lat="43.68947037699549" lon="12.027476487385105"><ele>704.0</ele><time>2026-05-02T10:02:56Z</time></trkpt><trkpt lat="43.68939293477733" lon="12.027577946459392"><ele>704.0</ele><time>2026-05-02T10:02:57Z</time></trkpt><trkpt lat="43.68931753767402" lon="12.027671350846173"><ele>703.8000000000001</ele><time>2026-05-02T10:02:58Z</time></trkpt><trkpt lat="43.68922999034738" lon="12.02775980448238"><ele>703.6</ele><time>2026-05-02T10:02:59Z</time></trkpt><trkpt lat="43.689142146716144" lon="12.02785653389573"><ele>703.4</ele><time>2026-05-02T10:03:00Z</time></trkpt><trkpt lat="43.6890539657338" lon="12.027956421158628"><ele>703.2</ele><time>2026-05-02T10:03:01Z</time></trkpt><trkpt lat="43.68897276690096" lon="12.028058327999608"><ele>703.0</ele><time>2026-05-02T10:03:02Z</time></trkpt><trkpt lat="43.68890537210597" lon="12.028165304114566"><ele>703.0</ele><time>2026-05-02T10:03:03Z</time></trkpt><trkpt lat="43.688834570215434" lon="12.028269034396411"><ele>703.0</ele><time>2026-05-02T10:03:04Z</time></trkpt><trkpt lat="43.68875543447249" lon="12.028336929355826"><ele>703.0</ele><time>2026-05-02T10:03:05Z</time></trkpt><trkpt lat="43.68867144732632" lon="12.028387088544907"><ele>703.0</ele><time>2026-05-02T10:03:06Z</time></trkpt><trkpt lat="43.688571147146234" lon="12.028410320815738"><ele>703.0</ele><time>2026-05-02T10:03:07Z</time></trkpt><trkpt lat="43.68844867778539" lon="12.028420656232027"><ele>699.5</ele><time>2026-05-02T10:03:08Z</time></trkpt><trkpt lat="43.688320428773075" lon="12.028419524215456"><ele>696.0</ele><time>2026-05-02T10:03:09Z</time></trkpt><trkpt lat="43.68820216805287" lon="12.028416984720396"><ele>692.5</ele><time>2026-05-02T10:03:10Z</time></trkpt><trkpt lat="43.68809594203143" lon="12.028423315877951"><ele>689.0</ele><time>2026-05-02T10:03:11Z</time></trkpt><trkpt lat="43.687995367212366" lon="12.028446524630077"><ele>689.0</ele><time>2026-05-02T10:03:12Z</time></trkpt><trkpt lat="43.68788623581432" lon="12.028481294655942"><ele>689.0</ele><time>2026-05-02T10:03:13Z</time></trkpt><trkpt lat="43.68777388425657" lon="12.028533375473675"><ele>689.0</ele><time>2026-05-02T10:03:14Z</time></trkpt><trkpt lat="43.68765961680131" lon="12.028587927793826"><ele>689.0</ele><time>2026-05-02T10:03:15Z</time></trkpt><trkpt lat="43.68754927560497" lon="12.02864917196389"><ele>687.5</ele><time>2026-05-02T10:03:16Z</time></trkpt><trkpt lat="43.68743526933993" lon="12.028716111517207"><ele>686.0</ele><time>2026-05-02T10:03:17Z</time></trkpt><trkpt lat="43.68731740119003" lon="12.028785400929797"><ele>684.5</ele><time>2026-05-02T10:03:18Z</time></trkpt><trkpt lat="43.68720543987408" lon="12.028844094806802"><ele>683.0</ele><time>2026-05-02T10:03:19Z</time></trkpt><trkpt lat="43.68709798612856" lon="12.028909672180168"><ele>683.0</ele><time>2026-05-02T10:03:20Z</time></trkpt><trkpt lat="43.686984388810366" lon="12.028969675184632"><ele>683.0</ele><time>2026-05-02T10:03:21Z</time></trkpt><trkpt lat="43.68686924354284" lon="12.02902052587429"><ele>683.0</ele><time>2026-05-02T10:03:22Z</time></trkpt><trkpt lat="43.686760404293544" lon="12.029077229691808"><ele>683.0</ele><time>2026-05-02T10:03:23Z</time></trkpt><trkpt lat="43.68664184882777" lon="12.0291481497223"><ele>677.0</ele><time>2026-05-02T10:03:24Z</time></trkpt><trkpt lat="43.68652041550821" lon="12.029216312939258"><ele>671.0</ele><time>2026-05-02T10:03:25Z</time></trkpt><trkpt lat="43.68640711881477" lon="12.029278171953319"><ele>665.0</ele><time>2026-05-02T10:03:26Z</time></trkpt><trkpt lat="43.68630264674331" lon="12.029323047193973"><ele>659.0</ele><time>2026-05-02T10:03:27Z</time></trkpt><trkpt lat="43.68619578631139" lon="12.029375585569802"><ele>657.6</ele><time>2026-05-02T10:03:28Z</time></trkpt><trkpt lat="43.68608864016241" lon="12.029435031247685"><ele>656.2</ele><time>2026-05-02T10:03:29Z</time></trkpt><trkpt lat="43.68599824131905" lon="12.029488201451052"><ele>654.8000000000001</ele><time>2026-05-02T10:03:30Z</time></trkpt><trkpt lat="43.68592253157538" lon="12.029531344617734"><ele>653.4000000000001</ele><time>2026-05-02T10:03:31Z</time></trkpt><trkpt lat="43.68585200711004" lon="12.029549706686103"><ele>652.0</ele><time>2026-05-02T10:03:32Z</time></trkpt><trkpt lat="43.68576656441521" lon="12.029543960628311"><ele>652.0</ele><time>2026-05-02T10:03:33Z</time></trkpt><trkpt lat="43.68569291986559" lon="12.029511906591395"><ele>652.0</ele><time>2026-05-02T10:03:34Z</time></trkpt><trkpt lat="43.68561524654771" lon="12.029424185810734"><ele>652.0</ele><time>2026-05-02T10:03:36Z</time></trkpt><trkpt lat="43.68554946009387" lon="12.029134621942774"><ele>652.0</ele><time>2026-05-02T10:03:48Z</time></trkpt><trkpt lat="43.68552296600625" lon="12.028987269869782"><ele>653.0</ele><time>2026-05-02T10:03:50Z</time></trkpt><trkpt lat="43.68551703877162" lon="12.02880644183463"><ele>654.0</ele><time>2026-05-02T10:03:52Z</time></trkpt><trkpt lat="43.6855051497553" lon="12.028696670016407"><ele>655.0</ele><time>2026-05-02T10:03:53Z</time></trkpt><trkpt lat="43.685492362116605" lon="12.028601710095582"><ele>656.0</ele><time>2026-05-02T10:03:54Z</time></trkpt><trkpt lat="43.68546091834652" lon="12.02851876101158"><ele>657.0</ele><time>2026-05-02T10:03:55Z</time></trkpt><trkpt lat="43.6854187179081" lon="12.028435837783364"><ele>658.0</ele><time>2026-05-02T10:03:56Z</time></trkpt><trkpt lat="43.68535613089897" lon="12.028350373488728"><ele>658.2</ele><time>2026-05-02T10:03:57Z</time></trkpt><trkpt lat="43.68530810503014" lon="12.028251589217268"><ele>658.4</ele><time>2026-05-02T10:03:58Z</time></trkpt><trkpt lat="43.68524581739952" lon="12.02814355997697"><ele>658.6</ele><time>2026-05-02T10:03:59Z</time></trkpt><trkpt lat="43.68519554662886" lon="12.028039733781261"><ele>658.8000000000001</ele><time>2026-05-02T10:04:00Z</time></trkpt><trkpt lat="43.685148922209756" lon="12.027933348768919"><ele>659.0</ele><time>2026-05-02T10:04:01Z</time></trkpt><trkpt lat="43.68509564720447" lon="12.027816814537783"><ele>655.6</ele><time>2026-05-02T10:04:02Z</time></trkpt><trkpt lat="43.685049754592576" lon="12.02768071748816"><ele>652.2</ele><time>2026-05-02T10:04:03Z</time></trkpt><trkpt lat="43.68501087093261" lon="12.027551568822359"><ele>648.8000000000001</ele><time>2026-05-02T10:04:04Z</time></trkpt><trkpt lat="43.68498850970062" lon="12.027431969526186"><ele>645.4000000000001</ele><time>2026-05-02T10:04:05Z</time></trkpt><trkpt lat="43.68493486041706" lon="12.027305042740537"><ele>642.0</ele><time>2026-05-02T10:04:06Z</time></trkpt><trkpt lat="43.68489548708418" lon="12.02719100880084"><ele>641.5</ele><time>2026-05-02T10:04:07Z</time></trkpt><trkpt lat="43.68486243915215" lon="12.027096055975449"><ele>641.0</ele><time>2026-05-02T10:04:08Z</time></trkpt><trkpt lat="43.68483889584915" lon="12.026989585784797"><ele>640.5</ele><time>2026-05-02T10:04:09Z</time></trkpt><trkpt lat="43.68481790742526" lon="12.026888731840565"><ele>640.0</ele><time>2026-05-02T10:04:10Z</time></trkpt><trkpt lat="43.68481564687119" lon="12.026751499742566"><ele>639.5</ele><time>2026-05-02T10:04:11Z</time></trkpt><trkpt lat="43.684821043857056" lon="12.026611201698561"><ele>639.0</ele><time>2026-05-02T10:04:12Z</time></trkpt><trkpt lat="43.68481983902744" lon="12.02648198319015"><ele>637.8333333333334</ele><time>2026-05-02T10:04:13Z</time></trkpt><trkpt lat="43.68481336119332" lon="12.02635147684558"><ele>636.6666666666666</ele><time>2026-05-02T10:04:14Z</time></trkpt><trkpt lat="43.68480245940395" lon="12.02622109992542"><ele>635.5</ele><time>2026-05-02T10:04:15Z</time></trkpt><trkpt lat="43.68479218939013" lon="12.026095787623733"><ele>634.3333333333333</ele><time>2026-05-02T10:04:16Z</time></trkpt><trkpt lat="43.68477495637055" lon="12.025979985869093"><ele>633.1666666666666</ele><time>2026-05-02T10:04:17Z</time></trkpt><trkpt lat="43.684747446432304" lon="12.02588277296524"><ele>632.0</ele><time>2026-05-02T10:04:18Z</time></trkpt><trkpt lat="43.68471369849292" lon="12.025809102610971"><ele>631.6666666666666</ele><time>2026-05-02T10:04:19Z</time></trkpt><trkpt lat="43.68468465125269" lon="12.025716299654412"><ele>631.3333333333333</ele><time>2026-05-02T10:04:20Z</time></trkpt><trkpt lat="43.68463867070571" lon="12.025638893221007"><ele>631.0</ele><time>2026-05-02T10:04:21Z</time></trkpt><trkpt lat="43.6845752002498" lon="12.025568644263325"><ele>630.6666666666666</ele><time>2026-05-02T10:04:22Z</time></trkpt><trkpt lat="43.68450199931774" lon="12.025524975924053"><ele>630.3333333333334</ele><time>2026-05-02T10:04:23Z</time></trkpt><trkpt lat="43.68444102709583" lon="12.025438572837786"><ele>630.0</ele><time>2026-05-02T10:04:24Z</time></trkpt><trkpt lat="43.684387235850316" lon="12.02536102228053"><ele>629.8333333333334</ele><time>2026-05-02T10:04:25Z</time></trkpt><trkpt lat="43.684328030298744" lon="12.025306376329759"><ele>629.6666666666666</ele><time>2026-05-02T10:04:26Z</time></trkpt><trkpt lat="43.684287107133215" lon="12.025212536540174"><ele>629.5</ele><time>2026-05-02T10:04:27Z</time></trkpt><trkpt lat="43.684235391134564" lon="12.025114777580608"><ele>629.3333333333333</ele><time>2026-05-02T10:04:28Z</time></trkpt><trkpt lat="43.68417923459904" lon="12.025014159838582"><ele>629.1666666666666</ele><time>2026-05-02T10:04:29Z</time></trkpt><trkpt lat="43.68413179967274" lon="12.024912777168097"><ele>629.0</ele><time>2026-05-02T10:04:30Z</time></trkpt><trkpt lat="43.68410152766303" lon="12.024808406702324"><ele>626.2</ele><time>2026-05-02T10:04:31Z</time></trkpt><trkpt lat="43.68405708646224" lon="12.024729003224236"><ele>623.4</ele><time>2026-05-02T10:04:32Z</time></trkpt><trkpt lat="43.683989801112496" lon="12.024661626443006"><ele>620.6</ele><time>2026-05-02T10:04:33Z</time></trkpt><trkpt lat="43.68389732935242" lon="12.024578505764751"><ele>617.8</ele><time>2026-05-02T10:04:34Z</time></trkpt><trkpt lat="43.68379848396763" lon="12.0245178549909"><ele>615.0</ele><time>2026-05-02T10:04:35Z</time></trkpt><trkpt lat="43.68372697403301" lon="12.02446408354984"><ele>615.0</ele><time>2026-05-02T10:04:36Z</time></trkpt><trkpt lat="43.68365119444628" lon="12.02437949779192"><ele>615.0</ele><time>2026-05-02T10:04:37Z</time></trkpt><trkpt lat="43.683576958212456" lon="12.024290136561502"><ele>615.0</ele><time>2026-05-02T10:04:38Z</time></trkpt><trkpt lat="43.683502271865414" lon="12.024224741458125"><ele>615.0</ele><time>2026-05-02T10:04:39Z</time></trkpt><trkpt lat="43.683421858383696" lon="12.02417267907134"><ele>615.0</ele><time>2026-05-02T10:04:40Z</time></trkpt><trkpt lat="43.68334545583111" lon="12.024187122781518"><ele>615.0</ele><time>2026-05-02T10:04:41Z</time></trkpt><trkpt lat="43.6832352703283" lon="12.02421514777143"><ele>615.0</ele><time>2026-05-02T10:04:42Z</time></trkpt><trkpt lat="43.683121354785655" lon="12.024272354482877"><ele>615.0</ele><time>2026-05-02T10:04:43Z</time></trkpt><trkpt lat="43.6830016220978" lon="12.024353159742068"><ele>615.0</ele><time>2026-05-02T10:04:44Z</time></trkpt><trkpt lat="43.68287312055081" lon="12.02443299344108"><ele>610.75</ele><time>2026-05-02T10:04:45Z</time></trkpt><trkpt lat="43.68275091602759" lon="12.024500287905015"><ele>606.5</ele><time>2026-05-02T10:04:46Z</time></trkpt><trkpt lat="43.68263279182319" lon="12.024572785203029"><ele>602.25</ele><time>2026-05-02T10:04:47Z</time></trkpt><trkpt lat="43.68251756966891" lon="12.024629561661783"><ele>598.0</ele><time>2026-05-02T10:04:48Z</time></trkpt><trkpt lat="43.68241054889612" lon="12.02469701306307"><ele>598.0</ele><time>2026-05-02T10:04:49Z</time></trkpt><trkpt lat="43.68231515496091" lon="12.024756627844688"><ele>598.0</ele><time>2026-05-02T10:04:50Z</time></trkpt><trkpt lat="43.68222751710314" lon="12.024813295323954"><ele>598.0</ele><time>2026-05-02T10:04:51Z</time></trkpt><trkpt lat="43.68214428750499" lon="12.02484790186021"><ele>598.0</ele><time>2026-05-02T10:04:52Z</time></trkpt><trkpt lat="43.68206799994051" lon="12.024874976043357"><ele>598.0</ele><time>2026-05-02T10:04:53Z</time></trkpt><trkpt lat="43.68200643669177" lon="12.024909234637995"><ele>598.0</ele><time>2026-05-02T10:04:54Z</time></trkpt><trkpt lat="43.68195211938947" lon="12.024988832464684"><ele>593.75</ele><time>2026-05-02T10:04:55Z</time></trkpt><trkpt lat="43.681916051005615" lon="12.025138948312543"><ele>589.5</ele><time>2026-05-02T10:04:56Z</time></trkpt><trkpt lat="43.68190472671599" lon="12.025313602607257"><ele>585.25</ele><time>2026-05-02T10:04:57Z</time></trkpt><trkpt lat="43.681906539484025" lon="12.025482016346729"><ele>581.0</ele><time>2026-05-02T10:04:58Z</time></trkpt><trkpt lat="43.681898857852616" lon="12.025629800705003"><ele>581.0</ele><time>2026-05-02T10:04:59Z</time></trkpt><trkpt lat="43.681879472837245" lon="12.02575348381738"><ele>581.0</ele><time>2026-05-02T10:05:00Z</time></trkpt><trkpt lat="43.68184293716002" lon="12.025865396129124"><ele>581.0</ele><time>2026-05-02T10:05:01Z</time></trkpt><trkpt lat="43.68177095315471" lon="12.0259516437997"><ele>581.0</ele><time>2026-05-02T10:05:02Z</time></trkpt><trkpt lat="43.68165947591194" lon="12.026025334968608"><ele>581.0</ele><time>2026-05-02T10:05:03Z</time></trkpt><trkpt lat="43.68151944027419" lon="12.026047115381123"><ele>580.0</ele><time>2026-05-02T10:05:04Z</time></trkpt><trkpt lat="43.68140075176698" lon="12.02611098873455"><ele>579.0</ele><time>2026-05-02T10:05:05Z</time></trkpt><trkpt lat="43.681289766707515" lon="12.02619665754992"><ele>578.0</ele><time>2026-05-02T10:05:06Z</time></trkpt><trkpt lat="43.68117261678156" lon="12.026257306514498"><ele>577.0</ele><time>2026-05-02T10:05:07Z</time></trkpt><trkpt lat="43.681057400891206" lon="12.02631156639856"><ele>572.0</ele><time>2026-05-02T10:05:08Z</time></trkpt><trkpt lat="43.680947274681095" lon="12.026383597441749"><ele>567.0</ele><time>2026-05-02T10:05:09Z</time></trkpt><trkpt lat="43.68084222667792" lon="12.02645523984208"><ele>562.0</ele><time>2026-05-02T10:05:10Z</time></trkpt><trkpt lat="43.68073799309809" lon="12.026526326795473"><ele>557.0</ele><time>2026-05-02T10:05:11Z</time></trkpt><trkpt lat="43.6806405845164" lon="12.026592759134916"><ele>556.8000000000001</ele><time>2026-05-02T10:05:12Z</time></trkpt><trkpt lat="43.68056107648417" lon="12.026646983344628"><ele>556.6</ele><time>2026-05-02T10:05:13Z</time></trkpt><trkpt lat="43.68049352741754" lon="12.026690426475326"><ele>556.4000000000001</ele><time>2026-05-02T10:05:14Z</time></trkpt><trkpt lat="43.68042052115926" lon="12.026733223213242"><ele>556.2</ele><time>2026-05-02T10:05:15Z</time></trkpt><trkpt lat="43.680323348566716" lon="12.026786868568866"><ele>556.0</ele><time>2026-05-02T10:05:16Z</time></trkpt><trkpt lat="43.68020222933546" lon="12.026935838469383"><ele>553.6666666666667</ele><time>2026-05-02T10:05:17Z</time></trkpt><trkpt lat="43.680058424776476" lon="12.027059422580919"><ele>551.3333333333334</ele><time>2026-05-02T10:05:18Z</time></trkpt><trkpt lat="43.67993436774629" lon="12.027167467410292"><ele>549.0</ele><time>2026-05-02T10:05:19Z</time></trkpt><trkpt lat="43.67981790968232" lon="12.027272736709751"><ele>549.0</ele><time>2026-05-02T10:05:20Z</time></trkpt><trkpt lat="43.679717807364334" lon="12.027404706129095"><ele>549.0</ele><time>2026-05-02T10:05:21Z</time></trkpt><trkpt lat="43.67961371664276" lon="12.027498651446933"><ele>549.0</ele><time>2026-05-02T10:05:22Z</time></trkpt><trkpt lat="43.6795126852278" lon="12.027587243464472"><ele>549.0</ele><time>2026-05-02T10:05:23Z</time></trkpt><trkpt lat="43.679406418100996" lon="12.027704862313906"><ele>547.25</ele><time>2026-05-02T10:05:24Z</time></trkpt><trkpt lat="43.67929313943358" lon="12.02782799940829"><ele>545.5</ele><time>2026-05-02T10:05:25Z</time></trkpt><trkpt lat="43.679192278387085" lon="12.02796745739815"><ele>543.75</ele><time>2026-05-02T10:05:26Z</time></trkpt><trkpt lat="43.679110479650184" lon="12.028145486726846"><ele>542.0</ele><time>2026-05-02T10:05:27Z</time></trkpt><trkpt lat="43.6789829819658" lon="12.028324749551215"><ele>541.3333333333333</ele><time>2026-05-02T10:05:28Z</time></trkpt><trkpt lat="43.67885923525883" lon="12.02849363598235"><ele>540.6666666666666</ele><time>2026-05-02T10:05:29Z</time></trkpt><trkpt lat="43.67873333420136" lon="12.028668383881573"><ele>540.0</ele><time>2026-05-02T10:05:30Z</time></trkpt><trkpt lat="43.67863046468985" lon="12.028829597088587"><ele>539.6666666666666</ele><time>2026-05-02T10:05:31Z</time></trkpt><trkpt lat="43.6785258236837" lon="12.028979938616239"><ele>539.3333333333333</ele><time>2026-05-02T10:05:32Z</time></trkpt><trkpt lat="43.67841819348968" lon="12.029158030490148"><ele>539.0</ele><time>2026-05-02T10:05:33Z</time></trkpt><trkpt lat="43.67833230069285" lon="12.029316092152673"><ele>539.5</ele><time>2026-05-02T10:05:34Z</time></trkpt><trkpt lat="43.678258347734584" lon="12.029459917656348"><ele>540.0</ele><time>2026-05-02T10:05:35Z</time></trkpt><trkpt lat="43.67817113191795" lon="12.02958583178015"><ele>540.5</ele><time>2026-05-02T10:05:36Z</time></trkpt><trkpt lat="43.67807170076568" lon="12.02970053460294"><ele>541.0</ele><time>2026-05-02T10:05:37Z</time></trkpt><trkpt lat="43.677966368350695" lon="12.029793101310684"><ele>541.0</ele><time>2026-05-02T10:05:38Z</time></trkpt><trkpt lat="43.677872809954955" lon="12.02986837690818"><ele>541.0</ele><time>2026-05-02T10:05:39Z</time></trkpt><trkpt lat="43.6777734644307" lon="12.029906635580142"><ele>541.0</ele><time>2026-05-02T10:05:40Z</time></trkpt><trkpt lat="43.67767389432794" lon="12.029895700393054"><ele>541.0</ele><time>2026-05-02T10:05:41Z</time></trkpt><trkpt lat="43.67755961859229" lon="12.029857185373723"><ele>541.0</ele><time>2026-05-02T10:05:42Z</time></trkpt><trkpt lat="43.6774499625106" lon="12.029777301005636"><ele>539.5</ele><time>2026-05-02T10:05:43Z</time></trkpt><trkpt lat="43.677340497503494" lon="12.02968258288093"><ele>538.0</ele><time>2026-05-02T10:05:44Z</time></trkpt><trkpt lat="43.6772358145672" lon="12.02958974261094"><ele>536.5</ele><time>2026-05-02T10:05:45Z</time></trkpt><trkpt lat="43.67712270504848" lon="12.029514387194645"><ele>535.0</ele><time>2026-05-02T10:05:46Z</time></trkpt><trkpt lat="43.677024557275736" lon="12.029402384753272"><ele>533.4</ele><time>2026-05-02T10:05:47Z</time></trkpt><trkpt lat="43.67692568439498" lon="12.029339956130732"><ele>531.8</ele><time>2026-05-02T10:05:48Z</time></trkpt><trkpt lat="43.67683995353585" lon="12.029251963989523"><ele>530.2</ele><time>2026-05-02T10:05:49Z</time></trkpt><trkpt lat="43.676741928092085" lon="12.029166830596859"><ele>528.6</ele><time>2026-05-02T10:05:50Z</time></trkpt><trkpt lat="43.67664153316045" lon="12.029082805557877"><ele>527.0</ele><time>2026-05-02T10:05:51Z</time></trkpt><trkpt lat="43.676552131357624" lon="12.02897726083805"><ele>526.25</ele><time>2026-05-02T10:05:52Z</time></trkpt><trkpt lat="43.67645719629656" lon="12.028896513548936"><ele>525.5</ele><time>2026-05-02T10:05:53Z</time></trkpt><trkpt lat="43.676349575802504" lon="12.028823528276439"><ele>524.75</ele><time>2026-05-02T10:05:54Z</time></trkpt><trkpt lat="43.67623388209817" lon="12.028766276339102"><ele>524.0</ele><time>2026-05-02T10:05:55Z</time></trkpt><trkpt lat="43.67610533262442" lon="12.02872547691632"><ele>522.0</ele><time>2026-05-02T10:05:56Z</time></trkpt><trkpt lat="43.675966616039624" lon="12.028725788156235"><ele>520.0</ele><time>2026-05-02T10:05:57Z</time></trkpt><trkpt lat="43.6758438188035" lon="12.0287386629189"><ele>518.0</ele><time>2026-05-02T10:05:58Z</time></trkpt><trkpt lat="43.675722331354486" lon="12.028753676029611"><ele>516.0</ele><time>2026-05-02T10:05:59Z</time></trkpt><trkpt lat="43.6756089634091" lon="12.028788632087974"><ele>516.0</ele><time>2026-05-02T10:06:00Z</time></trkpt><trkpt lat="43.67552689176193" lon="12.028864938976092"><ele>516.0</ele><time>2026-05-02T10:06:01Z</time></trkpt><trkpt lat="43.675444441028894" lon="12.02892838954196"><ele>516.0</ele><time>2026-05-02T10:06:02Z</time></trkpt><trkpt lat="43.67538150876209" lon="12.029078468912823"><ele>516.0</ele><time>2026-05-02T10:06:03Z</time></trkpt><trkpt lat="43.67537312839613" lon="12.029283102886467"><ele>515.3333333333334</ele><time>2026-05-02T10:06:04Z</time></trkpt><trkpt lat="43.67536639454781" lon="12.029515226262653"><ele>514.6666666666667</ele><time>2026-05-02T10:06:05Z</time></trkpt><trkpt lat="43.67536627521869" lon="12.029784314336819"><ele>514.0</ele><time>2026-05-02T10:06:06Z</time></trkpt><trkpt lat="43.67537452513138" lon="12.030004142987265"><ele>514.0</ele><time>2026-05-02T10:06:07Z</time></trkpt><trkpt lat="43.67536894123655" lon="12.030198688353677"><ele>514.0</ele><time>2026-05-02T10:06:08Z</time></trkpt><trkpt lat="43.67536029938964" lon="12.030389178923771"><ele>514.0</ele><time>2026-05-02T10:06:09Z</time></trkpt><trkpt lat="43.67534684368339" lon="12.03058505504266"><ele>514.0</ele><time>2026-05-02T10:06:10Z</time></trkpt><trkpt lat="43.67532502419507" lon="12.030790965668762"><ele>512.0</ele><time>2026-05-02T10:06:11Z</time></trkpt><trkpt lat="43.67529579851274" lon="12.030996901507516"><ele>510.0</ele><time>2026-05-02T10:06:12Z</time></trkpt><trkpt lat="43.6752694049435" lon="12.031165484614327"><ele>508.0</ele><time>2026-05-02T10:06:13Z</time></trkpt><trkpt lat="43.6752465770811" lon="12.031308205127894"><ele>506.0</ele><time>2026-05-02T10:06:14Z</time></trkpt><trkpt lat="43.67522261496795" lon="12.031455563687608"><ele>504.25</ele><time>2026-05-02T10:06:15Z</time></trkpt><trkpt lat="43.67519581054895" lon="12.031617327429432"><ele>502.5</ele><time>2026-05-02T10:06:16Z</time></trkpt><trkpt lat="43.67516631763497" lon="12.03179058910468"><ele>500.75</ele><time>2026-05-02T10:06:17Z</time></trkpt><trkpt lat="43.675137150834644" lon="12.031961935046166"><ele>499.0</ele><time>2026-05-02T10:06:18Z</time></trkpt><trkpt lat="43.67510908097915" lon="12.032120935844567"><ele>498.1666666666667</ele><time>2026-05-02T10:06:19Z</time></trkpt><trkpt lat="43.675085520903814" lon="12.032250987532077"><ele>497.33333333333337</ele><time>2026-05-02T10:06:20Z</time></trkpt><trkpt lat="43.67506495569449" lon="12.032364507465063"><ele>496.5</ele><time>2026-05-02T10:06:21Z</time></trkpt><trkpt lat="43.67504669198507" lon="12.03246532311441"><ele>495.66666666666663</ele><time>2026-05-02T10:06:22Z</time></trkpt><trkpt lat="43.675028675252044" lon="12.032564875227637"><ele>494.8333333333333</ele><time>2026-05-02T10:06:23Z</time></trkpt><trkpt lat="43.67501095256678" lon="12.03266355939633"><ele>494.0</ele><time>2026-05-02T10:06:24Z</time></trkpt><trkpt lat="43.67499208343719" lon="12.03276862751123"><ele>493.3333333333333</ele><time>2026-05-02T10:06:25Z</time></trkpt><trkpt lat="43.67497813260728" lon="12.032875133346376"><ele>492.66666666666663</ele><time>2026-05-02T10:06:26Z</time></trkpt><trkpt lat="43.674967381758734" lon="12.032978728023974"><ele>492.0</ele><time>2026-05-02T10:06:27Z</time></trkpt><trkpt lat="43.67497113270443" lon="12.033102884124277"><ele>491.33333333333337</ele><time>2026-05-02T10:06:28Z</time></trkpt><trkpt lat="43.67494849672528" lon="12.03319872592235"><ele>490.6666666666667</ele><time>2026-05-02T10:06:29Z</time></trkpt><trkpt lat="43.674918052517064" lon="12.033288416193967"><ele>490.0</ele><time>2026-05-02T10:06:30Z</time></trkpt><trkpt lat="43.674846077880574" lon="12.03339443082652"><ele>488.8</ele><time>2026-05-02T10:06:31Z</time></trkpt><trkpt lat="43.674755204516416" lon="12.033450748688233"><ele>487.6</ele><time>2026-05-02T10:06:32Z</time></trkpt><trkpt lat="43.67466784993724" lon="12.033524881860094"><ele>486.4</ele><time>2026-05-02T10:06:33Z</time></trkpt><trkpt lat="43.674586991254095" lon="12.033610849868408"><ele>485.2</ele><time>2026-05-02T10:06:34Z</time></trkpt><trkpt lat="43.6745112419725" lon="12.033698057596585"><ele>484.0</ele><time>2026-05-02T10:06:35Z</time></trkpt><trkpt lat="43.67444625820528" lon="12.033802898825142"><ele>481.6</ele><time>2026-05-02T10:06:36Z</time></trkpt><trkpt lat="43.67437204307142" lon="12.033886870076698"><ele>479.2</ele><time>2026-05-02T10:06:37Z</time></trkpt><trkpt lat="43.67429944906905" lon="12.033989769084382"><ele>476.80000000000007</ele><time>2026-05-02T10:06:38Z</time></trkpt><trkpt lat="43.674225372174966" lon="12.034116087679182"><ele>474.40000000000003</ele><time>2026-05-02T10:06:39Z</time></trkpt><trkpt lat="43.67416151672406" lon="12.034266231808134"><ele>472.0</ele><time>2026-05-02T10:06:40Z</time></trkpt><trkpt lat="43.6740911787983" lon="12.034395487972972"><ele>471.0</ele><time>2026-05-02T10:06:41Z</time></trkpt><trkpt lat="43.67403796496617" lon="12.034544039967226"><ele>470.00000000000006</ele><time>2026-05-02T10:06:42Z</time></trkpt><trkpt lat="43.67399816257804" lon="12.034692976626953"><ele>469.00000000000006</ele><time>2026-05-02T10:06:43Z</time></trkpt><trkpt lat="43.67395194835825" lon="12.034832643321687"><ele>468.0</ele><time>2026-05-02T10:06:44Z</time></trkpt><trkpt lat="43.67392230572912" lon="12.034968450571117"><ele>467.0</ele><time>2026-05-02T10:06:45Z</time></trkpt><trkpt lat="43.673901861976674" lon="12.035096467813366"><ele>466.0</ele><time>2026-05-02T10:06:46Z</time></trkpt><trkpt lat="43.67386673717533" lon="12.035229685056795"><ele>465.00000000000006</ele><time>2026-05-02T10:06:47Z</time></trkpt><trkpt lat="43.6738570344466" lon="12.035364069873333"><ele>464.00000000000006</ele><time>2026-05-02T10:06:48Z</time></trkpt><trkpt lat="43.673850199421835" lon="12.035492937275915"><ele>463.0</ele><time>2026-05-02T10:06:49Z</time></trkpt><trkpt lat="43.67384396246549" lon="12.035619206264673"><ele>462.0</ele><time>2026-05-02T10:06:50Z</time></trkpt><trkpt lat="43.67383570935862" lon="12.035738586839836"><ele>460.6666666666667</ele><time>2026-05-02T10:06:51Z</time></trkpt><trkpt lat="43.67384203893071" lon="12.035859787945911"><ele>459.33333333333337</ele><time>2026-05-02T10:06:52Z</time></trkpt><trkpt lat="43.673829066013056" lon="12.035981732941393"><ele>458.0</ele><time>2026-05-02T10:06:53Z</time></trkpt><trkpt lat="43.67381600995497" lon="12.036109074467571"><ele>456.6666666666667</ele><time>2026-05-02T10:06:54Z</time></trkpt><trkpt lat="43.67380829315862" lon="12.036238745050088"><ele>455.33333333333337</ele><time>2026-05-02T10:06:55Z</time></trkpt><trkpt lat="43.67379217145572" lon="12.036354345069494"><ele>454.0</ele><time>2026-05-02T10:06:56Z</time></trkpt><trkpt lat="43.67375646232048" lon="12.036427526964316"><ele>454.0</ele><time>2026-05-02T10:06:57Z</time></trkpt><trkpt lat="43.673692655286196" lon="12.036483319786333"><ele>454.0</ele><time>2026-05-02T10:06:58Z</time></trkpt><trkpt lat="43.673593718998966" lon="12.036498467123739"><ele>454.0</ele><time>2026-05-02T10:06:59Z</time></trkpt><trkpt lat="43.67348135541036" lon="12.036473407186532"><ele>454.0</ele><time>2026-05-02T10:07:00Z</time></trkpt><trkpt lat="43.67335490550507" lon="12.036409225043753"><ele>454.0</ele><time>2026-05-02T10:07:01Z</time></trkpt><trkpt lat="43.673241863937974" lon="12.036369982834408"><ele>453.6</ele><time>2026-05-02T10:07:02Z</time></trkpt><trkpt lat="43.67315502379502" lon="12.03635421472258"><ele>453.2</ele><time>2026-05-02T10:07:03Z</time></trkpt><trkpt lat="43.67306678071314" lon="12.036372857566969"><ele>452.80000000000007</ele><time>2026-05-02T10:07:04Z</time></trkpt><trkpt lat="43.67298222277157" lon="12.036429813772571"><ele>452.40000000000003</ele><time>2026-05-02T10:07:05Z</time></trkpt><trkpt lat="43.67290834180648" lon="12.036508413037435"><ele>452.0</ele><time>2026-05-02T10:07:06Z</time></trkpt><trkpt lat="43.67285090492085" lon="12.036627084743289"><ele>451.8333333333333</ele><time>2026-05-02T10:07:07Z</time></trkpt><trkpt lat="43.672789130180504" lon="12.036722697209145"><ele>451.66666666666663</ele><time>2026-05-02T10:07:08Z</time></trkpt><trkpt lat="43.672741896137026" lon="12.036830590894645"><ele>451.5</ele><time>2026-05-02T10:07:09Z</time></trkpt><trkpt lat="43.67271977794356" lon="12.03692638222166"><ele>451.33333333333337</ele><time>2026-05-02T10:07:10Z</time></trkpt><trkpt lat="43.672680032802816" lon="12.037012175644781"><ele>451.1666666666667</ele><time>2026-05-02T10:07:11Z</time></trkpt><trkpt lat="43.67263666270105" lon="12.037110496935368"><ele>451.0</ele><time>2026-05-02T10:07:12Z</time></trkpt><trkpt lat="43.67260509908461" lon="12.037227239895866"><ele>451.0</ele><time>2026-05-02T10:07:13Z</time></trkpt><trkpt lat="43.67256387139645" lon="12.03733380176531"><ele>451.0</ele><time>2026-05-02T10:07:14Z</time></trkpt><trkpt lat="43.67252905272732" lon="12.037457097392124"><ele>451.0</ele><time>2026-05-02T10:07:15Z</time></trkpt><trkpt lat="43.672500811181955" lon="12.03756375566784"><ele>451.0</ele><time>2026-05-02T10:07:16Z</time></trkpt><trkpt lat="43.67246444589704" lon="12.037722346784555"><ele>451.0</ele><time>2026-05-02T10:07:18Z</time></trkpt><trkpt lat="43.67244443908356" lon="12.037807932769274"><ele>449.6666666666667</ele><time>2026-05-02T10:07:19Z</time></trkpt><trkpt lat="43.67242373394325" lon="12.037896506088563"><ele>448.33333333333337</ele><time>2026-05-02T10:07:20Z</time></trkpt><trkpt lat="43.67240401560751" lon="12.037980858978974"><ele>447.0</ele><time>2026-05-02T10:07:21Z</time></trkpt><trkpt lat="43.67236102183615" lon="12.038144476208801"><ele>445.66666666666663</ele><time>2026-05-02T10:07:23Z</time></trkpt><trkpt lat="43.672332185735804" lon="12.038247788428917"><ele>444.3333333333333</ele><time>2026-05-02T10:07:24Z</time></trkpt><trkpt lat="43.67230533592244" lon="12.038349216110635"><ele>443.0</ele><time>2026-05-02T10:07:25Z</time></trkpt><trkpt lat="43.67228132559043" lon="12.038442163286849"><ele>442.0</ele><time>2026-05-02T10:07:26Z</time></trkpt><trkpt lat="43.672260853879635" lon="12.03852605730473"><ele>440.99999999999994</ele><time>2026-05-02T10:07:27Z</time></trkpt><trkpt lat="43.672232486255275" lon="12.038660115322383"><ele>439.99999999999994</ele><time>2026-05-02T10:07:29Z</time></trkpt><trkpt lat="43.67220275712045" lon="12.03881246260761"><ele>439.0</ele><time>2026-05-02T10:07:31Z</time></trkpt><trkpt lat="43.67218910361501" lon="12.03895702858893"><ele>438.0</ele><time>2026-05-02T10:07:33Z</time></trkpt><trkpt lat="43.672173203662474" lon="12.039083315814606"><ele>437.5</ele><time>2026-05-02T10:07:35Z</time></trkpt><trkpt lat="43.67216570601896" lon="12.039196999934923"><ele>437.0</ele><time>2026-05-02T10:07:37Z</time></trkpt><trkpt lat="43.67215700703648" lon="12.039322479745186"><ele>436.5</ele><time>2026-05-02T10:07:42Z</time></trkpt><trkpt lat="43.67231542191535" lon="12.039359982499601"><ele>436.0</ele><time>2026-05-02T10:07:44Z</time></trkpt><trkpt lat="43.67243196220254" lon="12.03936934596085"><ele>436.00000000000006</ele><time>2026-05-02T10:07:46Z</time></trkpt><trkpt lat="43.672499674325195" lon="12.039426734108142"><ele>436.0</ele><time>2026-05-02T10:07:48Z</time></trkpt><trkpt lat="43.67256461422323" lon="12.039387578119541"><ele>436.0</ele><time>2026-05-02T10:07:51Z</time></trkpt><trkpt lat="43.67260618158834" lon="12.039531287261685"><ele>436.0</ele><time>2026-05-02T10:07:53Z</time></trkpt><trkpt lat="43.672668594929455" lon="12.039586833939486"><ele>436.00000000000006</ele><time>2026-05-02T10:17:34Z</time></trkpt><trkpt lat="43.67275941521347" lon="12.039590973843156"><ele>436.0</ele><time>2026-05-02T10:17:36Z</time></trkpt><trkpt lat="43.6726634663219" lon="12.039383336772014"><ele>436.00000000000006</ele><time>2026-05-02T10:17:50Z</time></trkpt><trkpt lat="43.67254173585908" lon="12.039347599274214"><ele>436.0</ele><time>2026-05-02T10:17:52Z</time></trkpt><trkpt lat="43.672473163577045" lon="12.039346075276656"><ele>436.0</ele><time>2026-05-02T10:17:53Z</time></trkpt><trkpt lat="43.672393290259386" lon="12.0393553330669"><ele>436.0</ele><time>2026-05-02T10:17:54Z</time></trkpt><trkpt lat="43.67231457871172" lon="12.039357269739972"><ele>436.00000000000006</ele><time>2026-05-02T10:17:55Z</time></trkpt><trkpt lat="43.67224699429458" lon="12.039357036184303"><ele>436.0</ele><time>2026-05-02T10:17:56Z</time></trkpt><trkpt lat="43.67216265971105" lon="12.039351770775069"><ele>436.0</ele><time>2026-05-02T10:17:57Z</time></trkpt><trkpt lat="43.67207010911922" lon="12.039353243760317"><ele>436.0</ele><time>2026-05-02T10:17:58Z</time></trkpt><trkpt lat="43.67197670290867" lon="12.039354079361228"><ele>436.0</ele><time>2026-05-02T10:17:59Z</time></trkpt><trkpt lat="43.671883676332406" lon="12.039353438812205"><ele>436.0</ele><time>2026-05-02T10:18:00Z</time></trkpt><trkpt lat="43.671782305614926" lon="12.039349645615095"><ele>436.0</ele><time>2026-05-02T10:18:01Z</time></trkpt><trkpt lat="43.67167160998771" lon="12.039346257630054"><ele>435.75</ele><time>2026-05-02T10:18:02Z</time></trkpt><trkpt lat="43.67155797133492" lon="12.039351243914178"><ele>435.5</ele><time>2026-05-02T10:18:03Z</time></trkpt><trkpt lat="43.6714333621851" lon="12.039360225829874"><ele>435.25</ele><time>2026-05-02T10:18:04Z</time></trkpt><trkpt lat="43.67130026751357" lon="12.039382354109938"><ele>435.0</ele><time>2026-05-02T10:18:05Z</time></trkpt><trkpt lat="43.671189252693836" lon="12.039416963425095"><ele>435.2</ele><time>2026-05-02T10:18:06Z</time></trkpt><trkpt lat="43.671087417035224" lon="12.039463540560442"><ele>435.4</ele><time>2026-05-02T10:18:07Z</time></trkpt><trkpt lat="43.670979952405176" lon="12.039522468887066"><ele>435.6</ele><time>2026-05-02T10:18:08Z</time></trkpt><trkpt lat="43.670883154720165" lon="12.039582732055088"><ele>435.8</ele><time>2026-05-02T10:18:09Z</time></trkpt><trkpt lat="43.67079524647783" lon="12.039638972502132"><ele>436.0</ele><time>2026-05-02T10:18:10Z</time></trkpt><trkpt lat="43.670722270457794" lon="12.039688973015117"><ele>436.0</ele><time>2026-05-02T10:18:11Z</time></trkpt><trkpt lat="43.670654383546726" lon="12.039732765802997"><ele>436.0</ele><time>2026-05-02T10:18:12Z</time></trkpt><trkpt lat="43.67059508046343" lon="12.039780951578622"><ele>436.0</ele><time>2026-05-02T10:18:13Z</time></trkpt><trkpt lat="43.670537062098944" lon="12.039819739367575"><ele>436.0</ele><time>2026-05-02T10:18:14Z</time></trkpt><trkpt lat="43.670472740568606" lon="12.039868293162872"><ele>436.0</ele><time>2026-05-02T10:18:15Z</time></trkpt><trkpt lat="43.670404877208924" lon="12.039915086261175"><ele>436.0</ele><time>2026-05-02T10:18:16Z</time></trkpt><trkpt lat="43.67033473622213" lon="12.039956526761053"><ele>436.0</ele><time>2026-05-02T10:18:17Z</time></trkpt><trkpt lat="43.67025754393137" lon="12.040004304634433"><ele>436.20000000000005</ele><time>2026-05-02T10:18:18Z</time></trkpt><trkpt lat="43.67017142829018" lon="12.040064766683797"><ele>436.40000000000003</ele><time>2026-05-02T10:18:19Z</time></trkpt><trkpt lat="43.67007980748548" lon="12.040123056271359"><ele>436.6</ele><time>2026-05-02T10:18:20Z</time></trkpt><trkpt lat="43.669982718980386" lon="12.040184606282898"><ele>436.8</ele><time>2026-05-02T10:18:21Z</time></trkpt><trkpt lat="43.669892091038356" lon="12.040246332540313"><ele>437.0</ele><time>2026-05-02T10:18:22Z</time></trkpt><trkpt lat="43.669813118752536" lon="12.040302580899578"><ele>437.0</ele><time>2026-05-02T10:18:23Z</time></trkpt><trkpt lat="43.66972040945044" lon="12.040373311897586"><ele>437.00000000000006</ele><time>2026-05-02T10:18:24Z</time></trkpt><trkpt lat="43.669620536093326" lon="12.040429155720611"><ele>437.00000000000006</ele><time>2026-05-02T10:18:25Z</time></trkpt><trkpt lat="43.66952339909648" lon="12.040492652479143"><ele>437.0</ele><time>2026-05-02T10:18:26Z</time></trkpt><trkpt lat="43.66942798586869" lon="12.040544952895784"><ele>437.0</ele><time>2026-05-02T10:18:27Z</time></trkpt><trkpt lat="43.66933388185619" lon="12.0406001891461"><ele>436.8</ele><time>2026-05-02T10:18:28Z</time></trkpt><trkpt lat="43.66923682708531" lon="12.040666223276906"><ele>436.6</ele><time>2026-05-02T10:18:29Z</time></trkpt><trkpt lat="43.66913977904609" lon="12.040735889034002"><ele>436.40000000000003</ele><time>2026-05-02T10:18:30Z</time></trkpt><trkpt lat="43.6690469941428" lon="12.040811758972923"><ele>436.20000000000005</ele><time>2026-05-02T10:18:31Z</time></trkpt><trkpt lat="43.668954910093916" lon="12.040885370052711"><ele>436.0</ele><time>2026-05-02T10:18:32Z</time></trkpt><trkpt lat="43.668870197779846" lon="12.040940294698327"><ele>436.0</ele><time>2026-05-02T10:18:33Z</time></trkpt><trkpt lat="43.668760801836754" lon="12.041013676627493"><ele>436.0</ele><time>2026-05-02T10:18:34Z</time></trkpt><trkpt lat="43.66867469518038" lon="12.04107128686513"><ele>436.0</ele><time>2026-05-02T10:18:35Z</time></trkpt><trkpt lat="43.66858848073193" lon="12.041118489587364"><ele>436.0</ele><time>2026-05-02T10:18:36Z</time></trkpt><trkpt lat="43.66849527289219" lon="12.041184380308714"><ele>436.0</ele><time>2026-05-02T10:18:37Z</time></trkpt><trkpt lat="43.66840105849751" lon="12.041261268819015"><ele>436.0</ele><time>2026-05-02T10:18:38Z</time></trkpt><trkpt lat="43.66827743428184" lon="12.041325097275164"><ele>436.0</ele><time>2026-05-02T10:18:39Z</time></trkpt><trkpt lat="43.66812394449285" lon="12.041429647817422"><ele>436.0</ele><time>2026-05-02T10:18:40Z</time></trkpt><trkpt lat="43.66799090376435" lon="12.041519162189044"><ele>436.0</ele><time>2026-05-02T10:18:41Z</time></trkpt><trkpt lat="43.66787553828415" lon="12.041598816118519"><ele>436.0</ele><time>2026-05-02T10:18:42Z</time></trkpt><trkpt lat="43.667757972329866" lon="12.041679192621794"><ele>436.0</ele><time>2026-05-02T10:18:43Z</time></trkpt><trkpt lat="43.6676622854439" lon="12.041765633971261"><ele>436.0</ele><time>2026-05-02T10:18:44Z</time></trkpt><trkpt lat="43.66757440339393" lon="12.04189015971402"><ele>435.0</ele><time>2026-05-02T10:18:45Z</time></trkpt><trkpt lat="43.66752078221518" lon="12.042038042663881"><ele>434.0</ele><time>2026-05-02T10:18:46Z</time></trkpt><trkpt lat="43.66750692372604" lon="12.042202565906733"><ele>433.0</ele><time>2026-05-02T10:18:47Z</time></trkpt><trkpt lat="43.667507299103654" lon="12.042415250713908"><ele>432.0</ele><time>2026-05-02T10:18:48Z</time></trkpt><trkpt lat="43.6675071472334" lon="12.04260079226887"><ele>431.6</ele><time>2026-05-02T10:18:49Z</time></trkpt><trkpt lat="43.667500787240606" lon="12.04275567630246"><ele>431.20000000000005</ele><time>2026-05-02T10:18:50Z</time></trkpt><trkpt lat="43.66750282794394" lon="12.042895769500229"><ele>430.8</ele><time>2026-05-02T10:18:51Z</time></trkpt><trkpt lat="43.6675058296886" lon="12.043029353225457"><ele>430.4</ele><time>2026-05-02T10:18:52Z</time></trkpt><trkpt lat="43.667504734925075" lon="12.04317779581316"><ele>430.0</ele><time>2026-05-02T10:18:53Z</time></trkpt><trkpt lat="43.667493936841524" lon="12.043318391839795"><ele>430.00000000000006</ele><time>2026-05-02T10:18:54Z</time></trkpt><trkpt lat="43.6674780549457" lon="12.043430937226741"><ele>430.0</ele><time>2026-05-02T10:18:55Z</time></trkpt><trkpt lat="43.66745408892773" lon="12.043533297356896"><ele>430.0</ele><time>2026-05-02T10:18:56Z</time></trkpt><trkpt lat="43.66744556720372" lon="12.043629216864893"><ele>430.0</ele><time>2026-05-02T10:18:57Z</time></trkpt><trkpt lat="43.66750976308522" lon="12.043766599524066"><ele>430.00000000000006</ele><time>2026-05-02T10:18:59Z</time></trkpt><trkpt lat="43.667582097327966" lon="12.043792082991985"><ele>430.0</ele><time>2026-05-02T10:19:00Z</time></trkpt><trkpt lat="43.6676768909676" lon="12.043786717021163"><ele>430.6</ele><time>2026-05-02T10:19:01Z</time></trkpt><trkpt lat="43.66777857489671" lon="12.043759744943134"><ele>431.2</ele><time>2026-05-02T10:19:02Z</time></trkpt><trkpt lat="43.66788624994544" lon="12.043729852844715"><ele>431.79999999999995</ele><time>2026-05-02T10:19:03Z</time></trkpt><trkpt lat="43.66799351464859" lon="12.043707418030058"><ele>432.4</ele><time>2026-05-02T10:19:04Z</time></trkpt><trkpt lat="43.6680999483004" lon="12.043680897147281"><ele>433.0</ele><time>2026-05-02T10:19:05Z</time></trkpt><trkpt lat="43.66821319792674" lon="12.04362487793123"><ele>433.0</ele><time>2026-05-02T10:19:06Z</time></trkpt><trkpt lat="43.66832312975748" lon="12.043562681786286"><ele>433.0</ele><time>2026-05-02T10:19:07Z</time></trkpt><trkpt lat="43.66843780810921" lon="12.043471664368191"><ele>433.0</ele><time>2026-05-02T10:19:08Z</time></trkpt><trkpt lat="43.668553009635694" lon="12.043388149288266"><ele>433.0</ele><time>2026-05-02T10:19:09Z</time></trkpt><trkpt lat="43.66868380835714" lon="12.043296372437808"><ele>432.75</ele><time>2026-05-02T10:19:10Z</time></trkpt><trkpt lat="43.66879210992357" lon="12.04321423604787"><ele>432.5</ele><time>2026-05-02T10:19:11Z</time></trkpt><trkpt lat="43.66889735597709" lon="12.04312217607841"><ele>432.25</ele><time>2026-05-02T10:19:12Z</time></trkpt><trkpt lat="43.66899989426468" lon="12.043057060970005"><ele>432.0</ele><time>2026-05-02T10:19:13Z</time></trkpt><trkpt lat="43.66910281429421" lon="12.04297448701627"><ele>432.0</ele><time>2026-05-02T10:19:14Z</time></trkpt><trkpt lat="43.66920462575295" lon="12.04289050094106"><ele>432.0</ele><time>2026-05-02T10:19:15Z</time></trkpt><trkpt lat="43.66931281972037" lon="12.042828275345792"><ele>432.0</ele><time>2026-05-02T10:19:16Z</time></trkpt><trkpt lat="43.66942106364169" lon="12.042778050669293"><ele>432.0</ele><time>2026-05-02T10:19:17Z</time></trkpt><trkpt lat="43.669537143940396" lon="12.042735827201833"><ele>432.25</ele><time>2026-05-02T10:19:18Z</time></trkpt><trkpt lat="43.669645926757795" lon="12.042704406749225"><ele>432.5</ele><time>2026-05-02T10:19:19Z</time></trkpt><trkpt lat="43.66974869313357" lon="12.04265390262728"><ele>432.75</ele><time>2026-05-02T10:19:20Z</time></trkpt><trkpt lat="43.669869950746" lon="12.042626651608249"><ele>433.0</ele><time>2026-05-02T10:19:21Z</time></trkpt><trkpt lat="43.66998150712196" lon="12.042596064515912"><ele>433.0</ele><time>2026-05-02T10:19:22Z</time></trkpt><trkpt lat="43.670092356161355" lon="12.042563627691909"><ele>433.0</ele><time>2026-05-02T10:19:23Z</time></trkpt><trkpt lat="43.67020444510507" lon="12.04254278704855"><ele>433.0</ele><time>2026-05-02T10:19:24Z</time></trkpt><trkpt lat="43.67032071141082" lon="12.042539427492994"><ele>433.0</ele><time>2026-05-02T10:19:25Z</time></trkpt><trkpt lat="43.670440208539915" lon="12.042515194261382"><ele>433.5</ele><time>2026-05-02T10:19:26Z</time></trkpt><trkpt lat="43.67055831949512" lon="12.042458359138676"><ele>434.0</ele><time>2026-05-02T10:19:27Z</time></trkpt><trkpt lat="43.67066865974314" lon="12.042398716204303"><ele>434.5</ele><time>2026-05-02T10:19:28Z</time></trkpt><trkpt lat="43.67077426666452" lon="12.042340357351758"><ele>435.0</ele><time>2026-05-02T10:19:29Z</time></trkpt><trkpt lat="43.67088325334957" lon="12.042285055434498"><ele>435.0</ele><time>2026-05-02T10:19:30Z</time></trkpt><trkpt lat="43.67097915751297" lon="12.042237676704211"><ele>435.0</ele><time>2026-05-02T10:19:31Z</time></trkpt><trkpt lat="43.671062925289434" lon="12.042202354458276"><ele>435.0</ele><time>2026-05-02T10:19:32Z</time></trkpt><trkpt lat="43.67112885506715" lon="12.042178767017031"><ele>435.0</ele><time>2026-05-02T10:19:33Z</time></trkpt><trkpt lat="43.671193440867384" lon="12.042175081049718"><ele>435.0</ele><time>2026-05-02T10:19:34Z</time></trkpt><trkpt lat="43.67128920776748" lon="12.042156459443339"><ele>435.0</ele><time>2026-05-02T10:19:36Z</time></trkpt><trkpt lat="43.671318083088714" lon="12.042394161150938"><ele>437.0</ele><time>2026-05-02T10:19:37Z</time></trkpt><trkpt lat="43.67137343258298" lon="12.042472186345424"><ele>439.0</ele><time>2026-05-02T10:19:38Z</time></trkpt><trkpt lat="43.6714288476711" lon="12.042563486390929"><ele>441.0</ele><time>2026-05-02T10:19:39Z</time></trkpt><trkpt lat="43.671487754449466" lon="12.04263882241987"><ele>443.0</ele><time>2026-05-02T10:19:40Z</time></trkpt><trkpt lat="43.67153999876082" lon="12.042707026934542"><ele>445.0</ele><time>2026-05-02T10:19:41Z</time></trkpt><trkpt lat="43.671665314802524" lon="12.04276880092357"><ele>445.0</ele><time>2026-05-02T10:19:43Z</time></trkpt><trkpt lat="43.67176400293667" lon="12.042754703218659"><ele>445.0</ele><time>2026-05-02T10:19:44Z</time></trkpt><trkpt lat="43.67188521534934" lon="12.042739120730173"><ele>445.0</ele><time>2026-05-02T10:19:45Z</time></trkpt><trkpt lat="43.67200647810682" lon="12.042725841342081"><ele>445.0</ele><time>2026-05-02T10:19:46Z</time></trkpt><trkpt lat="43.67211282145759" lon="12.042714723470485"><ele>445.0</ele><time>2026-05-02T10:19:47Z</time></trkpt><trkpt lat="43.67218837973136" lon="12.042762744665644"><ele>446.8</ele><time>2026-05-02T10:19:48Z</time></trkpt><trkpt lat="43.672264292361156" lon="12.042836174177234"><ele>448.6</ele><time>2026-05-02T10:19:49Z</time></trkpt><trkpt lat="43.67235720302444" lon="12.042920394273374"><ele>450.4</ele><time>2026-05-02T10:19:50Z</time></trkpt><trkpt lat="43.67244461220133" lon="12.043024111819205"><ele>452.2</ele><time>2026-05-02T10:19:51Z</time></trkpt><trkpt lat="43.67253727174217" lon="12.043122135071263"><ele>454.0</ele><time>2026-05-02T10:19:52Z</time></trkpt><trkpt lat="43.67262166728367" lon="12.043201972365342"><ele>454.0</ele><time>2026-05-02T10:19:53Z</time></trkpt><trkpt lat="43.67271122225629" lon="12.043271090462172"><ele>454.0</ele><time>2026-05-02T10:19:55Z</time></trkpt><trkpt lat="43.67274324861861" lon="12.043358597668586"><ele>454.0</ele><time>2026-05-02T10:19:57Z</time></trkpt><trkpt lat="43.67260028120766" lon="12.043415210443897"><ele>454.0</ele><time>2026-05-02T10:19:59Z</time></trkpt><trkpt lat="43.672501939784475" lon="12.04345061718584"><ele>454.0</ele><time>2026-05-02T10:20:00Z</time></trkpt><trkpt lat="43.67240384683923" lon="12.04350424361873"><ele>455.4</ele><time>2026-05-02T10:20:01Z</time></trkpt><trkpt lat="43.67229758320537" lon="12.043524008169312"><ele>456.79999999999995</ele><time>2026-05-02T10:20:02Z</time></trkpt><trkpt lat="43.672215442435416" lon="12.043576135940343"><ele>458.20000000000005</ele><time>2026-05-02T10:20:03Z</time></trkpt><trkpt lat="43.67214092288069" lon="12.043662773273967"><ele>459.6</ele><time>2026-05-02T10:20:04Z</time></trkpt><trkpt lat="43.672086347038416" lon="12.043786620077377"><ele>461.0</ele><time>2026-05-02T10:20:05Z</time></trkpt><trkpt lat="43.67205690896801" lon="12.043897676050197"><ele>460.99999999999994</ele><time>2026-05-02T10:20:06Z</time></trkpt><trkpt lat="43.672054956545296" lon="12.043991005240446"><ele>461.0</ele><time>2026-05-02T10:20:07Z</time></trkpt><trkpt lat="43.67209396157446" lon="12.04407407163901"><ele>461.0</ele><time>2026-05-02T10:20:08Z</time></trkpt><trkpt lat="43.67216545102631" lon="12.04413565303001"><ele>461.0</ele><time>2026-05-02T10:20:09Z</time></trkpt><trkpt lat="43.67226190593953" lon="12.04415936485449"><ele>460.99999999999994</ele><time>2026-05-02T10:20:10Z</time></trkpt><trkpt lat="43.67236970416556" lon="12.044149196685044"><ele>461.0</ele><time>2026-05-02T10:20:11Z</time></trkpt><trkpt lat="43.67247770759511" lon="12.044102617291422"><ele>461.0</ele><time>2026-05-02T10:20:12Z</time></trkpt><trkpt lat="43.67255816783738" lon="12.044069943039256"><ele>461.0</ele><time>2026-05-02T10:20:13Z</time></trkpt><trkpt lat="43.672647996911735" lon="12.04409123712827"><ele>461.0</ele><time>2026-05-02T10:20:14Z</time></trkpt><trkpt lat="43.67270812108991" lon="12.044129523805795"><ele>461.0</ele><time>2026-05-02T10:20:15Z</time></trkpt><trkpt lat="43.672805296242856" lon="12.044191657800614"><ele>461.0</ele><time>2026-05-02T10:20:17Z</time></trkpt><trkpt lat="43.67288863861479" lon="12.044315970074447"><ele>464.6</ele><time>2026-05-02T10:20:19Z</time></trkpt><trkpt lat="43.6729154304104" lon="12.04448393459535"><ele>468.20000000000005</ele><time>2026-05-02T10:20:21Z</time></trkpt><trkpt lat="43.672928900367914" lon="12.044574905710652"><ele>471.79999999999995</ele><time>2026-05-02T10:20:22Z</time></trkpt><trkpt lat="43.67297505862864" lon="12.044673209571314"><ele>475.4</ele><time>2026-05-02T10:20:24Z</time></trkpt><trkpt lat="43.67307736379336" lon="12.044653699438784"><ele>479.0</ele><time>2026-05-02T10:20:26Z</time></trkpt><trkpt lat="43.673147294934694" lon="12.044637572461532"><ele>478.99999999999994</ele><time>2026-05-02T10:20:27Z</time></trkpt><trkpt lat="43.673217696915124" lon="12.044678328825983"><ele>479.0</ele><time>2026-05-02T10:20:29Z</time></trkpt><trkpt lat="43.67324829763188" lon="12.044757765722126"><ele>479.0</ele><time>2026-05-02T10:20:30Z</time></trkpt><trkpt lat="43.673329999537515" lon="12.044821906812462"><ele>479.0</ele><time>2026-05-02T10:20:32Z</time></trkpt><trkpt lat="43.67341997509801" lon="12.044794065841623"><ele>478.99999999999994</ele><time>2026-05-02T10:20:34Z</time></trkpt><trkpt lat="43.67348400887566" lon="12.044795579797308"><ele>479.0</ele><time>2026-05-02T10:20:35Z</time></trkpt><trkpt lat="43.67354594915703" lon="12.044751029885209"><ele>481.0</ele><time>2026-05-02T10:20:36Z</time></trkpt><trkpt lat="43.67365666410515" lon="12.044691113559397"><ele>483.0</ele><time>2026-05-02T10:20:38Z</time></trkpt><trkpt lat="43.673720216578616" lon="12.044661936396619"><ele>485.0</ele><time>2026-05-02T10:20:39Z</time></trkpt><trkpt lat="43.67382833495839" lon="12.044646533314856"><ele>487.0</ele><time>2026-05-02T10:20:41Z</time></trkpt><trkpt lat="43.673906626575594" lon="12.044692169206549"><ele>489.0</ele><time>2026-05-02T10:20:43Z</time></trkpt><trkpt lat="43.67398551755189" lon="12.044758352540828"><ele>489.0</ele><time>2026-05-02T10:20:45Z</time></trkpt><trkpt lat="43.67408442671437" lon="12.044814611301566"><ele>489.0</ele><time>2026-05-02T10:20:47Z</time></trkpt><trkpt lat="43.67417221340369" lon="12.04488362086409"><ele>489.0</ele><time>2026-05-02T10:20:49Z</time></trkpt><trkpt lat="43.67417997072779" lon="12.045003145686104"><ele>489.0</ele><time>2026-05-02T10:20:52Z</time></trkpt><trkpt lat="43.6741130951994" lon="12.045103894446523"><ele>489.0</ele><time>2026-05-02T10:20:54Z</time></trkpt><trkpt lat="43.67406621859349" lon="12.045170575542494"><ele>491.6666666666667</ele><time>2026-05-02T10:20:55Z</time></trkpt><trkpt lat="43.67401714876208" lon="12.045237585653126"><ele>494.33333333333337</ele><time>2026-05-02T10:20:56Z</time></trkpt><trkpt lat="43.6739700740432" lon="12.045300453362998"><ele>497.0</ele><time>2026-05-02T10:20:57Z</time></trkpt><trkpt lat="43.67391772287499" lon="12.04537262798453"><ele>499.6666666666667</ele><time>2026-05-02T10:20:58Z</time></trkpt><trkpt lat="43.67384992202265" lon="12.045462791337458"><ele>502.33333333333337</ele><time>2026-05-02T10:20:59Z</time></trkpt><trkpt lat="43.67378219740319" lon="12.045554612703755"><ele>505.0</ele><time>2026-05-02T10:21:00Z</time></trkpt><trkpt lat="43.67370495764432" lon="12.045661658973293"><ele>505.0</ele><time>2026-05-02T10:21:02Z</time></trkpt><trkpt lat="43.6736870573333" lon="12.045753647530542"><ele>505.0</ele><time>2026-05-02T10:21:04Z</time></trkpt><trkpt lat="43.673709757379626" lon="12.04588472299597"><ele>505.0</ele><time>2026-05-02T10:21:06Z</time></trkpt><trkpt lat="43.67368417212771" lon="12.046015390999122"><ele>505.0</ele><time>2026-05-02T10:21:08Z</time></trkpt><trkpt lat="43.67360203992326" lon="12.046072895542927"><ele>505.0</ele><time>2026-05-02T10:21:10Z</time></trkpt><trkpt lat="43.67351594048269" lon="12.046167133810876"><ele>506.83333333333337</ele><time>2026-05-02T10:21:12Z</time></trkpt><trkpt lat="43.673469928281165" lon="12.046333280964909"><ele>508.6666666666667</ele><time>2026-05-02T10:21:14Z</time></trkpt><trkpt lat="43.67344339175919" lon="12.046413034623507"><ele>510.5</ele><time>2026-05-02T10:21:15Z</time></trkpt><trkpt lat="43.67341422045598" lon="12.046500985717985"><ele>512.3333333333334</ele><time>2026-05-02T10:21:16Z</time></trkpt><trkpt lat="43.673361762225696" lon="12.046611913070066"><ele>514.1666666666666</ele><time>2026-05-02T10:21:18Z</time></trkpt><trkpt lat="43.673306328276226" lon="12.046668597740004"><ele>516.0</ele><time>2026-05-02T10:21:19Z</time></trkpt><trkpt lat="43.673233508108964" lon="12.046723668124432"><ele>518.6666666666666</ele><time>2026-05-02T10:21:20Z</time></trkpt><trkpt lat="43.67317651038593" lon="12.046816169282334"><ele>521.3333333333334</ele><time>2026-05-02T10:21:21Z</time></trkpt><trkpt lat="43.67313883046891" lon="12.046913094836695"><ele>524.0</ele><time>2026-05-02T10:21:22Z</time></trkpt><trkpt lat="43.67309315640246" lon="12.047007686053766"><ele>526.6666666666667</ele><time>2026-05-02T10:21:23Z</time></trkpt><trkpt lat="43.673049755049895" lon="12.047096125267434"><ele>529.3333333333334</ele><time>2026-05-02T10:21:24Z</time></trkpt><trkpt lat="43.67301160998732" lon="12.047174204507483"><ele>532.0</ele><time>2026-05-02T10:21:25Z</time></trkpt><trkpt lat="43.67297851739763" lon="12.047258443006433"><ele>532.0</ele><time>2026-05-02T10:21:26Z</time></trkpt><trkpt lat="43.672917019115125" lon="12.04739170350815"><ele>532.0</ele><time>2026-05-02T10:21:28Z</time></trkpt><trkpt lat="43.67289976826268" lon="12.047493682543868"><ele>532.0</ele><time>2026-05-02T10:21:30Z</time></trkpt><trkpt lat="43.67294555682095" lon="12.047618226659447"><ele>532.0</ele><time>2026-05-02T10:21:32Z</time></trkpt><trkpt lat="43.673038930606694" lon="12.047712758101286"><ele>532.0</ele><time>2026-05-02T10:21:34Z</time></trkpt><trkpt lat="43.67306649510418" lon="12.047792751153404"><ele>533.6666666666667</ele><time>2026-05-02T10:21:35Z</time></trkpt><trkpt lat="43.67309001490436" lon="12.04788587376961"><ele>535.3333333333334</ele><time>2026-05-02T10:21:36Z</time></trkpt><trkpt lat="43.673109009321216" lon="12.047990984634994"><ele>537.0</ele><time>2026-05-02T10:21:37Z</time></trkpt><trkpt lat="43.67312690000366" lon="12.048076664438902"><ele>538.6666666666666</ele><time>2026-05-02T10:21:38Z</time></trkpt><trkpt lat="43.67313636509045" lon="12.04821175909287"><ele>540.3333333333333</ele><time>2026-05-02T10:21:40Z</time></trkpt><trkpt lat="43.67311403050648" lon="12.048374919714004"><ele>542.0</ele><time>2026-05-02T10:21:42Z</time></trkpt><trkpt lat="43.67308591082906" lon="12.0484800774439"><ele>543.8000000000001</ele><time>2026-05-02T10:21:43Z</time></trkpt><trkpt lat="43.67303573763118" lon="12.04857072133332"><ele>545.6</ele><time>2026-05-02T10:21:44Z</time></trkpt><trkpt lat="43.67298161944376" lon="12.04862160282154"><ele>547.4000000000001</ele><time>2026-05-02T10:21:46Z</time></trkpt><trkpt lat="43.672873701079745" lon="12.04864469272164"><ele>549.2</ele><time>2026-05-02T10:21:48Z</time></trkpt><trkpt lat="43.67276707993004" lon="12.048712228291583"><ele>551.0</ele><time>2026-05-02T10:21:50Z</time></trkpt><trkpt lat="43.672682955835555" lon="12.048847371768028"><ele>553.1428571428571</ele><time>2026-05-02T10:21:52Z</time></trkpt><trkpt lat="43.67263814746702" lon="12.048912392410255"><ele>555.2857142857142</ele><time>2026-05-02T10:21:53Z</time></trkpt><trkpt lat="43.67258972180423" lon="12.048971211228503"><ele>557.4285714285714</ele><time>2026-05-02T10:21:54Z</time></trkpt><trkpt lat="43.6725344992201" lon="12.04902391336539"><ele>559.5714285714286</ele><time>2026-05-02T10:21:55Z</time></trkpt><trkpt lat="43.6724812841667" lon="12.049076800033268"><ele>561.7142857142858</ele><time>2026-05-02T10:21:56Z</time></trkpt><trkpt lat="43.67241995009789" lon="12.049131814930545"><ele>563.8571428571429</ele><time>2026-05-02T10:21:57Z</time></trkpt><trkpt lat="43.67235151098558" lon="12.049185002165023"><ele>566.0</ele><time>2026-05-02T10:21:58Z</time></trkpt><trkpt lat="43.67228895748457" lon="12.0492252522366"><ele>568.3333333333333</ele><time>2026-05-02T10:21:59Z</time></trkpt><trkpt lat="43.67220309952488" lon="12.049268545897855"><ele>570.6666666666666</ele><time>2026-05-02T10:22:01Z</time></trkpt><trkpt lat="43.67215488989142" lon="12.049325404555383"><ele>573.0</ele><time>2026-05-02T10:22:03Z</time></trkpt><trkpt lat="43.672103526522285" lon="12.049440441886901"><ele>575.3333333333334</ele><time>2026-05-02T10:22:05Z</time></trkpt><trkpt lat="43.67205056829764" lon="12.049525447876933"><ele>577.6666666666667</ele><time>2026-05-02T10:22:07Z</time></trkpt><trkpt lat="43.67198161635098" lon="12.049544959787456"><ele>580.0</ele><time>2026-05-02T10:22:09Z</time></trkpt><trkpt lat="43.67190148927186" lon="12.049607826689416"><ele>580.5</ele><time>2026-05-02T10:22:11Z</time></trkpt><trkpt lat="43.67184192601873" lon="12.049706303061065"><ele>581.0</ele><time>2026-05-02T10:22:13Z</time></trkpt><trkpt lat="43.67177229781482" lon="12.04976774158071"><ele>581.5</ele><time>2026-05-02T10:22:15Z</time></trkpt><trkpt lat="43.6716910172344" lon="12.049770586392212"><ele>582.0</ele><time>2026-05-02T10:22:17Z</time></trkpt><trkpt lat="43.67162328722486" lon="12.049788763241999"><ele>582.5</ele><time>2026-05-02T10:22:19Z</time></trkpt><trkpt lat="43.67164865146013" lon="12.049883008392504"><ele>583.0</ele><time>2026-05-02T10:22:24Z</time></trkpt><trkpt lat="43.671735349054245" lon="12.049881322844659"><ele>583.0</ele><time>2026-05-02T10:22:28Z</time></trkpt><trkpt lat="43.671809224646985" lon="12.049945606700707"><ele>583.0</ele><time>2026-05-02T10:22:30Z</time></trkpt><trkpt lat="43.67186212531554" lon="12.050057326202696"><ele>583.0</ele><time>2026-05-02T10:22:32Z</time></trkpt><trkpt lat="43.671962903526655" lon="12.050147850613223"><ele>583.0</ele><time>2026-05-02T10:22:34Z</time></trkpt><trkpt lat="43.67208153785829" lon="12.050197308163732"><ele>583.0</ele><time>2026-05-02T10:22:36Z</time></trkpt><trkpt lat="43.6721940659619" lon="12.050192458418113"><ele>585.0000000000001</ele><time>2026-05-02T10:22:38Z</time></trkpt><trkpt lat="43.672255866407255" lon="12.050162017402835"><ele>587.0</ele><time>2026-05-02T10:22:39Z</time></trkpt><trkpt lat="43.67231867968197" lon="12.050131448170372"><ele>589.0</ele><time>2026-05-02T10:22:40Z</time></trkpt><trkpt lat="43.67239037473547" lon="12.05013025383484"><ele>591.0</ele><time>2026-05-02T10:22:41Z</time></trkpt><trkpt lat="43.67246488449416" lon="12.050157556748802"><ele>593.0</ele><time>2026-05-02T10:22:42Z</time></trkpt><trkpt lat="43.67254600251444" lon="12.050189648617279"><ele>595.0000000000001</ele><time>2026-05-02T10:22:43Z</time></trkpt><trkpt lat="43.67262334544378" lon="12.050215143072785"><ele>597.0</ele><time>2026-05-02T10:22:44Z</time></trkpt><trkpt lat="43.672745259578775" lon="12.05022385359554"><ele>591.6</ele><time>2026-05-02T10:22:46Z</time></trkpt><trkpt lat="43.67282895989891" lon="12.050282551425031"><ele>586.2</ele><time>2026-05-02T10:22:48Z</time></trkpt><trkpt lat="43.67287406625479" lon="12.05036483943412"><ele>580.8</ele><time>2026-05-02T10:22:49Z</time></trkpt><trkpt lat="43.67291506427254" lon="12.050443040557743"><ele>575.4</ele><time>2026-05-02T10:22:50Z</time></trkpt><trkpt lat="43.67297000282373" lon="12.050621348508571"><ele>570.0</ele><time>2026-05-02T10:22:52Z</time></trkpt><trkpt lat="43.673009269897555" lon="12.05073559509001"><ele>573.6</ele><time>2026-05-02T10:22:53Z</time></trkpt><trkpt lat="43.67303563907798" lon="12.050832902879296"><ele>577.2</ele><time>2026-05-02T10:22:54Z</time></trkpt><trkpt lat="43.67310361009334" lon="12.050999473105469"><ele>580.8</ele><time>2026-05-02T10:22:56Z</time></trkpt><trkpt lat="43.67313203689482" lon="12.05110293787368"><ele>584.4</ele><time>2026-05-02T10:22:57Z</time></trkpt><trkpt lat="43.67315730192093" lon="12.051213355151074"><ele>588.0</ele><time>2026-05-02T10:22:58Z</time></trkpt><trkpt lat="43.67319156881931" lon="12.051318098860751"><ele>588.0</ele><time>2026-05-02T10:22:59Z</time></trkpt><trkpt lat="43.67323172626497" lon="12.051425016338769"><ele>588.0</ele><time>2026-05-02T10:23:00Z</time></trkpt><trkpt lat="43.67326253969583" lon="12.051522483597772"><ele>588.0</ele><time>2026-05-02T10:23:01Z</time></trkpt><trkpt lat="43.67329725040263" lon="12.051603072993636"><ele>588.0</ele><time>2026-05-02T10:23:02Z</time></trkpt><trkpt lat="43.67333189711766" lon="12.051704004426202"><ele>588.0</ele><time>2026-05-02T10:23:03Z</time></trkpt><trkpt lat="43.67336501380427" lon="12.05180091473989"><ele>588.0</ele><time>2026-05-02T10:23:04Z</time></trkpt><trkpt lat="43.67339437957547" lon="12.051891831706904"><ele>590.8333333333334</ele><time>2026-05-02T10:23:05Z</time></trkpt><trkpt lat="43.673411626374936" lon="12.051985624426804"><ele>593.6666666666666</ele><time>2026-05-02T10:23:06Z</time></trkpt><trkpt lat="43.67342275502526" lon="12.052096425474248"><ele>596.5</ele><time>2026-05-02T10:23:07Z</time></trkpt><trkpt lat="43.67341418289734" lon="12.052238527726747"><ele>599.3333333333333</ele><time>2026-05-02T10:23:08Z</time></trkpt><trkpt lat="43.67339830795845" lon="12.052371017805955"><ele>602.1666666666666</ele><time>2026-05-02T10:23:09Z</time></trkpt><trkpt lat="43.67341047732472" lon="12.052459769240073"><ele>605.0</ele><time>2026-05-02T10:23:10Z</time></trkpt><trkpt lat="43.673440828635286" lon="12.052547781135528"><ele>606.8333333333333</ele><time>2026-05-02T10:23:11Z</time></trkpt><trkpt lat="43.67349322826125" lon="12.052649545170159"><ele>608.6666666666666</ele><time>2026-05-02T10:23:12Z</time></trkpt><trkpt lat="43.67355900747781" lon="12.052737077695578"><ele>610.5</ele><time>2026-05-02T10:23:13Z</time></trkpt><trkpt lat="43.67362030167036" lon="12.052831820878813"><ele>612.3333333333334</ele><time>2026-05-02T10:23:14Z</time></trkpt><trkpt lat="43.673673148195384" lon="12.052932799955734"><ele>614.1666666666667</ele><time>2026-05-02T10:23:15Z</time></trkpt><trkpt lat="43.673706796676576" lon="12.053039661526517"><ele>616.0</ele><time>2026-05-02T10:23:16Z</time></trkpt><trkpt lat="43.67375801280858" lon="12.053120615989311"><ele>612.2</ele><time>2026-05-02T10:23:17Z</time></trkpt><trkpt lat="43.67380261642288" lon="12.053197317442214"><ele>608.4000000000001</ele><time>2026-05-02T10:23:18Z</time></trkpt><trkpt lat="43.6738971209055" lon="12.05332862511157"><ele>604.6</ele><time>2026-05-02T10:23:20Z</time></trkpt><trkpt lat="43.67395094910205" lon="12.053382316336089"><ele>600.8000000000001</ele><time>2026-05-02T10:23:21Z</time></trkpt><trkpt lat="43.67400984976694" lon="12.053425776873876"><ele>597.0</ele><time>2026-05-02T10:23:22Z</time></trkpt><trkpt lat="43.67407361184107" lon="12.053567539198536"><ele>597.0</ele><time>2026-05-02T10:23:24Z</time></trkpt><trkpt lat="43.67407200365612" lon="12.05368292721432"><ele>597.0</ele><time>2026-05-02T10:23:25Z</time></trkpt><trkpt lat="43.674061128665414" lon="12.053859433356365"><ele>597.0</ele><time>2026-05-02T10:23:27Z</time></trkpt><trkpt lat="43.67403546039557" lon="12.053960862699572"><ele>597.0</ele><time>2026-05-02T10:23:28Z</time></trkpt><trkpt lat="43.67403162540057" lon="12.054056475475294"><ele>597.0</ele><time>2026-05-02T10:23:29Z</time></trkpt><trkpt lat="43.674033955533886" lon="12.054174936309295"><ele>597.0</ele><time>2026-05-02T10:23:30Z</time></trkpt><trkpt lat="43.67406290103675" lon="12.054302578262512"><ele>599.2</ele><time>2026-05-02T10:23:31Z</time></trkpt><trkpt lat="43.67410279781207" lon="12.054426311443352"><ele>601.4000000000001</ele><time>2026-05-02T10:23:32Z</time></trkpt><trkpt lat="43.67410892284868" lon="12.054541800746614"><ele>603.5999999999999</ele><time>2026-05-02T10:23:33Z</time></trkpt><trkpt lat="43.674108985313204" lon="12.054659393091415"><ele>605.8</ele><time>2026-05-02T10:23:34Z</time></trkpt><trkpt lat="43.67409241807827" lon="12.05478174955386"><ele>608.0</ele><time>2026-05-02T10:23:35Z</time></trkpt><trkpt lat="43.67407350864299" lon="12.054925735277882"><ele>608.4</ele><time>2026-05-02T10:23:36Z</time></trkpt><trkpt lat="43.67403511737497" lon="12.055062518397706"><ele>608.8</ele><time>2026-05-02T10:23:37Z</time></trkpt><trkpt lat="43.673999231838266" lon="12.055171967696186"><ele>609.2</ele><time>2026-05-02T10:23:38Z</time></trkpt><trkpt lat="43.67397756467334" lon="12.055295190605282"><ele>609.6</ele><time>2026-05-02T10:23:39Z</time></trkpt><trkpt lat="43.67394352976567" lon="12.05542584448569"><ele>610.0</ele><time>2026-05-02T10:23:40Z</time></trkpt><trkpt lat="43.67394168884392" lon="12.055519170626761"><ele>610.0</ele><time>2026-05-02T10:23:41Z</time></trkpt><trkpt lat="43.67390487619079" lon="12.055637136793862"><ele>610.0</ele><time>2026-05-02T10:23:43Z</time></trkpt><trkpt lat="43.67398094046181" lon="12.055740046467163"><ele>610.0</ele><time>2026-05-02T10:23:45Z</time></trkpt><trkpt lat="43.674048547792935" lon="12.055810340809087"><ele>610.0</ele><time>2026-05-02T10:23:46Z</time></trkpt><trkpt lat="43.67408994809845" lon="12.055880891419864"><ele>610.0</ele><time>2026-05-02T10:23:47Z</time></trkpt><trkpt lat="43.6741423949099" lon="12.05597625870705"><ele>610.0</ele><time>2026-05-02T10:23:49Z</time></trkpt><trkpt lat="43.67422044981517" lon="12.056140676812994"><ele>610.2</ele><time>2026-05-02T10:23:51Z</time></trkpt><trkpt lat="43.67429968817117" lon="12.056226154323843"><ele>610.4</ele><time>2026-05-02T10:23:53Z</time></trkpt><trkpt lat="43.67434282415953" lon="12.05636174559365"><ele>610.6</ele><time>2026-05-02T10:23:55Z</time></trkpt><trkpt lat="43.674324141741764" lon="12.05647374160086"><ele>610.8</ele><time>2026-05-02T10:23:57Z</time></trkpt><trkpt lat="43.67425020404073" lon="12.056604966840794"><ele>611.0</ele><time>2026-05-02T10:23:59Z</time></trkpt><trkpt lat="43.67420633095716" lon="12.05666975216148"><ele>610.5</ele><time>2026-05-02T10:24:00Z</time></trkpt><trkpt lat="43.67416221181393" lon="12.056746380811418"><ele>610.0</ele><time>2026-05-02T10:24:01Z</time></trkpt><trkpt lat="43.67413537170449" lon="12.05683627509022"><ele>609.5</ele><time>2026-05-02T10:24:02Z</time></trkpt><trkpt lat="43.67408301723773" lon="12.056928205231344"><ele>609.0</ele><time>2026-05-02T10:24:03Z</time></trkpt><trkpt lat="43.67406968818632" lon="12.057036215448816"><ele>608.5</ele><time>2026-05-02T10:24:04Z</time></trkpt><trkpt lat="43.674047476622405" lon="12.057149603482108"><ele>608.0</ele><time>2026-05-02T10:24:05Z</time></trkpt><trkpt lat="43.67404147068628" lon="12.05723806129847"><ele>608.0</ele><time>2026-05-02T10:24:06Z</time></trkpt><trkpt lat="43.67402649427062" lon="12.057324712792372"><ele>608.0</ele><time>2026-05-02T10:24:07Z</time></trkpt><trkpt lat="43.67398699485251" lon="12.057472349483065"><ele>608.0</ele><time>2026-05-02T10:24:09Z</time></trkpt><trkpt lat="43.67394728840073" lon="12.057600994733962"><ele>608.0</ele><time>2026-05-02T10:24:11Z</time></trkpt><trkpt lat="43.67393389651158" lon="12.057704634730783"><ele>608.0</ele><time>2026-05-02T10:24:14Z</time></trkpt><trkpt lat="43.67399374617857" lon="12.057819526247945"><ele>607.3333333333333</ele><time>2026-05-02T10:24:17Z</time></trkpt><trkpt lat="43.67406222187445" lon="12.057881541071776"><ele>606.6666666666666</ele><time>2026-05-02T10:24:18Z</time></trkpt><trkpt lat="43.67411279747172" lon="12.057988235271377"><ele>606.0</ele><time>2026-05-02T10:24:19Z</time></trkpt><trkpt lat="43.67416707844441" lon="12.058051406595583"><ele>605.3333333333334</ele><time>2026-05-02T10:24:20Z</time></trkpt><trkpt lat="43.674230488686064" lon="12.05810518396213"><ele>604.6666666666667</ele><time>2026-05-02T10:24:21Z</time></trkpt><trkpt lat="43.674311749021165" lon="12.05818337181176"><ele>604.0</ele><time>2026-05-02T10:24:23Z</time></trkpt><trkpt lat="43.67435969756428" lon="12.058335788255999"><ele>604.0000000000001</ele><time>2026-05-02T10:24:25Z</time></trkpt><trkpt lat="43.674347624108115" lon="12.05842771810238"><ele>604.0</ele><time>2026-05-02T10:24:26Z</time></trkpt><trkpt lat="43.67430986634478" lon="12.058539035650956"><ele>604.0</ele><time>2026-05-02T10:24:27Z</time></trkpt><trkpt lat="43.67429410965096" lon="12.058632337589772"><ele>604.0</ele><time>2026-05-02T10:24:28Z</time></trkpt><trkpt lat="43.67426590875529" lon="12.058727952167022"><ele>604.0</ele><time>2026-05-02T10:24:29Z</time></trkpt><trkpt lat="43.67426960417351" lon="12.058823038704835"><ele>604.0000000000001</ele><time>2026-05-02T10:24:30Z</time></trkpt><trkpt lat="43.67428580346423" lon="12.05891992729912"><ele>604.0</ele><time>2026-05-02T10:24:31Z</time></trkpt><trkpt lat="43.67435429932982" lon="12.059092620492233"><ele>605.5</ele><time>2026-05-02T10:24:33Z</time></trkpt><trkpt lat="43.67438112204883" lon="12.059200394493182"><ele>607.0</ele><time>2026-05-02T10:24:34Z</time></trkpt><trkpt lat="43.67439265281747" lon="12.059292675592133"><ele>608.5</ele><time>2026-05-02T10:24:35Z</time></trkpt><trkpt lat="43.6743570288733" lon="12.059418371809036"><ele>610.0</ele><time>2026-05-02T10:24:37Z</time></trkpt><trkpt lat="43.674293849512786" lon="12.059508545462736"><ele>611.5</ele><time>2026-05-02T10:24:39Z</time></trkpt><trkpt lat="43.67424655295463" lon="12.059618774504504"><ele>613.0</ele><time>2026-05-02T10:24:42Z</time></trkpt><trkpt lat="43.67420617296352" lon="12.05977684553745"><ele>613.0</ele><time>2026-05-02T10:24:44Z</time></trkpt><trkpt lat="43.67421456019814" lon="12.059902000561662"><ele>613.0</ele><time>2026-05-02T10:24:46Z</time></trkpt><trkpt lat="43.67427249423143" lon="12.059968185957851"><ele>613.0</ele><time>2026-05-02T10:24:49Z</time></trkpt><trkpt lat="43.6743351612944" lon="12.059946367480917"><ele>613.0</ele><time>2026-05-02T10:24:51Z</time></trkpt><trkpt lat="43.674388678034504" lon="12.059876480563927"><ele>613.0</ele><time>2026-05-02T10:24:52Z</time></trkpt><trkpt lat="43.674506915173346" lon="12.05980291504672"><ele>613.0</ele><time>2026-05-02T10:24:54Z</time></trkpt><trkpt lat="43.67459789957442" lon="12.059806818427587"><ele>613.5714285714286</ele><time>2026-05-02T10:24:55Z</time></trkpt><trkpt lat="43.67467416649733" lon="12.05979664761884"><ele>614.1428571428571</ele><time>2026-05-02T10:24:56Z</time></trkpt><trkpt lat="43.67473472000823" lon="12.059767944801921"><ele>614.7142857142858</ele><time>2026-05-02T10:24:57Z</time></trkpt><trkpt lat="43.67480470985551" lon="12.059746977980463"><ele>615.2857142857142</ele><time>2026-05-02T10:24:58Z</time></trkpt><trkpt lat="43.67489165290485" lon="12.059799288858072"><ele>615.8571428571428</ele><time>2026-05-02T10:25:00Z</time></trkpt><trkpt lat="43.67491185249997" lon="12.059891535044505"><ele>616.4285714285714</ele><time>2026-05-02T10:25:01Z</time></trkpt><trkpt lat="43.67491193891448" lon="12.059991063056405"><ele>617.0</ele><time>2026-05-02T10:25:02Z</time></trkpt><trkpt lat="43.674906173822336" lon="12.06008947764386"><ele>617.0</ele><time>2026-05-02T10:25:03Z</time></trkpt><trkpt lat="43.674907653228956" lon="12.060189208393217"><ele>617.0</ele><time>2026-05-02T10:25:04Z</time></trkpt><trkpt lat="43.67491961593785" lon="12.060295040821053"><ele>617.0</ele><time>2026-05-02T10:25:05Z</time></trkpt><trkpt lat="43.6749338814303" lon="12.060406652068158"><ele>617.0</ele><time>2026-05-02T10:25:06Z</time></trkpt><trkpt lat="43.674955336006605" lon="12.060538715213179"><ele>617.0</ele><time>2026-05-02T10:25:07Z</time></trkpt><trkpt lat="43.67496237033865" lon="12.060647070661119"><ele>617.0</ele><time>2026-05-02T10:25:08Z</time></trkpt><trkpt lat="43.674976614061215" lon="12.060734790726428"><ele>618.0</ele><time>2026-05-02T10:25:09Z</time></trkpt><trkpt lat="43.67499388351723" lon="12.060822102258452"><ele>619.0</ele><time>2026-05-02T10:25:10Z</time></trkpt><trkpt lat="43.67503139170525" lon="12.060926913408718"><ele>620.0</ele><time>2026-05-02T10:25:11Z</time></trkpt><trkpt lat="43.67505156457365" lon="12.061039295581843"><ele>621.0</ele><time>2026-05-02T10:25:12Z</time></trkpt><trkpt lat="43.67505749819944" lon="12.061126180587877"><ele>622.0</ele><time>2026-05-02T10:25:13Z</time></trkpt><trkpt lat="43.6750015051789" lon="12.061259648234698"><ele>623.0</ele><time>2026-05-02T10:25:15Z</time></trkpt><trkpt lat="43.67496197118184" lon="12.061345906913061"><ele>623.0</ele><time>2026-05-02T10:25:16Z</time></trkpt><trkpt lat="43.67495050020828" lon="12.061458510877797"><ele>623.0</ele><time>2026-05-02T10:25:17Z</time></trkpt><trkpt lat="43.67494191785393" lon="12.061578186915314"><ele>623.0</ele><time>2026-05-02T10:25:18Z</time></trkpt><trkpt lat="43.674915750499586" lon="12.061682479429082"><ele>623.0</ele><time>2026-05-02T10:25:19Z</time></trkpt><trkpt lat="43.67487424538629" lon="12.06181041996927"><ele>623.0</ele><time>2026-05-02T10:25:20Z</time></trkpt><trkpt lat="43.67484006092895" lon="12.061922779655067"><ele>623.0</ele><time>2026-05-02T10:25:21Z</time></trkpt><trkpt lat="43.67480538831914" lon="12.062007973001807"><ele>623.1666666666666</ele><time>2026-05-02T10:25:22Z</time></trkpt><trkpt lat="43.67477894305527" lon="12.06211702949911"><ele>623.3333333333333</ele><time>2026-05-02T10:25:23Z</time></trkpt><trkpt lat="43.674749169160066" lon="12.062232436027358"><ele>623.5</ele><time>2026-05-02T10:25:24Z</time></trkpt><trkpt lat="43.67472569254617" lon="12.062344566920414"><ele>623.6666666666666</ele><time>2026-05-02T10:25:25Z</time></trkpt><trkpt lat="43.67470323280792" lon="12.062450792280844"><ele>623.8333333333334</ele><time>2026-05-02T10:25:26Z</time></trkpt><trkpt lat="43.67468982766203" lon="12.062559840508657"><ele>624.0</ele><time>2026-05-02T10:25:27Z</time></trkpt><trkpt lat="43.67468748366403" lon="12.06267451574249"><ele>624.1666666666666</ele><time>2026-05-02T10:25:28Z</time></trkpt><trkpt lat="43.67464084244151" lon="12.0628030538841"><ele>624.3333333333334</ele><time>2026-05-02T10:25:30Z</time></trkpt><trkpt lat="43.67458890428689" lon="12.062872472126763"><ele>624.5</ele><time>2026-05-02T10:25:31Z</time></trkpt><trkpt lat="43.67455706119855" lon="12.062958031750883"><ele>624.6666666666667</ele><time>2026-05-02T10:25:32Z</time></trkpt><trkpt lat="43.674531897919195" lon="12.063129637363298"><ele>624.8333333333334</ele><time>2026-05-02T10:25:34Z</time></trkpt><trkpt lat="43.674526416976114" lon="12.063224324753357"><ele>625.0</ele><time>2026-05-02T10:25:35Z</time></trkpt><trkpt lat="43.67452177317916" lon="12.063342534713325"><ele>626.2</ele><time>2026-05-02T10:25:37Z</time></trkpt><trkpt lat="43.67449716749517" lon="12.063497823390222"><ele>627.4</ele><time>2026-05-02T10:25:39Z</time></trkpt><trkpt lat="43.67447200075117" lon="12.06357796534781"><ele>628.6</ele><time>2026-05-02T10:25:40Z</time></trkpt><trkpt lat="43.674482099617514" lon="12.063729950606104"><ele>629.8</ele><time>2026-05-02T10:25:42Z</time></trkpt><trkpt lat="43.67444482607123" lon="12.063882013391403"><ele>631.0</ele><time>2026-05-02T10:25:44Z</time></trkpt><trkpt lat="43.674391750299314" lon="12.063978171987177"><ele>634.3333333333334</ele><time>2026-05-02T10:25:45Z</time></trkpt><trkpt lat="43.674347426477425" lon="12.064092904752892"><ele>637.6666666666667</ele><time>2026-05-02T10:25:46Z</time></trkpt><trkpt lat="43.67431350411368" lon="12.064179775108217"><ele>641.0</ele><time>2026-05-02T10:25:47Z</time></trkpt><trkpt lat="43.6742839087301" lon="12.064316010244983"><ele>644.3333333333334</ele><time>2026-05-02T10:25:49Z</time></trkpt><trkpt lat="43.67427475330672" lon="12.06440483680576"><ele>647.6666666666666</ele><time>2026-05-02T10:25:50Z</time></trkpt><trkpt lat="43.67429145239336" lon="12.064508037018918"><ele>651.0</ele><time>2026-05-02T10:25:51Z</time></trkpt><trkpt lat="43.67429929496605" lon="12.06460015341238"><ele>651.0</ele><time>2026-05-02T10:25:52Z</time></trkpt><trkpt lat="43.6742541004098" lon="12.064716710387161"><ele>651.0</ele><time>2026-05-02T10:25:54Z</time></trkpt><trkpt lat="43.67419918242171" lon="12.064800861532238"><ele>651.0</ele><time>2026-05-02T10:25:56Z</time></trkpt><trkpt lat="43.67422195819131" lon="12.064888005461983"><ele>651.0</ele><time>2026-05-02T10:25:57Z</time></trkpt><trkpt lat="43.67422295927232" lon="12.064995987547622"><ele>651.0</ele><time>2026-05-02T10:25:58Z</time></trkpt><trkpt lat="43.67425772442179" lon="12.065087255372484"><ele>651.0</ele><time>2026-05-02T10:26:00Z</time></trkpt><trkpt lat="43.674304131721456" lon="12.065213599302155"><ele>650.8333333333334</ele><time>2026-05-02T10:26:02Z</time></trkpt><trkpt lat="43.67433387561975" lon="12.06529113595752"><ele>650.6666666666666</ele><time>2026-05-02T10:26:03Z</time></trkpt><trkpt lat="43.67437145403438" lon="12.065370565174256"><ele>650.5</ele><time>2026-05-02T10:26:04Z</time></trkpt><trkpt lat="43.67439966038177" lon="12.065463624663677"><ele>650.3333333333333</ele><time>2026-05-02T10:26:05Z</time></trkpt><trkpt lat="43.67442806778343" lon="12.065570090715303"><ele>650.1666666666666</ele><time>2026-05-02T10:26:06Z</time></trkpt><trkpt lat="43.67449569913348" lon="12.065646110473342"><ele>650.0</ele><time>2026-05-02T10:26:07Z</time></trkpt><trkpt lat="43.674574900866226" lon="12.065722447868641"><ele>647.6</ele><time>2026-05-02T10:26:08Z</time></trkpt><trkpt lat="43.67463902344707" lon="12.06578098712407"><ele>645.2</ele><time>2026-05-02T10:26:09Z</time></trkpt><trkpt lat="43.67473091654744" lon="12.065912184161192"><ele>642.8</ele><time>2026-05-02T10:26:11Z</time></trkpt><trkpt lat="43.67479386407383" lon="12.065979019730769"><ele>640.4</ele><time>2026-05-02T10:26:12Z</time></trkpt><trkpt lat="43.67490410374388" lon="12.066006210155537"><ele>638.0</ele><time>2026-05-02T10:26:14Z</time></trkpt><trkpt lat="43.67508357832999" lon="12.066048435122186"><ele>638.0</ele><time>2026-05-02T10:26:18Z</time></trkpt><trkpt lat="43.675142580028606" lon="12.066103987581167"><ele>638.0</ele><time>2026-05-02T10:26:19Z</time></trkpt><trkpt lat="43.675207841817475" lon="12.066208580244068"><ele>638.0</ele><time>2026-05-02T10:26:20Z</time></trkpt><trkpt lat="43.67524255391741" lon="12.06635339754548"><ele>638.0</ele><time>2026-05-02T10:26:21Z</time></trkpt><trkpt lat="43.67527502365149" lon="12.066465850306804"><ele>638.0</ele><time>2026-05-02T10:26:22Z</time></trkpt><trkpt lat="43.6752843821783" lon="12.066603943052035"><ele>638.6666666666666</ele><time>2026-05-02T10:26:24Z</time></trkpt><trkpt lat="43.67528671603823" lon="12.066691555131785"><ele>639.3333333333333</ele><time>2026-05-02T10:26:25Z</time></trkpt><trkpt lat="43.67527728551516" lon="12.066824431282049"><ele>640.0</ele><time>2026-05-02T10:26:26Z</time></trkpt><trkpt lat="43.67527426629997" lon="12.06696464417966"><ele>640.6666666666666</ele><time>2026-05-02T10:26:27Z</time></trkpt><trkpt lat="43.67528147141641" lon="12.06707062597821"><ele>641.3333333333334</ele><time>2026-05-02T10:26:28Z</time></trkpt><trkpt lat="43.67530409248108" lon="12.067175923082806"><ele>642.0</ele><time>2026-05-02T10:26:29Z</time></trkpt><trkpt lat="43.67535940837734" lon="12.06726354396341"><ele>642.0</ele><time>2026-05-02T10:26:30Z</time></trkpt><trkpt lat="43.67543471587269" lon="12.067350521673385"><ele>642.0</ele><time>2026-05-02T10:26:31Z</time></trkpt><trkpt lat="43.67551171452207" lon="12.067430591141514"><ele>642.0</ele><time>2026-05-02T10:26:32Z</time></trkpt><trkpt lat="43.67558787211459" lon="12.067480099190146"><ele>642.0</ele><time>2026-05-02T10:26:33Z</time></trkpt><trkpt lat="43.675668864767246" lon="12.067522395783437"><ele>642.0</ele><time>2026-05-02T10:26:34Z</time></trkpt><trkpt lat="43.67573892848219" lon="12.06758540927476"><ele>642.0</ele><time>2026-05-02T10:26:35Z</time></trkpt><trkpt lat="43.6757931629406" lon="12.067663809530748"><ele>642.0</ele><time>2026-05-02T10:26:36Z</time></trkpt><trkpt lat="43.67583839330314" lon="12.067743275748784"><ele>642.0</ele><time>2026-05-02T10:26:37Z</time></trkpt><trkpt lat="43.6758813353528" lon="12.067813760752763"><ele>642.0</ele><time>2026-05-02T10:26:38Z</time></trkpt><trkpt lat="43.67595131110061" lon="12.067935520961658"><ele>642.0</ele><time>2026-05-02T10:26:40Z</time></trkpt><trkpt lat="43.675996483211414" lon="12.0680006522554"><ele>642.0</ele><time>2026-05-02T10:26:41Z</time></trkpt><trkpt lat="43.676054336059316" lon="12.068061977996114"><ele>642.0</ele><time>2026-05-02T10:26:42Z</time></trkpt><trkpt lat="43.67615724350417" lon="12.06813257637709"><ele>642.0</ele><time>2026-05-02T10:26:44Z</time></trkpt><trkpt lat="43.676216499876325" lon="12.06817995175865"><ele>642.0</ele><time>2026-05-02T10:26:45Z</time></trkpt><trkpt lat="43.67630403986846" lon="12.068216424881108"><ele>642.0</ele><time>2026-05-02T10:26:46Z</time></trkpt><trkpt lat="43.67638850222418" lon="12.06825093219028"><ele>642.0</ele><time>2026-05-02T10:26:47Z</time></trkpt><trkpt lat="43.67644746125263" lon="12.068294666113307"><ele>642.0</ele><time>2026-05-02T10:26:48Z</time></trkpt><trkpt lat="43.67652755677206" lon="12.068421175398209"><ele>642.0</ele><time>2026-05-02T10:26:50Z</time></trkpt><trkpt lat="43.67657134659541" lon="12.068500461758392"><ele>642.1666666666666</ele><time>2026-05-02T10:26:51Z</time></trkpt><trkpt lat="43.676596145570464" lon="12.068646296203752"><ele>642.3333333333334</ele><time>2026-05-02T10:26:53Z</time></trkpt><trkpt lat="43.67659986361015" lon="12.068742000200258"><ele>642.5</ele><time>2026-05-02T10:26:54Z</time></trkpt><trkpt lat="43.67658789195337" lon="12.068836990558388"><ele>642.6666666666667</ele><time>2026-05-02T10:26:55Z</time></trkpt><trkpt lat="43.67656573756038" lon="12.06892449931581"><ele>642.8333333333334</ele><time>2026-05-02T10:26:56Z</time></trkpt><trkpt lat="43.6765367546052" lon="12.069010800958369"><ele>643.0</ele><time>2026-05-02T10:26:57Z</time></trkpt><trkpt lat="43.676504529918574" lon="12.069154889219519"><ele>642.5</ele><time>2026-05-02T10:26:59Z</time></trkpt><trkpt lat="43.6764702083434" lon="12.069258036392988"><ele>642.0</ele><time>2026-05-02T10:27:02Z</time></trkpt><trkpt lat="43.67642167197883" lon="12.069327390622531"><ele>641.5</ele><time>2026-05-02T10:27:04Z</time></trkpt><trkpt lat="43.67631534307655" lon="12.06930820804462"><ele>641.0</ele><time>2026-05-02T10:27:06Z</time></trkpt><trkpt lat="43.67624653136058" lon="12.06929180488928"><ele>640.5</ele><time>2026-05-02T10:27:07Z</time></trkpt><trkpt lat="43.67617182037792" lon="12.069283052875893"><ele>640.0</ele><time>2026-05-02T10:27:09Z</time></trkpt><trkpt lat="43.676097358522654" lon="12.069276934745348"><ele>641.4</ele><time>2026-05-02T10:27:11Z</time></trkpt><trkpt lat="43.67603288800355" lon="12.069305959066215"><ele>642.8</ele><time>2026-05-02T10:27:13Z</time></trkpt><trkpt lat="43.675970300423366" lon="12.069438158838164"><ele>644.2</ele><time>2026-05-02T10:27:15Z</time></trkpt><trkpt lat="43.67593285684964" lon="12.069522987674599"><ele>645.6</ele><time>2026-05-02T10:27:16Z</time></trkpt><trkpt lat="43.6758735172109" lon="12.06967467345947"><ele>647.0</ele><time>2026-05-02T10:27:18Z</time></trkpt><trkpt lat="43.67580925653918" lon="12.069827547003124"><ele>647.0</ele><time>2026-05-02T10:27:20Z</time></trkpt><trkpt lat="43.675753029542214" lon="12.069913513335829"><ele>647.0</ele><time>2026-05-02T10:27:21Z</time></trkpt><trkpt lat="43.675702789252696" lon="12.070017314530396"><ele>647.0</ele><time>2026-05-02T10:27:22Z</time></trkpt><trkpt lat="43.67564856944491" lon="12.070096012303559"><ele>647.0</ele><time>2026-05-02T10:27:23Z</time></trkpt><trkpt lat="43.6755886450446" lon="12.070149676327727"><ele>647.0</ele><time>2026-05-02T10:27:24Z</time></trkpt><trkpt lat="43.67550880406256" lon="12.070179562126972"><ele>647.0</ele><time>2026-05-02T10:27:25Z</time></trkpt><trkpt lat="43.675429775994246" lon="12.070193702972979"><ele>647.6</ele><time>2026-05-02T10:27:26Z</time></trkpt><trkpt lat="43.67532324149398" lon="12.070224466787577"><ele>648.2</ele><time>2026-05-02T10:27:28Z</time></trkpt><trkpt lat="43.6752520544487" lon="12.070334931901172"><ele>648.8</ele><time>2026-05-02T10:27:31Z</time></trkpt><trkpt lat="43.67523537105649" lon="12.070488320528609"><ele>649.4</ele><time>2026-05-02T10:27:33Z</time></trkpt><trkpt lat="43.67521801954807" lon="12.070620111686624"><ele>650.0</ele><time>2026-05-02T10:27:35Z</time></trkpt><trkpt lat="43.67517677574053" lon="12.070687597608385"><ele>650.0</ele><time>2026-05-02T10:27:37Z</time></trkpt><trkpt lat="43.67507077436662" lon="12.070707398614802"><ele>650.0</ele><time>2026-05-02T10:27:39Z</time></trkpt><trkpt lat="43.675004976792" lon="12.070700243635052"><ele>650.0</ele><time>2026-05-02T10:27:40Z</time></trkpt><trkpt lat="43.67491857986357" lon="12.070686655708394"><ele>650.0</ele><time>2026-05-02T10:27:42Z</time></trkpt><trkpt lat="43.67483700312475" lon="12.070686033261847"><ele>650.0</ele><time>2026-05-02T10:27:45Z</time></trkpt><trkpt lat="43.67477691362254" lon="12.070734568016112"><ele>650.0</ele><time>2026-05-02T10:27:47Z</time></trkpt><trkpt lat="43.674703048380074" lon="12.07079955780514"><ele>650.0</ele><time>2026-05-02T10:27:49Z</time></trkpt><trkpt lat="43.67461566047427" lon="12.07075858005676"><ele>650.0</ele><time>2026-05-02T10:27:52Z</time></trkpt><trkpt lat="43.67458523152381" lon="12.070636480295278"><ele>650.0</ele><time>2026-05-02T10:27:54Z</time></trkpt><trkpt lat="43.674519321244304" lon="12.07051670257755"><ele>650.0</ele><time>2026-05-02T10:27:56Z</time></trkpt><trkpt lat="43.674430248000256" lon="12.070426312431112"><ele>650.0</ele><time>2026-05-02T10:27:58Z</time></trkpt><trkpt lat="43.674364998250766" lon="12.070388158445285"><ele>652.8333333333333</ele><time>2026-05-02T10:28:01Z</time></trkpt><trkpt lat="43.6742447218491" lon="12.070410146062827"><ele>655.6666666666666</ele><time>2026-05-02T10:28:04Z</time></trkpt><trkpt lat="43.67415958546406" lon="12.070412033719977"><ele>658.5</ele><time>2026-05-02T10:28:05Z</time></trkpt><trkpt lat="43.67407620898536" lon="12.070466126029372"><ele>661.3333333333334</ele><time>2026-05-02T10:28:07Z</time></trkpt><trkpt lat="43.67401896226198" lon="12.070520419038957"><ele>664.1666666666667</ele><time>2026-05-02T10:28:09Z</time></trkpt><trkpt lat="43.67396351472789" lon="12.070596899084913"><ele>667.0</ele><time>2026-05-02T10:28:11Z</time></trkpt><trkpt lat="43.67395102972637" lon="12.070708316676402"><ele>667.8</ele><time>2026-05-02T10:28:42Z</time></trkpt><trkpt lat="43.673898212124435" lon="12.070863012075469"><ele>668.6</ele><time>2026-05-02T10:28:44Z</time></trkpt><trkpt lat="43.67383675817014" lon="12.07099424812765"><ele>669.4</ele><time>2026-05-02T10:28:46Z</time></trkpt><trkpt lat="43.67378417125273" lon="12.071095617478994"><ele>670.1999999999999</ele><time>2026-05-02T10:28:48Z</time></trkpt><trkpt lat="43.673748921231606" lon="12.071170332309446"><ele>671.0</ele><time>2026-05-02T10:28:49Z</time></trkpt><trkpt lat="43.67371760494427" lon="12.071271693219309"><ele>671.0</ele><time>2026-05-02T10:28:50Z</time></trkpt><trkpt lat="43.673698519344086" lon="12.071370916933853"><ele>671.0</ele><time>2026-05-02T10:28:51Z</time></trkpt><trkpt lat="43.67367683998121" lon="12.071470711707379"><ele>671.0</ele><time>2026-05-02T10:28:52Z</time></trkpt><trkpt lat="43.673650108751374" lon="12.071557022298641"><ele>671.0</ele><time>2026-05-02T10:28:53Z</time></trkpt><trkpt lat="43.673543104913726" lon="12.071721294321426"><ele>671.0</ele><time>2026-05-02T10:28:55Z</time></trkpt><trkpt lat="43.67350103699869" lon="12.071811492342398"><ele>676.1999999999999</ele><time>2026-05-02T10:28:56Z</time></trkpt><trkpt lat="43.67346184009079" lon="12.071911088576169"><ele>681.4</ele><time>2026-05-02T10:28:57Z</time></trkpt><trkpt lat="43.67340781329997" lon="12.072012127875263"><ele>686.6</ele><time>2026-05-02T10:28:58Z</time></trkpt><trkpt lat="43.67337130546175" lon="12.072195889901359"><ele>691.8</ele><time>2026-05-02T10:29:00Z</time></trkpt><trkpt lat="43.67336240751314" lon="12.072351184857789"><ele>697.0</ele><time>2026-05-02T10:29:02Z</time></trkpt><trkpt lat="43.673350231763784" lon="12.07244258988324"><ele>699.2</ele><time>2026-05-02T10:29:03Z</time></trkpt><trkpt lat="43.673347892848675" lon="12.072569824087447"><ele>701.4000000000001</ele><time>2026-05-02T10:29:05Z</time></trkpt><trkpt lat="43.67339031902243" lon="12.072679091866046"><ele>703.5999999999999</ele><time>2026-05-02T10:29:07Z</time></trkpt><trkpt lat="43.67339958526441" lon="12.072845858894786"><ele>705.8</ele><time>2026-05-02T10:29:09Z</time></trkpt><trkpt lat="43.67340197470467" lon="12.0729919057033"><ele>708.0</ele><time>2026-05-02T10:29:11Z</time></trkpt><trkpt lat="43.67341865879477" lon="12.073096108273644"><ele>708.0</ele><time>2026-05-02T10:29:13Z</time></trkpt><trkpt lat="43.67342314170628" lon="12.073233231152392"><ele>708.0</ele><time>2026-05-02T10:29:15Z</time></trkpt><trkpt lat="43.673403478387634" lon="12.073316192593051"><ele>708.0</ele><time>2026-05-02T10:29:19Z</time></trkpt><trkpt lat="43.67336204232013" lon="12.073381804606482"><ele>708.0</ele><time>2026-05-02T10:29:47Z</time></trkpt><trkpt lat="43.67334833062503" lon="12.073488976234023"><ele>708.0</ele><time>2026-05-02T10:29:51Z</time></trkpt><trkpt lat="43.673382692287554" lon="12.073573671969502"><ele>708.0</ele><time>2026-05-02T10:29:53Z</time></trkpt><trkpt lat="43.67343799498709" lon="12.073673230040997"><ele>710.0</ele><time>2026-05-02T10:29:55Z</time></trkpt><trkpt lat="43.6734642595165" lon="12.073794700536215"><ele>712.0</ele><time>2026-05-02T10:29:57Z</time></trkpt><trkpt lat="43.67347552036596" lon="12.073926093603157"><ele>714.0</ele><time>2026-05-02T10:29:59Z</time></trkpt><trkpt lat="43.67349454761773" lon="12.074058203764238"><ele>716.0</ele><time>2026-05-02T10:30:01Z</time></trkpt><trkpt lat="43.6734994936572" lon="12.07419465790492"><ele>718.0</ele><time>2026-05-02T10:30:03Z</time></trkpt><trkpt lat="43.67350904869762" lon="12.074287515047914"><ele>718.8333333333334</ele><time>2026-05-02T10:30:04Z</time></trkpt><trkpt lat="43.673514547168296" lon="12.074414182647532"><ele>719.6666666666667</ele><time>2026-05-02T10:30:06Z</time></trkpt><trkpt lat="43.67351901521838" lon="12.074541215819414"><ele>720.5</ele><time>2026-05-02T10:30:08Z</time></trkpt><trkpt lat="43.6735028787709" lon="12.074653154587864"><ele>721.3333333333334</ele><time>2026-05-02T10:30:10Z</time></trkpt><trkpt lat="43.67346970489887" lon="12.074759826415688"><ele>722.1666666666666</ele><time>2026-05-02T10:30:12Z</time></trkpt><trkpt lat="43.67346546568484" lon="12.074866111643509"><ele>723.0</ele><time>2026-05-02T10:30:14Z</time></trkpt><trkpt lat="43.67355178659364" lon="12.074994213211244"><ele>717.4</ele><time>2026-05-02T10:30:16Z</time></trkpt><trkpt lat="43.67360610165152" lon="12.075083619662932"><ele>711.8</ele><time>2026-05-02T10:30:17Z</time></trkpt><trkpt lat="43.67365153263714" lon="12.075224029535706"><ele>706.2</ele><time>2026-05-02T10:30:19Z</time></trkpt><trkpt lat="43.67368528527255" lon="12.07536442992804"><ele>700.6</ele><time>2026-05-02T10:30:21Z</time></trkpt><trkpt lat="43.67368300180875" lon="12.075520722331"><ele>695.0</ele><time>2026-05-02T10:30:23Z</time></trkpt><trkpt lat="43.673686450227855" lon="12.075656666642361"><ele>695.0</ele><time>2026-05-02T10:30:25Z</time></trkpt><trkpt lat="43.673705868440635" lon="12.075766582925617"><ele>695.0</ele><time>2026-05-02T10:30:27Z</time></trkpt><trkpt lat="43.67369746002465" lon="12.075890466894124"><ele>695.0</ele><time>2026-05-02T10:30:29Z</time></trkpt><trkpt lat="43.67367642995158" lon="12.075975626033452"><ele>695.0</ele><time>2026-05-02T10:30:31Z</time></trkpt><trkpt lat="43.67364254289932" lon="12.076095107227054"><ele>695.0</ele><time>2026-05-02T10:30:34Z</time></trkpt><trkpt lat="43.67359561699859" lon="12.076209708069323"><ele>695.0</ele><time>2026-05-02T10:30:37Z</time></trkpt><trkpt lat="43.673555326149724" lon="12.076321979051482"><ele>699.8</ele><time>2026-05-02T10:30:39Z</time></trkpt><trkpt lat="43.67354597388251" lon="12.076412305082021"><ele>704.6</ele><time>2026-05-02T10:30:41Z</time></trkpt><trkpt lat="43.67353515003096" lon="12.076552026115726"><ele>709.4000000000001</ele><time>2026-05-02T10:30:43Z</time></trkpt><trkpt lat="43.67350560419931" lon="12.07669390621259"><ele>714.2</ele><time>2026-05-02T10:30:45Z</time></trkpt><trkpt lat="43.67347721311838" lon="12.076814172685326"><ele>719.0</ele><time>2026-05-02T10:30:47Z</time></trkpt><trkpt lat="43.673452052941435" lon="12.076935182647448"><ele>719.0</ele><time>2026-05-02T10:30:49Z</time></trkpt><trkpt lat="43.67340312337346" lon="12.077039518301516"><ele>719.0</ele><time>2026-05-02T10:30:51Z</time></trkpt><trkpt lat="43.673414909611864" lon="12.077147049783598"><ele>719.0</ele><time>2026-05-02T10:30:53Z</time></trkpt><trkpt lat="43.6734427059492" lon="12.077271771936676"><ele>719.0</ele><time>2026-05-02T10:30:55Z</time></trkpt><trkpt lat="43.673418651457496" lon="12.07738809619051"><ele>719.0</ele><time>2026-05-02T10:30:57Z</time></trkpt><trkpt lat="43.673388894666346" lon="12.07750874879407"><ele>719.0</ele><time>2026-05-02T10:30:59Z</time></trkpt><trkpt lat="43.67338969781182" lon="12.077622092834053"><ele>718.5714285714286</ele><time>2026-05-02T10:34:32Z</time></trkpt><trkpt lat="43.673346364546795" lon="12.077703329344619"><ele>718.1428571428571</ele><time>2026-05-02T10:34:39Z</time></trkpt><trkpt lat="43.673360609961385" lon="12.077798221686928"><ele>717.7142857142858</ele><time>2026-05-02T10:36:08Z</time></trkpt><trkpt lat="43.673367353145196" lon="12.077905686386023"><ele>717.2857142857142</ele><time>2026-05-02T10:36:15Z</time></trkpt><trkpt lat="43.67337661432823" lon="12.077993598953565"><ele>716.8571428571429</ele><time>2026-05-02T10:36:22Z</time></trkpt><trkpt lat="43.67338140416564" lon="12.07790548161468"><ele>716.4285714285714</ele><time>2026-05-02T10:36:56Z</time></trkpt><trkpt lat="43.67336976199692" lon="12.077992200850783"><ele>716.0</ele><time>2026-05-02T10:37:36Z</time></trkpt><trkpt lat="43.673362509048744" lon="12.078094931527701"><ele>716.0000000000001</ele><time>2026-05-02T10:38:08Z</time></trkpt><trkpt lat="43.67336397283809" lon="12.07818973842695"><ele>716.0</ele><time>2026-05-02T10:38:21Z</time></trkpt><trkpt lat="43.67339172065294" lon="12.078105998250779"><ele>716.0</ele><time>2026-05-02T10:38:45Z</time></trkpt><trkpt lat="43.67339401947678" lon="12.078013571678648"><ele>716.0</ele><time>2026-05-02T10:38:51Z</time></trkpt><trkpt lat="43.67338282827013" lon="12.077914967121336"><ele>716.0</ele><time>2026-05-02T10:38:58Z</time></trkpt><trkpt lat="43.67336181527089" lon="12.07781861024787"><ele>716.0000000000001</ele><time>2026-05-02T10:40:09Z</time></trkpt><trkpt lat="43.67332879880118" lon="12.07774047502051"><ele>716.0</ele><time>2026-05-02T10:40:58Z</time></trkpt><trkpt lat="43.67335773756139" lon="12.077821302219409"><ele>716.0000000000001</ele><time>2026-05-02T10:46:27Z</time></trkpt><trkpt lat="43.67337143286541" lon="12.077915416086073"><ele>716.0</ele><time>2026-05-02T10:48:51Z</time></trkpt><trkpt lat="43.67337646371874" lon="12.078011928849792"><ele>716.0</ele><time>2026-05-02T10:48:59Z</time></trkpt><trkpt lat="43.67338256230601" lon="12.078098798223229"><ele>716.0</ele><time>2026-05-02T10:49:13Z</time></trkpt><trkpt lat="43.67336812982602" lon="12.078196112418219"><ele>716.0</ele><time>2026-05-02T10:49:19Z</time></trkpt><trkpt lat="43.673355161242284" lon="12.078296443033395"><ele>716.0000000000001</ele><time>2026-05-02T10:49:27Z</time></trkpt><trkpt lat="43.673370819192264" lon="12.07839853971201"><ele>716.0</ele><time>2026-05-02T10:51:10Z</time></trkpt><trkpt lat="43.67333991780344" lon="12.078484073011186"><ele>716.4285714285714</ele><time>2026-05-02T10:51:23Z</time></trkpt><trkpt lat="43.67331644998746" lon="12.078567302366356"><ele>716.8571428571429</ele><time>2026-05-02T10:51:36Z</time></trkpt><trkpt lat="43.673297603070885" lon="12.07869713017636"><ele>717.2857142857142</ele><time>2026-05-02T10:51:43Z</time></trkpt><trkpt lat="43.67330181930393" lon="12.078799985609376"><ele>717.7142857142858</ele><time>2026-05-02T10:51:45Z</time></trkpt><trkpt lat="43.67328459021384" lon="12.078901295168624"><ele>718.1428571428571</ele><time>2026-05-02T10:51:47Z</time></trkpt><trkpt lat="43.67334668816573" lon="12.078957634601826"><ele>718.5714285714286</ele><time>2026-05-02T10:51:50Z</time></trkpt><trkpt lat="43.67328774073958" lon="12.078922017812463"><ele>719.0</ele><time>2026-05-02T10:53:27Z</time></trkpt><trkpt lat="43.67336494878298" lon="12.07893855146891"><ele>719.0</ele><time>2026-05-02T10:57:07Z</time></trkpt><trkpt lat="43.673431099956815" lon="12.07896765268149"><ele>719.0</ele><time>2026-05-02T10:57:27Z</time></trkpt><trkpt lat="43.67345996408302" lon="12.079115491968725"><ele>719.0</ele><time>2026-05-02T10:58:48Z</time></trkpt><trkpt lat="43.67348110966451" lon="12.079269436410458"><ele>719.0</ele><time>2026-05-02T10:59:20Z</time></trkpt><trkpt lat="43.67350516058619" lon="12.079355696323095"><ele>719.0</ele><time>2026-05-02T10:59:30Z</time></trkpt><trkpt lat="43.67351558961018" lon="12.079448433200662"><ele>719.0</ele><time>2026-05-02T10:59:39Z</time></trkpt><trkpt lat="43.67349322583641" lon="12.079531409037042"><ele>721.6666666666666</ele><time>2026-05-02T10:59:49Z</time></trkpt><trkpt lat="43.673483427875055" lon="12.079629965103003"><ele>724.3333333333333</ele><time>2026-05-02T11:00:25Z</time></trkpt><trkpt lat="43.67342085148501" lon="12.079731170067278"><ele>727.0</ele><time>2026-05-02T11:01:41Z</time></trkpt><trkpt lat="43.67336835145373" lon="12.079780558694228"><ele>729.6666666666666</ele><time>2026-05-02T11:01:52Z</time></trkpt><trkpt lat="43.67333934786341" lon="12.079862773155076"><ele>732.3333333333334</ele><time>2026-05-02T11:02:01Z</time></trkpt><trkpt lat="43.67328499438444" lon="12.079909313614733"><ele>735.0</ele><time>2026-05-02T11:02:08Z</time></trkpt><trkpt lat="43.67315272086787" lon="12.080071617616342"><ele>739.8</ele><time>2026-05-02T11:08:32Z</time></trkpt><trkpt lat="43.67310017109526" lon="12.080223226126408"><ele>744.6</ele><time>2026-05-02T11:08:34Z</time></trkpt><trkpt lat="43.67307862983405" lon="12.080326682452728"><ele>749.4000000000001</ele><time>2026-05-02T11:08:36Z</time></trkpt><trkpt lat="43.67307693226574" lon="12.080415383278575"><ele>754.2</ele><time>2026-05-02T11:08:38Z</time></trkpt><trkpt lat="43.67302351597075" lon="12.080496292410535"><ele>759.0</ele><time>2026-05-02T11:08:40Z</time></trkpt><trkpt lat="43.672968118850875" lon="12.08063476133683"><ele>762.3333333333334</ele><time>2026-05-02T11:08:42Z</time></trkpt><trkpt lat="43.67293627791568" lon="12.080774981323405"><ele>765.6666666666667</ele><time>2026-05-02T11:08:44Z</time></trkpt><trkpt lat="43.67289264460277" lon="12.080854157135533"><ele>769.0</ele><time>2026-05-02T11:08:46Z</time></trkpt><trkpt lat="43.67285439429898" lon="12.08094729618882"><ele>772.3333333333334</ele><time>2026-05-02T11:08:48Z</time></trkpt><trkpt lat="43.672827640012" lon="12.081052349922274"><ele>775.6666666666667</ele><time>2026-05-02T11:08:50Z</time></trkpt><trkpt lat="43.672787614549364" lon="12.081144651903076"><ele>779.0</ele><time>2026-05-02T11:08:52Z</time></trkpt><trkpt lat="43.67277211964124" lon="12.081265964000469"><ele>779.8000000000001</ele><time>2026-05-02T11:08:56Z</time></trkpt><trkpt lat="43.67280414241729" lon="12.08139846711988"><ele>780.6</ele><time>2026-05-02T11:08:59Z</time></trkpt><trkpt lat="43.67285912417217" lon="12.081462236887372"><ele>781.4</ele><time>2026-05-02T11:09:02Z</time></trkpt><trkpt lat="43.67296586862006" lon="12.081621299400833"><ele>782.2</ele><time>2026-05-02T11:09:04Z</time></trkpt><trkpt lat="43.67299589651338" lon="12.08170900988115"><ele>783.0</ele><time>2026-05-02T11:09:23Z</time></trkpt><trkpt lat="43.673031041443636" lon="12.081784412435672"><ele>785.5999999999999</ele><time>2026-05-02T11:09:26Z</time></trkpt><trkpt lat="43.67310151025233" lon="12.081846680299925"><ele>788.1999999999999</ele><time>2026-05-02T11:09:29Z</time></trkpt><trkpt lat="43.67316204055262" lon="12.08189202829833"><ele>790.8</ele><time>2026-05-02T11:09:31Z</time></trkpt><trkpt lat="43.673245532927105" lon="12.082003006154991"><ele>793.4</ele><time>2026-05-02T11:09:34Z</time></trkpt><trkpt lat="43.673280124860476" lon="12.082136216710625"><ele>796.0</ele><time>2026-05-02T11:09:36Z</time></trkpt><trkpt lat="43.673284541481" lon="12.082281032888684"><ele>795.9999999999999</ele><time>2026-05-02T11:09:38Z</time></trkpt><trkpt lat="43.673306832340856" lon="12.082389891405906"><ele>796.0</ele><time>2026-05-02T11:09:40Z</time></trkpt><trkpt lat="43.67335679392722" lon="12.082525897836419"><ele>796.0</ele><time>2026-05-02T11:09:42Z</time></trkpt><trkpt lat="43.673414747874105" lon="12.0826283054644"><ele>796.0</ele><time>2026-05-02T11:09:44Z</time></trkpt><trkpt lat="43.673475741884246" lon="12.082677852988628"><ele>795.9999999999999</ele><time>2026-05-02T11:09:46Z</time></trkpt><trkpt lat="43.6735503458307" lon="12.082724076513742"><ele>796.0</ele><time>2026-05-02T11:09:49Z</time></trkpt><trkpt lat="43.67360984978039" lon="12.082781170794773"><ele>796.9999999999999</ele><time>2026-05-02T11:09:51Z</time></trkpt><trkpt lat="43.67365832118676" lon="12.082866894822553"><ele>798.0</ele><time>2026-05-02T11:09:53Z</time></trkpt><trkpt lat="43.673693530866494" lon="12.082983472934833"><ele>799.0</ele><time>2026-05-02T11:09:55Z</time></trkpt><trkpt lat="43.67372885252736" lon="12.083072668243487"><ele>800.0</ele><time>2026-05-02T11:09:57Z</time></trkpt><trkpt lat="43.67381498558091" lon="12.083156196750878"><ele>800.9999999999999</ele><time>2026-05-02T11:09:59Z</time></trkpt><trkpt lat="43.673876685340886" lon="12.083189930138559"><ele>802.0</ele><time>2026-05-02T11:10:01Z</time></trkpt><trkpt lat="43.673905019383" lon="12.083278578827988"><ele>799.6666666666666</ele><time>2026-05-02T11:10:03Z</time></trkpt><trkpt lat="43.67394057135757" lon="12.083364252452771"><ele>797.3333333333333</ele><time>2026-05-02T11:10:05Z</time></trkpt><trkpt lat="43.673984111221095" lon="12.083434709394924"><ele>795.0</ele><time>2026-05-02T11:10:07Z</time></trkpt><trkpt lat="43.67403550800481" lon="12.083490767665117"><ele>792.6666666666667</ele><time>2026-05-02T11:10:09Z</time></trkpt><trkpt lat="43.674091997604634" lon="12.08356622609613"><ele>790.3333333333334</ele><time>2026-05-02T11:10:12Z</time></trkpt><trkpt lat="43.67415382446195" lon="12.083666568096072"><ele>788.0</ele><time>2026-05-02T11:10:15Z</time></trkpt><trkpt lat="43.674205721548894" lon="12.08373740360555"><ele>788.0</ele><time>2026-05-02T11:10:17Z</time></trkpt><trkpt lat="43.67423533774731" lon="12.083819250843678"><ele>788.0</ele><time>2026-05-02T11:10:19Z</time></trkpt><trkpt lat="43.67438538088748" lon="12.08397140056397"><ele>788.0</ele><time>2026-05-02T11:10:29Z</time></trkpt><trkpt lat="43.674451289488914" lon="12.083993026566453"><ele>788.0</ele><time>2026-05-02T11:10:30Z</time></trkpt><trkpt lat="43.6745104434215" lon="12.084028634855512"><ele>788.0</ele><time>2026-05-02T11:10:31Z</time></trkpt><trkpt lat="43.674584063892915" lon="12.08412468787333"><ele>788.0</ele><time>2026-05-02T11:10:33Z</time></trkpt><trkpt lat="43.67469627093798" lon="12.084168083432605"><ele>788.0</ele><time>2026-05-02T11:10:35Z</time></trkpt><trkpt lat="43.674762549867864" lon="12.084245631937307"><ele>788.0</ele><time>2026-05-02T11:10:37Z</time></trkpt><trkpt lat="43.67482322966616" lon="12.084336832579233"><ele>788.0</ele><time>2026-05-02T11:10:39Z</time></trkpt><trkpt lat="43.67491261814172" lon="12.084374397934843"><ele>788.0</ele><time>2026-05-02T11:10:41Z</time></trkpt><trkpt lat="43.67504125767523" lon="12.084371492208998"><ele>788.0</ele><time>2026-05-02T11:10:43Z</time></trkpt><trkpt lat="43.6751673777997" lon="12.084364943700386"><ele>788.0</ele><time>2026-05-02T11:10:45Z</time></trkpt><trkpt lat="43.67527542523479" lon="12.084325668414616"><ele>788.0</ele><time>2026-05-02T11:10:47Z</time></trkpt><trkpt lat="43.67534538994764" lon="12.084295271767205"><ele>788.0</ele><time>2026-05-02T11:10:48Z</time></trkpt><trkpt lat="43.67542006702697" lon="12.084257225983768"><ele>788.0</ele><time>2026-05-02T11:10:49Z</time></trkpt><trkpt lat="43.67549231382" lon="12.084220430827354"><ele>791.0000000000001</ele><time>2026-05-02T11:10:50Z</time></trkpt><trkpt lat="43.67556334568682" lon="12.084201551685604"><ele>794.0</ele><time>2026-05-02T11:10:51Z</time></trkpt><trkpt lat="43.6756304625416" lon="12.084198156587842"><ele>797.0</ele><time>2026-05-02T11:10:52Z</time></trkpt><trkpt lat="43.67573920638153" lon="12.084200160451323"><ele>800.0</ele><time>2026-05-02T11:10:54Z</time></trkpt><trkpt lat="43.67583918493905" lon="12.084207951143576"><ele>803.0000000000001</ele><time>2026-05-02T11:10:57Z</time></trkpt><trkpt lat="43.67591239837192" lon="12.084225136379965"><ele>806.0</ele><time>2026-05-02T11:11:00Z</time></trkpt><trkpt lat="43.67597232609202" lon="12.084145329968676"><ele>809.1999999999999</ele><time>2026-05-02T11:11:02Z</time></trkpt><trkpt lat="43.67603293089981" lon="12.08403394494406"><ele>812.4</ele><time>2026-05-02T11:11:04Z</time></trkpt><trkpt lat="43.6761282182003" lon="12.083989571159806"><ele>815.6</ele><time>2026-05-02T11:11:06Z</time></trkpt><trkpt lat="43.67622603094227" lon="12.084012460473435"><ele>818.8</ele><time>2026-05-02T11:11:08Z</time></trkpt><trkpt lat="43.67634256638496" lon="12.084046754378596"><ele>822.0</ele><time>2026-05-02T11:11:10Z</time></trkpt><trkpt lat="43.67642128439092" lon="12.084131503137977"><ele>822.0</ele><time>2026-05-02T11:11:12Z</time></trkpt><trkpt lat="43.676492269428415" lon="12.084228588133014"><ele>822.0</ele><time>2026-05-02T11:11:14Z</time></trkpt><trkpt lat="43.67656114427049" lon="12.08428345390993"><ele>822.0</ele><time>2026-05-02T11:11:16Z</time></trkpt><trkpt lat="43.67662254765637" lon="12.084308275222279"><ele>822.0</ele><time>2026-05-02T11:11:29Z</time></trkpt><trkpt lat="43.6766812871933" lon="12.084349981240686"><ele>822.0</ele><time>2026-05-02T11:11:32Z</time></trkpt><trkpt lat="43.676751312948184" lon="12.08436229987468"><ele>822.0</ele><time>2026-05-02T11:12:28Z</time></trkpt><trkpt lat="43.676835333507064" lon="12.08440748684457"><ele>827.0</ele><time>2026-05-02T11:12:30Z</time></trkpt><trkpt lat="43.676959825415295" lon="12.084437091322638"><ele>832.0</ele><time>2026-05-02T11:12:32Z</time></trkpt><trkpt lat="43.67707898221552" lon="12.08443927649576"><ele>837.0</ele><time>2026-05-02T11:12:34Z</time></trkpt><trkpt lat="43.67718866241497" lon="12.084423010285324"><ele>842.0</ele><time>2026-05-02T11:12:36Z</time></trkpt><trkpt lat="43.677300916244874" lon="12.084425175314975"><ele>842.0</ele><time>2026-05-02T11:12:38Z</time></trkpt><trkpt lat="43.677402957427866" lon="12.084367253564096"><ele>842.0</ele><time>2026-05-02T11:12:40Z</time></trkpt><trkpt lat="43.6774933953117" lon="12.084336454143411"><ele>842.0</ele><time>2026-05-02T11:12:42Z</time></trkpt><trkpt lat="43.67758053204028" lon="12.084311359913755"><ele>842.0</ele><time>2026-05-02T11:12:44Z</time></trkpt><trkpt lat="43.677682651527554" lon="12.084273322042527"><ele>842.0</ele><time>2026-05-02T11:12:46Z</time></trkpt><trkpt lat="43.67779002392477" lon="12.08429920082119"><ele>845.6</ele><time>2026-05-02T11:12:48Z</time></trkpt><trkpt lat="43.6779093041478" lon="12.084334258563583"><ele>849.2</ele><time>2026-05-02T11:12:50Z</time></trkpt><trkpt lat="43.67798264307458" lon="12.084332455069108"><ele>852.8</ele><time>2026-05-02T11:12:51Z</time></trkpt><trkpt lat="43.67805920337197" lon="12.084335774941435"><ele>856.4</ele><time>2026-05-02T11:12:52Z</time></trkpt><trkpt lat="43.67816959975305" lon="12.084368513427373"><ele>860.0</ele><time>2026-05-02T11:12:54Z</time></trkpt><trkpt lat="43.67823068159709" lon="12.084406734423906"><ele>860.0</ele><time>2026-05-02T11:12:55Z</time></trkpt><trkpt lat="43.67829547577922" lon="12.08446247163546"><ele>860.0</ele><time>2026-05-02T11:12:56Z</time></trkpt><trkpt lat="43.67835528550926" lon="12.084518678608577"><ele>860.0</ele><time>2026-05-02T11:12:57Z</time></trkpt><trkpt lat="43.67844980127286" lon="12.084563369569443"><ele>860.0</ele><time>2026-05-02T11:12:59Z</time></trkpt><trkpt lat="43.67857344231725" lon="12.084519331310716"><ele>860.0</ele><time>2026-05-02T11:13:01Z</time></trkpt><trkpt lat="43.67863486022919" lon="12.084587274232513"><ele>859.5000000000001</ele><time>2026-05-02T11:13:03Z</time></trkpt><trkpt lat="43.67866208197263" lon="12.084689776459996"><ele>859.0</ele><time>2026-05-02T11:13:04Z</time></trkpt><trkpt lat="43.678698036605994" lon="12.084818131205497"><ele>858.5</ele><time>2026-05-02T11:13:05Z</time></trkpt><trkpt lat="43.678732628655" lon="12.08494751304384"><ele>858.0</ele><time>2026-05-02T11:13:06Z</time></trkpt><trkpt lat="43.67875038820135" lon="12.085057840990139"><ele>857.5000000000001</ele><time>2026-05-02T11:13:07Z</time></trkpt><trkpt lat="43.67877480527112" lon="12.085151878407025"><ele>857.0</ele><time>2026-05-02T11:13:08Z</time></trkpt><trkpt lat="43.67879536865356" lon="12.085234538208578"><ele>857.0000000000001</ele><time>2026-05-02T11:13:09Z</time></trkpt><trkpt lat="43.67885300581396" lon="12.085311802235557"><ele>857.0</ele><time>2026-05-02T11:13:11Z</time></trkpt><trkpt lat="43.67896185018467" lon="12.085346116207102"><ele>857.0</ele><time>2026-05-02T11:13:13Z</time></trkpt><trkpt lat="43.67901686968372" lon="12.085395539082537"><ele>857.0</ele><time>2026-05-02T11:13:14Z</time></trkpt><trkpt lat="43.679068228266466" lon="12.085467229942159"><ele>857.0000000000001</ele><time>2026-05-02T11:13:15Z</time></trkpt><trkpt lat="43.67914685638395" lon="12.085545968247628"><ele>857.0</ele><time>2026-05-02T11:13:17Z</time></trkpt><trkpt lat="43.679243930938895" lon="12.085676948722007"><ele>857.5000000000001</ele><time>2026-05-02T11:13:20Z</time></trkpt><trkpt lat="43.67926225121779" lon="12.08579625050875"><ele>858.0</ele><time>2026-05-02T11:13:22Z</time></trkpt><trkpt lat="43.679314308851154" lon="12.085881918474575"><ele>858.5</ele><time>2026-05-02T11:13:25Z</time></trkpt><trkpt lat="43.67932824167405" lon="12.085976886000815"><ele>859.0</ele><time>2026-05-02T11:13:27Z</time></trkpt><trkpt lat="43.67933275274557" lon="12.086085228285807"><ele>859.5000000000001</ele><time>2026-05-02T11:13:30Z</time></trkpt><trkpt lat="43.67935318044374" lon="12.086216788236118"><ele>860.0</ele><time>2026-05-02T11:13:33Z</time></trkpt><trkpt lat="43.67937185777085" lon="12.086317071403881"><ele>860.0</ele><time>2026-05-02T11:13:35Z</time></trkpt><trkpt lat="43.67938778981057" lon="12.086411344639307"><ele>860.0</ele><time>2026-05-02T11:13:40Z</time></trkpt><trkpt lat="43.679389535482244" lon="12.086502203867628"><ele>860.0</ele><time>2026-05-02T11:13:43Z</time></trkpt><trkpt lat="43.67938123079139" lon="12.08660167589511"><ele>860.0</ele><time>2026-05-02T11:13:51Z</time></trkpt><trkpt lat="43.679343839790754" lon="12.08669005913828"><ele>860.0</ele><time>2026-05-02T11:13:55Z</time></trkpt><trkpt lat="43.679319684018374" lon="12.086793547126696"><ele>860.0</ele><time>2026-05-02T11:13:58Z</time></trkpt><trkpt lat="43.679299718277754" lon="12.086883782634457"><ele>860.0</ele><time>2026-05-02T11:14:00Z</time></trkpt><trkpt lat="43.679238539896865" lon="12.087072702955137"><ele>860.2</ele><time>2026-05-02T11:14:02Z</time></trkpt><trkpt lat="43.6792026633601" lon="12.087220941519707"><ele>860.4</ele><time>2026-05-02T11:14:04Z</time></trkpt><trkpt lat="43.67916652236127" lon="12.087332265636846"><ele>860.5999999999999</ele><time>2026-05-02T11:14:06Z</time></trkpt><trkpt lat="43.67913554433161" lon="12.087459188246527"><ele>860.8</ele><time>2026-05-02T11:14:08Z</time></trkpt><trkpt lat="43.67912281891326" lon="12.087546227333975"><ele>861.0</ele><time>2026-05-02T11:14:09Z</time></trkpt><trkpt lat="43.67908232711013" lon="12.087694978946612"><ele>861.75</ele><time>2026-05-02T11:14:11Z</time></trkpt><trkpt lat="43.67902323973146" lon="12.087826341461856"><ele>862.5</ele><time>2026-05-02T11:14:13Z</time></trkpt><trkpt lat="43.678972366654186" lon="12.087963197723578"><ele>863.25</ele><time>2026-05-02T11:14:15Z</time></trkpt><trkpt lat="43.67893640360756" lon="12.088144820302963"><ele>864.0</ele><time>2026-05-02T11:14:17Z</time></trkpt><trkpt lat="43.678884200576064" lon="12.088247655882373"><ele>865.5</ele><time>2026-05-02T11:14:19Z</time></trkpt><trkpt lat="43.67882958507939" lon="12.088317095835702"><ele>867.0</ele><time>2026-05-02T11:14:45Z</time></trkpt><trkpt lat="43.67880766671557" lon="12.08842770146782"><ele>868.5</ele><time>2026-05-02T11:15:03Z</time></trkpt><trkpt lat="43.678799284430085" lon="12.088529508268381"><ele>870.0</ele><time>2026-05-02T11:15:05Z</time></trkpt><trkpt lat="43.67878776773839" lon="12.08866091630023"><ele>871.5</ele><time>2026-05-02T11:15:07Z</time></trkpt><trkpt lat="43.67881571969335" lon="12.088782630052217"><ele>873.0</ele><time>2026-05-02T11:15:09Z</time></trkpt><trkpt lat="43.67885186371496" lon="12.08891863627603"><ele>873.0</ele><time>2026-05-02T11:15:11Z</time></trkpt><trkpt lat="43.67886404155126" lon="12.089032655130143"><ele>873.0</ele><time>2026-05-02T11:15:13Z</time></trkpt><trkpt lat="43.678908136743665" lon="12.08910853867523"><ele>873.0</ele><time>2026-05-02T11:15:15Z</time></trkpt><trkpt lat="43.678899844748955" lon="12.089204327560193"><ele>873.0</ele><time>2026-05-02T11:15:17Z</time></trkpt><trkpt lat="43.678892605671095" lon="12.089363230560517"><ele>873.0</ele><time>2026-05-02T11:15:19Z</time></trkpt><trkpt lat="43.67887599285622" lon="12.089452346938698"><ele>873.0</ele><time>2026-05-02T11:15:20Z</time></trkpt><trkpt lat="43.678854048782355" lon="12.089536458884409"><ele>873.5999999999999</ele><time>2026-05-02T11:15:21Z</time></trkpt><trkpt lat="43.67879614252132" lon="12.089647114050246"><ele>874.1999999999999</ele><time>2026-05-02T11:15:23Z</time></trkpt><trkpt lat="43.678724904543635" lon="12.089706920466675"><ele>874.8</ele><time>2026-05-02T11:15:47Z</time></trkpt><trkpt lat="43.678660445118204" lon="12.089786589733928"><ele>875.4</ele><time>2026-05-02T11:15:49Z</time></trkpt><trkpt lat="43.67858325023316" lon="12.089879340810755"><ele>876.0</ele><time>2026-05-02T11:15:51Z</time></trkpt><trkpt lat="43.67850163162778" lon="12.089976146813628"><ele>876.0</ele><time>2026-05-02T11:15:53Z</time></trkpt><trkpt lat="43.67845222628253" lon="12.090122548704313"><ele>875.9999999999999</ele><time>2026-05-02T11:15:55Z</time></trkpt><trkpt lat="43.67841754513847" lon="12.09024884490663"><ele>875.9999999999999</ele><time>2026-05-02T11:15:57Z</time></trkpt><trkpt lat="43.67839885225268" lon="12.090405239737867"><ele>876.0</ele><time>2026-05-02T11:15:59Z</time></trkpt><trkpt lat="43.67838381436016" lon="12.090522544620956"><ele>876.0</ele><time>2026-05-02T11:16:01Z</time></trkpt><trkpt lat="43.67837872315882" lon="12.090641104849027"><ele>876.5</ele><time>2026-05-02T11:16:03Z</time></trkpt><trkpt lat="43.678394038913595" lon="12.090760963978413"><ele>877.0</ele><time>2026-05-02T11:16:05Z</time></trkpt><trkpt lat="43.67840343146189" lon="12.090859898373363"><ele>877.5</ele><time>2026-05-02T11:16:07Z</time></trkpt><trkpt lat="43.67843492260277" lon="12.090942047323717"><ele>878.0</ele><time>2026-05-02T11:16:09Z</time></trkpt><trkpt lat="43.67851971943028" lon="12.090997632921912"><ele>878.5</ele><time>2026-05-02T11:16:11Z</time></trkpt><trkpt lat="43.67859157616289" lon="12.091013954973018"><ele>879.0</ele><time>2026-05-02T11:16:13Z</time></trkpt><trkpt lat="43.67874125510704" lon="12.091000336716341"><ele>882.0</ele><time>2026-05-02T11:16:16Z</time></trkpt><trkpt lat="43.67885512835079" lon="12.090973055514215"><ele>885.0000000000001</ele><time>2026-05-02T11:16:18Z</time></trkpt><trkpt lat="43.67894295373086" lon="12.090964763098318"><ele>888.0000000000001</ele><time>2026-05-02T11:16:20Z</time></trkpt><trkpt lat="43.67901630865455" lon="12.090995090919606"><ele>891.0</ele><time>2026-05-02T11:16:22Z</time></trkpt><trkpt lat="43.679112043256396" lon="12.091039728226725"><ele>894.0</ele><time>2026-05-02T11:16:24Z</time></trkpt><trkpt lat="43.67920747373881" lon="12.09107234793834"><ele>894.0</ele><time>2026-05-02T11:16:26Z</time></trkpt><trkpt lat="43.67934691012593" lon="12.091171327785789"><ele>894.0</ele><time>2026-05-02T11:16:29Z</time></trkpt><trkpt lat="43.67946204224222" lon="12.091269339419474"><ele>894.0</ele><time>2026-05-02T11:16:31Z</time></trkpt><trkpt lat="43.67952895388269" lon="12.091358552013883"><ele>894.0</ele><time>2026-05-02T11:16:32Z</time></trkpt><trkpt lat="43.679591094020736" lon="12.091431738594938"><ele>897.0</ele><time>2026-05-02T11:16:33Z</time></trkpt><trkpt lat="43.67964010262903" lon="12.091505162098391"><ele>900.0000000000001</ele><time>2026-05-02T11:16:34Z</time></trkpt><trkpt lat="43.67966648278075" lon="12.091592609669473"><ele>903.0000000000001</ele><time>2026-05-02T11:16:36Z</time></trkpt><trkpt lat="43.67976227978796" lon="12.091677344673332"><ele>906.0</ele><time>2026-05-02T11:16:38Z</time></trkpt><trkpt lat="43.67987412310527" lon="12.09170216165889"><ele>909.0</ele><time>2026-05-02T11:16:40Z</time></trkpt><trkpt lat="43.67997235011419" lon="12.091702661901808"><ele>909.0</ele><time>2026-05-02T11:16:42Z</time></trkpt><trkpt lat="43.68005001587503" lon="12.091695269013401"><ele>909.0000000000001</ele><time>2026-05-02T11:16:44Z</time></trkpt><trkpt lat="43.68019349739284" lon="12.091700766194307"><ele>909.0000000000001</ele><time>2026-05-02T11:16:48Z</time></trkpt><trkpt lat="43.68023826837318" lon="12.09176786041743"><ele>909.0</ele><time>2026-05-02T11:16:50Z</time></trkpt><trkpt lat="43.68029714302086" lon="12.091905926984316"><ele>909.0</ele><time>2026-05-02T11:16:52Z</time></trkpt><trkpt lat="43.68037939840825" lon="12.091983057171106"><ele>911.0</ele><time>2026-05-02T11:16:54Z</time></trkpt><trkpt lat="43.68043222646124" lon="12.092046679820696"><ele>913.0</ele><time>2026-05-02T11:16:56Z</time></trkpt><trkpt lat="43.6804652906985" lon="12.092146516600836"><ele>915.0</ele><time>2026-05-02T11:16:59Z</time></trkpt><trkpt lat="43.68048889733149" lon="12.092249323719086"><ele>917.0</ele><time>2026-05-02T11:17:02Z</time></trkpt><trkpt lat="43.68053447473739" lon="12.092365364022793"><ele>919.0</ele><time>2026-05-02T11:17:05Z</time></trkpt><trkpt lat="43.68059110673722" lon="12.092470573304759"><ele>921.0</ele><time>2026-05-02T11:17:11Z</time></trkpt><trkpt lat="43.68064101478569" lon="12.092566551353842"><ele>921.0000000000001</ele><time>2026-05-02T11:17:13Z</time></trkpt><trkpt lat="43.68067102848233" lon="12.092652470146348"><ele>921.0</ele><time>2026-05-02T11:17:15Z</time></trkpt><trkpt lat="43.68071205259264" lon="12.092744577087723"><ele>921.0000000000001</ele><time>2026-05-02T11:17:17Z</time></trkpt><trkpt lat="43.68075343497172" lon="12.092827341675905"><ele>921.0000000000001</ele><time>2026-05-02T11:17:19Z</time></trkpt><trkpt lat="43.680816477247006" lon="12.092879788921051"><ele>921.0</ele><time>2026-05-02T11:17:21Z</time></trkpt><trkpt lat="43.68085497651514" lon="12.09296084009303"><ele>921.0000000000001</ele><time>2026-05-02T11:17:23Z</time></trkpt><trkpt lat="43.68091805173213" lon="12.093038593915251"><ele>921.0000000000001</ele><time>2026-05-02T11:17:30Z</time></trkpt><trkpt lat="43.68097435739153" lon="12.09309430057258"><ele>921.0</ele><time>2026-05-02T11:17:40Z</time></trkpt><trkpt lat="43.68099918172568" lon="12.093191441813044"><ele>921.0</ele><time>2026-05-02T11:17:48Z</time></trkpt><trkpt lat="43.68100475312889" lon="12.093292416275796"><ele>921.0</ele><time>2026-05-02T11:17:50Z</time></trkpt><trkpt lat="43.68108021305962" lon="12.093431283217644"><ele>921.0</ele><time>2026-05-02T11:17:52Z</time></trkpt><trkpt lat="43.68110953794176" lon="12.093513276767638"><ele>921.0</ele><time>2026-05-02T11:17:53Z</time></trkpt><trkpt lat="43.6811484176046" lon="12.093593290677884"><ele>921.0</ele><time>2026-05-02T11:17:54Z</time></trkpt><trkpt lat="43.68120087856646" lon="12.093667307485429"><ele>922.3333333333334</ele><time>2026-05-02T11:17:55Z</time></trkpt><trkpt lat="43.6812775228821" lon="12.093728492146473"><ele>923.6666666666667</ele><time>2026-05-02T11:17:56Z</time></trkpt><trkpt lat="43.681345473819135" lon="12.09376780838457"><ele>925.0</ele><time>2026-05-02T11:17:57Z</time></trkpt><trkpt lat="43.681432222955905" lon="12.093842033638653"><ele>926.3333333333334</ele><time>2026-05-02T11:17:59Z</time></trkpt><trkpt lat="43.681493032598716" lon="12.09391484577325"><ele>927.6666666666667</ele><time>2026-05-02T11:18:00Z</time></trkpt><trkpt lat="43.681570813362804" lon="12.093989926386142"><ele>929.0</ele><time>2026-05-02T11:18:01Z</time></trkpt><trkpt lat="43.6816480382712" lon="12.09406269695515"><ele>928.2</ele><time>2026-05-02T11:18:02Z</time></trkpt><trkpt lat="43.68173828707622" lon="12.094136640070642"><ele>927.4000000000001</ele><time>2026-05-02T11:18:03Z</time></trkpt><trkpt lat="43.681815181910835" lon="12.09423446335161"><ele>926.6</ele><time>2026-05-02T11:18:04Z</time></trkpt><trkpt lat="43.681874120700044" lon="12.094371104531671"><ele>925.8</ele><time>2026-05-02T11:18:05Z</time></trkpt><trkpt lat="43.681909305212926" lon="12.094500295549603"><ele>925.0</ele><time>2026-05-02T11:18:06Z</time></trkpt><trkpt lat="43.68194117751433" lon="12.094638543243981"><ele>925.0</ele><time>2026-05-02T11:18:07Z</time></trkpt><trkpt lat="43.68198775058068" lon="12.094751170827164"><ele>925.0</ele><time>2026-05-02T11:18:08Z</time></trkpt><trkpt lat="43.68205991423286" lon="12.094825356766194"><ele>925.0</ele><time>2026-05-02T11:18:09Z</time></trkpt><trkpt lat="43.68214174701735" lon="12.094893601285731"><ele>925.0</ele><time>2026-05-02T11:18:10Z</time></trkpt><trkpt lat="43.68220981570455" lon="12.09496955565568"><ele>925.0</ele><time>2026-05-02T11:18:11Z</time></trkpt><trkpt lat="43.682268442409004" lon="12.095058431170884"><ele>922.1666666666666</ele><time>2026-05-02T11:18:12Z</time></trkpt><trkpt lat="43.68232221701512" lon="12.095138290878047"><ele>919.3333333333333</ele><time>2026-05-02T11:18:13Z</time></trkpt><trkpt lat="43.68237459542345" lon="12.095234166898221"><ele>916.5</ele><time>2026-05-02T11:18:14Z</time></trkpt><trkpt lat="43.68241980755105" lon="12.09533064235521"><ele>913.6666666666667</ele><time>2026-05-02T11:18:15Z</time></trkpt><trkpt lat="43.68246725496514" lon="12.095420040997539"><ele>910.8333333333334</ele><time>2026-05-02T11:18:16Z</time></trkpt><trkpt lat="43.68252046515926" lon="12.09550394434813"><ele>908.0</ele><time>2026-05-02T11:18:17Z</time></trkpt><trkpt lat="43.68257433607897" lon="12.095591034993566"><ele>908.0</ele><time>2026-05-02T11:18:18Z</time></trkpt><trkpt lat="43.682639413189435" lon="12.095671797958508"><ele>908.0</ele><time>2026-05-02T11:18:19Z</time></trkpt><trkpt lat="43.68271721780567" lon="12.095732725141971"><ele>908.0</ele><time>2026-05-02T11:18:20Z</time></trkpt><trkpt lat="43.68281192176559" lon="12.095765405776719"><ele>908.0</ele><time>2026-05-02T11:18:21Z</time></trkpt><trkpt lat="43.68291165617839" lon="12.095792250517329"><ele>908.0</ele><time>2026-05-02T11:18:22Z</time></trkpt><trkpt lat="43.683014429787846" lon="12.095828639868127"><ele>910.8333333333334</ele><time>2026-05-02T11:18:23Z</time></trkpt><trkpt lat="43.68310253894717" lon="12.095878057248239"><ele>913.6666666666667</ele><time>2026-05-02T11:18:24Z</time></trkpt><trkpt lat="43.68318400112855" lon="12.095924213250358"><ele>916.5</ele><time>2026-05-02T11:18:25Z</time></trkpt><trkpt lat="43.683261159244815" lon="12.095960665296731"><ele>919.3333333333333</ele><time>2026-05-02T11:18:26Z</time></trkpt><trkpt lat="43.68333249480733" lon="12.096013270321187"><ele>922.1666666666666</ele><time>2026-05-02T11:18:27Z</time></trkpt><trkpt lat="43.68338936417129" lon="12.096072677007118"><ele>925.0</ele><time>2026-05-02T11:18:28Z</time></trkpt><trkpt lat="43.683430297248584" lon="12.096139662288603"><ele>925.0</ele><time>2026-05-02T11:18:29Z</time></trkpt><trkpt lat="43.6834771105791" lon="12.096210025519495"><ele>925.0</ele><time>2026-05-02T11:18:30Z</time></trkpt><trkpt lat="43.683528586084655" lon="12.096275435481637"><ele>925.0</ele><time>2026-05-02T11:18:31Z</time></trkpt><trkpt lat="43.68357975679604" lon="12.096344915807716"><ele>925.0</ele><time>2026-05-02T11:18:32Z</time></trkpt><trkpt lat="43.6836223844327" lon="12.096417959646839"><ele>925.0</ele><time>2026-05-02T11:18:33Z</time></trkpt><trkpt lat="43.68366494259816" lon="12.096515948115664"><ele>925.0</ele><time>2026-05-02T11:18:34Z</time></trkpt><trkpt lat="43.68369679466148" lon="12.096619266839502"><ele>925.0</ele><time>2026-05-02T11:18:35Z</time></trkpt><trkpt lat="43.683748779858696" lon="12.09673059140709"><ele>927.6</ele><time>2026-05-02T11:18:37Z</time></trkpt><trkpt lat="43.68384794851213" lon="12.09681566848951"><ele>930.2</ele><time>2026-05-02T11:18:39Z</time></trkpt><trkpt lat="43.683938300963284" lon="12.096855571630796"><ele>932.8</ele><time>2026-05-02T11:18:40Z</time></trkpt><trkpt lat="43.68403315443858" lon="12.09689581764991"><ele>935.4</ele><time>2026-05-02T11:18:41Z</time></trkpt><trkpt lat="43.68410789807027" lon="12.096934988920435"><ele>938.0</ele><time>2026-05-02T11:18:42Z</time></trkpt><trkpt lat="43.6841756288207" lon="12.096988183405905"><ele>938.0000000000001</ele><time>2026-05-02T11:18:43Z</time></trkpt><trkpt lat="43.684222574325624" lon="12.097056654235367"><ele>938.0</ele><time>2026-05-02T11:18:44Z</time></trkpt><trkpt lat="43.68426193775925" lon="12.097141281807973"><ele>938.0</ele><time>2026-05-02T11:18:45Z</time></trkpt><trkpt lat="43.68430309732987" lon="12.097249935018114"><ele>938.0</ele><time>2026-05-02T11:18:46Z</time></trkpt><trkpt lat="43.68434595532183" lon="12.097369092194228"><ele>938.0000000000001</ele><time>2026-05-02T11:18:47Z</time></trkpt><trkpt lat="43.684380209819786" lon="12.097477041777719"><ele>938.0</ele><time>2026-05-02T11:18:48Z</time></trkpt><trkpt lat="43.68444120678841" lon="12.09758615471954"><ele>939.4</ele><time>2026-05-02T11:18:50Z</time></trkpt><trkpt lat="43.684554923848026" lon="12.097690674647685"><ele>940.8</ele><time>2026-05-02T11:18:52Z</time></trkpt><trkpt lat="43.684623985393785" lon="12.097754327183349"><ele>942.2</ele><time>2026-05-02T11:18:53Z</time></trkpt><trkpt lat="43.68471346394214" lon="12.097820693421578"><ele>943.6</ele><time>2026-05-02T11:18:54Z</time></trkpt><trkpt lat="43.6848034338385" lon="12.097875823832018"><ele>945.0</ele><time>2026-05-02T11:18:55Z</time></trkpt><trkpt lat="43.68489821841412" lon="12.097963902601903"><ele>945.0</ele><time>2026-05-02T11:18:56Z</time></trkpt><trkpt lat="43.68497416852302" lon="12.098026907237411"><ele>945.0</ele><time>2026-05-02T11:18:57Z</time></trkpt><trkpt lat="43.685034641603615" lon="12.098072121163005"><ele>945.0</ele><time>2026-05-02T11:18:58Z</time></trkpt><trkpt lat="43.68508973881849" lon="12.098119688599278"><ele>945.0</ele><time>2026-05-02T11:18:59Z</time></trkpt><trkpt lat="43.68515416487053" lon="12.098193333218783"><ele>945.0</ele><time>2026-05-02T11:19:00Z</time></trkpt><trkpt lat="43.68524532113357" lon="12.09828638517295"><ele>945.0</ele><time>2026-05-02T11:19:01Z</time></trkpt><trkpt lat="43.685330360478886" lon="12.098373919008505"><ele>943.2</ele><time>2026-05-02T11:19:02Z</time></trkpt><trkpt lat="43.68539222371701" lon="12.098461624320919"><ele>941.4</ele><time>2026-05-02T11:19:03Z</time></trkpt><trkpt lat="43.68544331622568" lon="12.098561037349457"><ele>939.5999999999999</ele><time>2026-05-02T11:19:04Z</time></trkpt><trkpt lat="43.68549183733738" lon="12.098680965294955"><ele>937.8</ele><time>2026-05-02T11:19:05Z</time></trkpt><trkpt lat="43.68554432607208" lon="12.098801654160512"><ele>936.0</ele><time>2026-05-02T11:19:06Z</time></trkpt><trkpt lat="43.68558070379199" lon="12.098926142010708"><ele>936.0</ele><time>2026-05-02T11:19:07Z</time></trkpt><trkpt lat="43.685608579875115" lon="12.099068944729035"><ele>935.9999999999999</ele><time>2026-05-02T11:19:08Z</time></trkpt><trkpt lat="43.68562525357407" lon="12.099197108120949"><ele>935.9999999999999</ele><time>2026-05-02T11:19:09Z</time></trkpt><trkpt lat="43.685646670028376" lon="12.099319159502796"><ele>936.0</ele><time>2026-05-02T11:19:10Z</time></trkpt><trkpt lat="43.685685599658036" lon="12.099433728031999"><ele>936.0</ele><time>2026-05-02T11:19:11Z</time></trkpt><trkpt lat="43.68573793457883" lon="12.099547968635314"><ele>937.5999999999999</ele><time>2026-05-02T11:19:12Z</time></trkpt><trkpt lat="43.68579773965136" lon="12.099658154370644"><ele>939.1999999999999</ele><time>2026-05-02T11:19:13Z</time></trkpt><trkpt lat="43.685847889090205" lon="12.099789853090767"><ele>940.8000000000001</ele><time>2026-05-02T11:19:14Z</time></trkpt><trkpt lat="43.68587820194314" lon="12.099914618694092"><ele>942.4000000000001</ele><time>2026-05-02T11:19:15Z</time></trkpt><trkpt lat="43.68590654042414" lon="12.100025543054672"><ele>944.0</ele><time>2026-05-02T11:19:16Z</time></trkpt><trkpt lat="43.68593127666243" lon="12.100130890175473"><ele>946.2</ele><time>2026-05-02T11:19:17Z</time></trkpt><trkpt lat="43.68595981677082" lon="12.100252086261195"><ele>948.4000000000001</ele><time>2026-05-02T11:19:18Z</time></trkpt><trkpt lat="43.686002082430065" lon="12.10038441111829"><ele>950.6</ele><time>2026-05-02T11:19:19Z</time></trkpt><trkpt lat="43.68604476286596" lon="12.100535416051457"><ele>952.8</ele><time>2026-05-02T11:19:20Z</time></trkpt><trkpt lat="43.68608691360743" lon="12.100647585214448"><ele>955.0</ele><time>2026-05-02T11:19:21Z</time></trkpt><trkpt lat="43.68613495507855" lon="12.100784261128686"><ele>955.8</ele><time>2026-05-02T11:19:23Z</time></trkpt><trkpt lat="43.686121870659754" lon="12.100890633929346"><ele>956.6</ele><time>2026-05-02T11:19:25Z</time></trkpt><trkpt lat="43.68608634960922" lon="12.100988639647797"><ele>957.4000000000001</ele><time>2026-05-02T11:20:22Z</time></trkpt><trkpt lat="43.686058442337526" lon="12.10110327068715"><ele>958.2</ele><time>2026-05-02T11:20:24Z</time></trkpt><trkpt lat="43.68601791924163" lon="12.101242965267083"><ele>959.0</ele><time>2026-05-02T11:20:26Z</time></trkpt><trkpt lat="43.68600765008435" lon="12.101407271701877"><ele>959.0</ele><time>2026-05-02T11:20:28Z</time></trkpt><trkpt lat="43.68600949752263" lon="12.101554999566378"><ele>959.0000000000001</ele><time>2026-05-02T11:20:30Z</time></trkpt><trkpt lat="43.68603267697952" lon="12.101663422940257"><ele>959.0000000000001</ele><time>2026-05-02T11:20:32Z</time></trkpt><trkpt lat="43.68603875850069" lon="12.101762893615245"><ele>959.0</ele><time>2026-05-02T11:20:34Z</time></trkpt><trkpt lat="43.68603935073439" lon="12.101946600762835"><ele>959.0</ele><time>2026-05-02T11:20:36Z</time></trkpt><trkpt lat="43.686033912096015" lon="12.102062319557216"><ele>958.6666666666667</ele><time>2026-05-02T11:20:37Z</time></trkpt><trkpt lat="43.68601986348385" lon="12.102169488310773"><ele>958.3333333333334</ele><time>2026-05-02T11:20:38Z</time></trkpt><trkpt lat="43.6860006970615" lon="12.102259722857651"><ele>958.0</ele><time>2026-05-02T11:20:39Z</time></trkpt><trkpt lat="43.685991443863706" lon="12.10236633847679"><ele>957.6666666666667</ele><time>2026-05-02T11:20:40Z</time></trkpt><trkpt lat="43.68599543637107" lon="12.102492969749473"><ele>957.3333333333334</ele><time>2026-05-02T11:20:41Z</time></trkpt><trkpt lat="43.6860119969788" lon="12.102623367211619"><ele>957.0</ele><time>2026-05-02T11:20:42Z</time></trkpt><trkpt lat="43.68602750479174" lon="12.102754769748945"><ele>956.8333333333334</ele><time>2026-05-02T11:20:43Z</time></trkpt><trkpt lat="43.686041896489776" lon="12.102880464453284"><ele>956.6666666666667</ele><time>2026-05-02T11:20:44Z</time></trkpt><trkpt lat="43.68605119390441" lon="12.102983929296258"><ele>956.5</ele><time>2026-05-02T11:20:45Z</time></trkpt><trkpt lat="43.68605785374042" lon="12.103084683384294"><ele>956.3333333333334</ele><time>2026-05-02T11:20:46Z</time></trkpt><trkpt lat="43.68605371503415" lon="12.103196460178099"><ele>956.1666666666667</ele><time>2026-05-02T11:20:47Z</time></trkpt><trkpt lat="43.68604567260768" lon="12.103319230910367"><ele>956.0</ele><time>2026-05-02T11:20:48Z</time></trkpt><trkpt lat="43.68602964981716" lon="12.103431003982312"><ele>956.5999999999999</ele><time>2026-05-02T11:20:49Z</time></trkpt><trkpt lat="43.686005842634614" lon="12.103536947212099"><ele>957.1999999999999</ele><time>2026-05-02T11:20:50Z</time></trkpt><trkpt lat="43.68597519506968" lon="12.103653742607682"><ele>957.8000000000001</ele><time>2026-05-02T11:20:51Z</time></trkpt><trkpt lat="43.68593439046856" lon="12.103754700185327"><ele>958.4000000000001</ele><time>2026-05-02T11:20:52Z</time></trkpt><trkpt lat="43.68587013572075" lon="12.103843752357792"><ele>959.0</ele><time>2026-05-02T11:20:53Z</time></trkpt><trkpt lat="43.685784759962075" lon="12.10393033387159"><ele>959.0</ele><time>2026-05-02T11:20:54Z</time></trkpt><trkpt lat="43.685690820921764" lon="12.104034320026116"><ele>959.0000000000001</ele><time>2026-05-02T11:20:55Z</time></trkpt><trkpt lat="43.685586067057194" lon="12.104096017756726"><ele>959.0000000000001</ele><time>2026-05-02T11:20:56Z</time></trkpt><trkpt lat="43.68550473836041" lon="12.104182942005348"><ele>959.0</ele><time>2026-05-02T11:20:57Z</time></trkpt><trkpt lat="43.68543573945861" lon="12.10426665972333"><ele>959.0</ele><time>2026-05-02T11:20:58Z</time></trkpt><trkpt lat="43.6853976984424" lon="12.104355544955494"><ele>958.6</ele><time>2026-05-02T11:20:59Z</time></trkpt><trkpt lat="43.68531565329265" lon="12.104499203829194"><ele>958.2</ele><time>2026-05-02T11:21:01Z</time></trkpt><trkpt lat="43.68527127219618" lon="12.104603076482418"><ele>957.8000000000001</ele><time>2026-05-02T11:21:02Z</time></trkpt><trkpt lat="43.68522074395887" lon="12.104721207222674"><ele>957.4000000000001</ele><time>2026-05-02T11:21:03Z</time></trkpt><trkpt lat="43.68518215171584" lon="12.104837234487285"><ele>957.0</ele><time>2026-05-02T11:21:04Z</time></trkpt><trkpt lat="43.68515039594308" lon="12.10492535518558"><ele>957.0</ele><time>2026-05-02T11:21:05Z</time></trkpt><trkpt lat="43.68513660274199" lon="12.105025527259507"><ele>957.0</ele><time>2026-05-02T11:21:06Z</time></trkpt><trkpt lat="43.68513673471118" lon="12.105131774007988"><ele>957.0</ele><time>2026-05-02T11:21:07Z</time></trkpt><trkpt lat="43.685143091190696" lon="12.105257932423378"><ele>957.0</ele><time>2026-05-02T11:21:08Z</time></trkpt><trkpt lat="43.685149877573885" lon="12.105389852239506"><ele>957.0</ele><time>2026-05-02T11:21:09Z</time></trkpt><trkpt lat="43.68516043493554" lon="12.105536348114512"><ele>957.0</ele><time>2026-05-02T11:21:10Z</time></trkpt><trkpt lat="43.6851745667183" lon="12.105659088193823"><ele>956.4000000000001</ele><time>2026-05-02T11:21:11Z</time></trkpt><trkpt lat="43.68520707768913" lon="12.10579139234393"><ele>955.8000000000001</ele><time>2026-05-02T11:21:12Z</time></trkpt><trkpt lat="43.68525989341743" lon="12.105910297857521"><ele>955.2</ele><time>2026-05-02T11:21:13Z</time></trkpt><trkpt lat="43.685303603752786" lon="12.10603703121931"><ele>954.6</ele><time>2026-05-02T11:21:14Z</time></trkpt><trkpt lat="43.68533684469449" lon="12.106175434767371"><ele>954.0</ele><time>2026-05-02T11:21:15Z</time></trkpt><trkpt lat="43.685357378159914" lon="12.106300810970339"><ele>953.6666666666666</ele><time>2026-05-02T11:21:16Z</time></trkpt><trkpt lat="43.68536308586843" lon="12.106393442843123"><ele>953.3333333333333</ele><time>2026-05-02T11:21:17Z</time></trkpt><trkpt lat="43.68537261341608" lon="12.106563703771883"><ele>953.0</ele><time>2026-05-02T11:21:19Z</time></trkpt><trkpt lat="43.68535410005279" lon="12.106658548255798"><ele>952.6666666666666</ele><time>2026-05-02T11:21:20Z</time></trkpt><trkpt lat="43.685308539731714" lon="12.106731029614062"><ele>952.3333333333333</ele><time>2026-05-02T11:21:21Z</time></trkpt><trkpt lat="43.68525667502776" lon="12.106800731256474"><ele>952.0</ele><time>2026-05-02T11:21:22Z</time></trkpt><trkpt lat="43.68523893669727" lon="12.106899639321346"><ele>952.0</ele><time>2026-05-02T11:21:23Z</time></trkpt><trkpt lat="43.68523405122262" lon="12.107040527433616"><ele>952.0</ele><time>2026-05-02T11:21:24Z</time></trkpt><trkpt lat="43.685241814085906" lon="12.107185707089586"><ele>952.0</ele><time>2026-05-02T11:21:25Z</time></trkpt><trkpt lat="43.68524931550979" lon="12.107321088146328"><ele>952.0</ele><time>2026-05-02T11:21:26Z</time></trkpt><trkpt lat="43.685234587700045" lon="12.107423710475102"><ele>952.0</ele><time>2026-05-02T11:21:27Z</time></trkpt><trkpt lat="43.685203548481404" lon="12.107516692450783"><ele>952.4999999999999</ele><time>2026-05-02T11:21:28Z</time></trkpt><trkpt lat="43.68515551763135" lon="12.107623147753408"><ele>953.0</ele><time>2026-05-02T11:21:29Z</time></trkpt><trkpt lat="43.68509447376039" lon="12.107720341040094"><ele>953.5</ele><time>2026-05-02T11:21:30Z</time></trkpt><trkpt lat="43.685033012231266" lon="12.107798527179703"><ele>954.0</ele><time>2026-05-02T11:21:31Z</time></trkpt><trkpt lat="43.68496830309938" lon="12.107885690663835"><ele>954.4999999999999</ele><time>2026-05-02T11:21:32Z</time></trkpt><trkpt lat="43.68492582007625" lon="12.107981855172493"><ele>955.0</ele><time>2026-05-02T11:21:33Z</time></trkpt><trkpt lat="43.68490381247148" lon="12.108103863790785"><ele>954.9999999999999</ele><time>2026-05-02T11:21:34Z</time></trkpt><trkpt lat="43.68487968519743" lon="12.108239478669033"><ele>955.0</ele><time>2026-05-02T11:21:35Z</time></trkpt><trkpt lat="43.68485872634864" lon="12.10837290194382"><ele>955.0</ele><time>2026-05-02T11:21:36Z</time></trkpt><trkpt lat="43.68483034333489" lon="12.108471803012169"><ele>955.0</ele><time>2026-05-02T11:21:37Z</time></trkpt><trkpt lat="43.684795860731164" lon="12.108579612263922"><ele>954.9999999999999</ele><time>2026-05-02T11:21:38Z</time></trkpt><trkpt lat="43.68477395348782" lon="12.108692555245733"><ele>955.0</ele><time>2026-05-02T11:21:39Z</time></trkpt><trkpt lat="43.68475581357922" lon="12.108803921560227"><ele>955.8</ele><time>2026-05-02T11:21:40Z</time></trkpt><trkpt lat="43.684720085056775" lon="12.108913269291387"><ele>956.6</ele><time>2026-05-02T11:21:41Z</time></trkpt><trkpt lat="43.684669860323666" lon="12.109003179960231"><ele>957.4000000000001</ele><time>2026-05-02T11:21:42Z</time></trkpt><trkpt lat="43.68459059746878" lon="12.10907189904772"><ele>958.2</ele><time>2026-05-02T11:21:43Z</time></trkpt><trkpt lat="43.68451956189006" lon="12.109138180128824"><ele>959.0</ele><time>2026-05-02T11:21:44Z</time></trkpt><trkpt lat="43.68445774029866" lon="12.109316105819696"><ele>959.5000000000001</ele><time>2026-05-02T11:21:46Z</time></trkpt><trkpt lat="43.6844536684165" lon="12.10943401140391"><ele>960.0</ele><time>2026-05-02T11:21:47Z</time></trkpt><trkpt lat="43.68446695908542" lon="12.109565201518093"><ele>960.5</ele><time>2026-05-02T11:21:48Z</time></trkpt><trkpt lat="43.684483569684765" lon="12.109699160879078"><ele>961.0</ele><time>2026-05-02T11:21:49Z</time></trkpt><trkpt lat="43.68450656796246" lon="12.109808984086962"><ele>961.5000000000001</ele><time>2026-05-02T11:21:50Z</time></trkpt><trkpt lat="43.68452208783496" lon="12.109894239567755"><ele>962.0</ele><time>2026-05-02T11:21:51Z</time></trkpt><trkpt lat="43.68447113547984" lon="12.110041944281836"><ele>960.0</ele><time>2026-05-02T11:21:53Z</time></trkpt><trkpt lat="43.68439833200482" lon="12.110081731791999"><ele>958.0</ele><time>2026-05-02T11:21:54Z</time></trkpt><trkpt lat="43.68430395560925" lon="12.11010870750435"><ele>956.0</ele><time>2026-05-02T11:21:55Z</time></trkpt><trkpt lat="43.68422090735795" lon="12.110150356827816"><ele>954.0</ele><time>2026-05-02T11:21:56Z</time></trkpt><trkpt lat="43.68413743513232" lon="12.110226766260974"><ele>952.0</ele><time>2026-05-02T11:21:57Z</time></trkpt><trkpt lat="43.68406425348677" lon="12.110301789942795"><ele>952.0</ele><time>2026-05-02T11:21:58Z</time></trkpt><trkpt lat="43.68396857887295" lon="12.110406097155266"><ele>952.0</ele><time>2026-05-02T11:21:59Z</time></trkpt><trkpt lat="43.68387209691314" lon="12.11049453959502"><ele>952.0</ele><time>2026-05-02T11:22:00Z</time></trkpt><trkpt lat="43.683787587089284" lon="12.110569434311191"><ele>952.0</ele><time>2026-05-02T11:22:01Z</time></trkpt><trkpt lat="43.68370603811913" lon="12.110633178136844"><ele>952.0</ele><time>2026-05-02T11:22:02Z</time></trkpt><trkpt lat="43.6836139978324" lon="12.110700771626096"><ele>951.2</ele><time>2026-05-02T11:22:03Z</time></trkpt><trkpt lat="43.68352290996585" lon="12.11077729939365"><ele>950.4000000000001</ele><time>2026-05-02T11:22:04Z</time></trkpt><trkpt lat="43.68343892404624" lon="12.110878940637695"><ele>949.5999999999999</ele><time>2026-05-02T11:22:05Z</time></trkpt><trkpt lat="43.683375214252806" lon="12.110983958517616"><ele>948.8</ele><time>2026-05-02T11:22:06Z</time></trkpt><trkpt lat="43.6833115886289" lon="12.111082627718826"><ele>948.0</ele><time>2026-05-02T11:22:07Z</time></trkpt><trkpt lat="43.68325794473396" lon="12.111158768925602"><ele>948.0</ele><time>2026-05-02T11:22:08Z</time></trkpt><trkpt lat="43.68321328820836" lon="12.111226576377513"><ele>948.0</ele><time>2026-05-02T11:22:09Z</time></trkpt><trkpt lat="43.683157822248155" lon="12.111306193235471"><ele>948.0</ele><time>2026-05-02T11:22:10Z</time></trkpt><trkpt lat="43.683091869149116" lon="12.111386700362312"><ele>948.0</ele><time>2026-05-02T11:22:11Z</time></trkpt><trkpt lat="43.683011349362395" lon="12.111450103740085"><ele>948.0</ele><time>2026-05-02T11:22:12Z</time></trkpt><trkpt lat="43.682934752951354" lon="12.11147891457322"><ele>948.0</ele><time>2026-05-02T11:22:13Z</time></trkpt><trkpt lat="43.68286684935695" lon="12.111490481676624"><ele>949.2</ele><time>2026-05-02T11:22:15Z</time></trkpt><trkpt lat="43.68285068264174" lon="12.111586356746617"><ele>950.4</ele><time>2026-05-02T11:22:21Z</time></trkpt><trkpt lat="43.68293535121804" lon="12.111691850136154"><ele>951.6000000000001</ele><time>2026-05-02T11:22:23Z</time></trkpt><trkpt lat="43.68299309030278" lon="12.111836177184358"><ele>952.8000000000001</ele><time>2026-05-02T11:22:25Z</time></trkpt><trkpt lat="43.68298067684494" lon="12.112021378604222"><ele>954.0</ele><time>2026-05-02T11:22:27Z</time></trkpt><trkpt lat="43.68294744969831" lon="12.112110449024774"><ele>954.0</ele><time>2026-05-02T11:22:28Z</time></trkpt><trkpt lat="43.68289234613247" lon="12.112191441567447"><ele>954.0</ele><time>2026-05-02T11:22:29Z</time></trkpt><trkpt lat="43.68282746975236" lon="12.11225639065872"><ele>954.0</ele><time>2026-05-02T11:22:30Z</time></trkpt><trkpt lat="43.68278366925729" lon="12.11233985917974"><ele>954.0</ele><time>2026-05-02T11:22:31Z</time></trkpt><trkpt lat="43.682751092604" lon="12.112448525382566"><ele>954.0</ele><time>2026-05-02T11:22:32Z</time></trkpt><trkpt lat="43.682730447983836" lon="12.112577633857192"><ele>954.0</ele><time>2026-05-02T11:22:33Z</time></trkpt><trkpt lat="43.68271491548968" lon="12.112698965139696"><ele>954.25</ele><time>2026-05-02T11:22:34Z</time></trkpt><trkpt lat="43.682697327637925" lon="12.11287311867185"><ele>954.5</ele><time>2026-05-02T11:22:35Z</time></trkpt><trkpt lat="43.68268537942662" lon="12.113056474957789"><ele>954.75</ele><time>2026-05-02T11:22:36Z</time></trkpt><trkpt lat="43.6826652087766" lon="12.1132509946147"><ele>955.0</ele><time>2026-05-02T11:22:37Z</time></trkpt><trkpt lat="43.682636652677374" lon="12.113443779905463"><ele>957.5</ele><time>2026-05-02T11:22:38Z</time></trkpt><trkpt lat="43.682603541509614" lon="12.113635388160583"><ele>960.0</ele><time>2026-05-02T11:22:39Z</time></trkpt><trkpt lat="43.682570188402245" lon="12.113783274942719"><ele>962.5</ele><time>2026-05-02T11:22:40Z</time></trkpt><trkpt lat="43.68254076538293" lon="12.113914500286166"><ele>965.0</ele><time>2026-05-02T11:22:41Z</time></trkpt><trkpt lat="43.682506607702265" lon="12.11404489798606"><ele>966.5</ele><time>2026-05-02T11:22:42Z</time></trkpt><trkpt lat="43.682489005848566" lon="12.114201492843433"><ele>968.0</ele><time>2026-05-02T11:22:43Z</time></trkpt><trkpt lat="43.682486638006814" lon="12.114384918769963"><ele>969.5</ele><time>2026-05-02T11:22:44Z</time></trkpt><trkpt lat="43.68248478395772" lon="12.11457550626558"><ele>971.0</ele><time>2026-05-02T11:22:45Z</time></trkpt><trkpt lat="43.68248219400247" lon="12.114754473132098"><ele>971.0</ele><time>2026-05-02T11:22:46Z</time></trkpt><trkpt lat="43.68249072455352" lon="12.114903216798993"><ele>970.9999999999999</ele><time>2026-05-02T11:22:47Z</time></trkpt><trkpt lat="43.68250242329001" lon="12.115043651265326"><ele>970.9999999999999</ele><time>2026-05-02T11:22:48Z</time></trkpt><trkpt lat="43.682528954939826" lon="12.115185149347054"><ele>971.0</ele><time>2026-05-02T11:22:49Z</time></trkpt><trkpt lat="43.68256920664974" lon="12.115302657999168"><ele>971.0</ele><time>2026-05-02T11:22:50Z</time></trkpt><trkpt lat="43.68263100618068" lon="12.115401075892782"><ele>971.8333333333334</ele><time>2026-05-02T11:22:51Z</time></trkpt><trkpt lat="43.6827043175443" lon="12.115472983671753"><ele>972.6666666666667</ele><time>2026-05-02T11:22:52Z</time></trkpt><trkpt lat="43.68278002549522" lon="12.115514434701025"><ele>973.5</ele><time>2026-05-02T11:22:53Z</time></trkpt><trkpt lat="43.68288080533778" lon="12.11554367445709"><ele>974.3333333333333</ele><time>2026-05-02T11:22:54Z</time></trkpt><trkpt lat="43.68296437416598" lon="12.115570207663112"><ele>975.1666666666666</ele><time>2026-05-02T11:22:55Z</time></trkpt><trkpt lat="43.6830346387086" lon="12.115627242808529"><ele>976.0</ele><time>2026-05-02T11:22:57Z</time></trkpt><trkpt lat="43.68307159822975" lon="12.11576126552358"><ele>976.8333333333333</ele><time>2026-05-02T11:22:59Z</time></trkpt><trkpt lat="43.68305225668466" lon="12.115881898942586"><ele>977.6666666666666</ele><time>2026-05-02T11:23:01Z</time></trkpt><trkpt lat="43.68301101514604" lon="12.115950320304764"><ele>978.5</ele><time>2026-05-02T11:23:02Z</time></trkpt><trkpt lat="43.68295622572486" lon="12.116002481542186"><ele>979.3333333333333</ele><time>2026-05-02T11:23:03Z</time></trkpt><trkpt lat="43.68289936571488" lon="12.116051321325038"><ele>980.1666666666666</ele><time>2026-05-02T11:23:04Z</time></trkpt><trkpt lat="43.682795454920374" lon="12.116148697462044"><ele>981.0</ele><time>2026-05-02T11:23:06Z</time></trkpt><trkpt lat="43.68274315767938" lon="12.116198274423253"><ele>981.0</ele><time>2026-05-02T11:23:07Z</time></trkpt><trkpt lat="43.68265986073527" lon="12.116262311013696"><ele>980.9999999999999</ele><time>2026-05-02T11:23:09Z</time></trkpt><trkpt lat="43.68258425862012" lon="12.116278719155835"><ele>980.9999999999999</ele><time>2026-05-02T11:23:12Z</time></trkpt><trkpt lat="43.68253709730159" lon="12.116341475292135"><ele>981.0</ele><time>2026-05-02T11:23:59Z</time></trkpt><trkpt lat="43.682590181893644" lon="12.11645799161295"><ele>981.0</ele><time>2026-05-02T11:24:01Z</time></trkpt><trkpt lat="43.682670621948155" lon="12.116568082443928"><ele>981.3333333333334</ele><time>2026-05-02T11:24:03Z</time></trkpt><trkpt lat="43.6827051984155" lon="12.116662205375807"><ele>981.6666666666667</ele><time>2026-05-02T11:24:04Z</time></trkpt><trkpt lat="43.6827308953069" lon="12.116746119992335"><ele>982.0</ele><time>2026-05-02T11:24:05Z</time></trkpt><trkpt lat="43.68274604876192" lon="12.116897986799184"><ele>982.3333333333334</ele><time>2026-05-02T11:24:07Z</time></trkpt><trkpt lat="43.682781225341" lon="12.116979433502355"><ele>982.6666666666667</ele><time>2026-05-02T11:24:08Z</time></trkpt><trkpt lat="43.682802434543376" lon="12.117085670655632"><ele>983.0</ele><time>2026-05-02T11:24:09Z</time></trkpt><trkpt lat="43.682837274818695" lon="12.11721259381322"><ele>983.0</ele><time>2026-05-02T11:24:10Z</time></trkpt><trkpt lat="43.682868739497216" lon="12.11735724762158"><ele>983.0</ele><time>2026-05-02T11:24:11Z</time></trkpt><trkpt lat="43.682899571797" lon="12.11749839367197"><ele>983.0</ele><time>2026-05-02T11:24:12Z</time></trkpt><trkpt lat="43.68294449587367" lon="12.117626979925166"><ele>983.0</ele><time>2026-05-02T11:24:13Z</time></trkpt><trkpt lat="43.68299619153763" lon="12.11775534853549"><ele>983.0</ele><time>2026-05-02T11:24:14Z</time></trkpt><trkpt lat="43.68306429442674" lon="12.11786970962"><ele>980.75</ele><time>2026-05-02T11:24:15Z</time></trkpt><trkpt lat="43.683143619083594" lon="12.117978954484062"><ele>978.5</ele><time>2026-05-02T11:24:16Z</time></trkpt><trkpt lat="43.68322235424183" lon="12.118094944041037"><ele>976.25</ele><time>2026-05-02T11:24:17Z</time></trkpt><trkpt lat="43.683301332501564" lon="12.11822437227495"><ele>974.0</ele><time>2026-05-02T11:24:18Z</time></trkpt><trkpt lat="43.683378130123224" lon="12.118355410396516"><ele>973.75</ele><time>2026-05-02T11:24:19Z</time></trkpt><trkpt lat="43.68344490656376" lon="12.118487694351984"><ele>973.5</ele><time>2026-05-02T11:24:20Z</time></trkpt><trkpt lat="43.68350249838611" lon="12.118613209385117"><ele>973.25</ele><time>2026-05-02T11:24:21Z</time></trkpt><trkpt lat="43.683555367513584" lon="12.118759013923182"><ele>973.0</ele><time>2026-05-02T11:24:22Z</time></trkpt><trkpt lat="43.68361897228923" lon="12.118915110658486"><ele>969.25</ele><time>2026-05-02T11:24:23Z</time></trkpt><trkpt lat="43.68367988977703" lon="12.11907413320293"><ele>965.5</ele><time>2026-05-02T11:24:24Z</time></trkpt><trkpt lat="43.68372963572255" lon="12.119218905119846"><ele>961.75</ele><time>2026-05-02T11:24:25Z</time></trkpt><trkpt lat="43.683761464584684" lon="12.11936037912729"><ele>958.0</ele><time>2026-05-02T11:24:26Z</time></trkpt><trkpt lat="43.683753917781246" lon="12.119512604855892"><ele>958.0</ele><time>2026-05-02T11:24:27Z</time></trkpt><trkpt lat="43.68375217724706" lon="12.119672296247229"><ele>958.0</ele><time>2026-05-02T11:24:28Z</time></trkpt><trkpt lat="43.68370261241676" lon="12.119824255574237"><ele>958.0</ele><time>2026-05-02T11:24:29Z</time></trkpt><trkpt lat="43.68364296361663" lon="12.119968603781606"><ele>958.0</ele><time>2026-05-02T11:24:30Z</time></trkpt><trkpt lat="43.68360794258648" lon="12.120113692965884"><ele>957.0</ele><time>2026-05-02T11:24:31Z</time></trkpt><trkpt lat="43.683614332333306" lon="12.120255922808926"><ele>956.0</ele><time>2026-05-02T11:24:32Z</time></trkpt><trkpt lat="43.683664648213785" lon="12.120379353764026"><ele>955.0</ele><time>2026-05-02T11:24:33Z</time></trkpt><trkpt lat="43.68375047666515" lon="12.120462808222673"><ele>954.0</ele><time>2026-05-02T11:24:34Z</time></trkpt><trkpt lat="43.68386368905109" lon="12.120509008191476"><ele>953.0</ele><time>2026-05-02T11:24:35Z</time></trkpt><trkpt lat="43.6840003897636" lon="12.120513189780633"><ele>953.0</ele><time>2026-05-02T11:24:36Z</time></trkpt><trkpt lat="43.68414786938034" lon="12.120482075183093"><ele>953.0</ele><time>2026-05-02T11:24:37Z</time></trkpt><trkpt lat="43.68427671474116" lon="12.120455410469111"><ele>953.0</ele><time>2026-05-02T11:24:38Z</time></trkpt><trkpt lat="43.68440121323584" lon="12.120441142310078"><ele>953.0</ele><time>2026-05-02T11:24:39Z</time></trkpt><trkpt lat="43.68453312884596" lon="12.120443796884278"><ele>952.5</ele><time>2026-05-02T11:24:40Z</time></trkpt><trkpt lat="43.68466910910988" lon="12.120495365714016"><ele>952.0</ele><time>2026-05-02T11:24:41Z</time></trkpt><trkpt lat="43.6847734568687" lon="12.120636220550383"><ele>951.5</ele><time>2026-05-02T11:24:42Z</time></trkpt><trkpt lat="43.68486583716076" lon="12.120766831515636"><ele>951.0</ele><time>2026-05-02T11:24:43Z</time></trkpt><trkpt lat="43.68491060387862" lon="12.12092873863617"><ele>949.0</ele><time>2026-05-02T11:24:44Z</time></trkpt><trkpt lat="43.684924461503705" lon="12.121093179634448"><ele>947.0</ele><time>2026-05-02T11:24:45Z</time></trkpt><trkpt lat="43.684897983343156" lon="12.121280062237734"><ele>945.0</ele><time>2026-05-02T11:24:46Z</time></trkpt><trkpt lat="43.684841745281986" lon="12.121489575078359"><ele>943.0</ele><time>2026-05-02T11:24:47Z</time></trkpt><trkpt lat="43.684785467209146" lon="12.121698897423835"><ele>940.0</ele><time>2026-05-02T11:24:48Z</time></trkpt><trkpt lat="43.68474383122121" lon="12.121918067653164"><ele>937.0</ele><time>2026-05-02T11:24:49Z</time></trkpt><trkpt lat="43.684734041932494" lon="12.122158004190839"><ele>934.0</ele><time>2026-05-02T11:24:50Z</time></trkpt><trkpt lat="43.684751196773945" lon="12.122424816667198"><ele>933.3333333333333</ele><time>2026-05-02T11:24:51Z</time></trkpt><trkpt lat="43.68478793267182" lon="12.122697793010808"><ele>932.6666666666667</ele><time>2026-05-02T11:24:52Z</time></trkpt><trkpt lat="43.68482849027487" lon="12.12293467500138"><ele>932.0</ele><time>2026-05-02T11:24:53Z</time></trkpt><trkpt lat="43.6848625128115" lon="12.123148268778735"><ele>931.75</ele><time>2026-05-02T11:24:54Z</time></trkpt><trkpt lat="43.68488784091117" lon="12.123341658089668"><ele>931.5</ele><time>2026-05-02T11:24:55Z</time></trkpt><trkpt lat="43.68491459111661" lon="12.123520302004271"><ele>931.25</ele><time>2026-05-02T11:24:56Z</time></trkpt><trkpt lat="43.68497252357336" lon="12.123692508081987"><ele>931.0</ele><time>2026-05-02T11:24:57Z</time></trkpt><trkpt lat="43.68506977579552" lon="12.123844340856353"><ele>931.0</ele><time>2026-05-02T11:24:58Z</time></trkpt><trkpt lat="43.685200983589546" lon="12.123958586556919"><ele>931.0</ele><time>2026-05-02T11:24:59Z</time></trkpt><trkpt lat="43.685328400868656" lon="12.124043969816299"><ele>931.0</ele><time>2026-05-02T11:25:00Z</time></trkpt><trkpt lat="43.68543206138767" lon="12.124142078487337"><ele>931.0</ele><time>2026-05-02T11:25:01Z</time></trkpt><trkpt lat="43.685514222725345" lon="12.124281859275698"><ele>931.0</ele><time>2026-05-02T11:25:02Z</time></trkpt><trkpt lat="43.685532012608746" lon="12.124495527336215"><ele>931.0</ele><time>2026-05-02T11:25:03Z</time></trkpt><trkpt lat="43.68559219661842" lon="12.12470223545315"><ele>931.0</ele><time>2026-05-02T11:25:04Z</time></trkpt><trkpt lat="43.68565589051302" lon="12.124927051970113"><ele>931.0</ele><time>2026-05-02T11:25:05Z</time></trkpt><trkpt lat="43.68577162807042" lon="12.125164258248983"><ele>931.0</ele><time>2026-05-02T11:25:06Z</time></trkpt><trkpt lat="43.68591602921325" lon="12.125396415647518"><ele>931.0</ele><time>2026-05-02T11:25:07Z</time></trkpt><trkpt lat="43.68607144842387" lon="12.12562541198588"><ele>922.6666666666666</ele><time>2026-05-02T11:25:08Z</time></trkpt><trkpt lat="43.68621628008473" lon="12.125828733008127"><ele>914.3333333333333</ele><time>2026-05-02T11:25:09Z</time></trkpt><trkpt lat="43.68634137580763" lon="12.126011319949892"><ele>906.0</ele><time>2026-05-02T11:25:10Z</time></trkpt><trkpt lat="43.68645499423308" lon="12.126171570609534"><ele>906.0</ele><time>2026-05-02T11:25:11Z</time></trkpt><trkpt lat="43.686555299820874" lon="12.126333851560247"><ele>906.0</ele><time>2026-05-02T11:25:12Z</time></trkpt><trkpt lat="43.68669514797766" lon="12.126488173069568"><ele>906.0</ele><time>2026-05-02T11:25:13Z</time></trkpt><trkpt lat="43.68687239715212" lon="12.126620667454976"><ele>906.0</ele><time>2026-05-02T11:25:14Z</time></trkpt><trkpt lat="43.68706678895839" lon="12.12674158145612"><ele>906.0</ele><time>2026-05-02T11:25:15Z</time></trkpt><trkpt lat="43.68724569392438" lon="12.12685819481037"><ele>906.0</ele><time>2026-05-02T11:25:16Z</time></trkpt><trkpt lat="43.68741513767927" lon="12.127014448875396"><ele>906.0</ele><time>2026-05-02T11:25:17Z</time></trkpt><trkpt lat="43.68755733665058" lon="12.127192572994085"><ele>906.0</ele><time>2026-05-02T11:25:18Z</time></trkpt><trkpt lat="43.68767164493032" lon="12.127360426964822"><ele>906.0</ele><time>2026-05-02T11:25:19Z</time></trkpt><trkpt lat="43.687764014568224" lon="12.127514505817771"><ele>904.75</ele><time>2026-05-02T11:25:20Z</time></trkpt><trkpt lat="43.687869500560275" lon="12.12763870064154"><ele>903.5</ele><time>2026-05-02T11:25:21Z</time></trkpt><trkpt lat="43.68800038239881" lon="12.127718518239101"><ele>902.25</ele><time>2026-05-02T11:25:22Z</time></trkpt><trkpt lat="43.68816236855037" lon="12.12775977096386"><ele>901.0</ele><time>2026-05-02T11:25:23Z</time></trkpt><trkpt lat="43.68833892554528" lon="12.127773625747864"><ele>901.0</ele><time>2026-05-02T11:25:24Z</time></trkpt><trkpt lat="43.68849052094674" lon="12.12778891864742"><ele>901.0</ele><time>2026-05-02T11:25:25Z</time></trkpt><trkpt lat="43.68860887672224" lon="12.12783054600381"><ele>901.0</ele><time>2026-05-02T11:25:26Z</time></trkpt><trkpt lat="43.6887105018569" lon="12.127894673509632"><ele>901.0</ele><time>2026-05-02T11:25:27Z</time></trkpt><trkpt lat="43.688781545659396" lon="12.128070563797841"><ele>899.0</ele><time>2026-05-02T11:25:28Z</time></trkpt><trkpt lat="43.688888629824305" lon="12.128263643033426"><ele>897.0</ele><time>2026-05-02T11:25:29Z</time></trkpt><trkpt lat="43.68902358908317" lon="12.12845459229471"><ele>895.0</ele><time>2026-05-02T11:25:30Z</time></trkpt><trkpt lat="43.689180699270956" lon="12.128625326258259"><ele>895.0</ele><time>2026-05-02T11:25:31Z</time></trkpt><trkpt lat="43.68935639595696" lon="12.128746483827985"><ele>895.0</ele><time>2026-05-02T11:25:32Z</time></trkpt><trkpt lat="43.68953757047965" lon="12.128841905924494"><ele>895.0</ele><time>2026-05-02T11:25:33Z</time></trkpt><trkpt lat="43.68974565876988" lon="12.128927173144845"><ele>885.5</ele><time>2026-05-02T11:25:34Z</time></trkpt><trkpt lat="43.68997478822592" lon="12.128994994331874"><ele>876.0</ele><time>2026-05-02T11:25:35Z</time></trkpt><trkpt lat="43.690189021090156" lon="12.129033645759556"><ele>877.3333333333333</ele><time>2026-05-02T11:25:36Z</time></trkpt><trkpt lat="43.690366242609606" lon="12.129065059189276"><ele>878.6666666666666</ele><time>2026-05-02T11:25:37Z</time></trkpt><trkpt lat="43.69051859980171" lon="12.129105570335726"><ele>880.0</ele><time>2026-05-02T11:25:38Z</time></trkpt><trkpt lat="43.6906517224254" lon="12.129195297931073"><ele>880.0</ele><time>2026-05-02T11:25:39Z</time></trkpt><trkpt lat="43.69077075254433" lon="12.129271532061255"><ele>880.0</ele><time>2026-05-02T11:25:40Z</time></trkpt><trkpt lat="43.69085840539275" lon="12.12937850641522"><ele>880.0</ele><time>2026-05-02T11:25:41Z</time></trkpt><trkpt lat="43.690918672489886" lon="12.129504378916105"><ele>880.0</ele><time>2026-05-02T11:25:42Z</time></trkpt><trkpt lat="43.69091674675006" lon="12.129661565822438"><ele>880.0</ele><time>2026-05-02T11:25:43Z</time></trkpt><trkpt lat="43.69089680109295" lon="12.129842728883581"><ele>880.0</ele><time>2026-05-02T11:25:44Z</time></trkpt><trkpt lat="43.69087161455805" lon="12.130072775495853"><ele>880.0</ele><time>2026-05-02T11:25:45Z</time></trkpt><trkpt lat="43.69087112224615" lon="12.130282634026512"><ele>881.75</ele><time>2026-05-02T11:25:46Z</time></trkpt><trkpt lat="43.690882615279456" lon="12.130459353550764"><ele>883.5</ele><time>2026-05-02T11:25:47Z</time></trkpt><trkpt lat="43.690930198938894" lon="12.130642014847522"><ele>885.25</ele><time>2026-05-02T11:25:48Z</time></trkpt><trkpt lat="43.6910196890402" lon="12.130796902843885"><ele>887.0</ele><time>2026-05-02T11:25:49Z</time></trkpt><trkpt lat="43.69111855422373" lon="12.130913491146366"><ele>882.0</ele><time>2026-05-02T11:25:50Z</time></trkpt><trkpt lat="43.69120255560331" lon="12.13103720881934"><ele>877.0</ele><time>2026-05-02T11:25:51Z</time></trkpt><trkpt lat="43.69128270285103" lon="12.131196976714522"><ele>872.0</ele><time>2026-05-02T11:25:52Z</time></trkpt><trkpt lat="43.69131721657037" lon="12.131400107814601"><ele>867.0</ele><time>2026-05-02T11:25:53Z</time></trkpt><trkpt lat="43.69135830310796" lon="12.13158862575248"><ele>867.0</ele><time>2026-05-02T11:25:54Z</time></trkpt><trkpt lat="43.69140638996315" lon="12.131751451276463"><ele>867.0</ele><time>2026-05-02T11:25:55Z</time></trkpt><trkpt lat="43.6914420845576" lon="12.131919527660143"><ele>867.0</ele><time>2026-05-02T11:25:56Z</time></trkpt><trkpt lat="43.69147595490936" lon="12.132086640659807"><ele>867.0</ele><time>2026-05-02T11:25:57Z</time></trkpt><trkpt lat="43.69151283631258" lon="12.132250784835914"><ele>866.75</ele><time>2026-05-02T11:25:58Z</time></trkpt><trkpt lat="43.691554976203" lon="12.132417542407874"><ele>866.5</ele><time>2026-05-02T11:25:59Z</time></trkpt><trkpt lat="43.69159392188177" lon="12.13257195292505"><ele>866.25</ele><time>2026-05-02T11:26:00Z</time></trkpt><trkpt lat="43.691627299432604" lon="12.132739895712138"><ele>866.0</ele><time>2026-05-02T11:26:01Z</time></trkpt><trkpt lat="43.6916665008545" lon="12.132915186911266"><ele>866.0</ele><time>2026-05-02T11:26:02Z</time></trkpt><trkpt lat="43.69170973396911" lon="12.133092646247345"><ele>866.0</ele><time>2026-05-02T11:26:03Z</time></trkpt><trkpt lat="43.69175651989165" lon="12.133272599805418"><ele>866.0</ele><time>2026-05-02T11:26:04Z</time></trkpt><trkpt lat="43.69181724471898" lon="12.133448778464107"><ele>866.0</ele><time>2026-05-02T11:26:05Z</time></trkpt><trkpt lat="43.69188942349888" lon="12.133619364185144"><ele>866.0</ele><time>2026-05-02T11:26:06Z</time></trkpt><trkpt lat="43.69196483109968" lon="12.133792647940144"><ele>866.0</ele><time>2026-05-02T11:26:07Z</time></trkpt><trkpt lat="43.6920414104046" lon="12.13396688871222"><ele>866.0</ele><time>2026-05-02T11:26:08Z</time></trkpt><trkpt lat="43.69211514547011" lon="12.134144550314218"><ele>866.0</ele><time>2026-05-02T11:26:09Z</time></trkpt><trkpt lat="43.692177674501245" lon="12.134307938552663"><ele>866.0</ele><time>2026-05-02T11:26:10Z</time></trkpt><trkpt lat="43.6922154640181" lon="12.134452627887825"><ele>865.9999999999999</ele><time>2026-05-02T11:26:11Z</time></trkpt><trkpt lat="43.69224781418369" lon="12.134581718100252"><ele>865.9999999999999</ele><time>2026-05-02T11:26:12Z</time></trkpt><trkpt lat="43.69230882419793" lon="12.13469657870454"><ele>866.0</ele><time>2026-05-02T11:26:13Z</time></trkpt><trkpt lat="43.69241644112526" lon="12.13479102064724"><ele>866.0</ele><time>2026-05-02T11:26:14Z</time></trkpt><trkpt lat="43.69253751661457" lon="12.134862013013157"><ele>866.75</ele><time>2026-05-02T11:26:15Z</time></trkpt><trkpt lat="43.692658904098636" lon="12.134932374516445"><ele>867.5</ele><time>2026-05-02T11:26:16Z</time></trkpt><trkpt lat="43.69277094187665" lon="12.134997690750117"><ele>868.25</ele><time>2026-05-02T11:26:17Z</time></trkpt><trkpt lat="43.69288355926805" lon="12.135071153744429"><ele>869.0</ele><time>2026-05-02T11:26:18Z</time></trkpt><trkpt lat="43.69299294223591" lon="12.135144496427293"><ele>866.8000000000001</ele><time>2026-05-02T11:26:19Z</time></trkpt><trkpt lat="43.693104937529135" lon="12.135219970022312"><ele>864.6000000000001</ele><time>2026-05-02T11:26:20Z</time></trkpt><trkpt lat="43.6932183403927" lon="12.135269044518253"><ele>862.4</ele><time>2026-05-02T11:26:21Z</time></trkpt><trkpt lat="43.693319001547664" lon="12.135309917298668"><ele>860.2</ele><time>2026-05-02T11:26:22Z</time></trkpt><trkpt lat="43.69341083427574" lon="12.135342514725846"><ele>858.0</ele><time>2026-05-02T11:26:23Z</time></trkpt><trkpt lat="43.69350578775756" lon="12.135378806558185"><ele>857.8</ele><time>2026-05-02T11:26:24Z</time></trkpt><trkpt lat="43.693601673323656" lon="12.135450015941856"><ele>857.5999999999999</ele><time>2026-05-02T11:26:25Z</time></trkpt><trkpt lat="43.69367444309677" lon="12.135562362729537"><ele>857.4000000000001</ele><time>2026-05-02T11:26:26Z</time></trkpt><trkpt lat="43.69373014090764" lon="12.135678032533317"><ele>857.2</ele><time>2026-05-02T11:26:27Z</time></trkpt><trkpt lat="43.69379359178706" lon="12.135808192342605"><ele>857.0</ele><time>2026-05-02T11:26:28Z</time></trkpt><trkpt lat="43.693876201531786" lon="12.135912858301102"><ele>857.0</ele><time>2026-05-02T11:26:29Z</time></trkpt><trkpt lat="43.69398670552523" lon="12.135963268424236"><ele>857.0</ele><time>2026-05-02T11:26:30Z</time></trkpt><trkpt lat="43.69410527076057" lon="12.135960951708217"><ele>857.0</ele><time>2026-05-02T11:26:31Z</time></trkpt><trkpt lat="43.69421257071576" lon="12.135935221392948"><ele>857.0</ele><time>2026-05-02T11:26:32Z</time></trkpt><trkpt lat="43.69434119303661" lon="12.135940165299424"><ele>854.0</ele><time>2026-05-02T11:26:33Z</time></trkpt><trkpt lat="43.69447270192479" lon="12.13598629193705"><ele>851.0</ele><time>2026-05-02T11:26:34Z</time></trkpt><trkpt lat="43.69459739295915" lon="12.13606965847353"><ele>848.0</ele><time>2026-05-02T11:26:35Z</time></trkpt><trkpt lat="43.69471042850642" lon="12.136189891320068"><ele>845.0</ele><time>2026-05-02T11:26:36Z</time></trkpt><trkpt lat="43.69483783204722" lon="12.136316583868323"><ele>845.0</ele><time>2026-05-02T11:26:37Z</time></trkpt><trkpt lat="43.69498135890115" lon="12.136414523331739"><ele>845.0</ele><time>2026-05-02T11:26:38Z</time></trkpt><trkpt lat="43.69514658285686" lon="12.136459073903753"><ele>845.0</ele><time>2026-05-02T11:26:39Z</time></trkpt><trkpt lat="43.69531731267469" lon="12.136480784190589"><ele>844.25</ele><time>2026-05-02T11:26:40Z</time></trkpt><trkpt lat="43.6954753168963" lon="12.13650461079628"><ele>843.5</ele><time>2026-05-02T11:26:41Z</time></trkpt><trkpt lat="43.69561678722667" lon="12.136528056106178"><ele>842.75</ele><time>2026-05-02T11:26:42Z</time></trkpt><trkpt lat="43.695748766031684" lon="12.136551930472336"><ele>842.0</ele><time>2026-05-02T11:26:43Z</time></trkpt><trkpt lat="43.695877117155646" lon="12.136573637835443"><ele>842.0</ele><time>2026-05-02T11:26:44Z</time></trkpt><trkpt lat="43.69599866611268" lon="12.136591102093352"><ele>842.0</ele><time>2026-05-02T11:26:45Z</time></trkpt><trkpt lat="43.696130012006286" lon="12.136616489773418"><ele>842.0</ele><time>2026-05-02T11:26:46Z</time></trkpt><trkpt lat="43.69626029180732" lon="12.13662990407733"><ele>842.0</ele><time>2026-05-02T11:26:47Z</time></trkpt><trkpt lat="43.696406960831595" lon="12.136670740010098"><ele>841.5</ele><time>2026-05-02T11:26:48Z</time></trkpt><trkpt lat="43.69655132164824" lon="12.136743532493945"><ele>841.0</ele><time>2026-05-02T11:26:49Z</time></trkpt><trkpt lat="43.69667785484601" lon="12.136834783561008"><ele>840.5</ele><time>2026-05-02T11:26:50Z</time></trkpt><trkpt lat="43.696786814793704" lon="12.136922225183081"><ele>840.0</ele><time>2026-05-02T11:26:51Z</time></trkpt><trkpt lat="43.696889786030155" lon="12.136986324783612"><ele>838.6</ele><time>2026-05-02T11:26:52Z</time></trkpt><trkpt lat="43.697009239333994" lon="12.137025806542912"><ele>837.2</ele><time>2026-05-02T11:26:53Z</time></trkpt><trkpt lat="43.697118878082875" lon="12.137028285094308"><ele>835.8</ele><time>2026-05-02T11:26:54Z</time></trkpt><trkpt lat="43.69722075886645" lon="12.137025629772861"><ele>834.4</ele><time>2026-05-02T11:26:55Z</time></trkpt><trkpt lat="43.69728992386246" lon="12.137020290784276"><ele>833.0</ele><time>2026-05-02T11:26:56Z</time></trkpt><trkpt lat="43.6973703523765" lon="12.137010373467435"><ele>833.0</ele><time>2026-05-02T11:27:21Z</time></trkpt><trkpt lat="43.69746227498144" lon="12.136978769097347"><ele>833.0</ele><time>2026-05-02T11:27:22Z</time></trkpt><trkpt lat="43.697575958817026" lon="12.136950583973475"><ele>833.0</ele><time>2026-05-02T11:27:23Z</time></trkpt><trkpt lat="43.697719008280295" lon="12.136926486061542"><ele>833.0</ele><time>2026-05-02T11:27:24Z</time></trkpt><trkpt lat="43.697878303373116" lon="12.136917128612506"><ele>831.5</ele><time>2026-05-02T11:27:25Z</time></trkpt><trkpt lat="43.698013700567635" lon="12.136921027036902"><ele>830.0</ele><time>2026-05-02T11:27:26Z</time></trkpt><trkpt lat="43.69814707029412" lon="12.136947714319321"><ele>828.5</ele><time>2026-05-02T11:27:27Z</time></trkpt><trkpt lat="43.698286221423224" lon="12.137014367106495"><ele>827.0</ele><time>2026-05-02T11:27:28Z</time></trkpt><trkpt lat="43.69841511948906" lon="12.137108798120332"><ele>827.0</ele><time>2026-05-02T11:27:29Z</time></trkpt><trkpt lat="43.69852489929038" lon="12.137234232674544"><ele>827.0</ele><time>2026-05-02T11:27:30Z</time></trkpt><trkpt lat="43.69862093075166" lon="12.137393605066938"><ele>827.0</ele><time>2026-05-02T11:27:31Z</time></trkpt><trkpt lat="43.698706478861624" lon="12.137584812870186"><ele>830.6666666666667</ele><time>2026-05-02T11:27:32Z</time></trkpt><trkpt lat="43.698767153492994" lon="12.137802129486012"><ele>834.3333333333333</ele><time>2026-05-02T11:27:33Z</time></trkpt><trkpt lat="43.69880765964901" lon="12.138002795673124"><ele>838.0</ele><time>2026-05-02T11:27:34Z</time></trkpt><trkpt lat="43.698826545439076" lon="12.138195012208861"><ele>837.75</ele><time>2026-05-02T11:27:35Z</time></trkpt><trkpt lat="43.69885138247191" lon="12.138394776859103"><ele>837.5</ele><time>2026-05-02T11:27:36Z</time></trkpt><trkpt lat="43.698908444290616" lon="12.13856655001383"><ele>837.25</ele><time>2026-05-02T11:27:37Z</time></trkpt><trkpt lat="43.699000680233674" lon="12.138694401699556"><ele>837.0</ele><time>2026-05-02T11:27:38Z</time></trkpt><trkpt lat="43.69911914763708" lon="12.138782374486237"><ele>837.0</ele><time>2026-05-02T11:27:39Z</time></trkpt><trkpt lat="43.69925194134799" lon="12.138814496191237"><ele>837.0</ele><time>2026-05-02T11:27:40Z</time></trkpt><trkpt lat="43.69940457977245" lon="12.138803851969334"><ele>837.0</ele><time>2026-05-02T11:27:41Z</time></trkpt><trkpt lat="43.6995849400487" lon="12.138757472775033"><ele>836.6666666666667</ele><time>2026-05-02T11:27:42Z</time></trkpt><trkpt lat="43.69976731127825" lon="12.138738143669034"><ele>836.3333333333334</ele><time>2026-05-02T11:27:43Z</time></trkpt><trkpt lat="43.69995357722769" lon="12.138744742876975"><ele>836.0</ele><time>2026-05-02T11:27:44Z</time></trkpt><trkpt lat="43.700123439749426" lon="12.138765695106196"><ele>834.6666666666667</ele><time>2026-05-02T11:27:45Z</time></trkpt><trkpt lat="43.70030120394705" lon="12.138788087984187"><ele>833.3333333333333</ele><time>2026-05-02T11:27:46Z</time></trkpt><trkpt lat="43.70047934726411" lon="12.138792649694535"><ele>832.0</ele><time>2026-05-02T11:27:47Z</time></trkpt><trkpt lat="43.70065999740074" lon="12.13877691021879"><ele>832.0</ele><time>2026-05-02T11:27:48Z</time></trkpt><trkpt lat="43.7008334026486" lon="12.138755793073337"><ele>832.0</ele><time>2026-05-02T11:27:49Z</time></trkpt><trkpt lat="43.70100461829542" lon="12.138736910715785"><ele>832.0</ele><time>2026-05-02T11:27:50Z</time></trkpt><trkpt lat="43.70117189909668" lon="12.138724360132962"><ele>833.6666666666666</ele><time>2026-05-02T11:27:51Z</time></trkpt><trkpt lat="43.701328296306436" lon="12.138713592910621"><ele>835.3333333333333</ele><time>2026-05-02T11:27:52Z</time></trkpt><trkpt lat="43.701479381343106" lon="12.138697925393513"><ele>837.0</ele><time>2026-05-02T11:27:53Z</time></trkpt><trkpt lat="43.70162914628358" lon="12.138679271763074"><ele>837.0</ele><time>2026-05-02T11:27:54Z</time></trkpt><trkpt lat="43.70177455493269" lon="12.138664930066259"><ele>837.0</ele><time>2026-05-02T11:27:55Z</time></trkpt><trkpt lat="43.70192387465125" lon="12.138652949422193"><ele>837.0</ele><time>2026-05-02T11:27:56Z</time></trkpt><trkpt lat="43.70207617325785" lon="12.138643616447428"><ele>837.0</ele><time>2026-05-02T11:27:57Z</time></trkpt><trkpt lat="43.70222656835328" lon="12.138647820438365"><ele>836.5</ele><time>2026-05-02T11:27:58Z</time></trkpt><trkpt lat="43.702371195479486" lon="12.138657773889259"><ele>836.0</ele><time>2026-05-02T11:27:59Z</time></trkpt><trkpt lat="43.702508625452424" lon="12.138676189187136"><ele>835.5</ele><time>2026-05-02T11:28:00Z</time></trkpt><trkpt lat="43.70264300389004" lon="12.138697307141207"><ele>835.0</ele><time>2026-05-02T11:28:01Z</time></trkpt><trkpt lat="43.70277779302112" lon="12.138707047099171"><ele>835.0</ele><time>2026-05-02T11:28:02Z</time></trkpt><trkpt lat="43.702918954976326" lon="12.138706054365201"><ele>835.0</ele><time>2026-05-02T11:28:03Z</time></trkpt><trkpt lat="43.70305892910738" lon="12.1386811887267"><ele>835.0</ele><time>2026-05-02T11:28:04Z</time></trkpt><trkpt lat="43.703192207425154" lon="12.138649280142305"><ele>835.0</ele><time>2026-05-02T11:28:05Z</time></trkpt><trkpt lat="43.70330029906791" lon="12.138630655140272"><ele>834.9999999999999</ele><time>2026-05-02T11:28:06Z</time></trkpt><trkpt lat="43.70339566806901" lon="12.13862374138899"><ele>835.0</ele><time>2026-05-02T11:28:07Z</time></trkpt><trkpt lat="43.703475125056215" lon="12.13861400370082"><ele>835.0</ele><time>2026-05-02T11:28:08Z</time></trkpt><trkpt lat="43.70356073226912" lon="12.138589481037975"><ele>835.0</ele><time>2026-05-02T11:28:10Z</time></trkpt><trkpt lat="43.70348069456383" lon="12.138599404788382"><ele>834.9999999999999</ele><time>2026-05-02T11:28:18Z</time></trkpt><trkpt lat="43.70347321323848" lon="12.138476349894201"><ele>835.0</ele><time>2026-05-02T11:28:19Z</time></trkpt><trkpt lat="43.7033846162026" lon="12.138444552189394"><ele>835.0000000000001</ele><time>2026-05-02T11:28:48Z</time></trkpt><trkpt lat="43.703315100160545" lon="12.138422178476581"><ele>835.0</ele><time>2026-05-02T11:28:51Z</time></trkpt><trkpt lat="43.70333783635882" lon="12.138504378936265"><ele>835.0</ele><time>2026-05-02T11:28:54Z</time></trkpt><trkpt lat="43.703392779905016" lon="12.138554485935247"><ele>835.0</ele><time>2026-05-02T11:28:56Z</time></trkpt><trkpt lat="43.70348288592032" lon="12.138542752144723"><ele>835.0</ele><time>2026-05-02T11:28:58Z</time></trkpt><trkpt lat="43.70354722104314" lon="12.13852680164278"><ele>835.0000000000001</ele><time>2026-05-02T11:29:00Z</time></trkpt><trkpt lat="43.70360941465134" lon="12.138512918057952"><ele>835.0</ele><time>2026-05-02T11:29:55Z</time></trkpt><trkpt lat="43.703673549286506" lon="12.138527380218521"><ele>834.9999999999999</ele><time>2026-05-02T11:30:04Z</time></trkpt><trkpt lat="43.70360150221592" lon="12.138511465618542"><ele>835.0</ele><time>2026-05-02T11:34:12Z</time></trkpt><trkpt lat="43.703545142110315" lon="12.138454595546808"><ele>835.0</ele><time>2026-05-02T11:34:17Z</time></trkpt><trkpt lat="43.70349412837796" lon="12.138398930319044"><ele>835.0</ele><time>2026-05-02T11:34:26Z</time></trkpt><trkpt lat="43.70342502408075" lon="12.13839927590286"><ele>834.9999999999999</ele><time>2026-05-02T11:34:45Z</time></trkpt><trkpt lat="43.703360729980226" lon="12.138548782759898"><ele>835.0</ele><time>2026-05-02T11:35:17Z</time></trkpt><trkpt lat="43.703442083129666" lon="12.138378004495454"><ele>835.0</ele><time>2026-05-02T11:35:25Z</time></trkpt><trkpt lat="43.70356477827915" lon="12.138488522696386"><ele>835.0</ele><time>2026-05-02T11:35:55Z</time></trkpt><trkpt lat="43.70350369149319" lon="12.138430721331247"><ele>835.0</ele><time>2026-05-02T11:35:57Z</time></trkpt><trkpt lat="43.70344458609783" lon="12.138369022533276"><ele>835.0</ele><time>2026-05-02T11:36:01Z</time></trkpt><trkpt lat="43.703388260967166" lon="12.13830545710203"><ele>835.0</ele><time>2026-05-02T11:36:19Z</time></trkpt><trkpt lat="43.70344033904748" lon="12.13837331767408"><ele>835.0</ele><time>2026-05-02T11:36:56.417Z</time></trkpt></trkseg><trkseg><trkpt lat="43.71178993902793" lon="12.087857556552821"><ele>963.0</ele><time>2026-05-02T13:26:36.012Z</time></trkpt><trkpt lat="43.71188838709046" lon="12.087779652605406"><ele>963.0</ele><time>2026-05-02T13:27:25.008Z</time></trkpt><trkpt lat="43.71197490617621" lon="12.087746124629673"><ele>963.0</ele><time>2026-05-02T13:27:26.009Z</time></trkpt><trkpt lat="43.71205885173127" lon="12.087731322673147"><ele>963.0</ele><time>2026-05-02T13:27:27.005Z</time></trkpt><trkpt lat="43.712160212181445" lon="12.087733927209179"><ele>963.0</ele><time>2026-05-02T13:27:28.01Z</time></trkpt><trkpt lat="43.71226088704939" lon="12.08778178842484"><ele>964.0</ele><time>2026-05-02T13:27:29.008Z</time></trkpt><trkpt lat="43.712344244840736" lon="12.087807339990874"><ele>965.0</ele><time>2026-05-02T13:27:30.01Z</time></trkpt><trkpt lat="43.71243755680882" lon="12.087845334581392"><ele>966.0</ele><time>2026-05-02T13:27:31.009Z</time></trkpt><trkpt lat="43.71251738434754" lon="12.087918997038313"><ele>967.0</ele><time>2026-05-02T13:27:32.006Z</time></trkpt><trkpt lat="43.71259124465142" lon="12.087968554190946"><ele>968.0</ele><time>2026-05-02T13:27:33.006Z</time></trkpt><trkpt lat="43.71266510944928" lon="12.08801811432092"><ele>969.0</ele><time>2026-05-02T13:27:34.004Z</time></trkpt><trkpt lat="43.71274023605637" lon="12.088040959208605"><ele>968.8000000000001</ele><time>2026-05-02T13:27:35.004Z</time></trkpt><trkpt lat="43.71281340489825" lon="12.088020912161422"><ele>968.6000000000001</ele><time>2026-05-02T13:27:36.007Z</time></trkpt><trkpt lat="43.712925361134765" lon="12.088081917241384"><ele>968.4</ele><time>2026-05-02T13:27:38.005Z</time></trkpt><trkpt lat="43.713002868210076" lon="12.088145083003324"><ele>968.2</ele><time>2026-05-02T13:27:41.007Z</time></trkpt><trkpt lat="43.713035091189134" lon="12.088277108287452"><ele>968.0</ele><time>2026-05-02T13:27:43.003Z</time></trkpt><trkpt lat="43.713093956833475" lon="12.088341390128189"><ele>968.0000000000001</ele><time>2026-05-02T13:27:44.004Z</time></trkpt><trkpt lat="43.713122153191485" lon="12.088452533656843"><ele>968.0</ele><time>2026-05-02T13:27:45.006Z</time></trkpt><trkpt lat="43.71318236810651" lon="12.088516348828371"><ele>968.0</ele><time>2026-05-02T13:27:46.004Z</time></trkpt><trkpt lat="43.713251445851675" lon="12.088573780384781"><ele>968.0</ele><time>2026-05-02T13:27:51.003Z</time></trkpt><trkpt lat="43.71330526153386" lon="12.08864028045654"><ele>968.0000000000001</ele><time>2026-05-02T13:27:59.003Z</time></trkpt><trkpt lat="43.71331521143882" lon="12.08872821677314"><ele>968.0</ele><time>2026-05-02T13:28:03.007Z</time></trkpt><trkpt lat="43.71332734783307" lon="12.088628307037371"><ele>968.0</ele><time>2026-05-02T13:28:13.005Z</time></trkpt><trkpt lat="43.713445033666595" lon="12.08862548255506"><ele>968.0</ele><time>2026-05-02T13:28:15.002Z</time></trkpt><trkpt lat="43.71353154902624" lon="12.088678896559033"><ele>968.0</ele><time>2026-05-02T13:28:16.003Z</time></trkpt><trkpt lat="43.713638430777884" lon="12.088730023806276"><ele>968.0</ele><time>2026-05-02T13:28:17Z</time></trkpt><trkpt lat="43.713685843842654" lon="12.088960289135168"><ele>966.5000000000001</ele><time>2026-05-02T13:28:18.005Z</time></trkpt><trkpt lat="43.713779675012724" lon="12.089028032685764"><ele>965.0</ele><time>2026-05-02T13:28:19.006Z</time></trkpt><trkpt lat="43.713846490299055" lon="12.089085689363596"><ele>963.5</ele><time>2026-05-02T13:28:20.002Z</time></trkpt><trkpt lat="43.713901508314855" lon="12.089142637014453"><ele>962.0</ele><time>2026-05-02T13:28:21.005Z</time></trkpt><trkpt lat="43.71396662940464" lon="12.089255546719505"><ele>960.5000000000001</ele><time>2026-05-02T13:28:23.004Z</time></trkpt><trkpt lat="43.71401672544214" lon="12.089320866485362"><ele>959.0</ele><time>2026-05-02T13:28:23.979Z</time></trkpt><trkpt lat="43.714083551419144" lon="12.089396274271918"><ele>959.0</ele><time>2026-05-02T13:28:25.982Z</time></trkpt><trkpt lat="43.71415509891155" lon="12.0894509344897"><ele>959.0000000000001</ele><time>2026-05-02T13:28:26.983Z</time></trkpt><trkpt lat="43.7142159118113" lon="12.089488899938827"><ele>959.0000000000001</ele><time>2026-05-02T13:28:27.984Z</time></trkpt><trkpt lat="43.71428410354875" lon="12.08951515526197"><ele>959.0</ele><time>2026-05-02T13:28:28.985Z</time></trkpt><trkpt lat="43.714420682370815" lon="12.089389607232748"><ele>959.0</ele><time>2026-05-02T13:28:29.986Z</time></trkpt><trkpt lat="43.71452369165419" lon="12.089347643126239"><ele>958.6</ele><time>2026-05-02T13:28:31.988Z</time></trkpt><trkpt lat="43.71459085922214" lon="12.089296792794581"><ele>958.2</ele><time>2026-05-02T13:28:34.99Z</time></trkpt><trkpt lat="43.71466066541407" lon="12.089225390776107"><ele>957.8000000000001</ele><time>2026-05-02T13:28:37.992Z</time></trkpt><trkpt lat="43.714745293565855" lon="12.089157399094233"><ele>957.4000000000001</ele><time>2026-05-02T13:28:40.994Z</time></trkpt><trkpt lat="43.71482716143283" lon="12.08903886654354"><ele>957.0</ele><time>2026-05-02T13:28:42.995Z</time></trkpt><trkpt lat="43.7148928972227" lon="12.088978474398372"><ele>960.0</ele><time>2026-05-02T13:28:43.995Z</time></trkpt><trkpt lat="43.71496376636843" lon="12.088917953235217"><ele>963.0</ele><time>2026-05-02T13:28:44.995Z</time></trkpt><trkpt lat="43.7150268177935" lon="12.088872957345695"><ele>966.0</ele><time>2026-05-02T13:28:45.996Z</time></trkpt><trkpt lat="43.71514635701115" lon="12.088853420926428"><ele>969.0</ele><time>2026-05-02T13:28:47.996Z</time></trkpt><trkpt lat="43.715282131128745" lon="12.088939258152664"><ele>972.0</ele><time>2026-05-02T13:28:49.997Z</time></trkpt><trkpt lat="43.71539173616107" lon="12.08902855082343"><ele>971.0</ele><time>2026-05-02T13:28:50.997Z</time></trkpt><trkpt lat="43.715493305044085" lon="12.089126300460846"><ele>970.0</ele><time>2026-05-02T13:28:51.997Z</time></trkpt><trkpt lat="43.71557897925411" lon="12.08920689965909"><ele>969.0</ele><time>2026-05-02T13:28:52.997Z</time></trkpt><trkpt lat="43.71565843274101" lon="12.089285739522973"><ele>968.0</ele><time>2026-05-02T13:28:53.998Z</time></trkpt><trkpt lat="43.71573371546509" lon="12.0893829062355"><ele>967.0</ele><time>2026-05-02T13:28:54.998Z</time></trkpt><trkpt lat="43.715785214882224" lon="12.089479892443538"><ele>966.9999999999999</ele><time>2026-05-02T13:28:55.998Z</time></trkpt><trkpt lat="43.71582611576406" lon="12.089582578675532"><ele>967.0</ele><time>2026-05-02T13:28:56.998Z</time></trkpt><trkpt lat="43.715862217318765" lon="12.089658308194172"><ele>967.0</ele><time>2026-05-02T13:28:57.998Z</time></trkpt><trkpt lat="43.71592000490228" lon="12.089727104724311"><ele>967.0</ele><time>2026-05-02T13:28:58.998Z</time></trkpt><trkpt lat="43.71599182872794" lon="12.089771680390674"><ele>966.9999999999999</ele><time>2026-05-02T13:28:59.999Z</time></trkpt><trkpt lat="43.71606797094783" lon="12.089787332559013"><ele>967.0</ele><time>2026-05-02T13:29:00.999Z</time></trkpt><trkpt lat="43.71614387948349" lon="12.089781402189663"><ele>968.5714285714287</ele><time>2026-05-02T13:29:01.999Z</time></trkpt><trkpt lat="43.71620407901239" lon="12.089753518594717"><ele>970.1428571428571</ele><time>2026-05-02T13:29:02.999Z</time></trkpt><trkpt lat="43.71627100411961" lon="12.089737374009292"><ele>971.7142857142858</ele><time>2026-05-02T13:29:03.999Z</time></trkpt><trkpt lat="43.71634173559519" lon="12.089721376124341"><ele>973.2857142857143</ele><time>2026-05-02T13:29:04.999Z</time></trkpt><trkpt lat="43.716413776156486" lon="12.089735355328946"><ele>974.8571428571429</ele><time>2026-05-02T13:29:05.999Z</time></trkpt><trkpt lat="43.71648604496038" lon="12.08974743734196"><ele>976.4285714285714</ele><time>2026-05-02T13:29:06.999Z</time></trkpt><trkpt lat="43.71655755376337" lon="12.08977683030633"><ele>978.0</ele><time>2026-05-02T13:29:07.999Z</time></trkpt><trkpt lat="43.71662435949301" lon="12.089804087045453"><ele>978.0</ele><time>2026-05-02T13:29:08.999Z</time></trkpt><trkpt lat="43.7167551646645" lon="12.089846222424454"><ele>978.0</ele><time>2026-05-02T13:29:11Z</time></trkpt><trkpt lat="43.716853327025575" lon="12.089831430363274"><ele>978.0</ele><time>2026-05-02T13:29:12Z</time></trkpt><trkpt lat="43.71695832432246" lon="12.089805363173989"><ele>978.0</ele><time>2026-05-02T13:29:13Z</time></trkpt><trkpt lat="43.71704643286138" lon="12.089785319862637"><ele>978.0</ele><time>2026-05-02T13:29:14Z</time></trkpt><trkpt lat="43.71713313958063" lon="12.089752970018488"><ele>976.8333333333334</ele><time>2026-05-02T13:29:15Z</time></trkpt><trkpt lat="43.717210218697176" lon="12.089707587613846"><ele>975.6666666666667</ele><time>2026-05-02T13:29:16Z</time></trkpt><trkpt lat="43.71729262701511" lon="12.089657588011423"><ele>974.5</ele><time>2026-05-02T13:29:17Z</time></trkpt><trkpt lat="43.717363218161935" lon="12.08959342988818"><ele>973.3333333333334</ele><time>2026-05-02T13:29:18Z</time></trkpt><trkpt lat="43.71743158728782" lon="12.089545505807612"><ele>972.1666666666667</ele><time>2026-05-02T13:29:19Z</time></trkpt><trkpt lat="43.717512161856995" lon="12.08947665608734"><ele>971.0</ele><time>2026-05-02T13:29:20Z</time></trkpt><trkpt lat="43.71756095123067" lon="12.089420868690043"><ele>971.0</ele><time>2026-05-02T13:29:21Z</time></trkpt><trkpt lat="43.717624331934445" lon="12.089369164491549"><ele>970.9999999999999</ele><time>2026-05-02T13:29:22Z</time></trkpt><trkpt lat="43.71773307429317" lon="12.089353782838478"><ele>970.9999999999999</ele><time>2026-05-02T13:29:24Z</time></trkpt><trkpt lat="43.71786819869585" lon="12.089348947079868"><ele>971.0</ele><time>2026-05-02T13:29:26Z</time></trkpt><trkpt lat="43.71795024305286" lon="12.089287063185468"><ele>971.0</ele><time>2026-05-02T13:29:27Z</time></trkpt><trkpt lat="43.7180344415532" lon="12.089203405322804"><ele>970.0000000000001</ele><time>2026-05-02T13:29:28Z</time></trkpt><trkpt lat="43.71812093326887" lon="12.089123745999348"><ele>969.0</ele><time>2026-05-02T13:29:29Z</time></trkpt><trkpt lat="43.718186482106034" lon="12.089058133991923"><ele>968.0</ele><time>2026-05-02T13:29:30Z</time></trkpt><trkpt lat="43.71825042183829" lon="12.089021087098507"><ele>967.0</ele><time>2026-05-02T13:29:31Z</time></trkpt><trkpt lat="43.718330377337445" lon="12.089025370917788"><ele>966.0000000000001</ele><time>2026-05-02T13:29:32Z</time></trkpt><trkpt lat="43.718432363122695" lon="12.089071427999246"><ele>965.0</ele><time>2026-05-02T13:29:33Z</time></trkpt><trkpt lat="43.71852807961403" lon="12.08913243750593"><ele>966.8</ele><time>2026-05-02T13:29:34Z</time></trkpt><trkpt lat="43.71862345719888" lon="12.089177665921683"><ele>968.6</ele><time>2026-05-02T13:29:35Z</time></trkpt><trkpt lat="43.718703632079865" lon="12.089210680709442"><ele>970.4000000000001</ele><time>2026-05-02T13:29:36Z</time></trkpt><trkpt lat="43.71879910243489" lon="12.08926627447752"><ele>972.2</ele><time>2026-05-02T13:29:37Z</time></trkpt><trkpt lat="43.7188790719791" lon="12.089311796632687"><ele>974.0</ele><time>2026-05-02T13:29:38Z</time></trkpt><trkpt lat="43.71894012267081" lon="12.089372483044187"><ele>974.0</ele><time>2026-05-02T13:29:39Z</time></trkpt><trkpt lat="43.718999588404735" lon="12.089500833842179"><ele>974.0000000000001</ele><time>2026-05-02T13:29:41Z</time></trkpt><trkpt lat="43.71899872534651" lon="12.089594198252822"><ele>974.0000000000001</ele><time>2026-05-02T13:29:42Z</time></trkpt><trkpt lat="43.71897331315164" lon="12.089698685908905"><ele>974.0</ele><time>2026-05-02T13:29:43Z</time></trkpt><trkpt lat="43.71891562117273" lon="12.089815737346258"><ele>974.0</ele><time>2026-05-02T13:29:44Z</time></trkpt><trkpt lat="43.71885991582329" lon="12.089950909019485"><ele>974.8000000000001</ele><time>2026-05-02T13:29:45Z</time></trkpt><trkpt lat="43.718826645983896" lon="12.090083824487309"><ele>975.6000000000001</ele><time>2026-05-02T13:29:46Z</time></trkpt><trkpt lat="43.71881130886027" lon="12.090187894448595"><ele>976.4</ele><time>2026-05-02T13:29:47Z</time></trkpt><trkpt lat="43.718822089414694" lon="12.090298132125266"><ele>977.2</ele><time>2026-05-02T13:29:48Z</time></trkpt><trkpt lat="43.7188183384301" lon="12.09045104874692"><ele>978.0</ele><time>2026-05-02T13:29:49Z</time></trkpt><trkpt lat="43.71888065314858" lon="12.090594645209428"><ele>978.0</ele><time>2026-05-02T13:29:50Z</time></trkpt><trkpt lat="43.718894117150086" lon="12.090736632859578"><ele>978.0</ele><time>2026-05-02T13:29:51Z</time></trkpt><trkpt lat="43.71889923258885" lon="12.090858818317617"><ele>978.0</ele><time>2026-05-02T13:29:52Z</time></trkpt><trkpt lat="43.71888814444008" lon="12.09096756868288"><ele>978.0</ele><time>2026-05-02T13:29:53Z</time></trkpt><trkpt lat="43.71887281800108" lon="12.091058793890605"><ele>978.0</ele><time>2026-05-02T13:29:54Z</time></trkpt><trkpt lat="43.718829966197745" lon="12.091139660866439"><ele>978.0</ele><time>2026-05-02T13:29:55Z</time></trkpt><trkpt lat="43.718821810334035" lon="12.091236059598689"><ele>978.0</ele><time>2026-05-02T13:29:56Z</time></trkpt><trkpt lat="43.71881876748221" lon="12.091348719422296"><ele>978.0</ele><time>2026-05-02T13:29:57Z</time></trkpt><trkpt lat="43.718837398616984" lon="12.091501119128447"><ele>978.0</ele><time>2026-05-02T13:29:58Z</time></trkpt><trkpt lat="43.71883805011276" lon="12.09166142593048"><ele>978.0</ele><time>2026-05-02T13:29:59Z</time></trkpt><trkpt lat="43.71883347155056" lon="12.09179716734765"><ele>978.0</ele><time>2026-05-02T13:30:00Z</time></trkpt><trkpt lat="43.718837409518336" lon="12.091915538645628"><ele>978.0</ele><time>2026-05-02T13:30:01Z</time></trkpt><trkpt lat="43.71886614644738" lon="12.092081351982761"><ele>978.0</ele><time>2026-05-02T13:30:03Z</time></trkpt><trkpt lat="43.718913241994464" lon="12.092164431819509"><ele>978.0</ele><time>2026-05-02T13:30:04Z</time></trkpt><trkpt lat="43.718986539999804" lon="12.092285034622826"><ele>978.0</ele><time>2026-05-02T13:30:06Z</time></trkpt><trkpt lat="43.719044415829124" lon="12.092342849939582"><ele>978.0</ele><time>2026-05-02T13:30:07Z</time></trkpt><trkpt lat="43.719101573507345" lon="12.092396182959874"><ele>977.0</ele><time>2026-05-02T13:30:08Z</time></trkpt><trkpt lat="43.7191459832176" lon="12.092469984893922"><ele>976.0</ele><time>2026-05-02T13:30:09Z</time></trkpt><trkpt lat="43.71915510940934" lon="12.092567593849232"><ele>975.0</ele><time>2026-05-02T13:30:10Z</time></trkpt><trkpt lat="43.719139151240185" lon="12.092677609961218"><ele>974.0</ele><time>2026-05-02T13:30:11Z</time></trkpt><trkpt lat="43.71910960420116" lon="12.092784200848701"><ele>973.0</ele><time>2026-05-02T13:30:12Z</time></trkpt><trkpt lat="43.719101839721205" lon="12.092919458224038"><ele>972.0</ele><time>2026-05-02T13:30:14Z</time></trkpt><trkpt lat="43.719168919328744" lon="12.093048403752855"><ele>972.0</ele><time>2026-05-02T13:30:16Z</time></trkpt><trkpt lat="43.719238224395156" lon="12.093093572570137"><ele>972.0</ele><time>2026-05-02T13:30:17Z</time></trkpt><trkpt lat="43.719331606814876" lon="12.093121088977494"><ele>972.0</ele><time>2026-05-02T13:30:18Z</time></trkpt><trkpt lat="43.71943498348759" lon="12.09316174895349"><ele>972.0</ele><time>2026-05-02T13:30:19Z</time></trkpt><trkpt lat="43.71952302160207" lon="12.093216288001807"><ele>972.0</ele><time>2026-05-02T13:30:20Z</time></trkpt><trkpt lat="43.719581638535665" lon="12.093284852697419"><ele>970.5</ele><time>2026-05-02T13:30:21Z</time></trkpt><trkpt lat="43.71964800591457" lon="12.093386519987037"><ele>969.0</ele><time>2026-05-02T13:30:22Z</time></trkpt><trkpt lat="43.71969350266912" lon="12.093472005111254"><ele>967.5</ele><time>2026-05-02T13:30:23Z</time></trkpt><trkpt lat="43.719721181507616" lon="12.093550344918793"><ele>966.0</ele><time>2026-05-02T13:30:24Z</time></trkpt><trkpt lat="43.71979603591315" lon="12.093699496808416"><ele>964.5</ele><time>2026-05-02T13:30:26Z</time></trkpt><trkpt lat="43.71984433674669" lon="12.093784237178472"><ele>963.0</ele><time>2026-05-02T13:30:27Z</time></trkpt><trkpt lat="43.71990592141716" lon="12.093864911713696"><ele>963.0</ele><time>2026-05-02T13:30:28Z</time></trkpt><trkpt lat="43.71998077900732" lon="12.093952549123907"><ele>963.0</ele><time>2026-05-02T13:30:29Z</time></trkpt><trkpt lat="43.720064908996356" lon="12.094024273468643"><ele>963.0</ele><time>2026-05-02T13:30:30.001Z</time></trkpt><trkpt lat="43.72014627678129" lon="12.094108719022556"><ele>963.0</ele><time>2026-05-02T13:30:31.001Z</time></trkpt><trkpt lat="43.72021332381374" lon="12.094172652228725"><ele>963.0</ele><time>2026-05-02T13:30:32.001Z</time></trkpt><trkpt lat="43.72027786684216" lon="12.09423372437971"><ele>964.0</ele><time>2026-05-02T13:30:33.001Z</time></trkpt><trkpt lat="43.720327423486545" lon="12.094290179257833"><ele>965.0</ele><time>2026-05-02T13:30:34.001Z</time></trkpt><trkpt lat="43.720376527016896" lon="12.094428385301821"><ele>966.0</ele><time>2026-05-02T13:30:36Z</time></trkpt><trkpt lat="43.72036436127323" lon="12.094548833487751"><ele>967.0</ele><time>2026-05-02T13:30:37Z</time></trkpt><trkpt lat="43.72032904154831" lon="12.094667486583596"><ele>968.0</ele><time>2026-05-02T13:30:38Z</time></trkpt><trkpt lat="43.720275116174115" lon="12.09479316640584"><ele>964.5000000000001</ele><time>2026-05-02T13:30:39Z</time></trkpt><trkpt lat="43.7202260471585" lon="12.094904022899776"><ele>961.0</ele><time>2026-05-02T13:30:40Z</time></trkpt><trkpt lat="43.720189833873064" lon="12.095011049015708"><ele>957.5</ele><time>2026-05-02T13:30:41Z</time></trkpt><trkpt lat="43.720147343652236" lon="12.095109537291382"><ele>954.0</ele><time>2026-05-02T13:30:42Z</time></trkpt><trkpt lat="43.72009459749572" lon="12.095214412961084"><ele>950.5000000000001</ele><time>2026-05-02T13:30:43Z</time></trkpt><trkpt lat="43.720037892800185" lon="12.095312802433877"><ele>947.0</ele><time>2026-05-02T13:30:44Z</time></trkpt><trkpt lat="43.71998434734695" lon="12.095408820947455"><ele>947.6</ele><time>2026-05-02T13:30:45Z</time></trkpt><trkpt lat="43.719937664314656" lon="12.09551873186741"><ele>948.2</ele><time>2026-05-02T13:30:46Z</time></trkpt><trkpt lat="43.71989303981017" lon="12.095610865134626"><ele>948.8</ele><time>2026-05-02T13:30:47Z</time></trkpt><trkpt lat="43.719856967221446" lon="12.095683206286212"><ele>949.4</ele><time>2026-05-02T13:30:48Z</time></trkpt><trkpt lat="43.71979740789273" lon="12.095799008433868"><ele>950.0</ele><time>2026-05-02T13:30:50Z</time></trkpt><trkpt lat="43.71968885960099" lon="12.095871052694404"><ele>950.0</ele><time>2026-05-02T13:30:52Z</time></trkpt><trkpt lat="43.71960332188986" lon="12.095888057904487"><ele>950.0</ele><time>2026-05-02T13:30:53Z</time></trkpt><trkpt lat="43.71950187075942" lon="12.095938242482449"><ele>950.0</ele><time>2026-05-02T13:30:54Z</time></trkpt><trkpt lat="43.71940408123131" lon="12.096025215994162"><ele>950.0</ele><time>2026-05-02T13:30:55Z</time></trkpt><trkpt lat="43.71932928494173" lon="12.096107578759879"><ele>950.0</ele><time>2026-05-02T13:30:56Z</time></trkpt><trkpt lat="43.71924505426347" lon="12.096202106016714"><ele>946.75</ele><time>2026-05-02T13:30:57Z</time></trkpt><trkpt lat="43.71912795550909" lon="12.09631893733817"><ele>943.5</ele><time>2026-05-02T13:30:58Z</time></trkpt><trkpt lat="43.719026776126874" lon="12.096415579278712"><ele>940.25</ele><time>2026-05-02T13:30:59Z</time></trkpt><trkpt lat="43.71893639791061" lon="12.096511534945453"><ele>937.0</ele><time>2026-05-02T13:31:00Z</time></trkpt><trkpt lat="43.718866451079755" lon="12.096606060463523"><ele>936.9999999999999</ele><time>2026-05-02T13:31:01Z</time></trkpt><trkpt lat="43.718779825186104" lon="12.096699449219573"><ele>937.0</ele><time>2026-05-02T13:31:02Z</time></trkpt><trkpt lat="43.71870839510417" lon="12.096797432235903"><ele>937.0</ele><time>2026-05-02T13:31:03Z</time></trkpt><trkpt lat="43.718652669601205" lon="12.096878772463173"><ele>937.0</ele><time>2026-05-02T13:31:04Z</time></trkpt><trkpt lat="43.71861292438166" lon="12.096961476544008"><ele>936.9999999999999</ele><time>2026-05-02T13:31:05Z</time></trkpt><trkpt lat="43.71856915721632" lon="12.09705182237547"><ele>937.0</ele><time>2026-05-02T13:31:06Z</time></trkpt><trkpt lat="43.71851058894146" lon="12.09718392505047"><ele>932.8</ele><time>2026-05-02T13:31:07Z</time></trkpt><trkpt lat="43.718496418153485" lon="12.09734694888951"><ele>928.6</ele><time>2026-05-02T13:31:08Z</time></trkpt><trkpt lat="43.71848071405514" lon="12.097510902428015"><ele>924.3999999999999</ele><time>2026-05-02T13:31:09Z</time></trkpt><trkpt lat="43.71845251268377" lon="12.097650365719565"><ele>920.1999999999999</ele><time>2026-05-02T13:31:10Z</time></trkpt><trkpt lat="43.71843570127774" lon="12.097756533429402"><ele>916.0</ele><time>2026-05-02T13:31:11Z</time></trkpt><trkpt lat="43.718431683029216" lon="12.097856274635781"><ele>915.9999999999999</ele><time>2026-05-02T13:31:12Z</time></trkpt><trkpt lat="43.71844337532505" lon="12.09796806668983"><ele>916.0</ele><time>2026-05-02T13:31:13Z</time></trkpt><trkpt lat="43.71847521644273" lon="12.098055680917456"><ele>916.0</ele><time>2026-05-02T13:31:14Z</time></trkpt><trkpt lat="43.71852290762782" lon="12.098154118032056"><ele>916.0</ele><time>2026-05-02T13:31:15Z</time></trkpt><trkpt lat="43.718568920091194" lon="12.0982563946833"><ele>915.9999999999999</ele><time>2026-05-02T13:31:16Z</time></trkpt><trkpt lat="43.718612368263166" lon="12.098360244903308"><ele>916.0</ele><time>2026-05-02T13:31:17Z</time></trkpt><trkpt lat="43.71863656673662" lon="12.09847305730982"><ele>915.4999999999999</ele><time>2026-05-02T13:31:18Z</time></trkpt><trkpt lat="43.71862184360367" lon="12.098598938172852"><ele>915.0</ele><time>2026-05-02T13:31:19Z</time></trkpt><trkpt lat="43.71859531283643" lon="12.098713186311755"><ele>914.5</ele><time>2026-05-02T13:31:20Z</time></trkpt><trkpt lat="43.71857971379356" lon="12.098813661313569"><ele>914.0</ele><time>2026-05-02T13:31:21Z</time></trkpt><trkpt lat="43.718568908922535" lon="12.098922053307424"><ele>913.4999999999999</ele><time>2026-05-02T13:31:22Z</time></trkpt><trkpt lat="43.71853487967768" lon="12.099013912859565"><ele>913.0</ele><time>2026-05-02T13:31:23Z</time></trkpt><trkpt lat="43.71848441500715" lon="12.099131870058665"><ele>912.8</ele><time>2026-05-02T13:31:24Z</time></trkpt><trkpt lat="43.718427918161865" lon="12.099262394586374"><ele>912.5999999999999</ele><time>2026-05-02T13:31:25Z</time></trkpt><trkpt lat="43.718377517178794" lon="12.099379870877344"><ele>912.4000000000001</ele><time>2026-05-02T13:31:26Z</time></trkpt><trkpt lat="43.71834327234131" lon="12.0994816717244"><ele>912.2</ele><time>2026-05-02T13:31:27Z</time></trkpt><trkpt lat="43.718323075625605" lon="12.099590278421353"><ele>912.0</ele><time>2026-05-02T13:31:28Z</time></trkpt><trkpt lat="43.71829129391426" lon="12.099718866766658"><ele>912.0</ele><time>2026-05-02T13:31:29Z</time></trkpt><trkpt lat="43.71826241900985" lon="12.09986767020062"><ele>912.0</ele><time>2026-05-02T13:31:30Z</time></trkpt><trkpt lat="43.718223726241256" lon="12.10001492500766"><ele>912.0</ele><time>2026-05-02T13:31:31Z</time></trkpt><trkpt lat="43.71818684957406" lon="12.100154088129136"><ele>912.0</ele><time>2026-05-02T13:31:32Z</time></trkpt><trkpt lat="43.718170226461" lon="12.100276699987703"><ele>912.0</ele><time>2026-05-02T13:31:33Z</time></trkpt><trkpt lat="43.71814018981146" lon="12.100396287841045"><ele>915.0</ele><time>2026-05-02T13:31:34Z</time></trkpt><trkpt lat="43.71809960152352" lon="12.100512744479403"><ele>918.0</ele><time>2026-05-02T13:31:35Z</time></trkpt><trkpt lat="43.718059346952025" lon="12.100617492056651"><ele>921.0</ele><time>2026-05-02T13:31:36Z</time></trkpt><trkpt lat="43.718037027173615" lon="12.100739747385216"><ele>924.0</ele><time>2026-05-02T13:31:37Z</time></trkpt><trkpt lat="43.71802653328944" lon="12.100870480720996"><ele>927.0</ele><time>2026-05-02T13:31:38Z</time></trkpt><trkpt lat="43.7180275506666" lon="12.100989434070542"><ele>929.0</ele><time>2026-05-02T13:31:39Z</time></trkpt><trkpt lat="43.71804938460566" lon="12.10109253978804"><ele>931.0</ele><time>2026-05-02T13:31:40Z</time></trkpt><trkpt lat="43.71807326240048" lon="12.10120323111976"><ele>933.0</ele><time>2026-05-02T13:31:41Z</time></trkpt><trkpt lat="43.71811749141704" lon="12.101336150315024"><ele>935.0</ele><time>2026-05-02T13:31:42Z</time></trkpt><trkpt lat="43.7181672326008" lon="12.101473808881584"><ele>937.0</ele><time>2026-05-02T13:31:43Z</time></trkpt><trkpt lat="43.71822297349151" lon="12.10161964127981"><ele>937.0</ele><time>2026-05-02T13:31:44Z</time></trkpt><trkpt lat="43.71827155807542" lon="12.101763789209043"><ele>937.0</ele><time>2026-05-02T13:31:45Z</time></trkpt><trkpt lat="43.718308078162394" lon="12.101896118693322"><ele>937.0</ele><time>2026-05-02T13:31:46Z</time></trkpt><trkpt lat="43.7183514880514" lon="12.102049917026308"><ele>937.0</ele><time>2026-05-02T13:31:47Z</time></trkpt><trkpt lat="43.71840647539403" lon="12.10217369702568"><ele>937.0</ele><time>2026-05-02T13:31:48Z</time></trkpt><trkpt lat="43.718464467880644" lon="12.102281934825593"><ele>937.0</ele><time>2026-05-02T13:31:49Z</time></trkpt><trkpt lat="43.71850162312506" lon="12.102398171017231"><ele>937.0</ele><time>2026-05-02T13:31:50Z</time></trkpt><trkpt lat="43.718549219424816" lon="12.102535342420111"><ele>937.0</ele><time>2026-05-02T13:31:51Z</time></trkpt><trkpt lat="43.71857745018979" lon="12.102672590756244"><ele>937.0</ele><time>2026-05-02T13:31:52Z</time></trkpt><trkpt lat="43.718592031981224" lon="12.102823824195266"><ele>937.0</ele><time>2026-05-02T13:31:53Z</time></trkpt><trkpt lat="43.71858977899967" lon="12.102952603393812"><ele>938.2</ele><time>2026-05-02T13:31:54Z</time></trkpt><trkpt lat="43.71859195586982" lon="12.10305266486522"><ele>939.4000000000001</ele><time>2026-05-02T13:31:55Z</time></trkpt><trkpt lat="43.718617020447006" lon="12.103153655220334"><ele>940.5999999999999</ele><time>2026-05-02T13:31:56Z</time></trkpt><trkpt lat="43.718672558064014" lon="12.103275863595394"><ele>941.8</ele><time>2026-05-02T13:31:57Z</time></trkpt><trkpt lat="43.718751976816925" lon="12.103396800152726"><ele>943.0</ele><time>2026-05-02T13:31:58Z</time></trkpt><trkpt lat="43.71883741160225" lon="12.10350125722073"><ele>942.9999999999999</ele><time>2026-05-02T13:31:59Z</time></trkpt><trkpt lat="43.718913149397444" lon="12.103567268303772"><ele>943.0</ele><time>2026-05-02T13:32:00Z</time></trkpt><trkpt lat="43.71897756609942" lon="12.103611902020715"><ele>943.0</ele><time>2026-05-02T13:32:01Z</time></trkpt><trkpt lat="43.71909298000443" lon="12.103664546893775"><ele>943.0</ele><time>2026-05-02T13:32:03Z</time></trkpt><trkpt lat="43.71917158209147" lon="12.103658000344153"><ele>942.9999999999999</ele><time>2026-05-02T13:32:04Z</time></trkpt><trkpt lat="43.719254334967104" lon="12.10364639579542"><ele>943.0</ele><time>2026-05-02T13:32:05Z</time></trkpt><trkpt lat="43.719370306559895" lon="12.103681714303006"><ele>946.5</ele><time>2026-05-02T13:32:07Z</time></trkpt><trkpt lat="43.71947772552795" lon="12.103820268326132"><ele>950.0</ele><time>2026-05-02T13:32:09Z</time></trkpt><trkpt lat="43.719528325026545" lon="12.103952394624582"><ele>953.5</ele><time>2026-05-02T13:32:10Z</time></trkpt><trkpt lat="43.719579380820846" lon="12.104107388832663"><ele>957.0</ele><time>2026-05-02T13:32:11Z</time></trkpt><trkpt lat="43.71963668417352" lon="12.104260440013404"><ele>957.0</ele><time>2026-05-02T13:32:12Z</time></trkpt><trkpt lat="43.71967717800559" lon="12.104388528255042"><ele>957.0</ele><time>2026-05-02T13:32:13Z</time></trkpt><trkpt lat="43.719709499896474" lon="12.10450995903377"><ele>957.0</ele><time>2026-05-02T13:32:14Z</time></trkpt><trkpt lat="43.71972523437224" lon="12.104644808074347"><ele>957.0</ele><time>2026-05-02T13:32:15Z</time></trkpt><trkpt lat="43.71974059001786" lon="12.104795145755356"><ele>957.0</ele><time>2026-05-02T13:32:16Z</time></trkpt><trkpt lat="43.71976230510494" lon="12.104955141964854"><ele>955.8</ele><time>2026-05-02T13:32:17Z</time></trkpt><trkpt lat="43.71979780714171" lon="12.105104732302124"><ele>954.6</ele><time>2026-05-02T13:32:18Z</time></trkpt><trkpt lat="43.719852338802504" lon="12.10524611076849"><ele>953.3999999999999</ele><time>2026-05-02T13:32:19Z</time></trkpt><trkpt lat="43.71991150873199" lon="12.105388299722897"><ele>952.1999999999999</ele><time>2026-05-02T13:32:20Z</time></trkpt><trkpt lat="43.719948958940435" lon="12.105499589121301"><ele>951.0</ele><time>2026-05-02T13:32:21Z</time></trkpt><trkpt lat="43.71999344643048" lon="12.10558549780195"><ele>951.0</ele><time>2026-05-02T13:32:22Z</time></trkpt><trkpt lat="43.72004554907564" lon="12.105671127391302"><ele>950.9999999999999</ele><time>2026-05-02T13:32:23Z</time></trkpt><trkpt lat="43.720099880480305" lon="12.105738716738808"><ele>950.9999999999999</ele><time>2026-05-02T13:32:24Z</time></trkpt><trkpt lat="43.72022262199733" lon="12.105810972754105"><ele>951.0</ele><time>2026-05-02T13:32:26Z</time></trkpt><trkpt lat="43.72031974969792" lon="12.105818677496293"><ele>951.0</ele><time>2026-05-02T13:32:27Z</time></trkpt><trkpt lat="43.72040843813432" lon="12.105816617521649"><ele>950.8571428571429</ele><time>2026-05-02T13:32:28Z</time></trkpt><trkpt lat="43.72049263309122" lon="12.105808430632958"><ele>950.7142857142858</ele><time>2026-05-02T13:32:29Z</time></trkpt><trkpt lat="43.72056786528022" lon="12.10579103307787"><ele>950.5714285714287</ele><time>2026-05-02T13:32:30Z</time></trkpt><trkpt lat="43.7206301435519" lon="12.105762366551572"><ele>950.4285714285714</ele><time>2026-05-02T13:32:31Z</time></trkpt><trkpt lat="43.72068711467656" lon="12.105724128320658"><ele>950.2857142857144</ele><time>2026-05-02T13:32:32Z</time></trkpt><trkpt lat="43.720751103561696" lon="12.105676508560919"><ele>950.1428571428572</ele><time>2026-05-02T13:32:33Z</time></trkpt><trkpt lat="43.72080765649016" lon="12.10563326578365"><ele>950.0</ele><time>2026-05-02T13:32:34Z</time></trkpt><trkpt lat="43.72091004193762" lon="12.105550157742664"><ele>950.0</ele><time>2026-05-02T13:32:36Z</time></trkpt><trkpt lat="43.720979214721886" lon="12.10547605336412"><ele>950.0</ele><time>2026-05-02T13:32:37Z</time></trkpt><trkpt lat="43.7210310384434" lon="12.105411152694806"><ele>950.0</ele><time>2026-05-02T13:32:38Z</time></trkpt><trkpt lat="43.72113935499782" lon="12.105335420133628"><ele>950.0</ele><time>2026-05-02T13:32:40Z</time></trkpt><trkpt lat="43.72120471121142" lon="12.105345729178302"><ele>950.0</ele><time>2026-05-02T13:32:41Z</time></trkpt><trkpt lat="43.721300571349545" lon="12.105450365100074"><ele>947.0000000000001</ele><time>2026-05-02T13:32:43Z</time></trkpt><trkpt lat="43.721358239778496" lon="12.105551777225699"><ele>944.0</ele><time>2026-05-02T13:32:44Z</time></trkpt><trkpt lat="43.72142715365781" lon="12.105625271821319"><ele>941.0</ele><time>2026-05-02T13:32:45Z</time></trkpt><trkpt lat="43.72150830782733" lon="12.105668672018979"><ele>938.0</ele><time>2026-05-02T13:32:46Z</time></trkpt><trkpt lat="43.72158153784814" lon="12.10568255942283"><ele>935.0000000000001</ele><time>2026-05-02T13:32:47Z</time></trkpt><trkpt lat="43.721665769905655" lon="12.105665423768622"><ele>932.0</ele><time>2026-05-02T13:32:48Z</time></trkpt><trkpt lat="43.72175321403146" lon="12.105638085744847"><ele>932.0</ele><time>2026-05-02T13:32:49Z</time></trkpt><trkpt lat="43.72182281033025" lon="12.105590192760271"><ele>932.0</ele><time>2026-05-02T13:32:50Z</time></trkpt><trkpt lat="43.721923867683124" lon="12.105483726611919"><ele>932.0</ele><time>2026-05-02T13:32:52Z</time></trkpt><trkpt lat="43.72198634052018" lon="12.105406888382566"><ele>932.0</ele><time>2026-05-02T13:32:53Z</time></trkpt><trkpt lat="43.722050176815806" lon="12.105335042737543"><ele>932.0</ele><time>2026-05-02T13:32:54Z</time></trkpt><trkpt lat="43.722120312636534" lon="12.10527646708939"><ele>931.1666666666667</ele><time>2026-05-02T13:32:55Z</time></trkpt><trkpt lat="43.72219288002085" lon="12.105226034264073"><ele>930.3333333333334</ele><time>2026-05-02T13:32:56Z</time></trkpt><trkpt lat="43.72226328269108" lon="12.105194844671702"><ele>929.5</ele><time>2026-05-02T13:32:57Z</time></trkpt><trkpt lat="43.72232850330778" lon="12.10519316361775"><ele>928.6666666666667</ele><time>2026-05-02T13:32:58Z</time></trkpt><trkpt lat="43.72239446307865" lon="12.105222245390234"><ele>927.8333333333334</ele><time>2026-05-02T13:32:59Z</time></trkpt><trkpt lat="43.72246405485471" lon="12.105270312063482"><ele>927.0</ele><time>2026-05-02T13:33:00Z</time></trkpt><trkpt lat="43.72255987162044" lon="12.105344649803373"><ele>927.0</ele><time>2026-05-02T13:33:01Z</time></trkpt><trkpt lat="43.72262899664329" lon="12.105401995873848"><ele>927.0</ele><time>2026-05-02T13:33:02Z</time></trkpt><trkpt lat="43.722743205688474" lon="12.105472353306812"><ele>927.0</ele><time>2026-05-02T13:33:04Z</time></trkpt><trkpt lat="43.72281803171351" lon="12.105495453479746"><ele>927.0</ele><time>2026-05-02T13:33:05Z</time></trkpt><trkpt lat="43.72290708354363" lon="12.105495696735895"><ele>927.0</ele><time>2026-05-02T13:33:06Z</time></trkpt><trkpt lat="43.722989138310105" lon="12.105477093549709"><ele>926.8</ele><time>2026-05-02T13:33:07Z</time></trkpt><trkpt lat="43.7230760162629" lon="12.105479416728196"><ele>926.6</ele><time>2026-05-02T13:33:08Z</time></trkpt><trkpt lat="43.72316949583334" lon="12.10548128069768"><ele>926.3999999999999</ele><time>2026-05-02T13:33:09Z</time></trkpt><trkpt lat="43.72324682591816" lon="12.105479952736351"><ele>926.1999999999999</ele><time>2026-05-02T13:33:10Z</time></trkpt><trkpt lat="43.72334679154365" lon="12.105466411869836"><ele>926.0</ele><time>2026-05-02T13:33:11Z</time></trkpt><trkpt lat="43.72345252027624" lon="12.105450017332494"><ele>926.0000000000001</ele><time>2026-05-02T13:33:12Z</time></trkpt><trkpt lat="43.723532048245474" lon="12.105437988557538"><ele>926.0</ele><time>2026-05-02T13:33:13Z</time></trkpt><trkpt lat="43.72361939094831" lon="12.105437867449664"><ele>926.0</ele><time>2026-05-02T13:33:14Z</time></trkpt><trkpt lat="43.723716869530584" lon="12.10545282897933"><ele>926.0</ele><time>2026-05-02T13:33:15Z</time></trkpt><trkpt lat="43.723797232172764" lon="12.105474771509765"><ele>926.0000000000001</ele><time>2026-05-02T13:33:16Z</time></trkpt><trkpt lat="43.723865540461304" lon="12.1054791254737"><ele>926.0</ele><time>2026-05-02T13:33:17Z</time></trkpt><trkpt lat="43.72393684553688" lon="12.10546206195632"><ele>925.5000000000001</ele><time>2026-05-02T13:33:18Z</time></trkpt><trkpt lat="43.72401522777265" lon="12.105438521407422"><ele>925.0</ele><time>2026-05-02T13:33:19Z</time></trkpt><trkpt lat="43.72410413796095" lon="12.105382191806948"><ele>924.5</ele><time>2026-05-02T13:33:20Z</time></trkpt><trkpt lat="43.724186920056546" lon="12.105335919892573"><ele>924.0</ele><time>2026-05-02T13:33:21Z</time></trkpt><trkpt lat="43.72425320673182" lon="12.105307158571142"><ele>923.5000000000001</ele><time>2026-05-02T13:33:22Z</time></trkpt><trkpt lat="43.72433516547757" lon="12.105286725334015"><ele>923.0</ele><time>2026-05-02T13:33:23Z</time></trkpt><trkpt lat="43.72441421416321" lon="12.105305598586812"><ele>922.6666666666667</ele><time>2026-05-02T13:33:24Z</time></trkpt><trkpt lat="43.72447927872846" lon="12.105311218879118"><ele>922.3333333333334</ele><time>2026-05-02T13:33:25Z</time></trkpt><trkpt lat="43.72459413690409" lon="12.105280945077157"><ele>922.0</ele><time>2026-05-02T13:33:27Z</time></trkpt><trkpt lat="43.72466994572596" lon="12.105237389620363"><ele>921.6666666666667</ele><time>2026-05-02T13:33:28Z</time></trkpt><trkpt lat="43.72474190391019" lon="12.105152116712153"><ele>921.3333333333334</ele><time>2026-05-02T13:33:29Z</time></trkpt><trkpt lat="43.72479720395974" lon="12.105071100267908"><ele>921.0</ele><time>2026-05-02T13:33:30Z</time></trkpt><trkpt lat="43.724866273141394" lon="12.10501809656657"><ele>921.0</ele><time>2026-05-02T13:33:31Z</time></trkpt><trkpt lat="43.724990939287245" lon="12.105027667227006"><ele>921.0</ele><time>2026-05-02T13:33:33Z</time></trkpt><trkpt lat="43.7250613738738" lon="12.105060090313147"><ele>921.0</ele><time>2026-05-02T13:33:34Z</time></trkpt><trkpt lat="43.72514219996875" lon="12.105076197447831"><ele>921.0</ele><time>2026-05-02T13:33:35Z</time></trkpt><trkpt lat="43.725216170239726" lon="12.105073719658051"><ele>921.0</ele><time>2026-05-02T13:33:36Z</time></trkpt><trkpt lat="43.72528816539169" lon="12.105079263906816"><ele>921.0</ele><time>2026-05-02T13:33:37Z</time></trkpt><trkpt lat="43.72540262022171" lon="12.105055179882893"><ele>920.8333333333334</ele><time>2026-05-02T13:33:39Z</time></trkpt><trkpt lat="43.7254813894406" lon="12.105032083443112"><ele>920.6666666666667</ele><time>2026-05-02T13:33:40Z</time></trkpt><trkpt lat="43.72556071163521" lon="12.105008546490593"><ele>920.5</ele><time>2026-05-02T13:33:41Z</time></trkpt><trkpt lat="43.72564178971479" lon="12.104965079179486"><ele>920.3333333333334</ele><time>2026-05-02T13:33:42Z</time></trkpt><trkpt lat="43.72570958140481" lon="12.104908512013953"><ele>920.1666666666667</ele><time>2026-05-02T13:33:43Z</time></trkpt><trkpt lat="43.725764802495604" lon="12.104850332769663"><ele>920.0</ele><time>2026-05-02T13:33:44Z</time></trkpt><trkpt lat="43.72584378508488" lon="12.104745804808493"><ele>921.6666666666667</ele><time>2026-05-02T13:33:46Z</time></trkpt><trkpt lat="43.72588879007358" lon="12.104674979813407"><ele>923.3333333333334</ele><time>2026-05-02T13:33:47Z</time></trkpt><trkpt lat="43.72594623722569" lon="12.104595129445228"><ele>925.0</ele><time>2026-05-02T13:33:48Z</time></trkpt><trkpt lat="43.72600765025284" lon="12.104543120557882"><ele>926.6666666666667</ele><time>2026-05-02T13:33:49Z</time></trkpt><trkpt lat="43.72607347349414" lon="12.104502682484462"><ele>928.3333333333334</ele><time>2026-05-02T13:33:50Z</time></trkpt><trkpt lat="43.72615793055671" lon="12.104478668277652"><ele>930.0</ele><time>2026-05-02T13:33:51Z</time></trkpt><trkpt lat="43.72624005300905" lon="12.104451485386413"><ele>930.2</ele><time>2026-05-02T13:33:52Z</time></trkpt><trkpt lat="43.726324953917754" lon="12.104437010092166"><ele>930.4</ele><time>2026-05-02T13:33:53Z</time></trkpt><trkpt lat="43.72643149474937" lon="12.10443534355141"><ele>930.5999999999999</ele><time>2026-05-02T13:33:54Z</time></trkpt><trkpt lat="43.726525240976784" lon="12.104426070886147"><ele>930.8</ele><time>2026-05-02T13:33:55Z</time></trkpt><trkpt lat="43.726613816907026" lon="12.104440272266238"><ele>931.0</ele><time>2026-05-02T13:33:56Z</time></trkpt><trkpt lat="43.726687757320605" lon="12.10448492410184"><ele>931.0</ele><time>2026-05-02T13:33:57Z</time></trkpt><trkpt lat="43.72677177646097" lon="12.104555731279815"><ele>930.9999999999999</ele><time>2026-05-02T13:33:58Z</time></trkpt><trkpt lat="43.726847667904785" lon="12.104634723478485"><ele>930.9999999999999</ele><time>2026-05-02T13:33:59Z</time></trkpt><trkpt lat="43.726920127684224" lon="12.104683404054144"><ele>931.0</ele><time>2026-05-02T13:34:00Z</time></trkpt><trkpt lat="43.727002225107704" lon="12.104714293187078"><ele>931.0</ele><time>2026-05-02T13:34:01Z</time></trkpt><trkpt lat="43.7271201869472" lon="12.104724688749675"><ele>930.6666666666666</ele><time>2026-05-02T13:34:02Z</time></trkpt><trkpt lat="43.72722504694122" lon="12.104739672351588"><ele>930.3333333333333</ele><time>2026-05-02T13:34:03Z</time></trkpt><trkpt lat="43.72731615228944" lon="12.104760882623562"><ele>930.0</ele><time>2026-05-02T13:34:04Z</time></trkpt><trkpt lat="43.72739656333466" lon="12.104776198230285"><ele>929.6666666666667</ele><time>2026-05-02T13:34:05Z</time></trkpt><trkpt lat="43.727460644852854" lon="12.104773420635015"><ele>929.3333333333334</ele><time>2026-05-02T13:34:06Z</time></trkpt><trkpt lat="43.727541913294004" lon="12.104733562862753"><ele>929.0</ele><time>2026-05-02T13:34:08Z</time></trkpt><trkpt lat="43.72769019150004" lon="12.104660141942922"><ele>926.8000000000001</ele><time>2026-05-02T13:34:10Z</time></trkpt><trkpt lat="43.72778377083508" lon="12.10460967651146"><ele>924.6000000000001</ele><time>2026-05-02T13:34:11Z</time></trkpt><trkpt lat="43.72784124399285" lon="12.104565078432271"><ele>922.4</ele><time>2026-05-02T13:34:12Z</time></trkpt><trkpt lat="43.72796469830725" lon="12.104478007266637"><ele>920.2</ele><time>2026-05-02T13:34:14Z</time></trkpt><trkpt lat="43.7280463807994" lon="12.10444521051561"><ele>918.0</ele><time>2026-05-02T13:34:15Z</time></trkpt><trkpt lat="43.728136260868" lon="12.104431191928443"><ele>918.0</ele><time>2026-05-02T13:34:16Z</time></trkpt><trkpt lat="43.7282191597799" lon="12.104441017735127"><ele>918.0</ele><time>2026-05-02T13:34:17Z</time></trkpt><trkpt lat="43.72829471291577" lon="12.104437573089637"><ele>918.0</ele><time>2026-05-02T13:34:18Z</time></trkpt><trkpt lat="43.72836036190552" lon="12.104431095885277"><ele>918.0</ele><time>2026-05-02T13:34:19Z</time></trkpt><trkpt lat="43.72843003464745" lon="12.10445047034786"><ele>918.0</ele><time>2026-05-02T13:34:20Z</time></trkpt><trkpt lat="43.728496220739416" lon="12.1044982950214"><ele>918.0</ele><time>2026-05-02T13:34:21Z</time></trkpt><trkpt lat="43.72855709205522" lon="12.104573528690967"><ele>917.0</ele><time>2026-05-02T13:34:22Z</time></trkpt><trkpt lat="43.72859522474381" lon="12.104664281512315"><ele>916.0</ele><time>2026-05-02T13:34:23Z</time></trkpt><trkpt lat="43.72862126512706" lon="12.104764015878585"><ele>915.0</ele><time>2026-05-02T13:34:24Z</time></trkpt><trkpt lat="43.72863535615945" lon="12.10485291824014"><ele>914.0</ele><time>2026-05-02T13:34:25Z</time></trkpt><trkpt lat="43.72863454198306" lon="12.104968289199146"><ele>913.0</ele><time>2026-05-02T13:34:26Z</time></trkpt><trkpt lat="43.72863244076016" lon="12.105061470892657"><ele>912.0</ele><time>2026-05-02T13:34:27Z</time></trkpt><trkpt lat="43.72868369089216" lon="12.105153456909557"><ele>912.0</ele><time>2026-05-02T13:34:29Z</time></trkpt><trkpt lat="43.72876825703894" lon="12.105117065338787"><ele>912.0</ele><time>2026-05-02T13:34:37Z</time></trkpt><trkpt lat="43.72889205361877" lon="12.105017033183907"><ele>912.0</ele><time>2026-05-02T13:34:39Z</time></trkpt><trkpt lat="43.729011755971456" lon="12.104922926618634"><ele>912.0</ele><time>2026-05-02T13:34:41Z</time></trkpt><trkpt lat="43.72909460990035" lon="12.104910758886977"><ele>912.0</ele><time>2026-05-02T13:34:42Z</time></trkpt><trkpt lat="43.72916565116687" lon="12.104925494184839"><ele>912.0</ele><time>2026-05-02T13:34:43Z</time></trkpt><trkpt lat="43.729265186389405" lon="12.104917195273314"><ele>912.0</ele><time>2026-05-02T13:34:44Z</time></trkpt><trkpt lat="43.729334501487116" lon="12.104900456011997"><ele>912.0</ele><time>2026-05-02T13:34:45Z</time></trkpt><trkpt lat="43.72943407017193" lon="12.10487154860785"><ele>912.0</ele><time>2026-05-02T13:34:47Z</time></trkpt><trkpt lat="43.72950975354008" lon="12.104889474778165"><ele>912.0</ele><time>2026-05-02T13:34:48Z</time></trkpt><trkpt lat="43.72959613049225" lon="12.104906665616022"><ele>907.2</ele><time>2026-05-02T13:34:49Z</time></trkpt><trkpt lat="43.72969802102349" lon="12.104981951322586"><ele>902.4000000000001</ele><time>2026-05-02T13:34:50Z</time></trkpt><trkpt lat="43.72978919449577" lon="12.105010154369936"><ele>897.5999999999999</ele><time>2026-05-02T13:34:51Z</time></trkpt><trkpt lat="43.729884812596445" lon="12.105029309532231"><ele>892.8</ele><time>2026-05-02T13:34:52Z</time></trkpt><trkpt lat="43.72997284468233" lon="12.105038473057997"><ele>888.0</ele><time>2026-05-02T13:34:53Z</time></trkpt><trkpt lat="43.73003730345045" lon="12.105092495982257"><ele>888.0</ele><time>2026-05-02T13:34:54Z</time></trkpt><trkpt lat="43.73016902017993" lon="12.105140847156534"><ele>888.0</ele><time>2026-05-02T13:34:55Z</time></trkpt><trkpt lat="43.730274678719596" lon="12.105174310398493"><ele>888.0</ele><time>2026-05-02T13:34:56Z</time></trkpt><trkpt lat="43.73035634946617" lon="12.105221122589732"><ele>888.0</ele><time>2026-05-02T13:34:57Z</time></trkpt><trkpt lat="43.73042002373691" lon="12.105142537103243"><ele>888.0</ele><time>2026-05-02T13:35:00Z</time></trkpt><trkpt lat="43.73035299263205" lon="12.105142537084271"><ele>888.6666666666666</ele><time>2026-05-02T13:35:01Z</time></trkpt><trkpt lat="43.73044871034352" lon="12.105161123303718"><ele>889.3333333333333</ele><time>2026-05-02T13:35:08Z</time></trkpt><trkpt lat="43.730524109805025" lon="12.105133381078515"><ele>890.0</ele><time>2026-05-02T13:35:09Z</time></trkpt><trkpt lat="43.73059058769673" lon="12.105108395406956"><ele>890.6666666666666</ele><time>2026-05-02T13:35:10Z</time></trkpt><trkpt lat="43.73066550246097" lon="12.105115043677156"><ele>891.3333333333333</ele><time>2026-05-02T13:35:11Z</time></trkpt><trkpt lat="43.730755557845775" lon="12.105085104677435"><ele>892.0</ele><time>2026-05-02T13:35:12Z</time></trkpt><trkpt lat="43.73083817161699" lon="12.105067708020396"><ele>892.0</ele><time>2026-05-02T13:35:13Z</time></trkpt><trkpt lat="43.730922195657854" lon="12.105084313290087"><ele>892.0</ele><time>2026-05-02T13:35:14Z</time></trkpt><trkpt lat="43.73098976096356" lon="12.105175438958646"><ele>892.0</ele><time>2026-05-02T13:35:15Z</time></trkpt><trkpt lat="43.73107618543991" lon="12.105214402866155"><ele>892.0</ele><time>2026-05-02T13:35:16Z</time></trkpt><trkpt lat="43.731196675320874" lon="12.105215333242175"><ele>892.0</ele><time>2026-05-02T13:35:17Z</time></trkpt><trkpt lat="43.73132799686402" lon="12.10522360838098"><ele>891.8</ele><time>2026-05-02T13:35:18Z</time></trkpt><trkpt lat="43.7314520408058" lon="12.10523854434389"><ele>891.6</ele><time>2026-05-02T13:35:19Z</time></trkpt><trkpt lat="43.73158711144236" lon="12.105252785338307"><ele>891.3999999999999</ele><time>2026-05-02T13:35:20Z</time></trkpt><trkpt lat="43.73168972263879" lon="12.105293812387114"><ele>891.1999999999999</ele><time>2026-05-02T13:35:21Z</time></trkpt><trkpt lat="43.73176920580371" lon="12.105319896596141"><ele>891.0</ele><time>2026-05-02T13:35:22Z</time></trkpt><trkpt lat="43.731887202570334" lon="12.105378377811304"><ele>891.0</ele><time>2026-05-02T13:35:24Z</time></trkpt><trkpt lat="43.73197562246674" lon="12.105417391818523"><ele>890.9999999999999</ele><time>2026-05-02T13:35:25Z</time></trkpt><trkpt lat="43.73205603584221" lon="12.105434932496795"><ele>890.9999999999999</ele><time>2026-05-02T13:35:26Z</time></trkpt><trkpt lat="43.7321559719869" lon="12.105441747646458"><ele>891.0</ele><time>2026-05-02T13:35:27Z</time></trkpt><trkpt lat="43.73225002887478" lon="12.105444845847114"><ele>891.0</ele><time>2026-05-02T13:35:28Z</time></trkpt><trkpt lat="43.73233528068733" lon="12.10545176084557"><ele>891.0</ele><time>2026-05-02T13:35:29Z</time></trkpt><trkpt lat="43.732444494318415" lon="12.10547232429763"><ele>890.9999999999999</ele><time>2026-05-02T13:35:30Z</time></trkpt><trkpt lat="43.7325676423065" lon="12.10550271199561"><ele>890.9999999999999</ele><time>2026-05-02T13:35:31Z</time></trkpt><trkpt lat="43.73268446844391" lon="12.10553857954411"><ele>891.0</ele><time>2026-05-02T13:35:32Z</time></trkpt><trkpt lat="43.732769279753406" lon="12.10556917458933"><ele>891.0</ele><time>2026-05-02T13:35:33Z</time></trkpt><trkpt lat="43.73283578419189" lon="12.105596923912548"><ele>889.4</ele><time>2026-05-02T13:35:34Z</time></trkpt><trkpt lat="43.73290407204776" lon="12.105633675048248"><ele>887.8</ele><time>2026-05-02T13:35:35Z</time></trkpt><trkpt lat="43.73300767275973" lon="12.105698307099912"><ele>886.1999999999999</ele><time>2026-05-02T13:35:37Z</time></trkpt><trkpt lat="43.73311570746994" lon="12.105773152872846"><ele>884.5999999999999</ele><time>2026-05-02T13:35:39Z</time></trkpt><trkpt lat="43.73321025208662" lon="12.105841654099859"><ele>883.0</ele><time>2026-05-02T13:35:40Z</time></trkpt><trkpt lat="43.73330567431905" lon="12.105891615734684"><ele>880.8</ele><time>2026-05-02T13:35:41Z</time></trkpt><trkpt lat="43.73341437748569" lon="12.105938591408833"><ele>878.5999999999999</ele><time>2026-05-02T13:35:42Z</time></trkpt><trkpt lat="43.73349276449224" lon="12.10597605890772"><ele>876.4000000000001</ele><time>2026-05-02T13:35:43Z</time></trkpt><trkpt lat="43.73356281448394" lon="12.105995385197797"><ele>874.2</ele><time>2026-05-02T13:35:44Z</time></trkpt><trkpt lat="43.733640360620306" lon="12.105991318811228"><ele>872.0</ele><time>2026-05-02T13:35:45Z</time></trkpt><trkpt lat="43.733736230822146" lon="12.105934470787705"><ele>868.8</ele><time>2026-05-02T13:35:46Z</time></trkpt><trkpt lat="43.73378464083405" lon="12.105776735585998"><ele>865.6</ele><time>2026-05-02T13:35:47Z</time></trkpt><trkpt lat="43.73382662223669" lon="12.105673063803366"><ele>862.3999999999999</ele><time>2026-05-02T13:35:48Z</time></trkpt><trkpt lat="43.733875712400334" lon="12.105548450052888"><ele>859.1999999999999</ele><time>2026-05-02T13:35:49Z</time></trkpt><trkpt lat="43.73392912965878" lon="12.105386291417311"><ele>856.0</ele><time>2026-05-02T13:35:50Z</time></trkpt><trkpt lat="43.73397058137066" lon="12.105206871984509"><ele>856.0</ele><time>2026-05-02T13:35:51Z</time></trkpt><trkpt lat="43.73400427399693" lon="12.105029050755272"><ele>856.0</ele><time>2026-05-02T13:35:52Z</time></trkpt><trkpt lat="43.73401842027515" lon="12.104860096769727"><ele>856.0</ele><time>2026-05-02T13:35:53Z</time></trkpt><trkpt lat="43.73403571567962" lon="12.104702682323534"><ele>856.0</ele><time>2026-05-02T13:35:54Z</time></trkpt><trkpt lat="43.73407921399331" lon="12.104559825901198"><ele>856.0</ele><time>2026-05-02T13:35:55Z</time></trkpt><trkpt lat="43.7341162033527" lon="12.104409000947284"><ele>855.9999999999999</ele><time>2026-05-02T13:35:56Z</time></trkpt><trkpt lat="43.73416821039636" lon="12.104276011259506"><ele>855.9999999999999</ele><time>2026-05-02T13:35:57Z</time></trkpt><trkpt lat="43.73422382332909" lon="12.104168878275424"><ele>856.0</ele><time>2026-05-02T13:35:58Z</time></trkpt><trkpt lat="43.734309202503894" lon="12.104118974018562"><ele>856.0</ele><time>2026-05-02T13:35:59Z</time></trkpt><trkpt lat="43.73439451018095" lon="12.10407054911695"><ele>855.3333333333333</ele><time>2026-05-02T13:36:00Z</time></trkpt><trkpt lat="43.73448365365388" lon="12.104024620915022"><ele>854.6666666666666</ele><time>2026-05-02T13:36:01Z</time></trkpt><trkpt lat="43.73457128184689" lon="12.103986793531348"><ele>854.0</ele><time>2026-05-02T13:36:02Z</time></trkpt><trkpt lat="43.734658584054976" lon="12.104004138030216"><ele>853.3333333333333</ele><time>2026-05-02T13:36:03Z</time></trkpt><trkpt lat="43.734733225824044" lon="12.103972050406195"><ele>852.6666666666666</ele><time>2026-05-02T13:36:04Z</time></trkpt><trkpt lat="43.73481250559879" lon="12.10398420277239"><ele>852.0</ele><time>2026-05-02T13:36:07Z</time></trkpt><trkpt lat="43.734916241664465" lon="12.103917562459845"><ele>852.0</ele><time>2026-05-02T13:36:09Z</time></trkpt><trkpt lat="43.73500165650182" lon="12.103866170927633"><ele>852.0</ele><time>2026-05-02T13:36:10Z</time></trkpt><trkpt lat="43.73506749245248" lon="12.103840640719097"><ele>852.0</ele><time>2026-05-02T13:36:11Z</time></trkpt><trkpt lat="43.73514631882605" lon="12.103808709367618"><ele>852.0</ele><time>2026-05-02T13:36:12Z</time></trkpt><trkpt lat="43.73523495984145" lon="12.103744331111734"><ele>852.0</ele><time>2026-05-02T13:36:13Z</time></trkpt><trkpt lat="43.73533760532213" lon="12.103718459515207"><ele>852.0</ele><time>2026-05-02T13:36:14Z</time></trkpt><trkpt lat="43.735417413533916" lon="12.103684446436507"><ele>852.6</ele><time>2026-05-02T13:36:15Z</time></trkpt><trkpt lat="43.73549273400263" lon="12.103621773441004"><ele>853.2</ele><time>2026-05-02T13:36:16Z</time></trkpt><trkpt lat="43.73557659814179" lon="12.103521077943753"><ele>853.8</ele><time>2026-05-02T13:36:17Z</time></trkpt><trkpt lat="43.73565900594926" lon="12.10341002943637"><ele>854.4</ele><time>2026-05-02T13:36:18Z</time></trkpt><trkpt lat="43.73572849822062" lon="12.103345400906784"><ele>855.0</ele><time>2026-05-02T13:36:19Z</time></trkpt><trkpt lat="43.73579428012161" lon="12.103260592153939"><ele>855.3333333333334</ele><time>2026-05-02T13:36:20Z</time></trkpt><trkpt lat="43.73584377780368" lon="12.10316253112682"><ele>855.6666666666667</ele><time>2026-05-02T13:36:21Z</time></trkpt><trkpt lat="43.73590985290427" lon="12.103100831030574"><ele>856.0</ele><time>2026-05-02T13:36:22Z</time></trkpt><trkpt lat="43.73596785190305" lon="12.103014056057548"><ele>856.3333333333334</ele><time>2026-05-02T13:36:23Z</time></trkpt><trkpt lat="43.73602694826875" lon="12.102923319918382"><ele>856.6666666666667</ele><time>2026-05-02T13:36:24Z</time></trkpt><trkpt lat="43.736086001742706" lon="12.102831520734714"><ele>857.0</ele><time>2026-05-02T13:36:25Z</time></trkpt><trkpt lat="43.73614671365465" lon="12.102735350435665"><ele>858.0</ele><time>2026-05-02T13:36:26Z</time></trkpt><trkpt lat="43.736208285379774" lon="12.102641245461594"><ele>859.0</ele><time>2026-05-02T13:36:27Z</time></trkpt><trkpt lat="43.73627297042853" lon="12.102571523640794"><ele>860.0</ele><time>2026-05-02T13:36:28Z</time></trkpt><trkpt lat="43.73633039124044" lon="12.102515204944542"><ele>861.0</ele><time>2026-05-02T13:36:29Z</time></trkpt><trkpt lat="43.736411839600464" lon="12.102455931723176"><ele>862.0</ele><time>2026-05-02T13:36:31Z</time></trkpt><trkpt lat="43.73653070503128" lon="12.10229620604996"><ele>861.9999999999999</ele><time>2026-05-02T13:36:33Z</time></trkpt><trkpt lat="43.73658762163876" lon="12.102186231355269"><ele>862.0</ele><time>2026-05-02T13:36:34Z</time></trkpt><trkpt lat="43.736646855183515" lon="12.102090484597905"><ele>862.0</ele><time>2026-05-02T13:36:35Z</time></trkpt><trkpt lat="43.73670273200728" lon="12.10201553679865"><ele>862.0</ele><time>2026-05-02T13:36:36Z</time></trkpt><trkpt lat="43.73676748051939" lon="12.101948309870322"><ele>861.9999999999999</ele><time>2026-05-02T13:36:37Z</time></trkpt><trkpt lat="43.73684108813124" lon="12.1018910331081"><ele>862.0</ele><time>2026-05-02T13:36:38Z</time></trkpt><trkpt lat="43.73692249938422" lon="12.101842239388827"><ele>862.6666666666666</ele><time>2026-05-02T13:36:39Z</time></trkpt><trkpt lat="43.737005976971396" lon="12.10181512222102"><ele>863.3333333333333</ele><time>2026-05-02T13:36:40Z</time></trkpt><trkpt lat="43.73709148505072" lon="12.101799165106756"><ele>864.0</ele><time>2026-05-02T13:36:41Z</time></trkpt><trkpt lat="43.7371769135987" lon="12.10178868932957"><ele>864.6666666666667</ele><time>2026-05-02T13:36:42Z</time></trkpt><trkpt lat="43.73726273023938" lon="12.101778148467776"><ele>865.3333333333334</ele><time>2026-05-02T13:36:43Z</time></trkpt><trkpt lat="43.73735044637227" lon="12.101767374292939"><ele>866.0</ele><time>2026-05-02T13:36:44Z</time></trkpt><trkpt lat="43.73744321788207" lon="12.101755979212035"><ele>866.0000000000001</ele><time>2026-05-02T13:36:45Z</time></trkpt><trkpt lat="43.737542195312294" lon="12.101742682933152"><ele>866.0</ele><time>2026-05-02T13:36:46Z</time></trkpt><trkpt lat="43.7376384283054" lon="12.101730350494083"><ele>866.0</ele><time>2026-05-02T13:36:47Z</time></trkpt><trkpt lat="43.73772615277129" lon="12.101719053355065"><ele>866.0</ele><time>2026-05-02T13:36:48Z</time></trkpt><trkpt lat="43.73780614016547" lon="12.101708752608888"><ele>866.0000000000001</ele><time>2026-05-02T13:36:49Z</time></trkpt><trkpt lat="43.73788850548548" lon="12.101697000235468"><ele>866.0</ele><time>2026-05-02T13:36:50Z</time></trkpt><trkpt lat="43.73797521051498" lon="12.101661884552751"><ele>866.0</ele><time>2026-05-02T13:36:51Z</time></trkpt><trkpt lat="43.73806570926488" lon="12.10165543726277"><ele>865.9999999999999</ele><time>2026-05-02T13:36:52Z</time></trkpt><trkpt lat="43.73816230713298" lon="12.101646948805831"><ele>865.9999999999999</ele><time>2026-05-02T13:36:53Z</time></trkpt><trkpt lat="43.738262232389175" lon="12.101632263197695"><ele>866.0</ele><time>2026-05-02T13:36:54Z</time></trkpt><trkpt lat="43.73837224699258" lon="12.101616052253435"><ele>866.0</ele><time>2026-05-02T13:36:55Z</time></trkpt><trkpt lat="43.73847891494173" lon="12.101603477158985"><ele>866.1999999999999</ele><time>2026-05-02T13:36:56Z</time></trkpt><trkpt lat="43.73858161986518" lon="12.101584044244285"><ele>866.3999999999999</ele><time>2026-05-02T13:36:57Z</time></trkpt><trkpt lat="43.738673948481384" lon="12.101594047752256"><ele>866.6</ele><time>2026-05-02T13:36:58Z</time></trkpt><trkpt lat="43.73877449049761" lon="12.10155837568684"><ele>866.8</ele><time>2026-05-02T13:36:59Z</time></trkpt><trkpt lat="43.73888745085477" lon="12.101540368557103"><ele>867.0</ele><time>2026-05-02T13:37:00Z</time></trkpt><trkpt lat="43.73900517967883" lon="12.101514339082124"><ele>867.0</ele><time>2026-05-02T13:37:01Z</time></trkpt><trkpt lat="43.739117019062434" lon="12.101457561846319"><ele>867.0</ele><time>2026-05-02T13:37:02Z</time></trkpt><trkpt lat="43.7392097537538" lon="12.101345986323405"><ele>867.0</ele><time>2026-05-02T13:37:03Z</time></trkpt><trkpt lat="43.73929192517565" lon="12.10123023571716"><ele>867.0</ele><time>2026-05-02T13:37:04Z</time></trkpt><trkpt lat="43.73935047847581" lon="12.101105440145274"><ele>868.25</ele><time>2026-05-02T13:37:05Z</time></trkpt><trkpt lat="43.73941721060277" lon="12.100964535457546"><ele>869.5</ele><time>2026-05-02T13:37:06Z</time></trkpt><trkpt lat="43.73945636806128" lon="12.100797493888825"><ele>870.75</ele><time>2026-05-02T13:37:07Z</time></trkpt><trkpt lat="43.73948973149524" lon="12.100616299643672"><ele>872.0</ele><time>2026-05-02T13:37:08Z</time></trkpt><trkpt lat="43.739526376162054" lon="12.100428020026275"><ele>874.0</ele><time>2026-05-02T13:37:09Z</time></trkpt><trkpt lat="43.739565137292765" lon="12.100228962492203"><ele>876.0</ele><time>2026-05-02T13:37:10Z</time></trkpt><trkpt lat="43.73960645938507" lon="12.10002755254247"><ele>878.0</ele><time>2026-05-02T13:37:11Z</time></trkpt><trkpt lat="43.739648178340865" lon="12.099824399337596"><ele>878.0</ele><time>2026-05-02T13:37:12Z</time></trkpt><trkpt lat="43.73968649048676" lon="12.099623372355001"><ele>878.0</ele><time>2026-05-02T13:37:13Z</time></trkpt><trkpt lat="43.739705071555754" lon="12.099444382785652"><ele>878.0</ele><time>2026-05-02T13:37:14Z</time></trkpt><trkpt lat="43.73974047689384" lon="12.099287525200781"><ele>878.0</ele><time>2026-05-02T13:37:15Z</time></trkpt><trkpt lat="43.73980234378014" lon="12.099122109893372"><ele>875.0</ele><time>2026-05-02T13:37:16Z</time></trkpt><trkpt lat="43.73988649126915" lon="12.098953012202967"><ele>872.0</ele><time>2026-05-02T13:37:17Z</time></trkpt><trkpt lat="43.739992371972" lon="12.098791936856792"><ele>869.0</ele><time>2026-05-02T13:37:18Z</time></trkpt><trkpt lat="43.74010109493443" lon="12.098651895840812"><ele>869.0</ele><time>2026-05-02T13:37:19Z</time></trkpt><trkpt lat="43.74020837530155" lon="12.098512087948086"><ele>869.0</ele><time>2026-05-02T13:37:20Z</time></trkpt><trkpt lat="43.74031239541139" lon="12.098374764089558"><ele>869.0</ele><time>2026-05-02T13:37:21Z</time></trkpt><trkpt lat="43.740409337749895" lon="12.098247100313342"><ele>869.0</ele><time>2026-05-02T13:37:22Z</time></trkpt><trkpt lat="43.740486439436914" lon="12.098114924734173"><ele>869.8000000000001</ele><time>2026-05-02T13:37:23Z</time></trkpt><trkpt lat="43.74057959532601" lon="12.097997230384218"><ele>870.6000000000001</ele><time>2026-05-02T13:37:24Z</time></trkpt><trkpt lat="43.74068124386013" lon="12.097891429884488"><ele>871.4</ele><time>2026-05-02T13:37:25Z</time></trkpt><trkpt lat="43.74075084324664" lon="12.097776252155779"><ele>872.2</ele><time>2026-05-02T13:37:26Z</time></trkpt><trkpt lat="43.74080342397423" lon="12.09770475666331"><ele>873.0</ele><time>2026-05-02T13:37:27Z</time></trkpt><trkpt lat="43.74088588772421" lon="12.097620191279312"><ele>873.0</ele><time>2026-05-02T13:37:29Z</time></trkpt><trkpt lat="43.740961016275385" lon="12.097520614558695"><ele>873.0</ele><time>2026-05-02T13:37:31Z</time></trkpt><trkpt lat="43.741042430167944" lon="12.097414308411134"><ele>873.0</ele><time>2026-05-02T13:37:33Z</time></trkpt><trkpt lat="43.741128205503074" lon="12.097308624456938"><ele>873.0</ele><time>2026-05-02T13:37:35Z</time></trkpt><trkpt lat="43.74119053764375" lon="12.097240231381198"><ele>873.0</ele><time>2026-05-02T13:37:37Z</time></trkpt><trkpt lat="43.74126320027846" lon="12.097186150107074"><ele>875.0</ele><time>2026-05-02T13:37:45Z</time></trkpt><trkpt lat="43.74133203795784" lon="12.09715683047548"><ele>877.0</ele><time>2026-05-02T13:37:52Z</time></trkpt><trkpt lat="43.74136917184117" lon="12.096930894981949"><ele>879.0</ele><time>2026-05-02T13:37:54Z</time></trkpt><trkpt lat="43.741544639735515" lon="12.096548709358355"><ele>879.0</ele><time>2026-05-02T13:38:00Z</time></trkpt><trkpt lat="43.741579408131976" lon="12.096457590272758"><ele>879.0</ele><time>2026-05-02T13:38:02Z</time></trkpt><trkpt lat="43.74161363106993" lon="12.096380391175133"><ele>879.0</ele><time>2026-05-02T13:38:03Z</time></trkpt><trkpt lat="43.74163330099718" lon="12.096246665868673"><ele>879.0</ele><time>2026-05-02T13:38:05Z</time></trkpt><trkpt lat="43.741643120299265" lon="12.096122184088305"><ele>879.0</ele><time>2026-05-02T13:38:07Z</time></trkpt><trkpt lat="43.74169749730303" lon="12.095995086075478"><ele>879.0</ele><time>2026-05-02T13:38:09Z</time></trkpt><trkpt lat="43.74176352683462" lon="12.09590860286111"><ele>879.0</ele><time>2026-05-02T13:38:11Z</time></trkpt><trkpt lat="43.741795660419875" lon="12.095796365759682"><ele>879.0000000000001</ele><time>2026-05-02T13:39:00Z</time></trkpt><trkpt lat="43.741841839224485" lon="12.095702251244655"><ele>879.0000000000001</ele><time>2026-05-02T13:39:02Z</time></trkpt><trkpt lat="43.74189966434551" lon="12.095620346084479"><ele>879.0</ele><time>2026-05-02T13:39:05Z</time></trkpt><trkpt lat="43.74201883068324" lon="12.095512767665893"><ele>879.0</ele><time>2026-05-02T13:39:07Z</time></trkpt><trkpt lat="43.742078673219076" lon="12.095468411426749"><ele>879.6</ele><time>2026-05-02T13:39:08Z</time></trkpt><trkpt lat="43.74216694644181" lon="12.095387646275585"><ele>880.2</ele><time>2026-05-02T13:39:10Z</time></trkpt><trkpt lat="43.74222657476031" lon="12.095307387712024"><ele>880.8000000000001</ele><time>2026-05-02T13:39:12Z</time></trkpt><trkpt lat="43.74229938658887" lon="12.095204313290802"><ele>881.4000000000001</ele><time>2026-05-02T13:39:14Z</time></trkpt><trkpt lat="43.742353679115794" lon="12.095151782495607"><ele>882.0</ele><time>2026-05-02T13:39:16Z</time></trkpt><trkpt lat="43.7424259257165" lon="12.095069386214627"><ele>882.0</ele><time>2026-05-02T13:39:18Z</time></trkpt><trkpt lat="43.742494426815895" lon="12.095044625461847"><ele>882.0</ele><time>2026-05-02T13:39:19Z</time></trkpt><trkpt lat="43.742574480341084" lon="12.095061060558828"><ele>882.0</ele><time>2026-05-02T13:39:21Z</time></trkpt><trkpt lat="43.742702284478" lon="12.095033531848046"><ele>882.0</ele><time>2026-05-02T13:39:23Z</time></trkpt><trkpt lat="43.74280875020368" lon="12.094998330293903"><ele>882.0</ele><time>2026-05-02T13:39:25Z</time></trkpt><trkpt lat="43.74287540799246" lon="12.094969822079673"><ele>881.8</ele><time>2026-05-02T13:39:27Z</time></trkpt><trkpt lat="43.742939727512365" lon="12.094935627800217"><ele>881.6</ele><time>2026-05-02T13:39:28Z</time></trkpt><trkpt lat="43.74303271594718" lon="12.094868622738224"><ele>881.3999999999999</ele><time>2026-05-02T13:39:30Z</time></trkpt><trkpt lat="43.74311171539881" lon="12.094782939993074"><ele>881.1999999999999</ele><time>2026-05-02T13:39:32Z</time></trkpt><trkpt lat="43.74317231020553" lon="12.094725668076025"><ele>881.0</ele><time>2026-05-02T13:39:35Z</time></trkpt><trkpt lat="43.74325441589155" lon="12.094613739326915"><ele>881.0</ele><time>2026-05-02T13:39:38Z</time></trkpt><trkpt lat="43.74332479765352" lon="12.094555208963573"><ele>880.9999999999999</ele><time>2026-05-02T13:39:40Z</time></trkpt><trkpt lat="43.74343901142164" lon="12.094449707806842"><ele>880.9999999999999</ele><time>2026-05-02T13:39:42Z</time></trkpt><trkpt lat="43.74350916989244" lon="12.094376574272165"><ele>881.0</ele><time>2026-05-02T13:39:44Z</time></trkpt><trkpt lat="43.74356681803303" lon="12.094289850303072"><ele>881.0</ele><time>2026-05-02T13:39:46Z</time></trkpt><trkpt lat="43.74361392134149" lon="12.09418427508001"><ele>880.1999999999999</ele><time>2026-05-02T13:39:48Z</time></trkpt><trkpt lat="43.743642146738885" lon="12.094044798154243"><ele>879.3999999999999</ele><time>2026-05-02T13:39:50Z</time></trkpt><trkpt lat="43.74364076120611" lon="12.09388702371999"><ele>878.6</ele><time>2026-05-02T13:39:52Z</time></trkpt><trkpt lat="43.74363619109329" lon="12.093753973018837"><ele>877.8</ele><time>2026-05-02T13:39:54Z</time></trkpt><trkpt lat="43.74364378092313" lon="12.09361229063694"><ele>877.0</ele><time>2026-05-02T13:39:56Z</time></trkpt><trkpt lat="43.743674793491216" lon="12.093499518352"><ele>876.9999999999999</ele><time>2026-05-02T13:39:58Z</time></trkpt><trkpt lat="43.74374214092602" lon="12.093437342967722"><ele>877.0</ele><time>2026-05-02T13:40:00Z</time></trkpt><trkpt lat="43.743836195249884" lon="12.093458166489759"><ele>877.0</ele><time>2026-05-02T13:40:01Z</time></trkpt><trkpt lat="43.74392350104129" lon="12.093445133579378"><ele>877.0</ele><time>2026-05-02T13:40:03Z</time></trkpt><trkpt lat="43.74400826942763" lon="12.093409020154658"><ele>876.9999999999999</ele><time>2026-05-02T13:40:13Z</time></trkpt><trkpt lat="43.74407718713015" lon="12.09336202896557"><ele>877.0</ele><time>2026-05-02T13:40:15Z</time></trkpt><trkpt lat="43.744191398455214" lon="12.093306550420294"><ele>877.8</ele><time>2026-05-02T13:40:17Z</time></trkpt><trkpt lat="43.74432461663943" lon="12.093237366458665"><ele>878.6</ele><time>2026-05-02T13:40:19Z</time></trkpt><trkpt lat="43.7444019409647" lon="12.09320364026052"><ele>879.3999999999999</ele><time>2026-05-02T13:40:20Z</time></trkpt><trkpt lat="43.74448210039835" lon="12.0931770501351"><ele>880.1999999999999</ele><time>2026-05-02T13:40:21Z</time></trkpt><trkpt lat="43.74456640208816" lon="12.093138007321317"><ele>881.0</ele><time>2026-05-02T13:40:22Z</time></trkpt><trkpt lat="43.74466253397921" lon="12.093100786093535"><ele>881.8333333333334</ele><time>2026-05-02T13:40:23Z</time></trkpt><trkpt lat="43.74474542155276" lon="12.093054181317486"><ele>882.6666666666667</ele><time>2026-05-02T13:40:24Z</time></trkpt><trkpt lat="43.74482843506557" lon="12.093031377553006"><ele>883.5</ele><time>2026-05-02T13:40:25Z</time></trkpt><trkpt lat="43.74491478160622" lon="12.093013966652034"><ele>884.3333333333333</ele><time>2026-05-02T13:40:27Z</time></trkpt><trkpt lat="43.74496901176322" lon="12.092913797051725"><ele>885.1666666666666</ele><time>2026-05-02T13:40:30Z</time></trkpt><trkpt lat="43.744957456774095" lon="12.092813719864061"><ele>886.0</ele><time>2026-05-02T13:40:32Z</time></trkpt><trkpt lat="43.74500149703512" lon="12.092706346538979"><ele>885.9999999999999</ele><time>2026-05-02T13:40:35Z</time></trkpt><trkpt lat="43.74506962966651" lon="12.092708492556168"><ele>886.0</ele><time>2026-05-02T13:40:37Z</time></trkpt><trkpt lat="43.745152656072776" lon="12.092646562388216"><ele>886.0</ele><time>2026-05-02T13:40:39Z</time></trkpt><trkpt lat="43.74521884293233" lon="12.092557924605348"><ele>886.0</ele><time>2026-05-02T13:40:41Z</time></trkpt><trkpt lat="43.74530503834444" lon="12.092540741673306"><ele>885.9999999999999</ele><time>2026-05-02T13:40:44Z</time></trkpt><trkpt lat="43.745387179307386" lon="12.092493837472375"><ele>886.0</ele><time>2026-05-02T13:40:46Z</time></trkpt><trkpt lat="43.74548312163367" lon="12.092470385449126"><ele>887.1666666666666</ele><time>2026-05-02T13:40:48Z</time></trkpt><trkpt lat="43.74556922325091" lon="12.092467312001414"><ele>888.3333333333333</ele><time>2026-05-02T13:40:50Z</time></trkpt><trkpt lat="43.74566244283001" lon="12.092462063058647"><ele>889.5</ele><time>2026-05-02T13:40:52Z</time></trkpt><trkpt lat="43.745725031354375" lon="12.092416686860146"><ele>890.6666666666667</ele><time>2026-05-02T13:40:54Z</time></trkpt><trkpt lat="43.745755515246906" lon="12.092337302640455"><ele>891.8333333333334</ele><time>2026-05-02T13:41:22Z</time></trkpt><trkpt lat="43.74579219906566" lon="12.092248644157278"><ele>893.0</ele><time>2026-05-02T13:41:45Z</time></trkpt><trkpt lat="43.745883928661634" lon="12.09217512400633"><ele>893.0</ele><time>2026-05-02T13:41:47Z</time></trkpt><trkpt lat="43.74595091975389" lon="12.092142842849633"><ele>893.0</ele><time>2026-05-02T13:41:50Z</time></trkpt><trkpt lat="43.74588769361504" lon="12.092191828155164"><ele>893.0</ele><time>2026-05-02T13:42:01Z</time></trkpt><trkpt lat="43.745820586171256" lon="12.092242012497442"><ele>893.0</ele><time>2026-05-02T13:42:05Z</time></trkpt><trkpt lat="43.74586686953298" lon="12.092150158906211"><ele>893.0</ele><time>2026-05-02T13:42:44Z</time></trkpt><trkpt lat="43.74593382935175" lon="12.092131484271182"><ele>893.0</ele><time>2026-05-02T13:42:48Z</time></trkpt><trkpt lat="43.745999030305214" lon="12.092131998147428"><ele>893.0</ele><time>2026-05-02T13:44:08Z</time></trkpt><trkpt lat="43.74608209466207" lon="12.09212271247606"><ele>894.2</ele><time>2026-05-02T13:44:10Z</time></trkpt><trkpt lat="43.74617369641163" lon="12.092090283312867"><ele>895.4</ele><time>2026-05-02T13:44:12Z</time></trkpt><trkpt lat="43.74630485314777" lon="12.092041370418498"><ele>896.6000000000001</ele><time>2026-05-02T13:44:14Z</time></trkpt><trkpt lat="43.74636916949989" lon="12.092023663218917"><ele>897.8000000000001</ele><time>2026-05-02T13:44:15Z</time></trkpt><trkpt lat="43.74648419754515" lon="12.091981521013329"><ele>899.0</ele><time>2026-05-02T13:44:17Z</time></trkpt><trkpt lat="43.74658533007403" lon="12.091945341354398"><ele>899.0</ele><time>2026-05-02T13:44:19Z</time></trkpt><trkpt lat="43.746684516694266" lon="12.09200081447804"><ele>899.0000000000001</ele><time>2026-05-02T13:44:21Z</time></trkpt><trkpt lat="43.74675223249158" lon="12.092082942554644"><ele>899.0000000000001</ele><time>2026-05-02T13:44:23Z</time></trkpt><trkpt lat="43.74679421022235" lon="12.0921493656355"><ele>899.0</ele><time>2026-05-02T13:44:25Z</time></trkpt><trkpt lat="43.746864095471224" lon="12.092174435300686"><ele>899.0</ele><time>2026-05-02T13:44:28Z</time></trkpt><trkpt lat="43.74697864363315" lon="12.092143455777611"><ele>898.8333333333334</ele><time>2026-05-02T13:44:30Z</time></trkpt><trkpt lat="43.74704682862357" lon="12.092108587505006"><ele>898.6666666666667</ele><time>2026-05-02T13:44:33Z</time></trkpt><trkpt lat="43.74709613139023" lon="12.092172634008012"><ele>898.5</ele><time>2026-05-02T13:46:05Z</time></trkpt><trkpt lat="43.74715157252362" lon="12.092243409588455"><ele>898.3333333333333</ele><time>2026-05-02T13:48:51Z</time></trkpt><trkpt lat="43.74724344597237" lon="12.092294778522913"><ele>898.1666666666666</ele><time>2026-05-02T13:48:54Z</time></trkpt><trkpt lat="43.747327048804735" lon="12.09232882958716"><ele>898.0</ele><time>2026-05-02T13:48:57Z</time></trkpt><trkpt lat="43.74741253237606" lon="12.092373485860984"><ele>898.6666666666666</ele><time>2026-05-02T13:49:00Z</time></trkpt><trkpt lat="43.747473041286526" lon="12.092442277683006"><ele>899.3333333333333</ele><time>2026-05-02T13:49:35Z</time></trkpt><trkpt lat="43.74751412399027" lon="12.092570225761559"><ele>900.0</ele><time>2026-05-02T13:49:37Z</time></trkpt><trkpt lat="43.74752241573312" lon="12.092660293640407"><ele>900.6666666666667</ele><time>2026-05-02T13:49:40Z</time></trkpt><trkpt lat="43.74743148259624" lon="12.092725134784303"><ele>901.3333333333334</ele><time>2026-05-02T13:49:43Z</time></trkpt><trkpt lat="43.74738172272564" lon="12.092789123860435"><ele>902.0</ele><time>2026-05-02T13:49:45Z</time></trkpt><trkpt lat="43.747320840622876" lon="12.092857620220919"><ele>902.0000000000001</ele><time>2026-05-02T13:49:47Z</time></trkpt><trkpt lat="43.74724797455599" lon="12.092873889096857"><ele>902.0</ele><time>2026-05-02T13:49:49Z</time></trkpt><trkpt lat="43.74718740905784" lon="12.092902775664951"><ele>902.0</ele><time>2026-05-02T13:49:51Z</time></trkpt><trkpt lat="43.747116504174535" lon="12.092930099708232"><ele>902.0</ele><time>2026-05-02T13:49:54Z</time></trkpt><trkpt lat="43.747052912446186" lon="12.092823651172116"><ele>902.0000000000001</ele><time>2026-05-02T13:50:01Z</time></trkpt><trkpt lat="43.74703413747953" lon="12.092701152248862"><ele>902.0</ele><time>2026-05-02T13:50:03Z</time></trkpt><trkpt lat="43.747037243460966" lon="12.092587225082271"><ele>902.0</ele><time>2026-05-02T13:50:05Z</time></trkpt><trkpt lat="43.7469983878973" lon="12.092445438881109"><ele>902.0</ele><time>2026-05-02T13:50:07Z</time></trkpt><trkpt lat="43.74692800998798" lon="12.092350913741996"><ele>902.0</ele><time>2026-05-02T13:50:09Z</time></trkpt><trkpt lat="43.74686772264344" lon="12.092255818126219"><ele>902.0</ele><time>2026-05-02T13:50:11Z</time></trkpt><trkpt lat="43.746812714653" lon="12.092187637238897"><ele>902.0</ele><time>2026-05-02T13:50:14Z</time></trkpt><trkpt lat="43.746749668899355" lon="12.092097301140027"><ele>901.4000000000001</ele><time>2026-05-02T13:50:16Z</time></trkpt><trkpt lat="43.74665697678537" lon="12.09198758749754"><ele>900.8000000000001</ele><time>2026-05-02T13:50:18Z</time></trkpt><trkpt lat="43.746593213945836" lon="12.091933022240543"><ele>900.2</ele><time>2026-05-02T13:50:20Z</time></trkpt><trkpt lat="43.7466004009637" lon="12.091732012567395"><ele>899.6</ele><time>2026-05-02T13:50:33Z</time></trkpt><trkpt lat="43.74660149061166" lon="12.091612318974956"><ele>899.0</ele><time>2026-05-02T13:50:35Z</time></trkpt><trkpt lat="43.74658562679202" lon="12.091493349903192"><ele>898.4000000000001</ele><time>2026-05-02T13:50:38Z</time></trkpt><trkpt lat="43.74652644822051" lon="12.091340692207433"><ele>897.8000000000001</ele><time>2026-05-02T13:50:40Z</time></trkpt><trkpt lat="43.74650259660173" lon="12.091253465292379"><ele>897.1999999999999</ele><time>2026-05-02T13:50:41Z</time></trkpt><trkpt lat="43.746485943564764" lon="12.091148027917768"><ele>896.5999999999999</ele><time>2026-05-02T13:50:42Z</time></trkpt><trkpt lat="43.74648025583273" lon="12.09098592455258"><ele>896.0</ele><time>2026-05-02T13:50:44Z</time></trkpt><trkpt lat="43.74647369729319" lon="12.0908670612693"><ele>896.8</ele><time>2026-05-02T13:50:46Z</time></trkpt><trkpt lat="43.74652489969399" lon="12.09072451141789"><ele>897.5999999999999</ele><time>2026-05-02T13:50:48Z</time></trkpt><trkpt lat="43.74658084603451" lon="12.09068309444365"><ele>898.4</ele><time>2026-05-02T13:50:49Z</time></trkpt><trkpt lat="43.74666062654871" lon="12.090640635548327"><ele>899.2</ele><time>2026-05-02T13:50:50Z</time></trkpt><trkpt lat="43.74675020927581" lon="12.090578099720368"><ele>900.0</ele><time>2026-05-02T13:50:51Z</time></trkpt><trkpt lat="43.74683494023894" lon="12.090508915986085"><ele>900.4</ele><time>2026-05-02T13:50:52Z</time></trkpt><trkpt lat="43.746930651038156" lon="12.090435400418302"><ele>900.8</ele><time>2026-05-02T13:50:53Z</time></trkpt><trkpt lat="43.747024297694594" lon="12.090359575881713"><ele>901.2</ele><time>2026-05-02T13:50:54Z</time></trkpt><trkpt lat="43.747098749394134" lon="12.090311937332158"><ele>901.6</ele><time>2026-05-02T13:50:55Z</time></trkpt><trkpt lat="43.747174224282084" lon="12.090253838948769"><ele>902.0</ele><time>2026-05-02T13:50:56Z</time></trkpt><trkpt lat="43.74724556387494" lon="12.090177645493755"><ele>902.0000000000001</ele><time>2026-05-02T13:50:57Z</time></trkpt><trkpt lat="43.747308971926266" lon="12.090124103978248"><ele>902.0</ele><time>2026-05-02T13:50:58Z</time></trkpt><trkpt lat="43.74741541941961" lon="12.090064089797378"><ele>902.0</ele><time>2026-05-02T13:51:00Z</time></trkpt><trkpt lat="43.74748010892186" lon="12.09005854977753"><ele>902.0</ele><time>2026-05-02T13:51:01Z</time></trkpt><trkpt lat="43.747551461555766" lon="12.0900443276138"><ele>902.0000000000001</ele><time>2026-05-02T13:51:02Z</time></trkpt><trkpt lat="43.747624699195235" lon="12.090015453732995"><ele>902.0</ele><time>2026-05-02T13:51:03Z</time></trkpt><trkpt lat="43.74773560886114" lon="12.089973969510822"><ele>899.5000000000001</ele><time>2026-05-02T13:51:05Z</time></trkpt><trkpt lat="43.747813682758945" lon="12.089941155036952"><ele>897.0</ele><time>2026-05-02T13:51:07Z</time></trkpt><trkpt lat="43.747896582011165" lon="12.089963064626069"><ele>894.5</ele><time>2026-05-02T13:51:11Z</time></trkpt><trkpt lat="43.74796054433072" lon="12.090019592273828"><ele>892.0</ele><time>2026-05-02T13:51:13Z</time></trkpt><trkpt lat="43.74803117921362" lon="12.090082301771247"><ele>889.5000000000001</ele><time>2026-05-02T13:51:15Z</time></trkpt><trkpt lat="43.74812224527211" lon="12.090139049149753"><ele>887.0</ele><time>2026-05-02T13:51:17Z</time></trkpt><trkpt lat="43.74818626553893" lon="12.09020340806729"><ele>887.0</ele><time>2026-05-02T13:51:20Z</time></trkpt><trkpt lat="43.74826434083533" lon="12.090352120254643"><ele>887.0</ele><time>2026-05-02T13:51:21Z</time></trkpt><trkpt lat="43.74828593030695" lon="12.090493174371485"><ele>887.0</ele><time>2026-05-02T13:51:24Z</time></trkpt><trkpt lat="43.748323474726156" lon="12.090619468503355"><ele>887.0</ele><time>2026-05-02T13:51:26Z</time></trkpt><trkpt lat="43.748381072019136" lon="12.090723972197866"><ele>887.0</ele><time>2026-05-02T13:51:28Z</time></trkpt><trkpt lat="43.74845109152676" lon="12.090846513261303"><ele>886.8333333333334</ele><time>2026-05-02T13:51:30Z</time></trkpt><trkpt lat="43.74853019215009" lon="12.090967284116854"><ele>886.6666666666667</ele><time>2026-05-02T13:51:32Z</time></trkpt><trkpt lat="43.74859012116864" lon="12.091010851495433"><ele>886.5</ele><time>2026-05-02T13:51:33Z</time></trkpt><trkpt lat="43.748656519647575" lon="12.091046723700208"><ele>886.3333333333333</ele><time>2026-05-02T13:51:34Z</time></trkpt><trkpt lat="43.74873755170437" lon="12.091121732187055"><ele>886.1666666666666</ele><time>2026-05-02T13:51:35Z</time></trkpt><trkpt lat="43.74881049039441" lon="12.091168456924573"><ele>886.0</ele><time>2026-05-02T13:51:36Z</time></trkpt><trkpt lat="43.74889821892507" lon="12.09120872122543"><ele>882.8</ele><time>2026-05-02T13:51:37Z</time></trkpt><trkpt lat="43.74897140073211" lon="12.091230648965968"><ele>879.5999999999999</ele><time>2026-05-02T13:51:38Z</time></trkpt><trkpt lat="43.749037794818" lon="12.091242546817343"><ele>876.4</ele><time>2026-05-02T13:51:40Z</time></trkpt><trkpt lat="43.749102839961594" lon="12.09123773582102"><ele>873.2</ele><time>2026-05-02T13:51:42Z</time></trkpt><trkpt lat="43.74924150979154" lon="12.091134352840793"><ele>870.0</ele><time>2026-05-02T13:51:45Z</time></trkpt><trkpt lat="43.749324807385975" lon="12.091084528587887"><ele>867.6</ele><time>2026-05-02T13:51:46Z</time></trkpt><trkpt lat="43.749418776981855" lon="12.09113983413021"><ele>865.2</ele><time>2026-05-02T13:51:49Z</time></trkpt><trkpt lat="43.74946962760068" lon="12.091294366517484"><ele>862.8</ele><time>2026-05-02T13:51:51Z</time></trkpt><trkpt lat="43.749475408493296" lon="12.091383863392293"><ele>860.4</ele><time>2026-05-02T13:51:52Z</time></trkpt><trkpt lat="43.74947747485168" lon="12.09147289249005"><ele>858.0</ele><time>2026-05-02T13:51:53Z</time></trkpt><trkpt lat="43.74947986428398" lon="12.091614282096684"><ele>858.0</ele><time>2026-05-02T13:51:55Z</time></trkpt><trkpt lat="43.749502188909936" lon="12.091715099360258"><ele>858.0</ele><time>2026-05-02T13:51:57Z</time></trkpt><trkpt lat="43.74956804367199" lon="12.09184032614335"><ele>858.0</ele><time>2026-05-02T13:51:59Z</time></trkpt><trkpt lat="43.74962337462152" lon="12.091896770013802"><ele>858.0</ele><time>2026-05-02T13:52:00Z</time></trkpt><trkpt lat="43.74963300645258" lon="12.092010605352218"><ele>858.0</ele><time>2026-05-02T13:52:01Z</time></trkpt><trkpt lat="43.749677427988026" lon="12.09215524209991"><ele>858.0</ele><time>2026-05-02T13:52:03Z</time></trkpt><trkpt lat="43.749747079049044" lon="12.092258754918745"><ele>858.0</ele><time>2026-05-02T13:52:05Z</time></trkpt><trkpt lat="43.74980996827309" lon="12.092272136297881"><ele>858.0</ele><time>2026-05-02T13:52:09Z</time></trkpt><trkpt lat="43.74985536794736" lon="12.092186050896334"><ele>858.0</ele><time>2026-05-02T13:52:12Z</time></trkpt><trkpt lat="43.749915570667774" lon="12.092087820811932"><ele>858.0</ele><time>2026-05-02T13:52:14Z</time></trkpt><trkpt lat="43.749949588938975" lon="12.092004066975704"><ele>858.0</ele><time>2026-05-02T13:52:15Z</time></trkpt><trkpt lat="43.75001126217587" lon="12.091877753403574"><ele>858.0</ele><time>2026-05-02T13:52:17Z</time></trkpt><trkpt lat="43.750055722395665" lon="12.09178981098144"><ele>858.0</ele><time>2026-05-02T13:52:18Z</time></trkpt><trkpt lat="43.7500913437502" lon="12.091691643779551"><ele>858.0</ele><time>2026-05-02T13:52:19Z</time></trkpt><trkpt lat="43.750137463241835" lon="12.091561990563456"><ele>858.0</ele><time>2026-05-02T13:52:20Z</time></trkpt><trkpt lat="43.75019208009744" lon="12.091438583151158"><ele>858.0</ele><time>2026-05-02T13:52:21Z</time></trkpt><trkpt lat="43.750249536144096" lon="12.091333694413805"><ele>856.0</ele><time>2026-05-02T13:52:22Z</time></trkpt><trkpt lat="43.75029853498261" lon="12.091248747586645"><ele>854.0</ele><time>2026-05-02T13:52:23Z</time></trkpt><trkpt lat="43.750329383757396" lon="12.09116904050534"><ele>852.0</ele><time>2026-05-02T13:52:24Z</time></trkpt><trkpt lat="43.75038015090035" lon="12.091021349278805"><ele>850.0</ele><time>2026-05-02T13:52:26Z</time></trkpt><trkpt lat="43.75041892082595" lon="12.090943833435379"><ele>848.0</ele><time>2026-05-02T13:52:27Z</time></trkpt><trkpt lat="43.750457216492926" lon="12.09086489461064"><ele>846.0</ele><time>2026-05-02T13:52:28Z</time></trkpt><trkpt lat="43.750497705997994" lon="12.090781325623668"><ele>844.8333333333334</ele><time>2026-05-02T13:52:29Z</time></trkpt><trkpt lat="43.75053114542655" lon="12.090701268233229"><ele>843.6666666666667</ele><time>2026-05-02T13:52:30Z</time></trkpt><trkpt lat="43.75058086670929" lon="12.090573930756133"><ele>842.5</ele><time>2026-05-02T13:52:32Z</time></trkpt><trkpt lat="43.750645719426544" lon="12.0904767774193"><ele>841.3333333333334</ele><time>2026-05-02T13:52:34Z</time></trkpt><trkpt lat="43.75072470650353" lon="12.09041971163449"><ele>840.1666666666667</ele><time>2026-05-02T13:52:36Z</time></trkpt><trkpt lat="43.7507891024264" lon="12.090377801213407"><ele>839.0</ele><time>2026-05-02T13:52:37Z</time></trkpt><trkpt lat="43.75086890765333" lon="12.090273896516516"><ele>839.0000000000001</ele><time>2026-05-02T13:52:39Z</time></trkpt><trkpt lat="43.75089735515158" lon="12.09016562696211"><ele>839.0</ele><time>2026-05-02T13:52:49Z</time></trkpt><trkpt lat="43.750908869582254" lon="12.090071253439499"><ele>839.0</ele><time>2026-05-02T13:52:51Z</time></trkpt><trkpt lat="43.75093830480122" lon="12.089945458851117"><ele>839.0</ele><time>2026-05-02T13:52:53Z</time></trkpt><trkpt lat="43.750976387510214" lon="12.089857515206228"><ele>839.0000000000001</ele><time>2026-05-02T13:52:55Z</time></trkpt><trkpt lat="43.751030322712616" lon="12.089758540089564"><ele>839.0</ele><time>2026-05-02T13:52:57Z</time></trkpt><trkpt lat="43.75108575586687" lon="12.089689106985455"><ele>837.2</ele><time>2026-05-02T13:52:59Z</time></trkpt><trkpt lat="43.75114087300806" lon="12.089606313200568"><ele>835.4000000000001</ele><time>2026-05-02T13:53:01Z</time></trkpt><trkpt lat="43.75118804109574" lon="12.089499497279729"><ele>833.6</ele><time>2026-05-02T13:53:03Z</time></trkpt><trkpt lat="43.75123210488702" lon="12.089399218187733"><ele>831.8</ele><time>2026-05-02T13:53:05Z</time></trkpt><trkpt lat="43.75128948229468" lon="12.08927621669032"><ele>830.0</ele><time>2026-05-02T13:53:07Z</time></trkpt><trkpt lat="43.75133856672169" lon="12.089167793563822"><ele>828.6</ele><time>2026-05-02T13:53:09Z</time></trkpt><trkpt lat="43.75138602779335" lon="12.089054022797187"><ele>827.2</ele><time>2026-05-02T13:53:11Z</time></trkpt><trkpt lat="43.75142170571574" lon="12.088951369467823"><ele>825.8</ele><time>2026-05-02T13:53:13Z</time></trkpt><trkpt lat="43.75146305652841" lon="12.088813547857326"><ele>824.4</ele><time>2026-05-02T13:53:15Z</time></trkpt><trkpt lat="43.751494712820616" lon="12.088679921532249"><ele>823.0</ele><time>2026-05-02T13:53:17Z</time></trkpt><trkpt lat="43.75152492183943" lon="12.088567422875585"><ele>823.0</ele><time>2026-05-02T13:53:19Z</time></trkpt><trkpt lat="43.75154369207203" lon="12.088426190711292"><ele>823.0</ele><time>2026-05-02T13:53:21Z</time></trkpt><trkpt lat="43.75154539028533" lon="12.088251256569542"><ele>823.0</ele><time>2026-05-02T13:53:23Z</time></trkpt><trkpt lat="43.75153501336418" lon="12.088142415144349"><ele>823.0</ele><time>2026-05-02T13:53:25Z</time></trkpt><trkpt lat="43.7515418794337" lon="12.088033888738705"><ele>823.0</ele><time>2026-05-02T13:53:28Z</time></trkpt><trkpt lat="43.751614115118564" lon="12.08799806627362"><ele>821.4999999999999</ele><time>2026-05-02T13:53:31Z</time></trkpt><trkpt lat="43.75169054520065" lon="12.088051832517936"><ele>820.0</ele><time>2026-05-02T13:53:34Z</time></trkpt><trkpt lat="43.75176901672882" lon="12.08812887123685"><ele>818.5</ele><time>2026-05-02T13:53:37Z</time></trkpt><trkpt lat="43.75182988497002" lon="12.08816506542624"><ele>817.0</ele><time>2026-05-02T13:53:40Z</time></trkpt><trkpt lat="43.751876389011315" lon="12.088086831347665"><ele>815.4999999999999</ele><time>2026-05-02T13:53:42Z</time></trkpt><trkpt lat="43.751927730897314" lon="12.087936536944806"><ele>814.0</ele><time>2026-05-02T13:53:44Z</time></trkpt><trkpt lat="43.7519404735331" lon="12.08778766103981"><ele>813.9999999999999</ele><time>2026-05-02T13:53:46Z</time></trkpt><trkpt lat="43.75194505670628" lon="12.087686657145136"><ele>814.0</ele><time>2026-05-02T13:53:47Z</time></trkpt><trkpt lat="43.75195805604184" lon="12.087601232812501"><ele>814.0</ele><time>2026-05-02T13:53:48Z</time></trkpt><trkpt lat="43.75198817489068" lon="12.087508999008175"><ele>814.0</ele><time>2026-05-02T13:53:49Z</time></trkpt><trkpt lat="43.752020591082086" lon="12.087430214543971"><ele>813.9999999999999</ele><time>2026-05-02T13:53:50Z</time></trkpt><trkpt lat="43.75208561691177" lon="12.08727393416632"><ele>814.0</ele><time>2026-05-02T13:53:52Z</time></trkpt><trkpt lat="43.75212907315907" lon="12.087180866122026"><ele>812.9999999999999</ele><time>2026-05-02T13:53:53Z</time></trkpt><trkpt lat="43.75216674591127" lon="12.08709146733329"><ele>812.0</ele><time>2026-05-02T13:53:54Z</time></trkpt><trkpt lat="43.752215266121404" lon="12.087017231286566"><ele>811.0</ele><time>2026-05-02T13:53:55Z</time></trkpt><trkpt lat="43.75230301468585" lon="12.08693150274405"><ele>810.0</ele><time>2026-05-02T13:53:57Z</time></trkpt><trkpt lat="43.75236198697662" lon="12.086891641125284"><ele>808.9999999999999</ele><time>2026-05-02T13:53:58Z</time></trkpt><trkpt lat="43.75243497021166" lon="12.086848110703448"><ele>808.0</ele><time>2026-05-02T13:53:59Z</time></trkpt><trkpt lat="43.75253767120344" lon="12.086816982147983"><ele>808.0</ele><time>2026-05-02T13:54:01Z</time></trkpt><trkpt lat="43.75264053837515" lon="12.086856782228216"><ele>808.0</ele><time>2026-05-02T13:54:03Z</time></trkpt><trkpt lat="43.75269798197517" lon="12.086911681655135"><ele>808.0</ele><time>2026-05-02T13:54:05Z</time></trkpt><trkpt lat="43.7527708082892" lon="12.08689464149884"><ele>808.0</ele><time>2026-05-02T13:54:08Z</time></trkpt><trkpt lat="43.75280667275105" lon="12.086712643604951"><ele>808.0</ele><time>2026-05-02T13:54:10Z</time></trkpt><trkpt lat="43.75283445736829" lon="12.086586382017764"><ele>807.6666666666666</ele><time>2026-05-02T13:54:11Z</time></trkpt><trkpt lat="43.752840983869824" lon="12.08646608082704"><ele>807.3333333333333</ele><time>2026-05-02T13:54:12Z</time></trkpt><trkpt lat="43.75284584918313" lon="12.086356693939202"><ele>807.0</ele><time>2026-05-02T13:54:13Z</time></trkpt><trkpt lat="43.75286755802754" lon="12.086251426064438"><ele>806.6666666666667</ele><time>2026-05-02T13:54:14Z</time></trkpt><trkpt lat="43.75289785898406" lon="12.086140379761847"><ele>806.3333333333334</ele><time>2026-05-02T13:54:15Z</time></trkpt><trkpt lat="43.752919495634195" lon="12.086030396520751"><ele>806.0</ele><time>2026-05-02T13:54:16Z</time></trkpt><trkpt lat="43.752947813884894" lon="12.085907059486273"><ele>806.0</ele><time>2026-05-02T13:54:18Z</time></trkpt><trkpt lat="43.753034446311126" lon="12.085766825293778"><ele>806.0</ele><time>2026-05-02T13:54:20Z</time></trkpt><trkpt lat="43.75309458528199" lon="12.085686833342047"><ele>806.0</ele><time>2026-05-02T13:54:22Z</time></trkpt><trkpt lat="43.75316884389404" lon="12.085614171857424"><ele>806.0</ele><time>2026-05-02T13:54:56Z</time></trkpt><trkpt lat="43.75324311827346" lon="12.085485877809349"><ele>806.0</ele><time>2026-05-02T13:54:58Z</time></trkpt><trkpt lat="43.75332356303208" lon="12.085358456385814"><ele>804.3333333333334</ele><time>2026-05-02T13:55:00Z</time></trkpt><trkpt lat="43.75336572084705" lon="12.085240400926317"><ele>802.6666666666667</ele><time>2026-05-02T13:55:01Z</time></trkpt><trkpt lat="43.753366997996025" lon="12.085122295432635"><ele>801.0</ele><time>2026-05-02T13:55:02Z</time></trkpt><trkpt lat="43.75339098610599" lon="12.085013217564786"><ele>799.3333333333333</ele><time>2026-05-02T13:55:03Z</time></trkpt><trkpt lat="43.75342110775956" lon="12.084924525716401"><ele>797.6666666666666</ele><time>2026-05-02T13:55:04Z</time></trkpt><trkpt lat="43.75345872289984" lon="12.084842234047471"><ele>796.0</ele><time>2026-05-02T13:55:05Z</time></trkpt><trkpt lat="43.753496761897374" lon="12.084765878176004"><ele>796.0</ele><time>2026-05-02T13:55:06Z</time></trkpt><trkpt lat="43.753536791009466" lon="12.08468983467472"><ele>796.0</ele><time>2026-05-02T13:55:07Z</time></trkpt><trkpt lat="43.75359566359128" lon="12.084530021464301"><ele>796.0</ele><time>2026-05-02T13:55:09Z</time></trkpt><trkpt lat="43.753619583544285" lon="12.084380804122576"><ele>796.0</ele><time>2026-05-02T13:55:11Z</time></trkpt><trkpt lat="43.75363681486875" lon="12.084242881967239"><ele>796.0</ele><time>2026-05-02T13:55:13Z</time></trkpt><trkpt lat="43.75366152628909" lon="12.084095118158316"><ele>793.5999999999999</ele><time>2026-05-02T13:55:15Z</time></trkpt><trkpt lat="43.75368625740324" lon="12.083912596637143"><ele>791.2</ele><time>2026-05-02T13:55:17Z</time></trkpt><trkpt lat="43.753698225343214" lon="12.083813732354402"><ele>788.8</ele><time>2026-05-02T13:55:18Z</time></trkpt><trkpt lat="43.753706898152394" lon="12.08369296626993"><ele>786.4000000000001</ele><time>2026-05-02T13:55:19Z</time></trkpt><trkpt lat="43.753690640617016" lon="12.083547436810827"><ele>784.0</ele><time>2026-05-02T13:55:20Z</time></trkpt><trkpt lat="43.75364873553217" lon="12.083435408474163"><ele>783.9999999999999</ele><time>2026-05-02T13:55:21Z</time></trkpt><trkpt lat="43.75361093383383" lon="12.083322877071337"><ele>784.0</ele><time>2026-05-02T13:55:22Z</time></trkpt><trkpt lat="43.75357629472313" lon="12.083233962476934"><ele>784.0</ele><time>2026-05-02T13:55:23Z</time></trkpt><trkpt lat="43.75354123241286" lon="12.083145057516667"><ele>784.0</ele><time>2026-05-02T13:55:24Z</time></trkpt><trkpt lat="43.75353385339761" lon="12.082965675419713"><ele>783.9999999999999</ele><time>2026-05-02T13:55:26Z</time></trkpt><trkpt lat="43.75354274614052" lon="12.082862272624787"><ele>784.0</ele><time>2026-05-02T13:55:27Z</time></trkpt><trkpt lat="43.753552283571565" lon="12.082771882950308"><ele>783.4999999999999</ele><time>2026-05-02T13:55:28Z</time></trkpt><trkpt lat="43.75357209205939" lon="12.082660755325891"><ele>783.0</ele><time>2026-05-02T13:55:31Z</time></trkpt><trkpt lat="43.75362252892558" lon="12.082583423128087"><ele>782.5</ele><time>2026-05-02T13:55:34Z</time></trkpt><trkpt lat="43.753685330785736" lon="12.082526848994712"><ele>782.0</ele><time>2026-05-02T13:55:36Z</time></trkpt><trkpt lat="43.75374313009734" lon="12.082445534891757"><ele>781.4999999999999</ele><time>2026-05-02T13:55:38Z</time></trkpt><trkpt lat="43.753798320474736" lon="12.082359449636211"><ele>781.0</ele><time>2026-05-02T13:55:40Z</time></trkpt><trkpt lat="43.753873816435124" lon="12.082321933682238"><ele>782.1999999999999</ele><time>2026-05-02T13:55:42Z</time></trkpt><trkpt lat="43.75394583658837" lon="12.082276991624138"><ele>783.4</ele><time>2026-05-02T13:55:44Z</time></trkpt><trkpt lat="43.754010314452124" lon="12.082168838882236"><ele>784.6</ele><time>2026-05-02T13:55:46Z</time></trkpt><trkpt lat="43.754055540400785" lon="12.082042981350256"><ele>785.8</ele><time>2026-05-02T13:55:48Z</time></trkpt><trkpt lat="43.754101489453845" lon="12.081918118999189"><ele>787.0</ele><time>2026-05-02T13:55:50Z</time></trkpt><trkpt lat="43.75413158006959" lon="12.081810676106398"><ele>787.0</ele><time>2026-05-02T13:55:52Z</time></trkpt><trkpt lat="43.75419239324226" lon="12.081707341473836"><ele>787.0</ele><time>2026-05-02T13:55:54Z</time></trkpt><trkpt lat="43.75426294310667" lon="12.081600558570228"><ele>787.0</ele><time>2026-05-02T13:55:57Z</time></trkpt><trkpt lat="43.75431328836662" lon="12.081523884168629"><ele>787.0</ele><time>2026-05-02T13:55:58Z</time></trkpt><trkpt lat="43.75433806421806" lon="12.081367060486464"><ele>787.0</ele><time>2026-05-02T13:56:00Z</time></trkpt><trkpt lat="43.75434947639755" lon="12.08128052204476"><ele>782.8</ele><time>2026-05-02T13:56:01Z</time></trkpt><trkpt lat="43.754375021342334" lon="12.08114063772301"><ele>778.6</ele><time>2026-05-02T13:56:03Z</time></trkpt><trkpt lat="43.754440793853654" lon="12.080977689282763"><ele>774.4</ele><time>2026-05-02T13:56:05Z</time></trkpt><trkpt lat="43.754488128140714" lon="12.08087264067822"><ele>770.1999999999999</ele><time>2026-05-02T13:56:07Z</time></trkpt><trkpt lat="43.754517178593595" lon="12.080739463135934"><ele>766.0</ele><time>2026-05-02T13:56:10Z</time></trkpt><trkpt lat="43.75452789131122" lon="12.080580357141793"><ele>764.5</ele><time>2026-05-02T13:56:12Z</time></trkpt><trkpt lat="43.75456746604824" lon="12.080446463559587"><ele>763.0</ele><time>2026-05-02T13:56:14Z</time></trkpt><trkpt lat="43.754619771080414" lon="12.08032559106972"><ele>761.5</ele><time>2026-05-02T13:56:16Z</time></trkpt><trkpt lat="43.75467487387821" lon="12.08025755110295"><ele>760.0</ele><time>2026-05-02T13:56:17Z</time></trkpt><trkpt lat="43.75473229580327" lon="12.080187639408006"><ele>758.5</ele><time>2026-05-02T13:56:18Z</time></trkpt><trkpt lat="43.75478791344226" lon="12.080122411262845"><ele>757.0</ele><time>2026-05-02T13:56:19Z</time></trkpt><trkpt lat="43.75484292466181" lon="12.080045046102232"><ele>757.0</ele><time>2026-05-02T13:56:20Z</time></trkpt><trkpt lat="43.754893565007976" lon="12.07999295318526"><ele>757.0</ele><time>2026-05-02T13:56:21Z</time></trkpt><trkpt lat="43.75498372512223" lon="12.079923611212932"><ele>757.0</ele><time>2026-05-02T13:56:23Z</time></trkpt><trkpt lat="43.7550442970269" lon="12.079844752825716"><ele>757.0</ele><time>2026-05-02T13:56:25Z</time></trkpt><trkpt lat="43.75504939781165" lon="12.079737774703615"><ele>757.0</ele><time>2026-05-02T13:56:27Z</time></trkpt><trkpt lat="43.75497571034554" lon="12.079659676865854"><ele>757.0</ele><time>2026-05-02T13:56:29Z</time></trkpt><trkpt lat="43.75489122352356" lon="12.079515555358375"><ele>754.0</ele><time>2026-05-02T13:56:31Z</time></trkpt><trkpt lat="43.75483589716742" lon="12.079457980103284"><ele>751.0</ele><time>2026-05-02T13:56:33Z</time></trkpt><trkpt lat="43.7547517804178" lon="12.079523218565269"><ele>748.0</ele><time>2026-05-02T13:56:44Z</time></trkpt><trkpt lat="43.75466194510976" lon="12.079539674885936"><ele>745.0</ele><time>2026-05-02T13:56:47Z</time></trkpt><trkpt lat="43.75449311850512" lon="12.079537135238938"><ele>742.0</ele><time>2026-05-02T13:56:49Z</time></trkpt><trkpt lat="43.75438871795165" lon="12.079558526507597"><ele>742.0</ele><time>2026-05-02T13:56:51Z</time></trkpt><trkpt lat="43.75428175670773" lon="12.07959557715816"><ele>742.0</ele><time>2026-05-02T13:56:53Z</time></trkpt><trkpt lat="43.75421753693539" lon="12.079600164156817"><ele>742.0</ele><time>2026-05-02T13:56:56Z</time></trkpt><trkpt lat="43.754158152521235" lon="12.079558022496338"><ele>742.0</ele><time>2026-05-02T13:56:59Z</time></trkpt><trkpt lat="43.75419779655454" lon="12.079474757732834"><ele>742.0</ele><time>2026-05-02T13:57:02Z</time></trkpt><trkpt lat="43.7542909585957" lon="12.079403074648985"><ele>742.0</ele><time>2026-05-02T13:57:04Z</time></trkpt><trkpt lat="43.754382021248354" lon="12.079328224268014"><ele>742.0</ele><time>2026-05-02T13:57:06Z</time></trkpt><trkpt lat="43.7544367088715" lon="12.079279942577687"><ele>742.0</ele><time>2026-05-02T13:57:07Z</time></trkpt><trkpt lat="43.75449127231508" lon="12.079184576277068"><ele>742.0</ele><time>2026-05-02T13:57:09Z</time></trkpt><trkpt lat="43.75452015682386" lon="12.079028362390428"><ele>742.0</ele><time>2026-05-02T13:57:11Z</time></trkpt><trkpt lat="43.7545406181489" lon="12.078928948200724"><ele>742.0</ele><time>2026-05-02T13:57:12Z</time></trkpt><trkpt lat="43.75457457502172" lon="12.078763155201154"><ele>740.0</ele><time>2026-05-02T13:57:14Z</time></trkpt><trkpt lat="43.75460038695296" lon="12.07867505336807"><ele>738.0</ele><time>2026-05-02T13:57:15Z</time></trkpt><trkpt lat="43.75462190010088" lon="12.078513770938393"><ele>736.0</ele><time>2026-05-02T13:57:17Z</time></trkpt><trkpt lat="43.75462408873135" lon="12.078414874001819"><ele>734.0</ele><time>2026-05-02T13:57:20Z</time></trkpt><trkpt lat="43.75459095263919" lon="12.078326723003054"><ele>732.0</ele><time>2026-05-02T13:57:22Z</time></trkpt><trkpt lat="43.75449415814434" lon="12.078327931873348"><ele>730.0</ele><time>2026-05-02T13:57:29Z</time></trkpt><trkpt lat="43.754409516346236" lon="12.078366594444539"><ele>729.1666666666667</ele><time>2026-05-02T13:57:31Z</time></trkpt><trkpt lat="43.75435598916489" lon="12.078317360362686"><ele>728.3333333333334</ele><time>2026-05-02T14:01:03Z</time></trkpt><trkpt lat="43.754429139427145" lon="12.078189870710924"><ele>727.5</ele><time>2026-05-02T14:01:05Z</time></trkpt><trkpt lat="43.75447175435985" lon="12.078102322896466"><ele>726.6666666666666</ele><time>2026-05-02T14:01:06Z</time></trkpt><trkpt lat="43.754504234320585" lon="12.078022560292613"><ele>725.8333333333333</ele><time>2026-05-02T14:01:07Z</time></trkpt><trkpt lat="43.75453076626808" lon="12.07792087800805"><ele>725.0</ele><time>2026-05-02T14:01:09Z</time></trkpt><trkpt lat="43.75459600524459" lon="12.077863741508317"><ele>725.0</ele><time>2026-05-02T14:01:11Z</time></trkpt><trkpt lat="43.75465674732265" lon="12.077769048015373"><ele>725.0</ele><time>2026-05-02T14:01:14Z</time></trkpt><trkpt lat="43.754685780416715" lon="12.077677240209585"><ele>725.0</ele><time>2026-05-02T14:01:17Z</time></trkpt><trkpt lat="43.75472429689317" lon="12.077573913103183"><ele>725.0</ele><time>2026-05-02T14:01:20Z</time></trkpt><trkpt lat="43.75475862369673" lon="12.07748804222475"><ele>725.0</ele><time>2026-05-02T14:01:22Z</time></trkpt><trkpt lat="43.75481988913104" lon="12.07743409087912"><ele>725.0</ele><time>2026-05-02T14:01:25Z</time></trkpt><trkpt lat="43.75487253764084" lon="12.07748247503977"><ele>725.0</ele><time>2026-05-02T14:01:27Z</time></trkpt><trkpt lat="43.754948240504355" lon="12.077513136608836"><ele>725.0</ele><time>2026-05-02T14:01:29Z</time></trkpt><trkpt lat="43.75499282623748" lon="12.07738962694132"><ele>725.0</ele><time>2026-05-02T14:01:32Z</time></trkpt><trkpt lat="43.754992527048536" lon="12.077255107136752"><ele>725.0</ele><time>2026-05-02T14:01:34Z</time></trkpt><trkpt lat="43.75500324994981" lon="12.077129055496137"><ele>725.0</ele><time>2026-05-02T14:01:36Z</time></trkpt><trkpt lat="43.75503385813245" lon="12.076970332838005"><ele>725.6</ele><time>2026-05-02T14:01:40Z</time></trkpt><trkpt lat="43.755047019698765" lon="12.076871319353913"><ele>726.2</ele><time>2026-05-02T14:01:41Z</time></trkpt><trkpt lat="43.755058014906766" lon="12.07675880596766"><ele>726.8</ele><time>2026-05-02T14:01:42Z</time></trkpt><trkpt lat="43.75509030622491" lon="12.07666779849742"><ele>727.4</ele><time>2026-05-02T14:01:43Z</time></trkpt><trkpt lat="43.75514096427425" lon="12.076505101148616"><ele>728.0</ele><time>2026-05-02T14:01:45Z</time></trkpt><trkpt lat="43.755169333654884" lon="12.076341226858213"><ele>728.0</ele><time>2026-05-02T14:01:47Z</time></trkpt><trkpt lat="43.7551506652171" lon="12.076256439723272"><ele>728.0</ele><time>2026-05-02T14:01:48Z</time></trkpt><trkpt lat="43.755158192860875" lon="12.076132372475138"><ele>728.0</ele><time>2026-05-02T14:01:49Z</time></trkpt><trkpt lat="43.75514167339657" lon="12.07600592565042"><ele>728.0</ele><time>2026-05-02T14:01:50Z</time></trkpt><trkpt lat="43.75513623906527" lon="12.07588992329258"><ele>728.0</ele><time>2026-05-02T14:01:51Z</time></trkpt><trkpt lat="43.755142193265485" lon="12.075773508904925"><ele>728.0</ele><time>2026-05-02T14:01:52Z</time></trkpt><trkpt lat="43.75515536188032" lon="12.075677717051715"><ele>727.0</ele><time>2026-05-02T14:01:53Z</time></trkpt><trkpt lat="43.755190366214414" lon="12.075530117371775"><ele>726.0</ele><time>2026-05-02T14:01:55Z</time></trkpt><trkpt lat="43.755185305624465" lon="12.075434741763045"><ele>725.0</ele><time>2026-05-02T14:01:58Z</time></trkpt><trkpt lat="43.75507769157086" lon="12.075403633828978"><ele>724.0</ele><time>2026-05-02T14:02:01Z</time></trkpt><trkpt lat="43.75501376341304" lon="12.07536387755728"><ele>723.0</ele><time>2026-05-02T14:02:03Z</time></trkpt><trkpt lat="43.754956518864844" lon="12.07525986444335"><ele>723.0</ele><time>2026-05-02T14:02:07Z</time></trkpt><trkpt lat="43.755043726191815" lon="12.07523330727317"><ele>723.0</ele><time>2026-05-02T14:02:56Z</time></trkpt><trkpt lat="43.75511120480405" lon="12.075230935641125"><ele>723.0</ele><time>2026-05-02T14:02:58Z</time></trkpt><trkpt lat="43.75518493077425" lon="12.075244254326536"><ele>723.0</ele><time>2026-05-02T14:03:00Z</time></trkpt><trkpt lat="43.75525895680181" lon="12.075254077652577"><ele>723.0</ele><time>2026-05-02T14:03:06Z</time></trkpt><trkpt lat="43.755329914358" lon="12.075245269129896"><ele>723.0</ele><time>2026-05-02T14:03:09Z</time></trkpt><trkpt lat="43.755345474597945" lon="12.07512530299849"><ele>722.8</ele><time>2026-05-02T14:03:12Z</time></trkpt><trkpt lat="43.75533872857687" lon="12.07496535570368"><ele>722.5999999999999</ele><time>2026-05-02T14:03:14Z</time></trkpt><trkpt lat="43.75530885498136" lon="12.074879713435266"><ele>722.4000000000001</ele><time>2026-05-02T14:03:21Z</time></trkpt><trkpt lat="43.75527319881376" lon="12.074786515302844"><ele>722.2</ele><time>2026-05-02T14:03:23Z</time></trkpt><trkpt lat="43.75524588702483" lon="12.074666546330276"><ele>722.0</ele><time>2026-05-02T14:03:25Z</time></trkpt><trkpt lat="43.755193883256084" lon="12.07451605667778"><ele>722.0</ele><time>2026-05-02T14:03:27Z</time></trkpt><trkpt lat="43.755148283873766" lon="12.074438475675347"><ele>722.0</ele><time>2026-05-02T14:03:28Z</time></trkpt><trkpt lat="43.75512120701324" lon="12.074319194042262"><ele>722.0</ele><time>2026-05-02T14:03:30Z</time></trkpt><trkpt lat="43.755138050575795" lon="12.074189769464285"><ele>722.0</ele><time>2026-05-02T14:03:32Z</time></trkpt><trkpt lat="43.755169587363255" lon="12.074060989964364"><ele>722.0</ele><time>2026-05-02T14:03:34Z</time></trkpt><trkpt lat="43.75518495881892" lon="12.073925208049223"><ele>721.0</ele><time>2026-05-02T14:03:36Z</time></trkpt><trkpt lat="43.75515879209582" lon="12.07382364748368"><ele>720.0</ele><time>2026-05-02T14:03:39Z</time></trkpt><trkpt lat="43.755086779259656" lon="12.07379942763083"><ele>719.0</ele><time>2026-05-02T14:03:41Z</time></trkpt><trkpt lat="43.7549920088834" lon="12.073730267952568"><ele>718.0</ele><time>2026-05-02T14:03:43Z</time></trkpt><trkpt lat="43.754923063162316" lon="12.073673335084846"><ele>717.0</ele><time>2026-05-02T14:03:45Z</time></trkpt><trkpt lat="43.75486199122434" lon="12.07359945531247"><ele>716.0</ele><time>2026-05-02T14:03:48Z</time></trkpt><trkpt lat="43.75480562699923" lon="12.073511271515006"><ele>716.0000000000001</ele><time>2026-05-02T14:03:51Z</time></trkpt><trkpt lat="43.754751062328154" lon="12.073424103283903"><ele>716.0</ele><time>2026-05-02T14:03:52Z</time></trkpt><trkpt lat="43.754688222564255" lon="12.07339076164444"><ele>716.0</ele><time>2026-05-02T14:03:53Z</time></trkpt><trkpt lat="43.75461654634741" lon="12.07334173749618"><ele>716.0</ele><time>2026-05-02T14:03:55Z</time></trkpt><trkpt lat="43.75455788560007" lon="12.07326161779856"><ele>716.0</ele><time>2026-05-02T14:03:58Z</time></trkpt><trkpt lat="43.754523913235595" lon="12.073185938251287"><ele>716.0000000000001</ele><time>2026-05-02T14:04:00Z</time></trkpt><trkpt lat="43.754483522048474" lon="12.07310792530086"><ele>716.0</ele><time>2026-05-02T14:04:02Z</time></trkpt><trkpt lat="43.754427539226135" lon="12.073042375091372"><ele>718.8333333333333</ele><time>2026-05-02T14:04:05Z</time></trkpt><trkpt lat="43.75436353953771" lon="12.072972731901345"><ele>721.6666666666666</ele><time>2026-05-02T14:04:09Z</time></trkpt><trkpt lat="43.754288996002096" lon="12.07294124205794"><ele>724.5</ele><time>2026-05-02T14:04:12Z</time></trkpt><trkpt lat="43.7542254564868" lon="12.072909768762571"><ele>727.3333333333334</ele><time>2026-05-02T14:04:17Z</time></trkpt><trkpt lat="43.754148840753395" lon="12.072899419758537"><ele>730.1666666666667</ele><time>2026-05-02T14:04:42Z</time></trkpt><trkpt lat="43.75406019189864" lon="12.072883922619539"><ele>733.0</ele><time>2026-05-02T14:04:54Z</time></trkpt><trkpt lat="43.75407918093629" lon="12.072717370397113"><ele>733.0</ele><time>2026-05-02T14:05:40Z</time></trkpt><trkpt lat="43.75413133312262" lon="12.07265549660639"><ele>733.0</ele><time>2026-05-02T14:05:41Z</time></trkpt><trkpt lat="43.75419857694263" lon="12.072549731352465"><ele>733.0</ele><time>2026-05-02T14:05:43Z</time></trkpt><trkpt lat="43.7542686871561" lon="12.072464594001154"><ele>733.0</ele><time>2026-05-02T14:05:57Z</time></trkpt><trkpt lat="43.75430584908606" lon="12.07238643420955"><ele>733.0</ele><time>2026-05-02T14:05:59Z</time></trkpt><trkpt lat="43.75435825156217" lon="12.072291887779562"><ele>733.0</ele><time>2026-05-02T14:06:02Z</time></trkpt><trkpt lat="43.75440198630033" lon="12.072191187837195"><ele>729.5</ele><time>2026-05-02T14:06:05Z</time></trkpt><trkpt lat="43.75442450575331" lon="12.072067997487599"><ele>726.0</ele><time>2026-05-02T14:06:08Z</time></trkpt><trkpt lat="43.754437329157035" lon="12.071944708357847"><ele>722.5</ele><time>2026-05-02T14:06:12Z</time></trkpt><trkpt lat="43.75441483081975" lon="12.07183275446205"><ele>719.0</ele><time>2026-05-02T14:06:15Z</time></trkpt><trkpt lat="43.75444768636897" lon="12.071753763704155"><ele>715.5</ele><time>2026-05-02T14:06:19Z</time></trkpt><trkpt lat="43.75443251955352" lon="12.07162469217808"><ele>712.0</ele><time>2026-05-02T14:06:22Z</time></trkpt><trkpt lat="43.7544446690869" lon="12.071516102528673"><ele>712.0</ele><time>2026-05-02T14:06:25Z</time></trkpt><trkpt lat="43.75444580466441" lon="12.071421199233212"><ele>712.0</ele><time>2026-05-02T14:06:34Z</time></trkpt><trkpt lat="43.75442544000251" lon="12.071304900060909"><ele>712.0</ele><time>2026-05-02T14:06:48Z</time></trkpt><trkpt lat="43.754431247599136" lon="12.071190384734633"><ele>712.0</ele><time>2026-05-02T14:06:50Z</time></trkpt><trkpt lat="43.75443621785489" lon="12.071055947150029"><ele>712.0</ele><time>2026-05-02T14:06:52Z</time></trkpt><trkpt lat="43.754409518024985" lon="12.070949392928624"><ele>712.0</ele><time>2026-05-02T14:06:55Z</time></trkpt><trkpt lat="43.75443309033193" lon="12.070820399677059"><ele>715.2</ele><time>2026-05-02T14:06:58Z</time></trkpt><trkpt lat="43.75449514685273" lon="12.070700032492512"><ele>718.4000000000001</ele><time>2026-05-02T14:07:01Z</time></trkpt><trkpt lat="43.754566474018425" lon="12.070576248874184"><ele>721.5999999999999</ele><time>2026-05-02T14:07:03Z</time></trkpt><trkpt lat="43.75462347991647" lon="12.070527520156787"><ele>724.8</ele><time>2026-05-02T14:07:05Z</time></trkpt><trkpt lat="43.75463184039888" lon="12.070427397198038"><ele>728.0</ele><time>2026-05-02T14:07:07Z</time></trkpt><trkpt lat="43.754644079983386" lon="12.070268062550383"><ele>728.0</ele><time>2026-05-02T14:07:09Z</time></trkpt><trkpt lat="43.75466696669074" lon="12.070111488851085"><ele>728.0</ele><time>2026-05-02T14:07:11Z</time></trkpt><trkpt lat="43.75468489799653" lon="12.070024276850818"><ele>728.0</ele><time>2026-05-02T14:07:12Z</time></trkpt><trkpt lat="43.754691768043635" lon="12.069879428973593"><ele>728.0</ele><time>2026-05-02T14:07:14Z</time></trkpt><trkpt lat="43.75465144059954" lon="12.069811384223007"><ele>728.0</ele><time>2026-05-02T14:07:16Z</time></trkpt><trkpt lat="43.75460961529183" lon="12.069740005713415"><ele>728.0</ele><time>2026-05-02T14:08:35Z</time></trkpt><trkpt lat="43.75467295067158" lon="12.069752034281287"><ele>728.0</ele><time>2026-05-02T14:09:16Z</time></trkpt><trkpt lat="43.75464305303773" lon="12.06984167388922"><ele>728.0</ele><time>2026-05-02T14:10:01Z</time></trkpt><trkpt lat="43.75461944141902" lon="12.069923971927217"><ele>728.0</ele><time>2026-05-02T14:10:12Z</time></trkpt><trkpt lat="43.754591556714814" lon="12.070025744516329"><ele>728.0</ele><time>2026-05-02T14:10:37Z</time></trkpt><trkpt lat="43.754555604321574" lon="12.070141290912254"><ele>728.0</ele><time>2026-05-02T14:10:41Z</time></trkpt><trkpt lat="43.754472791321554" lon="12.070140167646372"><ele>728.0</ele><time>2026-05-02T14:10:44Z</time></trkpt><trkpt lat="43.754410263471975" lon="12.070046742045808"><ele>731.8333333333333</ele><time>2026-05-02T14:10:46Z</time></trkpt><trkpt lat="43.754357814836155" lon="12.069976171483926"><ele>735.6666666666666</ele><time>2026-05-02T14:11:20Z</time></trkpt><trkpt lat="43.754350254264686" lon="12.06988479079563"><ele>739.5</ele><time>2026-05-02T14:11:32Z</time></trkpt><trkpt lat="43.75427408681938" lon="12.069936925084347"><ele>743.3333333333334</ele><time>2026-05-02T14:12:24Z</time></trkpt><trkpt lat="43.75439928751462" lon="12.069892088336974"><ele>747.1666666666667</ele><time>2026-05-02T14:13:34Z</time></trkpt><trkpt lat="43.75433510889737" lon="12.069888092278358"><ele>751.0</ele><time>2026-05-02T14:15:29Z</time></trkpt><trkpt lat="43.754405070461026" lon="12.069873142710787"><ele>751.0</ele><time>2026-05-02T14:16:25Z</time></trkpt><trkpt lat="43.75434176294866" lon="12.069941888923594"><ele>751.0</ele><time>2026-05-02T14:18:30Z</time></trkpt><trkpt lat="43.75441023949937" lon="12.069882404491922"><ele>751.0</ele><time>2026-05-02T14:19:13Z</time></trkpt><trkpt lat="43.75434818247099" lon="12.069858259861434"><ele>751.0</ele><time>2026-05-02T14:22:34Z</time></trkpt><trkpt lat="43.75434572679001" lon="12.06976281088754"><ele>751.0</ele><time>2026-05-02T14:23:00Z</time></trkpt><trkpt lat="43.754386707189056" lon="12.069640798701304"><ele>751.0</ele><time>2026-05-02T14:23:02Z</time></trkpt><trkpt lat="43.754428020007815" lon="12.069547660071553"><ele>751.0</ele><time>2026-05-02T14:23:04Z</time></trkpt><trkpt lat="43.75445492256967" lon="12.069424525177824"><ele>751.0</ele><time>2026-05-02T14:23:06Z</time></trkpt><trkpt lat="43.75445059263517" lon="12.069272410603533"><ele>751.0</ele><time>2026-05-02T14:23:08Z</time></trkpt><trkpt lat="43.754435736462355" lon="12.069185554600692"><ele>751.0</ele><time>2026-05-02T14:23:09Z</time></trkpt><trkpt lat="43.754438176154466" lon="12.069042497024373"><ele>751.0</ele><time>2026-05-02T14:23:11Z</time></trkpt><trkpt lat="43.754443874261256" lon="12.068905711132897"><ele>754.1666666666667</ele><time>2026-05-02T14:23:13Z</time></trkpt><trkpt lat="43.75450171258893" lon="12.068791177660469"><ele>757.3333333333334</ele><time>2026-05-02T14:23:15Z</time></trkpt><trkpt lat="43.75458507271698" lon="12.068669474016913"><ele>760.5</ele><time>2026-05-02T14:23:17Z</time></trkpt><trkpt lat="43.75463699114543" lon="12.068589539464346"><ele>763.6666666666667</ele><time>2026-05-02T14:23:19Z</time></trkpt><trkpt lat="43.7547000026554" lon="12.06850973103457"><ele>766.8333333333334</ele><time>2026-05-02T14:23:23Z</time></trkpt><trkpt lat="43.75470999064441" lon="12.068422131188768"><ele>770.0</ele><time>2026-05-02T14:23:46Z</time></trkpt><trkpt lat="43.7547690743814" lon="12.068330270709557"><ele>768.3333333333334</ele><time>2026-05-02T14:23:48Z</time></trkpt><trkpt lat="43.75485859694669" lon="12.068239806123055"><ele>766.6666666666667</ele><time>2026-05-02T14:23:50Z</time></trkpt><trkpt lat="43.754924447736435" lon="12.06816076228301"><ele>765.0</ele><time>2026-05-02T14:23:52Z</time></trkpt><trkpt lat="43.75497090288395" lon="12.068081507417373"><ele>763.3333333333334</ele><time>2026-05-02T14:23:54Z</time></trkpt><trkpt lat="43.755027876416754" lon="12.067984662660784"><ele>761.6666666666667</ele><time>2026-05-02T14:23:57Z</time></trkpt><trkpt lat="43.75510632224608" lon="12.067961064293367"><ele>760.0</ele><time>2026-05-02T14:23:59Z</time></trkpt><trkpt lat="43.755200827191445" lon="12.068026014854802"><ele>759.3333333333334</ele><time>2026-05-02T14:24:01Z</time></trkpt><trkpt lat="43.755259782348865" lon="12.068064811445108"><ele>758.6666666666667</ele><time>2026-05-02T14:24:02Z</time></trkpt><trkpt lat="43.75537300422295" lon="12.068078672947376"><ele>758.0</ele><time>2026-05-02T14:24:04Z</time></trkpt><trkpt lat="43.75543829928984" lon="12.06806118499982"><ele>757.3333333333334</ele><time>2026-05-02T14:24:05Z</time></trkpt><trkpt lat="43.755530511017525" lon="12.068004068980818"><ele>756.6666666666666</ele><time>2026-05-02T14:24:07Z</time></trkpt><trkpt lat="43.755598783856485" lon="12.067918482100948"><ele>756.0</ele><time>2026-05-02T14:24:09Z</time></trkpt><trkpt lat="43.75563364573653" lon="12.067815790010204"><ele>756.0</ele><time>2026-05-02T14:24:10Z</time></trkpt><trkpt lat="43.755645137739094" lon="12.067686381023792"><ele>756.0</ele><time>2026-05-02T14:24:12Z</time></trkpt><trkpt lat="43.75565091031831" lon="12.067536216204468"><ele>756.0</ele><time>2026-05-02T14:24:14Z</time></trkpt><trkpt lat="43.75560623662791" lon="12.067452507481503"><ele>756.0</ele><time>2026-05-02T14:24:15Z</time></trkpt><trkpt lat="43.755536156396" lon="12.067402498768013"><ele>756.0</ele><time>2026-05-02T14:24:16Z</time></trkpt><trkpt lat="43.75546992019108" lon="12.067412093025148"><ele>756.0</ele><time>2026-05-02T14:24:17Z</time></trkpt><trkpt lat="43.755385785675756" lon="12.06737322986725"><ele>754.7142857142857</ele><time>2026-05-02T14:24:19Z</time></trkpt><trkpt lat="43.755371199117384" lon="12.06728472073124"><ele>753.4285714285714</ele><time>2026-05-02T14:24:22Z</time></trkpt><trkpt lat="43.75543019508205" lon="12.067243200343402"><ele>752.1428571428571</ele><time>2026-05-02T14:24:23Z</time></trkpt><trkpt lat="43.75549353304152" lon="12.067231010492048"><ele>750.8571428571429</ele><time>2026-05-02T14:24:24Z</time></trkpt><trkpt lat="43.75556046020368" lon="12.067200686889622"><ele>749.5714285714286</ele><time>2026-05-02T14:24:25Z</time></trkpt><trkpt lat="43.75563520343995" lon="12.067138922353154"><ele>748.2857142857142</ele><time>2026-05-02T14:24:26Z</time></trkpt><trkpt lat="43.755707676768004" lon="12.067094392975784"><ele>747.0</ele><time>2026-05-02T14:24:27Z</time></trkpt><trkpt lat="43.75577215902345" lon="12.06704841884628"><ele>747.0</ele><time>2026-05-02T14:24:28Z</time></trkpt><trkpt lat="43.7558444481655" lon="12.067022362877713"><ele>747.0</ele><time>2026-05-02T14:24:29Z</time></trkpt><trkpt lat="43.75590604474828" lon="12.066961355422666"><ele>747.0</ele><time>2026-05-02T14:24:30Z</time></trkpt><trkpt lat="43.756001979063434" lon="12.066965864175561"><ele>747.0</ele><time>2026-05-02T14:24:32Z</time></trkpt><trkpt lat="43.7560738657737" lon="12.067029650334025"><ele>747.0</ele><time>2026-05-02T14:24:34Z</time></trkpt><trkpt lat="43.75607609029945" lon="12.067144198531723"><ele>747.0</ele><time>2026-05-02T14:24:36Z</time></trkpt><trkpt lat="43.75609426922234" lon="12.067251109219486"><ele>745.4000000000001</ele><time>2026-05-02T14:24:38Z</time></trkpt><trkpt lat="43.75614918700087" lon="12.067315160759774"><ele>743.8000000000001</ele><time>2026-05-02T14:24:40Z</time></trkpt><trkpt lat="43.75624722952889" lon="12.067231322980334"><ele>742.2</ele><time>2026-05-02T14:24:42Z</time></trkpt><trkpt lat="43.75625067071355" lon="12.067100619864789"><ele>740.6</ele><time>2026-05-02T14:24:43Z</time></trkpt><trkpt lat="43.75629055516669" lon="12.06698652171364"><ele>739.0</ele><time>2026-05-02T14:24:44Z</time></trkpt><trkpt lat="43.75631939947448" lon="12.06685638744487"><ele>739.0</ele><time>2026-05-02T14:24:45Z</time></trkpt><trkpt lat="43.75632609817973" lon="12.066744461058676"><ele>739.0</ele><time>2026-05-02T14:24:46Z</time></trkpt><trkpt lat="43.756347148810306" lon="12.066642691253579"><ele>739.0</ele><time>2026-05-02T14:24:47Z</time></trkpt><trkpt lat="43.75635719040264" lon="12.066555550646273"><ele>739.0</ele><time>2026-05-02T14:24:48Z</time></trkpt><trkpt lat="43.75634497025971" lon="12.06643757798798"><ele>739.0</ele><time>2026-05-02T14:24:50Z</time></trkpt><trkpt lat="43.7562430172711" lon="12.06633869578147"><ele>739.0</ele><time>2026-05-02T14:24:52Z</time></trkpt><trkpt lat="43.75615517636637" lon="12.066283727413548"><ele>737.0</ele><time>2026-05-02T14:24:53Z</time></trkpt><trkpt lat="43.75606645215226" lon="12.066223822043298"><ele>735.0</ele><time>2026-05-02T14:24:54Z</time></trkpt><trkpt lat="43.7559929611834" lon="12.066162318563448"><ele>733.0</ele><time>2026-05-02T14:24:55Z</time></trkpt><trkpt lat="43.755917782736525" lon="12.066096315663208"><ele>731.0</ele><time>2026-05-02T14:24:56Z</time></trkpt><trkpt lat="43.7558531502189" lon="12.066026759443634"><ele>729.0</ele><time>2026-05-02T14:24:57Z</time></trkpt><trkpt lat="43.75580800678173" lon="12.06595243469369"><ele>727.0</ele><time>2026-05-02T14:24:58Z</time></trkpt><trkpt lat="43.75575675883632" lon="12.06589804417101"><ele>727.0</ele><time>2026-05-02T14:24:59Z</time></trkpt><trkpt lat="43.755707524039266" lon="12.065842541358828"><ele>727.0</ele><time>2026-05-02T14:25:00Z</time></trkpt><trkpt lat="43.75562182609357" lon="12.06573289151625"><ele>727.0</ele><time>2026-05-02T14:25:02Z</time></trkpt><trkpt lat="43.755537593518646" lon="12.065664073551773"><ele>727.0</ele><time>2026-05-02T14:25:04Z</time></trkpt><trkpt lat="43.755419582633635" lon="12.065641955166004"><ele>727.0</ele><time>2026-05-02T14:25:06Z</time></trkpt><trkpt lat="43.75533930854701" lon="12.06561218808356"><ele>723.0</ele><time>2026-05-02T14:25:09Z</time></trkpt><trkpt lat="43.75534233455584" lon="12.0655003428952"><ele>719.0</ele><time>2026-05-02T14:25:11Z</time></trkpt><trkpt lat="43.755384377355185" lon="12.065422833432939"><ele>715.0</ele><time>2026-05-02T14:25:13Z</time></trkpt><trkpt lat="43.75542821526751" lon="12.065343384984253"><ele>711.0</ele><time>2026-05-02T14:25:15Z</time></trkpt><trkpt lat="43.75534372869033" lon="12.065217246018367"><ele>707.0</ele><time>2026-05-02T14:25:19Z</time></trkpt><trkpt lat="43.7552592035128" lon="12.065281275796952"><ele>703.0</ele><time>2026-05-02T14:25:21Z</time></trkpt><trkpt lat="43.755213719363894" lon="12.065411918539617"><ele>703.8333333333334</ele><time>2026-05-02T14:25:23Z</time></trkpt><trkpt lat="43.7551690310476" lon="12.065522015277516"><ele>704.6666666666667</ele><time>2026-05-02T14:25:25Z</time></trkpt><trkpt lat="43.75510479048392" lon="12.065585060640108"><ele>705.5</ele><time>2026-05-02T14:25:28Z</time></trkpt><trkpt lat="43.75507092329416" lon="12.065488419205247"><ele>706.3333333333334</ele><time>2026-05-02T14:25:30Z</time></trkpt><trkpt lat="43.755102109834446" lon="12.065388184739406"><ele>707.1666666666666</ele><time>2026-05-02T14:25:31Z</time></trkpt><trkpt lat="43.75511093571117" lon="12.065284573279037"><ele>708.0</ele><time>2026-05-02T14:25:32Z</time></trkpt><trkpt lat="43.755123823222" lon="12.065195231927252"><ele>708.0</ele><time>2026-05-02T14:25:33Z</time></trkpt><trkpt lat="43.75515443503863" lon="12.065086892430882"><ele>708.0</ele><time>2026-05-02T14:25:35Z</time></trkpt><trkpt lat="43.755220216206276" lon="12.06498740094658"><ele>708.0</ele><time>2026-05-02T14:25:37Z</time></trkpt><trkpt lat="43.75534040202332" lon="12.064907717678569"><ele>708.0</ele><time>2026-05-02T14:25:39Z</time></trkpt><trkpt lat="43.755432949017845" lon="12.064870033157067"><ele>708.0</ele><time>2026-05-02T14:25:41Z</time></trkpt><trkpt lat="43.75554392664092" lon="12.064892889030368"><ele>706.75</ele><time>2026-05-02T14:25:43Z</time></trkpt><trkpt lat="43.755623349604505" lon="12.064947355775788"><ele>705.5</ele><time>2026-05-02T14:25:45Z</time></trkpt><trkpt lat="43.75571316218288" lon="12.065058196270076"><ele>704.25</ele><time>2026-05-02T14:25:47Z</time></trkpt><trkpt lat="43.755812846048805" lon="12.065168295476408"><ele>703.0</ele><time>2026-05-02T14:25:49Z</time></trkpt><trkpt lat="43.75595563189463" lon="12.06510842182796"><ele>703.0</ele><time>2026-05-02T14:25:52Z</time></trkpt><trkpt lat="43.75597163214115" lon="12.064983658817837"><ele>703.0</ele><time>2026-05-02T14:25:53Z</time></trkpt><trkpt lat="43.75588277673849" lon="12.064857416579105"><ele>703.0</ele><time>2026-05-02T14:25:55Z</time></trkpt><trkpt lat="43.755850857447236" lon="12.064711781304505"><ele>703.0</ele><time>2026-05-02T14:25:57Z</time></trkpt><trkpt lat="43.755808018880685" lon="12.064533676067606"><ele>703.3333333333334</ele><time>2026-05-02T14:25:59Z</time></trkpt><trkpt lat="43.75579569475112" lon="12.06443392696806"><ele>703.6666666666667</ele><time>2026-05-02T14:26:00Z</time></trkpt><trkpt lat="43.75579584873998" lon="12.064338919686104"><ele>704.0</ele><time>2026-05-02T14:26:01Z</time></trkpt><trkpt lat="43.755818615169595" lon="12.06422836244042"><ele>704.3333333333334</ele><time>2026-05-02T14:26:02Z</time></trkpt><trkpt lat="43.7558863862302" lon="12.06413875292494"><ele>704.6666666666666</ele><time>2026-05-02T14:26:03Z</time></trkpt><trkpt lat="43.75590264754464" lon="12.064021484626968"><ele>705.0</ele><time>2026-05-02T14:26:04Z</time></trkpt><trkpt lat="43.75591594264546" lon="12.063935488426564"><ele>705.0</ele><time>2026-05-02T14:26:05Z</time></trkpt><trkpt lat="43.75587440362079" lon="12.06378288259482"><ele>705.0</ele><time>2026-05-02T14:26:07Z</time></trkpt><trkpt lat="43.75581566057462" lon="12.063723881993305"><ele>705.0</ele><time>2026-05-02T14:26:08Z</time></trkpt><trkpt lat="43.75576158650289" lon="12.063647330446441"><ele>705.0</ele><time>2026-05-02T14:26:09Z</time></trkpt><trkpt lat="43.75570593347236" lon="12.063585377031997"><ele>705.0</ele><time>2026-05-02T14:26:10Z</time></trkpt><trkpt lat="43.755658822734176" lon="12.063425581208163"><ele>705.0</ele><time>2026-05-02T14:26:12Z</time></trkpt><trkpt lat="43.75564669023641" lon="12.063320658370655"><ele>705.0</ele><time>2026-05-02T14:26:13Z</time></trkpt><trkpt lat="43.75564695588921" lon="12.063204314987228"><ele>705.0</ele><time>2026-05-02T14:26:14Z</time></trkpt><trkpt lat="43.75565571395243" lon="12.063092849968186"><ele>705.0</ele><time>2026-05-02T14:26:15Z</time></trkpt><trkpt lat="43.755693296546205" lon="12.062975967072902"><ele>705.0</ele><time>2026-05-02T14:26:17Z</time></trkpt><trkpt lat="43.755770902850024" lon="12.062921225865846"><ele>705.0</ele><time>2026-05-02T14:26:19Z</time></trkpt><trkpt lat="43.75586439951231" lon="12.062979750492294"><ele>706.2</ele><time>2026-05-02T14:26:21Z</time></trkpt><trkpt lat="43.75599342714997" lon="12.0630704713933"><ele>707.4</ele><time>2026-05-02T14:26:23Z</time></trkpt><trkpt lat="43.75607354899571" lon="12.06314068233328"><ele>708.5999999999999</ele><time>2026-05-02T14:26:24Z</time></trkpt><trkpt lat="43.75614438419289" lon="12.063204921420933"><ele>709.8</ele><time>2026-05-02T14:26:25Z</time></trkpt><trkpt lat="43.756220526259064" lon="12.063261306339966"><ele>711.0</ele><time>2026-05-02T14:26:26Z</time></trkpt><trkpt lat="43.75627468854768" lon="12.063333792491257"><ele>711.0</ele><time>2026-05-02T14:26:27Z</time></trkpt><trkpt lat="43.756362992725286" lon="12.063428037560396"><ele>711.0</ele><time>2026-05-02T14:26:29Z</time></trkpt><trkpt lat="43.75646085151604" lon="12.063413925923433"><ele>711.0</ele><time>2026-05-02T14:26:31Z</time></trkpt><trkpt lat="43.75654862432191" lon="12.063336040291633"><ele>711.0</ele><time>2026-05-02T14:26:33Z</time></trkpt><trkpt lat="43.756612700116634" lon="12.063191512609016"><ele>711.0</ele><time>2026-05-02T14:26:35Z</time></trkpt><trkpt lat="43.756670395652684" lon="12.063115004846724"><ele>714.0</ele><time>2026-05-02T14:26:36Z</time></trkpt><trkpt lat="43.75673732146317" lon="12.063055436501863"><ele>717.0</ele><time>2026-05-02T14:26:37Z</time></trkpt><trkpt lat="43.75680483652602" lon="12.063005994659333"><ele>720.0</ele><time>2026-05-02T14:26:38Z</time></trkpt><trkpt lat="43.7568667047287" lon="12.062970133120363"><ele>723.0</ele><time>2026-05-02T14:26:39Z</time></trkpt><trkpt lat="43.75694651601757" lon="12.062868934352673"><ele>726.0</ele><time>2026-05-02T14:26:41Z</time></trkpt><trkpt lat="43.75695426215038" lon="12.062697485763932"><ele>725.3333333333334</ele><time>2026-05-02T14:26:43Z</time></trkpt><trkpt lat="43.75691453815817" lon="12.062573298251518"><ele>724.6666666666666</ele><time>2026-05-02T14:26:44Z</time></trkpt><trkpt lat="43.756910164922445" lon="12.06243558401008"><ele>724.0</ele><time>2026-05-02T14:26:45Z</time></trkpt><trkpt lat="43.75690282480851" lon="12.062313887582414"><ele>723.3333333333333</ele><time>2026-05-02T14:26:46Z</time></trkpt><trkpt lat="43.756896737618206" lon="12.062221102618752"><ele>722.6666666666666</ele><time>2026-05-02T14:26:47Z</time></trkpt><trkpt lat="43.75687473459464" lon="12.062125822562804"><ele>722.0</ele><time>2026-05-02T14:26:48Z</time></trkpt><trkpt lat="43.75685654266295" lon="12.06201603798819"><ele>722.0</ele><time>2026-05-02T14:26:49Z</time></trkpt><trkpt lat="43.75683473148323" lon="12.061895617386345"><ele>722.0</ele><time>2026-05-02T14:26:50Z</time></trkpt><trkpt lat="43.756812249892015" lon="12.061772734616401"><ele>722.0</ele><time>2026-05-02T14:26:51Z</time></trkpt><trkpt lat="43.75677824157779" lon="12.0616526162572"><ele>722.0</ele><time>2026-05-02T14:26:52Z</time></trkpt><trkpt lat="43.75674567284968" lon="12.061546244765331"><ele>722.0</ele><time>2026-05-02T14:26:53Z</time></trkpt><trkpt lat="43.75671335579187" lon="12.061448785034068"><ele>722.0</ele><time>2026-05-02T14:26:54Z</time></trkpt><trkpt lat="43.75668165023805" lon="12.061358574086855"><ele>719.6666666666666</ele><time>2026-05-02T14:26:55Z</time></trkpt><trkpt lat="43.75665352243276" lon="12.061271391374651"><ele>717.3333333333333</ele><time>2026-05-02T14:26:56Z</time></trkpt><trkpt lat="43.75662988562598" lon="12.06117915532953"><ele>715.0</ele><time>2026-05-02T14:26:57Z</time></trkpt><trkpt lat="43.75662047050801" lon="12.061074834193208"><ele>712.6666666666666</ele><time>2026-05-02T14:26:58Z</time></trkpt><trkpt lat="43.75663529289435" lon="12.060954775110531"><ele>710.3333333333334</ele><time>2026-05-02T14:26:59Z</time></trkpt><trkpt lat="43.756664389720946" lon="12.060843542881019"><ele>708.0</ele><time>2026-05-02T14:27:00Z</time></trkpt><trkpt lat="43.75668868778242" lon="12.060752786275401"><ele>704.8</ele><time>2026-05-02T14:27:01Z</time></trkpt><trkpt lat="43.756668777372745" lon="12.060597761382859"><ele>701.5999999999999</ele><time>2026-05-02T14:27:03Z</time></trkpt><trkpt lat="43.756551596925625" lon="12.060488604448555"><ele>698.4000000000001</ele><time>2026-05-02T14:27:05Z</time></trkpt><trkpt lat="43.75646206565539" lon="12.060458667298107"><ele>695.2</ele><time>2026-05-02T14:27:06Z</time></trkpt><trkpt lat="43.756397474745484" lon="12.060392936355568"><ele>692.0</ele><time>2026-05-02T14:27:07Z</time></trkpt><trkpt lat="43.75633400413355" lon="12.06035187529121"><ele>692.0</ele><time>2026-05-02T14:27:08Z</time></trkpt><trkpt lat="43.75629570631271" lon="12.060260047901147"><ele>692.0</ele><time>2026-05-02T14:27:09Z</time></trkpt><trkpt lat="43.75624568847499" lon="12.06018737019711"><ele>692.0</ele><time>2026-05-02T14:27:10Z</time></trkpt><trkpt lat="43.75617442936729" lon="12.060067575666713"><ele>692.0</ele><time>2026-05-02T14:27:12Z</time></trkpt><trkpt lat="43.756129123520246" lon="12.059965773838805"><ele>692.0</ele><time>2026-05-02T14:27:14Z</time></trkpt><trkpt lat="43.75610244659739" lon="12.059882326519228"><ele>692.0</ele><time>2026-05-02T14:27:16Z</time></trkpt><trkpt lat="43.75607877566974" lon="12.059799313701111"><ele>689.1666666666666</ele><time>2026-05-02T14:27:19Z</time></trkpt><trkpt lat="43.75605275663471" lon="12.059694952753176"><ele>686.3333333333333</ele><time>2026-05-02T14:27:23Z</time></trkpt><trkpt lat="43.75596252799421" lon="12.059619116152335"><ele>683.5</ele><time>2026-05-02T14:27:35Z</time></trkpt><trkpt lat="43.75594153933124" lon="12.05951391436209"><ele>680.6666666666666</ele><time>2026-05-02T14:27:40Z</time></trkpt><trkpt lat="43.75591876948406" lon="12.05940611785173"><ele>677.8333333333334</ele><time>2026-05-02T14:28:46Z</time></trkpt><trkpt lat="43.75589720411305" lon="12.059299262708734"><ele>675.0</ele><time>2026-05-02T14:29:20Z</time></trkpt><trkpt lat="43.75595155419927" lon="12.059226578748717"><ele>675.8</ele><time>2026-05-02T14:31:35Z</time></trkpt><trkpt lat="43.75599608990665" lon="12.059099845000471"><ele>676.6</ele><time>2026-05-02T14:31:38Z</time></trkpt><trkpt lat="43.75604717150172" lon="12.059031687039175"><ele>677.4000000000001</ele><time>2026-05-02T14:31:40Z</time></trkpt><trkpt lat="43.7560963355694" lon="12.058900576510169"><ele>678.2</ele><time>2026-05-02T14:31:42Z</time></trkpt><trkpt lat="43.75612362062755" lon="12.058787398040533"><ele>679.0</ele><time>2026-05-02T14:31:44Z</time></trkpt><trkpt lat="43.756180653137264" lon="12.05865768185854"><ele>679.0</ele><time>2026-05-02T14:31:46Z</time></trkpt><trkpt lat="43.75620765981586" lon="12.058571949610993"><ele>679.0</ele><time>2026-05-02T14:31:47Z</time></trkpt><trkpt lat="43.75626769896723" lon="12.058528365327525"><ele>679.0</ele><time>2026-05-02T14:31:48Z</time></trkpt><trkpt lat="43.75629961898685" lon="12.058387042578229"><ele>679.0</ele><time>2026-05-02T14:31:50Z</time></trkpt><trkpt lat="43.75631896512979" lon="12.058302164638523"><ele>679.0</ele><time>2026-05-02T14:31:51Z</time></trkpt><trkpt lat="43.756343527024846" lon="12.058206270258792"><ele>679.0</ele><time>2026-05-02T14:31:52Z</time></trkpt><trkpt lat="43.75638388730377" lon="12.058133581449193"><ele>679.0</ele><time>2026-05-02T14:31:53Z</time></trkpt><trkpt lat="43.75645574514161" lon="12.05803006680969"><ele>679.1666666666667</ele><time>2026-05-02T14:31:55Z</time></trkpt><trkpt lat="43.75653676971506" lon="12.057905517060407"><ele>679.3333333333334</ele><time>2026-05-02T14:31:57Z</time></trkpt><trkpt lat="43.75659884587789" lon="12.057883199330586"><ele>679.5</ele><time>2026-05-02T14:31:58Z</time></trkpt><trkpt lat="43.756660075492604" lon="12.057854502492097"><ele>679.6666666666666</ele><time>2026-05-02T14:31:59Z</time></trkpt><trkpt lat="43.75673310524258" lon="12.057838476373629"><ele>679.8333333333333</ele><time>2026-05-02T14:32:00Z</time></trkpt><trkpt lat="43.7568396792669" lon="12.057832194179094"><ele>680.0</ele><time>2026-05-02T14:32:02Z</time></trkpt><trkpt lat="43.75689760676207" lon="12.057880276847982"><ele>677.5</ele><time>2026-05-02T14:32:03Z</time></trkpt><trkpt lat="43.75701224964018" lon="12.057870706588858"><ele>675.0</ele><time>2026-05-02T14:32:05Z</time></trkpt><trkpt lat="43.757082742091605" lon="12.057856550177807"><ele>672.5</ele><time>2026-05-02T14:32:06Z</time></trkpt><trkpt lat="43.75713804779408" lon="12.057811556093563"><ele>670.0</ele><time>2026-05-02T14:32:07Z</time></trkpt><trkpt lat="43.757182047174766" lon="12.057743677469741"><ele>667.5</ele><time>2026-05-02T14:32:08Z</time></trkpt><trkpt lat="43.757251165715175" lon="12.057608153469562"><ele>665.0</ele><time>2026-05-02T14:32:10Z</time></trkpt><trkpt lat="43.75730476723942" lon="12.057527692416782"><ele>665.2</ele><time>2026-05-02T14:32:12Z</time></trkpt><trkpt lat="43.75734674143318" lon="12.057391715745199"><ele>665.4</ele><time>2026-05-02T14:32:15Z</time></trkpt><trkpt lat="43.7573659601484" lon="12.057240116476608"><ele>665.5999999999999</ele><time>2026-05-02T14:32:17Z</time></trkpt><trkpt lat="43.75732843778634" lon="12.05710240105415"><ele>665.8</ele><time>2026-05-02T14:32:19Z</time></trkpt><trkpt lat="43.757292101717574" lon="12.057008984810949"><ele>666.0</ele><time>2026-05-02T14:32:21Z</time></trkpt><trkpt lat="43.757205114970695" lon="12.05697907809523"><ele>666.0</ele><time>2026-05-02T14:32:47Z</time></trkpt><trkpt lat="43.757278490102024" lon="12.057038888417027"><ele>666.0</ele><time>2026-05-02T14:36:38Z</time></trkpt><trkpt lat="43.75732153018004" lon="12.057107543597022"><ele>666.0</ele><time>2026-05-02T14:36:39Z</time></trkpt><trkpt lat="43.757371678033465" lon="12.057220808518403"><ele>666.0</ele><time>2026-05-02T14:36:41Z</time></trkpt><trkpt lat="43.75738339802044" lon="12.057333665577065"><ele>666.0</ele><time>2026-05-02T14:36:43Z</time></trkpt><trkpt lat="43.75736178739235" lon="12.057459383512294"><ele>666.0</ele><time>2026-05-02T14:36:46Z</time></trkpt><trkpt lat="43.75732952317019" lon="12.057537491906785"><ele>665.8333333333334</ele><time>2026-05-02T14:36:48Z</time></trkpt><trkpt lat="43.75730157014127" lon="12.057635984519942"><ele>665.6666666666666</ele><time>2026-05-02T14:36:53Z</time></trkpt><trkpt lat="43.75726741915657" lon="12.057722788593288"><ele>665.5</ele><time>2026-05-02T14:36:54Z</time></trkpt><trkpt lat="43.75720700866308" lon="12.057802297496155"><ele>665.3333333333333</ele><time>2026-05-02T14:36:55Z</time></trkpt><trkpt lat="43.75710357987111" lon="12.057785051668679"><ele>665.1666666666666</ele><time>2026-05-02T14:36:56Z</time></trkpt><trkpt lat="43.75703440992046" lon="12.057829866172805"><ele>665.0</ele><time>2026-05-02T14:36:58Z</time></trkpt><trkpt lat="43.756897370462866" lon="12.057853467452777"><ele>667.5</ele><time>2026-05-02T14:37:00Z</time></trkpt><trkpt lat="43.75683159105532" lon="12.05779898387052"><ele>670.0</ele><time>2026-05-02T14:37:01Z</time></trkpt><trkpt lat="43.756760254300424" lon="12.057780396757648"><ele>672.5</ele><time>2026-05-02T14:37:02Z</time></trkpt><trkpt lat="43.75664872894928" lon="12.057795293961325"><ele>675.0</ele><time>2026-05-02T14:37:04Z</time></trkpt><trkpt lat="43.75660950143909" lon="12.057711072496492"><ele>677.5</ele><time>2026-05-02T14:37:10Z</time></trkpt><trkpt lat="43.75663702266406" lon="12.05759012004227"><ele>680.0</ele><time>2026-05-02T14:37:13Z</time></trkpt><trkpt lat="43.75667277803829" lon="12.057493412170057"><ele>680.1666666666666</ele><time>2026-05-02T14:37:15Z</time></trkpt><trkpt lat="43.75669098646015" lon="12.057380819990833"><ele>680.3333333333333</ele><time>2026-05-02T14:37:18Z</time></trkpt><trkpt lat="43.75671066975628" lon="12.057239857358033"><ele>680.5</ele><time>2026-05-02T14:37:21Z</time></trkpt><trkpt lat="43.756739740100045" lon="12.057137611250761"><ele>680.6666666666666</ele><time>2026-05-02T14:37:23Z</time></trkpt><trkpt lat="43.75676593202637" lon="12.057033887755473"><ele>680.8333333333334</ele><time>2026-05-02T14:37:25Z</time></trkpt><trkpt lat="43.756783689406944" lon="12.056936668677514"><ele>681.0</ele><time>2026-05-02T14:37:27Z</time></trkpt><trkpt lat="43.75681825896203" lon="12.056822911998806"><ele>681.0000000000001</ele><time>2026-05-02T14:37:29Z</time></trkpt><trkpt lat="43.7568405563874" lon="12.056712391283924"><ele>681.0</ele><time>2026-05-02T14:37:54Z</time></trkpt><trkpt lat="43.75687240662357" lon="12.056630915340605"><ele>681.0</ele><time>2026-05-02T14:38:00Z</time></trkpt><trkpt lat="43.75689953261487" lon="12.05655003557013"><ele>681.0</ele><time>2026-05-02T14:38:11Z</time></trkpt><trkpt lat="43.75693177485597" lon="12.05662809058176"><ele>681.0</ele><time>2026-05-02T14:38:54Z</time></trkpt><trkpt lat="43.75689431664294" lon="12.056713191355952"><ele>681.0000000000001</ele><time>2026-05-02T14:39:03Z</time></trkpt><trkpt lat="43.756913393790164" lon="12.056622069246183"><ele>681.0</ele><time>2026-05-02T14:39:10Z</time></trkpt><trkpt lat="43.756968739033155" lon="12.056503556504332"><ele>678.8571428571429</ele><time>2026-05-02T14:39:12Z</time></trkpt><trkpt lat="43.75700504035679" lon="12.056423413347847"><ele>676.7142857142858</ele><time>2026-05-02T14:39:14Z</time></trkpt><trkpt lat="43.75705842914505" lon="12.056351682403099"><ele>674.5714285714287</ele><time>2026-05-02T14:39:16Z</time></trkpt><trkpt lat="43.75708879895754" lon="12.056271764475024"><ele>672.4285714285714</ele><time>2026-05-02T14:39:18Z</time></trkpt><trkpt lat="43.757084982661794" lon="12.056181960374778"><ele>670.2857142857142</ele><time>2026-05-02T14:39:20Z</time></trkpt><trkpt lat="43.757157213003936" lon="12.056129092460052"><ele>668.1428571428572</ele><time>2026-05-02T14:41:16Z</time></trkpt><trkpt lat="43.75723204116043" lon="12.056088331951752"><ele>666.0</ele><time>2026-05-02T14:41:21Z</time></trkpt><trkpt lat="43.757287772531264" lon="12.05614628133441"><ele>666.0</ele><time>2026-05-02T14:41:26Z</time></trkpt><trkpt lat="43.75735044911607" lon="12.056163380263007"><ele>666.0</ele><time>2026-05-02T14:41:31Z</time></trkpt><trkpt lat="43.75739658773274" lon="12.056255373667648"><ele>666.0</ele><time>2026-05-02T14:41:36Z</time></trkpt><trkpt lat="43.75740318588297" lon="12.056366150013845"><ele>666.0</ele><time>2026-05-02T14:41:49Z</time></trkpt><trkpt lat="43.75734129325441" lon="12.056327930753145"><ele>666.0</ele><time>2026-05-02T14:41:58Z</time></trkpt><trkpt lat="43.757287032871254" lon="12.056264153552611"><ele>666.0</ele><time>2026-05-02T14:42:03Z</time></trkpt><trkpt lat="43.757248886193985" lon="12.056180467019248"><ele>666.0</ele><time>2026-05-02T14:42:09Z</time></trkpt><trkpt lat="43.75719319284818" lon="12.056126956620231"><ele>666.0</ele><time>2026-05-02T14:42:15Z</time></trkpt><trkpt lat="43.75713311832276" lon="12.056089547202824"><ele>666.0</ele><time>2026-05-02T14:42:26Z</time></trkpt><trkpt lat="43.75706884933596" lon="12.056079643528165"><ele>666.0</ele><time>2026-05-02T14:42:34Z</time></trkpt><trkpt lat="43.7570905386851" lon="12.055988336164067"><ele>666.0</ele><time>2026-05-02T14:43:39Z</time></trkpt><trkpt lat="43.757154492937126" lon="12.055955233980642"><ele>666.0</ele><time>2026-05-02T14:43:48Z</time></trkpt><trkpt lat="43.75722515193142" lon="12.05608589974038"><ele>666.0</ele><time>2026-05-02T14:43:52Z</time></trkpt><trkpt lat="43.75726945146424" lon="12.056151976622305"><ele>666.0</ele><time>2026-05-02T14:43:55Z</time></trkpt><trkpt lat="43.75733841332009" lon="12.056197332853477"><ele>666.0</ele><time>2026-05-02T14:43:58Z</time></trkpt><trkpt lat="43.75736956192503" lon="12.056298640032276"><ele>666.0</ele><time>2026-05-02T14:44:02Z</time></trkpt><trkpt lat="43.757413361807515" lon="12.056365354749792"><ele>666.0</ele><time>2026-05-02T14:44:15Z</time></trkpt><trkpt lat="43.75745456206079" lon="12.056450195445766"><ele>666.0</ele><time>2026-05-02T14:44:59Z</time></trkpt><trkpt lat="43.75751822673903" lon="12.056485769718616"><ele>666.0</ele><time>2026-05-02T14:45:04Z</time></trkpt><trkpt lat="43.75758028046856" lon="12.056521969323558"><ele>666.0</ele><time>2026-05-02T14:45:06Z</time></trkpt><trkpt lat="43.757647377677046" lon="12.056581491406659"><ele>665.3333333333334</ele><time>2026-05-02T14:45:33Z</time></trkpt><trkpt lat="43.75771679089859" lon="12.056523402542773"><ele>664.6666666666666</ele><time>2026-05-02T14:45:35Z</time></trkpt><trkpt lat="43.757760528213645" lon="12.056434811160692"><ele>664.0</ele><time>2026-05-02T14:45:37Z</time></trkpt><trkpt lat="43.75777376402858" lon="12.05633875329596"><ele>663.3333333333333</ele><time>2026-05-02T14:45:38Z</time></trkpt><trkpt lat="43.75779974902538" lon="12.056171552969632"><ele>662.6666666666666</ele><time>2026-05-02T14:45:40Z</time></trkpt><trkpt lat="43.75780266192713" lon="12.056075598958468"><ele>662.0</ele><time>2026-05-02T14:45:41Z</time></trkpt><trkpt lat="43.75779836989933" lon="12.055918369284527"><ele>662.0</ele><time>2026-05-02T14:45:43Z</time></trkpt><trkpt lat="43.75778353002496" lon="12.055764491041012"><ele>662.0</ele><time>2026-05-02T14:45:45Z</time></trkpt><trkpt lat="43.75775198696993" lon="12.05559209564291"><ele>662.0</ele><time>2026-05-02T14:45:47Z</time></trkpt><trkpt lat="43.75771213361812" lon="12.055503189589619"><ele>662.0</ele><time>2026-05-02T14:45:48Z</time></trkpt><trkpt lat="43.75768302511287" lon="12.055421014737693"><ele>662.0</ele><time>2026-05-02T14:45:49Z</time></trkpt><trkpt lat="43.75765521189134" lon="12.055341923191973"><ele>662.0</ele><time>2026-05-02T14:45:50Z</time></trkpt><trkpt lat="43.75762930678847" lon="12.055246282305008"><ele>661.6666666666666</ele><time>2026-05-02T14:45:51Z</time></trkpt><trkpt lat="43.75761188425285" lon="12.05516107896428"><ele>661.3333333333333</ele><time>2026-05-02T14:45:52Z</time></trkpt><trkpt lat="43.757604408187674" lon="12.0550535130731"><ele>661.0</ele><time>2026-05-02T14:45:53Z</time></trkpt><trkpt lat="43.75761463560624" lon="12.05492623993948"><ele>660.6666666666666</ele><time>2026-05-02T14:45:54Z</time></trkpt><trkpt lat="43.75763460702033" lon="12.05481085029945"><ele>660.3333333333334</ele><time>2026-05-02T14:45:55Z</time></trkpt><trkpt lat="43.75764914732276" lon="12.05470021909349"><ele>660.0</ele><time>2026-05-02T14:45:56Z</time></trkpt><trkpt lat="43.75766906706379" lon="12.054610828848297"><ele>659.3333333333334</ele><time>2026-05-02T14:45:57Z</time></trkpt><trkpt lat="43.75769889343072" lon="12.054520934182456"><ele>658.6666666666666</ele><time>2026-05-02T14:45:58Z</time></trkpt><trkpt lat="43.757747917162874" lon="12.054449321130434"><ele>658.0</ele><time>2026-05-02T14:45:59Z</time></trkpt><trkpt lat="43.75779656348969" lon="12.054382084598224"><ele>657.3333333333333</ele><time>2026-05-02T14:46:00Z</time></trkpt><trkpt lat="43.75789065501326" lon="12.054307165071062"><ele>656.6666666666666</ele><time>2026-05-02T14:46:02Z</time></trkpt><trkpt lat="43.75797650912871" lon="12.054212909805699"><ele>656.0</ele><time>2026-05-02T14:46:04Z</time></trkpt><trkpt lat="43.75802344068284" lon="12.054145186881485"><ele>656.0</ele><time>2026-05-02T14:46:05Z</time></trkpt><trkpt lat="43.75809199146438" lon="12.054112981082586"><ele>656.0</ele><time>2026-05-02T14:46:06Z</time></trkpt><trkpt lat="43.758158971007006" lon="12.054096855595146"><ele>656.0</ele><time>2026-05-02T14:46:07Z</time></trkpt><trkpt lat="43.75831902531769" lon="12.054116574619885"><ele>656.0</ele><time>2026-05-02T14:46:09Z</time></trkpt><trkpt lat="43.75841612969572" lon="12.054131728421394"><ele>656.0</ele><time>2026-05-02T14:46:10Z</time></trkpt><trkpt lat="43.75850457543327" lon="12.05411859078688"><ele>656.0</ele><time>2026-05-02T14:46:11Z</time></trkpt><trkpt lat="43.75858969203225" lon="12.054093168084712"><ele>656.0</ele><time>2026-05-02T14:46:12Z</time></trkpt><trkpt lat="43.75865860646558" lon="12.054083026888524"><ele>656.0</ele><time>2026-05-02T14:46:13Z</time></trkpt><trkpt lat="43.75875258245484" lon="12.054152324324155"><ele>656.0</ele><time>2026-05-02T14:46:15Z</time></trkpt><trkpt lat="43.75881363733465" lon="12.05421527182464"><ele>656.0</ele><time>2026-05-02T14:46:16Z</time></trkpt><trkpt lat="43.75889950554714" lon="12.054309346905344"><ele>656.0</ele><time>2026-05-02T14:46:17Z</time></trkpt><trkpt lat="43.75896480240797" lon="12.054350827418165"><ele>656.0</ele><time>2026-05-02T14:46:18Z</time></trkpt><trkpt lat="43.759031220790185" lon="12.054371928180055"><ele>656.0</ele><time>2026-05-02T14:46:20Z</time></trkpt><trkpt lat="43.759065342790365" lon="12.054276793136838"><ele>656.0</ele><time>2026-05-02T14:47:09Z</time></trkpt><trkpt lat="43.75913894485806" lon="12.05423998422542"><ele>656.0</ele><time>2026-05-02T14:48:39Z</time></trkpt><trkpt lat="43.759193008233225" lon="12.054187592585935"><ele>656.0</ele><time>2026-05-02T14:49:26Z</time></trkpt><trkpt lat="43.75925009874588" lon="12.054147317337613"><ele>656.0</ele><time>2026-05-02T14:52:31Z</time></trkpt><trkpt lat="43.75935756680412" lon="12.054091531060626"><ele>661.4</ele><time>2026-05-02T14:52:42Z</time></trkpt><trkpt lat="43.75943068042388" lon="12.05400702770603"><ele>666.8</ele><time>2026-05-02T14:52:44Z</time></trkpt><trkpt lat="43.75950179176013" lon="12.05391252953554"><ele>672.1999999999999</ele><time>2026-05-02T14:52:46Z</time></trkpt><trkpt lat="43.75956787448784" lon="12.053783430352185"><ele>677.5999999999999</ele><time>2026-05-02T14:52:48Z</time></trkpt><trkpt lat="43.75962209501464" lon="12.053689864467731"><ele>683.0</ele><time>2026-05-02T14:52:50Z</time></trkpt><trkpt lat="43.759652682749675" lon="12.053589548510226"><ele>683.0</ele><time>2026-05-02T14:52:52Z</time></trkpt><trkpt lat="43.75971324837552" lon="12.053473672587847"><ele>683.0</ele><time>2026-05-02T14:52:54Z</time></trkpt><trkpt lat="43.759759659810946" lon="12.05340583032769"><ele>683.0</ele><time>2026-05-02T14:52:55Z</time></trkpt><trkpt lat="43.75985344273001" lon="12.05341941314972"><ele>683.0</ele><time>2026-05-02T14:52:56Z</time></trkpt><trkpt lat="43.75993481228029" lon="12.053395342368452"><ele>683.0</ele><time>2026-05-02T14:52:57Z</time></trkpt><trkpt lat="43.76002586199903" lon="12.05338498561328"><ele>683.0</ele><time>2026-05-02T14:52:58Z</time></trkpt><trkpt lat="43.76009086165001" lon="12.053350295931988"><ele>683.0</ele><time>2026-05-02T14:52:59Z</time></trkpt><trkpt lat="43.76019520597205" lon="12.053293100743428"><ele>683.0</ele><time>2026-05-02T14:53:01Z</time></trkpt><trkpt lat="43.76026448965669" lon="12.053231550918554"><ele>683.0</ele><time>2026-05-02T14:53:03Z</time></trkpt><trkpt lat="43.76035906119816" lon="12.05316117046695"><ele>683.0</ele><time>2026-05-02T14:53:08Z</time></trkpt><trkpt lat="43.76045179130825" lon="12.053064519759777"><ele>683.0</ele><time>2026-05-02T14:53:10Z</time></trkpt><trkpt lat="43.7605346288801" lon="12.052957604900401"><ele>683.0</ele><time>2026-05-02T14:53:12Z</time></trkpt><trkpt lat="43.76059399812527" lon="12.052879179401359"><ele>683.0</ele><time>2026-05-02T14:53:14Z</time></trkpt><trkpt lat="43.76065179263418" lon="12.052751695171144"><ele>683.0</ele><time>2026-05-02T14:53:17Z</time></trkpt><trkpt lat="43.76072041330967" lon="12.052682735434171"><ele>683.0</ele><time>2026-05-02T14:53:19Z</time></trkpt><trkpt lat="43.760818676083076" lon="12.052682043394032"><ele>683.0</ele><time>2026-05-02T14:53:21Z</time></trkpt><trkpt lat="43.76091681908678" lon="12.052671412957089"><ele>683.0</ele><time>2026-05-02T14:53:23Z</time></trkpt><trkpt lat="43.7609830572669" lon="12.052692622997817"><ele>683.0</ele><time>2026-05-02T14:53:26Z</time></trkpt><trkpt lat="43.7610592452296" lon="12.052729580509014"><ele>683.0</ele><time>2026-05-02T14:53:30Z</time></trkpt><trkpt lat="43.761126491097905" lon="12.052752901847548"><ele>683.0</ele><time>2026-05-02T14:53:32Z</time></trkpt><trkpt lat="43.76121123995412" lon="12.05282570058706"><ele>683.0</ele><time>2026-05-02T14:53:34Z</time></trkpt><trkpt lat="43.76127979239796" lon="12.052853380497409"><ele>683.0</ele><time>2026-05-02T14:53:35Z</time></trkpt><trkpt lat="43.761359983685885" lon="12.052881673045036"><ele>684.4</ele><time>2026-05-02T14:53:36Z</time></trkpt><trkpt lat="43.76141146720166" lon="12.05297590589899"><ele>685.8</ele><time>2026-05-02T14:53:37Z</time></trkpt><trkpt lat="43.76149562249464" lon="12.05305081829966"><ele>687.2</ele><time>2026-05-02T14:53:39Z</time></trkpt><trkpt lat="43.761550715718855" lon="12.053183325492007"><ele>688.6</ele><time>2026-05-02T14:53:41Z</time></trkpt><trkpt lat="43.76159119938426" lon="12.053308562412326"><ele>690.0</ele><time>2026-05-02T14:53:43Z</time></trkpt><trkpt lat="43.76162348737829" lon="12.053395537744928"><ele>690.0</ele><time>2026-05-02T14:53:45Z</time></trkpt><trkpt lat="43.761672095481785" lon="12.053522052717621"><ele>690.0</ele><time>2026-05-02T14:53:48Z</time></trkpt><trkpt lat="43.76174974841856" lon="12.053592148474563"><ele>690.0</ele><time>2026-05-02T14:53:50Z</time></trkpt><trkpt lat="43.761816320928894" lon="12.053558065591897"><ele>690.0</ele><time>2026-05-02T14:53:52Z</time></trkpt><trkpt lat="43.761815242770545" lon="12.053439404205655"><ele>690.0</ele><time>2026-05-02T14:53:54Z</time></trkpt><trkpt lat="43.76181884129255" lon="12.053347329007373"><ele>690.0</ele><time>2026-05-02T14:53:57Z</time></trkpt><trkpt lat="43.76182341317021" lon="12.053254868624508"><ele>690.0</ele><time>2026-05-02T14:54:01Z</time></trkpt><trkpt lat="43.76176324414109" lon="12.053136047168307"><ele>690.0</ele><time>2026-05-02T14:54:05Z</time></trkpt><trkpt lat="43.761805648322316" lon="12.053065429537913"><ele>690.0</ele><time>2026-05-02T14:54:08Z</time></trkpt><trkpt lat="43.76181978684046" lon="12.052946433739715"><ele>690.0</ele><time>2026-05-02T14:54:15Z</time></trkpt><trkpt lat="43.76184401108339" lon="12.052829082675913"><ele>690.0</ele><time>2026-05-02T14:54:17Z</time></trkpt><trkpt lat="43.7618214039536" lon="12.052715001192553"><ele>690.0</ele><time>2026-05-02T14:54:19Z</time></trkpt><trkpt lat="43.76174762263113" lon="12.052589032444471"><ele>690.0</ele><time>2026-05-02T14:54:21Z</time></trkpt><trkpt lat="43.761729702316586" lon="12.052504295427998"><ele>690.0</ele><time>2026-05-02T14:54:22Z</time></trkpt><trkpt lat="43.761756336826664" lon="12.052408761772206"><ele>690.0</ele><time>2026-05-02T14:54:23Z</time></trkpt><trkpt lat="43.76179006062724" lon="12.05223744011526"><ele>690.0</ele><time>2026-05-02T14:54:25Z</time></trkpt><trkpt lat="43.76184121591883" lon="12.052148020966353"><ele>690.0</ele><time>2026-05-02T14:54:26Z</time></trkpt><trkpt lat="43.76190461757966" lon="12.052060746072021"><ele>690.0</ele><time>2026-05-02T14:54:27Z</time></trkpt><trkpt lat="43.761962568194654" lon="12.051984002756724"><ele>692.8</ele><time>2026-05-02T14:54:28Z</time></trkpt><trkpt lat="43.762028089181165" lon="12.051926819469724"><ele>695.6</ele><time>2026-05-02T14:54:29Z</time></trkpt><trkpt lat="43.76208916069259" lon="12.051849268693816"><ele>698.4000000000001</ele><time>2026-05-02T14:54:30Z</time></trkpt><trkpt lat="43.7621075773075" lon="12.051739456987985"><ele>701.2</ele><time>2026-05-02T14:54:31Z</time></trkpt><trkpt lat="43.762188926610264" lon="12.051644690434632"><ele>704.0</ele><time>2026-05-02T14:54:33Z</time></trkpt><trkpt lat="43.76225274970441" lon="12.051512261677507"><ele>704.8000000000001</ele><time>2026-05-02T14:54:35Z</time></trkpt><trkpt lat="43.76223702174348" lon="12.05136395662158"><ele>705.6</ele><time>2026-05-02T14:54:37Z</time></trkpt><trkpt lat="43.76215850606664" lon="12.05127539864695"><ele>706.4</ele><time>2026-05-02T14:54:39Z</time></trkpt><trkpt lat="43.76205658852071" lon="12.051304887711593"><ele>707.2</ele><time>2026-05-02T14:54:41Z</time></trkpt><trkpt lat="43.761990687223474" lon="12.051340339603735"><ele>708.0</ele><time>2026-05-02T14:54:42Z</time></trkpt><trkpt lat="43.761914699735314" lon="12.051398583146494"><ele>705.5</ele><time>2026-05-02T14:54:43Z</time></trkpt><trkpt lat="43.76185771079671" lon="12.05145111364549"><ele>703.0</ele><time>2026-05-02T14:54:44Z</time></trkpt><trkpt lat="43.761746130734785" lon="12.051459667344936"><ele>700.5</ele><time>2026-05-02T14:54:46Z</time></trkpt><trkpt lat="43.76167084275724" lon="12.051423407826054"><ele>698.0</ele><time>2026-05-02T14:54:47Z</time></trkpt><trkpt lat="43.76159287737455" lon="12.051357021291738"><ele>695.5</ele><time>2026-05-02T14:54:48Z</time></trkpt><trkpt lat="43.76152913069932" lon="12.05127658846082"><ele>693.0</ele><time>2026-05-02T14:54:49Z</time></trkpt><trkpt lat="43.76147765678489" lon="12.051179088996886"><ele>693.0</ele><time>2026-05-02T14:54:50Z</time></trkpt><trkpt lat="43.761420094617165" lon="12.051052342626173"><ele>693.0</ele><time>2026-05-02T14:54:51Z</time></trkpt><trkpt lat="43.76136577289978" lon="12.050937289600256"><ele>693.0</ele><time>2026-05-02T14:54:52Z</time></trkpt><trkpt lat="43.761319986309296" lon="12.05086312091186"><ele>693.0</ele><time>2026-05-02T14:54:53Z</time></trkpt><trkpt lat="43.76129563532031" lon="12.050765310871467"><ele>693.0</ele><time>2026-05-02T14:54:55Z</time></trkpt><trkpt lat="43.76130655586172" lon="12.05067207254055"><ele>693.0</ele><time>2026-05-02T14:54:56Z</time></trkpt><trkpt lat="43.76134815096755" lon="12.050570782356619"><ele>693.6666666666666</ele><time>2026-05-02T14:54:57Z</time></trkpt><trkpt lat="43.761410839290264" lon="12.0504899241403"><ele>694.3333333333334</ele><time>2026-05-02T14:54:58Z</time></trkpt><trkpt lat="43.76147789672939" lon="12.050454145672155"><ele>695.0</ele><time>2026-05-02T14:54:59Z</time></trkpt><trkpt lat="43.76155274582079" lon="12.05043719747906"><ele>695.6666666666667</ele><time>2026-05-02T14:55:00Z</time></trkpt><trkpt lat="43.76163540563035" lon="12.050436360696267"><ele>696.3333333333334</ele><time>2026-05-02T14:55:01Z</time></trkpt><trkpt lat="43.7617259123654" lon="12.05043732142284"><ele>697.0</ele><time>2026-05-02T14:55:02Z</time></trkpt><trkpt lat="43.76178964472109" lon="12.050434224425821"><ele>697.0</ele><time>2026-05-02T14:55:03Z</time></trkpt><trkpt lat="43.76187267306609" lon="12.050359078980502"><ele>697.0</ele><time>2026-05-02T14:55:05Z</time></trkpt><trkpt lat="43.76187064350284" lon="12.050194081681912"><ele>697.0</ele><time>2026-05-02T14:55:07Z</time></trkpt><trkpt lat="43.761824362668456" lon="12.050109683162557"><ele>697.0</ele><time>2026-05-02T14:55:08Z</time></trkpt><trkpt lat="43.761756972863395" lon="12.050026665059955"><ele>697.0</ele><time>2026-05-02T14:55:09Z</time></trkpt><trkpt lat="43.76170923533232" lon="12.049955297026273"><ele>697.1428571428571</ele><time>2026-05-02T14:55:10Z</time></trkpt><trkpt lat="43.761698222658595" lon="12.049839880648182"><ele>697.2857142857142</ele><time>2026-05-02T14:55:13Z</time></trkpt><trkpt lat="43.76172614185432" lon="12.049754595456372"><ele>697.4285714285713</ele><time>2026-05-02T14:55:27Z</time></trkpt><trkpt lat="43.76178417601621" lon="12.049695722953352"><ele>697.5714285714286</ele><time>2026-05-02T14:56:03Z</time></trkpt><trkpt lat="43.761728791631654" lon="12.049756740671492"><ele>697.7142857142857</ele><time>2026-05-02T14:56:53Z</time></trkpt><trkpt lat="43.76174268718764" lon="12.049666830463988"><ele>697.8571428571428</ele><time>2026-05-02T14:57:19Z</time></trkpt><trkpt lat="43.761735572828556" lon="12.04975865222395"><ele>698.0</ele><time>2026-05-02T14:58:47Z</time></trkpt><trkpt lat="43.761743332242595" lon="12.049662760584724"><ele>698.0</ele><time>2026-05-02T14:59:05Z</time></trkpt><trkpt lat="43.76179058362238" lon="12.049604592972432"><ele>698.0</ele><time>2026-05-02T14:59:56Z</time></trkpt><trkpt lat="43.76182575632993" lon="12.049499695203911"><ele>698.0</ele><time>2026-05-02T15:00:06Z</time></trkpt><trkpt lat="43.761857384461315" lon="12.049414342409339"><ele>698.0</ele><time>2026-05-02T15:00:08Z</time></trkpt><trkpt lat="43.76188332286995" lon="12.04931523041543"><ele>698.0</ele><time>2026-05-02T15:00:10Z</time></trkpt><trkpt lat="43.7618842786132" lon="12.049191312233175"><ele>698.0</ele><time>2026-05-02T15:00:12Z</time></trkpt><trkpt lat="43.761868740175025" lon="12.049066747027704"><ele>700.0</ele><time>2026-05-02T15:00:14Z</time></trkpt><trkpt lat="43.76181502212706" lon="12.048939563703314"><ele>702.0</ele><time>2026-05-02T15:00:16Z</time></trkpt><trkpt lat="43.76174821889381" lon="12.048818708989524"><ele>704.0</ele><time>2026-05-02T15:00:18Z</time></trkpt><trkpt lat="43.761650160888856" lon="12.048725736819053"><ele>706.0</ele><time>2026-05-02T15:00:20Z</time></trkpt><trkpt lat="43.761552285729934" lon="12.048639320276306"><ele>706.0</ele><time>2026-05-02T15:00:22Z</time></trkpt><trkpt lat="43.76145594340022" lon="12.048628659248603"><ele>706.0</ele><time>2026-05-02T15:00:24Z</time></trkpt><trkpt lat="43.76140106392851" lon="12.048583011286318"><ele>706.0</ele><time>2026-05-02T15:00:25Z</time></trkpt><trkpt lat="43.761339015263474" lon="12.048557164082979"><ele>706.0</ele><time>2026-05-02T15:00:26Z</time></trkpt><trkpt lat="43.761272301145446" lon="12.0485575478087"><ele>706.0</ele><time>2026-05-02T15:00:27Z</time></trkpt><trkpt lat="43.761160479945175" lon="12.048535157257685"><ele>706.0</ele><time>2026-05-02T15:00:29Z</time></trkpt><trkpt lat="43.76109773040675" lon="12.048507742110187"><ele>701.8333333333334</ele><time>2026-05-02T15:00:30Z</time></trkpt><trkpt lat="43.76098484516237" lon="12.048430399918518"><ele>697.6666666666667</ele><time>2026-05-02T15:00:32Z</time></trkpt><trkpt lat="43.76091780545785" lon="12.048391348828645"><ele>693.5</ele><time>2026-05-02T15:00:33Z</time></trkpt><trkpt lat="43.76085742376121" lon="12.048362949336676"><ele>689.3333333333334</ele><time>2026-05-02T15:00:34Z</time></trkpt><trkpt lat="43.760759226364726" lon="12.048339903651526"><ele>685.1666666666666</ele><time>2026-05-02T15:00:36Z</time></trkpt><trkpt lat="43.76070040022659" lon="12.04825189080996"><ele>681.0</ele><time>2026-05-02T15:00:38Z</time></trkpt><trkpt lat="43.760664147762554" lon="12.048117619343698"><ele>680.8571428571429</ele><time>2026-05-02T15:00:40Z</time></trkpt><trkpt lat="43.76068420006953" lon="12.04797472483509"><ele>680.7142857142858</ele><time>2026-05-02T15:00:42Z</time></trkpt><trkpt lat="43.76072281415338" lon="12.047902552253342"><ele>680.5714285714287</ele><time>2026-05-02T15:00:43Z</time></trkpt><trkpt lat="43.76077643275526" lon="12.047837384915027"><ele>680.4285714285714</ele><time>2026-05-02T15:00:44Z</time></trkpt><trkpt lat="43.7608411882874" lon="12.04778259490715"><ele>680.2857142857142</ele><time>2026-05-02T15:00:45Z</time></trkpt><trkpt lat="43.76089452419033" lon="12.047734123444547"><ele>680.1428571428572</ele><time>2026-05-02T15:00:46Z</time></trkpt><trkpt lat="43.760935506971194" lon="12.047667163682048"><ele>680.0</ele><time>2026-05-02T15:00:47Z</time></trkpt><trkpt lat="43.760960238314745" lon="12.047569913043262"><ele>682.0</ele><time>2026-05-02T15:00:48Z</time></trkpt><trkpt lat="43.76097380558333" lon="12.047443317809943"><ele>684.0</ele><time>2026-05-02T15:00:49Z</time></trkpt><trkpt lat="43.76098015766162" lon="12.047311875971465"><ele>686.0</ele><time>2026-05-02T15:00:50Z</time></trkpt><trkpt lat="43.760982057544204" lon="12.047211400479167"><ele>688.0</ele><time>2026-05-02T15:00:51Z</time></trkpt><trkpt lat="43.760955287279614" lon="12.047055356601136"><ele>690.0</ele><time>2026-05-02T15:00:53Z</time></trkpt><trkpt lat="43.76092151981412" lon="12.046964970195612"><ele>692.0</ele><time>2026-05-02T15:00:54Z</time></trkpt><trkpt lat="43.76085428842304" lon="12.046877303990396"><ele>692.0</ele><time>2026-05-02T15:00:55Z</time></trkpt><trkpt lat="43.76077037181063" lon="12.046786728502973"><ele>692.0</ele><time>2026-05-02T15:00:56Z</time></trkpt><trkpt lat="43.760687447224484" lon="12.046691923226872"><ele>692.0</ele><time>2026-05-02T15:00:57Z</time></trkpt><trkpt lat="43.76060412232084" lon="12.046622931600366"><ele>692.0</ele><time>2026-05-02T15:00:58Z</time></trkpt><trkpt lat="43.76050041878548" lon="12.04655650146883"><ele>692.0</ele><time>2026-05-02T15:00:59Z</time></trkpt><trkpt lat="43.76039381625046" lon="12.046470597376791"><ele>690.4000000000001</ele><time>2026-05-02T15:01:00Z</time></trkpt><trkpt lat="43.76029573937124" lon="12.046399695023716"><ele>688.8000000000001</ele><time>2026-05-02T15:01:01Z</time></trkpt><trkpt lat="43.76019929505452" lon="12.046350860054753"><ele>687.2</ele><time>2026-05-02T15:01:02Z</time></trkpt><trkpt lat="43.760114918870066" lon="12.04628449048955"><ele>685.6</ele><time>2026-05-02T15:01:03Z</time></trkpt><trkpt lat="43.76002735726195" lon="12.046206040369874"><ele>684.0</ele><time>2026-05-02T15:01:04Z</time></trkpt><trkpt lat="43.759937974336566" lon="12.046133059394412"><ele>684.0</ele><time>2026-05-02T15:01:05Z</time></trkpt><trkpt lat="43.75984818859963" lon="12.046068504105403"><ele>684.0</ele><time>2026-05-02T15:01:06Z</time></trkpt><trkpt lat="43.75976553455847" lon="12.045995644201101"><ele>684.0</ele><time>2026-05-02T15:01:07Z</time></trkpt><trkpt lat="43.75969010819243" lon="12.045949049893471"><ele>684.0</ele><time>2026-05-02T15:01:08Z</time></trkpt><trkpt lat="43.759627169329484" lon="12.04592752016651"><ele>684.0</ele><time>2026-05-02T15:01:09Z</time></trkpt><trkpt lat="43.75953568541385" lon="12.04583116736257"><ele>685.1666666666666</ele><time>2026-05-02T15:01:11Z</time></trkpt><trkpt lat="43.759511721487804" lon="12.045718386480027"><ele>686.3333333333334</ele><time>2026-05-02T15:01:12Z</time></trkpt><trkpt lat="43.7594992574981" lon="12.045593602339293"><ele>687.5</ele><time>2026-05-02T15:01:13Z</time></trkpt><trkpt lat="43.75949520428169" lon="12.045487808589856"><ele>688.6666666666667</ele><time>2026-05-02T15:01:14Z</time></trkpt><trkpt lat="43.75950268645183" lon="12.04538793277541"><ele>689.8333333333334</ele><time>2026-05-02T15:01:15Z</time></trkpt><trkpt lat="43.75951555486496" lon="12.045282907005477"><ele>691.0</ele><time>2026-05-02T15:01:16Z</time></trkpt><trkpt lat="43.759530276711295" lon="12.04515281624009"><ele>691.0</ele><time>2026-05-02T15:01:17Z</time></trkpt><trkpt lat="43.75953549261454" lon="12.045025731450735"><ele>691.0</ele><time>2026-05-02T15:01:18Z</time></trkpt><trkpt lat="43.759519699913014" lon="12.04489265591041"><ele>691.0</ele><time>2026-05-02T15:01:19Z</time></trkpt><trkpt lat="43.759479354978275" lon="12.044742478513815"><ele>691.0</ele><time>2026-05-02T15:01:20Z</time></trkpt><trkpt lat="43.75943149979905" lon="12.044577597012792"><ele>691.0</ele><time>2026-05-02T15:01:21Z</time></trkpt><trkpt lat="43.75939279351536" lon="12.044432443620746"><ele>689.4</ele><time>2026-05-02T15:01:22Z</time></trkpt><trkpt lat="43.75936857722763" lon="12.044321010360086"><ele>687.8</ele><time>2026-05-02T15:01:23Z</time></trkpt><trkpt lat="43.75935444271196" lon="12.044216959748061"><ele>686.1999999999999</ele><time>2026-05-02T15:01:24Z</time></trkpt><trkpt lat="43.759320720344945" lon="12.044132763634723"><ele>684.5999999999999</ele><time>2026-05-02T15:01:25Z</time></trkpt><trkpt lat="43.75921245296988" lon="12.044029792735056"><ele>683.0</ele><time>2026-05-02T15:01:27Z</time></trkpt><trkpt lat="43.759130635162485" lon="12.043958657157726"><ele>679.6666666666666</ele><time>2026-05-02T15:01:28Z</time></trkpt><trkpt lat="43.75906918870798" lon="12.043875451178916"><ele>676.3333333333333</ele><time>2026-05-02T15:01:29Z</time></trkpt><trkpt lat="43.75901573160882" lon="12.043817200765242"><ele>673.0</ele><time>2026-05-02T15:01:30Z</time></trkpt><trkpt lat="43.75895597323046" lon="12.043773323347494"><ele>669.6666666666666</ele><time>2026-05-02T15:01:31Z</time></trkpt><trkpt lat="43.75890368207187" lon="12.043708616001986"><ele>666.3333333333334</ele><time>2026-05-02T15:01:33Z</time></trkpt><trkpt lat="43.75891401153517" lon="12.043590700450164"><ele>663.0</ele><time>2026-05-02T15:01:35Z</time></trkpt><trkpt lat="43.75896532877896" lon="12.04343369177841"><ele>663.0</ele><time>2026-05-02T15:01:37Z</time></trkpt><trkpt lat="43.759015871531474" lon="12.04333926947164"><ele>663.0</ele><time>2026-05-02T15:01:38Z</time></trkpt><trkpt lat="43.759063265623325" lon="12.0432645998728"><ele>663.0</ele><time>2026-05-02T15:01:39Z</time></trkpt><trkpt lat="43.759116311528956" lon="12.043183834678334"><ele>663.0</ele><time>2026-05-02T15:01:40Z</time></trkpt><trkpt lat="43.75916400582915" lon="12.043111376456626"><ele>663.0</ele><time>2026-05-02T15:01:41Z</time></trkpt><trkpt lat="43.75926819458177" lon="12.043041505679652"><ele>663.0</ele><time>2026-05-02T15:01:43Z</time></trkpt><trkpt lat="43.759361509066274" lon="12.04309490245817"><ele>662.8333333333334</ele><time>2026-05-02T15:01:45Z</time></trkpt><trkpt lat="43.75941213287325" lon="12.04317115732348"><ele>662.6666666666666</ele><time>2026-05-02T15:01:46Z</time></trkpt><trkpt lat="43.75946340339595" lon="12.043258511042808"><ele>662.5</ele><time>2026-05-02T15:01:47Z</time></trkpt><trkpt lat="43.75952222657863" lon="12.043341602924944"><ele>662.3333333333333</ele><time>2026-05-02T15:01:48Z</time></trkpt><trkpt lat="43.759595331795104" lon="12.043408655155933"><ele>662.1666666666666</ele><time>2026-05-02T15:01:49Z</time></trkpt><trkpt lat="43.759686001231806" lon="12.04345544693454"><ele>662.0</ele><time>2026-05-02T15:01:50Z</time></trkpt><trkpt lat="43.759788450388456" lon="12.043476482480838"><ele>662.0</ele><time>2026-05-02T15:01:51Z</time></trkpt><trkpt lat="43.75987062315832" lon="12.043510030455352"><ele>662.0</ele><time>2026-05-02T15:01:52Z</time></trkpt><trkpt lat="43.75995139373827" lon="12.043520278388902"><ele>662.0</ele><time>2026-05-02T15:01:53Z</time></trkpt><trkpt lat="43.76001477961878" lon="12.043520780635221"><ele>662.0</ele><time>2026-05-02T15:01:54Z</time></trkpt><trkpt lat="43.76013016427189" lon="12.043489465758892"><ele>662.0</ele><time>2026-05-02T15:01:56Z</time></trkpt><trkpt lat="43.76022816966926" lon="12.043472088446345"><ele>662.0</ele><time>2026-05-02T15:01:58Z</time></trkpt><trkpt lat="43.76037628425937" lon="12.043488060946702"><ele>661.8</ele><time>2026-05-02T15:02:00Z</time></trkpt><trkpt lat="43.760442277631576" lon="12.043515951608285"><ele>661.6</ele><time>2026-05-02T15:02:01Z</time></trkpt><trkpt lat="43.76054981947453" lon="12.04356724249258"><ele>661.4</ele><time>2026-05-02T15:02:03Z</time></trkpt><trkpt lat="43.760620855749195" lon="12.043530282415551"><ele>661.1999999999999</ele><time>2026-05-02T15:02:05Z</time></trkpt><trkpt lat="43.76061283304549" lon="12.04337638369127"><ele>661.0</ele><time>2026-05-02T15:02:07Z</time></trkpt><trkpt lat="43.7605386542378" lon="12.043238483563405"><ele>657.8</ele><time>2026-05-02T15:02:09Z</time></trkpt><trkpt lat="43.76045521538904" lon="12.043100107426335"><ele>654.5999999999999</ele><time>2026-05-02T15:02:11Z</time></trkpt><trkpt lat="43.760366976357574" lon="12.042995116118414"><ele>651.4</ele><time>2026-05-02T15:02:13Z</time></trkpt><trkpt lat="43.76029888032828" lon="12.042923196420983"><ele>648.2</ele><time>2026-05-02T15:02:15Z</time></trkpt><trkpt lat="43.76022614038904" lon="12.04287034125929"><ele>645.0</ele><time>2026-05-02T15:02:19Z</time></trkpt><trkpt lat="43.760155762002945" lon="12.042836269812735"><ele>644.8333333333334</ele><time>2026-05-02T15:02:22Z</time></trkpt><trkpt lat="43.760071338264055" lon="12.042718531253865"><ele>644.6666666666666</ele><time>2026-05-02T15:02:25Z</time></trkpt><trkpt lat="43.760011307201204" lon="12.042666981011523"><ele>644.5</ele><time>2026-05-02T15:02:26Z</time></trkpt><trkpt lat="43.75994495135122" lon="12.04262969263009"><ele>644.3333333333333</ele><time>2026-05-02T15:02:27Z</time></trkpt><trkpt lat="43.759880502957" lon="12.042580773646511"><ele>644.1666666666666</ele><time>2026-05-02T15:02:28Z</time></trkpt><trkpt lat="43.75982994683084" lon="12.042527854096663"><ele>644.0</ele><time>2026-05-02T15:02:29Z</time></trkpt><trkpt lat="43.759723608032694" lon="12.042435683723339"><ele>643.0</ele><time>2026-05-02T15:02:31Z</time></trkpt><trkpt lat="43.75963648072102" lon="12.042324588384282"><ele>642.0</ele><time>2026-05-02T15:02:33Z</time></trkpt><trkpt lat="43.75958486172423" lon="12.042273176627615"><ele>641.0</ele><time>2026-05-02T15:02:34Z</time></trkpt><trkpt lat="43.75952988028133" lon="12.042153949941953"><ele>640.0</ele><time>2026-05-02T15:02:36Z</time></trkpt><trkpt lat="43.75950928819549" lon="12.042021374572421"><ele>639.0</ele><time>2026-05-02T15:02:38Z</time></trkpt><trkpt lat="43.759512153104325" lon="12.041917158631769"><ele>639.0</ele><time>2026-05-02T15:02:40Z</time></trkpt><trkpt lat="43.75953838777115" lon="12.041808786746678"><ele>639.0</ele><time>2026-05-02T15:02:42Z</time></trkpt><trkpt lat="43.75959465097257" lon="12.041696689087615"><ele>639.0</ele><time>2026-05-02T15:02:44Z</time></trkpt><trkpt lat="43.75962328235596" lon="12.04154564822625"><ele>639.0</ele><time>2026-05-02T15:02:46Z</time></trkpt><trkpt lat="43.75960889987043" lon="12.041389521978047"><ele>639.0</ele><time>2026-05-02T15:02:48Z</time></trkpt><trkpt lat="43.75952783595465" lon="12.041288150045638"><ele>640.3333333333334</ele><time>2026-05-02T15:02:50Z</time></trkpt><trkpt lat="43.7594665006673" lon="12.041259357683593"><ele>641.6666666666666</ele><time>2026-05-02T15:02:51Z</time></trkpt><trkpt lat="43.75939875096476" lon="12.041243341430814"><ele>643.0</ele><time>2026-05-02T15:02:52Z</time></trkpt><trkpt lat="43.75932411578058" lon="12.041235441909816"><ele>644.3333333333333</ele><time>2026-05-02T15:02:53Z</time></trkpt><trkpt lat="43.75925198698686" lon="12.04121852001"><ele>645.6666666666666</ele><time>2026-05-02T15:02:54Z</time></trkpt><trkpt lat="43.759170204975035" lon="12.041209005827568"><ele>647.0</ele><time>2026-05-02T15:02:55Z</time></trkpt><trkpt lat="43.75907637921467" lon="12.04119744832874"><ele>647.0</ele><time>2026-05-02T15:02:56Z</time></trkpt><trkpt lat="43.75898016325598" lon="12.041192916480117"><ele>647.0</ele><time>2026-05-02T15:02:57Z</time></trkpt><trkpt lat="43.75888653765284" lon="12.041189283019513"><ele>647.0</ele><time>2026-05-02T15:02:58Z</time></trkpt><trkpt lat="43.75881793902085" lon="12.041210585398407"><ele>647.0</ele><time>2026-05-02T15:02:59Z</time></trkpt><trkpt lat="43.75873222929729" lon="12.041233631892487"><ele>647.0</ele><time>2026-05-02T15:03:00Z</time></trkpt><trkpt lat="43.758658054567945" lon="12.04125679932773"><ele>647.0</ele><time>2026-05-02T15:03:01Z</time></trkpt><trkpt lat="43.75858141926737" lon="12.04129506385177"><ele>648.8333333333333</ele><time>2026-05-02T15:03:02Z</time></trkpt><trkpt lat="43.75850656617061" lon="12.041345039281818"><ele>650.6666666666666</ele><time>2026-05-02T15:03:03Z</time></trkpt><trkpt lat="43.75842212296902" lon="12.04140009847955"><ele>652.5</ele><time>2026-05-02T15:03:04Z</time></trkpt><trkpt lat="43.75834851645968" lon="12.041452072486862"><ele>654.3333333333334</ele><time>2026-05-02T15:03:05Z</time></trkpt><trkpt lat="43.758284289815016" lon="12.041495604884062"><ele>656.1666666666667</ele><time>2026-05-02T15:03:06Z</time></trkpt><trkpt lat="43.758219115490895" lon="12.041538930166"><ele>658.0</ele><time>2026-05-02T15:03:07Z</time></trkpt><trkpt lat="43.75816602100758" lon="12.041589425274616"><ele>654.8333333333334</ele><time>2026-05-02T15:03:08Z</time></trkpt><trkpt lat="43.75811117048818" lon="12.041660241096109"><ele>651.6666666666667</ele><time>2026-05-02T15:03:09Z</time></trkpt><trkpt lat="43.7580610054529" lon="12.041746654287392"><ele>648.5</ele><time>2026-05-02T15:03:10Z</time></trkpt><trkpt lat="43.758024782997175" lon="12.041818341990036"><ele>645.3333333333334</ele><time>2026-05-02T15:03:11Z</time></trkpt><trkpt lat="43.75796629140796" lon="12.041946639656546"><ele>642.1666666666666</ele><time>2026-05-02T15:03:13Z</time></trkpt><trkpt lat="43.757878235056175" lon="12.041978711399437"><ele>639.0</ele><time>2026-05-02T15:03:15Z</time></trkpt><trkpt lat="43.757786512791064" lon="12.041967034054245"><ele>642.0</ele><time>2026-05-02T15:03:17Z</time></trkpt><trkpt lat="43.757657135312385" lon="12.04191523246084"><ele>645.0</ele><time>2026-05-02T15:03:19Z</time></trkpt><trkpt lat="43.757560794287436" lon="12.041882917976697"><ele>648.0</ele><time>2026-05-02T15:03:20Z</time></trkpt><trkpt lat="43.757473903972674" lon="12.04187544597781"><ele>651.0</ele><time>2026-05-02T15:03:21Z</time></trkpt><trkpt lat="43.75737588829665" lon="12.04189426353331"><ele>654.0</ele><time>2026-05-02T15:03:22Z</time></trkpt><trkpt lat="43.75729600979855" lon="12.041926566505346"><ele>654.0</ele><time>2026-05-02T15:03:23Z</time></trkpt><trkpt lat="43.75721436028689" lon="12.04195045294931"><ele>654.0</ele><time>2026-05-02T15:03:24Z</time></trkpt><trkpt lat="43.75713252604086" lon="12.041979023301844"><ele>654.0</ele><time>2026-05-02T15:03:25Z</time></trkpt><trkpt lat="43.757068203307256" lon="12.042012079440923"><ele>654.0</ele><time>2026-05-02T15:03:26Z</time></trkpt><trkpt lat="43.75700908355848" lon="12.042057987679122"><ele>654.0</ele><time>2026-05-02T15:03:27Z</time></trkpt><trkpt lat="43.75696087960146" lon="12.042114535303899"><ele>654.0</ele><time>2026-05-02T15:03:28Z</time></trkpt><trkpt lat="43.756919000488786" lon="12.04219560415477"><ele>654.0</ele><time>2026-05-02T15:03:29Z</time></trkpt><trkpt lat="43.75688623272085" lon="12.042285430764823"><ele>654.6666666666666</ele><time>2026-05-02T15:03:30Z</time></trkpt><trkpt lat="43.75686373246637" lon="12.042390658722688"><ele>655.3333333333334</ele><time>2026-05-02T15:03:31Z</time></trkpt><trkpt lat="43.75683382353319" lon="12.042500671612371"><ele>656.0</ele><time>2026-05-02T15:03:32Z</time></trkpt><trkpt lat="43.75681021078822" lon="12.04261363519026"><ele>656.6666666666667</ele><time>2026-05-02T15:03:33Z</time></trkpt><trkpt lat="43.756792673811624" lon="12.042735822775795"><ele>657.3333333333334</ele><time>2026-05-02T15:03:35Z</time></trkpt><trkpt lat="43.75672147487151" lon="12.042823593234646"><ele>658.0</ele><time>2026-05-02T15:03:37Z</time></trkpt><trkpt lat="43.7566448483516" lon="12.042736394183974"><ele>658.0</ele><time>2026-05-02T15:03:39Z</time></trkpt><trkpt lat="43.75663229438601" lon="12.042643000741599"><ele>658.0</ele><time>2026-05-02T15:03:40Z</time></trkpt><trkpt lat="43.75662069010414" lon="12.042552208512241"><ele>658.0</ele><time>2026-05-02T15:03:41Z</time></trkpt><trkpt lat="43.75658055305235" lon="12.042452271149363"><ele>658.0</ele><time>2026-05-02T15:03:42Z</time></trkpt><trkpt lat="43.75653035663001" lon="12.042347606707846"><ele>658.0</ele><time>2026-05-02T15:03:43Z</time></trkpt><trkpt lat="43.75646496583767" lon="12.042249876322138"><ele>658.0</ele><time>2026-05-02T15:03:44Z</time></trkpt><trkpt lat="43.756418419452636" lon="12.042135795456504"><ele>659.0</ele><time>2026-05-02T15:03:45Z</time></trkpt><trkpt lat="43.75635548395865" lon="12.042023070919928"><ele>660.0</ele><time>2026-05-02T15:03:47Z</time></trkpt><trkpt lat="43.756359216941114" lon="12.041873469266307"><ele>661.0</ele><time>2026-05-02T15:03:49Z</time></trkpt><trkpt lat="43.7564210132174" lon="12.041787832628108"><ele>662.0</ele><time>2026-05-02T15:03:50Z</time></trkpt><trkpt lat="43.756494313205856" lon="12.041730035977933"><ele>663.0</ele><time>2026-05-02T15:03:51Z</time></trkpt><trkpt lat="43.75655513653222" lon="12.04169240335207"><ele>664.0</ele><time>2026-05-02T15:03:52Z</time></trkpt><trkpt lat="43.756616789163424" lon="12.041656185073979"><ele>664.0</ele><time>2026-05-02T15:03:53Z</time></trkpt><trkpt lat="43.756734169723515" lon="12.041827126775413"><ele>664.0</ele><time>2026-05-02T15:03:55Z</time></trkpt><trkpt lat="43.75676653407542" lon="12.041692218227121"><ele>664.0</ele><time>2026-05-02T15:03:57Z</time></trkpt><trkpt lat="43.75681533064146" lon="12.041635516989118"><ele>664.0</ele><time>2026-05-02T15:04:01Z</time></trkpt><trkpt lat="43.75686929890062" lon="12.041575762470378"><ele>664.0</ele><time>2026-05-02T15:04:03Z</time></trkpt><trkpt lat="43.75699595352623" lon="12.041510328260957"><ele>665.3333333333334</ele><time>2026-05-02T15:04:05Z</time></trkpt><trkpt lat="43.75706374264943" lon="12.04143353528812"><ele>666.6666666666667</ele><time>2026-05-02T15:04:06Z</time></trkpt><trkpt lat="43.757132097491116" lon="12.041341284563071"><ele>668.0</ele><time>2026-05-02T15:04:07Z</time></trkpt><trkpt lat="43.757195535174844" lon="12.041251161501636"><ele>669.3333333333334</ele><time>2026-05-02T15:04:08Z</time></trkpt><trkpt lat="43.757236520985884" lon="12.041168368673592"><ele>670.6666666666666</ele><time>2026-05-02T15:04:09Z</time></trkpt><trkpt lat="43.757264717743794" lon="12.041086485651444"><ele>672.0</ele><time>2026-05-02T15:04:10Z</time></trkpt><trkpt lat="43.757261380088806" lon="12.040893898944933"><ele>673.3333333333334</ele><time>2026-05-02T15:04:12Z</time></trkpt><trkpt lat="43.75725795397319" lon="12.04078789804081"><ele>674.6666666666666</ele><time>2026-05-02T15:04:13Z</time></trkpt><trkpt lat="43.757335094582416" lon="12.040689155978935"><ele>676.0</ele><time>2026-05-02T15:04:15Z</time></trkpt><trkpt lat="43.75745511250204" lon="12.040755024098628"><ele>677.3333333333333</ele><time>2026-05-02T15:04:17Z</time></trkpt><trkpt lat="43.75752161907015" lon="12.040754266181617"><ele>678.6666666666666</ele><time>2026-05-02T15:04:18Z</time></trkpt><trkpt lat="43.757587680515186" lon="12.04077953694297"><ele>680.0</ele><time>2026-05-02T15:04:19Z</time></trkpt><trkpt lat="43.757671756379665" lon="12.040747004003617"><ele>681.0</ele><time>2026-05-02T15:04:21Z</time></trkpt><trkpt lat="43.757710106847924" lon="12.040607405044213"><ele>682.0</ele><time>2026-05-02T15:04:23Z</time></trkpt><trkpt lat="43.75772150171611" lon="12.04051216327775"><ele>683.0</ele><time>2026-05-02T15:04:24Z</time></trkpt><trkpt lat="43.757736593151414" lon="12.040404790871266"><ele>684.0</ele><time>2026-05-02T15:04:25Z</time></trkpt><trkpt lat="43.75775822933129" lon="12.040279002096733"><ele>685.0</ele><time>2026-05-02T15:04:26Z</time></trkpt><trkpt lat="43.757791979667196" lon="12.040143188209996"><ele>685.0</ele><time>2026-05-02T15:04:27Z</time></trkpt><trkpt lat="43.75782631749903" lon="12.04002190841555"><ele>685.0</ele><time>2026-05-02T15:04:28Z</time></trkpt><trkpt lat="43.75785913327026" lon="12.039907512094338"><ele>685.0</ele><time>2026-05-02T15:04:29Z</time></trkpt><trkpt lat="43.75788070332488" lon="12.039816548222209"><ele>685.0</ele><time>2026-05-02T15:04:30Z</time></trkpt><trkpt lat="43.75790660239839" lon="12.039666935556383"><ele>685.0</ele><time>2026-05-02T15:04:32Z</time></trkpt><trkpt lat="43.757894213133994" lon="12.039545653158786"><ele>686.3333333333334</ele><time>2026-05-02T15:04:33Z</time></trkpt><trkpt lat="43.75790605573279" lon="12.039420774446022"><ele>687.6666666666667</ele><time>2026-05-02T15:04:34Z</time></trkpt><trkpt lat="43.75791993667863" lon="12.039331673413848"><ele>689.0</ele><time>2026-05-02T15:04:35Z</time></trkpt><trkpt lat="43.75794226725476" lon="12.039229665240626"><ele>690.3333333333334</ele><time>2026-05-02T15:04:36Z</time></trkpt><trkpt lat="43.75798950250261" lon="12.039119011739539"><ele>691.6666666666666</ele><time>2026-05-02T15:04:37Z</time></trkpt><trkpt lat="43.758042490549016" lon="12.03903611815127"><ele>693.0</ele><time>2026-05-02T15:04:38Z</time></trkpt><trkpt lat="43.75808398437467" lon="12.038964067079023"><ele>693.0</ele><time>2026-05-02T15:04:39Z</time></trkpt><trkpt lat="43.758113109786194" lon="12.038876395289302"><ele>693.0</ele><time>2026-05-02T15:04:40Z</time></trkpt><trkpt lat="43.758108144998495" lon="12.03872616142466"><ele>693.0</ele><time>2026-05-02T15:04:42Z</time></trkpt><trkpt lat="43.758063082641335" lon="12.038592761801736"><ele>693.0</ele><time>2026-05-02T15:04:44Z</time></trkpt><trkpt lat="43.757945405508025" lon="12.038507069521398"><ele>693.0</ele><time>2026-05-02T15:04:46Z</time></trkpt><trkpt lat="43.75788389176327" lon="12.03846512825029"><ele>693.0</ele><time>2026-05-02T15:04:47Z</time></trkpt><trkpt lat="43.757829846222634" lon="12.038418504729293"><ele>693.0</ele><time>2026-05-02T15:04:48Z</time></trkpt><trkpt lat="43.75777413140179" lon="12.038370898547898"><ele>693.0</ele><time>2026-05-02T15:04:49Z</time></trkpt><trkpt lat="43.757694796578356" lon="12.038275740716747"><ele>693.0</ele><time>2026-05-02T15:04:51Z</time></trkpt><trkpt lat="43.75766297202728" lon="12.038187888769558"><ele>693.0</ele><time>2026-05-02T15:04:52Z</time></trkpt><trkpt lat="43.75767444951054" lon="12.038062594481513"><ele>693.0</ele><time>2026-05-02T15:04:54Z</time></trkpt><trkpt lat="43.75769553383836" lon="12.037952633977097"><ele>691.5999999999999</ele><time>2026-05-02T15:04:57Z</time></trkpt><trkpt lat="43.75775177536572" lon="12.037838731833006"><ele>690.1999999999999</ele><time>2026-05-02T15:04:59Z</time></trkpt><trkpt lat="43.75781369330552" lon="12.037754939368588"><ele>688.8</ele><time>2026-05-02T15:05:01Z</time></trkpt><trkpt lat="43.75787975014137" lon="12.037619845971857"><ele>687.4</ele><time>2026-05-02T15:05:03Z</time></trkpt><trkpt lat="43.75793167701549" lon="12.037563380541615"><ele>686.0</ele><time>2026-05-02T15:05:04Z</time></trkpt><trkpt lat="43.758012233988474" lon="12.03756555421075"><ele>686.0</ele><time>2026-05-02T15:05:05Z</time></trkpt><trkpt lat="43.75810643722908" lon="12.03754705739716"><ele>686.0</ele><time>2026-05-02T15:05:06Z</time></trkpt><trkpt lat="43.75820563466689" lon="12.03752598268013"><ele>686.0</ele><time>2026-05-02T15:05:07Z</time></trkpt><trkpt lat="43.758285793707756" lon="12.037489504613104"><ele>686.0</ele><time>2026-05-02T15:05:08Z</time></trkpt><trkpt lat="43.75836348052004" lon="12.037485511303862"><ele>686.0</ele><time>2026-05-02T15:05:09Z</time></trkpt><trkpt lat="43.75844303458063" lon="12.037459586086577"><ele>686.0</ele><time>2026-05-02T15:05:10Z</time></trkpt><trkpt lat="43.75852350640076" lon="12.037415383386083"><ele>688.0</ele><time>2026-05-02T15:05:11Z</time></trkpt><trkpt lat="43.758613353678285" lon="12.037418927337054"><ele>690.0</ele><time>2026-05-02T15:05:12Z</time></trkpt><trkpt lat="43.75870369603437" lon="12.03740702094588"><ele>692.0</ele><time>2026-05-02T15:05:13Z</time></trkpt><trkpt lat="43.75878310604998" lon="12.037398870319844"><ele>694.0</ele><time>2026-05-02T15:05:14Z</time></trkpt><trkpt lat="43.75886212041985" lon="12.037372676150913"><ele>696.0</ele><time>2026-05-02T15:05:15Z</time></trkpt><trkpt lat="43.7589460027923" lon="12.037376319812568"><ele>698.0</ele><time>2026-05-02T15:05:16Z</time></trkpt><trkpt lat="43.75902960033252" lon="12.037368866313274"><ele>698.0</ele><time>2026-05-02T15:05:17Z</time></trkpt><trkpt lat="43.75910769161408" lon="12.037390755988202"><ele>698.0</ele><time>2026-05-02T15:05:18Z</time></trkpt><trkpt lat="43.75919801017703" lon="12.037405899882915"><ele>698.0</ele><time>2026-05-02T15:05:19Z</time></trkpt><trkpt lat="43.75927922269848" lon="12.037443476346816"><ele>698.0</ele><time>2026-05-02T15:05:20Z</time></trkpt><trkpt lat="43.75934795688992" lon="12.037494350534974"><ele>698.0</ele><time>2026-05-02T15:05:21Z</time></trkpt><trkpt lat="43.75942795815312" lon="12.037546468393892"><ele>698.0</ele><time>2026-05-02T15:05:22Z</time></trkpt><trkpt lat="43.759507258860964" lon="12.037589726978661"><ele>700.3333333333333</ele><time>2026-05-02T15:05:23Z</time></trkpt><trkpt lat="43.75959179619119" lon="12.03763584215253"><ele>702.6666666666666</ele><time>2026-05-02T15:05:24Z</time></trkpt><trkpt lat="43.75967709984879" lon="12.037684291881469"><ele>705.0</ele><time>2026-05-02T15:05:25Z</time></trkpt><trkpt lat="43.75975601932771" lon="12.037733497109548"><ele>707.3333333333334</ele><time>2026-05-02T15:05:26Z</time></trkpt><trkpt lat="43.7598256343044" lon="12.037786425755867"><ele>709.6666666666667</ele><time>2026-05-02T15:05:27Z</time></trkpt><trkpt lat="43.75988518224978" lon="12.037836870843137"><ele>712.0</ele><time>2026-05-02T15:05:28Z</time></trkpt><trkpt lat="43.75993666451484" lon="12.037924447766247"><ele>712.0</ele><time>2026-05-02T15:05:29Z</time></trkpt><trkpt lat="43.759993548542944" lon="12.038034634696118"><ele>712.0</ele><time>2026-05-02T15:05:31Z</time></trkpt><trkpt lat="43.76009774256279" lon="12.038051364158482"><ele>712.0</ele><time>2026-05-02T15:05:33Z</time></trkpt><trkpt lat="43.760161672248614" lon="12.038059114897854"><ele>712.0</ele><time>2026-05-02T15:05:34Z</time></trkpt><trkpt lat="43.76022407725117" lon="12.038040227117433"><ele>712.0</ele><time>2026-05-02T15:05:35Z</time></trkpt><trkpt lat="43.760306779478434" lon="12.038132941708913"><ele>712.0</ele><time>2026-05-02T15:05:36Z</time></trkpt><trkpt lat="43.76038981979635" lon="12.038194649931146"><ele>714.8333333333334</ele><time>2026-05-02T15:05:37Z</time></trkpt><trkpt lat="43.760463064140446" lon="12.038224214931258"><ele>717.6666666666667</ele><time>2026-05-02T15:05:38Z</time></trkpt><trkpt lat="43.76054646447996" lon="12.038228373063587"><ele>720.5</ele><time>2026-05-02T15:05:39Z</time></trkpt><trkpt lat="43.760632571573616" lon="12.038228394258109"><ele>723.3333333333334</ele><time>2026-05-02T15:05:40Z</time></trkpt><trkpt lat="43.76072003055414" lon="12.038229977329362"><ele>726.1666666666666</ele><time>2026-05-02T15:05:41Z</time></trkpt><trkpt lat="43.76081116906558" lon="12.038215691641401"><ele>729.0</ele><time>2026-05-02T15:05:42Z</time></trkpt><trkpt lat="43.76088430817441" lon="12.038215386868684"><ele>729.0</ele><time>2026-05-02T15:05:43Z</time></trkpt><trkpt lat="43.760958130050966" lon="12.03821562506952"><ele>729.0</ele><time>2026-05-02T15:05:44Z</time></trkpt><trkpt lat="43.76104190183914" lon="12.038197933052087"><ele>729.0</ele><time>2026-05-02T15:05:45Z</time></trkpt><trkpt lat="43.76112785434625" lon="12.038168682695629"><ele>729.0</ele><time>2026-05-02T15:05:46Z</time></trkpt><trkpt lat="43.76121600539418" lon="12.038118140891719"><ele>729.0</ele><time>2026-05-02T15:05:47Z</time></trkpt><trkpt lat="43.76130381343315" lon="12.0380523322492"><ele>729.0</ele><time>2026-05-02T15:05:48Z</time></trkpt><trkpt lat="43.76138667031632" lon="12.037982217925302"><ele>728.1666666666666</ele><time>2026-05-02T15:05:49Z</time></trkpt><trkpt lat="43.761452358697184" lon="12.037925027047892"><ele>727.3333333333334</ele><time>2026-05-02T15:05:50Z</time></trkpt><trkpt lat="43.76153049763762" lon="12.037835120712533"><ele>726.5</ele><time>2026-05-02T15:05:52Z</time></trkpt><trkpt lat="43.76157886909484" lon="12.037774353567759"><ele>725.6666666666667</ele><time>2026-05-02T15:05:54Z</time></trkpt><trkpt lat="43.76163917813376" lon="12.037740736660886"><ele>724.8333333333334</ele><time>2026-05-02T15:05:57Z</time></trkpt><trkpt lat="43.76167818703425" lon="12.037665185008231"><ele>724.0</ele><time>2026-05-02T15:06:55Z</time></trkpt><trkpt lat="43.761751439059545" lon="12.037607269944385"><ele>724.0</ele><time>2026-05-02T15:06:57Z</time></trkpt><trkpt lat="43.76184826476028" lon="12.037510098775892"><ele>724.0</ele><time>2026-05-02T15:06:59Z</time></trkpt><trkpt lat="43.7619878388315" lon="12.03761786622779"><ele>724.0</ele><time>2026-05-02T15:07:01Z</time></trkpt><trkpt lat="43.76206221777037" lon="12.037601725695252"><ele>724.0</ele><time>2026-05-02T15:07:02Z</time></trkpt><trkpt lat="43.762132865826885" lon="12.037587986557812"><ele>724.0</ele><time>2026-05-02T15:07:03Z</time></trkpt><trkpt lat="43.7621980899843" lon="12.037575065736215"><ele>722.4000000000001</ele><time>2026-05-02T15:07:04Z</time></trkpt><trkpt lat="43.762264177184434" lon="12.037560596331302"><ele>720.8</ele><time>2026-05-02T15:07:05Z</time></trkpt><trkpt lat="43.762332012481636" lon="12.037544971315924"><ele>719.2</ele><time>2026-05-02T15:07:06Z</time></trkpt><trkpt lat="43.76241200351965" lon="12.037523975018054"><ele>717.5999999999999</ele><time>2026-05-02T15:07:08Z</time></trkpt><trkpt lat="43.762557683906515" lon="12.037296539940346"><ele>716.0</ele><time>2026-05-02T15:07:10Z</time></trkpt><trkpt lat="43.76260004779641" lon="12.037228766325457"><ele>717.0</ele><time>2026-05-02T15:07:11Z</time></trkpt><trkpt lat="43.762677235407224" lon="12.037104568851797"><ele>718.0</ele><time>2026-05-02T15:07:13Z</time></trkpt><trkpt lat="43.76273216660917" lon="12.037023077828144"><ele>719.0</ele><time>2026-05-02T15:07:15Z</time></trkpt><trkpt lat="43.762804532209294" lon="12.036950925451947"><ele>720.0</ele><time>2026-05-02T15:07:17Z</time></trkpt><trkpt lat="43.76287670469996" lon="12.036946118251324"><ele>721.0</ele><time>2026-05-02T15:07:20Z</time></trkpt><trkpt lat="43.76295254641252" lon="12.036967111065282"><ele>722.0</ele><time>2026-05-02T15:07:23Z</time></trkpt><trkpt lat="43.76302812072319" lon="12.03703883987428"><ele>722.0</ele><time>2026-05-02T15:07:26Z</time></trkpt><trkpt lat="43.76318958346782" lon="12.036890083934876"><ele>722.0</ele><time>2026-05-02T15:07:29Z</time></trkpt><trkpt lat="43.763227491104864" lon="12.036812497657754"><ele>722.0</ele><time>2026-05-02T15:07:31Z</time></trkpt><trkpt lat="43.76319229268408" lon="12.03673586603743"><ele>722.0</ele><time>2026-05-02T15:07:33Z</time></trkpt><trkpt lat="43.763088022809406" lon="12.036682369085696"><ele>722.0</ele><time>2026-05-02T15:07:35Z</time></trkpt><trkpt lat="43.763033191967146" lon="12.036630312889807"><ele>723.8</ele><time>2026-05-02T15:07:36Z</time></trkpt><trkpt lat="43.76295497250243" lon="12.036490379256097"><ele>725.6</ele><time>2026-05-02T15:07:38Z</time></trkpt><trkpt lat="43.7629221786671" lon="12.03639299870642"><ele>727.4</ele><time>2026-05-02T15:07:39Z</time></trkpt><trkpt lat="43.76289464324731" lon="12.036290819898422"><ele>729.1999999999999</ele><time>2026-05-02T15:07:41Z</time></trkpt><trkpt lat="43.76292217872828" lon="12.03617853731597"><ele>731.0</ele><time>2026-05-02T15:07:43Z</time></trkpt><trkpt lat="43.76301657887506" lon="12.036096035927361"><ele>731.0</ele><time>2026-05-02T15:07:45Z</time></trkpt><trkpt lat="43.763097324928104" lon="12.036037693787241"><ele>731.0</ele><time>2026-05-02T15:07:47Z</time></trkpt><trkpt lat="43.76315523426948" lon="12.035984908371079"><ele>731.0</ele><time>2026-05-02T15:07:49Z</time></trkpt><trkpt lat="43.76321830667013" lon="12.036064403925268"><ele>731.0</ele><time>2026-05-02T15:07:52Z</time></trkpt><trkpt lat="43.76326295433731" lon="12.036151590079022"><ele>731.0</ele><time>2026-05-02T15:07:54Z</time></trkpt><trkpt lat="43.76333507397887" lon="12.036204407492535"><ele>731.0</ele><time>2026-05-02T15:07:56Z</time></trkpt><trkpt lat="43.76342715485323" lon="12.03625439639718"><ele>731.0</ele><time>2026-05-02T15:07:58Z</time></trkpt><trkpt lat="43.7635142652145" lon="12.036213067762292"><ele>731.0</ele><time>2026-05-02T15:08:00Z</time></trkpt><trkpt lat="43.763615047945144" lon="12.036243984269648"><ele>731.0</ele><time>2026-05-02T15:08:02Z</time></trkpt><trkpt lat="43.7637291445283" lon="12.036315879160268"><ele>731.0</ele><time>2026-05-02T15:08:04Z</time></trkpt><trkpt lat="43.76381838361774" lon="12.03639305260528"><ele>731.0</ele><time>2026-05-02T15:08:06Z</time></trkpt><trkpt lat="43.76391555680982" lon="12.036421705403948"><ele>730.3333333333333</ele><time>2026-05-02T15:08:08Z</time></trkpt><trkpt lat="43.763990207389135" lon="12.036314126705516"><ele>729.6666666666666</ele><time>2026-05-02T15:08:10Z</time></trkpt><trkpt lat="43.76403692358332" lon="12.036230261380057"><ele>729.0</ele><time>2026-05-02T15:08:11Z</time></trkpt><trkpt lat="43.764092578093454" lon="12.036080919011397"><ele>728.3333333333334</ele><time>2026-05-02T15:08:13Z</time></trkpt><trkpt lat="43.764096587319905" lon="12.03598967879993"><ele>727.6666666666667</ele><time>2026-05-02T15:08:14Z</time></trkpt><trkpt lat="43.764092772417726" lon="12.035901758042762"><ele>727.0</ele><time>2026-05-02T15:08:15Z</time></trkpt><trkpt lat="43.764109851673226" lon="12.03581101285041"><ele>729.1666666666667</ele><time>2026-05-02T15:08:16Z</time></trkpt><trkpt lat="43.76414108906612" lon="12.035727389577547"><ele>731.3333333333334</ele><time>2026-05-02T15:08:17Z</time></trkpt><trkpt lat="43.76417505074149" lon="12.035651051553323"><ele>733.5</ele><time>2026-05-02T15:08:18Z</time></trkpt><trkpt lat="43.764204029045345" lon="12.035558507298793"><ele>735.6666666666666</ele><time>2026-05-02T15:08:19Z</time></trkpt><trkpt lat="43.76423343985394" lon="12.035460239340376"><ele>737.8333333333333</ele><time>2026-05-02T15:08:20Z</time></trkpt><trkpt lat="43.764287195658966" lon="12.035343554338265"><ele>740.0</ele><time>2026-05-02T15:08:22Z</time></trkpt><trkpt lat="43.76435835959679" lon="12.035281308499364"><ele>740.0</ele><time>2026-05-02T15:08:24Z</time></trkpt><trkpt lat="43.76441389950372" lon="12.035212146253155"><ele>740.0</ele><time>2026-05-02T15:08:26Z</time></trkpt><trkpt lat="43.764487224852836" lon="12.035109476938755"><ele>740.0</ele><time>2026-05-02T15:08:28Z</time></trkpt><trkpt lat="43.76453825713003" lon="12.035028100046018"><ele>740.0</ele><time>2026-05-02T15:08:30Z</time></trkpt><trkpt lat="43.764611496333224" lon="12.034931865376942"><ele>740.0</ele><time>2026-05-02T15:08:32Z</time></trkpt><trkpt lat="43.76470479937767" lon="12.034849917241619"><ele>742.2</ele><time>2026-05-02T15:08:34Z</time></trkpt><trkpt lat="43.76478353460346" lon="12.034758845077498"><ele>744.4</ele><time>2026-05-02T15:08:36Z</time></trkpt><trkpt lat="43.764815676164304" lon="12.034634465183794"><ele>746.5999999999999</ele><time>2026-05-02T15:08:38Z</time></trkpt><trkpt lat="43.764848362637345" lon="12.034480832242192"><ele>748.8</ele><time>2026-05-02T15:08:40Z</time></trkpt><trkpt lat="43.76490825274523" lon="12.034342457456647"><ele>751.0</ele><time>2026-05-02T15:08:42Z</time></trkpt><trkpt lat="43.76499583165948" lon="12.034296369394406"><ele>751.0</ele><time>2026-05-02T15:08:44Z</time></trkpt><trkpt lat="43.76502777522515" lon="12.034169288987142"><ele>751.0</ele><time>2026-05-02T15:10:10Z</time></trkpt><trkpt lat="43.76502550453914" lon="12.03405895608697"><ele>751.0</ele><time>2026-05-02T15:10:12Z</time></trkpt><trkpt lat="43.765004274809314" lon="12.03394570248634"><ele>751.0</ele><time>2026-05-02T15:10:15Z</time></trkpt><trkpt lat="43.764982027151895" lon="12.033836091162044"><ele>751.0</ele><time>2026-05-02T15:10:17Z</time></trkpt><trkpt lat="43.76498553940897" lon="12.033735734943921"><ele>751.0</ele><time>2026-05-02T15:10:19Z</time></trkpt><trkpt lat="43.76501216164139" lon="12.033626534821048"><ele>752.1666666666667</ele><time>2026-05-02T15:10:21Z</time></trkpt><trkpt lat="43.7650146005366" lon="12.033523547896394"><ele>753.3333333333334</ele><time>2026-05-02T15:10:23Z</time></trkpt><trkpt lat="43.76501289678249" lon="12.033428816516064"><ele>754.5</ele><time>2026-05-02T15:10:25Z</time></trkpt><trkpt lat="43.76502253728213" lon="12.033312827444313"><ele>755.6666666666666</ele><time>2026-05-02T15:10:27Z</time></trkpt><trkpt lat="43.76506583761948" lon="12.03319868566771"><ele>756.8333333333333</ele><time>2026-05-02T15:10:29Z</time></trkpt><trkpt lat="43.76509765294633" lon="12.033121351533513"><ele>758.0</ele><time>2026-05-02T15:10:30Z</time></trkpt><trkpt lat="43.76517928560723" lon="12.032990547956448"><ele>757.5999999999999</ele><time>2026-05-02T15:10:32Z</time></trkpt><trkpt lat="43.765213245972674" lon="12.03290219863057"><ele>757.1999999999999</ele><time>2026-05-02T15:10:34Z</time></trkpt><trkpt lat="43.76524979853889" lon="12.032766066921312"><ele>756.8</ele><time>2026-05-02T15:10:36Z</time></trkpt><trkpt lat="43.76528267006787" lon="12.032601952880125"><ele>756.4</ele><time>2026-05-02T15:10:38Z</time></trkpt><trkpt lat="43.765314594365286" lon="12.032503722974328"><ele>756.0</ele><time>2026-05-02T15:10:39Z</time></trkpt><trkpt lat="43.76539123381682" lon="12.03236754979991"><ele>754.4</ele><time>2026-05-02T15:10:41Z</time></trkpt><trkpt lat="43.76544237192429" lon="12.032255934166404"><ele>752.8</ele><time>2026-05-02T15:10:43Z</time></trkpt><trkpt lat="43.76542255224477" lon="12.03211111395195"><ele>751.1999999999999</ele><time>2026-05-02T15:10:54Z</time></trkpt><trkpt lat="43.765393438944116" lon="12.031983714487179"><ele>749.5999999999999</ele><time>2026-05-02T15:10:56Z</time></trkpt><trkpt lat="43.76538421244172" lon="12.031864705234424"><ele>748.0</ele><time>2026-05-02T15:10:58Z</time></trkpt><trkpt lat="43.76535944251034" lon="12.031762093753935"><ele>746.5</ele><time>2026-05-02T15:11:00Z</time></trkpt><trkpt lat="43.765337144608324" lon="12.031640266506155"><ele>745.0</ele><time>2026-05-02T15:11:02Z</time></trkpt><trkpt lat="43.765311562148106" lon="12.031502115287704"><ele>743.5</ele><time>2026-05-02T15:11:04Z</time></trkpt><trkpt lat="43.76529282524826" lon="12.031416553484593"><ele>742.0</ele><time>2026-05-02T15:11:06Z</time></trkpt><trkpt lat="43.765254359449216" lon="12.031292954597681"><ele>740.5</ele><time>2026-05-02T15:11:08Z</time></trkpt><trkpt lat="43.76520555884888" lon="12.031221051623792"><ele>739.0</ele><time>2026-05-02T15:11:09Z</time></trkpt><trkpt lat="43.76516512230798" lon="12.031137254220873"><ele>742.4000000000001</ele><time>2026-05-02T15:11:11Z</time></trkpt><trkpt lat="43.76516084199429" lon="12.031032390452701"><ele>745.8</ele><time>2026-05-02T15:11:13Z</time></trkpt><trkpt lat="43.76513915255348" lon="12.030925848436931"><ele>749.2</ele><time>2026-05-02T15:11:15Z</time></trkpt><trkpt lat="43.765124053565025" lon="12.03077676104981"><ele>752.5999999999999</ele><time>2026-05-02T15:11:17Z</time></trkpt><trkpt lat="43.76509204299176" lon="12.030637140403526"><ele>756.0</ele><time>2026-05-02T15:11:19Z</time></trkpt><trkpt lat="43.76501909863968" lon="12.030526194178725"><ele>756.0</ele><time>2026-05-02T15:11:21Z</time></trkpt><trkpt lat="43.764946885982326" lon="12.030439191823277"><ele>756.0</ele><time>2026-05-02T15:11:23Z</time></trkpt><trkpt lat="43.76488542496524" lon="12.030369697504009"><ele>756.0</ele><time>2026-05-02T15:11:25Z</time></trkpt><trkpt lat="43.76488531182472" lon="12.030274891035175"><ele>756.0</ele><time>2026-05-02T15:11:29Z</time></trkpt><trkpt lat="43.76496830444227" lon="12.030258871444094"><ele>756.0</ele><time>2026-05-02T15:11:33Z</time></trkpt><trkpt lat="43.765049346921" lon="12.03023562862806"><ele>756.0</ele><time>2026-05-02T15:11:37Z</time></trkpt><trkpt lat="43.76511017091146" lon="12.030261675812794"><ele>756.0</ele><time>2026-05-02T15:11:40Z</time></trkpt><trkpt lat="43.76518870864845" lon="12.030312352719855"><ele>756.0</ele><time>2026-05-02T15:11:43Z</time></trkpt><trkpt lat="43.765268260046994" lon="12.030353476949774"><ele>756.0</ele><time>2026-05-02T15:11:47Z</time></trkpt><trkpt lat="43.765324501844724" lon="12.030406887892648"><ele>756.0</ele><time>2026-05-02T15:11:49Z</time></trkpt><trkpt lat="43.76537093129395" lon="12.03046948866055"><ele>756.0</ele><time>2026-05-02T15:11:51Z</time></trkpt><trkpt lat="43.76541600486062" lon="12.030549210329124"><ele>756.0</ele><time>2026-05-02T15:12:14Z</time></trkpt><trkpt lat="43.76541121411141" lon="12.030398621116186"><ele>755.5</ele><time>2026-05-02T15:12:33Z</time></trkpt><trkpt lat="43.765442207987014" lon="12.0302626865397"><ele>755.0</ele><time>2026-05-02T15:12:35Z</time></trkpt><trkpt lat="43.7655056319349" lon="12.030231447502322"><ele>754.5</ele><time>2026-05-02T15:12:36Z</time></trkpt><trkpt lat="43.76556445070846" lon="12.030195595157846"><ele>754.0</ele><time>2026-05-02T15:12:37Z</time></trkpt><trkpt lat="43.76564667212705" lon="12.030112879008414"><ele>753.5</ele><time>2026-05-02T15:12:39Z</time></trkpt><trkpt lat="43.76572421656589" lon="12.030055372241764"><ele>753.0</ele><time>2026-05-02T15:12:41Z</time></trkpt><trkpt lat="43.765814547567096" lon="12.030062063870856"><ele>753.0</ele><time>2026-05-02T15:12:43Z</time></trkpt><trkpt lat="43.765918821551566" lon="12.03007344926515"><ele>753.0</ele><time>2026-05-02T15:12:45Z</time></trkpt><trkpt lat="43.76604380414915" lon="12.030061775352621"><ele>753.0</ele><time>2026-05-02T15:12:47Z</time></trkpt><trkpt lat="43.76611658823604" lon="12.030056952685634"><ele>753.0</ele><time>2026-05-02T15:12:49Z</time></trkpt><trkpt lat="43.76616857809483" lon="12.02997986171488"><ele>753.0</ele><time>2026-05-02T15:12:51Z</time></trkpt><trkpt lat="43.766215615033246" lon="12.029896697385015"><ele>751.6666666666666</ele><time>2026-05-02T15:12:52Z</time></trkpt><trkpt lat="43.76625353835793" lon="12.029812811908458"><ele>750.3333333333334</ele><time>2026-05-02T15:12:53Z</time></trkpt><trkpt lat="43.76632889011099" lon="12.029685536060008"><ele>749.0</ele><time>2026-05-02T15:12:55Z</time></trkpt><trkpt lat="43.76637586933995" lon="12.02960288922559"><ele>747.6666666666667</ele><time>2026-05-02T15:12:56Z</time></trkpt><trkpt lat="43.76644322079338" lon="12.029539606952335"><ele>746.3333333333334</ele><time>2026-05-02T15:12:58Z</time></trkpt><trkpt lat="43.76648469359803" lon="12.029451141246893"><ele>745.0</ele><time>2026-05-02T15:13:00Z</time></trkpt><trkpt lat="43.766505061353854" lon="12.029359113454518"><ele>745.0</ele><time>2026-05-02T15:13:02Z</time></trkpt><trkpt lat="43.76655193370339" lon="12.029258223035205"><ele>745.0</ele><time>2026-05-02T15:13:05Z</time></trkpt><trkpt lat="43.76658431484239" lon="12.029183249677281"><ele>745.0</ele><time>2026-05-02T15:13:07Z</time></trkpt><trkpt lat="43.76657260471131" lon="12.029090846529035"><ele>745.0</ele><time>2026-05-02T15:13:09Z</time></trkpt><trkpt lat="43.766539785644795" lon="12.029014131433028"><ele>745.0</ele><time>2026-05-02T15:13:11Z</time></trkpt><trkpt lat="43.7664685104922" lon="12.028922665576742"><ele>745.0</ele><time>2026-05-02T15:13:13Z</time></trkpt><trkpt lat="43.766417440510025" lon="12.028869772487528"><ele>745.0</ele><time>2026-05-02T15:13:14Z</time></trkpt><trkpt lat="43.76636274160038" lon="12.02880744436091"><ele>742.3333333333334</ele><time>2026-05-02T15:13:15Z</time></trkpt><trkpt lat="43.76628052644967" lon="12.028683204211868"><ele>739.6666666666667</ele><time>2026-05-02T15:13:17Z</time></trkpt><trkpt lat="43.76624061426049" lon="12.028602657311541"><ele>737.0</ele><time>2026-05-02T15:13:18Z</time></trkpt><trkpt lat="43.766213121240874" lon="12.028506444544142"><ele>734.3333333333334</ele><time>2026-05-02T15:13:19Z</time></trkpt><trkpt lat="43.76618472537299" lon="12.028409018526816"><ele>731.6666666666666</ele><time>2026-05-02T15:13:20Z</time></trkpt><trkpt lat="43.766153083851044" lon="12.028307664031034"><ele>729.0</ele><time>2026-05-02T15:13:21Z</time></trkpt><trkpt lat="43.76611216066493" lon="12.028159707016844"><ele>729.0</ele><time>2026-05-02T15:13:23Z</time></trkpt><trkpt lat="43.76604920974835" lon="12.028037032854849"><ele>729.0</ele><time>2026-05-02T15:13:25Z</time></trkpt><trkpt lat="43.765994979265685" lon="12.027969089914802"><ele>729.0</ele><time>2026-05-02T15:13:26Z</time></trkpt><trkpt lat="43.76594174994331" lon="12.027903785701557"><ele>729.0</ele><time>2026-05-02T15:13:27Z</time></trkpt><trkpt lat="43.765899568182455" lon="12.027827000041468"><ele>729.0</ele><time>2026-05-02T15:13:28Z</time></trkpt><trkpt lat="43.76586392779073" lon="12.027693979540578"><ele>729.0</ele><time>2026-05-02T15:13:30Z</time></trkpt><trkpt lat="43.76578115280939" lon="12.027537830004874"><ele>732.8000000000001</ele><time>2026-05-02T15:13:32Z</time></trkpt><trkpt lat="43.765726642279525" lon="12.027450406798492"><ele>736.6</ele><time>2026-05-02T15:13:33Z</time></trkpt><trkpt lat="43.765672545924446" lon="12.027366958216227"><ele>740.4</ele><time>2026-05-02T15:13:34Z</time></trkpt><trkpt lat="43.76559599255068" lon="12.027254897676226"><ele>744.2</ele><time>2026-05-02T15:13:36Z</time></trkpt><trkpt lat="43.76559003090491" lon="12.027096109762653"><ele>748.0</ele><time>2026-05-02T15:13:38Z</time></trkpt><trkpt lat="43.765597831112785" lon="12.02695681563607"><ele>748.0</ele><time>2026-05-02T15:13:40Z</time></trkpt><trkpt lat="43.76559632281812" lon="12.026846535627135"><ele>748.0</ele><time>2026-05-02T15:13:44Z</time></trkpt><trkpt lat="43.76565240300225" lon="12.02676972801409"><ele>748.0</ele><time>2026-05-02T15:13:47Z</time></trkpt><trkpt lat="43.76574438585865" lon="12.026769252195683"><ele>748.0</ele><time>2026-05-02T15:13:49Z</time></trkpt><trkpt lat="43.76584784440201" lon="12.02680090433856"><ele>748.0</ele><time>2026-05-02T15:13:51Z</time></trkpt><trkpt lat="43.76591457390965" lon="12.02680952774774"><ele>748.0</ele><time>2026-05-02T15:13:52Z</time></trkpt><trkpt lat="43.76603591642355" lon="12.026872487841674"><ele>747.2857142857142</ele><time>2026-05-02T15:13:54Z</time></trkpt><trkpt lat="43.76609302865358" lon="12.026920550795168"><ele>746.5714285714287</ele><time>2026-05-02T15:13:55Z</time></trkpt><trkpt lat="43.76618180546402" lon="12.026960549147413"><ele>745.8571428571429</ele><time>2026-05-02T15:13:57Z</time></trkpt><trkpt lat="43.766260004973304" lon="12.026949742127345"><ele>745.1428571428571</ele><time>2026-05-02T15:13:58Z</time></trkpt><trkpt lat="43.76632959992183" lon="12.026945245865434"><ele>744.4285714285713</ele><time>2026-05-02T15:13:59Z</time></trkpt><trkpt lat="43.766396903419384" lon="12.026937028176727"><ele>743.7142857142858</ele><time>2026-05-02T15:14:00Z</time></trkpt><trkpt lat="43.76646009900616" lon="12.026926622144321"><ele>743.0</ele><time>2026-05-02T15:14:02Z</time></trkpt><trkpt lat="43.766561054710564" lon="12.026850333829369"><ele>743.0</ele><time>2026-05-02T15:14:04Z</time></trkpt><trkpt lat="43.766595968039105" lon="12.026745483754246"><ele>743.0</ele><time>2026-05-02T15:14:06Z</time></trkpt><trkpt lat="43.76659835661599" lon="12.026647574869857"><ele>743.0</ele><time>2026-05-02T15:14:10Z</time></trkpt><trkpt lat="43.76659459815472" lon="12.026556625988418"><ele>743.0</ele><time>2026-05-02T15:14:12Z</time></trkpt><trkpt lat="43.76659684527456" lon="12.026433470231957"><ele>743.0</ele><time>2026-05-02T15:14:15Z</time></trkpt><trkpt lat="43.76664288414459" lon="12.026320071141534"><ele>743.0</ele><time>2026-05-02T15:14:17Z</time></trkpt><trkpt lat="43.76669581155924" lon="12.026193903389709"><ele>742.8571428571429</ele><time>2026-05-02T15:14:19Z</time></trkpt><trkpt lat="43.76672774708013" lon="12.026115786249898"><ele>742.7142857142857</ele><time>2026-05-02T15:14:20Z</time></trkpt><trkpt lat="43.766761728872076" lon="12.026039672509574"><ele>742.5714285714286</ele><time>2026-05-02T15:14:21Z</time></trkpt><trkpt lat="43.766796270786195" lon="12.025955655120308"><ele>742.4285714285714</ele><time>2026-05-02T15:14:23Z</time></trkpt><trkpt lat="43.76685274056342" lon="12.02586725745855"><ele>742.2857142857142</ele><time>2026-05-02T15:14:25Z</time></trkpt><trkpt lat="43.76690591992367" lon="12.025806232679608"><ele>742.1428571428571</ele><time>2026-05-02T15:14:27Z</time></trkpt><trkpt lat="43.76697611807564" lon="12.025758999402344"><ele>742.0</ele><time>2026-05-02T15:14:29Z</time></trkpt><trkpt lat="43.76692920761093" lon="12.025678911176472"><ele>742.0</ele><time>2026-05-02T15:15:19Z</time></trkpt><trkpt lat="43.766879148172755" lon="12.02560177479079"><ele>742.0</ele><time>2026-05-02T15:15:54Z</time></trkpt><trkpt lat="43.76683031116971" lon="12.02553145107647"><ele>742.0</ele><time>2026-05-02T15:16:10Z</time></trkpt><trkpt lat="43.766797197512474" lon="12.025444171772634"><ele>742.0</ele><time>2026-05-02T15:16:15Z</time></trkpt><trkpt lat="43.76675203965689" lon="12.025366802245433"><ele>742.0</ele><time>2026-05-02T15:16:24Z</time></trkpt><trkpt lat="43.766692588058945" lon="12.025294936874662"><ele>742.0</ele><time>2026-05-02T15:16:27Z</time></trkpt><trkpt lat="43.76663624231718" lon="12.025254943018647"><ele>742.0</ele><time>2026-05-02T15:16:29Z</time></trkpt><trkpt lat="43.76656390996926" lon="12.025250960960186"><ele>743.1666666666667</ele><time>2026-05-02T15:16:32Z</time></trkpt><trkpt lat="43.766507894435335" lon="12.025211046102394"><ele>744.3333333333334</ele><time>2026-05-02T15:16:34Z</time></trkpt><trkpt lat="43.76645249352592" lon="12.025120426554707"><ele>745.5</ele><time>2026-05-02T15:16:36Z</time></trkpt><trkpt lat="43.76639503601746" lon="12.025052319162878"><ele>746.6666666666666</ele><time>2026-05-02T15:16:38Z</time></trkpt><trkpt lat="43.7663386560533" lon="12.024969805509917"><ele>747.8333333333333</ele><time>2026-05-02T15:16:42Z</time></trkpt><trkpt lat="43.766297704150695" lon="12.024879840524072"><ele>749.0</ele><time>2026-05-02T15:16:44Z</time></trkpt><trkpt lat="43.766241390716075" lon="12.024796114113538"><ele>750.6666666666666</ele><time>2026-05-02T15:16:47Z</time></trkpt><trkpt lat="43.76616237964608" lon="12.024720170931698"><ele>752.3333333333333</ele><time>2026-05-02T15:16:50Z</time></trkpt><trkpt lat="43.766084254672535" lon="12.024770579681567"><ele>754.0</ele><time>2026-05-02T15:16:53Z</time></trkpt><trkpt lat="43.76602314630907" lon="12.024812103980874"><ele>755.6666666666666</ele><time>2026-05-02T15:16:56Z</time></trkpt><trkpt lat="43.76594858466498" lon="12.02486015215739"><ele>757.3333333333334</ele><time>2026-05-02T15:17:03Z</time></trkpt><trkpt lat="43.76584836705376" lon="12.02487574516973"><ele>759.0</ele><time>2026-05-02T15:17:05Z</time></trkpt><trkpt lat="43.76576814919761" lon="12.024873945414853"><ele>760.2</ele><time>2026-05-02T15:17:29Z</time></trkpt><trkpt lat="43.76571478788074" lon="12.024808784873136"><ele>761.4000000000001</ele><time>2026-05-02T15:17:31Z</time></trkpt><trkpt lat="43.76563645985916" lon="12.024731888913639"><ele>762.6</ele><time>2026-05-02T15:17:33Z</time></trkpt><trkpt lat="43.76554919782292" lon="12.024657881496804"><ele>763.8</ele><time>2026-05-02T15:17:35Z</time></trkpt><trkpt lat="43.76548369756334" lon="12.024567868469653"><ele>765.0</ele><time>2026-05-02T15:17:37Z</time></trkpt><trkpt lat="43.76541625463487" lon="12.024468045128973"><ele>765.0</ele><time>2026-05-02T15:17:39Z</time></trkpt><trkpt lat="43.765345604745704" lon="12.024373483827429"><ele>765.0</ele><time>2026-05-02T15:17:41Z</time></trkpt><trkpt lat="43.76528823489556" lon="12.024278868112988"><ele>765.0</ele><time>2026-05-02T15:17:43Z</time></trkpt><trkpt lat="43.76526794920994" lon="12.024194378440514"><ele>765.0</ele><time>2026-05-02T15:17:45Z</time></trkpt><trkpt lat="43.765284307990306" lon="12.024049285681462"><ele>765.0</ele><time>2026-05-02T15:17:47Z</time></trkpt><trkpt lat="43.76534650626082" lon="12.023893285781979"><ele>766.8333333333334</ele><time>2026-05-02T15:17:49Z</time></trkpt><trkpt lat="43.765445869148564" lon="12.023820151456315"><ele>768.6666666666667</ele><time>2026-05-02T15:17:51Z</time></trkpt><trkpt lat="43.7654872659265" lon="12.023743293949732"><ele>770.5</ele><time>2026-05-02T15:17:52Z</time></trkpt><trkpt lat="43.76552444354406" lon="12.023652483026906"><ele>772.3333333333334</ele><time>2026-05-02T15:17:53Z</time></trkpt><trkpt lat="43.76553807046939" lon="12.023490271469607"><ele>774.1666666666667</ele><time>2026-05-02T15:17:55Z</time></trkpt><trkpt lat="43.76553172216011" lon="12.02340241061926"><ele>776.0</ele><time>2026-05-02T15:17:56Z</time></trkpt><trkpt lat="43.76554761624188" lon="12.023300303410293"><ele>778.3333333333334</ele><time>2026-05-02T15:17:57Z</time></trkpt><trkpt lat="43.76556902318432" lon="12.023210169029129"><ele>780.6666666666667</ele><time>2026-05-02T15:17:58Z</time></trkpt><trkpt lat="43.76559064061945" lon="12.02305819865812"><ele>783.0</ele><time>2026-05-02T15:18:00Z</time></trkpt><trkpt lat="43.765611678053425" lon="12.022966143835689"><ele>785.3333333333333</ele><time>2026-05-02T15:18:01Z</time></trkpt><trkpt lat="43.76564523848674" lon="12.0228878221652"><ele>787.6666666666666</ele><time>2026-05-02T15:18:02Z</time></trkpt><trkpt lat="43.76570059539732" lon="12.022813830824415"><ele>790.0</ele><time>2026-05-02T15:18:03Z</time></trkpt><trkpt lat="43.76575018469548" lon="12.022745056490606"><ele>789.9999999999999</ele><time>2026-05-02T15:18:04Z</time></trkpt><trkpt lat="43.76582571177197" lon="12.02261312787921"><ele>790.0</ele><time>2026-05-02T15:18:06Z</time></trkpt><trkpt lat="43.765896319982375" lon="12.022525942716934"><ele>790.0</ele><time>2026-05-02T15:18:08Z</time></trkpt><trkpt lat="43.76595910093984" lon="12.022485437725152"><ele>790.0</ele><time>2026-05-02T15:18:11Z</time></trkpt><trkpt lat="43.766025847531644" lon="12.022485286053913"><ele>789.9999999999999</ele><time>2026-05-02T15:18:15Z</time></trkpt><trkpt lat="43.76609388300925" lon="12.022534304056759"><ele>790.0</ele><time>2026-05-02T15:18:17Z</time></trkpt><trkpt lat="43.76618068152711" lon="12.022558343160547"><ele>788.8</ele><time>2026-05-02T15:18:18Z</time></trkpt><trkpt lat="43.766250527065054" lon="12.022536746222976"><ele>787.6</ele><time>2026-05-02T15:18:20Z</time></trkpt><trkpt lat="43.7663289543509" lon="12.022466221104924"><ele>786.4000000000001</ele><time>2026-05-02T15:18:22Z</time></trkpt><trkpt lat="43.76641664186271" lon="12.022390244472529"><ele>785.2</ele><time>2026-05-02T15:18:24Z</time></trkpt><trkpt lat="43.7664803400407" lon="12.022356047549186"><ele>784.0</ele><time>2026-05-02T15:18:25Z</time></trkpt><trkpt lat="43.76661220516591" lon="12.022325405080718"><ele>789.2</ele><time>2026-05-02T15:18:27Z</time></trkpt><trkpt lat="43.76671125830431" lon="12.022270130316718"><ele>794.4000000000001</ele><time>2026-05-02T15:18:29Z</time></trkpt><trkpt lat="43.76678026471946" lon="12.022206575491605"><ele>799.6</ele><time>2026-05-02T15:18:31Z</time></trkpt><trkpt lat="43.766809786752226" lon="12.02207401376075"><ele>804.8</ele><time>2026-05-02T15:18:33Z</time></trkpt><trkpt lat="43.76682160519398" lon="12.021936405107851"><ele>810.0</ele><time>2026-05-02T15:18:35Z</time></trkpt><trkpt lat="43.76683205931251" lon="12.021790407994295"><ele>810.0</ele><time>2026-05-02T15:18:37Z</time></trkpt><trkpt lat="43.76684610195331" lon="12.02169644753504"><ele>810.0</ele><time>2026-05-02T15:18:38Z</time></trkpt><trkpt lat="43.76687924001563" lon="12.021560534229385"><ele>810.0</ele><time>2026-05-02T15:18:40Z</time></trkpt><trkpt lat="43.766900318798314" lon="12.021475420334637"><ele>810.0</ele><time>2026-05-02T15:18:41Z</time></trkpt><trkpt lat="43.76692593318337" lon="12.021340181250372"><ele>810.0</ele><time>2026-05-02T15:18:43Z</time></trkpt><trkpt lat="43.766937700380105" lon="12.021253928129273"><ele>810.0</ele><time>2026-05-02T15:18:44Z</time></trkpt><trkpt lat="43.76697698839077" lon="12.021072889034164"><ele>807.4</ele><time>2026-05-02T15:18:46Z</time></trkpt><trkpt lat="43.76699507780307" lon="12.020982453085727"><ele>804.8</ele><time>2026-05-02T15:18:47Z</time></trkpt><trkpt lat="43.76704313217568" lon="12.020782852189393"><ele>802.2</ele><time>2026-05-02T15:18:49Z</time></trkpt><trkpt lat="43.76706964266512" lon="12.020680147314708"><ele>799.6</ele><time>2026-05-02T15:18:50Z</time></trkpt><trkpt lat="43.767090341542215" lon="12.02059636764195"><ele>797.0</ele><time>2026-05-02T15:18:51Z</time></trkpt><trkpt lat="43.76716089289858" lon="12.020462497487834"><ele>803.0</ele><time>2026-05-02T15:18:52Z</time></trkpt><trkpt lat="43.76729892884462" lon="12.020451719695235"><ele>809.0</ele><time>2026-05-02T15:18:53Z</time></trkpt><trkpt lat="43.76736289668987" lon="12.020452090390405"><ele>815.0</ele><time>2026-05-02T15:18:54Z</time></trkpt><trkpt lat="43.767435085497674" lon="12.020429371095533"><ele>821.0</ele><time>2026-05-02T15:18:55Z</time></trkpt><trkpt lat="43.767547171419714" lon="12.020362300321148"><ele>827.0</ele><time>2026-05-02T15:18:57Z</time></trkpt><trkpt lat="43.7676150200059" lon="12.020312513530392"><ele>827.0000000000001</ele><time>2026-05-02T15:18:58Z</time></trkpt><trkpt lat="43.76767623889399" lon="12.020269110995127"><ele>827.0</ele><time>2026-05-02T15:18:59Z</time></trkpt><trkpt lat="43.76775647160036" lon="12.020212184534826"><ele>827.0</ele><time>2026-05-02T15:19:00Z</time></trkpt><trkpt lat="43.76783604975536" lon="12.020163051560308"><ele>827.0</ele><time>2026-05-02T15:19:01Z</time></trkpt><trkpt lat="43.76790471278301" lon="12.020121749012725"><ele>827.0000000000001</ele><time>2026-05-02T15:19:02Z</time></trkpt><trkpt lat="43.76797146119492" lon="12.02008159885953"><ele>827.0</ele><time>2026-05-02T15:19:03Z</time></trkpt><trkpt lat="43.76803991693607" lon="12.020070100325755"><ele>825.0</ele><time>2026-05-02T15:19:04Z</time></trkpt><trkpt lat="43.768113823827704" lon="12.020064426803494"><ele>823.0</ele><time>2026-05-02T15:19:05Z</time></trkpt><trkpt lat="43.7682057657449" lon="12.020085522402107"><ele>821.0</ele><time>2026-05-02T15:19:06Z</time></trkpt><trkpt lat="43.76830004424873" lon="12.020121279607428"><ele>819.0</ele><time>2026-05-02T15:19:07Z</time></trkpt><trkpt lat="43.76840917930231" lon="12.020187237546752"><ele>817.0</ele><time>2026-05-02T15:19:09Z</time></trkpt><trkpt lat="43.768468398879016" lon="12.020231808301682"><ele>815.4999999999999</ele><time>2026-05-02T15:19:10Z</time></trkpt><trkpt lat="43.76853772542994" lon="12.020284986265683"><ele>814.0</ele><time>2026-05-02T15:19:11Z</time></trkpt><trkpt lat="43.768616855628515" lon="12.020328097228411"><ele>812.5</ele><time>2026-05-02T15:19:12Z</time></trkpt><trkpt lat="43.768725112218505" lon="12.020399478759593"><ele>811.0</ele><time>2026-05-02T15:19:14Z</time></trkpt><trkpt lat="43.76879220136496" lon="12.020432626822856"><ele>809.4999999999999</ele><time>2026-05-02T15:19:15Z</time></trkpt><trkpt lat="43.76886363910268" lon="12.020463953836515"><ele>808.0</ele><time>2026-05-02T15:19:16Z</time></trkpt><trkpt lat="43.768952513028545" lon="12.020516229187109"><ele>807.9999999999999</ele><time>2026-05-02T15:19:17Z</time></trkpt><trkpt lat="43.76902722705024" lon="12.020541762095716"><ele>808.0</ele><time>2026-05-02T15:19:18Z</time></trkpt><trkpt lat="43.769089552370836" lon="12.020579568104933"><ele>808.0</ele><time>2026-05-02T15:19:19Z</time></trkpt><trkpt lat="43.769153342153494" lon="12.020625383626179"><ele>808.0</ele><time>2026-05-02T15:19:20Z</time></trkpt><trkpt lat="43.76928063677844" lon="12.02063142899837"><ele>807.9999999999999</ele><time>2026-05-02T15:19:22Z</time></trkpt><trkpt lat="43.76935232687987" lon="12.020623480674391"><ele>808.0</ele><time>2026-05-02T15:19:23Z</time></trkpt><trkpt lat="43.76944771895782" lon="12.020600268280607"><ele>804.8</ele><time>2026-05-02T15:19:25Z</time></trkpt><trkpt lat="43.76954674531648" lon="12.020546356365596"><ele>801.5999999999999</ele><time>2026-05-02T15:19:27Z</time></trkpt><trkpt lat="43.76965975537204" lon="12.0205405055512"><ele>798.4000000000001</ele><time>2026-05-02T15:19:29Z</time></trkpt><trkpt lat="43.76977188890907" lon="12.020500752346608"><ele>795.2</ele><time>2026-05-02T15:19:31Z</time></trkpt><trkpt lat="43.76985900126388" lon="12.020462795222524"><ele>792.0</ele><time>2026-05-02T15:19:33Z</time></trkpt><trkpt lat="43.76995721537013" lon="12.020365558159801"><ele>792.0</ele><time>2026-05-02T15:19:35Z</time></trkpt><trkpt lat="43.76998606687406" lon="12.020276650480849"><ele>792.0</ele><time>2026-05-02T15:19:36Z</time></trkpt><trkpt lat="43.7700373982908" lon="12.0202150695878"><ele>792.0</ele><time>2026-05-02T15:19:37Z</time></trkpt><trkpt lat="43.77012846674478" lon="12.020171591204893"><ele>792.0</ele><time>2026-05-02T15:19:38Z</time></trkpt><trkpt lat="43.770217990260356" lon="12.020178004939838"><ele>792.0</ele><time>2026-05-02T15:19:39Z</time></trkpt><trkpt lat="43.77031779918061" lon="12.020177076354123"><ele>792.0</ele><time>2026-05-02T15:19:40Z</time></trkpt><trkpt lat="43.77039997564164" lon="12.020177939652585"><ele>792.1666666666666</ele><time>2026-05-02T15:19:41Z</time></trkpt><trkpt lat="43.77051438544819" lon="12.020104384135076"><ele>792.3333333333333</ele><time>2026-05-02T15:19:43Z</time></trkpt><trkpt lat="43.77058659194642" lon="12.020043746714233"><ele>792.5</ele><time>2026-05-02T15:19:44Z</time></trkpt><trkpt lat="43.77066170953561" lon="12.019985603717332"><ele>792.6666666666666</ele><time>2026-05-02T15:19:45Z</time></trkpt><trkpt lat="43.770727543343796" lon="12.019942373576152"><ele>792.8333333333333</ele><time>2026-05-02T15:19:46Z</time></trkpt><trkpt lat="43.77074963424026" lon="12.019857367827404"><ele>793.0</ele><time>2026-05-02T15:19:47Z</time></trkpt><trkpt lat="43.77078960643164" lon="12.019777001864597"><ele>793.4999999999999</ele><time>2026-05-02T15:19:48Z</time></trkpt><trkpt lat="43.77082000842298" lon="12.019667696273707"><ele>794.0</ele><time>2026-05-02T15:19:49Z</time></trkpt><trkpt lat="43.770852191050295" lon="12.019565885937881"><ele>794.5</ele><time>2026-05-02T15:19:50Z</time></trkpt><trkpt lat="43.770886957209505" lon="12.019468979545987"><ele>795.0</ele><time>2026-05-02T15:19:51Z</time></trkpt><trkpt lat="43.770934255114256" lon="12.019403078535666"><ele>795.4999999999999</ele><time>2026-05-02T15:19:52Z</time></trkpt><trkpt lat="43.77100208063492" lon="12.019391989909133"><ele>796.0</ele><time>2026-05-02T15:19:53Z</time></trkpt><trkpt lat="43.77111367603323" lon="12.019423352885255"><ele>796.0</ele><time>2026-05-02T15:19:54Z</time></trkpt><trkpt lat="43.771219982051065" lon="12.01942261787089"><ele>796.0</ele><time>2026-05-02T15:19:55Z</time></trkpt><trkpt lat="43.77129709520604" lon="12.019448295235458"><ele>796.0</ele><time>2026-05-02T15:19:56Z</time></trkpt><trkpt lat="43.771364133374156" lon="12.019455230101574"><ele>796.0</ele><time>2026-05-02T15:19:57Z</time></trkpt><trkpt lat="43.771449694776265" lon="12.019460674829123"><ele>796.0</ele><time>2026-05-02T15:19:59Z</time></trkpt><trkpt lat="43.77151662003431" lon="12.019299112983806"><ele>796.0</ele><time>2026-05-02T15:20:00Z</time></trkpt><trkpt lat="43.77163763749033" lon="12.019299255748976"><ele>796.0</ele><time>2026-05-02T15:20:02Z</time></trkpt><trkpt lat="43.771699576274216" lon="12.019365975373175"><ele>796.0</ele><time>2026-05-02T15:20:04Z</time></trkpt><trkpt lat="43.77176611413587" lon="12.019409213002385"><ele>796.0</ele><time>2026-05-02T15:25:30Z</time></trkpt><trkpt lat="43.771804293967485" lon="12.019298567988299"><ele>796.0</ele><time>2026-05-02T15:25:36Z</time></trkpt><trkpt lat="43.771759043410434" lon="12.019133637232878"><ele>798.4</ele><time>2026-05-02T15:25:38Z</time></trkpt><trkpt lat="43.771702550464255" lon="12.01897640563659"><ele>800.8</ele><time>2026-05-02T15:25:40Z</time></trkpt><trkpt lat="43.77169756798838" lon="12.018844185505893"><ele>803.1999999999999</ele><time>2026-05-02T15:25:42Z</time></trkpt><trkpt lat="43.77165073856884" lon="12.018682023817835"><ele>805.5999999999999</ele><time>2026-05-02T15:25:44Z</time></trkpt><trkpt lat="43.771648658207404" lon="12.018579904070904"><ele>808.0</ele><time>2026-05-02T15:25:45Z</time></trkpt><trkpt lat="43.771652821104055" lon="12.018400690247175"><ele>808.8333333333333</ele><time>2026-05-02T15:25:47Z</time></trkpt><trkpt lat="43.77166240860678" lon="12.018279844032982"><ele>809.6666666666666</ele><time>2026-05-02T15:25:48Z</time></trkpt><trkpt lat="43.77168399913769" lon="12.018133870344082"><ele>810.5</ele><time>2026-05-02T15:25:49Z</time></trkpt><trkpt lat="43.771682154150646" lon="12.018017535261379"><ele>811.3333333333333</ele><time>2026-05-02T15:25:50Z</time></trkpt><trkpt lat="43.771718646970484" lon="12.01791513100298"><ele>812.1666666666666</ele><time>2026-05-02T15:25:51Z</time></trkpt><trkpt lat="43.771746838877505" lon="12.01781570723068"><ele>813.0</ele><time>2026-05-02T15:25:52Z</time></trkpt><trkpt lat="43.77175821823905" lon="12.017720682697245"><ele>813.0</ele><time>2026-05-02T15:25:53Z</time></trkpt><trkpt lat="43.771751383532745" lon="12.017610333292009"><ele>813.0</ele><time>2026-05-02T15:25:54Z</time></trkpt><trkpt lat="43.771755433272546" lon="12.01746034875975"><ele>813.0</ele><time>2026-05-02T15:25:55Z</time></trkpt><trkpt lat="43.771753115438024" lon="12.017328939244907"><ele>813.0</ele><time>2026-05-02T15:25:56Z</time></trkpt><trkpt lat="43.77177507574807" lon="12.017225715145315"><ele>813.0</ele><time>2026-05-02T15:25:57Z</time></trkpt><trkpt lat="43.77179274145998" lon="12.017141903173066"><ele>813.0</ele><time>2026-05-02T15:25:58Z</time></trkpt><trkpt lat="43.77182720043387" lon="12.017027575910847"><ele>813.3333333333334</ele><time>2026-05-02T15:25:59Z</time></trkpt><trkpt lat="43.7718669598081" lon="12.016915113714683"><ele>813.6666666666667</ele><time>2026-05-02T15:26:00Z</time></trkpt><trkpt lat="43.771890294747195" lon="12.016811824896552"><ele>814.0</ele><time>2026-05-02T15:26:01Z</time></trkpt><trkpt lat="43.77188495225583" lon="12.01665909889219"><ele>814.3333333333334</ele><time>2026-05-02T15:26:03Z</time></trkpt><trkpt lat="43.771859891248134" lon="12.016576095695534"><ele>814.6666666666667</ele><time>2026-05-02T15:26:04Z</time></trkpt><trkpt lat="43.77182705692069" lon="12.016482350472739"><ele>815.0</ele><time>2026-05-02T15:26:05Z</time></trkpt><trkpt lat="43.771799609187845" lon="12.016401857028205"><ele>818.0</ele><time>2026-05-02T15:26:06Z</time></trkpt><trkpt lat="43.77179271698359" lon="12.01628725398573"><ele>821.0</ele><time>2026-05-02T15:26:07Z</time></trkpt><trkpt lat="43.771735417838094" lon="12.016137815544601"><ele>824.0</ele><time>2026-05-02T15:26:09Z</time></trkpt><trkpt lat="43.771711918121426" lon="12.01604180741025"><ele>827.0</ele><time>2026-05-02T15:26:10Z</time></trkpt><trkpt lat="43.771687531169505" lon="12.015961353224856"><ele>830.0</ele><time>2026-05-02T15:26:11Z</time></trkpt><trkpt lat="43.771600682952474" lon="12.015847479560406"><ele>831.8</ele><time>2026-05-02T15:26:13Z</time></trkpt><trkpt lat="43.7714840470978" lon="12.015819876910147"><ele>833.6</ele><time>2026-05-02T15:26:15Z</time></trkpt><trkpt lat="43.771417129023035" lon="12.015805994531988"><ele>835.4000000000001</ele><time>2026-05-02T15:26:16Z</time></trkpt><trkpt lat="43.77136914891377" lon="12.015729857952428"><ele>837.2</ele><time>2026-05-02T15:26:18Z</time></trkpt><trkpt lat="43.77142557528476" lon="12.015597434845839"><ele>839.0</ele><time>2026-05-02T15:26:20Z</time></trkpt><trkpt lat="43.771501587676575" lon="12.015519806169964"><ele>839.0000000000001</ele><time>2026-05-02T15:26:21Z</time></trkpt><trkpt lat="43.77157347753719" lon="12.01544406807226"><ele>839.0</ele><time>2026-05-02T15:26:22Z</time></trkpt><trkpt lat="43.77165186654675" lon="12.01543114826081"><ele>839.0</ele><time>2026-05-02T15:26:23Z</time></trkpt><trkpt lat="43.771731532437094" lon="12.01545754651457"><ele>839.0</ele><time>2026-05-02T15:26:24Z</time></trkpt><trkpt lat="43.77181088352317" lon="12.01554794196414"><ele>839.0000000000001</ele><time>2026-05-02T15:26:25Z</time></trkpt><trkpt lat="43.77185802954209" lon="12.015639695421202"><ele>839.0</ele><time>2026-05-02T15:26:26Z</time></trkpt><trkpt lat="43.77190710366402" lon="12.015773249707124"><ele>839.0000000000001</ele><time>2026-05-02T15:26:28Z</time></trkpt><trkpt lat="43.771963470989874" lon="12.015879979950958"><ele>839.0</ele><time>2026-05-02T15:26:30Z</time></trkpt><trkpt lat="43.77206151532122" lon="12.015957878151793"><ele>839.0</ele><time>2026-05-02T15:26:32Z</time></trkpt><trkpt lat="43.77214373607419" lon="12.01588156285516"><ele>839.0</ele><time>2026-05-02T15:26:34Z</time></trkpt><trkpt lat="43.772174607865495" lon="12.015798904372012"><ele>839.0000000000001</ele><time>2026-05-02T15:26:35Z</time></trkpt><trkpt lat="43.77219304328371" lon="12.015704973549722"><ele>839.0</ele><time>2026-05-02T15:26:36Z</time></trkpt><trkpt lat="43.772178657731196" lon="12.015544605894208"><ele>839.0</ele><time>2026-05-02T15:26:38Z</time></trkpt><trkpt lat="43.77218294869884" lon="12.015383715739308"><ele>839.0</ele><time>2026-05-02T15:26:40Z</time></trkpt><trkpt lat="43.77222471350656" lon="12.015216920823713"><ele>839.0</ele><time>2026-05-02T15:26:42Z</time></trkpt><trkpt lat="43.77225520039289" lon="12.01512724081065"><ele>839.0</ele><time>2026-05-02T15:26:43Z</time></trkpt><trkpt lat="43.772285235318805" lon="12.015034685088564"><ele>839.0</ele><time>2026-05-02T15:26:44Z</time></trkpt><trkpt lat="43.7723211027598" lon="12.014932361514512"><ele>840.8333333333334</ele><time>2026-05-02T15:26:45Z</time></trkpt><trkpt lat="43.772349782066215" lon="12.014838514687652"><ele>842.6666666666667</ele><time>2026-05-02T15:26:46Z</time></trkpt><trkpt lat="43.77237458530338" lon="12.01474716128221"><ele>844.5</ele><time>2026-05-02T15:26:47Z</time></trkpt><trkpt lat="43.77239837763152" lon="12.014655057993378"><ele>846.3333333333333</ele><time>2026-05-02T15:26:48Z</time></trkpt><trkpt lat="43.77240206505508" lon="12.014551539847895"><ele>848.1666666666666</ele><time>2026-05-02T15:26:49Z</time></trkpt><trkpt lat="43.7723908755031" lon="12.014423553786605"><ele>850.0</ele><time>2026-05-02T15:26:50Z</time></trkpt><trkpt lat="43.77238210031665" lon="12.014298836603352"><ele>852.2</ele><time>2026-05-02T15:26:51Z</time></trkpt><trkpt lat="43.772387406598455" lon="12.014152998217755"><ele>854.4</ele><time>2026-05-02T15:26:52Z</time></trkpt><trkpt lat="43.77240819022939" lon="12.013992511575735"><ele>856.5999999999999</ele><time>2026-05-02T15:26:53Z</time></trkpt><trkpt lat="43.77243704149602" lon="12.013862713316342"><ele>858.8</ele><time>2026-05-02T15:26:54Z</time></trkpt><trkpt lat="43.77247472055254" lon="12.013752487817207"><ele>861.0</ele><time>2026-05-02T15:26:55Z</time></trkpt><trkpt lat="43.7725213750823" lon="12.01365122228581"><ele>861.0</ele><time>2026-05-02T15:26:56Z</time></trkpt><trkpt lat="43.7725625526962" lon="12.013544182439203"><ele>861.0</ele><time>2026-05-02T15:26:57Z</time></trkpt><trkpt lat="43.772594549623214" lon="12.013442181808019"><ele>861.0</ele><time>2026-05-02T15:26:58Z</time></trkpt><trkpt lat="43.77263776161743" lon="12.013367517404605"><ele>861.0</ele><time>2026-05-02T15:26:59Z</time></trkpt><trkpt lat="43.772666206447376" lon="12.013280714661011"><ele>861.0</ele><time>2026-05-02T15:27:00Z</time></trkpt><trkpt lat="43.77272202997735" lon="12.01315361777249"><ele>861.0</ele><time>2026-05-02T15:27:27Z</time></trkpt><trkpt lat="43.77276089216642" lon="12.013042241113428"><ele>859.5999999999999</ele><time>2026-05-02T15:27:29Z</time></trkpt><trkpt lat="43.772757869120134" lon="12.012903925833445"><ele>858.1999999999999</ele><time>2026-05-02T15:27:31Z</time></trkpt><trkpt lat="43.77275057994659" lon="12.012731159376264"><ele>856.8000000000001</ele><time>2026-05-02T15:27:33Z</time></trkpt><trkpt lat="43.772747171348485" lon="12.012629103656893"><ele>855.4000000000001</ele><time>2026-05-02T15:27:34Z</time></trkpt><trkpt lat="43.77275917372823" lon="12.01251420663922"><ele>854.0</ele><time>2026-05-02T15:27:35Z</time></trkpt><trkpt lat="43.77277781820704" lon="12.012410699369667"><ele>852.8333333333334</ele><time>2026-05-02T15:27:36Z</time></trkpt><trkpt lat="43.77281487627678" lon="12.012305393842682"><ele>851.6666666666667</ele><time>2026-05-02T15:27:37Z</time></trkpt><trkpt lat="43.772863276251556" lon="12.01221420264043"><ele>850.5</ele><time>2026-05-02T15:27:38Z</time></trkpt><trkpt lat="43.77292792462215" lon="12.012128187398531"><ele>849.3333333333333</ele><time>2026-05-02T15:27:39Z</time></trkpt><trkpt lat="43.77298215541828" lon="12.01206080028788"><ele>848.1666666666666</ele><time>2026-05-02T15:27:40Z</time></trkpt><trkpt lat="43.77305113046796" lon="12.011943754253942"><ele>847.0</ele><time>2026-05-02T15:27:42Z</time></trkpt><trkpt lat="43.773063931069764" lon="12.011851186164941"><ele>847.0</ele><time>2026-05-02T15:27:43Z</time></trkpt><trkpt lat="43.77306698705886" lon="12.01172550477164"><ele>847.0</ele><time>2026-05-02T15:27:44Z</time></trkpt><trkpt lat="43.773063470303434" lon="12.011611463820492"><ele>847.0</ele><time>2026-05-02T15:27:45Z</time></trkpt><trkpt lat="43.773082578597375" lon="12.011476549014812"><ele>847.0</ele><time>2026-05-02T15:27:47Z</time></trkpt><trkpt lat="43.77313101966605" lon="12.011365784991389"><ele>847.0</ele><time>2026-05-02T15:27:49Z</time></trkpt><trkpt lat="43.77317316154827" lon="12.011228552719167"><ele>847.3333333333333</ele><time>2026-05-02T15:27:51Z</time></trkpt><trkpt lat="43.773224957701714" lon="12.011075810625071"><ele>847.6666666666666</ele><time>2026-05-02T15:27:53Z</time></trkpt><trkpt lat="43.77326199359203" lon="12.010980115358842"><ele>848.0</ele><time>2026-05-02T15:27:54Z</time></trkpt><trkpt lat="43.773293437681744" lon="12.010859078324795"><ele>848.3333333333333</ele><time>2026-05-02T15:27:55Z</time></trkpt><trkpt lat="43.773319783177406" lon="12.010767837686663"><ele>848.6666666666666</ele><time>2026-05-02T15:27:56Z</time></trkpt><trkpt lat="43.77335041146181" lon="12.01068309938415"><ele>849.0</ele><time>2026-05-02T15:27:57Z</time></trkpt><trkpt lat="43.77339677200796" lon="12.010593361355536"><ele>847.3333333333334</ele><time>2026-05-02T15:27:58Z</time></trkpt><trkpt lat="43.773473666867346" lon="12.010500338673534"><ele>845.6666666666667</ele><time>2026-05-02T15:27:59Z</time></trkpt><trkpt lat="43.77352618914679" lon="12.010382971134968"><ele>844.0</ele><time>2026-05-02T15:28:00Z</time></trkpt><trkpt lat="43.77358330174826" lon="12.010290591381745"><ele>842.3333333333334</ele><time>2026-05-02T15:28:01Z</time></trkpt><trkpt lat="43.773639747458645" lon="12.010224888217532"><ele>840.6666666666667</ele><time>2026-05-02T15:28:02Z</time></trkpt><trkpt lat="43.773699622178505" lon="12.010155935527056"><ele>839.0</ele><time>2026-05-02T15:28:03Z</time></trkpt><trkpt lat="43.77377223642297" lon="12.010081080056313"><ele>839.0</ele><time>2026-05-02T15:28:04Z</time></trkpt><trkpt lat="43.773853931089675" lon="12.010038732655671"><ele>839.0</ele><time>2026-05-02T15:28:05Z</time></trkpt><trkpt lat="43.77392554097142" lon="12.009923531636975"><ele>839.0</ele><time>2026-05-02T15:28:07Z</time></trkpt><trkpt lat="43.77394437265001" lon="12.009834238206096"><ele>839.0</ele><time>2026-05-02T15:28:08Z</time></trkpt><trkpt lat="43.77395661657321" lon="12.009730941655633"><ele>839.0</ele><time>2026-05-02T15:28:09Z</time></trkpt><trkpt lat="43.773965151740235" lon="12.00957926837462"><ele>838.8000000000001</ele><time>2026-05-02T15:28:10Z</time></trkpt><trkpt lat="43.77398578681585" lon="12.009448628041657"><ele>838.6</ele><time>2026-05-02T15:28:11Z</time></trkpt><trkpt lat="43.774019263870414" lon="12.009308444767631"><ele>838.4</ele><time>2026-05-02T15:28:12Z</time></trkpt><trkpt lat="43.77406675382487" lon="12.009172025604716"><ele>838.2</ele><time>2026-05-02T15:28:13Z</time></trkpt><trkpt lat="43.77412863760915" lon="12.009054700819162"><ele>838.0</ele><time>2026-05-02T15:28:14Z</time></trkpt><trkpt lat="43.774160758217405" lon="12.008932985765252"><ele>838.4</ele><time>2026-05-02T15:28:15Z</time></trkpt><trkpt lat="43.774173997405285" lon="12.008801576631607"><ele>838.8</ele><time>2026-05-02T15:28:16Z</time></trkpt><trkpt lat="43.7741690900241" lon="12.00864727799661"><ele>839.2</ele><time>2026-05-02T15:28:17Z</time></trkpt><trkpt lat="43.7741723645352" lon="12.008481129478856"><ele>839.6</ele><time>2026-05-02T15:28:18Z</time></trkpt><trkpt lat="43.77415085078912" lon="12.008335568482664"><ele>840.0</ele><time>2026-05-02T15:28:19Z</time></trkpt><trkpt lat="43.77413249667883" lon="12.008224543840068"><ele>840.6</ele><time>2026-05-02T15:28:20Z</time></trkpt><trkpt lat="43.774100340411664" lon="12.008103825404728"><ele>841.2</ele><time>2026-05-02T15:28:21Z</time></trkpt><trkpt lat="43.77406842476037" lon="12.00800962625348"><ele>841.8</ele><time>2026-05-02T15:28:22Z</time></trkpt><trkpt lat="43.77406454057931" lon="12.007877489963212"><ele>842.4</ele><time>2026-05-02T15:28:23Z</time></trkpt><trkpt lat="43.77403020482834" lon="12.007778172368308"><ele>843.0</ele><time>2026-05-02T15:28:24Z</time></trkpt><trkpt lat="43.774125190424854" lon="12.007589278763714"><ele>843.0</ele><time>2026-05-02T15:28:25Z</time></trkpt><trkpt lat="43.774145708165065" lon="12.007434670672895"><ele>843.0</ele><time>2026-05-02T15:28:26Z</time></trkpt><trkpt lat="43.77419180449968" lon="12.007263942975893"><ele>843.0</ele><time>2026-05-02T15:28:27Z</time></trkpt><trkpt lat="43.7742430671136" lon="12.007090671444372"><ele>843.0</ele><time>2026-05-02T15:28:28Z</time></trkpt><trkpt lat="43.774275495551116" lon="12.006980213323539"><ele>843.0</ele><time>2026-05-02T15:28:29Z</time></trkpt><trkpt lat="43.774305312905064" lon="12.006807657838188"><ele>843.0</ele><time>2026-05-02T15:28:31Z</time></trkpt><trkpt lat="43.77428824742026" lon="12.00668154567023"><ele>843.0</ele><time>2026-05-02T15:28:32Z</time></trkpt><trkpt lat="43.774245050844165" lon="12.00655191983561"><ele>843.0</ele><time>2026-05-02T15:28:33Z</time></trkpt><trkpt lat="43.77421279079046" lon="12.006397642855955"><ele>843.0</ele><time>2026-05-02T15:28:34Z</time></trkpt><trkpt lat="43.7741995750037" lon="12.006271939378228"><ele>843.2</ele><time>2026-05-02T15:28:35Z</time></trkpt><trkpt lat="43.774203739386934" lon="12.006126761415713"><ele>843.4</ele><time>2026-05-02T15:28:36Z</time></trkpt><trkpt lat="43.77422389562686" lon="12.005991650277755"><ele>843.6</ele><time>2026-05-02T15:28:37Z</time></trkpt><trkpt lat="43.774261637361626" lon="12.005861174685766"><ele>843.8000000000001</ele><time>2026-05-02T15:28:38Z</time></trkpt><trkpt lat="43.77430867944061" lon="12.005746115183081"><ele>844.0</ele><time>2026-05-02T15:28:39Z</time></trkpt><trkpt lat="43.77439186879547" lon="12.005655311648566"><ele>844.0</ele><time>2026-05-02T15:28:40Z</time></trkpt><trkpt lat="43.77451441664458" lon="12.005601182205904"><ele>844.0</ele><time>2026-05-02T15:28:41Z</time></trkpt><trkpt lat="43.77462154799309" lon="12.005546909345105"><ele>844.0</ele><time>2026-05-02T15:28:42Z</time></trkpt><trkpt lat="43.77471983811118" lon="12.005519328626113"><ele>844.0</ele><time>2026-05-02T15:28:43Z</time></trkpt><trkpt lat="43.77482177785407" lon="12.005512353003999"><ele>844.0</ele><time>2026-05-02T15:28:44Z</time></trkpt><trkpt lat="43.77492546574292" lon="12.005520304884444"><ele>844.0</ele><time>2026-05-02T15:28:45Z</time></trkpt><trkpt lat="43.77502800922078" lon="12.005522648873507"><ele>844.0</ele><time>2026-05-02T15:28:46Z</time></trkpt><trkpt lat="43.7751149285789" lon="12.005519974305676"><ele>844.0</ele><time>2026-05-02T15:28:47Z</time></trkpt><trkpt lat="43.77519309237775" lon="12.005502611690297"><ele>844.0</ele><time>2026-05-02T15:28:48Z</time></trkpt><trkpt lat="43.77525477011671" lon="12.005481944323055"><ele>844.0</ele><time>2026-05-02T15:28:49Z</time></trkpt><trkpt lat="43.775347355331" lon="12.005375456632734"><ele>840.4000000000001</ele><time>2026-05-02T15:28:51Z</time></trkpt><trkpt lat="43.77536953575539" lon="12.005278941787719"><ele>836.8</ele><time>2026-05-02T15:28:52Z</time></trkpt><trkpt lat="43.7753815613727" lon="12.00513412337878"><ele>833.2</ele><time>2026-05-02T15:28:53Z</time></trkpt><trkpt lat="43.775385973550875" lon="12.004975715474187"><ele>829.5999999999999</ele><time>2026-05-02T15:28:54Z</time></trkpt><trkpt lat="43.77539818586534" lon="12.004847935592862"><ele>826.0</ele><time>2026-05-02T15:28:55Z</time></trkpt><trkpt lat="43.77543250668839" lon="12.004724132083977"><ele>826.0</ele><time>2026-05-02T15:28:56Z</time></trkpt><trkpt lat="43.775477965775295" lon="12.004594224713877"><ele>826.0</ele><time>2026-05-02T15:28:57Z</time></trkpt><trkpt lat="43.77551136295552" lon="12.004457401129278"><ele>826.0</ele><time>2026-05-02T15:28:58Z</time></trkpt><trkpt lat="43.77554289385499" lon="12.004336113348945"><ele>826.0</ele><time>2026-05-02T15:28:59Z</time></trkpt><trkpt lat="43.775582693027424" lon="12.00423168619471"><ele>826.0</ele><time>2026-05-02T15:29:00Z</time></trkpt><trkpt lat="43.77564413888885" lon="12.004144892644646"><ele>829.0</ele><time>2026-05-02T15:29:01Z</time></trkpt><trkpt lat="43.775724642666745" lon="12.004070265327776"><ele>832.0</ele><time>2026-05-02T15:29:02Z</time></trkpt><trkpt lat="43.775828149485555" lon="12.004020687541232"><ele>835.0</ele><time>2026-05-02T15:29:03Z</time></trkpt><trkpt lat="43.77591247749393" lon="12.003971270880216"><ele>838.0</ele><time>2026-05-02T15:29:04Z</time></trkpt><trkpt lat="43.77598628297206" lon="12.003890191525944"><ele>841.0</ele><time>2026-05-02T15:29:05Z</time></trkpt><trkpt lat="43.776055644515246" lon="12.003772756928095"><ele>835.0</ele><time>2026-05-02T15:29:06Z</time></trkpt><trkpt lat="43.77610986617667" lon="12.00366691302256"><ele>829.0</ele><time>2026-05-02T15:29:07Z</time></trkpt><trkpt lat="43.77614884038301" lon="12.003597841149025"><ele>823.0</ele><time>2026-05-02T15:29:08Z</time></trkpt><trkpt lat="43.7762190470569" lon="12.003432274618122"><ele>817.0</ele><time>2026-05-02T15:29:10Z</time></trkpt><trkpt lat="43.77623370098302" lon="12.003322661667035"><ele>811.0</ele><time>2026-05-02T15:29:11Z</time></trkpt><trkpt lat="43.77622582637838" lon="12.003180765444323"><ele>811.0</ele><time>2026-05-02T15:29:12Z</time></trkpt><trkpt lat="43.77621066276376" lon="12.003046846542144"><ele>811.0</ele><time>2026-05-02T15:29:13Z</time></trkpt><trkpt lat="43.77618002396581" lon="12.002924591122722"><ele>811.0</ele><time>2026-05-02T15:29:14Z</time></trkpt><trkpt lat="43.77615763306111" lon="12.002791900178607"><ele>811.0</ele><time>2026-05-02T15:29:15Z</time></trkpt><trkpt lat="43.77617978255944" lon="12.002648225610455"><ele>811.0</ele><time>2026-05-02T15:29:16Z</time></trkpt><trkpt lat="43.776209136822736" lon="12.002529904547044"><ele>813.0</ele><time>2026-05-02T15:29:17Z</time></trkpt><trkpt lat="43.77625379758993" lon="12.00245128013575"><ele>815.0</ele><time>2026-05-02T15:29:18Z</time></trkpt><trkpt lat="43.77634245409134" lon="12.002378078903924"><ele>817.0</ele><time>2026-05-02T15:29:19Z</time></trkpt><trkpt lat="43.77641654703241" lon="12.00230260238465"><ele>819.0</ele><time>2026-05-02T15:29:20Z</time></trkpt><trkpt lat="43.77648417374762" lon="12.002218952561247"><ele>821.0</ele><time>2026-05-02T15:29:21Z</time></trkpt><trkpt lat="43.77651519412546" lon="12.002077503243822"><ele>821.0</ele><time>2026-05-02T15:29:22Z</time></trkpt><trkpt lat="43.77657924086401" lon="12.001894841861219"><ele>821.0</ele><time>2026-05-02T15:29:23Z</time></trkpt><trkpt lat="43.776662614202486" lon="12.001736646480575"><ele>821.0</ele><time>2026-05-02T15:29:24Z</time></trkpt><trkpt lat="43.77673558259515" lon="12.001583491803874"><ele>821.0</ele><time>2026-05-02T15:29:25Z</time></trkpt><trkpt lat="43.77679350984213" lon="12.001409332776353"><ele>822.1999999999999</ele><time>2026-05-02T15:29:26Z</time></trkpt><trkpt lat="43.77684506907352" lon="12.001231241257775"><ele>823.4</ele><time>2026-05-02T15:29:27Z</time></trkpt><trkpt lat="43.77689075345698" lon="12.001099694326559"><ele>824.6</ele><time>2026-05-02T15:29:28Z</time></trkpt><trkpt lat="43.776903032738254" lon="12.000996176770565"><ele>825.8</ele><time>2026-05-02T15:29:29Z</time></trkpt><trkpt lat="43.776928738463674" lon="12.000903660532407"><ele>827.0</ele><time>2026-05-02T15:29:30Z</time></trkpt><trkpt lat="43.776904336089906" lon="12.000788972003077"><ele>826.0</ele><time>2026-05-02T15:29:31Z</time></trkpt><trkpt lat="43.77685295104066" lon="12.000681524302891"><ele>825.0</ele><time>2026-05-02T15:29:32Z</time></trkpt><trkpt lat="43.7767760364607" lon="12.000593597576845"><ele>824.0</ele><time>2026-05-02T15:29:33Z</time></trkpt><trkpt lat="43.77668742284872" lon="12.000520361239596"><ele>823.0</ele><time>2026-05-02T15:29:34Z</time></trkpt><trkpt lat="43.77662428724656" lon="12.000404597524401"><ele>822.0</ele><time>2026-05-02T15:29:35Z</time></trkpt><trkpt lat="43.7765774332546" lon="12.000247443704598"><ele>822.0</ele><time>2026-05-02T15:29:36Z</time></trkpt><trkpt lat="43.7765312143864" lon="12.00007852486884"><ele>822.0</ele><time>2026-05-02T15:29:37Z</time></trkpt><trkpt lat="43.7764903594409" lon="11.999931189138458"><ele>822.0</ele><time>2026-05-02T15:29:38Z</time></trkpt><trkpt lat="43.77646596258222" lon="11.99980831721085"><ele>822.0</ele><time>2026-05-02T15:29:39Z</time></trkpt><trkpt lat="43.77646504300588" lon="11.999668992148353"><ele>822.0</ele><time>2026-05-02T15:29:40Z</time></trkpt><trkpt lat="43.776493095342175" lon="11.99952811467281"><ele>822.0</ele><time>2026-05-02T15:29:41Z</time></trkpt><trkpt lat="43.77654374773716" lon="11.9994075398064"><ele>822.0</ele><time>2026-05-02T15:29:42Z</time></trkpt><trkpt lat="43.776610701535596" lon="11.999285873906222"><ele>822.0</ele><time>2026-05-02T15:29:43Z</time></trkpt><trkpt lat="43.77670438068467" lon="11.999157233998272"><ele>822.0</ele><time>2026-05-02T15:29:44Z</time></trkpt><trkpt lat="43.776786640929316" lon="11.99904349072305"><ele>818.6</ele><time>2026-05-02T15:29:45Z</time></trkpt><trkpt lat="43.77686245120975" lon="11.998973923037546"><ele>815.2</ele><time>2026-05-02T15:29:46Z</time></trkpt><trkpt lat="43.77693491943973" lon="11.998873189897239"><ele>811.8</ele><time>2026-05-02T15:29:48Z</time></trkpt><trkpt lat="43.77700407951687" lon="11.998800446398723"><ele>808.4</ele><time>2026-05-02T15:30:14Z</time></trkpt><trkpt lat="43.77709004874347" lon="11.998754646669562"><ele>805.0</ele><time>2026-05-02T15:30:16Z</time></trkpt><trkpt lat="43.77720752579192" lon="11.998707846300046"><ele>804.9999999999999</ele><time>2026-05-02T15:30:18Z</time></trkpt><trkpt lat="43.77727499671899" lon="11.998709480739242"><ele>805.0</ele><time>2026-05-02T15:30:19Z</time></trkpt><trkpt lat="43.77734020357216" lon="11.99868689845958"><ele>805.0</ele><time>2026-05-02T15:30:20Z</time></trkpt><trkpt lat="43.77740912567016" lon="11.998680629953336"><ele>805.0</ele><time>2026-05-02T15:30:21Z</time></trkpt><trkpt lat="43.77747326393413" lon="11.998698899229122"><ele>804.9999999999999</ele><time>2026-05-02T15:30:22Z</time></trkpt><trkpt lat="43.77759892123131" lon="11.99876923906024"><ele>805.0</ele><time>2026-05-02T15:30:24Z</time></trkpt><trkpt lat="43.77766793958445" lon="11.998818590341031"><ele>800.2</ele><time>2026-05-02T15:30:25Z</time></trkpt><trkpt lat="43.77773565810016" lon="11.998824190806285"><ele>795.4</ele><time>2026-05-02T15:30:26Z</time></trkpt><trkpt lat="43.777856194287935" lon="11.99885164596043"><ele>790.5999999999999</ele><time>2026-05-02T15:30:28Z</time></trkpt><trkpt lat="43.777913440367385" lon="11.998811591594114"><ele>785.8</ele><time>2026-05-02T15:30:29Z</time></trkpt><trkpt lat="43.777949919446286" lon="11.998703242962192"><ele>781.0</ele><time>2026-05-02T15:30:30Z</time></trkpt><trkpt lat="43.77792238082521" lon="11.998547546625911"><ele>780.9999999999999</ele><time>2026-05-02T15:30:31Z</time></trkpt><trkpt lat="43.77791128514245" lon="11.998420484155814"><ele>781.0</ele><time>2026-05-02T15:30:32Z</time></trkpt><trkpt lat="43.77789905020771" lon="11.99831514562889"><ele>781.0</ele><time>2026-05-02T15:30:33Z</time></trkpt><trkpt lat="43.77790977103987" lon="11.998228834601989"><ele>781.0</ele><time>2026-05-02T15:30:34Z</time></trkpt><trkpt lat="43.77799726917983" lon="11.998165598089466"><ele>780.9999999999999</ele><time>2026-05-02T15:30:35Z</time></trkpt><trkpt lat="43.778094046312766" lon="11.998152469781989"><ele>781.0</ele><time>2026-05-02T15:30:36Z</time></trkpt><trkpt lat="43.77819976165215" lon="11.998078187241545"><ele>780.5999999999999</ele><time>2026-05-02T15:30:37Z</time></trkpt><trkpt lat="43.77828391316475" lon="11.997945745483406"><ele>780.2</ele><time>2026-05-02T15:30:38Z</time></trkpt><trkpt lat="43.77835931406326" lon="11.99789205918328"><ele>779.8</ele><time>2026-05-02T15:30:39Z</time></trkpt><trkpt lat="43.778406668968174" lon="11.99782522359656"><ele>779.4000000000001</ele><time>2026-05-02T15:30:40Z</time></trkpt><trkpt lat="43.778492795683476" lon="11.997819877496807"><ele>779.0</ele><time>2026-05-02T15:30:41Z</time></trkpt><trkpt lat="43.77857484460073" lon="11.997920927566136"><ele>779.0</ele><time>2026-05-02T15:30:42Z</time></trkpt><trkpt lat="43.77868908665512" lon="11.997974836786772"><ele>779.0</ele><time>2026-05-02T15:30:43Z</time></trkpt><trkpt lat="43.778819385023674" lon="11.997998082901816"><ele>779.0</ele><time>2026-05-02T15:30:44Z</time></trkpt><trkpt lat="43.778951918206374" lon="11.997948315825996"><ele>779.0</ele><time>2026-05-02T15:30:45Z</time></trkpt><trkpt lat="43.779079842135786" lon="11.99789658824535"><ele>779.0</ele><time>2026-05-02T15:30:46Z</time></trkpt><trkpt lat="43.77920033486514" lon="11.997866281062944"><ele>779.0</ele><time>2026-05-02T15:30:47Z</time></trkpt><trkpt lat="43.77930636892417" lon="11.997802949275219"><ele>779.0</ele><time>2026-05-02T15:30:48Z</time></trkpt><trkpt lat="43.779408140791595" lon="11.997711033517229"><ele>779.0</ele><time>2026-05-02T15:30:49Z</time></trkpt><trkpt lat="43.77952342547247" lon="11.997632894754389"><ele>779.2</ele><time>2026-05-02T15:30:50Z</time></trkpt><trkpt lat="43.77962568253807" lon="11.997552807158995"><ele>779.4000000000001</ele><time>2026-05-02T15:30:51Z</time></trkpt><trkpt lat="43.77971362972152" lon="11.997508745173459"><ele>779.6</ele><time>2026-05-02T15:30:52Z</time></trkpt><trkpt lat="43.77978735690639" lon="11.997445973941288"><ele>779.8</ele><time>2026-05-02T15:30:53Z</time></trkpt><trkpt lat="43.77985389890533" lon="11.99739062473568"><ele>780.0</ele><time>2026-05-02T15:30:54Z</time></trkpt><trkpt lat="43.77992785582554" lon="11.997345368974992"><ele>781.6</ele><time>2026-05-02T15:30:55Z</time></trkpt><trkpt lat="43.78002332097463" lon="11.99733416670217"><ele>783.2</ele><time>2026-05-02T15:30:56Z</time></trkpt><trkpt lat="43.780122632936255" lon="11.997371858479147"><ele>784.8</ele><time>2026-05-02T15:30:57Z</time></trkpt><trkpt lat="43.78023340512431" lon="11.997382977063987"><ele>786.4</ele><time>2026-05-02T15:30:58Z</time></trkpt><trkpt lat="43.78033591298648" lon="11.997359961203554"><ele>788.0</ele><time>2026-05-02T15:30:59Z</time></trkpt><trkpt lat="43.780452111648316" lon="11.997313144687311"><ele>788.2</ele><time>2026-05-02T15:31:00Z</time></trkpt><trkpt lat="43.78057187245706" lon="11.997246304436871"><ele>788.4</ele><time>2026-05-02T15:31:01Z</time></trkpt><trkpt lat="43.780679383545106" lon="11.997195775990043"><ele>788.6</ele><time>2026-05-02T15:31:02Z</time></trkpt><trkpt lat="43.78078077148699" lon="11.997176316738997"><ele>788.8000000000001</ele><time>2026-05-02T15:31:03Z</time></trkpt><trkpt lat="43.78084637489365" lon="11.997084590295422"><ele>789.0</ele><time>2026-05-02T15:31:04Z</time></trkpt><trkpt lat="43.78092575895027" lon="11.997031250839909"><ele>789.0</ele><time>2026-05-02T15:31:05Z</time></trkpt><trkpt lat="43.78097778299743" lon="11.996895495388157"><ele>789.0</ele><time>2026-05-02T15:31:06Z</time></trkpt><trkpt lat="43.78105352714652" lon="11.996786434613268"><ele>789.0</ele><time>2026-05-02T15:31:07Z</time></trkpt><trkpt lat="43.78114625363005" lon="11.996717853645315"><ele>789.0</ele><time>2026-05-02T15:31:08Z</time></trkpt><trkpt lat="43.78122807032238" lon="11.996650429528476"><ele>789.0</ele><time>2026-05-02T15:31:09Z</time></trkpt><trkpt lat="43.78131198421099" lon="11.996557089543264"><ele>785.2</ele><time>2026-05-02T15:31:10Z</time></trkpt><trkpt lat="43.78140267803513" lon="11.996510682749639"><ele>781.4000000000001</ele><time>2026-05-02T15:31:11Z</time></trkpt><trkpt lat="43.781468253778165" lon="11.996427549432468"><ele>777.6</ele><time>2026-05-02T15:31:12Z</time></trkpt><trkpt lat="43.78155643253374" lon="11.996338873899457"><ele>773.8</ele><time>2026-05-02T15:31:13Z</time></trkpt><trkpt lat="43.781630383587576" lon="11.99624656289103"><ele>770.0</ele><time>2026-05-02T15:31:14Z</time></trkpt><trkpt lat="43.78169902688592" lon="11.996150893192906"><ele>770.0000000000001</ele><time>2026-05-02T15:31:15Z</time></trkpt><trkpt lat="43.78178362643349" lon="11.996063628967319"><ele>770.0</ele><time>2026-05-02T15:31:16Z</time></trkpt><trkpt lat="43.781857928218976" lon="11.995983214324458"><ele>770.0</ele><time>2026-05-02T15:31:17Z</time></trkpt><trkpt lat="43.78192241312028" lon="11.995913103185323"><ele>770.0</ele><time>2026-05-02T15:31:18Z</time></trkpt><trkpt lat="43.78198039799373" lon="11.995843388747907"><ele>770.0000000000001</ele><time>2026-05-02T15:31:19Z</time></trkpt><trkpt lat="43.78202883065764" lon="11.995753077622604"><ele>770.0</ele><time>2026-05-02T15:31:20Z</time></trkpt><trkpt lat="43.78208275830093" lon="11.995700576407053"><ele>769.0</ele><time>2026-05-02T15:31:21Z</time></trkpt><trkpt lat="43.782150492303664" lon="11.995637977814496"><ele>768.0</ele><time>2026-05-02T15:31:22Z</time></trkpt><trkpt lat="43.78222068671731" lon="11.995593044394594"><ele>767.0</ele><time>2026-05-02T15:31:23Z</time></trkpt><trkpt lat="43.782306133298114" lon="11.995621330630769"><ele>766.0</ele><time>2026-05-02T15:31:24Z</time></trkpt><trkpt lat="43.78239463365589" lon="11.995630452458897"><ele>765.0</ele><time>2026-05-02T15:31:25Z</time></trkpt><trkpt lat="43.78251254599778" lon="11.995644827213718"><ele>765.0</ele><time>2026-05-02T15:31:26Z</time></trkpt><trkpt lat="43.78263097819174" lon="11.995664492907288"><ele>765.0</ele><time>2026-05-02T15:31:27Z</time></trkpt><trkpt lat="43.78273690518543" lon="11.995671915477875"><ele>765.0</ele><time>2026-05-02T15:31:28Z</time></trkpt><trkpt lat="43.782829681071654" lon="11.99569074774041"><ele>765.0</ele><time>2026-05-02T15:31:29Z</time></trkpt><trkpt lat="43.782938525913885" lon="11.995693692133855"><ele>765.0</ele><time>2026-05-02T15:31:30Z</time></trkpt><trkpt lat="43.78305774972367" lon="11.995675011142648"><ele>764.25</ele><time>2026-05-02T15:31:31Z</time></trkpt><trkpt lat="43.7831685626544" lon="11.995638383261038"><ele>763.5</ele><time>2026-05-02T15:31:32Z</time></trkpt><trkpt lat="43.78327732375555" lon="11.995580071555269"><ele>762.75</ele><time>2026-05-02T15:31:33Z</time></trkpt><trkpt lat="43.7833975519952" lon="11.995515272491083"><ele>762.0</ele><time>2026-05-02T15:31:34Z</time></trkpt><trkpt lat="43.78350552662838" lon="11.995462624721648"><ele>762.0</ele><time>2026-05-02T15:31:35Z</time></trkpt><trkpt lat="43.78359351199534" lon="11.995415570701375"><ele>762.0</ele><time>2026-05-02T15:31:36Z</time></trkpt><trkpt lat="43.783671368692715" lon="11.995353746030155"><ele>762.0</ele><time>2026-05-02T15:31:37Z</time></trkpt><trkpt lat="43.78375001895623" lon="11.995255455418121"><ele>762.0</ele><time>2026-05-02T15:31:38Z</time></trkpt><trkpt lat="43.783811327152776" lon="11.99513889682846"><ele>762.0</ele><time>2026-05-02T15:31:39Z</time></trkpt><trkpt lat="43.783872464491004" lon="11.995001133559592"><ele>762.0</ele><time>2026-05-02T15:31:40Z</time></trkpt><trkpt lat="43.7839323304947" lon="11.994870791552666"><ele>762.0</ele><time>2026-05-02T15:31:41Z</time></trkpt><trkpt lat="43.78396980782151" lon="11.994778575099435"><ele>762.0</ele><time>2026-05-02T15:31:42Z</time></trkpt><trkpt lat="43.78400850197042" lon="11.99467006578495"><ele>762.0</ele><time>2026-05-02T15:31:43Z</time></trkpt><trkpt lat="43.784082092042745" lon="11.994569200804243"><ele>762.0</ele><time>2026-05-02T15:31:44Z</time></trkpt><trkpt lat="43.784176319986045" lon="11.994481555089827"><ele>762.0</ele><time>2026-05-02T15:31:45Z</time></trkpt><trkpt lat="43.78425858762811" lon="11.994357031535523"><ele>762.0</ele><time>2026-05-02T15:31:46Z</time></trkpt><trkpt lat="43.78435098352359" lon="11.994252981207762"><ele>762.0</ele><time>2026-05-02T15:31:47Z</time></trkpt><trkpt lat="43.78443428538351" lon="11.994141002224827"><ele>762.0</ele><time>2026-05-02T15:31:48Z</time></trkpt><trkpt lat="43.78451090427703" lon="11.994028058608828"><ele>760.2</ele><time>2026-05-02T15:31:49Z</time></trkpt><trkpt lat="43.78459123628785" lon="11.993912670432524"><ele>758.4000000000001</ele><time>2026-05-02T15:31:50Z</time></trkpt><trkpt lat="43.784684528374406" lon="11.993801428858122"><ele>756.5999999999999</ele><time>2026-05-02T15:31:51Z</time></trkpt><trkpt lat="43.784765707682396" lon="11.993707188424276"><ele>754.8</ele><time>2026-05-02T15:31:52Z</time></trkpt><trkpt lat="43.78483459990821" lon="11.993632842657524"><ele>753.0</ele><time>2026-05-02T15:31:53Z</time></trkpt><trkpt lat="43.78488801148481" lon="11.993569685537521"><ele>753.0</ele><time>2026-05-02T15:31:54Z</time></trkpt><trkpt lat="43.78499312116768" lon="11.993516421792547"><ele>753.0</ele><time>2026-05-02T15:31:56Z</time></trkpt><trkpt lat="43.785078099261746" lon="11.99346362011262"><ele>753.0</ele><time>2026-05-02T15:31:58Z</time></trkpt><trkpt lat="43.78513791493975" lon="11.993434952009386"><ele>753.0</ele><time>2026-05-02T15:31:59Z</time></trkpt><trkpt lat="43.785211802560205" lon="11.993313028522936"><ele>753.0</ele><time>2026-05-02T15:32:01Z</time></trkpt><trkpt lat="43.78524455426641" lon="11.993221565446092"><ele>753.5714285714286</ele><time>2026-05-02T15:32:03Z</time></trkpt><trkpt lat="43.78529507214843" lon="11.993283005053224"><ele>754.1428571428571</ele><time>2026-05-02T15:34:29Z</time></trkpt><trkpt lat="43.78533003823085" lon="11.99336228375142"><ele>754.7142857142858</ele><time>2026-05-02T15:34:33Z</time></trkpt><trkpt lat="43.785318911969185" lon="11.993465207902458"><ele>755.2857142857142</ele><time>2026-05-02T15:34:37Z</time></trkpt><trkpt lat="43.785326082047796" lon="11.99356111377082"><ele>755.8571428571428</ele><time>2026-05-02T15:34:43Z</time></trkpt><trkpt lat="43.785327897691204" lon="11.993649087454035"><ele>756.4285714285714</ele><time>2026-05-02T15:34:51Z</time></trkpt><trkpt lat="43.785343014618064" lon="11.99377056551383"><ele>757.0</ele><time>2026-05-02T15:34:54Z</time></trkpt><trkpt lat="43.78538364453921" lon="11.993862304367427"><ele>754.7142857142858</ele><time>2026-05-02T15:34:57Z</time></trkpt><trkpt lat="43.78542106815863" lon="11.993958567935927"><ele>752.4285714285713</ele><time>2026-05-02T15:35:00Z</time></trkpt><trkpt lat="43.78546472152104" lon="11.994040026437562"><ele>750.1428571428571</ele><time>2026-05-02T15:35:03Z</time></trkpt><trkpt lat="43.78549762205106" lon="11.994129005663188"><ele>747.8571428571429</ele><time>2026-05-02T15:35:05Z</time></trkpt><trkpt lat="43.78555629300201" lon="11.994188941529137"><ele>745.5714285714287</ele><time>2026-05-02T15:35:08Z</time></trkpt><trkpt lat="43.785574951684126" lon="11.99428828674741"><ele>743.2857142857142</ele><time>2026-05-02T15:35:21Z</time></trkpt><trkpt lat="43.78559352863966" lon="11.99438721649936"><ele>741.0</ele><time>2026-05-02T15:35:25Z</time></trkpt><trkpt lat="43.78563889050139" lon="11.994468094173788"><ele>739.7142857142857</ele><time>2026-05-02T15:35:29Z</time></trkpt><trkpt lat="43.78571133275306" lon="11.994550431810046"><ele>738.4285714285714</ele><time>2026-05-02T15:35:36Z</time></trkpt><trkpt lat="43.78577243855215" lon="11.994596206931"><ele>737.1428571428571</ele><time>2026-05-02T15:35:39Z</time></trkpt><trkpt lat="43.78584037191259" lon="11.994642974396909"><ele>735.8571428571429</ele><time>2026-05-02T15:35:42Z</time></trkpt><trkpt lat="43.78590459335764" lon="11.994661818215063"><ele>734.5714285714287</ele><time>2026-05-02T15:35:46Z</time></trkpt><trkpt lat="43.78596431133848" lon="11.994697570652121"><ele>733.2857142857143</ele><time>2026-05-02T15:36:03Z</time></trkpt><trkpt lat="43.785937611156754" lon="11.994790215708479"><ele>732.0</ele><time>2026-05-02T15:36:06Z</time></trkpt><trkpt lat="43.785860734928406" lon="11.9948254938773"><ele>732.0</ele><time>2026-05-02T15:36:10Z</time></trkpt><trkpt lat="43.78580340254476" lon="11.994874931817503"><ele>732.0</ele><time>2026-05-02T15:36:16Z</time></trkpt><trkpt lat="43.785753711338195" lon="11.99492907265749"><ele>732.0</ele><time>2026-05-02T15:36:22Z</time></trkpt><trkpt lat="43.785746136785995" lon="11.995039196646836"><ele>732.0</ele><time>2026-05-02T15:36:34Z</time></trkpt><trkpt lat="43.78576960514116" lon="11.995130780339611"><ele>732.0</ele><time>2026-05-02T15:36:36Z</time></trkpt><trkpt lat="43.78581683924557" lon="11.995219731309707"><ele>732.0</ele><time>2026-05-02T15:36:39Z</time></trkpt><trkpt lat="43.78591893757312" lon="11.995277020046565"><ele>732.5</ele><time>2026-05-02T15:36:42Z</time></trkpt><trkpt lat="43.785988361032246" lon="11.995378511522302"><ele>733.0</ele><time>2026-05-02T15:36:44Z</time></trkpt><trkpt lat="43.78603157717874" lon="11.995449613228839"><ele>733.5</ele><time>2026-05-02T15:36:46Z</time></trkpt><trkpt lat="43.78607004688672" lon="11.995520172953562"><ele>734.0</ele><time>2026-05-02T15:37:13Z</time></trkpt><trkpt lat="43.786065593411756" lon="11.995623365119535"><ele>734.5</ele><time>2026-05-02T15:37:27Z</time></trkpt><trkpt lat="43.786100391898096" lon="11.995702537191947"><ele>735.0</ele><time>2026-05-02T15:37:37Z</time></trkpt><trkpt lat="43.78620027547818" lon="11.995761030575649"><ele>730.3333333333334</ele><time>2026-05-02T15:48:27Z</time></trkpt><trkpt lat="43.78622807579724" lon="11.995858851502218"><ele>725.6666666666666</ele><time>2026-05-02T15:48:29Z</time></trkpt><trkpt lat="43.78624375606881" lon="11.995947459849237"><ele>721.0</ele><time>2026-05-02T15:48:30Z</time></trkpt><trkpt lat="43.78629434192172" lon="11.996049842448889"><ele>716.3333333333333</ele><time>2026-05-02T15:48:32Z</time></trkpt><trkpt lat="43.78635856844011" lon="11.996149367061003"><ele>711.6666666666666</ele><time>2026-05-02T15:48:34Z</time></trkpt><trkpt lat="43.78641809101811" lon="11.996216129355341"><ele>707.0</ele><time>2026-05-02T15:48:36Z</time></trkpt><trkpt lat="43.78647141604349" lon="11.996281678864637"><ele>707.0</ele><time>2026-05-02T15:48:38Z</time></trkpt><trkpt lat="43.78651187556106" lon="11.996378183605705"><ele>707.0</ele><time>2026-05-02T15:48:40Z</time></trkpt><trkpt lat="43.786534124152695" lon="11.99648706562985"><ele>707.0</ele><time>2026-05-02T15:48:43Z</time></trkpt><trkpt lat="43.786515406867835" lon="11.996592328012957"><ele>707.0</ele><time>2026-05-02T15:48:46Z</time></trkpt><trkpt lat="43.78648587581164" lon="11.996684172734687"><ele>707.0</ele><time>2026-05-02T15:48:48Z</time></trkpt><trkpt lat="43.78644662869721" lon="11.996803292640507"><ele>707.0</ele><time>2026-05-02T15:48:50Z</time></trkpt><trkpt lat="43.7864322365043" lon="11.99690797422661"><ele>707.0</ele><time>2026-05-02T15:48:52Z</time></trkpt><trkpt lat="43.786398598198616" lon="11.99700200396838"><ele>707.0</ele><time>2026-05-02T15:48:54Z</time></trkpt><trkpt lat="43.78640897369344" lon="11.997111373992302"><ele>707.0</ele><time>2026-05-02T15:48:57Z</time></trkpt><trkpt lat="43.78647339500643" lon="11.997225869549906"><ele>707.0</ele><time>2026-05-02T15:48:59Z</time></trkpt><trkpt lat="43.78656764831509" lon="11.997292600920265"><ele>707.0</ele><time>2026-05-02T15:49:01Z</time></trkpt><trkpt lat="43.78663675753395" lon="11.997333347153049"><ele>707.0</ele><time>2026-05-02T15:49:03Z</time></trkpt><trkpt lat="43.78667296230498" lon="11.997414751155262"><ele>706.5</ele><time>2026-05-02T15:49:05Z</time></trkpt><trkpt lat="43.78669763421946" lon="11.997506793768432"><ele>706.0</ele><time>2026-05-02T15:49:06Z</time></trkpt><trkpt lat="43.786763202151946" lon="11.997633947653314"><ele>705.5</ele><time>2026-05-02T15:49:08Z</time></trkpt><trkpt lat="43.78682361247717" lon="11.997701899805175"><ele>705.0</ele><time>2026-05-02T15:49:11Z</time></trkpt><trkpt lat="43.786871539068436" lon="11.997770265714259"><ele>704.5</ele><time>2026-05-02T15:49:13Z</time></trkpt><trkpt lat="43.78694180834963" lon="11.997843939467069"><ele>704.0</ele><time>2026-05-02T15:49:16Z</time></trkpt><trkpt lat="43.78701718069942" lon="11.99791347743559"><ele>700.2857142857143</ele><time>2026-05-02T15:49:19Z</time></trkpt><trkpt lat="43.78708120314394" lon="11.997974771226408"><ele>696.5714285714286</ele><time>2026-05-02T15:49:52Z</time></trkpt><trkpt lat="43.78711815824708" lon="11.998064556094606"><ele>692.8571428571429</ele><time>2026-05-02T15:49:56Z</time></trkpt><trkpt lat="43.78712543216208" lon="11.99815825372104"><ele>689.1428571428571</ele><time>2026-05-02T15:49:59Z</time></trkpt><trkpt lat="43.78712245518172" lon="11.998246771427203"><ele>685.4285714285714</ele><time>2026-05-02T15:50:06Z</time></trkpt><trkpt lat="43.787101512446064" lon="11.998331542812844"><ele>681.7142857142857</ele><time>2026-05-02T15:50:09Z</time></trkpt><trkpt lat="43.78706824513192" lon="11.99842117479943"><ele>678.0</ele><time>2026-05-02T15:50:13Z</time></trkpt><trkpt lat="43.78702622365304" lon="11.998509872659115"><ele>677.2857142857142</ele><time>2026-05-02T15:50:17Z</time></trkpt><trkpt lat="43.78699258929212" lon="11.998607568352854"><ele>676.5714285714287</ele><time>2026-05-02T15:50:21Z</time></trkpt><trkpt lat="43.786986709813114" lon="11.998703136731383"><ele>675.8571428571429</ele><time>2026-05-02T15:50:24Z</time></trkpt><trkpt lat="43.78701996781959" lon="11.998794254203897"><ele>675.1428571428571</ele><time>2026-05-02T15:50:38Z</time></trkpt><trkpt lat="43.78707127258405" lon="11.998884366129628"><ele>674.4285714285713</ele><time>2026-05-02T15:50:42Z</time></trkpt><trkpt lat="43.78711779245948" lon="11.998961959393071"><ele>673.7142857142858</ele><time>2026-05-02T15:50:45Z</time></trkpt><trkpt lat="43.78717525336548" lon="11.999006406275752"><ele>673.0</ele><time>2026-05-02T15:50:54Z</time></trkpt><trkpt lat="43.7872398831211" lon="11.999003104624661"><ele>673.0</ele><time>2026-05-02T15:50:59Z</time></trkpt><trkpt lat="43.787305602581526" lon="11.998998098793479"><ele>673.0</ele><time>2026-05-02T15:51:04Z</time></trkpt><trkpt lat="43.78737641360674" lon="11.999023692297747"><ele>673.0</ele><time>2026-05-02T15:51:21Z</time></trkpt><trkpt lat="43.78744428204538" lon="11.999037472927998"><ele>673.0</ele><time>2026-05-02T15:51:24Z</time></trkpt><trkpt lat="43.787551266670874" lon="11.999032213453857"><ele>673.0</ele><time>2026-05-02T15:51:28Z</time></trkpt><trkpt lat="43.787619272344024" lon="11.998995312197033"><ele>673.0</ele><time>2026-05-02T15:51:30Z</time></trkpt><trkpt lat="43.78768581101797" lon="11.998911889319066"><ele>675.0</ele><time>2026-05-02T15:51:34Z</time></trkpt><trkpt lat="43.787725477522876" lon="11.998838133748459"><ele>677.0</ele><time>2026-05-02T15:51:37Z</time></trkpt><trkpt lat="43.78776265876702" lon="11.998759119512062"><ele>679.0</ele><time>2026-05-02T15:51:41Z</time></trkpt><trkpt lat="43.787805971649405" lon="11.998687097846316"><ele>681.0</ele><time>2026-05-02T15:52:15Z</time></trkpt><trkpt lat="43.7878478567345" lon="11.998621484287218"><ele>683.0</ele><time>2026-05-02T15:52:34Z</time></trkpt><trkpt lat="43.78779029760174" lon="11.9987469871638"><ele>685.0</ele><time>2026-05-02T15:53:05Z</time></trkpt><trkpt lat="43.787749389031035" lon="11.99884945024468"><ele>685.0</ele><time>2026-05-02T15:53:09Z</time></trkpt><trkpt lat="43.78771013025012" lon="11.998941566619317"><ele>685.0</ele><time>2026-05-02T15:53:13Z</time></trkpt><trkpt lat="43.78764472531753" lon="11.999013788893727"><ele>685.0</ele><time>2026-05-02T15:53:16Z</time></trkpt><trkpt lat="43.78758265208986" lon="11.999030835975105"><ele>685.0</ele><time>2026-05-02T15:53:17Z</time></trkpt><trkpt lat="43.787488607060986" lon="11.99905082517142"><ele>685.0</ele><time>2026-05-02T15:53:19Z</time></trkpt><trkpt lat="43.787404461044524" lon="11.999056479683409"><ele>685.0</ele><time>2026-05-02T15:53:21Z</time></trkpt><trkpt lat="43.787361779748494" lon="11.998984254261652"><ele>683.0</ele><time>2026-05-02T15:53:24Z</time></trkpt><trkpt lat="43.78729570834006" lon="11.998969921404187"><ele>681.0</ele><time>2026-05-02T15:54:43Z</time></trkpt><trkpt lat="43.78722080782924" lon="11.998996991349227"><ele>679.0</ele><time>2026-05-02T15:54:46Z</time></trkpt><trkpt lat="43.78718126321224" lon="11.999097714993514"><ele>677.0</ele><time>2026-05-02T15:54:48Z</time></trkpt><trkpt lat="43.787140571441725" lon="11.999024250127528"><ele>675.0</ele><time>2026-05-02T15:55:24Z</time></trkpt><trkpt lat="43.78707805522103" lon="11.998939088345027"><ele>673.0</ele><time>2026-05-02T15:55:26Z</time></trkpt><trkpt lat="43.78701345194271" lon="11.998816141975515"><ele>673.0</ele><time>2026-05-02T15:55:28Z</time></trkpt><trkpt lat="43.78698843602328" lon="11.998723145083227"><ele>673.0</ele><time>2026-05-02T15:55:30Z</time></trkpt><trkpt lat="43.78698666617134" lon="11.998628076627453"><ele>673.0</ele><time>2026-05-02T15:55:32Z</time></trkpt><trkpt lat="43.78701970405477" lon="11.998549651966323"><ele>673.0</ele><time>2026-05-02T15:55:34Z</time></trkpt><trkpt lat="43.7870480504893" lon="11.998437102831517"><ele>673.0</ele><time>2026-05-02T15:55:51Z</time></trkpt><trkpt lat="43.78709523085468" lon="11.998365279768585"><ele>673.0</ele><time>2026-05-02T15:55:53Z</time></trkpt><trkpt lat="43.78712861460123" lon="11.998250819445353"><ele>674.0</ele><time>2026-05-02T15:55:55Z</time></trkpt><trkpt lat="43.787106893355045" lon="11.99815057597595"><ele>675.0</ele><time>2026-05-02T15:55:57Z</time></trkpt><trkpt lat="43.78708531098729" lon="11.998037429961949"><ele>676.0</ele><time>2026-05-02T15:55:59Z</time></trkpt><trkpt lat="43.78703720933412" lon="11.997923511238634"><ele>677.0</ele><time>2026-05-02T15:58:50Z</time></trkpt><trkpt lat="43.78696226276118" lon="11.997868407020722"><ele>678.0</ele><time>2026-05-02T15:58:52Z</time></trkpt><trkpt lat="43.786868562107244" lon="11.997768904433483"><ele>682.3333333333334</ele><time>2026-05-02T15:58:54Z</time></trkpt><trkpt lat="43.78679829185218" lon="11.997669854948136"><ele>686.6666666666666</ele><time>2026-05-02T15:58:56Z</time></trkpt><trkpt lat="43.78674366249644" lon="11.997618103302974"><ele>691.0</ele><time>2026-05-02T15:58:58Z</time></trkpt><trkpt lat="43.786712114325574" lon="11.99754169075291"><ele>695.3333333333333</ele><time>2026-05-02T15:59:00Z</time></trkpt><trkpt lat="43.78667784229679" lon="11.997445456919236"><ele>699.6666666666666</ele><time>2026-05-02T15:59:02Z</time></trkpt><trkpt lat="43.786631991218286" lon="11.99736222800208"><ele>704.0</ele><time>2026-05-02T15:59:04Z</time></trkpt><trkpt lat="43.786565133744844" lon="11.997330367757055"><ele>704.5</ele><time>2026-05-02T15:59:06Z</time></trkpt><trkpt lat="43.786466993705346" lon="11.997304194359748"><ele>705.0</ele><time>2026-05-02T15:59:09Z</time></trkpt><trkpt lat="43.7864221871437" lon="11.997226074616737"><ele>705.5</ele><time>2026-05-02T15:59:11Z</time></trkpt><trkpt lat="43.7863797872216" lon="11.997128585512227"><ele>706.0</ele><time>2026-05-02T15:59:13Z</time></trkpt><trkpt lat="43.78640511156289" lon="11.99704563224741"><ele>706.5</ele><time>2026-05-02T15:59:15Z</time></trkpt><trkpt lat="43.78642956716275" lon="11.996908055069127"><ele>707.0</ele><time>2026-05-02T15:59:17Z</time></trkpt><trkpt lat="43.786451786920956" lon="11.996826249653356"><ele>707.0</ele><time>2026-05-02T15:59:18Z</time></trkpt><trkpt lat="43.78648886372706" lon="11.996733948665746"><ele>707.0</ele><time>2026-05-02T15:59:20Z</time></trkpt><trkpt lat="43.786517106615584" lon="11.996613217105937"><ele>707.0</ele><time>2026-05-02T15:59:22Z</time></trkpt><trkpt lat="43.786492682501944" lon="11.996480308899562"><ele>707.0</ele><time>2026-05-02T15:59:25Z</time></trkpt><trkpt lat="43.786435870099695" lon="11.996376549708868"><ele>707.0</ele><time>2026-05-02T15:59:27Z</time></trkpt><trkpt lat="43.78635717595267" lon="11.996295483685625"><ele>707.0</ele><time>2026-05-02T15:59:29Z</time></trkpt><trkpt lat="43.78629228040736" lon="11.996197989261493"><ele>707.0</ele><time>2026-05-02T15:59:31Z</time></trkpt><trkpt lat="43.78624790645625" lon="11.996069749082238"><ele>707.0</ele><time>2026-05-02T15:59:33Z</time></trkpt><trkpt lat="43.78619509383731" lon="11.995918589879532"><ele>707.0</ele><time>2026-05-02T15:59:35Z</time></trkpt><trkpt lat="43.786154624354744" lon="11.99583541177999"><ele>707.0</ele><time>2026-05-02T15:59:37Z</time></trkpt><trkpt lat="43.78609815714421" lon="11.995729116461336"><ele>708.1666666666666</ele><time>2026-05-02T16:00:25Z</time></trkpt><trkpt lat="43.78608713297553" lon="11.995630442550851"><ele>709.3333333333333</ele><time>2026-05-02T16:02:41Z</time></trkpt><trkpt lat="43.78604415313398" lon="11.995560321068803"><ele>710.5</ele><time>2026-05-02T16:02:42Z</time></trkpt><trkpt lat="43.785981446721735" lon="11.995453285916613"><ele>711.6666666666666</ele><time>2026-05-02T16:02:44Z</time></trkpt><trkpt lat="43.78594452079373" lon="11.995363698316764"><ele>712.8333333333334</ele><time>2026-05-02T16:02:46Z</time></trkpt><trkpt lat="43.78585527129415" lon="11.995283268886837"><ele>714.0</ele><time>2026-05-02T16:02:48Z</time></trkpt><trkpt lat="43.78581031830388" lon="11.995216458883176"><ele>717.0</ele><time>2026-05-02T16:02:51Z</time></trkpt><trkpt lat="43.785786206986096" lon="11.99513419554008"><ele>720.0</ele><time>2026-05-02T16:02:53Z</time></trkpt><trkpt lat="43.78573413211511" lon="11.995053267143383"><ele>723.0</ele><time>2026-05-02T16:02:58Z</time></trkpt><trkpt lat="43.7857849911999" lon="11.994970495923488"><ele>726.0</ele><time>2026-05-02T16:03:00Z</time></trkpt><trkpt lat="43.78587288226277" lon="11.994873689760256"><ele>729.0</ele><time>2026-05-02T16:03:02Z</time></trkpt><trkpt lat="43.785950677435466" lon="11.994830367173376"><ele>732.0</ele><time>2026-05-02T16:03:04Z</time></trkpt><trkpt lat="43.786002762923225" lon="11.994779072074264"><ele>732.0</ele><time>2026-05-02T16:03:06Z</time></trkpt><trkpt lat="43.78593678549403" lon="11.994704836110966"><ele>732.0</ele><time>2026-05-02T16:03:10Z</time></trkpt><trkpt lat="43.78585487837972" lon="11.994686503994018"><ele>732.0</ele><time>2026-05-02T16:03:14Z</time></trkpt><trkpt lat="43.785788939188755" lon="11.994654016199934"><ele>732.0</ele><time>2026-05-02T16:03:16Z</time></trkpt><trkpt lat="43.78572275045589" lon="11.994565637290984"><ele>732.0</ele><time>2026-05-02T16:03:18Z</time></trkpt><trkpt lat="43.78566880464117" lon="11.994481607550215"><ele>732.0</ele><time>2026-05-02T16:03:20Z</time></trkpt><trkpt lat="43.785619358951834" lon="11.994407441092788"><ele>732.0</ele><time>2026-05-02T16:03:22Z</time></trkpt><trkpt lat="43.78563108188461" lon="11.994317049734981"><ele>732.0</ele><time>2026-05-02T16:03:24Z</time></trkpt><trkpt lat="43.78557072113248" lon="11.994224618594043"><ele>732.0</ele><time>2026-05-02T16:03:27Z</time></trkpt><trkpt lat="43.78549663276584" lon="11.994165055727901"><ele>732.0</ele><time>2026-05-02T16:03:29Z</time></trkpt><trkpt lat="43.78544613739289" lon="11.994050409153266"><ele>732.0</ele><time>2026-05-02T16:03:31Z</time></trkpt><trkpt lat="43.78541306838069" lon="11.993974113630436"><ele>732.0</ele><time>2026-05-02T16:03:34Z</time></trkpt><trkpt lat="43.78535537189338" lon="11.993866936837406"><ele>733.5</ele><time>2026-05-02T16:03:37Z</time></trkpt><trkpt lat="43.785330686768056" lon="11.993755287384637"><ele>735.0</ele><time>2026-05-02T16:03:40Z</time></trkpt><trkpt lat="43.785325197234314" lon="11.993663587145958"><ele>736.5</ele><time>2026-05-02T16:03:49Z</time></trkpt><trkpt lat="43.78530362581513" lon="11.99357434455159"><ele>738.0</ele><time>2026-05-02T16:03:52Z</time></trkpt><trkpt lat="43.78528458911072" lon="11.99343700822686"><ele>739.5</ele><time>2026-05-02T16:03:54Z</time></trkpt><trkpt lat="43.785290812100726" lon="11.99329130632796"><ele>741.0</ele><time>2026-05-02T16:03:56Z</time></trkpt><trkpt lat="43.785286434629135" lon="11.993199367726763"><ele>743.4</ele><time>2026-05-02T16:03:58Z</time></trkpt><trkpt lat="43.78520791682507" lon="11.993307386936586"><ele>745.8</ele><time>2026-05-02T16:05:13Z</time></trkpt><trkpt lat="43.78514236514274" lon="11.993414410895209"><ele>748.1999999999999</ele><time>2026-05-02T16:05:15Z</time></trkpt><trkpt lat="43.785058900316976" lon="11.993477030636122"><ele>750.5999999999999</ele><time>2026-05-02T16:05:17Z</time></trkpt><trkpt lat="43.784994726284104" lon="11.993504992992367"><ele>753.0</ele><time>2026-05-02T16:05:18Z</time></trkpt><trkpt lat="43.784918520734664" lon="11.993541673131217"><ele>753.0</ele><time>2026-05-02T16:05:19Z</time></trkpt><trkpt lat="43.78485447203252" lon="11.993601214818995"><ele>753.0</ele><time>2026-05-02T16:05:20Z</time></trkpt><trkpt lat="43.7847565981248" lon="11.993679267763898"><ele>753.0</ele><time>2026-05-02T16:05:22Z</time></trkpt><trkpt lat="43.78470059783533" lon="11.993741869525685"><ele>753.0</ele><time>2026-05-02T16:05:23Z</time></trkpt><trkpt lat="43.78464077513161" lon="11.99381151912425"><ele>753.0</ele><time>2026-05-02T16:05:24Z</time></trkpt><trkpt lat="43.78457957509018" lon="11.99388761446241"><ele>753.0</ele><time>2026-05-02T16:05:25Z</time></trkpt><trkpt lat="43.784522014143555" lon="11.993963072282186"><ele>753.0</ele><time>2026-05-02T16:05:26Z</time></trkpt><trkpt lat="43.78447197699447" lon="11.99405569710565"><ele>753.0</ele><time>2026-05-02T16:05:27Z</time></trkpt><trkpt lat="43.78440425809177" lon="11.994135513111184"><ele>753.0</ele><time>2026-05-02T16:05:28Z</time></trkpt><trkpt lat="43.784336085579945" lon="11.994227666391756"><ele>753.0</ele><time>2026-05-02T16:05:29Z</time></trkpt><trkpt lat="43.78426824602486" lon="11.99432902849948"><ele>753.0</ele><time>2026-05-02T16:05:30Z</time></trkpt><trkpt lat="43.7842087689173" lon="11.994410027623262"><ele>754.5</ele><time>2026-05-02T16:05:31Z</time></trkpt><trkpt lat="43.78414645444173" lon="11.994474821473135"><ele>756.0</ele><time>2026-05-02T16:05:32Z</time></trkpt><trkpt lat="43.7840741033544" lon="11.994530301462877"><ele>757.5</ele><time>2026-05-02T16:05:33Z</time></trkpt><trkpt lat="43.78401162871272" lon="11.994608462641088"><ele>759.0</ele><time>2026-05-02T16:05:34Z</time></trkpt><trkpt lat="43.783973551622665" lon="11.994706674556099"><ele>760.5</ele><time>2026-05-02T16:05:35Z</time></trkpt><trkpt lat="43.783940560864735" lon="11.99478608105875"><ele>762.0</ele><time>2026-05-02T16:05:36Z</time></trkpt><trkpt lat="43.78390112198287" lon="11.994877337059735"><ele>762.0</ele><time>2026-05-02T16:05:37Z</time></trkpt><trkpt lat="43.783854416792565" lon="11.994982454261589"><ele>762.0</ele><time>2026-05-02T16:05:38Z</time></trkpt><trkpt lat="43.78380273973608" lon="11.995093701871127"><ele>762.0</ele><time>2026-05-02T16:05:39Z</time></trkpt><trkpt lat="43.78375362371608" lon="11.995193087133963"><ele>762.0</ele><time>2026-05-02T16:05:40Z</time></trkpt><trkpt lat="43.783696678661364" lon="11.995286911701749"><ele>762.0</ele><time>2026-05-02T16:05:41Z</time></trkpt><trkpt lat="43.78362742405531" lon="11.995364174668731"><ele>762.0</ele><time>2026-05-02T16:05:42Z</time></trkpt><trkpt lat="43.78355805598332" lon="11.995427704415674"><ele>762.0</ele><time>2026-05-02T16:05:43Z</time></trkpt><trkpt lat="43.78345911334081" lon="11.995452641939783"><ele>762.0</ele><time>2026-05-02T16:05:44Z</time></trkpt><trkpt lat="43.783380856789094" lon="11.995509372929083"><ele>762.0</ele><time>2026-05-02T16:05:45Z</time></trkpt><trkpt lat="43.78330128026345" lon="11.995543685175615"><ele>762.0</ele><time>2026-05-02T16:05:46Z</time></trkpt><trkpt lat="43.783224010834104" lon="11.99558621066703"><ele>762.0</ele><time>2026-05-02T16:05:47Z</time></trkpt><trkpt lat="43.783143766788704" lon="11.995623943871129"><ele>762.0</ele><time>2026-05-02T16:05:48Z</time></trkpt><trkpt lat="43.78304214390668" lon="11.995646307334288"><ele>762.0</ele><time>2026-05-02T16:05:49Z</time></trkpt><trkpt lat="43.78292857552437" lon="11.995652886453001"><ele>762.0</ele><time>2026-05-02T16:05:50Z</time></trkpt><trkpt lat="43.78281991325324" lon="11.99564612816919"><ele>762.0</ele><time>2026-05-02T16:05:51Z</time></trkpt><trkpt lat="43.78271594915307" lon="11.99564102888308"><ele>762.0</ele><time>2026-05-02T16:05:52Z</time></trkpt><trkpt lat="43.78262323344023" lon="11.995627753576569"><ele>762.0</ele><time>2026-05-02T16:05:53Z</time></trkpt><trkpt lat="43.78253361619685" lon="11.99561219421342"><ele>762.5</ele><time>2026-05-02T16:05:54Z</time></trkpt><trkpt lat="43.782432924725306" lon="11.995587308748453"><ele>763.0</ele><time>2026-05-02T16:05:55Z</time></trkpt><trkpt lat="43.78233762464978" lon="11.995572087486442"><ele>763.5</ele><time>2026-05-02T16:05:56Z</time></trkpt><trkpt lat="43.78225639250398" lon="11.995572887498536"><ele>764.0</ele><time>2026-05-02T16:05:57Z</time></trkpt><trkpt lat="43.782183642086316" lon="11.995588735093149"><ele>764.5</ele><time>2026-05-02T16:05:58Z</time></trkpt><trkpt lat="43.78211423818536" lon="11.995643631020313"><ele>765.0</ele><time>2026-05-02T16:05:59Z</time></trkpt><trkpt lat="43.78203898353406" lon="11.99569730480914"><ele>765.0</ele><time>2026-05-02T16:06:00Z</time></trkpt><trkpt lat="43.78197051339176" lon="11.995791214162782"><ele>765.0</ele><time>2026-05-02T16:06:01Z</time></trkpt><trkpt lat="43.78190093905531" lon="11.995905617463839"><ele>765.0</ele><time>2026-05-02T16:06:02Z</time></trkpt><trkpt lat="43.78180828516139" lon="11.99599339827981"><ele>765.0</ele><time>2026-05-02T16:06:03Z</time></trkpt><trkpt lat="43.781710860437826" lon="11.996092063191558"><ele>765.0</ele><time>2026-05-02T16:06:04Z</time></trkpt><trkpt lat="43.78164787592983" lon="11.996205850782376"><ele>766.0</ele><time>2026-05-02T16:06:05Z</time></trkpt><trkpt lat="43.78156346540711" lon="11.996293811990952"><ele>767.0</ele><time>2026-05-02T16:06:06Z</time></trkpt><trkpt lat="43.78147641907865" lon="11.996393841864334"><ele>768.0</ele><time>2026-05-02T16:06:07Z</time></trkpt><trkpt lat="43.78138492311563" lon="11.996471800130251"><ele>769.0</ele><time>2026-05-02T16:06:08Z</time></trkpt><trkpt lat="43.78128524343538" lon="11.996551471523446"><ele>770.0</ele><time>2026-05-02T16:06:09Z</time></trkpt><trkpt lat="43.7811812254606" lon="11.99663560074427"><ele>768.4</ele><time>2026-05-02T16:06:10Z</time></trkpt><trkpt lat="43.78107818234257" lon="11.99672731431655"><ele>766.8</ele><time>2026-05-02T16:06:11Z</time></trkpt><trkpt lat="43.78100262989478" lon="11.996835504883181"><ele>765.2</ele><time>2026-05-02T16:06:12Z</time></trkpt><trkpt lat="43.78092764202017" lon="11.996936244007673"><ele>763.6</ele><time>2026-05-02T16:06:13Z</time></trkpt><trkpt lat="43.780852093861114" lon="11.997050904543505"><ele>762.0</ele><time>2026-05-02T16:06:14Z</time></trkpt><trkpt lat="43.78077850266853" lon="11.99713845308177"><ele>767.4000000000001</ele><time>2026-05-02T16:06:15Z</time></trkpt><trkpt lat="43.78070453557695" lon="11.997189634584785"><ele>772.8000000000001</ele><time>2026-05-02T16:06:16Z</time></trkpt><trkpt lat="43.780616544595695" lon="11.997188335885445"><ele>778.2</ele><time>2026-05-02T16:06:17Z</time></trkpt><trkpt lat="43.780508256559365" lon="11.997227704415911"><ele>783.6</ele><time>2026-05-02T16:06:18Z</time></trkpt><trkpt lat="43.7803991533281" lon="11.997278897545677"><ele>789.0</ele><time>2026-05-02T16:06:19Z</time></trkpt><trkpt lat="43.78031119835666" lon="11.997321470986565"><ele>789.0</ele><time>2026-05-02T16:06:20Z</time></trkpt><trkpt lat="43.78023552030164" lon="11.99734560590562"><ele>789.0</ele><time>2026-05-02T16:06:21Z</time></trkpt><trkpt lat="43.78013960500326" lon="11.997342300259557"><ele>789.0</ele><time>2026-05-02T16:06:22Z</time></trkpt><trkpt lat="43.78004525763004" lon="11.997292189511834"><ele>789.0</ele><time>2026-05-02T16:06:23Z</time></trkpt><trkpt lat="43.77994775047048" lon="11.997319041702703"><ele>789.0</ele><time>2026-05-02T16:06:24Z</time></trkpt><trkpt lat="43.779845689242606" lon="11.997357105872837"><ele>788.75</ele><time>2026-05-02T16:06:25Z</time></trkpt><trkpt lat="43.77975265846073" lon="11.997422491608289"><ele>788.5</ele><time>2026-05-02T16:06:26Z</time></trkpt><trkpt lat="43.7796580291733" lon="11.997516010347923"><ele>788.25</ele><time>2026-05-02T16:06:27Z</time></trkpt><trkpt lat="43.77955176621704" lon="11.997578650766776"><ele>788.0</ele><time>2026-05-02T16:06:28Z</time></trkpt><trkpt lat="43.77944699629641" lon="11.997653421277057"><ele>786.2</ele><time>2026-05-02T16:06:29Z</time></trkpt><trkpt lat="43.77933468479528" lon="11.997731930438464"><ele>784.4</ele><time>2026-05-02T16:06:30Z</time></trkpt><trkpt lat="43.779242603852985" lon="11.997794661191376"><ele>782.6</ele><time>2026-05-02T16:06:31Z</time></trkpt><trkpt lat="43.77914873529622" lon="11.997851778597335"><ele>780.8000000000001</ele><time>2026-05-02T16:06:32Z</time></trkpt><trkpt lat="43.77904046431988" lon="11.997896615336195"><ele>779.0</ele><time>2026-05-02T16:06:33Z</time></trkpt><trkpt lat="43.77890998721249" lon="11.9979448613354"><ele>779.0</ele><time>2026-05-02T16:06:34Z</time></trkpt><trkpt lat="43.77878866130616" lon="11.99796635223652"><ele>779.0</ele><time>2026-05-02T16:06:35Z</time></trkpt><trkpt lat="43.778664980029355" lon="11.997939681956135"><ele>779.0</ele><time>2026-05-02T16:06:36Z</time></trkpt><trkpt lat="43.778545205988905" lon="11.997871643047393"><ele>779.0</ele><time>2026-05-02T16:06:37Z</time></trkpt><trkpt lat="43.77844771029567" lon="11.997821070662344"><ele>781.4000000000001</ele><time>2026-05-02T16:06:38Z</time></trkpt><trkpt lat="43.77835203472865" lon="11.99783542006677"><ele>783.8</ele><time>2026-05-02T16:06:39Z</time></trkpt><trkpt lat="43.778274630334536" lon="11.99790251195487"><ele>786.2</ele><time>2026-05-02T16:06:40Z</time></trkpt><trkpt lat="43.778200187376264" lon="11.998004286064047"><ele>788.5999999999999</ele><time>2026-05-02T16:06:41Z</time></trkpt><trkpt lat="43.778097928845426" lon="11.998117921939805"><ele>791.0</ele><time>2026-05-02T16:06:42Z</time></trkpt><trkpt lat="43.7779955106871" lon="11.998176944988588"><ele>791.0</ele><time>2026-05-02T16:06:43Z</time></trkpt><trkpt lat="43.777926575968955" lon="11.998214178780566"><ele>791.0</ele><time>2026-05-02T16:06:44Z</time></trkpt><trkpt lat="43.77786211480943" lon="11.998279883395828"><ele>791.0</ele><time>2026-05-02T16:06:45Z</time></trkpt><trkpt lat="43.777839034548606" lon="11.998405142737079"><ele>791.0</ele><time>2026-05-02T16:06:46Z</time></trkpt><trkpt lat="43.77790750085202" lon="11.998568824438301"><ele>791.0</ele><time>2026-05-02T16:06:47Z</time></trkpt><trkpt lat="43.77789915164022" lon="11.998687585380958"><ele>789.0</ele><time>2026-05-02T16:06:48Z</time></trkpt><trkpt lat="43.777889262460604" lon="11.998774881775498"><ele>787.0</ele><time>2026-05-02T16:06:49Z</time></trkpt><trkpt lat="43.777809069334076" lon="11.998838541250795"><ele>785.0</ele><time>2026-05-02T16:06:51Z</time></trkpt><trkpt lat="43.777735828019644" lon="11.998795984738212"><ele>783.0</ele><time>2026-05-02T16:06:52Z</time></trkpt><trkpt lat="43.777639310544444" lon="11.998771770316633"><ele>781.0</ele><time>2026-05-02T16:06:53Z</time></trkpt><trkpt lat="43.77753961288758" lon="11.998689382678169"><ele>785.8</ele><time>2026-05-02T16:06:54Z</time></trkpt><trkpt lat="43.77743856050531" lon="11.998633469023712"><ele>790.5999999999999</ele><time>2026-05-02T16:06:55Z</time></trkpt><trkpt lat="43.77733800922113" lon="11.998637697043865"><ele>795.4</ele><time>2026-05-02T16:06:56Z</time></trkpt><trkpt lat="43.77723021097968" lon="11.998673900430312"><ele>800.2</ele><time>2026-05-02T16:06:57Z</time></trkpt><trkpt lat="43.77712726602994" lon="11.998726079210824"><ele>805.0</ele><time>2026-05-02T16:06:58Z</time></trkpt><trkpt lat="43.77705823365088" lon="11.998760178670084"><ele>805.0</ele><time>2026-05-02T16:06:59Z</time></trkpt><trkpt lat="43.77699129818896" lon="11.998796852877428"><ele>805.0</ele><time>2026-05-02T16:07:01Z</time></trkpt><trkpt lat="43.776911274293255" lon="11.998873807116345"><ele>805.0</ele><time>2026-05-02T16:07:06Z</time></trkpt><trkpt lat="43.77685404560732" lon="11.998925791413038"><ele>805.0</ele><time>2026-05-02T16:07:07Z</time></trkpt><trkpt lat="43.77680534048486" lon="11.99898198043571"><ele>805.0</ele><time>2026-05-02T16:07:08Z</time></trkpt><trkpt lat="43.77675871277516" lon="11.999046905030909"><ele>805.0</ele><time>2026-05-02T16:07:09Z</time></trkpt><trkpt lat="43.776699633993225" lon="11.999115388674332"><ele>805.0</ele><time>2026-05-02T16:07:10Z</time></trkpt><trkpt lat="43.77665837632906" lon="11.999189915087111"><ele>807.8333333333333</ele><time>2026-05-02T16:07:11Z</time></trkpt><trkpt lat="43.77655767182157" lon="11.999305319589435"><ele>810.6666666666666</ele><time>2026-05-02T16:07:13Z</time></trkpt><trkpt lat="43.77651721923517" lon="11.999385050174906"><ele>813.5</ele><time>2026-05-02T16:07:14Z</time></trkpt><trkpt lat="43.776482156184485" lon="11.999463552451333"><ele>816.3333333333333</ele><time>2026-05-02T16:07:15Z</time></trkpt><trkpt lat="43.776453327301034" lon="11.999561603923935"><ele>819.1666666666666</ele><time>2026-05-02T16:07:16Z</time></trkpt><trkpt lat="43.77643800314364" lon="11.999686942351547"><ele>822.0</ele><time>2026-05-02T16:07:17Z</time></trkpt><trkpt lat="43.776441821975226" lon="11.99980888774217"><ele>822.0</ele><time>2026-05-02T16:07:18Z</time></trkpt><trkpt lat="43.776459135552756" lon="11.999925070309855"><ele>822.0</ele><time>2026-05-02T16:07:19Z</time></trkpt><trkpt lat="43.776488366271565" lon="12.000018192638084"><ele>822.0</ele><time>2026-05-02T16:07:20Z</time></trkpt><trkpt lat="43.776516626308904" lon="12.000133413615742"><ele>822.0</ele><time>2026-05-02T16:07:21Z</time></trkpt><trkpt lat="43.77654228356796" lon="12.000244294755209"><ele>822.0</ele><time>2026-05-02T16:07:22Z</time></trkpt><trkpt lat="43.77657258907954" lon="12.000348906898505"><ele>822.0</ele><time>2026-05-02T16:07:23Z</time></trkpt><trkpt lat="43.77661711665707" lon="12.000473724286278"><ele>822.0</ele><time>2026-05-02T16:07:24Z</time></trkpt><trkpt lat="43.77668575737899" lon="12.00057761427825"><ele>822.0</ele><time>2026-05-02T16:07:25Z</time></trkpt><trkpt lat="43.7767774949914" lon="12.000673812321327"><ele>822.0</ele><time>2026-05-02T16:07:26Z</time></trkpt><trkpt lat="43.77683395374002" lon="12.000743279090653"><ele>822.0</ele><time>2026-05-02T16:07:27Z</time></trkpt><trkpt lat="43.776870540938354" lon="12.000815727018194"><ele>822.0</ele><time>2026-05-02T16:07:28Z</time></trkpt><trkpt lat="43.77687945166267" lon="12.001002480109893"><ele>821.8</ele><time>2026-05-02T16:07:30Z</time></trkpt><trkpt lat="43.776835036438705" lon="12.00111943596845"><ele>821.6</ele><time>2026-05-02T16:07:31Z</time></trkpt><trkpt lat="43.77678384425401" lon="12.0012712742028"><ele>821.4</ele><time>2026-05-02T16:07:32Z</time></trkpt><trkpt lat="43.77673980839538" lon="12.001407689581866"><ele>821.1999999999999</ele><time>2026-05-02T16:07:33Z</time></trkpt><trkpt lat="43.776700812728045" lon="12.001543399413807"><ele>821.0</ele><time>2026-05-02T16:07:34Z</time></trkpt><trkpt lat="43.7766586390629" lon="12.001684762830058"><ele>821.0</ele><time>2026-05-02T16:07:35Z</time></trkpt><trkpt lat="43.77659721305394" lon="12.001788733354205"><ele>821.0</ele><time>2026-05-02T16:07:36Z</time></trkpt><trkpt lat="43.77653522829117" lon="12.001905226211187"><ele>821.0</ele><time>2026-05-02T16:07:37Z</time></trkpt><trkpt lat="43.77648969590814" lon="12.00204292497178"><ele>821.0</ele><time>2026-05-02T16:07:38Z</time></trkpt><trkpt lat="43.77646319081887" lon="12.002154299520914"><ele>821.0</ele><time>2026-05-02T16:07:39Z</time></trkpt><trkpt lat="43.7764309718184" lon="12.002244034139261"><ele>821.0</ele><time>2026-05-02T16:07:40Z</time></trkpt><trkpt lat="43.776363631808906" lon="12.002300351312769"><ele>821.0</ele><time>2026-05-02T16:07:41Z</time></trkpt><trkpt lat="43.77629296042602" lon="12.002358694277994"><ele>821.0</ele><time>2026-05-02T16:07:42Z</time></trkpt><trkpt lat="43.77620969764474" lon="12.002451862741346"><ele>821.0</ele><time>2026-05-02T16:07:43Z</time></trkpt><trkpt lat="43.776159622024245" lon="12.002590106592217"><ele>821.0</ele><time>2026-05-02T16:07:44Z</time></trkpt><trkpt lat="43.77613311333936" lon="12.002756506168101"><ele>819.0</ele><time>2026-05-02T16:07:45Z</time></trkpt><trkpt lat="43.77614909037716" lon="12.002947457686872"><ele>817.0</ele><time>2026-05-02T16:07:46Z</time></trkpt><trkpt lat="43.7761981334707" lon="12.003089718617748"><ele>815.0</ele><time>2026-05-02T16:07:47Z</time></trkpt><trkpt lat="43.77619650651276" lon="12.00322241796458"><ele>813.0</ele><time>2026-05-02T16:07:48Z</time></trkpt><trkpt lat="43.776207181784486" lon="12.00334819555455"><ele>811.0</ele><time>2026-05-02T16:07:49Z</time></trkpt><trkpt lat="43.77618390094411" lon="12.003446458457288"><ele>809.1999999999999</ele><time>2026-05-02T16:07:50Z</time></trkpt><trkpt lat="43.776147385146196" lon="12.003533752114173"><ele>807.4</ele><time>2026-05-02T16:07:51Z</time></trkpt><trkpt lat="43.77609570670292" lon="12.003625915863541"><ele>805.6</ele><time>2026-05-02T16:07:52Z</time></trkpt><trkpt lat="43.776022062576715" lon="12.00372367549229"><ele>803.8</ele><time>2026-05-02T16:07:53Z</time></trkpt><trkpt lat="43.77594771251681" lon="12.003817174375413"><ele>802.0</ele><time>2026-05-02T16:07:54Z</time></trkpt><trkpt lat="43.775866439382156" lon="12.00392864980402"><ele>806.8</ele><time>2026-05-02T16:07:55Z</time></trkpt><trkpt lat="43.7757825918476" lon="12.004019967935832"><ele>811.6</ele><time>2026-05-02T16:07:56Z</time></trkpt><trkpt lat="43.77569510039637" lon="12.004082771873716"><ele>816.4</ele><time>2026-05-02T16:07:57Z</time></trkpt><trkpt lat="43.775627302057615" lon="12.00414268475426"><ele>821.1999999999999</ele><time>2026-05-02T16:07:58Z</time></trkpt><trkpt lat="43.775553855148274" lon="12.004254914561887"><ele>826.0</ele><time>2026-05-02T16:07:59Z</time></trkpt><trkpt lat="43.77549322224756" lon="12.004413506467307"><ele>826.0</ele><time>2026-05-02T16:08:00Z</time></trkpt><trkpt lat="43.775449391336366" lon="12.004588062631273"><ele>826.0</ele><time>2026-05-02T16:08:01Z</time></trkpt><trkpt lat="43.77541746170808" lon="12.00473559323789"><ele>826.0</ele><time>2026-05-02T16:08:02Z</time></trkpt><trkpt lat="43.77540423327145" lon="12.004869762003779"><ele>826.0</ele><time>2026-05-02T16:08:03Z</time></trkpt><trkpt lat="43.77537625196075" lon="12.004999359374096"><ele>826.0</ele><time>2026-05-02T16:08:04Z</time></trkpt><trkpt lat="43.775354081492985" lon="12.005132399534874"><ele>824.0</ele><time>2026-05-02T16:08:05Z</time></trkpt><trkpt lat="43.77533965428809" lon="12.005244430631016"><ele>822.0</ele><time>2026-05-02T16:08:06Z</time></trkpt><trkpt lat="43.77530022931086" lon="12.005381156916146"><ele>820.0</ele><time>2026-05-02T16:08:08Z</time></trkpt><trkpt lat="43.7752502411163" lon="12.005456109107099"><ele>818.0</ele><time>2026-05-02T16:08:09Z</time></trkpt><trkpt lat="43.77515968039539" lon="12.005457508540921"><ele>816.0</ele><time>2026-05-02T16:08:10Z</time></trkpt><trkpt lat="43.775053933138324" lon="12.005469748953669"><ele>821.5999999999999</ele><time>2026-05-02T16:08:11Z</time></trkpt><trkpt lat="43.774933325048686" lon="12.005470711038274"><ele>827.2</ele><time>2026-05-02T16:08:12Z</time></trkpt><trkpt lat="43.77481353792568" lon="12.005487192562015"><ele>832.8</ele><time>2026-05-02T16:08:13Z</time></trkpt><trkpt lat="43.77470553969347" lon="12.005478925701539"><ele>838.4000000000001</ele><time>2026-05-02T16:08:14Z</time></trkpt><trkpt lat="43.77460950129558" lon="12.005497115132238"><ele>844.0</ele><time>2026-05-02T16:08:15Z</time></trkpt><trkpt lat="43.77450067874388" lon="12.005503958590701"><ele>844.0</ele><time>2026-05-02T16:08:16Z</time></trkpt><trkpt lat="43.77439436484131" lon="12.005551174504363"><ele>844.0</ele><time>2026-05-02T16:08:17Z</time></trkpt><trkpt lat="43.77433437544623" lon="12.005723812435765"><ele>844.0</ele><time>2026-05-02T16:08:18Z</time></trkpt><trkpt lat="43.77426722017384" lon="12.005836357128537"><ele>844.0</ele><time>2026-05-02T16:08:19Z</time></trkpt><trkpt lat="43.77421756955622" lon="12.005954090268538"><ele>845.0</ele><time>2026-05-02T16:08:20Z</time></trkpt><trkpt lat="43.77422178751521" lon="12.006104523677239"><ele>846.0</ele><time>2026-05-02T16:08:21Z</time></trkpt><trkpt lat="43.77422817929453" lon="12.006256486929534"><ele>847.0</ele><time>2026-05-02T16:08:22Z</time></trkpt><trkpt lat="43.774239052187205" lon="12.006416848809437"><ele>848.0</ele><time>2026-05-02T16:08:23Z</time></trkpt><trkpt lat="43.77428747740779" lon="12.006540568581906"><ele>849.0</ele><time>2026-05-02T16:08:24Z</time></trkpt><trkpt lat="43.774312208734024" lon="12.006640671006977"><ele>847.8000000000001</ele><time>2026-05-02T16:08:25Z</time></trkpt><trkpt lat="43.77434595184005" lon="12.006803786995592"><ele>846.6</ele><time>2026-05-02T16:08:27Z</time></trkpt><trkpt lat="43.7743359872324" lon="12.006917438101171"><ele>845.4</ele><time>2026-05-02T16:08:28Z</time></trkpt><trkpt lat="43.77423281059546" lon="12.00703050146908"><ele>844.2</ele><time>2026-05-02T16:08:29Z</time></trkpt><trkpt lat="43.77419857995306" lon="12.007168176788403"><ele>843.0</ele><time>2026-05-02T16:08:30Z</time></trkpt><trkpt lat="43.77416184310696" lon="12.007328982798626"><ele>843.0</ele><time>2026-05-02T16:08:31Z</time></trkpt><trkpt lat="43.77413002664242" lon="12.00747187752907"><ele>843.0</ele><time>2026-05-02T16:08:32Z</time></trkpt><trkpt lat="43.774103494931246" lon="12.007584405501044"><ele>843.0</ele><time>2026-05-02T16:08:33Z</time></trkpt><trkpt lat="43.77407984140083" lon="12.007689604552704"><ele>843.0</ele><time>2026-05-02T16:08:34Z</time></trkpt><trkpt lat="43.774057208627305" lon="12.007815380716202"><ele>843.0</ele><time>2026-05-02T16:08:35Z</time></trkpt><trkpt lat="43.77405658760801" lon="12.007974263617943"><ele>843.0</ele><time>2026-05-02T16:08:36Z</time></trkpt><trkpt lat="43.77407503683408" lon="12.00812313684268"><ele>843.0</ele><time>2026-05-02T16:08:37Z</time></trkpt><trkpt lat="43.77412377142531" lon="12.008267799572094"><ele>843.0</ele><time>2026-05-02T16:08:38Z</time></trkpt><trkpt lat="43.77413616414851" lon="12.008428285094196"><ele>843.0</ele><time>2026-05-02T16:08:39Z</time></trkpt><trkpt lat="43.774141422260264" lon="12.008586407166549"><ele>842.25</ele><time>2026-05-02T16:08:40Z</time></trkpt><trkpt lat="43.77413666213547" lon="12.008770052786828"><ele>841.5</ele><time>2026-05-02T16:08:42Z</time></trkpt><trkpt lat="43.77411817597647" lon="12.008934424237705"><ele>840.75</ele><time>2026-05-02T16:08:43Z</time></trkpt><trkpt lat="43.77407179536013" lon="12.009069173337922"><ele>840.0</ele><time>2026-05-02T16:08:44Z</time></trkpt><trkpt lat="43.77401775987088" lon="12.009206644771444"><ele>839.5</ele><time>2026-05-02T16:08:45Z</time></trkpt><trkpt lat="43.773962767802104" lon="12.009373457218773"><ele>839.0</ele><time>2026-05-02T16:08:46Z</time></trkpt><trkpt lat="43.773935741693485" lon="12.009540864776568"><ele>838.5</ele><time>2026-05-02T16:08:47Z</time></trkpt><trkpt lat="43.77391743645987" lon="12.009711850460292"><ele>838.0</ele><time>2026-05-02T16:08:48Z</time></trkpt><trkpt lat="43.77389771823251" lon="12.00985431239017"><ele>838.0</ele><time>2026-05-02T16:08:49Z</time></trkpt><trkpt lat="43.773877772304644" lon="12.009958717840998"><ele>838.0</ele><time>2026-05-02T16:08:50Z</time></trkpt><trkpt lat="43.773821393161406" lon="12.01004384366729"><ele>838.0</ele><time>2026-05-02T16:08:52Z</time></trkpt><trkpt lat="43.773734148318084" lon="12.010078303331776"><ele>838.0</ele><time>2026-05-02T16:08:53Z</time></trkpt><trkpt lat="43.77363125539378" lon="12.01018711040983"><ele>838.0</ele><time>2026-05-02T16:08:54Z</time></trkpt><trkpt lat="43.77353576897103" lon="12.010328988794907"><ele>840.75</ele><time>2026-05-02T16:08:55Z</time></trkpt><trkpt lat="43.77344756267466" lon="12.010471774909215"><ele>843.5</ele><time>2026-05-02T16:08:56Z</time></trkpt><trkpt lat="43.77337118416071" lon="12.010599709098024"><ele>846.25</ele><time>2026-05-02T16:08:57Z</time></trkpt><trkpt lat="43.77330992775189" lon="12.01073784397079"><ele>849.0</ele><time>2026-05-02T16:08:58Z</time></trkpt><trkpt lat="43.77325250579642" lon="12.0109142900019"><ele>849.0</ele><time>2026-05-02T16:08:59Z</time></trkpt><trkpt lat="43.77319426146002" lon="12.011098351405392"><ele>849.0</ele><time>2026-05-02T16:09:00Z</time></trkpt><trkpt lat="43.773148850930085" lon="12.011226483366002"><ele>849.0</ele><time>2026-05-02T16:09:01Z</time></trkpt><trkpt lat="43.77309773756119" lon="12.011357981521472"><ele>849.0</ele><time>2026-05-02T16:09:02Z</time></trkpt><trkpt lat="43.77305328740986" lon="12.011509799624537"><ele>848.6</ele><time>2026-05-02T16:09:03Z</time></trkpt><trkpt lat="43.773033502537295" lon="12.011661038448397"><ele>848.2</ele><time>2026-05-02T16:09:04Z</time></trkpt><trkpt lat="43.773037280092666" lon="12.011783322966922"><ele>847.8000000000001</ele><time>2026-05-02T16:09:05Z</time></trkpt><trkpt lat="43.77302555298816" lon="12.011886582776679"><ele>847.4000000000001</ele><time>2026-05-02T16:09:06Z</time></trkpt><trkpt lat="43.77299165724604" lon="12.011982871289849"><ele>847.0</ele><time>2026-05-02T16:09:07Z</time></trkpt><trkpt lat="43.77292179505521" lon="12.01207885174754"><ele>847.0</ele><time>2026-05-02T16:09:08Z</time></trkpt><trkpt lat="43.77284903916044" lon="12.012187897471907"><ele>847.0</ele><time>2026-05-02T16:09:09Z</time></trkpt><trkpt lat="43.77278599809124" lon="12.012282951971024"><ele>847.0</ele><time>2026-05-02T16:09:10Z</time></trkpt><trkpt lat="43.772735460584244" lon="12.012408825810912"><ele>847.0</ele><time>2026-05-02T16:09:11Z</time></trkpt><trkpt lat="43.772734279185336" lon="12.012550848258956"><ele>847.0</ele><time>2026-05-02T16:09:12Z</time></trkpt><trkpt lat="43.77271104647626" lon="12.012672628084902"><ele>848.4000000000001</ele><time>2026-05-02T16:09:13Z</time></trkpt><trkpt lat="43.77271737067512" lon="12.012768435188708"><ele>849.8000000000001</ele><time>2026-05-02T16:09:14Z</time></trkpt><trkpt lat="43.77273315894312" lon="12.012904920087953"><ele>851.2</ele><time>2026-05-02T16:09:16Z</time></trkpt><trkpt lat="43.77275391792321" lon="12.012996791205184"><ele>852.6</ele><time>2026-05-02T16:09:18Z</time></trkpt><trkpt lat="43.77282153353859" lon="12.013098083575084"><ele>854.0</ele><time>2026-05-02T16:09:20Z</time></trkpt><trkpt lat="43.772934513603765" lon="12.013132197775125"><ele>854.0</ele><time>2026-05-02T16:09:21Z</time></trkpt><trkpt lat="43.77302577594669" lon="12.01314471621484"><ele>854.0000000000001</ele><time>2026-05-02T16:09:22Z</time></trkpt><trkpt lat="43.773112077395105" lon="12.013162904144275"><ele>854.0000000000001</ele><time>2026-05-02T16:09:23Z</time></trkpt><trkpt lat="43.77320164436505" lon="12.013185886694231"><ele>854.0</ele><time>2026-05-02T16:09:24Z</time></trkpt><trkpt lat="43.77329739329518" lon="12.013212094081306"><ele>854.0</ele><time>2026-05-02T16:09:25Z</time></trkpt><trkpt lat="43.77338080569645" lon="12.01321687742659"><ele>854.0000000000001</ele><time>2026-05-02T16:09:26Z</time></trkpt><trkpt lat="43.77346765382944" lon="12.013227031525009"><ele>854.0</ele><time>2026-05-02T16:09:27Z</time></trkpt><trkpt lat="43.773550500645925" lon="12.013213926397146"><ele>854.0</ele><time>2026-05-02T16:09:28Z</time></trkpt><trkpt lat="43.773629272218116" lon="12.013178258655552"><ele>854.0</ele><time>2026-05-02T16:09:29Z</time></trkpt><trkpt lat="43.77371172760475" lon="12.01311853842461"><ele>854.0000000000001</ele><time>2026-05-02T16:09:30Z</time></trkpt><trkpt lat="43.77379242776491" lon="12.013054102816715"><ele>854.0</ele><time>2026-05-02T16:09:31Z</time></trkpt><trkpt lat="43.773875489711074" lon="12.01303079069255"><ele>853.8333333333334</ele><time>2026-05-02T16:09:32Z</time></trkpt><trkpt lat="43.77397043214241" lon="12.013058662240232"><ele>853.6666666666667</ele><time>2026-05-02T16:09:33Z</time></trkpt><trkpt lat="43.77406850483118" lon="12.013086688054122"><ele>853.5</ele><time>2026-05-02T16:09:34Z</time></trkpt><trkpt lat="43.77415210934916" lon="12.01313302794221"><ele>853.3333333333333</ele><time>2026-05-02T16:09:35Z</time></trkpt><trkpt lat="43.77422822989928" lon="12.013188593881628"><ele>853.1666666666666</ele><time>2026-05-02T16:09:36Z</time></trkpt><trkpt lat="43.77428194055735" lon="12.013248964172583"><ele>853.0</ele><time>2026-05-02T16:09:37Z</time></trkpt><trkpt lat="43.774350794913374" lon="12.013334080636483"><ele>855.4</ele><time>2026-05-02T16:09:38Z</time></trkpt><trkpt lat="43.77441944534916" lon="12.013445104370502"><ele>857.8</ele><time>2026-05-02T16:09:39Z</time></trkpt><trkpt lat="43.77448877353972" lon="12.013539646823554"><ele>860.2</ele><time>2026-05-02T16:09:40Z</time></trkpt><trkpt lat="43.77458839466513" lon="12.01361605418481"><ele>862.6</ele><time>2026-05-02T16:09:41Z</time></trkpt><trkpt lat="43.774699120031705" lon="12.013688821290097"><ele>865.0</ele><time>2026-05-02T16:09:42Z</time></trkpt><trkpt lat="43.77480850995323" lon="12.013727871458174"><ele>864.9999999999999</ele><time>2026-05-02T16:09:43Z</time></trkpt><trkpt lat="43.77488625318323" lon="12.013775581741488"><ele>865.0</ele><time>2026-05-02T16:09:44Z</time></trkpt><trkpt lat="43.77496130247169" lon="12.013797419865988"><ele>865.0</ele><time>2026-05-02T16:09:45Z</time></trkpt><trkpt lat="43.77502619624956" lon="12.013777773262115"><ele>865.0</ele><time>2026-05-02T16:09:46Z</time></trkpt><trkpt lat="43.77512943990936" lon="12.013678098603231"><ele>864.9999999999999</ele><time>2026-05-02T16:09:48Z</time></trkpt><trkpt lat="43.775170014503196" lon="12.013583604373316"><ele>865.0</ele><time>2026-05-02T16:09:49Z</time></trkpt><trkpt lat="43.77519518915072" lon="12.013448050231942"><ele>865.0</ele><time>2026-05-02T16:09:50Z</time></trkpt><trkpt lat="43.77521434019838" lon="12.013290732787503"><ele>865.0</ele><time>2026-05-02T16:09:51Z</time></trkpt><trkpt lat="43.77522053856783" lon="12.013112976466026"><ele>865.0</ele><time>2026-05-02T16:09:52Z</time></trkpt><trkpt lat="43.77522059399042" lon="12.012936770687883"><ele>865.0</ele><time>2026-05-02T16:09:53Z</time></trkpt><trkpt lat="43.775221999697855" lon="12.012797125648815"><ele>865.0</ele><time>2026-05-02T16:09:54Z</time></trkpt><trkpt lat="43.775233374305685" lon="12.012674951601722"><ele>865.0</ele><time>2026-05-02T16:09:55Z</time></trkpt><trkpt lat="43.77526491830854" lon="12.012561850273569"><ele>865.0</ele><time>2026-05-02T16:09:56Z</time></trkpt><trkpt lat="43.77531601737125" lon="12.01243569191018"><ele>865.0</ele><time>2026-05-02T16:09:57Z</time></trkpt><trkpt lat="43.775386265847835" lon="12.012324052498398"><ele>865.0</ele><time>2026-05-02T16:09:58Z</time></trkpt><trkpt lat="43.77543567430068" lon="12.012219703181609"><ele>863.3333333333333</ele><time>2026-05-02T16:09:59Z</time></trkpt><trkpt lat="43.77550787566062" lon="12.01215281900486"><ele>861.6666666666666</ele><time>2026-05-02T16:10:00Z</time></trkpt><trkpt lat="43.77559029728786" lon="12.012122836072681"><ele>860.0</ele><time>2026-05-02T16:10:01Z</time></trkpt><trkpt lat="43.775661017341285" lon="12.012137266619098"><ele>858.3333333333333</ele><time>2026-05-02T16:10:02Z</time></trkpt><trkpt lat="43.77572058584243" lon="12.01219786421216"><ele>856.6666666666666</ele><time>2026-05-02T16:10:03Z</time></trkpt><trkpt lat="43.77574576770441" lon="12.012315924655834"><ele>855.0</ele><time>2026-05-02T16:10:04Z</time></trkpt><trkpt lat="43.77573944761424" lon="12.012409769437719"><ele>857.5</ele><time>2026-05-02T16:10:05Z</time></trkpt><trkpt lat="43.77575910057389" lon="12.012543025768359"><ele>860.0</ele><time>2026-05-02T16:10:06Z</time></trkpt><trkpt lat="43.77578923205712" lon="12.012721542402058"><ele>862.5</ele><time>2026-05-02T16:10:07Z</time></trkpt><trkpt lat="43.7758306353539" lon="12.01290119212819"><ele>865.0</ele><time>2026-05-02T16:10:08Z</time></trkpt><trkpt lat="43.77590509766559" lon="12.013064408397101"><ele>865.0</ele><time>2026-05-02T16:10:09Z</time></trkpt><trkpt lat="43.7759680224845" lon="12.013222306004716"><ele>865.0</ele><time>2026-05-02T16:10:10Z</time></trkpt><trkpt lat="43.77607234807285" lon="12.013380774021389"><ele>865.0</ele><time>2026-05-02T16:10:11Z</time></trkpt><trkpt lat="43.776177104722116" lon="12.013518619198294"><ele>865.0</ele><time>2026-05-02T16:10:12Z</time></trkpt><trkpt lat="43.77629023855446" lon="12.013617041113534"><ele>864.5</ele><time>2026-05-02T16:10:13Z</time></trkpt><trkpt lat="43.776417485651216" lon="12.013690518067119"><ele>864.0</ele><time>2026-05-02T16:10:14Z</time></trkpt><trkpt lat="43.7765616535793" lon="12.01371634868972"><ele>863.5</ele><time>2026-05-02T16:10:15Z</time></trkpt><trkpt lat="43.776705770674376" lon="12.01370925256937"><ele>863.0</ele><time>2026-05-02T16:10:16Z</time></trkpt><trkpt lat="43.77684507768607" lon="12.013690174900537"><ele>861.75</ele><time>2026-05-02T16:10:17Z</time></trkpt><trkpt lat="43.77695995825237" lon="12.013707935366188"><ele>860.5</ele><time>2026-05-02T16:10:18Z</time></trkpt><trkpt lat="43.77709404968248" lon="12.013753954413854"><ele>859.25</ele><time>2026-05-02T16:10:19Z</time></trkpt><trkpt lat="43.77721440569002" lon="12.013809742494464"><ele>858.0</ele><time>2026-05-02T16:10:20Z</time></trkpt><trkpt lat="43.77733017149318" lon="12.013864618134415"><ele>858.0</ele><time>2026-05-02T16:10:21Z</time></trkpt><trkpt lat="43.7774473162835" lon="12.013919125690732"><ele>858.0</ele><time>2026-05-02T16:10:22Z</time></trkpt><trkpt lat="43.77756816236818" lon="12.013974586623103"><ele>858.0</ele><time>2026-05-02T16:10:23Z</time></trkpt><trkpt lat="43.77769176347639" lon="12.014006269619305"><ele>858.0</ele><time>2026-05-02T16:10:24Z</time></trkpt><trkpt lat="43.77779838564099" lon="12.014056915357573"><ele>857.75</ele><time>2026-05-02T16:10:25Z</time></trkpt><trkpt lat="43.777911515841886" lon="12.014105298377011"><ele>857.5</ele><time>2026-05-02T16:10:26Z</time></trkpt><trkpt lat="43.778028397331866" lon="12.014151738820592"><ele>857.25</ele><time>2026-05-02T16:10:27Z</time></trkpt><trkpt lat="43.77813937123221" lon="12.014177615866037"><ele>857.0</ele><time>2026-05-02T16:10:28Z</time></trkpt><trkpt lat="43.77825612406764" lon="12.014151874105877"><ele>857.0</ele><time>2026-05-02T16:10:29Z</time></trkpt><trkpt lat="43.778370413696955" lon="12.014077720589336"><ele>857.0</ele><time>2026-05-02T16:10:30Z</time></trkpt><trkpt lat="43.778466730400304" lon="12.01398317609534"><ele>857.0</ele><time>2026-05-02T16:10:31Z</time></trkpt><trkpt lat="43.778562111694676" lon="12.01396396863286"><ele>857.0</ele><time>2026-05-02T16:10:32Z</time></trkpt><trkpt lat="43.778646622213394" lon="12.013961444021277"><ele>857.0</ele><time>2026-05-02T16:10:33Z</time></trkpt><trkpt lat="43.77872398782713" lon="12.013981737842865"><ele>857.2</ele><time>2026-05-02T16:10:34Z</time></trkpt><trkpt lat="43.77878520999834" lon="12.014044881294652"><ele>857.4000000000001</ele><time>2026-05-02T16:10:35Z</time></trkpt><trkpt lat="43.778825766882306" lon="12.014155347184753"><ele>857.5999999999999</ele><time>2026-05-02T16:10:36Z</time></trkpt><trkpt lat="43.77884263768766" lon="12.014312328990908"><ele>857.8</ele><time>2026-05-02T16:10:37Z</time></trkpt><trkpt lat="43.77889375924064" lon="12.014451367456482"><ele>858.0</ele><time>2026-05-02T16:10:38Z</time></trkpt><trkpt lat="43.77898199176187" lon="12.014573024507227"><ele>858.0</ele><time>2026-05-02T16:10:39Z</time></trkpt><trkpt lat="43.77910785683027" lon="12.014678386732863"><ele>858.0</ele><time>2026-05-02T16:10:40Z</time></trkpt><trkpt lat="43.77924531991865" lon="12.014788545128466"><ele>858.0</ele><time>2026-05-02T16:10:41Z</time></trkpt><trkpt lat="43.779375178129676" lon="12.014891323591181"><ele>855.5999999999999</ele><time>2026-05-02T16:10:42Z</time></trkpt><trkpt lat="43.779473808495965" lon="12.014986496093158"><ele>853.1999999999999</ele><time>2026-05-02T16:10:43Z</time></trkpt><trkpt lat="43.77956079162959" lon="12.015085791874524"><ele>850.8</ele><time>2026-05-02T16:10:44Z</time></trkpt><trkpt lat="43.77964311644514" lon="12.015181495448745"><ele>848.4</ele><time>2026-05-02T16:10:45Z</time></trkpt><trkpt lat="43.77972877799488" lon="12.015270832053885"><ele>846.0</ele><time>2026-05-02T16:10:46Z</time></trkpt><trkpt lat="43.779823360032566" lon="12.015339575487607"><ele>846.0</ele><time>2026-05-02T16:10:47Z</time></trkpt><trkpt lat="43.77992513659474" lon="12.015380582577881"><ele>846.0</ele><time>2026-05-02T16:10:48Z</time></trkpt><trkpt lat="43.78005151973814" lon="12.015350479205214"><ele>846.0</ele><time>2026-05-02T16:10:49Z</time></trkpt><trkpt lat="43.78017652448333" lon="12.015347441152954"><ele>846.0</ele><time>2026-05-02T16:10:50Z</time></trkpt><trkpt lat="43.780278559557615" lon="12.015335158784223"><ele>843.8333333333334</ele><time>2026-05-02T16:10:51Z</time></trkpt><trkpt lat="43.780362795866466" lon="12.015333473129395"><ele>841.6666666666667</ele><time>2026-05-02T16:10:52Z</time></trkpt><trkpt lat="43.780438955128595" lon="12.015338036482655"><ele>839.5</ele><time>2026-05-02T16:10:53Z</time></trkpt><trkpt lat="43.78050542989413" lon="12.015376060214285"><ele>837.3333333333334</ele><time>2026-05-02T16:10:54Z</time></trkpt><trkpt lat="43.7805088841507" lon="12.01552149388404"><ele>835.1666666666667</ele><time>2026-05-02T16:10:55Z</time></trkpt><trkpt lat="43.78050431365176" lon="12.015640836826877"><ele>833.0</ele><time>2026-05-02T16:10:56Z</time></trkpt><trkpt lat="43.780505291939804" lon="12.015791845455448"><ele>834.0</ele><time>2026-05-02T16:10:57Z</time></trkpt><trkpt lat="43.780511647948295" lon="12.015950080610233"><ele>835.0</ele><time>2026-05-02T16:10:58Z</time></trkpt><trkpt lat="43.78053452848127" lon="12.016077904335598"><ele>836.0</ele><time>2026-05-02T16:10:59Z</time></trkpt><trkpt lat="43.78060300104742" lon="12.016208173310675"><ele>837.0</ele><time>2026-05-02T16:11:00Z</time></trkpt><trkpt lat="43.7806966347957" lon="12.016322486531504"><ele>837.0</ele><time>2026-05-02T16:11:01Z</time></trkpt><trkpt lat="43.78079785626018" lon="12.016440743070158"><ele>837.0</ele><time>2026-05-02T16:11:02Z</time></trkpt><trkpt lat="43.78089944867149" lon="12.016555749690655"><ele>837.0</ele><time>2026-05-02T16:11:03Z</time></trkpt><trkpt lat="43.780996571541486" lon="12.0166682775584"><ele>837.0</ele><time>2026-05-02T16:11:04Z</time></trkpt><trkpt lat="43.78109322803878" lon="12.016783117650528"><ele>839.2</ele><time>2026-05-02T16:11:05Z</time></trkpt><trkpt lat="43.78118399616994" lon="12.016897844800926"><ele>841.4000000000001</ele><time>2026-05-02T16:11:06Z</time></trkpt><trkpt lat="43.781256771970426" lon="12.017008826986524"><ele>843.5999999999999</ele><time>2026-05-02T16:11:07Z</time></trkpt><trkpt lat="43.7812979820121" lon="12.017139798880121"><ele>845.8</ele><time>2026-05-02T16:11:08Z</time></trkpt><trkpt lat="43.781329212742314" lon="12.017279413176059"><ele>848.0</ele><time>2026-05-02T16:11:09Z</time></trkpt><trkpt lat="43.78135877021827" lon="12.017440046499056"><ele>848.5999999999999</ele><time>2026-05-02T16:11:10Z</time></trkpt><trkpt lat="43.78138496564975" lon="12.017564613303447"><ele>849.1999999999999</ele><time>2026-05-02T16:11:11Z</time></trkpt><trkpt lat="43.78142751253054" lon="12.017670052120902"><ele>849.8</ele><time>2026-05-02T16:11:12Z</time></trkpt><trkpt lat="43.78153443145841" lon="12.01775370947435"><ele>850.4</ele><time>2026-05-02T16:11:13Z</time></trkpt><trkpt lat="43.78164373475113" lon="12.017850223677588"><ele>851.0</ele><time>2026-05-02T16:11:14Z</time></trkpt><trkpt lat="43.78175029484071" lon="12.017946099701305"><ele>851.0</ele><time>2026-05-02T16:11:15Z</time></trkpt><trkpt lat="43.781837072569736" lon="12.018050241398003"><ele>851.0</ele><time>2026-05-02T16:11:16Z</time></trkpt><trkpt lat="43.78191396459368" lon="12.018163848746838"><ele>851.0</ele><time>2026-05-02T16:11:17Z</time></trkpt><trkpt lat="43.78198295042804" lon="12.018285920010905"><ele>851.0</ele><time>2026-05-02T16:11:18Z</time></trkpt><trkpt lat="43.78205163640034" lon="12.018415356574097"><ele>849.1999999999999</ele><time>2026-05-02T16:11:19Z</time></trkpt><trkpt lat="43.78210875091477" lon="12.01854742122675"><ele>847.4</ele><time>2026-05-02T16:11:20Z</time></trkpt><trkpt lat="43.782151633746" lon="12.01869265274274"><ele>845.6</ele><time>2026-05-02T16:11:21Z</time></trkpt><trkpt lat="43.78216698755839" lon="12.018845421966976"><ele>843.8</ele><time>2026-05-02T16:11:22Z</time></trkpt><trkpt lat="43.78217615798029" lon="12.019000007732684"><ele>842.0</ele><time>2026-05-02T16:11:23Z</time></trkpt><trkpt lat="43.782171836155065" lon="12.019138417693918"><ele>841.8</ele><time>2026-05-02T16:11:24Z</time></trkpt><trkpt lat="43.78211756794872" lon="12.019235731986447"><ele>841.6</ele><time>2026-05-02T16:11:25Z</time></trkpt><trkpt lat="43.78205242579411" lon="12.019310101709424"><ele>841.4</ele><time>2026-05-02T16:11:26Z</time></trkpt><trkpt lat="43.78196661084681" lon="12.019344405313689"><ele>841.1999999999999</ele><time>2026-05-02T16:11:27Z</time></trkpt><trkpt lat="43.78185428213855" lon="12.019346351983533"><ele>841.0</ele><time>2026-05-02T16:11:28Z</time></trkpt><trkpt lat="43.78172176582623" lon="12.019338238152377"><ele>842.0</ele><time>2026-05-02T16:11:29Z</time></trkpt><trkpt lat="43.78159460130504" lon="12.019334510471387"><ele>843.0</ele><time>2026-05-02T16:11:30Z</time></trkpt><trkpt lat="43.78149895202847" lon="12.019317290632765"><ele>844.0</ele><time>2026-05-02T16:11:31Z</time></trkpt><trkpt lat="43.781419645747796" lon="12.019347958803195"><ele>845.0</ele><time>2026-05-02T16:11:32Z</time></trkpt><trkpt lat="43.78134658642789" lon="12.019395464792705"><ele>846.0</ele><time>2026-05-02T16:11:33Z</time></trkpt><trkpt lat="43.78131732569914" lon="12.019524354535676"><ele>846.0</ele><time>2026-05-02T16:11:34Z</time></trkpt><trkpt lat="43.781342851740945" lon="12.01967777472416"><ele>846.0</ele><time>2026-05-02T16:11:35Z</time></trkpt><trkpt lat="43.7814117016749" lon="12.01982355071183"><ele>846.0</ele><time>2026-05-02T16:11:36Z</time></trkpt><trkpt lat="43.781458543633626" lon="12.019994047685687"><ele>846.0</ele><time>2026-05-02T16:11:37Z</time></trkpt><trkpt lat="43.781507583859245" lon="12.020160679363315"><ele>847.75</ele><time>2026-05-02T16:11:38Z</time></trkpt><trkpt lat="43.78157196219609" lon="12.020307949961417"><ele>849.5</ele><time>2026-05-02T16:11:39Z</time></trkpt><trkpt lat="43.78169042208241" lon="12.02044028398085"><ele>851.25</ele><time>2026-05-02T16:11:40Z</time></trkpt><trkpt lat="43.78178825738245" lon="12.020591388243492"><ele>853.0</ele><time>2026-05-02T16:11:41Z</time></trkpt><trkpt lat="43.781848589245776" lon="12.020732162229848"><ele>853.4</ele><time>2026-05-02T16:11:42Z</time></trkpt><trkpt lat="43.781876111034784" lon="12.020876598271045"><ele>853.8</ele><time>2026-05-02T16:11:43Z</time></trkpt><trkpt lat="43.78188919357747" lon="12.0210294809738"><ele>854.2</ele><time>2026-05-02T16:11:44Z</time></trkpt><trkpt lat="43.78186671435955" lon="12.02115149373763"><ele>854.6</ele><time>2026-05-02T16:11:45Z</time></trkpt><trkpt lat="43.78182035048536" lon="12.021272414127496"><ele>855.0</ele><time>2026-05-02T16:11:46Z</time></trkpt><trkpt lat="43.7817487196771" lon="12.02139282287022"><ele>855.0</ele><time>2026-05-02T16:11:47Z</time></trkpt><trkpt lat="43.781701309540345" lon="12.02151153809053"><ele>855.0</ele><time>2026-05-02T16:11:48Z</time></trkpt><trkpt lat="43.78164682468155" lon="12.021617266410585"><ele>855.0</ele><time>2026-05-02T16:11:49Z</time></trkpt><trkpt lat="43.78168164778794" lon="12.021784730025708"><ele>855.0</ele><time>2026-05-02T16:11:50Z</time></trkpt><trkpt lat="43.78171808999187" lon="12.021954858541662"><ele>855.0</ele><time>2026-05-02T16:11:51Z</time></trkpt><trkpt lat="43.78175507525983" lon="12.022100174588832"><ele>855.6</ele><time>2026-05-02T16:11:52Z</time></trkpt><trkpt lat="43.781798281582965" lon="12.022214255903618"><ele>856.2</ele><time>2026-05-02T16:11:53Z</time></trkpt><trkpt lat="43.78188033447906" lon="12.022303059655925"><ele>856.8</ele><time>2026-05-02T16:11:54Z</time></trkpt><trkpt lat="43.78200604239689" lon="12.022351843566435"><ele>857.4</ele><time>2026-05-02T16:11:55Z</time></trkpt><trkpt lat="43.78211867249591" lon="12.022392132151223"><ele>858.0</ele><time>2026-05-02T16:11:56Z</time></trkpt><trkpt lat="43.78220791357253" lon="12.022430025614858"><ele>859.1666666666666</ele><time>2026-05-02T16:11:57Z</time></trkpt><trkpt lat="43.78226423026812" lon="12.02249153309284"><ele>860.3333333333333</ele><time>2026-05-02T16:11:58Z</time></trkpt><trkpt lat="43.78229298301753" lon="12.022585497047881"><ele>861.5</ele><time>2026-05-02T16:11:59Z</time></trkpt><trkpt lat="43.782247187477395" lon="12.022698584878388"><ele>862.6666666666666</ele><time>2026-05-02T16:12:00Z</time></trkpt><trkpt lat="43.78221784290917" lon="12.022823988607952"><ele>863.8333333333333</ele><time>2026-05-02T16:12:01Z</time></trkpt><trkpt lat="43.782193202372945" lon="12.022929750187489"><ele>865.0</ele><time>2026-05-02T16:12:02Z</time></trkpt><trkpt lat="43.78218794712965" lon="12.02305612814585"><ele>864.9999999999999</ele><time>2026-05-02T16:12:04Z</time></trkpt><trkpt lat="43.78216843745403" lon="12.023153932330839"><ele>865.0</ele><time>2026-05-02T16:12:08Z</time></trkpt><trkpt lat="43.782204260029516" lon="12.023245863830073"><ele>865.0</ele><time>2026-05-02T16:12:14Z</time></trkpt><trkpt lat="43.78231677067308" lon="12.023324578278078"><ele>865.0</ele><time>2026-05-02T16:12:16Z</time></trkpt><trkpt lat="43.78237953047433" lon="12.023371743083475"><ele>864.9999999999999</ele><time>2026-05-02T16:12:17Z</time></trkpt><trkpt lat="43.782454541955275" lon="12.023429042729182"><ele>865.0</ele><time>2026-05-02T16:12:18Z</time></trkpt><trkpt lat="43.782524949627124" lon="12.02347771392555"><ele>864.3333333333333</ele><time>2026-05-02T16:12:19Z</time></trkpt><trkpt lat="43.782601240089136" lon="12.023538315652443"><ele>863.6666666666666</ele><time>2026-05-02T16:12:20Z</time></trkpt><trkpt lat="43.78267640487362" lon="12.023605771811921"><ele>863.0</ele><time>2026-05-02T16:12:21Z</time></trkpt><trkpt lat="43.78275309409241" lon="12.023667838477946"><ele>862.3333333333333</ele><time>2026-05-02T16:12:22Z</time></trkpt><trkpt lat="43.78282941768914" lon="12.023728949031188"><ele>861.6666666666666</ele><time>2026-05-02T16:12:23Z</time></trkpt><trkpt lat="43.782907743253105" lon="12.023787662539203"><ele>861.0</ele><time>2026-05-02T16:12:24Z</time></trkpt><trkpt lat="43.78298541589449" lon="12.023851026756756"><ele>861.5</ele><time>2026-05-02T16:12:25Z</time></trkpt><trkpt lat="43.78305140328219" lon="12.023918509085673"><ele>862.0</ele><time>2026-05-02T16:12:26Z</time></trkpt><trkpt lat="43.783124243291226" lon="12.023967116864938"><ele>862.5</ele><time>2026-05-02T16:12:27Z</time></trkpt><trkpt lat="43.7831890226922" lon="12.024038441241052"><ele>863.0</ele><time>2026-05-02T16:12:28Z</time></trkpt><trkpt lat="43.78324154647616" lon="12.024149309336472"><ele>863.5</ele><time>2026-05-02T16:12:29Z</time></trkpt><trkpt lat="43.783263966113005" lon="12.024295755157697"><ele>864.0</ele><time>2026-05-02T16:12:30Z</time></trkpt><trkpt lat="43.78324935051986" lon="12.02446191998554"><ele>864.0</ele><time>2026-05-02T16:12:31Z</time></trkpt><trkpt lat="43.78321577630448" lon="12.024624213847583"><ele>864.0000000000001</ele><time>2026-05-02T16:12:32Z</time></trkpt><trkpt lat="43.78316912368815" lon="12.024755793482058"><ele>864.0000000000001</ele><time>2026-05-02T16:12:33Z</time></trkpt><trkpt lat="43.78312046322138" lon="12.02485312104724"><ele>864.0</ele><time>2026-05-02T16:12:34Z</time></trkpt><trkpt lat="43.783082831727086" lon="12.02494135388545"><ele>864.0</ele><time>2026-05-02T16:12:35Z</time></trkpt><trkpt lat="43.78306438921438" lon="12.025033183385125"><ele>863.4000000000001</ele><time>2026-05-02T16:12:36Z</time></trkpt><trkpt lat="43.78308572361762" lon="12.025134075249504"><ele>862.8000000000001</ele><time>2026-05-02T16:12:37Z</time></trkpt><trkpt lat="43.783147264802956" lon="12.025207743653977"><ele>862.1999999999999</ele><time>2026-05-02T16:12:38Z</time></trkpt><trkpt lat="43.78324438478292" lon="12.02523745188717"><ele>861.5999999999999</ele><time>2026-05-02T16:12:39Z</time></trkpt><trkpt lat="43.783359524866235" lon="12.025254003591883"><ele>861.0</ele><time>2026-05-02T16:12:40Z</time></trkpt><trkpt lat="43.78348023301469" lon="12.025254656812155"><ele>861.0</ele><time>2026-05-02T16:12:41Z</time></trkpt><trkpt lat="43.78359695856743" lon="12.025248331170515"><ele>860.9999999999999</ele><time>2026-05-02T16:12:42Z</time></trkpt><trkpt lat="43.783705460051934" lon="12.025210562183819"><ele>860.9999999999999</ele><time>2026-05-02T16:12:43Z</time></trkpt><trkpt lat="43.783797176955304" lon="12.025144719996279"><ele>861.0</ele><time>2026-05-02T16:12:44Z</time></trkpt><trkpt lat="43.78389356902908" lon="12.025106748058214"><ele>861.0</ele><time>2026-05-02T16:12:45Z</time></trkpt><trkpt lat="43.7839906632627" lon="12.025160341640557"><ele>861.0</ele><time>2026-05-02T16:12:46Z</time></trkpt><trkpt lat="43.7840644280783" lon="12.025245955371975"><ele>861.0</ele><time>2026-05-02T16:12:47Z</time></trkpt><trkpt lat="43.78415866826946" lon="12.02525552560949"><ele>861.0</ele><time>2026-05-02T16:12:48Z</time></trkpt><trkpt lat="43.78425922122317" lon="12.025255494268782"><ele>861.0</ele><time>2026-05-02T16:12:49Z</time></trkpt><trkpt lat="43.7843402107548" lon="12.025246621170055"><ele>861.0</ele><time>2026-05-02T16:12:50Z</time></trkpt><trkpt lat="43.784410003180604" lon="12.025226443190942"><ele>861.0</ele><time>2026-05-02T16:12:51Z</time></trkpt><trkpt lat="43.78447509352209" lon="12.025163072438035"><ele>861.1666666666666</ele><time>2026-05-02T16:12:52Z</time></trkpt><trkpt lat="43.78453705394301" lon="12.025042018319303"><ele>861.3333333333333</ele><time>2026-05-02T16:12:53Z</time></trkpt><trkpt lat="43.78457947071266" lon="12.024950350562529"><ele>861.5</ele><time>2026-05-02T16:12:54Z</time></trkpt><trkpt lat="43.78463751435781" lon="12.0248940162981"><ele>861.6666666666666</ele><time>2026-05-02T16:12:55Z</time></trkpt><trkpt lat="43.78472253255473" lon="12.024904208278809"><ele>861.8333333333333</ele><time>2026-05-02T16:12:56Z</time></trkpt><trkpt lat="43.784802364894844" lon="12.024967416652606"><ele>862.0</ele><time>2026-05-02T16:12:57Z</time></trkpt><trkpt lat="43.7848501567489" lon="12.025037821452177"><ele>861.9999999999999</ele><time>2026-05-02T16:12:58Z</time></trkpt><trkpt lat="43.784924759334324" lon="12.02508835392296"><ele>862.0</ele><time>2026-05-02T16:13:00Z</time></trkpt><trkpt lat="43.78494983850231" lon="12.025170876582685"><ele>862.0</ele><time>2026-05-02T16:13:04Z</time></trkpt><trkpt lat="43.78497072841192" lon="12.025273827602119"><ele>862.0</ele><time>2026-05-02T16:13:07Z</time></trkpt><trkpt lat="43.785083656182735" lon="12.025355984302422"><ele>861.9999999999999</ele><time>2026-05-02T16:13:09Z</time></trkpt><trkpt lat="43.7851685426016" lon="12.025381024073862"><ele>862.0</ele><time>2026-05-02T16:13:10Z</time></trkpt><trkpt lat="43.78525500172658" lon="12.025407998138114"><ele>862.8</ele><time>2026-05-02T16:13:11Z</time></trkpt><trkpt lat="43.785341134837054" lon="12.025443910992653"><ele>863.6</ele><time>2026-05-02T16:13:12Z</time></trkpt><trkpt lat="43.78542458567832" lon="12.025458672896663"><ele>864.3999999999999</ele><time>2026-05-02T16:13:13Z</time></trkpt><trkpt lat="43.785516707256534" lon="12.025461426458056"><ele>865.1999999999999</ele><time>2026-05-02T16:13:14Z</time></trkpt><trkpt lat="43.78561023524521" lon="12.025439708746152"><ele>866.0</ele><time>2026-05-02T16:13:15Z</time></trkpt><trkpt lat="43.78570981565172" lon="12.025409549996214"><ele>866.0</ele><time>2026-05-02T16:13:16Z</time></trkpt><trkpt lat="43.78580664982518" lon="12.02536708223458"><ele>865.9999999999999</ele><time>2026-05-02T16:13:17Z</time></trkpt><trkpt lat="43.785901882560076" lon="12.025323052068288"><ele>865.9999999999999</ele><time>2026-05-02T16:13:18Z</time></trkpt><trkpt lat="43.78599366860636" lon="12.025271584756366"><ele>866.0</ele><time>2026-05-02T16:13:19Z</time></trkpt><trkpt lat="43.78608479363827" lon="12.025214811475465"><ele>866.0</ele><time>2026-05-02T16:13:20Z</time></trkpt><trkpt lat="43.7861823570963" lon="12.025159617045396"><ele>863.8</ele><time>2026-05-02T16:13:21Z</time></trkpt><trkpt lat="43.786278865804775" lon="12.025113290318133"><ele>861.5999999999999</ele><time>2026-05-02T16:13:22Z</time></trkpt><trkpt lat="43.78637170656176" lon="12.025064634738781"><ele>859.4</ele><time>2026-05-02T16:13:23Z</time></trkpt><trkpt lat="43.78647131185242" lon="12.025013717390419"><ele>857.2</ele><time>2026-05-02T16:13:24Z</time></trkpt><trkpt lat="43.78657489574067" lon="12.024991359415251"><ele>855.0</ele><time>2026-05-02T16:13:25Z</time></trkpt><trkpt lat="43.78668823458624" lon="12.025014038038316"><ele>855.0</ele><time>2026-05-02T16:13:26Z</time></trkpt><trkpt lat="43.78680239705969" lon="12.025072900361957"><ele>855.0</ele><time>2026-05-02T16:13:27Z</time></trkpt><trkpt lat="43.786897523744734" lon="12.025177285012406"><ele>855.0</ele><time>2026-05-02T16:13:28Z</time></trkpt><trkpt lat="43.78698933734619" lon="12.02527615923106"><ele>855.0</ele><time>2026-05-02T16:13:29Z</time></trkpt><trkpt lat="43.78702792702866" lon="12.025455141595813"><ele>853.2</ele><time>2026-05-02T16:13:30Z</time></trkpt><trkpt lat="43.78705625533766" lon="12.025616806956942"><ele>851.4</ele><time>2026-05-02T16:13:31Z</time></trkpt><trkpt lat="43.78707812574259" lon="12.025759778763488"><ele>849.5999999999999</ele><time>2026-05-02T16:13:32Z</time></trkpt><trkpt lat="43.78710464280079" lon="12.025854193843472"><ele>847.8</ele><time>2026-05-02T16:13:33Z</time></trkpt><trkpt lat="43.787138808338405" lon="12.025970286049084"><ele>846.0</ele><time>2026-05-02T16:13:34Z</time></trkpt><trkpt lat="43.78722458206486" lon="12.026056335998911"><ele>846.0</ele><time>2026-05-02T16:13:35Z</time></trkpt><trkpt lat="43.78733038372582" lon="12.026119742898045"><ele>846.0</ele><time>2026-05-02T16:13:36Z</time></trkpt><trkpt lat="43.787448893134" lon="12.026108001719912"><ele>846.0</ele><time>2026-05-02T16:13:37Z</time></trkpt><trkpt lat="43.787577279729575" lon="12.026053880699413"><ele>846.0</ele><time>2026-05-02T16:13:38Z</time></trkpt><trkpt lat="43.7876896956686" lon="12.026003606552937"><ele>841.75</ele><time>2026-05-02T16:13:39Z</time></trkpt><trkpt lat="43.78779531583814" lon="12.026020084760107"><ele>837.5</ele><time>2026-05-02T16:13:40Z</time></trkpt><trkpt lat="43.78788211301003" lon="12.026095038950176"><ele>833.25</ele><time>2026-05-02T16:13:41Z</time></trkpt><trkpt lat="43.78795340750099" lon="12.026223433320263"><ele>829.0</ele><time>2026-05-02T16:13:42Z</time></trkpt><trkpt lat="43.788009173847655" lon="12.026383443236496"><ele>829.0</ele><time>2026-05-02T16:13:43Z</time></trkpt><trkpt lat="43.78806569594428" lon="12.026545796772938"><ele>829.0</ele><time>2026-05-02T16:13:44Z</time></trkpt><trkpt lat="43.78813415732552" lon="12.026704397132672"><ele>829.0</ele><time>2026-05-02T16:13:45Z</time></trkpt><trkpt lat="43.78820141732574" lon="12.026849917683203"><ele>829.0</ele><time>2026-05-02T16:13:46Z</time></trkpt><trkpt lat="43.78827287871953" lon="12.027002210120946"><ele>830.8000000000001</ele><time>2026-05-02T16:13:47Z</time></trkpt><trkpt lat="43.78833854932486" lon="12.027149895784577"><ele>832.6</ele><time>2026-05-02T16:13:48Z</time></trkpt><trkpt lat="43.788402460092826" lon="12.027298051899209"><ele>834.4</ele><time>2026-05-02T16:13:49Z</time></trkpt><trkpt lat="43.7884554886211" lon="12.027416554026255"><ele>836.2</ele><time>2026-05-02T16:13:50Z</time></trkpt><trkpt lat="43.78851934147879" lon="12.027510767605813"><ele>838.0</ele><time>2026-05-02T16:13:51Z</time></trkpt><trkpt lat="43.788609123021715" lon="12.027578261132366"><ele>838.5999999999999</ele><time>2026-05-02T16:13:52Z</time></trkpt><trkpt lat="43.78870916098621" lon="12.027583595073231"><ele>839.1999999999999</ele><time>2026-05-02T16:13:53Z</time></trkpt><trkpt lat="43.788810978883895" lon="12.027552135272943"><ele>839.8</ele><time>2026-05-02T16:13:54Z</time></trkpt><trkpt lat="43.78891556021492" lon="12.0274968934884"><ele>840.4</ele><time>2026-05-02T16:13:55Z</time></trkpt><trkpt lat="43.789005862133045" lon="12.027440336184894"><ele>841.0</ele><time>2026-05-02T16:13:56Z</time></trkpt><trkpt lat="43.789085775112746" lon="12.027358637418848"><ele>841.0</ele><time>2026-05-02T16:13:57Z</time></trkpt><trkpt lat="43.78913926390075" lon="12.02723789862136"><ele>841.0</ele><time>2026-05-02T16:13:58Z</time></trkpt><trkpt lat="43.78916580791852" lon="12.027081445643045"><ele>841.0</ele><time>2026-05-02T16:13:59Z</time></trkpt><trkpt lat="43.78915150908622" lon="12.026929836900328"><ele>841.0</ele><time>2026-05-02T16:14:00Z</time></trkpt><trkpt lat="43.78911591348309" lon="12.02677137423893"><ele>841.0</ele><time>2026-05-02T16:14:01Z</time></trkpt><trkpt lat="43.78906704652323" lon="12.026596639335708"><ele>842.0</ele><time>2026-05-02T16:14:02Z</time></trkpt><trkpt lat="43.789014817404706" lon="12.026411883381368"><ele>843.0</ele><time>2026-05-02T16:14:03Z</time></trkpt><trkpt lat="43.788969563681825" lon="12.02623274087686"><ele>844.0</ele><time>2026-05-02T16:14:04Z</time></trkpt><trkpt lat="43.7889195777052" lon="12.02603951756989"><ele>845.0</ele><time>2026-05-02T16:14:05Z</time></trkpt><trkpt lat="43.78886013855694" lon="12.025864017181886"><ele>846.0</ele><time>2026-05-02T16:14:06Z</time></trkpt><trkpt lat="43.788791432937415" lon="12.025705228388814"><ele>847.0</ele><time>2026-05-02T16:14:07Z</time></trkpt><trkpt lat="43.78871585437068" lon="12.025538601444298"><ele>848.0</ele><time>2026-05-02T16:14:08Z</time></trkpt><trkpt lat="43.78862347042068" lon="12.02539890455858"><ele>849.0</ele><time>2026-05-02T16:14:09Z</time></trkpt><trkpt lat="43.78853195864366" lon="12.025264088921311"><ele>844.0</ele><time>2026-05-02T16:14:10Z</time></trkpt><trkpt lat="43.78845315789082" lon="12.025128348380958"><ele>839.0</ele><time>2026-05-02T16:14:11Z</time></trkpt><trkpt lat="43.78838056703376" lon="12.024983892429416"><ele>834.0</ele><time>2026-05-02T16:14:12Z</time></trkpt><trkpt lat="43.78832076654755" lon="12.024821912372575"><ele>829.0</ele><time>2026-05-02T16:14:13Z</time></trkpt><trkpt lat="43.7882941466583" lon="12.024654634999902"><ele>828.75</ele><time>2026-05-02T16:14:14Z</time></trkpt><trkpt lat="43.78825910056411" lon="12.02449917835357"><ele>828.5</ele><time>2026-05-02T16:14:15Z</time></trkpt><trkpt lat="43.78822184345945" lon="12.024338183994253"><ele>828.25</ele><time>2026-05-02T16:14:16Z</time></trkpt><trkpt lat="43.78818794952716" lon="12.024141937062138"><ele>828.0</ele><time>2026-05-02T16:14:17Z</time></trkpt><trkpt lat="43.78814449880535" lon="12.023967782984306"><ele>828.25</ele><time>2026-05-02T16:14:18Z</time></trkpt><trkpt lat="43.788099550215435" lon="12.023795422539981"><ele>828.5</ele><time>2026-05-02T16:14:19Z</time></trkpt><trkpt lat="43.788064557551735" lon="12.023611154897994"><ele>828.75</ele><time>2026-05-02T16:14:20Z</time></trkpt><trkpt lat="43.78802843992909" lon="12.023444941336258"><ele>829.0</ele><time>2026-05-02T16:14:21Z</time></trkpt><trkpt lat="43.78799045060226" lon="12.02328090505928"><ele>829.0</ele><time>2026-05-02T16:14:22Z</time></trkpt><trkpt lat="43.78795792519675" lon="12.023105372533086"><ele>829.0</ele><time>2026-05-02T16:14:23Z</time></trkpt><trkpt lat="43.7879320449201" lon="12.022948021997404"><ele>829.0</ele><time>2026-05-02T16:14:24Z</time></trkpt><trkpt lat="43.787899257186474" lon="12.022788509687892"><ele>829.0</ele><time>2026-05-02T16:14:25Z</time></trkpt><trkpt lat="43.78789040146377" lon="12.022614511872057"><ele>829.5</ele><time>2026-05-02T16:14:26Z</time></trkpt><trkpt lat="43.78787753974839" lon="12.022446811842032"><ele>830.0</ele><time>2026-05-02T16:14:27Z</time></trkpt><trkpt lat="43.787876884189195" lon="12.02226665501499"><ele>830.5</ele><time>2026-05-02T16:14:28Z</time></trkpt><trkpt lat="43.78786905898586" lon="12.022095249656713"><ele>831.0</ele><time>2026-05-02T16:14:29Z</time></trkpt><trkpt lat="43.78785780388338" lon="12.021922595738824"><ele>831.0</ele><time>2026-05-02T16:14:30Z</time></trkpt><trkpt lat="43.787851748442776" lon="12.021750404581391"><ele>831.0</ele><time>2026-05-02T16:14:31Z</time></trkpt><trkpt lat="43.78784303957307" lon="12.021567020381372"><ele>831.0</ele><time>2026-05-02T16:14:32Z</time></trkpt><trkpt lat="43.78786047902117" lon="12.021368912662645"><ele>831.0</ele><time>2026-05-02T16:14:33Z</time></trkpt><trkpt lat="43.7878512881656" lon="12.021196562155335"><ele>830.5</ele><time>2026-05-02T16:14:34Z</time></trkpt><trkpt lat="43.787863323975174" lon="12.021014381122328"><ele>830.0</ele><time>2026-05-02T16:14:35Z</time></trkpt><trkpt lat="43.78789220284621" lon="12.020825004519768"><ele>829.5</ele><time>2026-05-02T16:14:36Z</time></trkpt><trkpt lat="43.787928626517775" lon="12.020645012223667"><ele>829.0</ele><time>2026-05-02T16:14:37Z</time></trkpt><trkpt lat="43.78796727874414" lon="12.020465058257956"><ele>827.25</ele><time>2026-05-02T16:14:38Z</time></trkpt><trkpt lat="43.78799526097454" lon="12.020274168726722"><ele>825.5</ele><time>2026-05-02T16:14:39Z</time></trkpt><trkpt lat="43.788036956617454" lon="12.020091127607827"><ele>823.75</ele><time>2026-05-02T16:14:40Z</time></trkpt><trkpt lat="43.78806857587758" lon="12.019919484705694"><ele>822.0</ele><time>2026-05-02T16:14:41Z</time></trkpt><trkpt lat="43.788106889734685" lon="12.019754839705563"><ele>820.5</ele><time>2026-05-02T16:14:42Z</time></trkpt><trkpt lat="43.78814599044658" lon="12.019592350133674"><ele>819.0</ele><time>2026-05-02T16:14:43Z</time></trkpt><trkpt lat="43.7881858771234" lon="12.019443915568091"><ele>817.5</ele><time>2026-05-02T16:14:44Z</time></trkpt><trkpt lat="43.788227372693356" lon="12.019276703073134"><ele>816.0</ele><time>2026-05-02T16:14:45Z</time></trkpt><trkpt lat="43.78826711561206" lon="12.019120688319097"><ele>814.5999999999999</ele><time>2026-05-02T16:14:46Z</time></trkpt><trkpt lat="43.78830002796179" lon="12.018963971462302"><ele>813.2</ele><time>2026-05-02T16:14:47Z</time></trkpt><trkpt lat="43.78831477803151" lon="12.018808601975662"><ele>811.8</ele><time>2026-05-02T16:14:48Z</time></trkpt><trkpt lat="43.788296557314" lon="12.018666468807472"><ele>810.4000000000001</ele><time>2026-05-02T16:14:49Z</time></trkpt><trkpt lat="43.78825098979613" lon="12.018522741028823"><ele>809.0</ele><time>2026-05-02T16:14:50Z</time></trkpt><trkpt lat="43.788178778795306" lon="12.01840455281056"><ele>807.6666666666667</ele><time>2026-05-02T16:14:51Z</time></trkpt><trkpt lat="43.788117736402796" lon="12.018295423694973"><ele>806.3333333333334</ele><time>2026-05-02T16:14:52Z</time></trkpt><trkpt lat="43.788077664195946" lon="12.01819417968816"><ele>805.0</ele><time>2026-05-02T16:14:53Z</time></trkpt><trkpt lat="43.78808083084001" lon="12.018089289759832"><ele>803.6666666666667</ele><time>2026-05-02T16:14:54Z</time></trkpt><trkpt lat="43.788123723664306" lon="12.017980670485784"><ele>802.3333333333334</ele><time>2026-05-02T16:14:55Z</time></trkpt><trkpt lat="43.788199717797006" lon="12.017903958512973"><ele>801.0</ele><time>2026-05-02T16:14:56Z</time></trkpt><trkpt lat="43.788280221723426" lon="12.017899489858861"><ele>801.0</ele><time>2026-05-02T16:14:57Z</time></trkpt><trkpt lat="43.788356178662916" lon="12.017982718701203"><ele>801.0</ele><time>2026-05-02T16:14:58Z</time></trkpt><trkpt lat="43.788412538824815" lon="12.018086463532667"><ele>801.0</ele><time>2026-05-02T16:14:59Z</time></trkpt><trkpt lat="43.7884395433489" lon="12.018221768631504"><ele>801.0</ele><time>2026-05-02T16:15:00Z</time></trkpt><trkpt lat="43.78847447084678" lon="12.01833971001526"><ele>801.0</ele><time>2026-05-02T16:15:01Z</time></trkpt><trkpt lat="43.78852217846384" lon="12.01844286372479"><ele>801.0</ele><time>2026-05-02T16:15:02Z</time></trkpt><trkpt lat="43.788584170779814" lon="12.018519587223784"><ele>801.0</ele><time>2026-05-02T16:15:03Z</time></trkpt><trkpt lat="43.788680509300036" lon="12.0185139382381"><ele>801.0</ele><time>2026-05-02T16:15:04Z</time></trkpt><trkpt lat="43.78876936565922" lon="12.018482389202513"><ele>801.0</ele><time>2026-05-02T16:15:05Z</time></trkpt><trkpt lat="43.78883583043439" lon="12.018392734195233"><ele>801.0</ele><time>2026-05-02T16:15:06Z</time></trkpt><trkpt lat="43.78886286938893" lon="12.018270392624272"><ele>801.0</ele><time>2026-05-02T16:15:07Z</time></trkpt><trkpt lat="43.788845865081704" lon="12.018147830350298"><ele>801.0</ele><time>2026-05-02T16:15:08Z</time></trkpt><trkpt lat="43.78879178608694" lon="12.018029154237192"><ele>801.0</ele><time>2026-05-02T16:15:09Z</time></trkpt><trkpt lat="43.78869060202734" lon="12.017945073017431"><ele>801.0</ele><time>2026-05-02T16:15:10Z</time></trkpt><trkpt lat="43.7885952600592" lon="12.01781604938965"><ele>801.0</ele><time>2026-05-02T16:15:11Z</time></trkpt><trkpt lat="43.788494800959576" lon="12.017684031868193"><ele>801.0</ele><time>2026-05-02T16:15:12Z</time></trkpt><trkpt lat="43.78841627278158" lon="12.017532257556123"><ele>801.0</ele><time>2026-05-02T16:15:13Z</time></trkpt><trkpt lat="43.788343451101824" lon="12.017390354233477"><ele>801.0</ele><time>2026-05-02T16:15:14Z</time></trkpt><trkpt lat="43.788282911000294" lon="12.017263043876884"><ele>801.0</ele><time>2026-05-02T16:15:15Z</time></trkpt><trkpt lat="43.78821168597219" lon="12.017146958327512"><ele>798.25</ele><time>2026-05-02T16:15:16Z</time></trkpt><trkpt lat="43.78813723200473" lon="12.017049829412821"><ele>795.5</ele><time>2026-05-02T16:15:17Z</time></trkpt><trkpt lat="43.78801080548029" lon="12.016970480789263"><ele>792.75</ele><time>2026-05-02T16:15:18Z</time></trkpt><trkpt lat="43.78789571691296" lon="12.016944198273743"><ele>790.0</ele><time>2026-05-02T16:15:19Z</time></trkpt><trkpt lat="43.787799729375195" lon="12.01693172961932"><ele>789.9999999999999</ele><time>2026-05-02T16:15:20Z</time></trkpt><trkpt lat="43.787727781555795" lon="12.01688293323602"><ele>790.0</ele><time>2026-05-02T16:15:21Z</time></trkpt><trkpt lat="43.78766748870022" lon="12.016803047640295"><ele>790.0</ele><time>2026-05-02T16:15:22Z</time></trkpt><trkpt lat="43.78763737271835" lon="12.016714968754508"><ele>790.0</ele><time>2026-05-02T16:15:23Z</time></trkpt><trkpt lat="43.78763247869205" lon="12.01659671210198"><ele>789.9999999999999</ele><time>2026-05-02T16:15:24Z</time></trkpt><trkpt lat="43.78767853850639" lon="12.016468985546048"><ele>790.0</ele><time>2026-05-02T16:15:25Z</time></trkpt><trkpt lat="43.787749150339124" lon="12.016383555295793"><ele>787.5</ele><time>2026-05-02T16:15:26Z</time></trkpt><trkpt lat="43.78786242460813" lon="12.016368461982491"><ele>785.0</ele><time>2026-05-02T16:15:27Z</time></trkpt><trkpt lat="43.78799393076272" lon="12.016357464636586"><ele>782.5</ele><time>2026-05-02T16:15:28Z</time></trkpt><trkpt lat="43.788133637237095" lon="12.016330317685634"><ele>780.0</ele><time>2026-05-02T16:15:29Z</time></trkpt><trkpt lat="43.78824227904592" lon="12.016323863207443"><ele>780.0</ele><time>2026-05-02T16:15:30Z</time></trkpt><trkpt lat="43.78832340860811" lon="12.016267529503112"><ele>780.0</ele><time>2026-05-02T16:15:31Z</time></trkpt><trkpt lat="43.788387284328216" lon="12.016165976393058"><ele>780.0</ele><time>2026-05-02T16:15:32Z</time></trkpt><trkpt lat="43.78840926173191" lon="12.016044221967052"><ele>780.0</ele><time>2026-05-02T16:15:33Z</time></trkpt><trkpt lat="43.78838409680996" lon="12.01591003551651"><ele>780.0</ele><time>2026-05-02T16:15:34Z</time></trkpt><trkpt lat="43.78834983366797" lon="12.015784710608628"><ele>778.0</ele><time>2026-05-02T16:15:35Z</time></trkpt><trkpt lat="43.7882695060777" lon="12.0156882025276"><ele>776.0</ele><time>2026-05-02T16:15:36Z</time></trkpt><trkpt lat="43.78816181610879" lon="12.015636471658638"><ele>774.0</ele><time>2026-05-02T16:15:37Z</time></trkpt><trkpt lat="43.78804230719292" lon="12.015632909808177"><ele>772.0</ele><time>2026-05-02T16:15:38Z</time></trkpt><trkpt lat="43.787919559253716" lon="12.015684740868295"><ele>772.0</ele><time>2026-05-02T16:15:39Z</time></trkpt><trkpt lat="43.787801983131594" lon="12.015762275996932"><ele>772.0</ele><time>2026-05-02T16:15:40Z</time></trkpt><trkpt lat="43.78768567134305" lon="12.015813890945237"><ele>772.0</ele><time>2026-05-02T16:15:41Z</time></trkpt><trkpt lat="43.78757988333066" lon="12.015808710369392"><ele>772.0</ele><time>2026-05-02T16:15:42Z</time></trkpt><trkpt lat="43.78748841059956" lon="12.015755237972737"><ele>771.6</ele><time>2026-05-02T16:15:43Z</time></trkpt><trkpt lat="43.787415449206556" lon="12.01565863669119"><ele>771.2</ele><time>2026-05-02T16:15:44Z</time></trkpt><trkpt lat="43.78737551679453" lon="12.0155176256506"><ele>770.8</ele><time>2026-05-02T16:15:45Z</time></trkpt><trkpt lat="43.78735677614042" lon="12.015368166086615"><ele>770.4</ele><time>2026-05-02T16:15:46Z</time></trkpt><trkpt lat="43.787366088482266" lon="12.015195493831559"><ele>770.0</ele><time>2026-05-02T16:15:47Z</time></trkpt><trkpt lat="43.78741458982947" lon="12.015046582785642"><ele>768.0</ele><time>2026-05-02T16:15:48Z</time></trkpt><trkpt lat="43.78748818130721" lon="12.014950200207688"><ele>766.0</ele><time>2026-05-02T16:15:49Z</time></trkpt><trkpt lat="43.78760623443653" lon="12.014906833802204"><ele>764.0</ele><time>2026-05-02T16:15:50Z</time></trkpt><trkpt lat="43.78773289733138" lon="12.014899535494084"><ele>762.0</ele><time>2026-05-02T16:15:51Z</time></trkpt><trkpt lat="43.78786877453261" lon="12.014882189070564"><ele>761.75</ele><time>2026-05-02T16:15:52Z</time></trkpt><trkpt lat="43.78799666891013" lon="12.01487189418531"><ele>761.5</ele><time>2026-05-02T16:15:53Z</time></trkpt><trkpt lat="43.788103502317476" lon="12.014844050025443"><ele>761.25</ele><time>2026-05-02T16:15:54Z</time></trkpt><trkpt lat="43.78821112445445" lon="12.014780445377676"><ele>761.0</ele><time>2026-05-02T16:15:55Z</time></trkpt><trkpt lat="43.788309380565124" lon="12.014690820791683"><ele>761.0</ele><time>2026-05-02T16:15:56Z</time></trkpt><trkpt lat="43.788402637458205" lon="12.014561234910264"><ele>761.0</ele><time>2026-05-02T16:15:57Z</time></trkpt><trkpt lat="43.78848058732324" lon="12.014405415440002"><ele>761.0</ele><time>2026-05-02T16:15:58Z</time></trkpt><trkpt lat="43.788537732030726" lon="12.01424458650643"><ele>761.0</ele><time>2026-05-02T16:15:59Z</time></trkpt><trkpt lat="43.78860619118735" lon="12.014112413854944"><ele>759.4</ele><time>2026-05-02T16:16:00Z</time></trkpt><trkpt lat="43.7886753310536" lon="12.014023065156291"><ele>757.8</ele><time>2026-05-02T16:16:01Z</time></trkpt><trkpt lat="43.78876057597339" lon="12.013968843746982"><ele>756.1999999999999</ele><time>2026-05-02T16:16:02Z</time></trkpt><trkpt lat="43.788862258946956" lon="12.013988613018894"><ele>754.5999999999999</ele><time>2026-05-02T16:16:03Z</time></trkpt><trkpt lat="43.788956411917894" lon="12.014037012171721"><ele>753.0</ele><time>2026-05-02T16:16:04Z</time></trkpt><trkpt lat="43.789038123401085" lon="12.014144512346496"><ele>754.25</ele><time>2026-05-02T16:16:05Z</time></trkpt><trkpt lat="43.789148438337484" lon="12.014258170677516"><ele>755.5</ele><time>2026-05-02T16:16:06Z</time></trkpt><trkpt lat="43.78925656576146" lon="12.014369800794508"><ele>756.75</ele><time>2026-05-02T16:16:07Z</time></trkpt><trkpt lat="43.78936065843465" lon="12.01447118770771"><ele>758.0</ele><time>2026-05-02T16:16:08Z</time></trkpt><trkpt lat="43.7894770773146" lon="12.014550190527784"><ele>758.25</ele><time>2026-05-02T16:16:09Z</time></trkpt><trkpt lat="43.7896121036577" lon="12.014572879993803"><ele>758.5</ele><time>2026-05-02T16:16:10Z</time></trkpt><trkpt lat="43.78975034460383" lon="12.0146335255252"><ele>758.75</ele><time>2026-05-02T16:16:11Z</time></trkpt><trkpt lat="43.78988410277335" lon="12.01467078722584"><ele>759.0</ele><time>2026-05-02T16:16:12Z</time></trkpt><trkpt lat="43.79000842129609" lon="12.01470541925976"><ele>759.0</ele><time>2026-05-02T16:16:13Z</time></trkpt><trkpt lat="43.790120472014515" lon="12.014734003643529"><ele>759.0</ele><time>2026-05-02T16:16:14Z</time></trkpt><trkpt lat="43.79024273067301" lon="12.014743371791607"><ele>759.0</ele><time>2026-05-02T16:16:15Z</time></trkpt><trkpt lat="43.79036307028779" lon="12.014758438318317"><ele>759.0</ele><time>2026-05-02T16:16:16Z</time></trkpt><trkpt lat="43.79048207089666" lon="12.01473699640742"><ele>763.25</ele><time>2026-05-02T16:16:17Z</time></trkpt><trkpt lat="43.790591074222185" lon="12.01467226094381"><ele>767.5</ele><time>2026-05-02T16:16:18Z</time></trkpt><trkpt lat="43.79069171562317" lon="12.014585376897822"><ele>771.75</ele><time>2026-05-02T16:16:19Z</time></trkpt><trkpt lat="43.79077990250157" lon="12.014477638983296"><ele>776.0</ele><time>2026-05-02T16:16:20Z</time></trkpt><trkpt lat="43.79086035226955" lon="12.014353241069117"><ele>776.0</ele><time>2026-05-02T16:16:21Z</time></trkpt><trkpt lat="43.79089860093674" lon="12.01419830933036"><ele>776.0</ele><time>2026-05-02T16:16:22Z</time></trkpt><trkpt lat="43.790917281574266" lon="12.014028362653304"><ele>776.0</ele><time>2026-05-02T16:16:23Z</time></trkpt><trkpt lat="43.790883591926466" lon="12.013848981529085"><ele>776.0</ele><time>2026-05-02T16:16:24Z</time></trkpt><trkpt lat="43.79083800015752" lon="12.013671078524249"><ele>777.5</ele><time>2026-05-02T16:16:25Z</time></trkpt><trkpt lat="43.79079681562915" lon="12.013492644125751"><ele>779.0</ele><time>2026-05-02T16:16:26Z</time></trkpt><trkpt lat="43.79074668903217" lon="12.013322874415975"><ele>780.5</ele><time>2026-05-02T16:16:27Z</time></trkpt><trkpt lat="43.79070890690923" lon="12.013179229375611"><ele>782.0</ele><time>2026-05-02T16:16:28Z</time></trkpt><trkpt lat="43.79067396489668" lon="12.013024449615916"><ele>784.5</ele><time>2026-05-02T16:16:29Z</time></trkpt><trkpt lat="43.79063755190108" lon="12.012876078103744"><ele>787.0</ele><time>2026-05-02T16:16:30Z</time></trkpt><trkpt lat="43.790606000294986" lon="12.012716727603905"><ele>789.5</ele><time>2026-05-02T16:16:31Z</time></trkpt><trkpt lat="43.79056055605564" lon="12.01255555432328"><ele>792.0</ele><time>2026-05-02T16:16:32Z</time></trkpt><trkpt lat="43.790514027280636" lon="12.012382428690012"><ele>793.0</ele><time>2026-05-02T16:16:33Z</time></trkpt><trkpt lat="43.790468682850744" lon="12.012223837604143"><ele>794.0</ele><time>2026-05-02T16:16:34Z</time></trkpt><trkpt lat="43.79044531856298" lon="12.01207817756846"><ele>795.0</ele><time>2026-05-02T16:16:35Z</time></trkpt><trkpt lat="43.79044355152" lon="12.011929644315446"><ele>796.0</ele><time>2026-05-02T16:16:36Z</time></trkpt><trkpt lat="43.79046531566398" lon="12.011807353592637"><ele>797.0</ele><time>2026-05-02T16:16:37Z</time></trkpt><trkpt lat="43.790520591280355" lon="12.011714478189646"><ele>798.0</ele><time>2026-05-02T16:16:38Z</time></trkpt><trkpt lat="43.79058780724945" lon="12.011606368245474"><ele>799.0</ele><time>2026-05-02T16:16:39Z</time></trkpt><trkpt lat="43.79065288500602" lon="12.011507285472845"><ele>800.0</ele><time>2026-05-02T16:16:40Z</time></trkpt><trkpt lat="43.79069392826134" lon="12.01139426095285"><ele>801.0</ele><time>2026-05-02T16:16:41Z</time></trkpt><trkpt lat="43.79069474777388" lon="12.011240469306172"><ele>802.0</ele><time>2026-05-02T16:16:42Z</time></trkpt><trkpt lat="43.790652493336815" lon="12.01108607346366"><ele>802.0</ele><time>2026-05-02T16:16:43Z</time></trkpt><trkpt lat="43.79059993639715" lon="12.01091179981653"><ele>802.0</ele><time>2026-05-02T16:16:44Z</time></trkpt><trkpt lat="43.79050925328251" lon="12.010772493863865"><ele>802.0</ele><time>2026-05-02T16:16:45Z</time></trkpt><trkpt lat="43.790401563279666" lon="12.010667728479165"><ele>802.0</ele><time>2026-05-02T16:16:46Z</time></trkpt><trkpt lat="43.790303981031784" lon="12.010551346608024"><ele>804.75</ele><time>2026-05-02T16:16:47Z</time></trkpt><trkpt lat="43.790245084138654" lon="12.010428213593471"><ele>807.5</ele><time>2026-05-02T16:16:48Z</time></trkpt><trkpt lat="43.79022420418297" lon="12.010262960507319"><ele>810.25</ele><time>2026-05-02T16:16:49Z</time></trkpt><trkpt lat="43.790212548039" lon="12.010092500315466"><ele>813.0</ele><time>2026-05-02T16:16:50Z</time></trkpt><trkpt lat="43.79022374012615" lon="12.009914443843904"><ele>813.0</ele><time>2026-05-02T16:16:51Z</time></trkpt><trkpt lat="43.79023086212781" lon="12.009755545432137"><ele>813.0</ele><time>2026-05-02T16:16:52Z</time></trkpt><trkpt lat="43.79021261150434" lon="12.009611771270011"><ele>813.0</ele><time>2026-05-02T16:16:53Z</time></trkpt><trkpt lat="43.79020117701634" lon="12.009468526333109"><ele>813.0</ele><time>2026-05-02T16:16:54Z</time></trkpt><trkpt lat="43.790204769259994" lon="12.009318466595534"><ele>813.0</ele><time>2026-05-02T16:16:55Z</time></trkpt><trkpt lat="43.79019824426428" lon="12.009144246389338"><ele>809.5</ele><time>2026-05-02T16:16:56Z</time></trkpt><trkpt lat="43.79021893153294" lon="12.008970590241768"><ele>806.0</ele><time>2026-05-02T16:16:57Z</time></trkpt><trkpt lat="43.79025000821525" lon="12.008796198350844"><ele>802.5</ele><time>2026-05-02T16:16:58Z</time></trkpt><trkpt lat="43.79028395108888" lon="12.008618134984705"><ele>799.0</ele><time>2026-05-02T16:16:59Z</time></trkpt><trkpt lat="43.790314879281595" lon="12.008462271759258"><ele>799.0</ele><time>2026-05-02T16:17:00Z</time></trkpt><trkpt lat="43.790339334468385" lon="12.008332414775689"><ele>799.0</ele><time>2026-05-02T16:17:01Z</time></trkpt><trkpt lat="43.79036253117148" lon="12.00821663512294"><ele>799.0</ele><time>2026-05-02T16:17:02Z</time></trkpt><trkpt lat="43.79039971055239" lon="12.008111778856431"><ele>799.0</ele><time>2026-05-02T16:17:03Z</time></trkpt><trkpt lat="43.79047233400783" lon="12.008000460923686"><ele>799.0</ele><time>2026-05-02T16:17:04Z</time></trkpt><trkpt lat="43.79057287856088" lon="12.007945832139562"><ele>798.25</ele><time>2026-05-02T16:17:05Z</time></trkpt><trkpt lat="43.79068835330693" lon="12.007908192059348"><ele>797.5</ele><time>2026-05-02T16:17:06Z</time></trkpt><trkpt lat="43.790805277431666" lon="12.007870349329256"><ele>796.75</ele><time>2026-05-02T16:17:07Z</time></trkpt><trkpt lat="43.790936071561326" lon="12.00784271927331"><ele>796.0</ele><time>2026-05-02T16:17:08Z</time></trkpt><trkpt lat="43.79106757493968" lon="12.007810029266077"><ele>796.0</ele><time>2026-05-02T16:17:09Z</time></trkpt><trkpt lat="43.791192537857704" lon="12.00776869615803"><ele>796.0</ele><time>2026-05-02T16:17:10Z</time></trkpt><trkpt lat="43.79131599736709" lon="12.007731385260517"><ele>796.0</ele><time>2026-05-02T16:17:11Z</time></trkpt><trkpt lat="43.79143209593629" lon="12.007690312735676"><ele>796.0</ele><time>2026-05-02T16:17:12Z</time></trkpt><trkpt lat="43.791540825986004" lon="12.007621790241329"><ele>796.0</ele><time>2026-05-02T16:17:13Z</time></trkpt><trkpt lat="43.791634716507986" lon="12.007523541905456"><ele>796.0</ele><time>2026-05-02T16:17:14Z</time></trkpt><trkpt lat="43.791703592495594" lon="12.007385475947828"><ele>796.0</ele><time>2026-05-02T16:17:15Z</time></trkpt><trkpt lat="43.79176725431711" lon="12.007216694543695"><ele>796.0</ele><time>2026-05-02T16:17:16Z</time></trkpt><trkpt lat="43.79183394566541" lon="12.007049913901438"><ele>797.5</ele><time>2026-05-02T16:17:17Z</time></trkpt><trkpt lat="43.79190090883042" lon="12.006905051410262"><ele>799.0</ele><time>2026-05-02T16:17:18Z</time></trkpt><trkpt lat="43.79197204872853" lon="12.00677441950121"><ele>800.5</ele><time>2026-05-02T16:17:19Z</time></trkpt><trkpt lat="43.792017227954894" lon="12.006636836427049"><ele>802.0</ele><time>2026-05-02T16:17:20Z</time></trkpt><trkpt lat="43.79203556848654" lon="12.00647651114378"><ele>802.0</ele><time>2026-05-02T16:17:21Z</time></trkpt><trkpt lat="43.79198211238887" lon="12.006329588494584"><ele>802.0</ele><time>2026-05-02T16:17:22Z</time></trkpt><trkpt lat="43.791934068446366" lon="12.006175924463248"><ele>802.0</ele><time>2026-05-02T16:17:23Z</time></trkpt><trkpt lat="43.79188486400609" lon="12.006029466844788"><ele>802.0</ele><time>2026-05-02T16:17:24Z</time></trkpt><trkpt lat="43.79185751419653" lon="12.005898623468132"><ele>799.6666666666666</ele><time>2026-05-02T16:17:25Z</time></trkpt><trkpt lat="43.79185269856112" lon="12.005772122974466"><ele>797.3333333333333</ele><time>2026-05-02T16:17:26Z</time></trkpt><trkpt lat="43.79188304323223" lon="12.005675160105998"><ele>795.0</ele><time>2026-05-02T16:17:27Z</time></trkpt><trkpt lat="43.79193509620789" lon="12.005585944846917"><ele>792.6666666666667</ele><time>2026-05-02T16:17:28Z</time></trkpt><trkpt lat="43.79200831961743" lon="12.00551969790949"><ele>790.3333333333334</ele><time>2026-05-02T16:17:29Z</time></trkpt><trkpt lat="43.79210545540854" lon="12.005522135162026"><ele>788.0</ele><time>2026-05-02T16:17:30Z</time></trkpt><trkpt lat="43.79220337963776" lon="12.00557558304658"><ele>788.0</ele><time>2026-05-02T16:17:31Z</time></trkpt><trkpt lat="43.79228779483583" lon="12.00566888557905"><ele>788.0</ele><time>2026-05-02T16:17:32Z</time></trkpt><trkpt lat="43.79238787273834" lon="12.005776536948774"><ele>788.0</ele><time>2026-05-02T16:17:33Z</time></trkpt><trkpt lat="43.79249610718024" lon="12.00585691937677"><ele>788.0</ele><time>2026-05-02T16:17:34Z</time></trkpt><trkpt lat="43.79261735250701" lon="12.005858082175761"><ele>792.2</ele><time>2026-05-02T16:17:35Z</time></trkpt><trkpt lat="43.79272921880027" lon="12.00584627302777"><ele>796.4</ele><time>2026-05-02T16:17:36Z</time></trkpt><trkpt lat="43.7928233074802" lon="12.005835534402069"><ele>800.6</ele><time>2026-05-02T16:17:37Z</time></trkpt><trkpt lat="43.79290932403867" lon="12.005837397645745"><ele>804.8000000000001</ele><time>2026-05-02T16:17:38Z</time></trkpt><trkpt lat="43.793000709814976" lon="12.00586220287913"><ele>809.0</ele><time>2026-05-02T16:17:39Z</time></trkpt><trkpt lat="43.79309929581538" lon="12.005865181371453"><ele>809.0</ele><time>2026-05-02T16:17:40Z</time></trkpt><trkpt lat="43.793206578491436" lon="12.005860042658142"><ele>809.0</ele><time>2026-05-02T16:17:41Z</time></trkpt><trkpt lat="43.79330570506682" lon="12.005812672807933"><ele>809.0</ele><time>2026-05-02T16:17:42Z</time></trkpt><trkpt lat="43.79338919460251" lon="12.005731903928499"><ele>809.0</ele><time>2026-05-02T16:17:43Z</time></trkpt><trkpt lat="43.7934414266233" lon="12.00559535924515"><ele>809.0</ele><time>2026-05-02T16:17:44Z</time></trkpt><trkpt lat="43.79344546110094" lon="12.005445971665546"><ele>808.4000000000001</ele><time>2026-05-02T16:17:45Z</time></trkpt><trkpt lat="43.79338633629018" lon="12.005313599826874"><ele>807.8</ele><time>2026-05-02T16:17:46Z</time></trkpt><trkpt lat="43.793319440189265" lon="12.005196725756093"><ele>807.2</ele><time>2026-05-02T16:17:47Z</time></trkpt><trkpt lat="43.79325724962235" lon="12.005073998832108"><ele>806.5999999999999</ele><time>2026-05-02T16:17:48Z</time></trkpt><trkpt lat="43.79318669099427" lon="12.00495379854883"><ele>806.0</ele><time>2026-05-02T16:17:49Z</time></trkpt><trkpt lat="43.79312229430584" lon="12.004836449798375"><ele>805.1999999999999</ele><time>2026-05-02T16:17:50Z</time></trkpt><trkpt lat="43.793061936455985" lon="12.00472259690725"><ele>804.4</ele><time>2026-05-02T16:17:51Z</time></trkpt><trkpt lat="43.793009005317515" lon="12.004608879597404"><ele>803.6</ele><time>2026-05-02T16:17:52Z</time></trkpt><trkpt lat="43.79295438957291" lon="12.00449143197673"><ele>802.8</ele><time>2026-05-02T16:17:53Z</time></trkpt><trkpt lat="43.79290909349913" lon="12.004388319710266"><ele>802.0</ele><time>2026-05-02T16:17:54Z</time></trkpt><trkpt lat="43.792885391393504" lon="12.004274784189766"><ele>799.6666666666666</ele><time>2026-05-02T16:17:55Z</time></trkpt><trkpt lat="43.79289214480528" lon="12.004159066601824"><ele>797.3333333333333</ele><time>2026-05-02T16:17:56Z</time></trkpt><trkpt lat="43.79292345664456" lon="12.004083101944707"><ele>795.0</ele><time>2026-05-02T16:17:57Z</time></trkpt><trkpt lat="43.79297390871221" lon="12.004026710137632"><ele>792.6666666666667</ele><time>2026-05-02T16:17:58Z</time></trkpt><trkpt lat="43.79306724509469" lon="12.003998599599566"><ele>790.3333333333334</ele><time>2026-05-02T16:18:00Z</time></trkpt><trkpt lat="43.79319366316352" lon="12.004037685297087"><ele>788.0</ele><time>2026-05-02T16:18:02Z</time></trkpt><trkpt lat="43.793245592743084" lon="12.004118034251025"><ele>789.6666666666667</ele><time>2026-05-02T16:18:03Z</time></trkpt><trkpt lat="43.79331429860196" lon="12.004185181352058"><ele>791.3333333333334</ele><time>2026-05-02T16:18:04Z</time></trkpt><trkpt lat="43.793382169837614" lon="12.004253309454695"><ele>793.0</ele><time>2026-05-02T16:18:05Z</time></trkpt><trkpt lat="43.79345976328144" lon="12.004301648644875"><ele>794.6666666666667</ele><time>2026-05-02T16:18:06Z</time></trkpt><trkpt lat="43.793534058119924" lon="12.004350247243357"><ele>796.3333333333334</ele><time>2026-05-02T16:18:07Z</time></trkpt><trkpt lat="43.79361840917201" lon="12.004379108452637"><ele>798.0</ele><time>2026-05-02T16:18:08Z</time></trkpt><trkpt lat="43.793710080538524" lon="12.00440105130052"><ele>798.0</ele><time>2026-05-02T16:18:09Z</time></trkpt><trkpt lat="43.79380841259046" lon="12.004410671714329"><ele>798.0</ele><time>2026-05-02T16:18:10Z</time></trkpt><trkpt lat="43.793905253712744" lon="12.004420676039548"><ele>798.0</ele><time>2026-05-02T16:18:11Z</time></trkpt><trkpt lat="43.794003698738265" lon="12.004417331380123"><ele>798.0</ele><time>2026-05-02T16:18:12Z</time></trkpt><trkpt lat="43.79409387079323" lon="12.004469040425063"><ele>798.0</ele><time>2026-05-02T16:18:13Z</time></trkpt><trkpt lat="43.79418150632341" lon="12.0045015236695"><ele>798.0</ele><time>2026-05-02T16:18:14Z</time></trkpt><trkpt lat="43.79427272345971" lon="12.004539296096784"><ele>798.0</ele><time>2026-05-02T16:18:15Z</time></trkpt><trkpt lat="43.79437756217294" lon="12.004559430365198"><ele>798.0</ele><time>2026-05-02T16:18:16Z</time></trkpt><trkpt lat="43.79448279768808" lon="12.004606407266696"><ele>798.0</ele><time>2026-05-02T16:18:17Z</time></trkpt><trkpt lat="43.79459520511132" lon="12.004646768864792"><ele>798.0</ele><time>2026-05-02T16:18:18Z</time></trkpt><trkpt lat="43.794713524711135" lon="12.00467110459941"><ele>797.0</ele><time>2026-05-02T16:18:19Z</time></trkpt><trkpt lat="43.794839160194776" lon="12.004653357058023"><ele>796.0</ele><time>2026-05-02T16:18:20Z</time></trkpt><trkpt lat="43.794957322406205" lon="12.004635087916574"><ele>795.0</ele><time>2026-05-02T16:18:21Z</time></trkpt><trkpt lat="43.795071032759715" lon="12.004609875937513"><ele>794.0</ele><time>2026-05-02T16:18:22Z</time></trkpt><trkpt lat="43.79517672388995" lon="12.004585261977375"><ele>794.0</ele><time>2026-05-02T16:18:23Z</time></trkpt><trkpt lat="43.79529572922365" lon="12.00457070959629"><ele>794.0</ele><time>2026-05-02T16:18:24Z</time></trkpt><trkpt lat="43.7954129262456" lon="12.004520408659568"><ele>794.0</ele><time>2026-05-02T16:18:25Z</time></trkpt><trkpt lat="43.795528020678354" lon="12.004438991674379"><ele>794.0</ele><time>2026-05-02T16:18:26Z</time></trkpt><trkpt lat="43.79564279547743" lon="12.004380970781154"><ele>794.0</ele><time>2026-05-02T16:18:27Z</time></trkpt><trkpt lat="43.795765409631656" lon="12.004309002232791"><ele>794.0</ele><time>2026-05-02T16:18:28Z</time></trkpt><trkpt lat="43.79588128225346" lon="12.004249489593974"><ele>794.0</ele><time>2026-05-02T16:18:29Z</time></trkpt><trkpt lat="43.795987046892684" lon="12.004182518627921"><ele>794.0</ele><time>2026-05-02T16:18:30Z</time></trkpt><trkpt lat="43.79608633014646" lon="12.00410967640693"><ele>794.5</ele><time>2026-05-02T16:18:31Z</time></trkpt><trkpt lat="43.796172755527074" lon="12.003982325505616"><ele>795.0</ele><time>2026-05-02T16:18:32Z</time></trkpt><trkpt lat="43.79623606742678" lon="12.003822581426402"><ele>795.5</ele><time>2026-05-02T16:18:33Z</time></trkpt><trkpt lat="43.79630813545667" lon="12.003661631289743"><ele>796.0</ele><time>2026-05-02T16:18:34Z</time></trkpt><trkpt lat="43.796364181051054" lon="12.003513343053859"><ele>796.0</ele><time>2026-05-02T16:18:35Z</time></trkpt><trkpt lat="43.796413674163496" lon="12.003404951110937"><ele>796.0</ele><time>2026-05-02T16:18:36Z</time></trkpt><trkpt lat="43.79647158000101" lon="12.003280117690768"><ele>796.0</ele><time>2026-05-02T16:18:37Z</time></trkpt><trkpt lat="43.796565356813396" lon="12.003177074637254"><ele>796.0</ele><time>2026-05-02T16:18:38Z</time></trkpt><trkpt lat="43.79668132248043" lon="12.003080988777125"><ele>791.75</ele><time>2026-05-02T16:18:39Z</time></trkpt><trkpt lat="43.79679794819164" lon="12.002989814053283"><ele>787.5</ele><time>2026-05-02T16:18:40Z</time></trkpt><trkpt lat="43.79691525847294" lon="12.002919976357456"><ele>783.25</ele><time>2026-05-02T16:18:41Z</time></trkpt><trkpt lat="43.79702619328916" lon="12.002831022257123"><ele>779.0</ele><time>2026-05-02T16:18:42Z</time></trkpt><trkpt lat="43.79712766310136" lon="12.002727336975038"><ele>779.0</ele><time>2026-05-02T16:18:43Z</time></trkpt><trkpt lat="43.79723451070173" lon="12.002639875502519"><ele>779.0</ele><time>2026-05-02T16:18:44Z</time></trkpt><trkpt lat="43.797341689481215" lon="12.002550852012392"><ele>779.0</ele><time>2026-05-02T16:18:45Z</time></trkpt><trkpt lat="43.79746148565534" lon="12.00246538286737"><ele>779.0</ele><time>2026-05-02T16:18:46Z</time></trkpt><trkpt lat="43.79757459050921" lon="12.002378122241252"><ele>775.25</ele><time>2026-05-02T16:18:47Z</time></trkpt><trkpt lat="43.79768346234502" lon="12.002287456862868"><ele>771.5</ele><time>2026-05-02T16:18:48Z</time></trkpt><trkpt lat="43.79779221560804" lon="12.002199049312502"><ele>767.75</ele><time>2026-05-02T16:18:49Z</time></trkpt><trkpt lat="43.79790382759711" lon="12.002109261993391"><ele>764.0</ele><time>2026-05-02T16:18:50Z</time></trkpt><trkpt lat="43.79801200234162" lon="12.002018416764141"><ele>764.0</ele><time>2026-05-02T16:18:51Z</time></trkpt><trkpt lat="43.798124268793444" lon="12.001933204791108"><ele>764.0</ele><time>2026-05-02T16:18:52Z</time></trkpt><trkpt lat="43.79823269351838" lon="12.00184605918315"><ele>764.0</ele><time>2026-05-02T16:18:53Z</time></trkpt><trkpt lat="43.79834339756249" lon="12.001759958185055"><ele>764.0</ele><time>2026-05-02T16:18:54Z</time></trkpt><trkpt lat="43.7984587487508" lon="12.00168237635392"><ele>760.5</ele><time>2026-05-02T16:18:55Z</time></trkpt><trkpt lat="43.79857915353014" lon="12.001596154737983"><ele>757.0</ele><time>2026-05-02T16:18:56Z</time></trkpt><trkpt lat="43.79870495263135" lon="12.001516462369322"><ele>753.5</ele><time>2026-05-02T16:18:57Z</time></trkpt><trkpt lat="43.798824928290834" lon="12.001439659408172"><ele>750.0</ele><time>2026-05-02T16:18:58Z</time></trkpt><trkpt lat="43.79894686154667" lon="12.001370115512707"><ele>750.0</ele><time>2026-05-02T16:18:59Z</time></trkpt><trkpt lat="43.79906642187663" lon="12.001298163828961"><ele>750.0</ele><time>2026-05-02T16:19:00Z</time></trkpt><trkpt lat="43.7991873242816" lon="12.00123264704148"><ele>750.0</ele><time>2026-05-02T16:19:01Z</time></trkpt><trkpt lat="43.79930166289935" lon="12.001152152525934"><ele>750.0</ele><time>2026-05-02T16:19:02Z</time></trkpt><trkpt lat="43.79940732819432" lon="12.001074184394659"><ele>750.0</ele><time>2026-05-02T16:19:03Z</time></trkpt><trkpt lat="43.7995328281336" lon="12.001017021354512"><ele>750.0</ele><time>2026-05-02T16:19:04Z</time></trkpt><trkpt lat="43.79965830478788" lon="12.00097938371311"><ele>750.0</ele><time>2026-05-02T16:19:05Z</time></trkpt><trkpt lat="43.79979099000674" lon="12.000971259975675"><ele>750.0</ele><time>2026-05-02T16:19:06Z</time></trkpt><trkpt lat="43.79991100712814" lon="12.001001061120252"><ele>750.0</ele><time>2026-05-02T16:19:07Z</time></trkpt><trkpt lat="43.80001551861003" lon="12.001080560519343"><ele>750.0</ele><time>2026-05-02T16:19:08Z</time></trkpt><trkpt lat="43.80012521703585" lon="12.00118186814504"><ele>750.0</ele><time>2026-05-02T16:19:09Z</time></trkpt><trkpt lat="43.80023848069623" lon="12.00125786489067"><ele>750.0</ele><time>2026-05-02T16:19:10Z</time></trkpt><trkpt lat="43.80033436415618" lon="12.001336725995456"><ele>749.75</ele><time>2026-05-02T16:19:11Z</time></trkpt><trkpt lat="43.80043098544595" lon="12.00138630526183"><ele>749.5</ele><time>2026-05-02T16:19:12Z</time></trkpt><trkpt lat="43.80054071531027" lon="12.001409485319648"><ele>749.25</ele><time>2026-05-02T16:19:13Z</time></trkpt><trkpt lat="43.80065146222366" lon="12.001355577608392"><ele>749.0</ele><time>2026-05-02T16:19:14Z</time></trkpt><trkpt lat="43.80075469942577" lon="12.001272630745461"><ele>749.0</ele><time>2026-05-02T16:19:15Z</time></trkpt><trkpt lat="43.80084580063804" lon="12.001168242102118"><ele>749.0</ele><time>2026-05-02T16:19:16Z</time></trkpt><trkpt lat="43.80093843484031" lon="12.001071901492718"><ele>749.0</ele><time>2026-05-02T16:19:17Z</time></trkpt><trkpt lat="43.801032327451296" lon="12.00096095647529"><ele>749.0</ele><time>2026-05-02T16:19:18Z</time></trkpt><trkpt lat="43.801105460436844" lon="12.000818606621019"><ele>757.75</ele><time>2026-05-02T16:19:19Z</time></trkpt><trkpt lat="43.801151406251996" lon="12.000644015132416"><ele>766.5</ele><time>2026-05-02T16:19:20Z</time></trkpt><trkpt lat="43.80113051122515" lon="12.000464276752142"><ele>775.25</ele><time>2026-05-02T16:19:21Z</time></trkpt><trkpt lat="43.801117966537824" lon="12.000286090298404"><ele>784.0</ele><time>2026-05-02T16:19:22Z</time></trkpt><trkpt lat="43.80104415854843" lon="12.000127174832414"><ele>775.5</ele><time>2026-05-02T16:19:23Z</time></trkpt><trkpt lat="43.80093159080232" lon="11.999996053967811"><ele>767.0</ele><time>2026-05-02T16:19:24Z</time></trkpt><trkpt lat="43.800831429518865" lon="11.999838171263868"><ele>758.5</ele><time>2026-05-02T16:19:25Z</time></trkpt><trkpt lat="43.800735841758886" lon="11.999715107232682"><ele>750.0</ele><time>2026-05-02T16:19:26Z</time></trkpt><trkpt lat="43.80063444261344" lon="11.999614980070358"><ele>750.0</ele><time>2026-05-02T16:19:27Z</time></trkpt><trkpt lat="43.80052815122604" lon="11.99952901853405"><ele>750.0</ele><time>2026-05-02T16:19:28Z</time></trkpt><trkpt lat="43.80038866551658" lon="11.999495160398125"><ele>750.0</ele><time>2026-05-02T16:19:29Z</time></trkpt><trkpt lat="43.80025083546505" lon="11.999506025941432"><ele>750.0</ele><time>2026-05-02T16:19:30Z</time></trkpt><trkpt lat="43.800128265236324" lon="11.999530124026668"><ele>746.0</ele><time>2026-05-02T16:19:31Z</time></trkpt><trkpt lat="43.80000164060116" lon="11.999521188900841"><ele>742.0</ele><time>2026-05-02T16:19:32Z</time></trkpt><trkpt lat="43.79989246734862" lon="11.999453309611837"><ele>738.0</ele><time>2026-05-02T16:19:33Z</time></trkpt><trkpt lat="43.799787040964915" lon="11.99935552628138"><ele>734.0</ele><time>2026-05-02T16:19:34Z</time></trkpt><trkpt lat="43.7996891472948" lon="11.999244378174007"><ele>734.5</ele><time>2026-05-02T16:19:35Z</time></trkpt><trkpt lat="43.79958249010625" lon="11.999119174479798"><ele>735.0</ele><time>2026-05-02T16:19:36Z</time></trkpt><trkpt lat="43.79947723118474" lon="11.99898969086123"><ele>735.5</ele><time>2026-05-02T16:19:37Z</time></trkpt><trkpt lat="43.79935550712687" lon="11.998901229902215"><ele>736.0</ele><time>2026-05-02T16:19:38Z</time></trkpt><trkpt lat="43.799228584097904" lon="11.998835692683835"><ele>736.0</ele><time>2026-05-02T16:19:39Z</time></trkpt><trkpt lat="43.79910179965256" lon="11.998782708175623"><ele>736.0</ele><time>2026-05-02T16:19:40Z</time></trkpt><trkpt lat="43.798982695045474" lon="11.998749958475209"><ele>736.0</ele><time>2026-05-02T16:19:41Z</time></trkpt><trkpt lat="43.79885514259704" lon="11.998762180711823"><ele>736.0</ele><time>2026-05-02T16:19:42Z</time></trkpt><trkpt lat="43.79872582289627" lon="11.998814339768357"><ele>736.0</ele><time>2026-05-02T16:19:43Z</time></trkpt><trkpt lat="43.79860169949716" lon="11.998905977311441"><ele>736.0</ele><time>2026-05-02T16:19:44Z</time></trkpt><trkpt lat="43.7984749272187" lon="11.998996839879482"><ele>736.0</ele><time>2026-05-02T16:19:45Z</time></trkpt><trkpt lat="43.79836379582793" lon="11.999075582821053"><ele>736.0</ele><time>2026-05-02T16:19:46Z</time></trkpt><trkpt lat="43.79826191444525" lon="11.99912250755632"><ele>734.75</ele><time>2026-05-02T16:19:47Z</time></trkpt><trkpt lat="43.79815939592489" lon="11.999138247101294"><ele>733.5</ele><time>2026-05-02T16:19:48Z</time></trkpt><trkpt lat="43.79803660498473" lon="11.99911187864672"><ele>732.25</ele><time>2026-05-02T16:19:49Z</time></trkpt><trkpt lat="43.79790591373614" lon="11.999059265977095"><ele>731.0</ele><time>2026-05-02T16:19:50Z</time></trkpt><trkpt lat="43.79777598921252" lon="11.999012697996783"><ele>729.5</ele><time>2026-05-02T16:19:51Z</time></trkpt><trkpt lat="43.79763292148386" lon="11.998999776354708"><ele>728.0</ele><time>2026-05-02T16:19:52Z</time></trkpt><trkpt lat="43.79750356371732" lon="11.999017807408269"><ele>726.5</ele><time>2026-05-02T16:19:53Z</time></trkpt><trkpt lat="43.79737653861845" lon="11.999063507766241"><ele>725.0</ele><time>2026-05-02T16:19:54Z</time></trkpt><trkpt lat="43.797253702101315" lon="11.99912807674598"><ele>722.0</ele><time>2026-05-02T16:19:55Z</time></trkpt><trkpt lat="43.79713483636313" lon="11.999195225104389"><ele>719.0</ele><time>2026-05-02T16:19:56Z</time></trkpt><trkpt lat="43.7970319410688" lon="11.999264745239435"><ele>716.0</ele><time>2026-05-02T16:19:57Z</time></trkpt><trkpt lat="43.79692836290411" lon="11.99931255053169"><ele>713.0</ele><time>2026-05-02T16:19:58Z</time></trkpt><trkpt lat="43.79682055839677" lon="11.999328323045502"><ele>715.5</ele><time>2026-05-02T16:19:59Z</time></trkpt><trkpt lat="43.796706608420536" lon="11.999313914857355"><ele>718.0</ele><time>2026-05-02T16:20:00Z</time></trkpt><trkpt lat="43.796600367095536" lon="11.999249277169742"><ele>720.5</ele><time>2026-05-02T16:20:01Z</time></trkpt><trkpt lat="43.79648966280796" lon="11.999145204338829"><ele>723.0</ele><time>2026-05-02T16:20:02Z</time></trkpt><trkpt lat="43.79638326729647" lon="11.999024771656186"><ele>723.0</ele><time>2026-05-02T16:20:03Z</time></trkpt><trkpt lat="43.7962664662278" lon="11.998910937519307"><ele>723.0</ele><time>2026-05-02T16:20:04Z</time></trkpt><trkpt lat="43.79616098325613" lon="11.99880594393504"><ele>723.0</ele><time>2026-05-02T16:20:05Z</time></trkpt><trkpt lat="43.7960660518234" lon="11.998706114252451"><ele>723.0</ele><time>2026-05-02T16:20:06Z</time></trkpt><trkpt lat="43.79598321289585" lon="11.998624043442883"><ele>720.4</ele><time>2026-05-02T16:20:07Z</time></trkpt><trkpt lat="43.79591144651573" lon="11.99854028805029"><ele>717.8</ele><time>2026-05-02T16:20:08Z</time></trkpt><trkpt lat="43.79586354971232" lon="11.998427069712033"><ele>715.2</ele><time>2026-05-02T16:20:09Z</time></trkpt><trkpt lat="43.79582388905309" lon="11.998299994762444"><ele>712.6</ele><time>2026-05-02T16:20:10Z</time></trkpt><trkpt lat="43.79583529712929" lon="11.998147359222434"><ele>710.0</ele><time>2026-05-02T16:20:11Z</time></trkpt><trkpt lat="43.79592706263894" lon="11.998021030960329"><ele>715.25</ele><time>2026-05-02T16:20:12Z</time></trkpt><trkpt lat="43.79601727898197" lon="11.997917578129426"><ele>720.5</ele><time>2026-05-02T16:20:13Z</time></trkpt><trkpt lat="43.79613425559622" lon="11.99780300585081"><ele>725.75</ele><time>2026-05-02T16:20:14Z</time></trkpt><trkpt lat="43.79625681495124" lon="11.997681880925454"><ele>731.0</ele><time>2026-05-02T16:20:15Z</time></trkpt><trkpt lat="43.79637556732617" lon="11.997534914380944"><ele>727.0</ele><time>2026-05-02T16:20:16Z</time></trkpt><trkpt lat="43.796479743796866" lon="11.997401250169226"><ele>723.0</ele><time>2026-05-02T16:20:17Z</time></trkpt><trkpt lat="43.79657450487041" lon="11.99729156535323"><ele>719.0</ele><time>2026-05-02T16:20:18Z</time></trkpt><trkpt lat="43.79668163314004" lon="11.997222528451156"><ele>715.0</ele><time>2026-05-02T16:20:19Z</time></trkpt><trkpt lat="43.796805387836336" lon="11.997170783303895"><ele>717.25</ele><time>2026-05-02T16:20:20Z</time></trkpt><trkpt lat="43.796921680362615" lon="11.99710015994757"><ele>719.5</ele><time>2026-05-02T16:20:21Z</time></trkpt><trkpt lat="43.79703004999506" lon="11.997055063308812"><ele>721.75</ele><time>2026-05-02T16:20:22Z</time></trkpt><trkpt lat="43.797133915498485" lon="11.996983921700757"><ele>724.0</ele><time>2026-05-02T16:20:23Z</time></trkpt><trkpt lat="43.79722199049067" lon="11.996873538411581"><ele>724.0</ele><time>2026-05-02T16:20:24Z</time></trkpt><trkpt lat="43.79728829023462" lon="11.996743800622195"><ele>724.0</ele><time>2026-05-02T16:20:25Z</time></trkpt><trkpt lat="43.79733070333913" lon="11.996617296946923"><ele>724.0</ele><time>2026-05-02T16:20:26Z</time></trkpt><trkpt lat="43.79733399467309" lon="11.996480563786815"><ele>724.0</ele><time>2026-05-02T16:20:27Z</time></trkpt><trkpt lat="43.79737139980691" lon="11.996366003729271"><ele>724.0</ele><time>2026-05-02T16:20:28Z</time></trkpt><trkpt lat="43.7973923891663" lon="11.996281210391441"><ele>721.0</ele><time>2026-05-02T16:20:29Z</time></trkpt><trkpt lat="43.797418558170314" lon="11.996195575630622"><ele>718.0</ele><time>2026-05-02T16:20:30Z</time></trkpt><trkpt lat="43.79746821620662" lon="11.996097192660956"><ele>715.0</ele><time>2026-05-02T16:20:32Z</time></trkpt><trkpt lat="43.79745808966881" lon="11.995965701030864"><ele>712.0</ele><time>2026-05-02T16:20:49Z</time></trkpt><trkpt lat="43.79750427985239" lon="11.995790055699832"><ele>709.0</ele><time>2026-05-02T16:20:51Z</time></trkpt><trkpt lat="43.79752876746197" lon="11.99569120148212"><ele>708.8000000000001</ele><time>2026-05-02T16:20:52Z</time></trkpt><trkpt lat="43.797557326475015" lon="11.995568985965221"><ele>708.6</ele><time>2026-05-02T16:20:54Z</time></trkpt><trkpt lat="43.79759364712218" lon="11.995435625774984"><ele>708.4</ele><time>2026-05-02T16:20:56Z</time></trkpt><trkpt lat="43.79763034287411" lon="11.995323223795777"><ele>708.2</ele><time>2026-05-02T16:20:57Z</time></trkpt><trkpt lat="43.79767716284522" lon="11.99520144792395"><ele>708.0</ele><time>2026-05-02T16:20:58Z</time></trkpt><trkpt lat="43.79774467430327" lon="11.995067249238955"><ele>702.0</ele><time>2026-05-02T16:20:59Z</time></trkpt><trkpt lat="43.79780785842491" lon="11.994912857951862"><ele>696.0</ele><time>2026-05-02T16:21:00Z</time></trkpt><trkpt lat="43.79786609897505" lon="11.99477015622053"><ele>690.0</ele><time>2026-05-02T16:21:01Z</time></trkpt><trkpt lat="43.797934455842544" lon="11.994620444245665"><ele>684.0</ele><time>2026-05-02T16:21:02Z</time></trkpt><trkpt lat="43.797993353666655" lon="11.994472716160963"><ele>684.0</ele><time>2026-05-02T16:21:03Z</time></trkpt><trkpt lat="43.79805571554611" lon="11.994316679277402"><ele>684.0</ele><time>2026-05-02T16:21:04Z</time></trkpt><trkpt lat="43.79811640555603" lon="11.994151005803223"><ele>684.0</ele><time>2026-05-02T16:21:05Z</time></trkpt><trkpt lat="43.798170390263046" lon="11.99398641819521"><ele>684.0</ele><time>2026-05-02T16:21:06Z</time></trkpt><trkpt lat="43.7982234257422" lon="11.99381666921504"><ele>681.0</ele><time>2026-05-02T16:21:07Z</time></trkpt><trkpt lat="43.798277828344375" lon="11.993638984550707"><ele>678.0</ele><time>2026-05-02T16:21:08Z</time></trkpt><trkpt lat="43.798326188832576" lon="11.993461138200209"><ele>675.0</ele><time>2026-05-02T16:21:09Z</time></trkpt><trkpt lat="43.79837233531584" lon="11.993291475813345"><ele>672.0</ele><time>2026-05-02T16:21:10Z</time></trkpt><trkpt lat="43.798417200063646" lon="11.993116004862353"><ele>670.5</ele><time>2026-05-02T16:21:11Z</time></trkpt><trkpt lat="43.798458567425406" lon="11.992933314374767"><ele>669.0</ele><time>2026-05-02T16:21:12Z</time></trkpt><trkpt lat="43.7984944973157" lon="11.992755759191988"><ele>667.5</ele><time>2026-05-02T16:21:13Z</time></trkpt><trkpt lat="43.798528205402974" lon="11.992573269308672"><ele>666.0</ele><time>2026-05-02T16:21:14Z</time></trkpt><trkpt lat="43.79856465045012" lon="11.992393526048987"><ele>670.25</ele><time>2026-05-02T16:21:15Z</time></trkpt><trkpt lat="43.798592335462054" lon="11.992213138300274"><ele>674.5</ele><time>2026-05-02T16:21:16Z</time></trkpt><trkpt lat="43.7986147985255" lon="11.992039702107594"><ele>678.75</ele><time>2026-05-02T16:21:17Z</time></trkpt><trkpt lat="43.79863610025234" lon="11.991872152019738"><ele>683.0</ele><time>2026-05-02T16:21:18Z</time></trkpt><trkpt lat="43.79865251059236" lon="11.991698194965275"><ele>678.5</ele><time>2026-05-02T16:21:19Z</time></trkpt><trkpt lat="43.79867145742033" lon="11.991507946042404"><ele>674.0</ele><time>2026-05-02T16:21:20Z</time></trkpt><trkpt lat="43.79868340758625" lon="11.991323962810288"><ele>669.5</ele><time>2026-05-02T16:21:21Z</time></trkpt><trkpt lat="43.79869539958813" lon="11.991137613263863"><ele>665.0</ele><time>2026-05-02T16:21:22Z</time></trkpt><trkpt lat="43.79870524453084" lon="11.990955953012554"><ele>661.5</ele><time>2026-05-02T16:21:23Z</time></trkpt><trkpt lat="43.79871334218652" lon="11.990776442114495"><ele>658.0</ele><time>2026-05-02T16:21:24Z</time></trkpt><trkpt lat="43.79871658929761" lon="11.990598413777844"><ele>654.5</ele><time>2026-05-02T16:21:25Z</time></trkpt><trkpt lat="43.79871171235125" lon="11.990425391666403"><ele>651.0</ele><time>2026-05-02T16:21:26Z</time></trkpt><trkpt lat="43.79870690658895" lon="11.990251520338646"><ele>651.0</ele><time>2026-05-02T16:21:27Z</time></trkpt><trkpt lat="43.79870534610333" lon="11.990071503637445"><ele>651.0</ele><time>2026-05-02T16:21:28Z</time></trkpt><trkpt lat="43.79869575858431" lon="11.98988010173942"><ele>651.0</ele><time>2026-05-02T16:21:29Z</time></trkpt><trkpt lat="43.798690163921556" lon="11.9896877312898"><ele>651.0</ele><time>2026-05-02T16:21:30Z</time></trkpt><trkpt lat="43.7986809497968" lon="11.989502127256566"><ele>649.75</ele><time>2026-05-02T16:21:31Z</time></trkpt><trkpt lat="43.79867035383346" lon="11.989326098430077"><ele>648.5</ele><time>2026-05-02T16:21:32Z</time></trkpt><trkpt lat="43.79865979309352" lon="11.989141238714629"><ele>647.25</ele><time>2026-05-02T16:21:33Z</time></trkpt><trkpt lat="43.798645985909594" lon="11.988955263795017"><ele>646.0</ele><time>2026-05-02T16:21:34Z</time></trkpt><trkpt lat="43.79862726016413" lon="11.988769594846886"><ele>644.25</ele><time>2026-05-02T16:21:35Z</time></trkpt><trkpt lat="43.79860913045689" lon="11.988585478513107"><ele>642.5</ele><time>2026-05-02T16:21:36Z</time></trkpt><trkpt lat="43.79859066699635" lon="11.988406256459806"><ele>640.75</ele><time>2026-05-02T16:21:37Z</time></trkpt><trkpt lat="43.798571494599855" lon="11.988226419495595"><ele>639.0</ele><time>2026-05-02T16:21:38Z</time></trkpt><trkpt lat="43.79854968092475" lon="11.988040656654846"><ele>637.5</ele><time>2026-05-02T16:21:39Z</time></trkpt><trkpt lat="43.79852566315339" lon="11.987858056006695"><ele>636.0</ele><time>2026-05-02T16:21:40Z</time></trkpt><trkpt lat="43.79849850730663" lon="11.987671594279112"><ele>634.5</ele><time>2026-05-02T16:21:41Z</time></trkpt><trkpt lat="43.79847500951768" lon="11.987488208232675"><ele>633.0</ele><time>2026-05-02T16:21:42Z</time></trkpt><trkpt lat="43.79844761033725" lon="11.987310476447298"><ele>633.0</ele><time>2026-05-02T16:21:43Z</time></trkpt><trkpt lat="43.798417777928954" lon="11.987120463817472"><ele>633.0</ele><time>2026-05-02T16:21:44Z</time></trkpt><trkpt lat="43.79838430620677" lon="11.986940860324491"><ele>633.0</ele><time>2026-05-02T16:21:45Z</time></trkpt><trkpt lat="43.79835236387386" lon="11.98675706459679"><ele>633.0</ele><time>2026-05-02T16:21:46Z</time></trkpt><trkpt lat="43.79832078311671" lon="11.986570704120513"><ele>633.0</ele><time>2026-05-02T16:21:47Z</time></trkpt><trkpt lat="43.798287276078845" lon="11.986388223490584"><ele>633.0</ele><time>2026-05-02T16:21:48Z</time></trkpt><trkpt lat="43.79825035488745" lon="11.986219969974961"><ele>633.0</ele><time>2026-05-02T16:21:49Z</time></trkpt><trkpt lat="43.79821792421927" lon="11.986047178721982"><ele>633.0</ele><time>2026-05-02T16:21:50Z</time></trkpt><trkpt lat="43.798176080922175" lon="11.985867903191334"><ele>631.25</ele><time>2026-05-02T16:21:51Z</time></trkpt><trkpt lat="43.79813452118586" lon="11.985695357214261"><ele>629.5</ele><time>2026-05-02T16:21:52Z</time></trkpt><trkpt lat="43.798091995926136" lon="11.985499325017136"><ele>627.75</ele><time>2026-05-02T16:21:53Z</time></trkpt><trkpt lat="43.79804518976938" lon="11.985312594689784"><ele>626.0</ele><time>2026-05-02T16:21:54Z</time></trkpt><trkpt lat="43.79799981748976" lon="11.985128056162472"><ele>627.25</ele><time>2026-05-02T16:21:55Z</time></trkpt><trkpt lat="43.79795348959055" lon="11.98496021778687"><ele>628.5</ele><time>2026-05-02T16:21:56Z</time></trkpt><trkpt lat="43.79790942754461" lon="11.98479202713956"><ele>629.75</ele><time>2026-05-02T16:21:57Z</time></trkpt><trkpt lat="43.797865659716564" lon="11.984627296649434"><ele>631.0</ele><time>2026-05-02T16:21:58Z</time></trkpt><trkpt lat="43.79782162319126" lon="11.984448107781015"><ele>631.0</ele><time>2026-05-02T16:21:59Z</time></trkpt><trkpt lat="43.79777616311328" lon="11.984268842115757"><ele>631.0</ele><time>2026-05-02T16:22:00Z</time></trkpt><trkpt lat="43.79773423412185" lon="11.984096524616193"><ele>631.0</ele><time>2026-05-02T16:22:01Z</time></trkpt><trkpt lat="43.79768972823438" lon="11.983922437190962"><ele>631.0</ele><time>2026-05-02T16:22:02Z</time></trkpt><trkpt lat="43.797647267649204" lon="11.983748122273528"><ele>630.5</ele><time>2026-05-02T16:22:03Z</time></trkpt><trkpt lat="43.79760371640173" lon="11.983574760903362"><ele>630.0</ele><time>2026-05-02T16:22:04Z</time></trkpt><trkpt lat="43.79757217748171" lon="11.983389770301544"><ele>629.5</ele><time>2026-05-02T16:22:05Z</time></trkpt><trkpt lat="43.797542692645095" lon="11.983208855061015"><ele>629.0</ele><time>2026-05-02T16:22:06Z</time></trkpt><trkpt lat="43.79751839287272" lon="11.98302680133457"><ele>625.75</ele><time>2026-05-02T16:22:07Z</time></trkpt><trkpt lat="43.79749935766566" lon="11.982840693242611"><ele>622.5</ele><time>2026-05-02T16:22:08Z</time></trkpt><trkpt lat="43.797485528783305" lon="11.982660551391977"><ele>619.25</ele><time>2026-05-02T16:22:09Z</time></trkpt><trkpt lat="43.797478514045984" lon="11.98247864682514"><ele>616.0</ele><time>2026-05-02T16:22:10Z</time></trkpt><trkpt lat="43.79747411985977" lon="11.982298325539377"><ele>615.75</ele><time>2026-05-02T16:22:11Z</time></trkpt><trkpt lat="43.79747820960496" lon="11.982110070848508"><ele>615.5</ele><time>2026-05-02T16:22:12Z</time></trkpt><trkpt lat="43.79748813132662" lon="11.981912602250071"><ele>615.25</ele><time>2026-05-02T16:22:13Z</time></trkpt><trkpt lat="43.797498952580305" lon="11.981733582786065"><ele>615.0</ele><time>2026-05-02T16:22:14Z</time></trkpt><trkpt lat="43.79751694321936" lon="11.981547355784972"><ele>615.5</ele><time>2026-05-02T16:22:15Z</time></trkpt><trkpt lat="43.7975389855782" lon="11.981363173108255"><ele>616.0</ele><time>2026-05-02T16:22:16Z</time></trkpt><trkpt lat="43.79757105157204" lon="11.981177324649186"><ele>616.5</ele><time>2026-05-02T16:22:17Z</time></trkpt><trkpt lat="43.797599396405474" lon="11.98100472517544"><ele>617.0</ele><time>2026-05-02T16:22:18Z</time></trkpt><trkpt lat="43.79763269557372" lon="11.980829079642957"><ele>622.0</ele><time>2026-05-02T16:22:19Z</time></trkpt><trkpt lat="43.79767101901087" lon="11.980658041235847"><ele>627.0</ele><time>2026-05-02T16:22:20Z</time></trkpt><trkpt lat="43.79771618387891" lon="11.98048576450817"><ele>632.0</ele><time>2026-05-02T16:22:21Z</time></trkpt><trkpt lat="43.79776885222952" lon="11.980308635842938"><ele>637.0</ele><time>2026-05-02T16:22:22Z</time></trkpt><trkpt lat="43.7978242532989" lon="11.980134382138935"><ele>633.25</ele><time>2026-05-02T16:22:23Z</time></trkpt><trkpt lat="43.79788802741257" lon="11.979958854221444"><ele>629.5</ele><time>2026-05-02T16:22:24Z</time></trkpt><trkpt lat="43.797953264684665" lon="11.979793997853623"><ele>625.75</ele><time>2026-05-02T16:22:25Z</time></trkpt><trkpt lat="43.79802129694275" lon="11.979635441599681"><ele>622.0</ele><time>2026-05-02T16:22:26Z</time></trkpt><trkpt lat="43.79809601398139" lon="11.979480870010562"><ele>622.0</ele><time>2026-05-02T16:22:27Z</time></trkpt><trkpt lat="43.79817471359814" lon="11.979334158257451"><ele>622.0</ele><time>2026-05-02T16:22:28Z</time></trkpt><trkpt lat="43.79825766955588" lon="11.97918759642228"><ele>622.0</ele><time>2026-05-02T16:22:29Z</time></trkpt><trkpt lat="43.79834251715168" lon="11.97904809618606"><ele>622.0</ele><time>2026-05-02T16:22:30Z</time></trkpt><trkpt lat="43.798434329497276" lon="11.97890966478348"><ele>621.75</ele><time>2026-05-02T16:22:31Z</time></trkpt><trkpt lat="43.79853019426226" lon="11.978775421464528"><ele>621.5</ele><time>2026-05-02T16:22:32Z</time></trkpt><trkpt lat="43.79862776495258" lon="11.978647534265976"><ele>621.25</ele><time>2026-05-02T16:22:33Z</time></trkpt><trkpt lat="43.79873354910804" lon="11.978525217117339"><ele>621.0</ele><time>2026-05-02T16:22:34Z</time></trkpt><trkpt lat="43.79883586563198" lon="11.978409729910553"><ele>616.25</ele><time>2026-05-02T16:22:35Z</time></trkpt><trkpt lat="43.798941473008185" lon="11.978296483529613"><ele>611.5</ele><time>2026-05-02T16:22:36Z</time></trkpt><trkpt lat="43.799051908733205" lon="11.978190702393055"><ele>606.75</ele><time>2026-05-02T16:22:37Z</time></trkpt><trkpt lat="43.79916511825933" lon="11.97809037097996"><ele>602.0</ele><time>2026-05-02T16:22:38Z</time></trkpt><trkpt lat="43.79928087385892" lon="11.977994139597163"><ele>599.0</ele><time>2026-05-02T16:22:39Z</time></trkpt><trkpt lat="43.79940164407414" lon="11.977903112356096"><ele>596.0</ele><time>2026-05-02T16:22:40Z</time></trkpt><trkpt lat="43.79952554919623" lon="11.977817968864185"><ele>593.0</ele><time>2026-05-02T16:22:41Z</time></trkpt><trkpt lat="43.79965136901774" lon="11.97774375939417"><ele>590.0</ele><time>2026-05-02T16:22:42Z</time></trkpt><trkpt lat="43.799781063168375" lon="11.977675156263107"><ele>590.0</ele><time>2026-05-02T16:22:43Z</time></trkpt><trkpt lat="43.799909571217505" lon="11.977612419278755"><ele>590.0</ele><time>2026-05-02T16:22:44Z</time></trkpt><trkpt lat="43.800036365080715" lon="11.977557550919403"><ele>590.0</ele><time>2026-05-02T16:22:45Z</time></trkpt><trkpt lat="43.800170220830346" lon="11.977504560058168"><ele>590.0</ele><time>2026-05-02T16:22:46Z</time></trkpt><trkpt lat="43.80030081933869" lon="11.97746466067942"><ele>590.5</ele><time>2026-05-02T16:22:47Z</time></trkpt><trkpt lat="43.800430949738725" lon="11.977431906947327"><ele>591.0</ele><time>2026-05-02T16:22:48Z</time></trkpt><trkpt lat="43.80056331303075" lon="11.97740348949538"><ele>591.5</ele><time>2026-05-02T16:22:49Z</time></trkpt><trkpt lat="43.800696137724394" lon="11.97738284225149"><ele>592.0</ele><time>2026-05-02T16:22:50Z</time></trkpt><trkpt lat="43.800829188892386" lon="11.97736757167442"><ele>592.0</ele><time>2026-05-02T16:22:51Z</time></trkpt><trkpt lat="43.800962341215005" lon="11.977355045819511"><ele>592.0</ele><time>2026-05-02T16:22:52Z</time></trkpt><trkpt lat="43.80109274677624" lon="11.977339381487392"><ele>592.0</ele><time>2026-05-02T16:22:53Z</time></trkpt><trkpt lat="43.80122765213515" lon="11.977325219546257"><ele>592.0</ele><time>2026-05-02T16:22:54Z</time></trkpt><trkpt lat="43.80136164889764" lon="11.977312020296317"><ele>592.5</ele><time>2026-05-02T16:22:55Z</time></trkpt><trkpt lat="43.8014943416699" lon="11.97729390429351"><ele>593.0</ele><time>2026-05-02T16:22:56Z</time></trkpt><trkpt lat="43.80162729746549" lon="11.97728116515738"><ele>593.5</ele><time>2026-05-02T16:22:57Z</time></trkpt><trkpt lat="43.80175967632634" lon="11.977266085779913"><ele>594.0</ele><time>2026-05-02T16:22:58Z</time></trkpt><trkpt lat="43.80189697246952" lon="11.977248509318512"><ele>592.5</ele><time>2026-05-02T16:22:59Z</time></trkpt><trkpt lat="43.80202907392835" lon="11.977232015601926"><ele>591.0</ele><time>2026-05-02T16:23:00Z</time></trkpt><trkpt lat="43.802156683047556" lon="11.977222781400975"><ele>589.5</ele><time>2026-05-02T16:23:01Z</time></trkpt><trkpt lat="43.80227937201049" lon="11.977211786130134"><ele>588.0</ele><time>2026-05-02T16:23:02Z</time></trkpt><trkpt lat="43.80240495797087" lon="11.977198283020334"><ele>588.0</ele><time>2026-05-02T16:23:03Z</time></trkpt><trkpt lat="43.80252987004787" lon="11.977184878478072"><ele>588.0</ele><time>2026-05-02T16:23:04Z</time></trkpt><trkpt lat="43.80265709454795" lon="11.977165716187605"><ele>588.0</ele><time>2026-05-02T16:23:05Z</time></trkpt><trkpt lat="43.80278496066274" lon="11.977138710747289"><ele>588.0</ele><time>2026-05-02T16:23:06Z</time></trkpt><trkpt lat="43.80291131149601" lon="11.977106930846647"><ele>589.25</ele><time>2026-05-02T16:23:07Z</time></trkpt><trkpt lat="43.80303723824022" lon="11.9770682066831"><ele>590.5</ele><time>2026-05-02T16:23:08Z</time></trkpt><trkpt lat="43.8031655637679" lon="11.977022059527146"><ele>591.75</ele><time>2026-05-02T16:23:09Z</time></trkpt><trkpt lat="43.80329416284476" lon="11.97696436445144"><ele>593.0</ele><time>2026-05-02T16:23:10Z</time></trkpt><trkpt lat="43.80341795801973" lon="11.976902134883664"><ele>591.25</ele><time>2026-05-02T16:23:11Z</time></trkpt><trkpt lat="43.803540672460834" lon="11.97683748010667"><ele>589.5</ele><time>2026-05-02T16:23:12Z</time></trkpt><trkpt lat="43.80365909404576" lon="11.976767123769948"><ele>587.75</ele><time>2026-05-02T16:23:13Z</time></trkpt><trkpt lat="43.80377209450601" lon="11.976692988079824"><ele>586.0</ele><time>2026-05-02T16:23:14Z</time></trkpt><trkpt lat="43.80388394404314" lon="11.976614709814202"><ele>590.0</ele><time>2026-05-02T16:23:15Z</time></trkpt><trkpt lat="43.80399173056153" lon="11.976528130856213"><ele>594.0</ele><time>2026-05-02T16:23:16Z</time></trkpt><trkpt lat="43.80410080076476" lon="11.976438357217317"><ele>598.0</ele><time>2026-05-02T16:23:17Z</time></trkpt><trkpt lat="43.80420421432871" lon="11.976351665601548"><ele>602.0</ele><time>2026-05-02T16:23:18Z</time></trkpt><trkpt lat="43.80430899099676" lon="11.97625075719586"><ele>600.0</ele><time>2026-05-02T16:23:19Z</time></trkpt><trkpt lat="43.80441161136236" lon="11.976144219822322"><ele>598.0</ele><time>2026-05-02T16:23:20Z</time></trkpt><trkpt lat="43.804508799142354" lon="11.976033183915783"><ele>596.0</ele><time>2026-05-02T16:23:21Z</time></trkpt><trkpt lat="43.804606282147994" lon="11.975912403264013"><ele>594.0</ele><time>2026-05-02T16:23:22Z</time></trkpt><trkpt lat="43.80470131818599" lon="11.975791024620122"><ele>594.0</ele><time>2026-05-02T16:23:23Z</time></trkpt><trkpt lat="43.8047948457505" lon="11.975666263517285"><ele>594.0</ele><time>2026-05-02T16:23:24Z</time></trkpt><trkpt lat="43.804883774602814" lon="11.975542673503833"><ele>594.0</ele><time>2026-05-02T16:23:25Z</time></trkpt><trkpt lat="43.804972109999206" lon="11.975405506035612"><ele>594.0</ele><time>2026-05-02T16:23:26Z</time></trkpt><trkpt lat="43.80505394119155" lon="11.975267360149688"><ele>594.0</ele><time>2026-05-02T16:23:27Z</time></trkpt><trkpt lat="43.80513052798926" lon="11.975121596747684"><ele>594.0</ele><time>2026-05-02T16:23:28Z</time></trkpt><trkpt lat="43.8052049766141" lon="11.974974684866885"><ele>594.0</ele><time>2026-05-02T16:23:29Z</time></trkpt><trkpt lat="43.805274819688165" lon="11.974822522042889"><ele>594.0</ele><time>2026-05-02T16:23:30Z</time></trkpt><trkpt lat="43.80534006816027" lon="11.97466657640249"><ele>591.75</ele><time>2026-05-02T16:23:31Z</time></trkpt><trkpt lat="43.80539987675337" lon="11.974510492586608"><ele>589.5</ele><time>2026-05-02T16:23:32Z</time></trkpt><trkpt lat="43.80545821256237" lon="11.974351770179078"><ele>587.25</ele><time>2026-05-02T16:23:33Z</time></trkpt><trkpt lat="43.805513737518616" lon="11.974188403352557"><ele>585.0</ele><time>2026-05-02T16:23:34Z</time></trkpt><trkpt lat="43.8055630384095" lon="11.974023146696254"><ele>581.75</ele><time>2026-05-02T16:23:35Z</time></trkpt><trkpt lat="43.80560906481409" lon="11.973856793747366"><ele>578.5</ele><time>2026-05-02T16:23:36Z</time></trkpt><trkpt lat="43.80565054911344" lon="11.973684100894197"><ele>575.25</ele><time>2026-05-02T16:23:37Z</time></trkpt><trkpt lat="43.805692531273294" lon="11.973505855054636"><ele>572.0</ele><time>2026-05-02T16:23:38Z</time></trkpt><trkpt lat="43.80573549674799" lon="11.97333164221166"><ele>572.0</ele><time>2026-05-02T16:23:39Z</time></trkpt><trkpt lat="43.80577916298443" lon="11.973155142192642"><ele>572.0</ele><time>2026-05-02T16:23:40Z</time></trkpt><trkpt lat="43.8058194950113" lon="11.972978524959213"><ele>572.0</ele><time>2026-05-02T16:23:41Z</time></trkpt><trkpt lat="43.80585939567805" lon="11.97280195495058"><ele>572.0</ele><time>2026-05-02T16:23:42Z</time></trkpt><trkpt lat="43.80590005644533" lon="11.972623915452226"><ele>572.0</ele><time>2026-05-02T16:23:43Z</time></trkpt><trkpt lat="43.805946076747425" lon="11.972445125195474"><ele>572.0</ele><time>2026-05-02T16:23:44Z</time></trkpt><trkpt lat="43.805987069873304" lon="11.972266800269058"><ele>572.0</ele><time>2026-05-02T16:23:45Z</time></trkpt><trkpt lat="43.80602754518" lon="11.972086823913797"><ele>572.0</ele><time>2026-05-02T16:23:46Z</time></trkpt><trkpt lat="43.80606889232427" lon="11.97191169598466"><ele>574.0</ele><time>2026-05-02T16:23:47Z</time></trkpt><trkpt lat="43.806114168332044" lon="11.971734872486023"><ele>576.0</ele><time>2026-05-02T16:23:48Z</time></trkpt><trkpt lat="43.8061593496571" lon="11.971557635607361"><ele>578.0</ele><time>2026-05-02T16:23:49Z</time></trkpt><trkpt lat="43.806208711421796" lon="11.971389453220812"><ele>580.0</ele><time>2026-05-02T16:23:50Z</time></trkpt><trkpt lat="43.80625960760331" lon="11.971230826093343"><ele>580.0</ele><time>2026-05-02T16:23:51Z</time></trkpt><trkpt lat="43.806309282327256" lon="11.97107107665174"><ele>580.0</ele><time>2026-05-02T16:23:52Z</time></trkpt><trkpt lat="43.80636717032099" lon="11.970913715258288"><ele>580.0</ele><time>2026-05-02T16:23:53Z</time></trkpt><trkpt lat="43.806430297415666" lon="11.970762844071157"><ele>580.0</ele><time>2026-05-02T16:23:54Z</time></trkpt><trkpt lat="43.80649273474672" lon="11.970609915174121"><ele>577.75</ele><time>2026-05-02T16:23:55Z</time></trkpt><trkpt lat="43.80656048466483" lon="11.970451332736836"><ele>575.5</ele><time>2026-05-02T16:23:56Z</time></trkpt><trkpt lat="43.80663431416342" lon="11.970299998286217"><ele>573.25</ele><time>2026-05-02T16:23:57Z</time></trkpt><trkpt lat="43.80670961502727" lon="11.970148892885403"><ele>571.0</ele><time>2026-05-02T16:23:58Z</time></trkpt><trkpt lat="43.806789941492355" lon="11.970003197721214"><ele>576.75</ele><time>2026-05-02T16:23:59Z</time></trkpt><trkpt lat="43.80686375879667" lon="11.96986188946059"><ele>582.5</ele><time>2026-05-02T16:24:00Z</time></trkpt><trkpt lat="43.80694694231" lon="11.969723687565716"><ele>588.25</ele><time>2026-05-02T16:24:01Z</time></trkpt><trkpt lat="43.80703386129488" lon="11.969591803571152"><ele>594.0</ele><time>2026-05-02T16:24:02Z</time></trkpt><trkpt lat="43.80712194521063" lon="11.96945868828631"><ele>594.0</ele><time>2026-05-02T16:24:03Z</time></trkpt><trkpt lat="43.80721348014156" lon="11.969330992256086"><ele>594.0</ele><time>2026-05-02T16:24:04Z</time></trkpt><trkpt lat="43.80730451752739" lon="11.969202770499274"><ele>594.0</ele><time>2026-05-02T16:24:05Z</time></trkpt><trkpt lat="43.80740793750643" lon="11.96908256926653"><ele>594.0</ele><time>2026-05-02T16:24:06Z</time></trkpt><trkpt lat="43.80751206846668" lon="11.968959963910818"><ele>595.25</ele><time>2026-05-02T16:24:07Z</time></trkpt><trkpt lat="43.80761823379045" lon="11.968840991462574"><ele>596.5</ele><time>2026-05-02T16:24:08Z</time></trkpt><trkpt lat="43.80772610662457" lon="11.968727571641104"><ele>597.75</ele><time>2026-05-02T16:24:09Z</time></trkpt><trkpt lat="43.80783196400452" lon="11.96862408584628"><ele>599.0</ele><time>2026-05-02T16:24:10Z</time></trkpt><trkpt lat="43.807940458441536" lon="11.968524661883807"><ele>599.0</ele><time>2026-05-02T16:24:11Z</time></trkpt><trkpt lat="43.80805257096689" lon="11.968429182129295"><ele>599.0</ele><time>2026-05-02T16:24:12Z</time></trkpt><trkpt lat="43.8081665991106" lon="11.968341577692438"><ele>599.0</ele><time>2026-05-02T16:24:13Z</time></trkpt><trkpt lat="43.808280421660385" lon="11.968260315593511"><ele>599.0</ele><time>2026-05-02T16:24:14Z</time></trkpt><trkpt lat="43.808396041857776" lon="11.96817932735266"><ele>593.25</ele><time>2026-05-02T16:24:15Z</time></trkpt><trkpt lat="43.8085141818594" lon="11.968103062825078"><ele>587.5</ele><time>2026-05-02T16:24:16Z</time></trkpt><trkpt lat="43.80863572794548" lon="11.968032105785133"><ele>581.75</ele><time>2026-05-02T16:24:17Z</time></trkpt><trkpt lat="43.80875613916942" lon="11.967965014880132"><ele>576.0</ele><time>2026-05-02T16:24:18Z</time></trkpt><trkpt lat="43.808883927502436" lon="11.967905912976192"><ele>576.0</ele><time>2026-05-02T16:24:19Z</time></trkpt><trkpt lat="43.809014040869506" lon="11.967845153124069"><ele>576.0</ele><time>2026-05-02T16:24:20Z</time></trkpt><trkpt lat="43.80914366086132" lon="11.967790777920921"><ele>576.0</ele><time>2026-05-02T16:24:21Z</time></trkpt><trkpt lat="43.80927116876083" lon="11.96774645597123"><ele>576.0</ele><time>2026-05-02T16:24:22Z</time></trkpt><trkpt lat="43.80940134265428" lon="11.96769960527167"><ele>575.25</ele><time>2026-05-02T16:24:23Z</time></trkpt><trkpt lat="43.80953090952691" lon="11.96766077069716"><ele>574.5</ele><time>2026-05-02T16:24:24Z</time></trkpt><trkpt lat="43.809665764897154" lon="11.967626621678303"><ele>573.75</ele><time>2026-05-02T16:24:25Z</time></trkpt><trkpt lat="43.80979827282159" lon="11.967600054039302"><ele>573.0</ele><time>2026-05-02T16:24:26Z</time></trkpt><trkpt lat="43.80993490240183" lon="11.96756856239983"><ele>573.0</ele><time>2026-05-02T16:24:27Z</time></trkpt><trkpt lat="43.81007096255417" lon="11.967555364191025"><ele>573.0</ele><time>2026-05-02T16:24:28Z</time></trkpt><trkpt lat="43.810204062241304" lon="11.96754211946587"><ele>573.0</ele><time>2026-05-02T16:24:29Z</time></trkpt><trkpt lat="43.81033398795876" lon="11.967530441362397"><ele>573.0</ele><time>2026-05-02T16:24:30Z</time></trkpt><trkpt lat="43.810450589226036" lon="11.96754499570345"><ele>574.25</ele><time>2026-05-02T16:24:31Z</time></trkpt><trkpt lat="43.81057477493784" lon="11.967539848947675"><ele>575.5</ele><time>2026-05-02T16:24:32Z</time></trkpt><trkpt lat="43.81070402949269" lon="11.967537555077149"><ele>576.75</ele><time>2026-05-02T16:24:33Z</time></trkpt><trkpt lat="43.810838921133985" lon="11.967536028315138"><ele>578.0</ele><time>2026-05-02T16:24:34Z</time></trkpt><trkpt lat="43.810970395887054" lon="11.967535808445067"><ele>581.5</ele><time>2026-05-02T16:24:35Z</time></trkpt><trkpt lat="43.811097558055096" lon="11.9675361451794"><ele>585.0</ele><time>2026-05-02T16:24:36Z</time></trkpt><trkpt lat="43.81122329987202" lon="11.967527657750423"><ele>588.5</ele><time>2026-05-02T16:24:37Z</time></trkpt><trkpt lat="43.811352582994566" lon="11.967518792398087"><ele>592.0</ele><time>2026-05-02T16:24:38Z</time></trkpt><trkpt lat="43.81148615707849" lon="11.967522125896622"><ele>583.25</ele><time>2026-05-02T16:24:39Z</time></trkpt><trkpt lat="43.81161676194084" lon="11.967519402243475"><ele>574.5</ele><time>2026-05-02T16:24:40Z</time></trkpt><trkpt lat="43.81175245543186" lon="11.967519481606043"><ele>565.75</ele><time>2026-05-02T16:24:41Z</time></trkpt><trkpt lat="43.81188430719144" lon="11.967526087843698"><ele>557.0</ele><time>2026-05-02T16:24:42Z</time></trkpt><trkpt lat="43.81202213929147" lon="11.96752379569094"><ele>555.5</ele><time>2026-05-02T16:24:43Z</time></trkpt><trkpt lat="43.81215981757966" lon="11.967520328897205"><ele>554.0</ele><time>2026-05-02T16:24:44Z</time></trkpt><trkpt lat="43.81229825905266" lon="11.967521429360552"><ele>552.5</ele><time>2026-05-02T16:24:45Z</time></trkpt><trkpt lat="43.8124350348064" lon="11.967521844907798"><ele>551.0</ele><time>2026-05-02T16:24:46Z</time></trkpt><trkpt lat="43.81257067886778" lon="11.967520493831534"><ele>550.75</ele><time>2026-05-02T16:24:47Z</time></trkpt><trkpt lat="43.81269861679692" lon="11.967514892026731"><ele>550.5</ele><time>2026-05-02T16:24:48Z</time></trkpt><trkpt lat="43.81282885054997" lon="11.96749791258997"><ele>550.25</ele><time>2026-05-02T16:24:49Z</time></trkpt><trkpt lat="43.812958610087655" lon="11.967485960285158"><ele>550.0</ele><time>2026-05-02T16:24:50Z</time></trkpt><trkpt lat="43.81308827692143" lon="11.967463982425173"><ele>550.0</ele><time>2026-05-02T16:24:51Z</time></trkpt><trkpt lat="43.81321358987053" lon="11.967430084747127"><ele>550.0</ele><time>2026-05-02T16:24:52Z</time></trkpt><trkpt lat="43.81334290172712" lon="11.967393788609822"><ele>550.0</ele><time>2026-05-02T16:24:53Z</time></trkpt><trkpt lat="43.81347548978971" lon="11.967355043842963"><ele>550.0</ele><time>2026-05-02T16:24:54Z</time></trkpt><trkpt lat="43.81360536645129" lon="11.967308167421125"><ele>549.5</ele><time>2026-05-02T16:24:55Z</time></trkpt><trkpt lat="43.81373078023283" lon="11.967252174085061"><ele>549.0</ele><time>2026-05-02T16:24:56Z</time></trkpt><trkpt lat="43.81385487398827" lon="11.967192528408429"><ele>548.5</ele><time>2026-05-02T16:24:57Z</time></trkpt><trkpt lat="43.81398166330302" lon="11.967120580770484"><ele>548.0</ele><time>2026-05-02T16:24:58Z</time></trkpt><trkpt lat="43.81410230460463" lon="11.967038360320599"><ele>548.0</ele><time>2026-05-02T16:24:59Z</time></trkpt><trkpt lat="43.814224856544676" lon="11.966956660513972"><ele>548.0</ele><time>2026-05-02T16:25:00Z</time></trkpt><trkpt lat="43.814346527373814" lon="11.96686801755812"><ele>548.0</ele><time>2026-05-02T16:25:01Z</time></trkpt><trkpt lat="43.81446216527117" lon="11.966773272780989"><ele>548.0</ele><time>2026-05-02T16:25:02Z</time></trkpt><trkpt lat="43.8145780839313" lon="11.966662025797321"><ele>549.75</ele><time>2026-05-02T16:25:03Z</time></trkpt><trkpt lat="43.81468851660162" lon="11.96655663556534"><ele>551.5</ele><time>2026-05-02T16:25:04Z</time></trkpt><trkpt lat="43.814797066566754" lon="11.966450466743126"><ele>553.25</ele><time>2026-05-02T16:25:05Z</time></trkpt><trkpt lat="43.8148982888337" lon="11.966336503122863"><ele>555.0</ele><time>2026-05-02T16:25:06Z</time></trkpt><trkpt lat="43.814994975508185" lon="11.966224089818851"><ele>555.0</ele><time>2026-05-02T16:25:07Z</time></trkpt><trkpt lat="43.81509186620655" lon="11.966098374373422"><ele>555.0</ele><time>2026-05-02T16:25:08Z</time></trkpt><trkpt lat="43.8151890916974" lon="11.96596702142115"><ele>555.0</ele><time>2026-05-02T16:25:09Z</time></trkpt><trkpt lat="43.81528015238682" lon="11.965837556087779"><ele>555.0</ele><time>2026-05-02T16:25:10Z</time></trkpt><trkpt lat="43.81536624058313" lon="11.96569529518615"><ele>553.25</ele><time>2026-05-02T16:25:11Z</time></trkpt><trkpt lat="43.81545098712296" lon="11.965554095339064"><ele>551.5</ele><time>2026-05-02T16:25:12Z</time></trkpt><trkpt lat="43.815531634127815" lon="11.965406272586703"><ele>549.75</ele><time>2026-05-02T16:25:13Z</time></trkpt><trkpt lat="43.81561371680608" lon="11.96525763464975"><ele>548.0</ele><time>2026-05-02T16:25:14Z</time></trkpt><trkpt lat="43.815686586449736" lon="11.965101638259515"><ele>550.25</ele><time>2026-05-02T16:25:15Z</time></trkpt><trkpt lat="43.81575614230894" lon="11.964945789209796"><ele>552.5</ele><time>2026-05-02T16:25:16Z</time></trkpt><trkpt lat="43.815821688958636" lon="11.96479533501593"><ele>554.75</ele><time>2026-05-02T16:25:17Z</time></trkpt><trkpt lat="43.81588491869744" lon="11.964642784418889"><ele>557.0</ele><time>2026-05-02T16:25:18Z</time></trkpt><trkpt lat="43.81595434429079" lon="11.964489802837464"><ele>555.5</ele><time>2026-05-02T16:25:19Z</time></trkpt><trkpt lat="43.816025510745284" lon="11.964332420979247"><ele>554.0</ele><time>2026-05-02T16:25:20Z</time></trkpt><trkpt lat="43.81610070957247" lon="11.964175339960892"><ele>552.5</ele><time>2026-05-02T16:25:21Z</time></trkpt><trkpt lat="43.816182187680155" lon="11.964017680157944"><ele>551.0</ele><time>2026-05-02T16:25:22Z</time></trkpt><trkpt lat="43.81626137879509" lon="11.963866563761911"><ele>551.0</ele><time>2026-05-02T16:25:23Z</time></trkpt><trkpt lat="43.8163458500627" lon="11.963723361045313"><ele>551.0</ele><time>2026-05-02T16:25:24Z</time></trkpt><trkpt lat="43.816429683516056" lon="11.96358525517864"><ele>551.0</ele><time>2026-05-02T16:25:25Z</time></trkpt><trkpt lat="43.81650943270751" lon="11.963458033987317"><ele>551.0</ele><time>2026-05-02T16:25:26Z</time></trkpt><trkpt lat="43.816598424178764" lon="11.963326885779983"><ele>551.0</ele><time>2026-05-02T16:25:27Z</time></trkpt><trkpt lat="43.816696881604116" lon="11.963201620122181"><ele>551.0</ele><time>2026-05-02T16:25:28Z</time></trkpt><trkpt lat="43.816798998161495" lon="11.963073821019503"><ele>551.0</ele><time>2026-05-02T16:25:29Z</time></trkpt><trkpt lat="43.816903458854966" lon="11.962951446014165"><ele>551.0</ele><time>2026-05-02T16:25:30Z</time></trkpt><trkpt lat="43.81701126765722" lon="11.962831604745356"><ele>551.5</ele><time>2026-05-02T16:25:31Z</time></trkpt><trkpt lat="43.81712185171648" lon="11.962713094288103"><ele>552.0</ele><time>2026-05-02T16:25:32Z</time></trkpt><trkpt lat="43.817227441419504" lon="11.962601464590122"><ele>552.5</ele><time>2026-05-02T16:25:33Z</time></trkpt><trkpt lat="43.81733245234174" lon="11.962496258709141"><ele>553.0</ele><time>2026-05-02T16:25:34Z</time></trkpt><trkpt lat="43.817438858396294" lon="11.96239247246633"><ele>551.25</ele><time>2026-05-02T16:25:35Z</time></trkpt><trkpt lat="43.81754398731832" lon="11.962282238207475"><ele>549.5</ele><time>2026-05-02T16:25:36Z</time></trkpt><trkpt lat="43.817654793291275" lon="11.962174280135008"><ele>547.75</ele><time>2026-05-02T16:25:37Z</time></trkpt><trkpt lat="43.81776674357587" lon="11.962060583463243"><ele>546.0</ele><time>2026-05-02T16:25:38Z</time></trkpt><trkpt lat="43.81788151569408" lon="11.961948266277995"><ele>546.0</ele><time>2026-05-02T16:25:39Z</time></trkpt><trkpt lat="43.817995954182585" lon="11.961833625022656"><ele>546.0</ele><time>2026-05-02T16:25:40Z</time></trkpt><trkpt lat="43.81810826553117" lon="11.961726208442888"><ele>546.0</ele><time>2026-05-02T16:25:41Z</time></trkpt><trkpt lat="43.8182207363927" lon="11.96161450373184"><ele>546.0</ele><time>2026-05-02T16:25:42Z</time></trkpt><trkpt lat="43.81833471663784" lon="11.961499839418819"><ele>542.75</ele><time>2026-05-02T16:25:43Z</time></trkpt><trkpt lat="43.81844762844912" lon="11.961385524344223"><ele>539.5</ele><time>2026-05-02T16:25:44Z</time></trkpt><trkpt lat="43.818560572098235" lon="11.96126995396257"><ele>536.25</ele><time>2026-05-02T16:25:45Z</time></trkpt><trkpt lat="43.81867214886399" lon="11.961162102567494"><ele>533.0</ele><time>2026-05-02T16:25:46Z</time></trkpt><trkpt lat="43.818795338752125" lon="11.961050197695567"><ele>532.75</ele><time>2026-05-02T16:25:47Z</time></trkpt><trkpt lat="43.81890491256372" lon="11.9609393001405"><ele>532.5</ele><time>2026-05-02T16:25:48Z</time></trkpt><trkpt lat="43.819006219722986" lon="11.960839976394965"><ele>532.25</ele><time>2026-05-02T16:25:49Z</time></trkpt><trkpt lat="43.81911487083486" lon="11.960732766633022"><ele>532.0</ele><time>2026-05-02T16:25:50Z</time></trkpt><trkpt lat="43.819223120205294" lon="11.960622887499946"><ele>534.75</ele><time>2026-05-02T16:25:51Z</time></trkpt><trkpt lat="43.81932989150036" lon="11.960510019319972"><ele>537.5</ele><time>2026-05-02T16:25:52Z</time></trkpt><trkpt lat="43.81943681410095" lon="11.96040223914759"><ele>540.25</ele><time>2026-05-02T16:25:53Z</time></trkpt><trkpt lat="43.81954351792481" lon="11.960297648908304"><ele>543.0</ele><time>2026-05-02T16:25:54Z</time></trkpt><trkpt lat="43.81964800085332" lon="11.960194938739848"><ele>543.0</ele><time>2026-05-02T16:25:55Z</time></trkpt><trkpt lat="43.81975353539701" lon="11.96009009185479"><ele>543.0</ele><time>2026-05-02T16:25:56Z</time></trkpt><trkpt lat="43.81986187895339" lon="11.959984595223895"><ele>543.0</ele><time>2026-05-02T16:25:57Z</time></trkpt><trkpt lat="43.81997070622871" lon="11.95987568446372"><ele>543.0</ele><time>2026-05-02T16:25:58Z</time></trkpt><trkpt lat="43.82007925225949" lon="11.959766196619917"><ele>539.5</ele><time>2026-05-02T16:25:59Z</time></trkpt><trkpt lat="43.820195704371926" lon="11.959655032031375"><ele>536.0</ele><time>2026-05-02T16:26:00Z</time></trkpt><trkpt lat="43.820312317961864" lon="11.959542392507272"><ele>532.5</ele><time>2026-05-02T16:26:01Z</time></trkpt><trkpt lat="43.820423282540716" lon="11.959430007478314"><ele>529.0</ele><time>2026-05-02T16:26:02Z</time></trkpt><trkpt lat="43.820532980799626" lon="11.95931877974616"><ele>529.0</ele><time>2026-05-02T16:26:03Z</time></trkpt><trkpt lat="43.82064299886451" lon="11.95921205310412"><ele>529.0</ele><time>2026-05-02T16:26:04Z</time></trkpt><trkpt lat="43.82075439155106" lon="11.959104932001017"><ele>529.0</ele><time>2026-05-02T16:26:05Z</time></trkpt><trkpt lat="43.820859364088655" lon="11.95900607385171"><ele>529.0</ele><time>2026-05-02T16:26:06Z</time></trkpt><trkpt lat="43.820968542715136" lon="11.958917256765691"><ele>527.25</ele><time>2026-05-02T16:26:07Z</time></trkpt><trkpt lat="43.821071234267045" lon="11.958826565510963"><ele>525.5</ele><time>2026-05-02T16:26:08Z</time></trkpt><trkpt lat="43.8211839096198" lon="11.958738295189887"><ele>523.75</ele><time>2026-05-02T16:26:09Z</time></trkpt><trkpt lat="43.82130139638073" lon="11.958658517309"><ele>522.0</ele><time>2026-05-02T16:26:10Z</time></trkpt><trkpt lat="43.82142036390864" lon="11.958583586343746"><ele>522.0</ele><time>2026-05-02T16:26:11Z</time></trkpt><trkpt lat="43.821543738860875" lon="11.958515117446254"><ele>522.0</ele><time>2026-05-02T16:26:12Z</time></trkpt><trkpt lat="43.82167124036324" lon="11.958446965183205"><ele>522.0</ele><time>2026-05-02T16:26:13Z</time></trkpt><trkpt lat="43.82180442825618" lon="11.958385215865846"><ele>522.0</ele><time>2026-05-02T16:26:14Z</time></trkpt><trkpt lat="43.82193475221001" lon="11.958335553410452"><ele>519.25</ele><time>2026-05-02T16:26:15Z</time></trkpt><trkpt lat="43.82206123818343" lon="11.958294470798528"><ele>516.5</ele><time>2026-05-02T16:26:16Z</time></trkpt><trkpt lat="43.822188281678855" lon="11.958260977031344"><ele>513.75</ele><time>2026-05-02T16:26:17Z</time></trkpt><trkpt lat="43.82231972146888" lon="11.95823691754283"><ele>511.0</ele><time>2026-05-02T16:26:18Z</time></trkpt><trkpt lat="43.82244880623557" lon="11.958212467660777"><ele>511.0</ele><time>2026-05-02T16:26:19Z</time></trkpt><trkpt lat="43.822578016264615" lon="11.958196847145647"><ele>511.0</ele><time>2026-05-02T16:26:20Z</time></trkpt><trkpt lat="43.82270885459199" lon="11.958189646518164"><ele>511.0</ele><time>2026-05-02T16:26:21Z</time></trkpt><trkpt lat="43.82283692936217" lon="11.958192374122667"><ele>511.0</ele><time>2026-05-02T16:26:22Z</time></trkpt><trkpt lat="43.82296245403365" lon="11.95820387992443"><ele>510.0</ele><time>2026-05-02T16:26:23Z</time></trkpt><trkpt lat="43.823094030968356" lon="11.958217544866807"><ele>509.0</ele><time>2026-05-02T16:26:24Z</time></trkpt><trkpt lat="43.82322375070307" lon="11.958239001453018"><ele>508.0</ele><time>2026-05-02T16:26:25Z</time></trkpt><trkpt lat="43.823353699149585" lon="11.958266020202943"><ele>507.0</ele><time>2026-05-02T16:26:26Z</time></trkpt><trkpt lat="43.82348652867408" lon="11.958301515397093"><ele>507.5</ele><time>2026-05-02T16:26:27Z</time></trkpt><trkpt lat="43.82361974767972" lon="11.958348861265407"><ele>508.0</ele><time>2026-05-02T16:26:28Z</time></trkpt><trkpt lat="43.823754039426774" lon="11.958400034097288"><ele>508.5</ele><time>2026-05-02T16:26:29Z</time></trkpt><trkpt lat="43.82388780220706" lon="11.95845350807581"><ele>509.0</ele><time>2026-05-02T16:26:30Z</time></trkpt><trkpt lat="43.824017635921635" lon="11.958508532753635"><ele>509.0</ele><time>2026-05-02T16:26:31Z</time></trkpt><trkpt lat="43.82414465167848" lon="11.958561317654981"><ele>509.0</ele><time>2026-05-02T16:26:32Z</time></trkpt><trkpt lat="43.824273288037595" lon="11.95862203707522"><ele>509.0</ele><time>2026-05-02T16:26:33Z</time></trkpt><trkpt lat="43.82440087269262" lon="11.958677614658706"><ele>509.0</ele><time>2026-05-02T16:26:34Z</time></trkpt><trkpt lat="43.824522931833776" lon="11.958731972901235"><ele>508.25</ele><time>2026-05-02T16:26:35Z</time></trkpt><trkpt lat="43.824641666432505" lon="11.958787545418007"><ele>507.5</ele><time>2026-05-02T16:26:36Z</time></trkpt><trkpt lat="43.82476032191526" lon="11.958849046728881"><ele>506.75</ele><time>2026-05-02T16:26:37Z</time></trkpt><trkpt lat="43.82488206188744" lon="11.95890664446379"><ele>506.0</ele><time>2026-05-02T16:26:38Z</time></trkpt><trkpt lat="43.825001280574" lon="11.95895890157286"><ele>506.0</ele><time>2026-05-02T16:26:39Z</time></trkpt><trkpt lat="43.82512433312647" lon="11.959011642615966"><ele>506.0</ele><time>2026-05-02T16:26:40Z</time></trkpt><trkpt lat="43.82524605849529" lon="11.959069137649381"><ele>506.0</ele><time>2026-05-02T16:26:41Z</time></trkpt><trkpt lat="43.825368004847284" lon="11.959121262384656"><ele>506.0</ele><time>2026-05-02T16:26:42Z</time></trkpt><trkpt lat="43.825490084623794" lon="11.959180144436539"><ele>507.25</ele><time>2026-05-02T16:26:43Z</time></trkpt><trkpt lat="43.82561277159345" lon="11.95923537973779"><ele>508.5</ele><time>2026-05-02T16:26:44Z</time></trkpt><trkpt lat="43.82573768891772" lon="11.959292304153987"><ele>509.75</ele><time>2026-05-02T16:26:45Z</time></trkpt><trkpt lat="43.82586299238938" lon="11.959352722311465"><ele>511.0</ele><time>2026-05-02T16:26:46Z</time></trkpt><trkpt lat="43.82599253105644" lon="11.959416010369106"><ele>511.0</ele><time>2026-05-02T16:26:47Z</time></trkpt><trkpt lat="43.82612599693619" lon="11.95947581756218"><ele>511.0</ele><time>2026-05-02T16:26:48Z</time></trkpt><trkpt lat="43.82626089978645" lon="11.959538532772187"><ele>511.0</ele><time>2026-05-02T16:26:49Z</time></trkpt><trkpt lat="43.826392808366506" lon="11.959596983867094"><ele>511.0</ele><time>2026-05-02T16:26:50Z</time></trkpt><trkpt lat="43.82651829782661" lon="11.959654100392546"><ele>511.0</ele><time>2026-05-02T16:26:51Z</time></trkpt><trkpt lat="43.82663930628697" lon="11.959707332059326"><ele>511.0</ele><time>2026-05-02T16:26:52Z</time></trkpt><trkpt lat="43.82675848562805" lon="11.959757534712073"><ele>511.0</ele><time>2026-05-02T16:26:53Z</time></trkpt><trkpt lat="43.82687604410129" lon="11.959811707806335"><ele>511.0</ele><time>2026-05-02T16:26:54Z</time></trkpt><trkpt lat="43.82699293198724" lon="11.959864809741365"><ele>509.0</ele><time>2026-05-02T16:26:55Z</time></trkpt><trkpt lat="43.827106880790566" lon="11.959923396556873"><ele>507.0</ele><time>2026-05-02T16:26:56Z</time></trkpt><trkpt lat="43.82722308276231" lon="11.959982083323592"><ele>505.0</ele><time>2026-05-02T16:26:57Z</time></trkpt><trkpt lat="43.827348380621984" lon="11.960046952002697"><ele>503.0</ele><time>2026-05-02T16:26:58Z</time></trkpt><trkpt lat="43.82746864979865" lon="11.960121013204164"><ele>508.5</ele><time>2026-05-02T16:26:59Z</time></trkpt><trkpt lat="43.82758736554437" lon="11.960202031863409"><ele>514.0</ele><time>2026-05-02T16:27:00Z</time></trkpt><trkpt lat="43.82771124636195" lon="11.960287056111255"><ele>519.5</ele><time>2026-05-02T16:27:01Z</time></trkpt><trkpt lat="43.82783554417351" lon="11.960375819741786"><ele>525.0</ele><time>2026-05-02T16:27:02Z</time></trkpt><trkpt lat="43.8279575841979" lon="11.960473899049587"><ele>525.0</ele><time>2026-05-02T16:27:03Z</time></trkpt><trkpt lat="43.82807875324182" lon="11.960569240781663"><ele>525.0</ele><time>2026-05-02T16:27:04Z</time></trkpt><trkpt lat="43.82819553801471" lon="11.96065996256964"><ele>525.0</ele><time>2026-05-02T16:27:05Z</time></trkpt><trkpt lat="43.828313402416974" lon="11.960744127126805"><ele>525.0</ele><time>2026-05-02T16:27:06Z</time></trkpt><trkpt lat="43.82842898370996" lon="11.96083182175923"><ele>528.5</ele><time>2026-05-02T16:27:07Z</time></trkpt><trkpt lat="43.82854310007591" lon="11.960921631505643"><ele>532.0</ele><time>2026-05-02T16:27:08Z</time></trkpt><trkpt lat="43.82866112182927" lon="11.961007738755013"><ele>535.5</ele><time>2026-05-02T16:27:09Z</time></trkpt><trkpt lat="43.82877897729737" lon="11.961094979514996"><ele>539.0</ele><time>2026-05-02T16:27:10Z</time></trkpt><trkpt lat="43.828897519035344" lon="11.961182465666116"><ele>539.0</ele><time>2026-05-02T16:27:11Z</time></trkpt><trkpt lat="43.82901325034001" lon="11.961271216785503"><ele>539.0</ele><time>2026-05-02T16:27:12Z</time></trkpt><trkpt lat="43.82912895770906" lon="11.961360010467"><ele>539.0</ele><time>2026-05-02T16:27:13Z</time></trkpt><trkpt lat="43.82924476745061" lon="11.96145026738894"><ele>539.0</ele><time>2026-05-02T16:27:14Z</time></trkpt><trkpt lat="43.82936178182098" lon="11.961542087125151"><ele>544.5</ele><time>2026-05-02T16:27:15Z</time></trkpt><trkpt lat="43.82947874037946" lon="11.96163121641542"><ele>550.0</ele><time>2026-05-02T16:27:16Z</time></trkpt><trkpt lat="43.82959514399248" lon="11.961720857086132"><ele>555.5</ele><time>2026-05-02T16:27:17Z</time></trkpt><trkpt lat="43.82971117703644" lon="11.961806660052302"><ele>561.0</ele><time>2026-05-02T16:27:18Z</time></trkpt><trkpt lat="43.829828791997706" lon="11.961897375731088"><ele>563.5</ele><time>2026-05-02T16:27:19Z</time></trkpt><trkpt lat="43.82994737773823" lon="11.961990197182189"><ele>566.0</ele><time>2026-05-02T16:27:20Z</time></trkpt><trkpt lat="43.83006319420201" lon="11.96207070052709"><ele>568.5</ele><time>2026-05-02T16:27:21Z</time></trkpt><trkpt lat="43.83018463491125" lon="11.962165337399366"><ele>571.0</ele><time>2026-05-02T16:27:22.019Z</time></trkpt><trkpt lat="43.83030447843496" lon="11.962259772715733"><ele>489.0</ele><time>2026-05-02T16:27:23.02Z</time></trkpt><trkpt lat="43.84338914420813" lon="11.972379740338747"><ele>487.25</ele><time>2026-05-02T16:29:10Z</time></trkpt><trkpt lat="43.843511551726195" lon="11.972479705546677"><ele>485.5</ele><time>2026-05-02T16:29:11Z</time></trkpt><trkpt lat="43.84361941403044" lon="11.972486477571127"><ele>483.75</ele><time>2026-05-02T16:29:12Z</time></trkpt><trkpt lat="43.84374277780744" lon="11.97258691569541"><ele>482.0</ele><time>2026-05-02T16:29:13Z</time></trkpt><trkpt lat="43.84386227876107" lon="11.972676341992763"><ele>482.0</ele><time>2026-05-02T16:29:14Z</time></trkpt><trkpt lat="43.84398428289539" lon="11.972768080465782"><ele>482.0</ele><time>2026-05-02T16:29:15Z</time></trkpt><trkpt lat="43.844110823564385" lon="11.972857990090974"><ele>482.0</ele><time>2026-05-02T16:29:16Z</time></trkpt><trkpt lat="43.84423131273716" lon="11.972951591721623"><ele>482.0</ele><time>2026-05-02T16:29:17Z</time></trkpt><trkpt lat="43.844352056482236" lon="11.973040153196209"><ele>481.75</ele><time>2026-05-02T16:29:18Z</time></trkpt><trkpt lat="43.84447602589405" lon="11.973129434059416"><ele>481.5</ele><time>2026-05-02T16:29:19Z</time></trkpt><trkpt lat="43.84459947119764" lon="11.973222990820988"><ele>481.25</ele><time>2026-05-02T16:29:20Z</time></trkpt><trkpt lat="43.84471750441273" lon="11.973315122005896"><ele>481.0</ele><time>2026-05-02T16:29:21Z</time></trkpt><trkpt lat="43.844837770163316" lon="11.973406246574127"><ele>480.75</ele><time>2026-05-02T16:29:22Z</time></trkpt><trkpt lat="43.844954810670615" lon="11.97350223855424"><ele>480.5</ele><time>2026-05-02T16:29:23Z</time></trkpt><trkpt lat="43.84507209976452" lon="11.973597503953421"><ele>480.25</ele><time>2026-05-02T16:29:24Z</time></trkpt><trkpt lat="43.84518573147698" lon="11.97369715643664"><ele>480.0</ele><time>2026-05-02T16:29:25Z</time></trkpt><trkpt lat="43.84530069126083" lon="11.973798254292463"><ele>480.0</ele><time>2026-05-02T16:29:26Z</time></trkpt><trkpt lat="43.84541065063708" lon="11.973910979195484"><ele>480.0</ele><time>2026-05-02T16:29:27Z</time></trkpt><trkpt lat="43.84551760541457" lon="11.97401581821346"><ele>480.0</ele><time>2026-05-02T16:29:28Z</time></trkpt><trkpt lat="43.84562470392511" lon="11.974123725229546"><ele>480.0</ele><time>2026-05-02T16:29:29Z</time></trkpt><trkpt lat="43.84573333970225" lon="11.974229099255686"><ele>479.25</ele><time>2026-05-02T16:29:30Z</time></trkpt><trkpt lat="43.845842574514975" lon="11.97433089576741"><ele>478.5</ele><time>2026-05-02T16:29:31Z</time></trkpt><trkpt lat="43.8459528369869" lon="11.974433670375719"><ele>477.75</ele><time>2026-05-02T16:29:32Z</time></trkpt><trkpt lat="43.846059873588835" lon="11.97453664444763"><ele>477.0</ele><time>2026-05-02T16:29:33Z</time></trkpt><trkpt lat="43.84617315229798" lon="11.974641975305977"><ele>477.0</ele><time>2026-05-02T16:29:34Z</time></trkpt><trkpt lat="43.84628780350461" lon="11.974749053023903"><ele>477.0</ele><time>2026-05-02T16:29:35Z</time></trkpt><trkpt lat="43.846401763742605" lon="11.974865507655542"><ele>477.0</ele><time>2026-05-02T16:29:36Z</time></trkpt><trkpt lat="43.84651378358911" lon="11.974983605144685"><ele>477.0</ele><time>2026-05-02T16:29:37Z</time></trkpt><trkpt lat="43.84662413010755" lon="11.975106903287763"><ele>476.0</ele><time>2026-05-02T16:29:38Z</time></trkpt><trkpt lat="43.84672055734456" lon="11.975223977059844"><ele>475.0</ele><time>2026-05-02T16:29:39Z</time></trkpt><trkpt lat="43.846817021520444" lon="11.97532588827842"><ele>474.0</ele><time>2026-05-02T16:29:40Z</time></trkpt><trkpt lat="43.846906300672224" lon="11.975413533114194"><ele>473.0</ele><time>2026-05-02T16:29:41Z</time></trkpt><trkpt lat="43.846987904963" lon="11.975550062524464"><ele>473.0</ele><time>2026-05-02T16:29:42Z</time></trkpt><trkpt lat="43.84704531551658" lon="11.975668367010227"><ele>472.99999999999994</ele><time>2026-05-02T16:29:43Z</time></trkpt><trkpt lat="43.84708255130244" lon="11.975822238840122"><ele>472.99999999999994</ele><time>2026-05-02T16:29:44Z</time></trkpt><trkpt lat="43.8470926845574" lon="11.975972316063075"><ele>473.0</ele><time>2026-05-02T16:29:45Z</time></trkpt><trkpt lat="43.84706886500355" lon="11.97610399374858"><ele>473.0</ele><time>2026-05-02T16:29:46Z</time></trkpt><trkpt lat="43.84702186498754" lon="11.976200161540062"><ele>473.79999999999995</ele><time>2026-05-02T16:29:47Z</time></trkpt><trkpt lat="43.846956871976715" lon="11.976274612799724"><ele>474.59999999999997</ele><time>2026-05-02T16:29:48Z</time></trkpt><trkpt lat="43.84686483603038" lon="11.976315181827129"><ele>475.40000000000003</ele><time>2026-05-02T16:29:49Z</time></trkpt><trkpt lat="43.846762179595814" lon="11.97635600859513"><ele>476.20000000000005</ele><time>2026-05-02T16:29:50Z</time></trkpt><trkpt lat="43.846645926007746" lon="11.976330441027805"><ele>477.0</ele><time>2026-05-02T16:29:51Z</time></trkpt><trkpt lat="43.84653599421869" lon="11.976242477819792"><ele>478.25</ele><time>2026-05-02T16:29:52Z</time></trkpt><trkpt lat="43.846435173513804" lon="11.97613028237253"><ele>479.5</ele><time>2026-05-02T16:29:53Z</time></trkpt><trkpt lat="43.846342585501326" lon="11.975999230617791"><ele>480.75</ele><time>2026-05-02T16:29:54Z</time></trkpt><trkpt lat="43.84626115891741" lon="11.975854985455687"><ele>482.0</ele><time>2026-05-02T16:29:55Z</time></trkpt><trkpt lat="43.84619124141547" lon="11.97569874014741"><ele>482.0</ele><time>2026-05-02T16:29:56Z</time></trkpt><trkpt lat="43.8461368817455" lon="11.975516210375112"><ele>482.0</ele><time>2026-05-02T16:29:57Z</time></trkpt><trkpt lat="43.846114752779215" lon="11.975311807694652"><ele>482.0</ele><time>2026-05-02T16:29:58Z</time></trkpt><trkpt lat="43.846085997721595" lon="11.97509957738348"><ele>482.0</ele><time>2026-05-02T16:29:59Z</time></trkpt><trkpt lat="43.84607302310382" lon="11.974884294750451"><ele>480.3333333333333</ele><time>2026-05-02T16:30:00Z</time></trkpt><trkpt lat="43.84606723371936" lon="11.974657849793685"><ele>478.66666666666663</ele><time>2026-05-02T16:30:01Z</time></trkpt><trkpt lat="43.84605126124731" lon="11.97444119548086"><ele>477.0</ele><time>2026-05-02T16:30:02Z</time></trkpt><trkpt lat="43.84604159336348" lon="11.974211638960579"><ele>476.0</ele><time>2026-05-02T16:30:03Z</time></trkpt><trkpt lat="43.846032037308525" lon="11.973993261727607"><ele>475.0</ele><time>2026-05-02T16:30:04Z</time></trkpt><trkpt lat="43.846007212538765" lon="11.973775057613077"><ele>474.0</ele><time>2026-05-02T16:30:05Z</time></trkpt><trkpt lat="43.846010373198816" lon="11.973624916313232"><ele>473.0</ele><time>2026-05-02T16:30:06Z</time></trkpt><trkpt lat="43.845997667913245" lon="11.973441036434085"><ele>473.25</ele><time>2026-05-02T16:30:07Z</time></trkpt><trkpt lat="43.845994254554014" lon="11.973265034222864"><ele>473.5</ele><time>2026-05-02T16:30:08Z</time></trkpt><trkpt lat="43.845986624617325" lon="11.973076300992863"><ele>473.75</ele><time>2026-05-02T16:30:09Z</time></trkpt><trkpt lat="43.845961080549635" lon="11.97291217070944"><ele>474.0</ele><time>2026-05-02T16:30:10Z</time></trkpt><trkpt lat="43.84595146596574" lon="11.972731602812825"><ele>474.0</ele><time>2026-05-02T16:30:11Z</time></trkpt><trkpt lat="43.84594187730458" lon="11.972557003205464"><ele>474.0</ele><time>2026-05-02T16:30:12Z</time></trkpt><trkpt lat="43.845932163087056" lon="11.972379556283046"><ele>474.0</ele><time>2026-05-02T16:30:13Z</time></trkpt><trkpt lat="43.84592286450374" lon="11.97219847488918"><ele>474.0</ele><time>2026-05-02T16:30:14Z</time></trkpt><trkpt lat="43.845911939638796" lon="11.9720150845455"><ele>473.5</ele><time>2026-05-02T16:30:15Z</time></trkpt><trkpt lat="43.84590071016347" lon="11.971827188388236"><ele>473.0</ele><time>2026-05-02T16:30:16Z</time></trkpt><trkpt lat="43.845887332623" lon="11.971635361993114"><ele>472.5</ele><time>2026-05-02T16:30:17Z</time></trkpt><trkpt lat="43.84587393652322" lon="11.971455503038754"><ele>472.0</ele><time>2026-05-02T16:30:18Z</time></trkpt><trkpt lat="43.84586091675203" lon="11.971295958155958"><ele>471.8</ele><time>2026-05-02T16:30:19Z</time></trkpt><trkpt lat="43.84584882391167" lon="11.97115152258939"><ele>471.6</ele><time>2026-05-02T16:30:20Z</time></trkpt><trkpt lat="43.84583904495398" lon="11.971019574846034"><ele>471.40000000000003</ele><time>2026-05-02T16:30:21Z</time></trkpt><trkpt lat="43.845831313260085" lon="11.970898030270991"><ele>471.20000000000005</ele><time>2026-05-02T16:30:22Z</time></trkpt><trkpt lat="43.84582417187504" lon="11.970773363738056"><ele>471.0</ele><time>2026-05-02T16:30:23Z</time></trkpt><trkpt lat="43.84581770553982" lon="11.970654935970778"><ele>471.0</ele><time>2026-05-02T16:30:24Z</time></trkpt><trkpt lat="43.84585389926707" lon="11.970521349325344"><ele>471.0</ele><time>2026-05-02T16:30:25Z</time></trkpt><trkpt lat="43.845877384155926" lon="11.970399443604117"><ele>471.0</ele><time>2026-05-02T16:30:26Z</time></trkpt><trkpt lat="43.84591989705736" lon="11.970308447846415"><ele>471.0</ele><time>2026-05-02T16:30:27Z</time></trkpt><trkpt lat="43.84597274884478" lon="11.97021547524015"><ele>471.0</ele><time>2026-05-02T16:30:28Z</time></trkpt><trkpt lat="43.84607604035863" lon="11.970197184956817"><ele>471.25</ele><time>2026-05-02T16:30:29Z</time></trkpt><trkpt lat="43.846179768838915" lon="11.97018204188864"><ele>471.5</ele><time>2026-05-02T16:30:30Z</time></trkpt><trkpt lat="43.84628981697839" lon="11.970205208010979"><ele>471.75</ele><time>2026-05-02T16:30:31Z</time></trkpt><trkpt lat="43.846409942469606" lon="11.97023471754122"><ele>472.0</ele><time>2026-05-02T16:30:32Z</time></trkpt><trkpt lat="43.84652515283386" lon="11.970259973152347"><ele>472.0</ele><time>2026-05-02T16:30:33Z</time></trkpt><trkpt lat="43.846657016569466" lon="11.970292227386963"><ele>472.0</ele><time>2026-05-02T16:30:34Z</time></trkpt><trkpt lat="43.84678739547846" lon="11.97033734976885"><ele>472.0</ele><time>2026-05-02T16:30:35Z</time></trkpt><trkpt lat="43.846914930663175" lon="11.970390373762758"><ele>472.0</ele><time>2026-05-02T16:30:36Z</time></trkpt><trkpt lat="43.84702735747765" lon="11.97048354501688"><ele>472.75</ele><time>2026-05-02T16:30:37Z</time></trkpt><trkpt lat="43.847141957689225" lon="11.970559844532511"><ele>473.5</ele><time>2026-05-02T16:30:38Z</time></trkpt><trkpt lat="43.847253322431854" lon="11.97064787992684"><ele>474.25</ele><time>2026-05-02T16:30:39Z</time></trkpt><trkpt lat="43.84735513337905" lon="11.970756380909062"><ele>475.0</ele><time>2026-05-02T16:30:40Z</time></trkpt><trkpt lat="43.84745603633024" lon="11.970878201772937"><ele>475.0</ele><time>2026-05-02T16:30:41Z</time></trkpt><trkpt lat="43.84755531537638" lon="11.970999090834782"><ele>475.0</ele><time>2026-05-02T16:30:42Z</time></trkpt><trkpt lat="43.84766401580634" lon="11.971106841114393"><ele>475.0</ele><time>2026-05-02T16:30:43Z</time></trkpt><trkpt lat="43.84776510208607" lon="11.971232778440791"><ele>475.0</ele><time>2026-05-02T16:30:44Z</time></trkpt><trkpt lat="43.84786424961877" lon="11.97135818455049"><ele>475.0</ele><time>2026-05-02T16:30:45Z</time></trkpt><trkpt lat="43.84795472039888" lon="11.971498915154003"><ele>475.0</ele><time>2026-05-02T16:30:46Z</time></trkpt><trkpt lat="43.84806844966778" lon="11.971610797178915"><ele>475.0</ele><time>2026-05-02T16:30:47Z</time></trkpt><trkpt lat="43.848161389811686" lon="11.97175832700859"><ele>475.0</ele><time>2026-05-02T16:30:48Z</time></trkpt><trkpt lat="43.84826549679206" lon="11.97188900230813"><ele>473.5</ele><time>2026-05-02T16:30:49Z</time></trkpt><trkpt lat="43.84836765647077" lon="11.972017233366387"><ele>472.0</ele><time>2026-05-02T16:30:50Z</time></trkpt><trkpt lat="43.84846480357863" lon="11.972139172668285"><ele>470.5</ele><time>2026-05-02T16:30:51Z</time></trkpt><trkpt lat="43.84856000527939" lon="11.972258669985171"><ele>469.0</ele><time>2026-05-02T16:30:52Z</time></trkpt><trkpt lat="43.848654857097245" lon="11.972377728234724"><ele>469.75</ele><time>2026-05-02T16:30:53Z</time></trkpt><trkpt lat="43.848753244072455" lon="11.9725012237087"><ele>470.5</ele><time>2026-05-02T16:30:54Z</time></trkpt><trkpt lat="43.84885317909611" lon="11.97262677832233"><ele>471.25</ele><time>2026-05-02T16:30:55Z</time></trkpt><trkpt lat="43.84895565276628" lon="11.97275515502679"><ele>472.0</ele><time>2026-05-02T16:30:56Z</time></trkpt><trkpt lat="43.849058354221356" lon="11.972883817058987"><ele>472.0</ele><time>2026-05-02T16:30:57Z</time></trkpt><trkpt lat="43.84915853198922" lon="11.973009317490773"><ele>472.0</ele><time>2026-05-02T16:30:58Z</time></trkpt><trkpt lat="43.84925578270411" lon="11.973131151018126"><ele>472.0</ele><time>2026-05-02T16:30:59Z</time></trkpt><trkpt lat="43.849353399360304" lon="11.973253442909067"><ele>472.0</ele><time>2026-05-02T16:31:00Z</time></trkpt><trkpt lat="43.84945233436008" lon="11.973377386388249"><ele>472.75</ele><time>2026-05-02T16:31:01Z</time></trkpt><trkpt lat="43.84955099343899" lon="11.973500984228428"><ele>473.5</ele><time>2026-05-02T16:31:02Z</time></trkpt><trkpt lat="43.8496534415038" lon="11.973629328838234"><ele>474.25</ele><time>2026-05-02T16:31:03Z</time></trkpt><trkpt lat="43.84976708536225" lon="11.973739839710133"><ele>475.0</ele><time>2026-05-02T16:31:04Z</time></trkpt><trkpt lat="43.84987065659694" lon="11.973872488172038"><ele>475.0</ele><time>2026-05-02T16:31:05Z</time></trkpt><trkpt lat="43.84997026287411" lon="11.973996046962299"><ele>475.0</ele><time>2026-05-02T16:31:06Z</time></trkpt><trkpt lat="43.85007052008325" lon="11.974126889007463"><ele>475.0</ele><time>2026-05-02T16:31:07Z</time></trkpt><trkpt lat="43.85016940946408" lon="11.97425522256765"><ele>475.0</ele><time>2026-05-02T16:31:08Z</time></trkpt><trkpt lat="43.85027340807842" lon="11.974386619424273"><ele>473.5</ele><time>2026-05-02T16:31:09Z</time></trkpt><trkpt lat="43.85038298967274" lon="11.974515131142892"><ele>472.0</ele><time>2026-05-02T16:31:10Z</time></trkpt><trkpt lat="43.85047971238077" lon="11.974627967882329"><ele>470.5</ele><time>2026-05-02T16:31:11Z</time></trkpt><trkpt lat="43.85055432559326" lon="11.974748508643293"><ele>469.0</ele><time>2026-05-02T16:31:12Z</time></trkpt><trkpt lat="43.85064743701137" lon="11.974839530301239"><ele>469.0</ele><time>2026-05-02T16:31:13Z</time></trkpt><trkpt lat="43.85072649794729" lon="11.974937760889867"><ele>469.0</ele><time>2026-05-02T16:31:14Z</time></trkpt><trkpt lat="43.850821259832685" lon="11.975050903806899"><ele>469.0</ele><time>2026-05-02T16:31:15Z</time></trkpt><trkpt lat="43.8509321689567" lon="11.97514765701899"><ele>469.0</ele><time>2026-05-02T16:31:16Z</time></trkpt><trkpt lat="43.8510405830442" lon="11.975239287085097"><ele>468.0</ele><time>2026-05-02T16:31:17Z</time></trkpt><trkpt lat="43.85115774888981" lon="11.975312699010031"><ele>467.0</ele><time>2026-05-02T16:31:18Z</time></trkpt><trkpt lat="43.851282972929866" lon="11.975379470279519"><ele>466.0</ele><time>2026-05-02T16:31:19Z</time></trkpt><trkpt lat="43.85139720477905" lon="11.975449945301905"><ele>465.0</ele><time>2026-05-02T16:31:20Z</time></trkpt><trkpt lat="43.851526978764724" lon="11.975468944251128"><ele>465.0</ele><time>2026-05-02T16:31:21Z</time></trkpt><trkpt lat="43.851651626709476" lon="11.975504726690838"><ele>465.0</ele><time>2026-05-02T16:31:22Z</time></trkpt><trkpt lat="43.85177413986775" lon="11.975559987015002"><ele>465.0</ele><time>2026-05-02T16:31:23Z</time></trkpt><trkpt lat="43.851903174433794" lon="11.975584729659563"><ele>465.0</ele><time>2026-05-02T16:31:24Z</time></trkpt><trkpt lat="43.85202835098231" lon="11.975614445807958"><ele>465.75</ele><time>2026-05-02T16:31:25Z</time></trkpt><trkpt lat="43.85215124181157" lon="11.975645995784069"><ele>466.5</ele><time>2026-05-02T16:31:26Z</time></trkpt><trkpt lat="43.852276675564276" lon="11.975683049779555"><ele>467.25</ele><time>2026-05-02T16:31:27Z</time></trkpt><trkpt lat="43.85240576482202" lon="11.975712107979655"><ele>468.0</ele><time>2026-05-02T16:31:28Z</time></trkpt><trkpt lat="43.852540251204914" lon="11.975745469540051"><ele>467.75</ele><time>2026-05-02T16:31:29Z</time></trkpt><trkpt lat="43.85266807670391" lon="11.975792415932965"><ele>467.5</ele><time>2026-05-02T16:31:30Z</time></trkpt><trkpt lat="43.852788079969976" lon="11.975823321642535"><ele>467.25</ele><time>2026-05-02T16:31:31Z</time></trkpt><trkpt lat="43.85290227389" lon="11.975850079571986"><ele>467.0</ele><time>2026-05-02T16:31:32Z</time></trkpt><trkpt lat="43.85301684003972" lon="11.975885829953974"><ele>466.0</ele><time>2026-05-02T16:31:33Z</time></trkpt><trkpt lat="43.853132853005896" lon="11.975924792279645"><ele>465.0</ele><time>2026-05-02T16:31:34Z</time></trkpt><trkpt lat="43.853257562019" lon="11.975954182297224"><ele>464.0</ele><time>2026-05-02T16:31:35Z</time></trkpt><trkpt lat="43.85338430187412" lon="11.975984568833956"><ele>463.0</ele><time>2026-05-02T16:31:36Z</time></trkpt><trkpt lat="43.853515966858986" lon="11.976030968858932"><ele>463.0</ele><time>2026-05-02T16:31:37Z</time></trkpt><trkpt lat="43.85364522059229" lon="11.976065641601474"><ele>463.0</ele><time>2026-05-02T16:31:38Z</time></trkpt><trkpt lat="43.85376029836514" lon="11.976092693405464"><ele>463.0</ele><time>2026-05-02T16:31:39Z</time></trkpt><trkpt lat="43.85388420752067" lon="11.976130272042766"><ele>463.0</ele><time>2026-05-02T16:31:40Z</time></trkpt><trkpt lat="43.854011016792846" lon="11.976158285259038"><ele>463.0</ele><time>2026-05-02T16:31:41Z</time></trkpt><trkpt lat="43.85413071479164" lon="11.976192297477695"><ele>463.0</ele><time>2026-05-02T16:31:42Z</time></trkpt><trkpt lat="43.854240217479656" lon="11.976227057728355"><ele>463.0</ele><time>2026-05-02T16:31:43Z</time></trkpt><trkpt lat="43.85435319296401" lon="11.976253439598786"><ele>463.0</ele><time>2026-05-02T16:31:44Z</time></trkpt><trkpt lat="43.85447420832955" lon="11.976283296661466"><ele>463.75</ele><time>2026-05-02T16:31:45Z</time></trkpt><trkpt lat="43.854587195376396" lon="11.976333757121214"><ele>464.5</ele><time>2026-05-02T16:31:46Z</time></trkpt><trkpt lat="43.854700693981236" lon="11.976363480304896"><ele>465.25</ele><time>2026-05-02T16:31:47Z</time></trkpt><trkpt lat="43.85481687088302" lon="11.976393467082586"><ele>466.0</ele><time>2026-05-02T16:31:48Z</time></trkpt><trkpt lat="43.854935920192155" lon="11.976424194979662"><ele>466.0</ele><time>2026-05-02T16:31:49Z</time></trkpt><trkpt lat="43.855047717062114" lon="11.976451449510629"><ele>466.0</ele><time>2026-05-02T16:31:50Z</time></trkpt><trkpt lat="43.85516239951777" lon="11.97647977300959"><ele>466.0</ele><time>2026-05-02T16:31:51Z</time></trkpt><trkpt lat="43.855278969149474" lon="11.976508562603772"><ele>466.0</ele><time>2026-05-02T16:31:52Z</time></trkpt><trkpt lat="43.855394697882566" lon="11.9765375404297"><ele>466.20000000000005</ele><time>2026-05-02T16:31:53Z</time></trkpt><trkpt lat="43.85550110756172" lon="11.976564362564362"><ele>466.40000000000003</ele><time>2026-05-02T16:31:54Z</time></trkpt><trkpt lat="43.855614193898866" lon="11.976592867667998"><ele>466.6</ele><time>2026-05-02T16:31:55Z</time></trkpt><trkpt lat="43.85572448304255" lon="11.97662137211396"><ele>466.8</ele><time>2026-05-02T16:31:56Z</time></trkpt><trkpt lat="43.855834220491154" lon="11.976650400212039"><ele>467.0</ele><time>2026-05-02T16:31:57Z</time></trkpt><trkpt lat="43.855945808656884" lon="11.976679917864717"><ele>466.20000000000005</ele><time>2026-05-02T16:31:58Z</time></trkpt><trkpt lat="43.85605471798943" lon="11.976708726910557"><ele>465.40000000000003</ele><time>2026-05-02T16:31:59Z</time></trkpt><trkpt lat="43.85615827609036" lon="11.976736120445299"><ele>464.59999999999997</ele><time>2026-05-02T16:32:00Z</time></trkpt><trkpt lat="43.85624556282962" lon="11.976759209521893"><ele>463.79999999999995</ele><time>2026-05-02T16:32:01Z</time></trkpt><trkpt lat="43.85632833757909" lon="11.976756483229678"><ele>463.0</ele><time>2026-05-02T16:32:02Z</time></trkpt><trkpt lat="43.85639233409132" lon="11.976795718779185"><ele>463.00000000000006</ele><time>2026-05-02T16:32:03Z</time></trkpt><trkpt lat="43.85646844005993" lon="11.97681485494491"><ele>463.0</ele><time>2026-05-02T16:32:04Z</time></trkpt><trkpt lat="43.856547850512804" lon="11.976835154019938"><ele>463.0</ele><time>2026-05-02T16:32:05Z</time></trkpt><trkpt lat="43.85663124142529" lon="11.976856623912306"><ele>463.0</ele><time>2026-05-02T16:32:06Z</time></trkpt><trkpt lat="43.856715043533924" lon="11.976878199684867"><ele>463.00000000000006</ele><time>2026-05-02T16:32:07Z</time></trkpt><trkpt lat="43.85679748410004" lon="11.976899424896766"><ele>463.0</ele><time>2026-05-02T16:32:08Z</time></trkpt><trkpt lat="43.85686263742406" lon="11.976916199358952"><ele>463.50000000000006</ele><time>2026-05-02T16:32:09Z</time></trkpt><trkpt lat="43.85692743982181" lon="11.976917308589496"><ele>464.0</ele><time>2026-05-02T16:32:10Z</time></trkpt><trkpt lat="43.85699589278975" lon="11.976952390415079"><ele>464.5</ele><time>2026-05-02T16:32:12Z</time></trkpt><trkpt lat="43.85706343674715" lon="11.976970149832537"><ele>465.0</ele><time>2026-05-02T16:32:14Z</time></trkpt><trkpt lat="43.85713997645979" lon="11.976957390039336"><ele>465.50000000000006</ele><time>2026-05-02T16:32:44Z</time></trkpt><trkpt lat="43.85724315496219" lon="11.976970973261183"><ele>466.0</ele><time>2026-05-02T16:32:46Z</time></trkpt><trkpt lat="43.85735547126615" lon="11.977000345782395"><ele>466.00000000000006</ele><time>2026-05-02T16:32:48Z</time></trkpt><trkpt lat="43.85744261448906" lon="11.977030630532532"><ele>466.0</ele><time>2026-05-02T16:32:50Z</time></trkpt><trkpt lat="43.85752258337744" lon="11.977060818038648"><ele>466.0</ele><time>2026-05-02T16:32:53Z</time></trkpt><trkpt lat="43.85760603635395" lon="11.977012697801928"><ele>466.0</ele><time>2026-05-02T16:32:57Z</time></trkpt><trkpt lat="43.85762867628472" lon="11.976903033567675"><ele>466.00000000000006</ele><time>2026-05-02T16:32:59Z</time></trkpt><trkpt lat="43.85764864980975" lon="11.9767756515374"><ele>466.0</ele><time>2026-05-02T16:33:01Z</time></trkpt><trkpt lat="43.8576725735351" lon="11.976643073606585"><ele>466.4</ele><time>2026-05-02T16:33:03Z</time></trkpt><trkpt lat="43.857699650176706" lon="11.976484195397065"><ele>466.8</ele><time>2026-05-02T16:33:05Z</time></trkpt><trkpt lat="43.8577107979386" lon="11.97637845727609"><ele>467.19999999999993</ele><time>2026-05-02T16:33:08Z</time></trkpt><trkpt lat="43.85772165764976" lon="11.976240263228762"><ele>467.59999999999997</ele><time>2026-05-02T16:33:10Z</time></trkpt><trkpt lat="43.8577337301683" lon="11.97608131512087"><ele>468.0</ele><time>2026-05-02T16:33:12Z</time></trkpt><trkpt lat="43.857757682944445" lon="11.975984513524772"><ele>468.0</ele><time>2026-05-02T16:33:15Z</time></trkpt><trkpt lat="43.857798895571875" lon="11.975877005467265"><ele>468.0</ele><time>2026-05-02T16:33:18Z</time></trkpt><trkpt lat="43.85786416126054" lon="11.975835342312857"><ele>468.0</ele><time>2026-05-02T16:33:20Z</time></trkpt><trkpt lat="43.85794863790928" lon="11.975826135232222"><ele>468.0</ele><time>2026-05-02T16:33:22Z</time></trkpt><trkpt lat="43.85803313965204" lon="11.975824795515015"><ele>468.0</ele><time>2026-05-02T16:33:24Z</time></trkpt><trkpt lat="43.85809757057203" lon="11.975828286567006"><ele>468.0</ele><time>2026-05-02T16:33:26Z</time></trkpt><trkpt lat="43.85816679292851" lon="11.975839964499114"><ele>468.0</ele><time>2026-05-02T16:33:29Z</time></trkpt><trkpt lat="43.8582294221321" lon="11.97586857825844"><ele>468.0</ele><time>2026-05-02T16:33:32Z</time></trkpt><trkpt lat="43.85831548153477" lon="11.975883288552547"><ele>468.0</ele><time>2026-05-02T16:33:34Z</time></trkpt><trkpt lat="43.858368777228335" lon="11.975830911312046"><ele>468.0</ele><time>2026-05-02T16:33:36Z</time></trkpt><trkpt lat="43.85841810037338" lon="11.975728482571686"><ele>468.0</ele><time>2026-05-02T16:33:40Z</time></trkpt><trkpt lat="43.85845716123651" lon="11.975589922831004"><ele>468.0</ele><time>2026-05-02T16:33:42Z</time></trkpt><trkpt lat="43.85848988871205" lon="11.975511203322887"><ele>468.1666666666667</ele><time>2026-05-02T16:33:43Z</time></trkpt><trkpt lat="43.85853274204188" lon="11.975412805137097"><ele>468.33333333333337</ele><time>2026-05-02T16:33:44Z</time></trkpt><trkpt lat="43.85858170332739" lon="11.975334001891923"><ele>468.5</ele><time>2026-05-02T16:33:45Z</time></trkpt><trkpt lat="43.85863267868401" lon="11.975231010098915"><ele>468.6666666666667</ele><time>2026-05-02T16:33:46Z</time></trkpt><trkpt lat="43.8586745303556" lon="11.97513708252407"><ele>468.83333333333337</ele><time>2026-05-02T16:33:47Z</time></trkpt><trkpt lat="43.85871830759323" lon="11.975061061162478"><ele>469.0</ele><time>2026-05-02T16:33:48Z</time></trkpt><trkpt lat="43.858750451790996" lon="11.974927396117522"><ele>469.1666666666667</ele><time>2026-05-02T16:33:50Z</time></trkpt><trkpt lat="43.858723929443634" lon="11.974822779570417"><ele>469.33333333333337</ele><time>2026-05-02T16:33:52Z</time></trkpt><trkpt lat="43.8587048933497" lon="11.974721761550366"><ele>469.5</ele><time>2026-05-02T16:33:53Z</time></trkpt><trkpt lat="43.85872606063387" lon="11.974610200217375"><ele>469.66666666666663</ele><time>2026-05-02T16:33:54Z</time></trkpt><trkpt lat="43.85876530664507" lon="11.974499420956088"><ele>469.8333333333333</ele><time>2026-05-02T16:33:55Z</time></trkpt><trkpt lat="43.858820880778204" lon="11.97436495974163"><ele>470.0</ele><time>2026-05-02T16:33:56Z</time></trkpt><trkpt lat="43.85886299368616" lon="11.974201386922443"><ele>470.4</ele><time>2026-05-02T16:33:57Z</time></trkpt><trkpt lat="43.85891792921989" lon="11.97407092450545"><ele>470.8</ele><time>2026-05-02T16:33:58Z</time></trkpt><trkpt lat="43.858975996200385" lon="11.973939446842008"><ele>471.20000000000005</ele><time>2026-05-02T16:33:59Z</time></trkpt><trkpt lat="43.85903680231428" lon="11.973819836794572"><ele>471.6</ele><time>2026-05-02T16:34:00Z</time></trkpt><trkpt lat="43.85909570973607" lon="11.973705547513811"><ele>472.0</ele><time>2026-05-02T16:34:01Z</time></trkpt><trkpt lat="43.85915864069844" lon="11.973607223166017"><ele>472.00000000000006</ele><time>2026-05-02T16:34:02Z</time></trkpt><trkpt lat="43.85922106522856" lon="11.973499203548519"><ele>472.0</ele><time>2026-05-02T16:34:03Z</time></trkpt><trkpt lat="43.85925338857427" lon="11.973407108804752"><ele>472.0</ele><time>2026-05-02T16:34:04Z</time></trkpt><trkpt lat="43.85927071260671" lon="11.973319507762897"><ele>472.0</ele><time>2026-05-02T16:34:05Z</time></trkpt><trkpt lat="43.85929640728811" lon="11.97321145348485"><ele>472.00000000000006</ele><time>2026-05-02T16:34:06Z</time></trkpt><trkpt lat="43.85932193179041" lon="11.973082265705873"><ele>472.0</ele><time>2026-05-02T16:34:07Z</time></trkpt><trkpt lat="43.85936258104314" lon="11.972928417279716"><ele>472.8</ele><time>2026-05-02T16:34:08Z</time></trkpt><trkpt lat="43.859388278841955" lon="11.972779862332676"><ele>473.6</ele><time>2026-05-02T16:34:09Z</time></trkpt><trkpt lat="43.859410518304394" lon="11.972647851611239"><ele>474.40000000000003</ele><time>2026-05-02T16:34:10Z</time></trkpt><trkpt lat="43.85942210838208" lon="11.97251450923334"><ele>475.20000000000005</ele><time>2026-05-02T16:34:11Z</time></trkpt><trkpt lat="43.85943196569761" lon="11.972360377696083"><ele>476.0</ele><time>2026-05-02T16:34:12Z</time></trkpt><trkpt lat="43.85943531428166" lon="11.97221367463108"><ele>476.20000000000005</ele><time>2026-05-02T16:34:13Z</time></trkpt><trkpt lat="43.85943861902402" lon="11.972064117057318"><ele>476.40000000000003</ele><time>2026-05-02T16:34:14Z</time></trkpt><trkpt lat="43.85944096241225" lon="11.971928658424199"><ele>476.6</ele><time>2026-05-02T16:34:15Z</time></trkpt><trkpt lat="43.859452470229456" lon="11.971796456789816"><ele>476.8</ele><time>2026-05-02T16:34:16Z</time></trkpt><trkpt lat="43.859456534046984" lon="11.971666073192344"><ele>477.0</ele><time>2026-05-02T16:34:17Z</time></trkpt><trkpt lat="43.85945574326848" lon="11.971529052833882"><ele>477.20000000000005</ele><time>2026-05-02T16:34:18Z</time></trkpt><trkpt lat="43.859449897095054" lon="11.971383041088172"><ele>477.40000000000003</ele><time>2026-05-02T16:34:19Z</time></trkpt><trkpt lat="43.85944810876562" lon="11.97123289845075"><ele>477.59999999999997</ele><time>2026-05-02T16:34:20Z</time></trkpt><trkpt lat="43.85943567188246" lon="11.971071208825547"><ele>477.79999999999995</ele><time>2026-05-02T16:34:21Z</time></trkpt><trkpt lat="43.859416553130934" lon="11.97090969400755"><ele>478.0</ele><time>2026-05-02T16:34:22Z</time></trkpt><trkpt lat="43.85939364081631" lon="11.970767059988932"><ele>478.0</ele><time>2026-05-02T16:34:23Z</time></trkpt><trkpt lat="43.85936817077076" lon="11.970641372386524"><ele>477.99999999999994</ele><time>2026-05-02T16:34:24Z</time></trkpt><trkpt lat="43.85936280664976" lon="11.970485164305986"><ele>477.99999999999994</ele><time>2026-05-02T16:34:25Z</time></trkpt><trkpt lat="43.85934825915854" lon="11.970332575272472"><ele>478.0</ele><time>2026-05-02T16:34:26Z</time></trkpt><trkpt lat="43.85933107222449" lon="11.970182046309938"><ele>478.0</ele><time>2026-05-02T16:34:27Z</time></trkpt><trkpt lat="43.85931029200274" lon="11.970044024597508"><ele>478.4</ele><time>2026-05-02T16:34:28Z</time></trkpt><trkpt lat="43.859297652377315" lon="11.969914900968337"><ele>478.79999999999995</ele><time>2026-05-02T16:34:29Z</time></trkpt><trkpt lat="43.859283211990295" lon="11.969785909479507"><ele>479.2</ele><time>2026-05-02T16:34:30Z</time></trkpt><trkpt lat="43.8592862341649" lon="11.969659088734062"><ele>479.6</ele><time>2026-05-02T16:34:31Z</time></trkpt><trkpt lat="43.859316008528594" lon="11.969541983003397"><ele>480.0</ele><time>2026-05-02T16:34:32Z</time></trkpt><trkpt lat="43.85936411002699" lon="11.969409396477268"><ele>480.0</ele><time>2026-05-02T16:34:33Z</time></trkpt><trkpt lat="43.859408271499305" lon="11.969288959671033"><ele>480.0</ele><time>2026-05-02T16:34:34Z</time></trkpt><trkpt lat="43.85945003433104" lon="11.969165699570352"><ele>480.0</ele><time>2026-05-02T16:34:35Z</time></trkpt><trkpt lat="43.85949052419419" lon="11.969011379355287"><ele>480.0</ele><time>2026-05-02T16:34:36Z</time></trkpt><trkpt lat="43.85953400351323" lon="11.968860199519945"><ele>480.0</ele><time>2026-05-02T16:34:37Z</time></trkpt><trkpt lat="43.859599577621125" lon="11.968729153531989"><ele>480.5</ele><time>2026-05-02T16:34:38Z</time></trkpt><trkpt lat="43.859717227318605" lon="11.9686299716071"><ele>481.0</ele><time>2026-05-02T16:34:39Z</time></trkpt><trkpt lat="43.859806603673626" lon="11.968501764383234"><ele>481.5</ele><time>2026-05-02T16:34:40Z</time></trkpt><trkpt lat="43.85990228209466" lon="11.96837089978978"><ele>482.0</ele><time>2026-05-02T16:34:41Z</time></trkpt><trkpt lat="43.859990263505345" lon="11.968235139605902"><ele>483.5</ele><time>2026-05-02T16:34:42Z</time></trkpt><trkpt lat="43.86007354513656" lon="11.968095760685383"><ele>485.0</ele><time>2026-05-02T16:34:43Z</time></trkpt><trkpt lat="43.86015275115595" lon="11.967957499617606"><ele>486.5</ele><time>2026-05-02T16:34:44Z</time></trkpt><trkpt lat="43.86023202387943" lon="11.967821453450183"><ele>488.0</ele><time>2026-05-02T16:34:45Z</time></trkpt><trkpt lat="43.86030451860129" lon="11.96768652755856"><ele>488.0</ele><time>2026-05-02T16:34:46Z</time></trkpt><trkpt lat="43.86036762846695" lon="11.967527223405567"><ele>488.0</ele><time>2026-05-02T16:34:47Z</time></trkpt><trkpt lat="43.86041867799586" lon="11.96736143200783"><ele>488.0</ele><time>2026-05-02T16:34:48Z</time></trkpt><trkpt lat="43.86047253403302" lon="11.967186512752626"><ele>488.0</ele><time>2026-05-02T16:34:49Z</time></trkpt><trkpt lat="43.86052617974666" lon="11.967012040855586"><ele>490.0</ele><time>2026-05-02T16:34:50Z</time></trkpt><trkpt lat="43.86058227815919" lon="11.966847870418672"><ele>492.0</ele><time>2026-05-02T16:34:51Z</time></trkpt><trkpt lat="43.860642802069876" lon="11.966729211454462"><ele>494.0</ele><time>2026-05-02T16:34:52Z</time></trkpt><trkpt lat="43.86073155015236" lon="11.966631614946246"><ele>496.0</ele><time>2026-05-02T16:34:53Z</time></trkpt><trkpt lat="43.86084510429133" lon="11.96655704380269"><ele>500.25</ele><time>2026-05-02T16:34:54Z</time></trkpt><trkpt lat="43.86097471623675" lon="11.96648871511043"><ele>504.5</ele><time>2026-05-02T16:34:55Z</time></trkpt><trkpt lat="43.86112006099223" lon="11.96645843156376"><ele>508.75</ele><time>2026-05-02T16:34:56Z</time></trkpt><trkpt lat="43.8612310855591" lon="11.966404499269872"><ele>513.0</ele><time>2026-05-02T16:34:57Z</time></trkpt><trkpt lat="43.86134950244051" lon="11.966378739769521"><ele>513.0</ele><time>2026-05-02T16:34:58Z</time></trkpt><trkpt lat="43.86148237171033" lon="11.966362145917504"><ele>513.0</ele><time>2026-05-02T16:34:59Z</time></trkpt><trkpt lat="43.86158408577777" lon="11.966288124932966"><ele>513.0</ele><time>2026-05-02T16:35:00Z</time></trkpt><trkpt lat="43.86169272175587" lon="11.966236270643126"><ele>513.0</ele><time>2026-05-02T16:35:01Z</time></trkpt><trkpt lat="43.86178729366831" lon="11.966130909365683"><ele>512.0</ele><time>2026-05-02T16:35:02Z</time></trkpt><trkpt lat="43.861870302372466" lon="11.966007931227438"><ele>511.0</ele><time>2026-05-02T16:35:03Z</time></trkpt><trkpt lat="43.861921491940386" lon="11.965909723995871"><ele>510.0</ele><time>2026-05-02T16:35:04Z</time></trkpt><trkpt lat="43.86192943151607" lon="11.965801792242445"><ele>509.0</ele><time>2026-05-02T16:35:05Z</time></trkpt><trkpt lat="43.86193418583093" lon="11.965704712766975"><ele>508.0</ele><time>2026-05-02T16:35:06Z</time></trkpt><trkpt lat="43.86192217399604" lon="11.965602524364362"><ele>507.0</ele><time>2026-05-02T16:35:07Z</time></trkpt><trkpt lat="43.86188701338013" lon="11.96547199272395"><ele>511.0</ele><time>2026-05-02T16:35:08Z</time></trkpt><trkpt lat="43.86185110787681" lon="11.965340077174357"><ele>515.0</ele><time>2026-05-02T16:35:09Z</time></trkpt><trkpt lat="43.861831546833336" lon="11.965222088719297"><ele>519.0</ele><time>2026-05-02T16:35:10Z</time></trkpt><trkpt lat="43.86182980449691" lon="11.965119984442605"><ele>523.0</ele><time>2026-05-02T16:35:11Z</time></trkpt><trkpt lat="43.86186913175739" lon="11.96501193722428"><ele>527.0</ele><time>2026-05-02T16:35:12Z</time></trkpt><trkpt lat="43.861951558382124" lon="11.964923768846946"><ele>532.0</ele><time>2026-05-02T16:35:13Z</time></trkpt><trkpt lat="43.86206353728427" lon="11.964868306001108"><ele>537.0</ele><time>2026-05-02T16:35:14Z</time></trkpt><trkpt lat="43.862182285226126" lon="11.964825616153915"><ele>542.0</ele><time>2026-05-02T16:35:15Z</time></trkpt><trkpt lat="43.86229149077077" lon="11.964808883467997"><ele>547.0</ele><time>2026-05-02T16:35:16Z</time></trkpt><trkpt lat="43.862398765305414" lon="11.964798790347286"><ele>547.0</ele><time>2026-05-02T16:35:17Z</time></trkpt><trkpt lat="43.86249626767062" lon="11.964815899091075"><ele>547.0</ele><time>2026-05-02T16:35:18Z</time></trkpt><trkpt lat="43.86257003040731" lon="11.964855486138328"><ele>547.0</ele><time>2026-05-02T16:35:19Z</time></trkpt><trkpt lat="43.86262404415619" lon="11.964936217974515"><ele>547.0</ele><time>2026-05-02T16:35:20Z</time></trkpt><trkpt lat="43.862679484472416" lon="11.965036338647161"><ele>547.0</ele><time>2026-05-02T16:35:21Z</time></trkpt><trkpt lat="43.86273781895726" lon="11.965177600459059"><ele>544.4</ele><time>2026-05-02T16:35:22Z</time></trkpt><trkpt lat="43.86279223410361" lon="11.965287958462913"><ele>541.8000000000001</ele><time>2026-05-02T16:35:23Z</time></trkpt><trkpt lat="43.86286326328941" lon="11.965339076087407"><ele>539.2</ele><time>2026-05-02T16:35:24Z</time></trkpt><trkpt lat="43.86295149443968" lon="11.965358158755073"><ele>536.6</ele><time>2026-05-02T16:35:25Z</time></trkpt><trkpt lat="43.86308523065232" lon="11.965336721664809"><ele>534.0</ele><time>2026-05-02T16:35:26Z</time></trkpt><trkpt lat="43.86318508833741" lon="11.965303494355112"><ele>534.0</ele><time>2026-05-02T16:35:27Z</time></trkpt><trkpt lat="43.8632811999407" lon="11.965233812551839"><ele>534.0</ele><time>2026-05-02T16:35:28Z</time></trkpt><trkpt lat="43.86336625187876" lon="11.965125172710348"><ele>534.0</ele><time>2026-05-02T16:35:29Z</time></trkpt><trkpt lat="43.863451782869724" lon="11.964977615222631"><ele>534.0</ele><time>2026-05-02T16:35:30Z</time></trkpt><trkpt lat="43.8635332610696" lon="11.964829326830639"><ele>538.75</ele><time>2026-05-02T16:35:31Z</time></trkpt><trkpt lat="43.863612328824914" lon="11.964695116356634"><ele>543.5</ele><time>2026-05-02T16:35:32Z</time></trkpt><trkpt lat="43.863698228694766" lon="11.964596705476435"><ele>548.25</ele><time>2026-05-02T16:35:33Z</time></trkpt><trkpt lat="43.863788864649344" lon="11.964484065750275"><ele>553.0</ele><time>2026-05-02T16:35:34Z</time></trkpt><trkpt lat="43.863884078151166" lon="11.964390313033318"><ele>553.0</ele><time>2026-05-02T16:35:35Z</time></trkpt><trkpt lat="43.86397967078127" lon="11.964300164979123"><ele>553.0</ele><time>2026-05-02T16:35:36Z</time></trkpt><trkpt lat="43.86407207971308" lon="11.964214007639722"><ele>553.0</ele><time>2026-05-02T16:35:37Z</time></trkpt><trkpt lat="43.86416355890956" lon="11.96413634548776"><ele>553.0</ele><time>2026-05-02T16:35:38Z</time></trkpt><trkpt lat="43.864260519779194" lon="11.964074023472001"><ele>553.0</ele><time>2026-05-02T16:35:39Z</time></trkpt><trkpt lat="43.86436538018887" lon="11.964020530182601"><ele>554.1999999999999</ele><time>2026-05-02T16:35:40Z</time></trkpt><trkpt lat="43.86446618184782" lon="11.963995850414577"><ele>555.4</ele><time>2026-05-02T16:35:41Z</time></trkpt><trkpt lat="43.86456173857068" lon="11.96397508883001"><ele>556.5999999999999</ele><time>2026-05-02T16:35:42Z</time></trkpt><trkpt lat="43.86465388969613" lon="11.96392776459325"><ele>557.8</ele><time>2026-05-02T16:35:43Z</time></trkpt><trkpt lat="43.86473416656124" lon="11.963857795351814"><ele>559.0</ele><time>2026-05-02T16:35:44Z</time></trkpt><trkpt lat="43.864802395176085" lon="11.963745836339319"><ele>559.0</ele><time>2026-05-02T16:35:45Z</time></trkpt><trkpt lat="43.86486070241063" lon="11.963591636065102"><ele>559.0</ele><time>2026-05-02T16:35:46Z</time></trkpt><trkpt lat="43.86491597580267" lon="11.963413416057252"><ele>559.0</ele><time>2026-05-02T16:35:47Z</time></trkpt><trkpt lat="43.864964951867066" lon="11.963245795805939"><ele>559.0</ele><time>2026-05-02T16:35:48Z</time></trkpt><trkpt lat="43.865011785939885" lon="11.963131628404305"><ele>560.5</ele><time>2026-05-02T16:35:49Z</time></trkpt><trkpt lat="43.86507114120352" lon="11.963053361161904"><ele>562.0</ele><time>2026-05-02T16:35:50Z</time></trkpt><trkpt lat="43.86516530499914" lon="11.962984343873735"><ele>563.5</ele><time>2026-05-02T16:35:51Z</time></trkpt><trkpt lat="43.86528596507132" lon="11.962937360282224"><ele>565.0</ele><time>2026-05-02T16:35:52Z</time></trkpt><trkpt lat="43.86542058158834" lon="11.962904325205981"><ele>565.0</ele><time>2026-05-02T16:35:53Z</time></trkpt><trkpt lat="43.86555847753988" lon="11.962865840701696"><ele>565.0</ele><time>2026-05-02T16:35:54Z</time></trkpt><trkpt lat="43.86566480018115" lon="11.962821464145575"><ele>565.0</ele><time>2026-05-02T16:35:55Z</time></trkpt><trkpt lat="43.86571795649084" lon="11.962743228675887"><ele>565.0</ele><time>2026-05-02T16:35:56Z</time></trkpt><trkpt lat="43.865745266857246" lon="11.96263805015774"><ele>565.0</ele><time>2026-05-02T16:35:59Z</time></trkpt><trkpt lat="43.865709908813635" lon="11.962554848593662"><ele>565.0</ele><time>2026-05-02T16:36:00Z</time></trkpt><trkpt lat="43.86561793715504" lon="11.9625098177093"><ele>565.0</ele><time>2026-05-02T16:36:01Z</time></trkpt><trkpt lat="43.86554028390412" lon="11.962522735464798"><ele>565.0</ele><time>2026-05-02T16:36:02Z</time></trkpt><trkpt lat="43.865462681085596" lon="11.962593196038567"><ele>565.0</ele><time>2026-05-02T16:36:03Z</time></trkpt><trkpt lat="43.8653705292269" lon="11.962640363629486"><ele>565.0</ele><time>2026-05-02T16:36:04Z</time></trkpt><trkpt lat="43.86525190355095" lon="11.962709711761685"><ele>565.0</ele><time>2026-05-02T16:36:05Z</time></trkpt><trkpt lat="43.86515146391027" lon="11.962786302973962"><ele>565.0</ele><time>2026-05-02T16:36:06Z</time></trkpt><trkpt lat="43.86500329429351" lon="11.962804859818664"><ele>565.0</ele><time>2026-05-02T16:36:07Z</time></trkpt><trkpt lat="43.86485879608506" lon="11.962803166801104"><ele>565.0</ele><time>2026-05-02T16:36:08Z</time></trkpt><trkpt lat="43.864740092617225" lon="11.962776275602288"><ele>567.25</ele><time>2026-05-02T16:36:09Z</time></trkpt><trkpt lat="43.86461420779595" lon="11.962747170895565"><ele>569.5</ele><time>2026-05-02T16:36:10Z</time></trkpt><trkpt lat="43.864497877283036" lon="11.962693524434817"><ele>571.75</ele><time>2026-05-02T16:36:11Z</time></trkpt><trkpt lat="43.86437169208166" lon="11.962658842298065"><ele>574.0</ele><time>2026-05-02T16:36:12Z</time></trkpt><trkpt lat="43.86425758175335" lon="11.9626156976371"><ele>577.25</ele><time>2026-05-02T16:36:13Z</time></trkpt><trkpt lat="43.864148786521056" lon="11.96265914426587"><ele>580.5</ele><time>2026-05-02T16:36:14Z</time></trkpt><trkpt lat="43.864037388676536" lon="11.962758355639329"><ele>583.75</ele><time>2026-05-02T16:36:15Z</time></trkpt><trkpt lat="43.86393836815271" lon="11.962892348892012"><ele>587.0</ele><time>2026-05-02T16:36:16Z</time></trkpt><trkpt lat="43.863856514550946" lon="11.963035850381775"><ele>587.0</ele><time>2026-05-02T16:36:17Z</time></trkpt><trkpt lat="43.86381752062578" lon="11.96322448635794"><ele>587.0</ele><time>2026-05-02T16:36:18Z</time></trkpt><trkpt lat="43.863766640581346" lon="11.963357496939077"><ele>587.0</ele><time>2026-05-02T16:36:19Z</time></trkpt><trkpt lat="43.863735362691116" lon="11.963475800084185"><ele>587.0</ele><time>2026-05-02T16:36:20Z</time></trkpt><trkpt lat="43.86367660009149" lon="11.96356353412455"><ele>587.0</ele><time>2026-05-02T16:36:22Z</time></trkpt><trkpt lat="43.86358702491366" lon="11.963574380915754"><ele>586.6</ele><time>2026-05-02T16:36:23Z</time></trkpt><trkpt lat="43.86350866458432" lon="11.96357317556651"><ele>586.2</ele><time>2026-05-02T16:36:24Z</time></trkpt><trkpt lat="43.863415075905756" lon="11.963564617457791"><ele>585.8</ele><time>2026-05-02T16:36:25Z</time></trkpt><trkpt lat="43.86332443340407" lon="11.963534124213531"><ele>585.4</ele><time>2026-05-02T16:36:26Z</time></trkpt><trkpt lat="43.86324160224957" lon="11.963471324101636"><ele>585.0</ele><time>2026-05-02T16:36:27Z</time></trkpt><trkpt lat="43.86316887061453" lon="11.96338913598721"><ele>589.2</ele><time>2026-05-02T16:36:28Z</time></trkpt><trkpt lat="43.863135776958245" lon="11.963285399250408"><ele>593.4</ele><time>2026-05-02T16:36:29Z</time></trkpt><trkpt lat="43.86311328783278" lon="11.963163622845856"><ele>597.6</ele><time>2026-05-02T16:36:30Z</time></trkpt><trkpt lat="43.86309885535068" lon="11.963035587140174"><ele>601.8</ele><time>2026-05-02T16:36:31Z</time></trkpt><trkpt lat="43.86309631250396" lon="11.962890994435963"><ele>606.0</ele><time>2026-05-02T16:36:32Z</time></trkpt><trkpt lat="43.86311001929786" lon="11.962749355491953"><ele>606.0</ele><time>2026-05-02T16:36:33Z</time></trkpt><trkpt lat="43.86311065575597" lon="11.962603335944074"><ele>606.0</ele><time>2026-05-02T16:36:34Z</time></trkpt><trkpt lat="43.86306620732342" lon="11.962468520449136"><ele>606.0</ele><time>2026-05-02T16:36:35Z</time></trkpt><trkpt lat="43.86298786103833" lon="11.962335471960321"><ele>606.0</ele><time>2026-05-02T16:36:36Z</time></trkpt><trkpt lat="43.862879988835736" lon="11.96220520062191"><ele>611.0</ele><time>2026-05-02T16:36:37Z</time></trkpt><trkpt lat="43.86278673378396" lon="11.962073624590584"><ele>616.0</ele><time>2026-05-02T16:36:38Z</time></trkpt><trkpt lat="43.862720933820135" lon="11.961960901679964"><ele>621.0</ele><time>2026-05-02T16:36:39Z</time></trkpt><trkpt lat="43.86269154879838" lon="11.961846269409273"><ele>626.0</ele><time>2026-05-02T16:36:40Z</time></trkpt><trkpt lat="43.86269784502963" lon="11.961667883706703"><ele>630.5</ele><time>2026-05-02T16:36:41Z</time></trkpt><trkpt lat="43.86270261395854" lon="11.961472135195837"><ele>635.0</ele><time>2026-05-02T16:36:42Z</time></trkpt><trkpt lat="43.86271183806179" lon="11.961272513383049"><ele>639.5</ele><time>2026-05-02T16:36:43Z</time></trkpt><trkpt lat="43.86270378501365" lon="11.961111028306876"><ele>644.0</ele><time>2026-05-02T16:36:44Z</time></trkpt><trkpt lat="43.862678271034" lon="11.96093731461256"><ele>647.0</ele><time>2026-05-02T16:36:45Z</time></trkpt><trkpt lat="43.86264310587449" lon="11.960776234557917"><ele>650.0</ele><time>2026-05-02T16:36:46Z</time></trkpt><trkpt lat="43.86261560170875" lon="11.96063955871364"><ele>653.0</ele><time>2026-05-02T16:36:47Z</time></trkpt><trkpt lat="43.86260668912235" lon="11.960517149942813"><ele>656.0</ele><time>2026-05-02T16:36:48Z</time></trkpt><trkpt lat="43.86262727549555" lon="11.960396657802693"><ele>659.0</ele><time>2026-05-02T16:36:49Z</time></trkpt><trkpt lat="43.86267548448249" lon="11.960234447138788"><ele>659.0</ele><time>2026-05-02T16:36:50Z</time></trkpt><trkpt lat="43.86272700942388" lon="11.960087342646917"><ele>659.0</ele><time>2026-05-02T16:36:51Z</time></trkpt><trkpt lat="43.86275861074937" lon="11.959969819205424"><ele>659.0</ele><time>2026-05-02T16:36:52Z</time></trkpt><trkpt lat="43.86276949466208" lon="11.959847772326214"><ele>659.0</ele><time>2026-05-02T16:36:53Z</time></trkpt><trkpt lat="43.862722138015" lon="11.95972318089826"><ele>659.0</ele><time>2026-05-02T16:36:54Z</time></trkpt><trkpt lat="43.86265131376011" lon="11.959606983828394"><ele>656.8000000000001</ele><time>2026-05-02T16:36:55Z</time></trkpt><trkpt lat="43.86256768437003" lon="11.95949952613187"><ele>654.6</ele><time>2026-05-02T16:36:56Z</time></trkpt><trkpt lat="43.86245863706658" lon="11.959412285525437"><ele>652.4</ele><time>2026-05-02T16:36:57Z</time></trkpt><trkpt lat="43.86238643290743" lon="11.959331469988651"><ele>650.2</ele><time>2026-05-02T16:36:58Z</time></trkpt><trkpt lat="43.86233731392483" lon="11.9592495156925"><ele>648.0</ele><time>2026-05-02T16:36:59Z</time></trkpt><trkpt lat="43.862323022024626" lon="11.959132190517828"><ele>648.0</ele><time>2026-05-02T16:37:00Z</time></trkpt><trkpt lat="43.862320050638715" lon="11.958995678931066"><ele>648.0</ele><time>2026-05-02T16:37:01Z</time></trkpt><trkpt lat="43.86231652810421" lon="11.958869578574488"><ele>648.0</ele><time>2026-05-02T16:37:02Z</time></trkpt><trkpt lat="43.86228210996912" lon="11.958772105719817"><ele>648.0</ele><time>2026-05-02T16:37:03Z</time></trkpt><trkpt lat="43.86221733084839" lon="11.958693318750258"><ele>648.0</ele><time>2026-05-02T16:37:04Z</time></trkpt><trkpt lat="43.86211536296232" lon="11.95864526017428"><ele>648.0</ele><time>2026-05-02T16:37:05Z</time></trkpt><trkpt lat="43.86200640183448" lon="11.958633626400657"><ele>648.0</ele><time>2026-05-02T16:37:06Z</time></trkpt><trkpt lat="43.86189620994052" lon="11.958604020749362"><ele>648.0</ele><time>2026-05-02T16:37:07Z</time></trkpt><trkpt lat="43.86176830049008" lon="11.958573861168263"><ele>648.0</ele><time>2026-05-02T16:37:08Z</time></trkpt><trkpt lat="43.86165204232688" lon="11.95855111162349"><ele>646.25</ele><time>2026-05-02T16:37:09Z</time></trkpt><trkpt lat="43.861534040225024" lon="11.958534244300282"><ele>644.5</ele><time>2026-05-02T16:37:10Z</time></trkpt><trkpt lat="43.86141512789283" lon="11.958527888908435"><ele>642.75</ele><time>2026-05-02T16:37:11Z</time></trkpt><trkpt lat="43.86130150619789" lon="11.95852545410408"><ele>641.0</ele><time>2026-05-02T16:37:12Z</time></trkpt><trkpt lat="43.86118894721452" lon="11.958554726494135"><ele>641.0</ele><time>2026-05-02T16:37:13Z</time></trkpt><trkpt lat="43.861083242135024" lon="11.95861533340468"><ele>641.0</ele><time>2026-05-02T16:37:14Z</time></trkpt><trkpt lat="43.86101811595524" lon="11.958673706959061"><ele>641.0</ele><time>2026-05-02T16:37:15Z</time></trkpt><trkpt lat="43.860911935075166" lon="11.958701187741681"><ele>641.0</ele><time>2026-05-02T16:37:17Z</time></trkpt><trkpt lat="43.8608321419726" lon="11.958593905780996"><ele>641.0</ele><time>2026-05-02T16:37:19Z</time></trkpt><trkpt lat="43.86083734162852" lon="11.958489190177582"><ele>642.4</ele><time>2026-05-02T16:37:20Z</time></trkpt><trkpt lat="43.860887839580805" lon="11.958401109128971"><ele>643.8</ele><time>2026-05-02T16:37:21Z</time></trkpt><trkpt lat="43.86096545747741" lon="11.958333111926416"><ele>645.1999999999999</ele><time>2026-05-02T16:37:22Z</time></trkpt><trkpt lat="43.86104889632368" lon="11.958256978116939"><ele>646.5999999999999</ele><time>2026-05-02T16:37:23Z</time></trkpt><trkpt lat="43.861121032737636" lon="11.958155450947462"><ele>648.0</ele><time>2026-05-02T16:37:24Z</time></trkpt><trkpt lat="43.861158521611195" lon="11.958029345365421"><ele>650.5999999999999</ele><time>2026-05-02T16:37:25Z</time></trkpt><trkpt lat="43.86117731655877" lon="11.957887894541859"><ele>653.1999999999999</ele><time>2026-05-02T16:37:26Z</time></trkpt><trkpt lat="43.861179539457886" lon="11.957748687813055"><ele>655.8</ele><time>2026-05-02T16:37:27Z</time></trkpt><trkpt lat="43.86117557665483" lon="11.95759552962337"><ele>658.4</ele><time>2026-05-02T16:37:28Z</time></trkpt><trkpt lat="43.8611712645347" lon="11.957424151383158"><ele>661.0</ele><time>2026-05-02T16:37:29Z</time></trkpt><trkpt lat="43.86118065634348" lon="11.957260236917374"><ele>665.0</ele><time>2026-05-02T16:37:30Z</time></trkpt><trkpt lat="43.861201117801166" lon="11.957117331521188"><ele>669.0</ele><time>2026-05-02T16:37:31Z</time></trkpt><trkpt lat="43.861245603234536" lon="11.956970380672898"><ele>673.0</ele><time>2026-05-02T16:37:32Z</time></trkpt><trkpt lat="43.86128509584807" lon="11.956823669076588"><ele>677.0</ele><time>2026-05-02T16:37:33Z</time></trkpt><trkpt lat="43.86133722116291" lon="11.95665744365796"><ele>678.75</ele><time>2026-05-02T16:37:34Z</time></trkpt><trkpt lat="43.8613870365056" lon="11.9564986321368"><ele>680.5</ele><time>2026-05-02T16:37:35Z</time></trkpt><trkpt lat="43.86143438052968" lon="11.956336949063969"><ele>682.25</ele><time>2026-05-02T16:37:36Z</time></trkpt><trkpt lat="43.86148106461324" lon="11.956174364835812"><ele>684.0</ele><time>2026-05-02T16:37:37Z</time></trkpt><trkpt lat="43.86152479146161" lon="11.956002418149065"><ele>684.0</ele><time>2026-05-02T16:37:38Z</time></trkpt><trkpt lat="43.861553561377306" lon="11.955831596064721"><ele>684.0</ele><time>2026-05-02T16:37:39Z</time></trkpt><trkpt lat="43.86157090441612" lon="11.955660739376704"><ele>684.0</ele><time>2026-05-02T16:37:40Z</time></trkpt><trkpt lat="43.8615911862214" lon="11.955482307264164"><ele>684.0</ele><time>2026-05-02T16:37:41Z</time></trkpt><trkpt lat="43.86160849905664" lon="11.955303363560452"><ele>684.0</ele><time>2026-05-02T16:37:42Z</time></trkpt><trkpt lat="43.86163001370715" lon="11.955122392246944"><ele>684.0</ele><time>2026-05-02T16:37:43Z</time></trkpt><trkpt lat="43.86165119023504" lon="11.954960575507954"><ele>684.0</ele><time>2026-05-02T16:37:44Z</time></trkpt><trkpt lat="43.861673752961785" lon="11.95480425407532"><ele>684.0</ele><time>2026-05-02T16:37:45Z</time></trkpt><trkpt lat="43.86169643331329" lon="11.9546448439991"><ele>685.25</ele><time>2026-05-02T16:37:46Z</time></trkpt><trkpt lat="43.86173245074268" lon="11.95446711515636"><ele>686.5</ele><time>2026-05-02T16:37:47Z</time></trkpt><trkpt lat="43.86177735003155" lon="11.954275991224389"><ele>687.75</ele><time>2026-05-02T16:37:48Z</time></trkpt><trkpt lat="43.86182652136993" lon="11.954095630929478"><ele>689.0</ele><time>2026-05-02T16:37:49Z</time></trkpt><trkpt lat="43.86187734508173" lon="11.953921211791153"><ele>696.25</ele><time>2026-05-02T16:37:50Z</time></trkpt><trkpt lat="43.861929573411565" lon="11.953771477566265"><ele>703.5</ele><time>2026-05-02T16:37:51Z</time></trkpt><trkpt lat="43.861992588996124" lon="11.95364424404495"><ele>710.75</ele><time>2026-05-02T16:37:52Z</time></trkpt><trkpt lat="43.86204225600329" lon="11.953489244233968"><ele>718.0</ele><time>2026-05-02T16:37:53Z</time></trkpt><trkpt lat="43.86208809994367" lon="11.953336295479758"><ele>718.75</ele><time>2026-05-02T16:37:54Z</time></trkpt><trkpt lat="43.862099786649246" lon="11.953183929710155"><ele>719.5</ele><time>2026-05-02T16:37:55Z</time></trkpt><trkpt lat="43.86209301646604" lon="11.953022616673985"><ele>720.25</ele><time>2026-05-02T16:37:56Z</time></trkpt><trkpt lat="43.86206134327662" lon="11.95286388512853"><ele>721.0</ele><time>2026-05-02T16:37:57Z</time></trkpt><trkpt lat="43.862022373218814" lon="11.952706017774007"><ele>721.0</ele><time>2026-05-02T16:37:58Z</time></trkpt><trkpt lat="43.861988842070154" lon="11.952528744161633"><ele>721.0</ele><time>2026-05-02T16:37:59Z</time></trkpt><trkpt lat="43.86195319070476" lon="11.952352053770966"><ele>721.0</ele><time>2026-05-02T16:38:00Z</time></trkpt><trkpt lat="43.86191013607992" lon="11.95219754667954"><ele>721.0</ele><time>2026-05-02T16:38:01Z</time></trkpt><trkpt lat="43.86188095466034" lon="11.952083290345199"><ele>721.0</ele><time>2026-05-02T16:38:02Z</time></trkpt><trkpt lat="43.861866813501045" lon="11.951972076782377"><ele>721.0</ele><time>2026-05-02T16:38:03Z</time></trkpt><trkpt lat="43.86186840204385" lon="11.951831265621113"><ele>721.0</ele><time>2026-05-02T16:38:04Z</time></trkpt><trkpt lat="43.86188702741812" lon="11.951691305393325"><ele>721.0</ele><time>2026-05-02T16:38:05Z</time></trkpt><trkpt lat="43.86192892682567" lon="11.951547984266098"><ele>721.0</ele><time>2026-05-02T16:38:06Z</time></trkpt><trkpt lat="43.86198436470829" lon="11.951388744870098"><ele>722.5</ele><time>2026-05-02T16:38:07Z</time></trkpt><trkpt lat="43.86203849450389" lon="11.951249037473053"><ele>724.0</ele><time>2026-05-02T16:38:08Z</time></trkpt><trkpt lat="43.8621033864146" lon="11.95111865893257"><ele>725.5</ele><time>2026-05-02T16:38:09Z</time></trkpt><trkpt lat="43.86217943589104" lon="11.950997789047122"><ele>727.0</ele><time>2026-05-02T16:38:10Z</time></trkpt><trkpt lat="43.86226301944703" lon="11.950883928958257"><ele>726.75</ele><time>2026-05-02T16:38:11Z</time></trkpt><trkpt lat="43.86235715285195" lon="11.950791836534998"><ele>726.5</ele><time>2026-05-02T16:38:12Z</time></trkpt><trkpt lat="43.86247246349197" lon="11.95073095930952"><ele>726.25</ele><time>2026-05-02T16:38:13Z</time></trkpt><trkpt lat="43.862591691091126" lon="11.950680841303088"><ele>726.0</ele><time>2026-05-02T16:38:14Z</time></trkpt><trkpt lat="43.86270727366025" lon="11.950598500642743"><ele>732.5</ele><time>2026-05-02T16:38:15Z</time></trkpt><trkpt lat="43.862806857941756" lon="11.950479435250427"><ele>739.0</ele><time>2026-05-02T16:38:16Z</time></trkpt><trkpt lat="43.86289891676557" lon="11.950346871091531"><ele>745.5</ele><time>2026-05-02T16:38:17Z</time></trkpt><trkpt lat="43.86297890403756" lon="11.95021919069224"><ele>752.0</ele><time>2026-05-02T16:38:18Z</time></trkpt><trkpt lat="43.86304393893879" lon="11.950127263578702"><ele>752.0</ele><time>2026-05-02T16:38:19Z</time></trkpt><trkpt lat="43.86309886615071" lon="11.950047877722717"><ele>752.0</ele><time>2026-05-02T16:38:20Z</time></trkpt><trkpt lat="43.86313488468044" lon="11.949938873562662"><ele>752.0</ele><time>2026-05-02T16:38:21Z</time></trkpt><trkpt lat="43.863120261735475" lon="11.949815737182323"><ele>752.0</ele><time>2026-05-02T16:38:22Z</time></trkpt><trkpt lat="43.863090832166364" lon="11.949704798508426"><ele>752.0</ele><time>2026-05-02T16:38:23Z</time></trkpt><trkpt lat="43.863005601054276" lon="11.949615002351301"><ele>752.0</ele><time>2026-05-02T16:38:24Z</time></trkpt><trkpt lat="43.86292014398838" lon="11.949526893495435"><ele>751.25</ele><time>2026-05-02T16:38:25Z</time></trkpt><trkpt lat="43.86281852373829" lon="11.949428420031785"><ele>750.5</ele><time>2026-05-02T16:38:26Z</time></trkpt><trkpt lat="43.86273486053032" lon="11.949305610958769"><ele>749.75</ele><time>2026-05-02T16:38:27Z</time></trkpt><trkpt lat="43.86267770752537" lon="11.949193193028163"><ele>749.0</ele><time>2026-05-02T16:38:28Z</time></trkpt><trkpt lat="43.862635005630025" lon="11.949048685989494"><ele>749.0</ele><time>2026-05-02T16:38:29Z</time></trkpt><trkpt lat="43.86261788983163" lon="11.948898449775083"><ele>749.0</ele><time>2026-05-02T16:38:30Z</time></trkpt><trkpt lat="43.862652575871536" lon="11.948741813066965"><ele>749.0</ele><time>2026-05-02T16:38:31Z</time></trkpt><trkpt lat="43.86269046300005" lon="11.94858968189041"><ele>749.0</ele><time>2026-05-02T16:38:32Z</time></trkpt><trkpt lat="43.86272485285136" lon="11.94842853369232"><ele>750.0</ele><time>2026-05-02T16:38:33Z</time></trkpt><trkpt lat="43.86277456552558" lon="11.948272984887339"><ele>751.0</ele><time>2026-05-02T16:38:34Z</time></trkpt><trkpt lat="43.86280208266205" lon="11.948141628403576"><ele>752.0</ele><time>2026-05-02T16:38:35Z</time></trkpt><trkpt lat="43.86282223783899" lon="11.948017990514904"><ele>753.0</ele><time>2026-05-02T16:38:36Z</time></trkpt><trkpt lat="43.862837426375265" lon="11.947907298635924"><ele>754.0</ele><time>2026-05-02T16:38:37Z</time></trkpt><trkpt lat="43.86284944540899" lon="11.947753440451553"><ele>754.0</ele><time>2026-05-02T16:38:39Z</time></trkpt><trkpt lat="43.8628915165549" lon="11.947603767488514"><ele>754.0</ele><time>2026-05-02T16:38:41Z</time></trkpt><trkpt lat="43.86292183617548" lon="11.947487439718408"><ele>754.0</ele><time>2026-05-02T16:38:42Z</time></trkpt><trkpt lat="43.86295057782448" lon="11.947386182318697"><ele>754.0</ele><time>2026-05-02T16:38:43Z</time></trkpt><trkpt lat="43.8629793310314" lon="11.947287883591947"><ele>754.0</ele><time>2026-05-02T16:38:44Z</time></trkpt><trkpt lat="43.8630144414354" lon="11.947167152282658"><ele>754.6</ele><time>2026-05-02T16:38:45Z</time></trkpt><trkpt lat="43.863053685507516" lon="11.947033969902655"><ele>755.2</ele><time>2026-05-02T16:38:46Z</time></trkpt><trkpt lat="43.86309418094938" lon="11.946900409908505"><ele>755.8000000000001</ele><time>2026-05-02T16:38:47Z</time></trkpt><trkpt lat="43.86313655831213" lon="11.946758572788898"><ele>756.4000000000001</ele><time>2026-05-02T16:38:48Z</time></trkpt><trkpt lat="43.863184855467786" lon="11.946601257871905"><ele>757.0</ele><time>2026-05-02T16:38:49Z</time></trkpt><trkpt lat="43.863237747780936" lon="11.946445070673969"><ele>758.0</ele><time>2026-05-02T16:38:50Z</time></trkpt><trkpt lat="43.863285764018855" lon="11.946290026360181"><ele>759.0</ele><time>2026-05-02T16:38:51Z</time></trkpt><trkpt lat="43.86333630233989" lon="11.946121430845317"><ele>760.0</ele><time>2026-05-02T16:38:52Z</time></trkpt><trkpt lat="43.8633912715478" lon="11.945944506597026"><ele>761.0</ele><time>2026-05-02T16:38:53Z</time></trkpt><trkpt lat="43.863450148886095" lon="11.945755381637113"><ele>764.5999999999999</ele><time>2026-05-02T16:38:54Z</time></trkpt><trkpt lat="43.86350203310521" lon="11.945598038109612"><ele>768.2</ele><time>2026-05-02T16:38:55Z</time></trkpt><trkpt lat="43.8635396628188" lon="11.945471379193691"><ele>771.8</ele><time>2026-05-02T16:38:56Z</time></trkpt><trkpt lat="43.8635866484021" lon="11.945338587217003"><ele>775.4000000000001</ele><time>2026-05-02T16:38:57Z</time></trkpt><trkpt lat="43.863625236537565" lon="11.945234413997886"><ele>779.0</ele><time>2026-05-02T16:38:58Z</time></trkpt><trkpt lat="43.86364557333381" lon="11.945122126487515"><ele>778.2</ele><time>2026-05-02T16:38:59Z</time></trkpt><trkpt lat="43.863636704499925" lon="11.944998303146892"><ele>777.4000000000001</ele><time>2026-05-02T16:39:00Z</time></trkpt><trkpt lat="43.86359303833821" lon="11.944878720953788"><ele>776.6</ele><time>2026-05-02T16:39:01Z</time></trkpt><trkpt lat="43.86351528818811" lon="11.944771495623309"><ele>775.8</ele><time>2026-05-02T16:39:02Z</time></trkpt><trkpt lat="43.86342735559737" lon="11.94470175172624"><ele>775.0</ele><time>2026-05-02T16:39:03Z</time></trkpt><trkpt lat="43.86330738476056" lon="11.944668141330954"><ele>775.0</ele><time>2026-05-02T16:39:04Z</time></trkpt><trkpt lat="43.863162459246425" lon="11.94465900878617"><ele>775.0</ele><time>2026-05-02T16:39:05Z</time></trkpt><trkpt lat="43.86300465205934" lon="11.944668775560535"><ele>775.0</ele><time>2026-05-02T16:39:06Z</time></trkpt><trkpt lat="43.86286610082373" lon="11.94468994091442"><ele>775.0</ele><time>2026-05-02T16:39:07Z</time></trkpt><trkpt lat="43.862760678704014" lon="11.944686701386836"><ele>775.0</ele><time>2026-05-02T16:39:08Z</time></trkpt><trkpt lat="43.86264817406981" lon="11.944699233398229"><ele>775.0</ele><time>2026-05-02T16:39:09Z</time></trkpt><trkpt lat="43.86255003128461" lon="11.94467659883187"><ele>775.0</ele><time>2026-05-02T16:39:10Z</time></trkpt><trkpt lat="43.86247629955423" lon="11.944587924856549"><ele>775.0</ele><time>2026-05-02T16:39:11Z</time></trkpt><trkpt lat="43.862446139710954" lon="11.944464428339078"><ele>775.0</ele><time>2026-05-02T16:39:12Z</time></trkpt><trkpt lat="43.862416394154984" lon="11.944318685292382"><ele>778.0</ele><time>2026-05-02T16:39:13Z</time></trkpt><trkpt lat="43.86238773596699" lon="11.944168990179083"><ele>781.0</ele><time>2026-05-02T16:39:14Z</time></trkpt><trkpt lat="43.862364419027564" lon="11.944031429132835"><ele>784.0</ele><time>2026-05-02T16:39:15Z</time></trkpt><trkpt lat="43.862334849699884" lon="11.943900077519976"><ele>787.0</ele><time>2026-05-02T16:39:16Z</time></trkpt><trkpt lat="43.86230479773023" lon="11.943779262596886"><ele>790.0</ele><time>2026-05-02T16:39:17Z</time></trkpt><trkpt lat="43.86228037965276" lon="11.943689723874591"><ele>790.0</ele><time>2026-05-02T16:39:18Z</time></trkpt><trkpt lat="43.86225294465775" lon="11.94358888175834"><ele>790.0</ele><time>2026-05-02T16:39:20Z</time></trkpt><trkpt lat="43.86222668379323" lon="11.94348790671805"><ele>790.0</ele><time>2026-05-02T16:39:23Z</time></trkpt><trkpt lat="43.86229372344953" lon="11.943411378665893"><ele>790.0</ele><time>2026-05-02T16:39:26Z</time></trkpt><trkpt lat="43.86239647268572" lon="11.943426591501048"><ele>790.0</ele><time>2026-05-02T16:39:28Z</time></trkpt><trkpt lat="43.86251014439139" lon="11.943410956542158"><ele>789.4999999999999</ele><time>2026-05-02T16:39:30Z</time></trkpt><trkpt lat="43.86262031488911" lon="11.943414422110486"><ele>789.0</ele><time>2026-05-02T16:39:32Z</time></trkpt><trkpt lat="43.86269602523267" lon="11.943433560637594"><ele>788.5</ele><time>2026-05-02T16:39:33Z</time></trkpt><trkpt lat="43.86276611178163" lon="11.943452716425483"><ele>788.0</ele><time>2026-05-02T16:39:34Z</time></trkpt><trkpt lat="43.862837332854106" lon="11.94348528908093"><ele>787.4999999999999</ele><time>2026-05-02T16:39:35Z</time></trkpt><trkpt lat="43.86292341236802" lon="11.943506492769782"><ele>787.0</ele><time>2026-05-02T16:39:37Z</time></trkpt><trkpt lat="43.86297665273448" lon="11.943459129797125"><ele>790.6</ele><time>2026-05-02T16:39:39Z</time></trkpt><trkpt lat="43.86301696536865" lon="11.94332939230027"><ele>794.2</ele><time>2026-05-02T16:39:41Z</time></trkpt><trkpt lat="43.86302552791874" lon="11.94320447958907"><ele>797.8</ele><time>2026-05-02T16:39:43Z</time></trkpt><trkpt lat="43.86299967706771" lon="11.943054640143398"><ele>801.4</ele><time>2026-05-02T16:39:45Z</time></trkpt><trkpt lat="43.86295355935561" lon="11.942945015925156"><ele>805.0</ele><time>2026-05-02T16:39:47Z</time></trkpt><trkpt lat="43.86292291072071" lon="11.94283290196077"><ele>804.9999999999999</ele><time>2026-05-02T16:39:49Z</time></trkpt><trkpt lat="43.86295503048679" lon="11.942726024902994"><ele>805.0</ele><time>2026-05-02T16:39:51Z</time></trkpt><trkpt lat="43.86295411177616" lon="11.942627544344907"><ele>805.0</ele><time>2026-05-02T16:39:55Z</time></trkpt><trkpt lat="43.8629802010434" lon="11.942526369080772"><ele>805.0</ele><time>2026-05-02T16:39:57Z</time></trkpt><trkpt lat="43.863025546595615" lon="11.942405406004566"><ele>804.9999999999999</ele><time>2026-05-02T16:39:58Z</time></trkpt><trkpt lat="43.86306196168027" lon="11.942331670444224"><ele>805.0</ele><time>2026-05-02T16:39:59Z</time></trkpt><trkpt lat="43.863144881348894" lon="11.942205673586434"><ele>807.9999999999999</ele><time>2026-05-02T16:40:01Z</time></trkpt><trkpt lat="43.863146046976446" lon="11.942099312958847"><ele>811.0</ele><time>2026-05-02T16:40:03Z</time></trkpt><trkpt lat="43.86313158294579" lon="11.94193992430809"><ele>814.0</ele><time>2026-05-02T16:40:05Z</time></trkpt><trkpt lat="43.86316167145432" lon="11.941857585996035"><ele>817.0</ele><time>2026-05-02T16:40:06Z</time></trkpt><trkpt lat="43.863225428947224" lon="11.941806968797515"><ele>819.9999999999999</ele><time>2026-05-02T16:40:08Z</time></trkpt><trkpt lat="43.86328286616412" lon="11.941743065480868"><ele>823.0</ele><time>2026-05-02T16:40:09Z</time></trkpt><trkpt lat="43.86336249554836" lon="11.941703595405613"><ele>826.5999999999999</ele><time>2026-05-02T16:40:10Z</time></trkpt><trkpt lat="43.86343175443512" lon="11.941687076795603"><ele>830.1999999999999</ele><time>2026-05-02T16:40:11Z</time></trkpt><trkpt lat="43.86349424273657" lon="11.941674315022787"><ele>833.8</ele><time>2026-05-02T16:40:12Z</time></trkpt><trkpt lat="43.86359850951849" lon="11.941580829135198"><ele>837.4</ele><time>2026-05-02T16:40:14Z</time></trkpt><trkpt lat="43.8636987972394" lon="11.941497680394834"><ele>841.0</ele><time>2026-05-02T16:40:16Z</time></trkpt><trkpt lat="43.86379305036569" lon="11.94142285586262"><ele>841.0</ele><time>2026-05-02T16:40:18Z</time></trkpt><trkpt lat="43.863850129255184" lon="11.941315897388508"><ele>841.0</ele><time>2026-05-02T16:40:20Z</time></trkpt><trkpt lat="43.86384409350529" lon="11.94119871422462"><ele>841.0</ele><time>2026-05-02T16:40:22Z</time></trkpt><trkpt lat="43.86387540235581" lon="11.941113560538433"><ele>841.0</ele><time>2026-05-02T16:41:03Z</time></trkpt><trkpt lat="43.86383300460257" lon="11.940984530156113"><ele>841.0</ele><time>2026-05-02T16:41:05Z</time></trkpt><trkpt lat="43.863764846903045" lon="11.940881999219533"><ele>845.4</ele><time>2026-05-02T16:41:07Z</time></trkpt><trkpt lat="43.863646967610194" lon="11.9408044978187"><ele>849.8</ele><time>2026-05-02T16:41:09Z</time></trkpt><trkpt lat="43.86360680182387" lon="11.940689578906149"><ele>854.1999999999999</ele><time>2026-05-02T16:41:11Z</time></trkpt><trkpt lat="43.863665261802595" lon="11.940547419848148"><ele>858.5999999999999</ele><time>2026-05-02T16:41:13Z</time></trkpt><trkpt lat="43.863743534796434" lon="11.940451326536587"><ele>863.0</ele><time>2026-05-02T16:41:15Z</time></trkpt><trkpt lat="43.86380684839541" lon="11.940338847245282"><ele>863.0</ele><time>2026-05-02T16:41:17Z</time></trkpt><trkpt lat="43.86385381444373" lon="11.940181755304675"><ele>863.0</ele><time>2026-05-02T16:41:19Z</time></trkpt><trkpt lat="43.863923840181286" lon="11.940051984327365"><ele>863.0</ele><time>2026-05-02T16:41:21Z</time></trkpt><trkpt lat="43.864015265852025" lon="11.93994967462446"><ele>863.0</ele><time>2026-05-02T16:41:23Z</time></trkpt><trkpt lat="43.86407150311486" lon="11.9399055958201"><ele>863.0</ele><time>2026-05-02T16:41:24Z</time></trkpt><trkpt lat="43.86417274012821" lon="11.939815521086143"><ele>865.6666666666667</ele><time>2026-05-02T16:41:26Z</time></trkpt><trkpt lat="43.86423182132204" lon="11.939680003333192"><ele>868.3333333333334</ele><time>2026-05-02T16:41:28Z</time></trkpt><trkpt lat="43.864255838829116" lon="11.93959557852382"><ele>871.0</ele><time>2026-05-02T16:41:29Z</time></trkpt><trkpt lat="43.86428276589206" lon="11.939512858619187"><ele>873.6666666666667</ele><time>2026-05-02T16:41:30Z</time></trkpt><trkpt lat="43.86431580031868" lon="11.939424943877924"><ele>876.3333333333334</ele><time>2026-05-02T16:41:31Z</time></trkpt><trkpt lat="43.86437385088234" lon="11.939266281831696"><ele>879.0</ele><time>2026-05-02T16:41:33Z</time></trkpt><trkpt lat="43.86441465725756" lon="11.939183079679694"><ele>882.0</ele><time>2026-05-02T16:41:34Z</time></trkpt><trkpt lat="43.86445556795896" lon="11.939108062797919"><ele>885.0</ele><time>2026-05-02T16:41:35Z</time></trkpt><trkpt lat="43.86449450282547" lon="11.939035342709662"><ele>888.0</ele><time>2026-05-02T16:41:36Z</time></trkpt><trkpt lat="43.86452186480438" lon="11.938955185212746"><ele>891.0</ele><time>2026-05-02T16:41:37Z</time></trkpt><trkpt lat="43.86455528658783" lon="11.938858851592125"><ele>894.0</ele><time>2026-05-02T16:41:38Z</time></trkpt><trkpt lat="43.86460669871919" lon="11.938737257926947"><ele>897.0</ele><time>2026-05-02T16:41:40Z</time></trkpt><trkpt lat="43.86463939377127" lon="11.938584059398888"><ele>897.0</ele><time>2026-05-02T16:41:42Z</time></trkpt><trkpt lat="43.86465039541616" lon="11.938496497509892"><ele>897.0</ele><time>2026-05-02T16:41:43Z</time></trkpt><trkpt lat="43.86466760965989" lon="11.93838462674503"><ele>897.0</ele><time>2026-05-02T16:41:44Z</time></trkpt><trkpt lat="43.86466042567193" lon="11.938292947043703"><ele>897.0</ele><time>2026-05-02T16:41:46Z</time></trkpt><trkpt lat="43.86460237566378" lon="11.938197998830402"><ele>897.0</ele><time>2026-05-02T16:41:48Z</time></trkpt><trkpt lat="43.8645487894893" lon="11.938135130237805"><ele>897.0</ele><time>2026-05-02T16:41:49Z</time></trkpt><trkpt lat="43.86450907466737" lon="11.938066991826"><ele>897.0</ele><time>2026-05-02T16:41:50Z</time></trkpt><trkpt lat="43.864460219201455" lon="11.937963639963298"><ele>900.8</ele><time>2026-05-02T16:41:52Z</time></trkpt><trkpt lat="43.864468298613694" lon="11.937824520457944"><ele>904.6</ele><time>2026-05-02T16:41:54Z</time></trkpt><trkpt lat="43.86444823620343" lon="11.937682010329558"><ele>908.3999999999999</ele><time>2026-05-02T16:41:56Z</time></trkpt><trkpt lat="43.86441793722967" lon="11.937589590754364"><ele>912.1999999999999</ele><time>2026-05-02T16:41:57Z</time></trkpt><trkpt lat="43.86439945251092" lon="11.937496866156048"><ele>916.0</ele><time>2026-05-02T16:41:58Z</time></trkpt><trkpt lat="43.86438536904211" lon="11.937337513698282"><ele>919.0</ele><time>2026-05-02T16:42:00Z</time></trkpt><trkpt lat="43.864385812803846" lon="11.937213238163618"><ele>921.9999999999999</ele><time>2026-05-02T16:42:02Z</time></trkpt><trkpt lat="43.864385881498386" lon="11.937122856872632"><ele>924.9999999999999</ele><time>2026-05-02T16:42:12Z</time></trkpt><trkpt lat="43.86437863656413" lon="11.93700634479945"><ele>928.0</ele><time>2026-05-02T16:42:14Z</time></trkpt><trkpt lat="43.86436887384048" lon="11.936862506427065"><ele>931.0</ele><time>2026-05-02T16:42:17Z</time></trkpt><trkpt lat="43.864372932807385" lon="11.936704718627164"><ele>932.6666666666666</ele><time>2026-05-02T16:42:19Z</time></trkpt><trkpt lat="43.86439697636974" lon="11.936600729585491"><ele>934.3333333333333</ele><time>2026-05-02T16:42:21Z</time></trkpt><trkpt lat="43.864417946855696" lon="11.936464504798838"><ele>936.0</ele><time>2026-05-02T16:42:23Z</time></trkpt><trkpt lat="43.864421553146094" lon="11.93635881776882"><ele>937.6666666666667</ele><time>2026-05-02T16:42:27Z</time></trkpt><trkpt lat="43.86439893474251" lon="11.936255772223248"><ele>939.3333333333334</ele><time>2026-05-02T16:42:29Z</time></trkpt><trkpt lat="43.864432601984795" lon="11.936177459004684"><ele>941.0</ele><time>2026-05-02T16:42:31Z</time></trkpt><trkpt lat="43.86445139773766" lon="11.93605010349638"><ele>941.0000000000001</ele><time>2026-05-02T16:42:33Z</time></trkpt><trkpt lat="43.86446525565294" lon="11.93591201049881"><ele>941.0</ele><time>2026-05-02T16:42:36Z</time></trkpt><trkpt lat="43.86449671745395" lon="11.935790319307896"><ele>941.0</ele><time>2026-05-02T16:42:38Z</time></trkpt><trkpt lat="43.86453540911245" lon="11.935676512736068"><ele>941.0</ele><time>2026-05-02T16:42:40Z</time></trkpt><trkpt lat="43.86454568803623" lon="11.935583965461714"><ele>941.0000000000001</ele><time>2026-05-02T16:42:44Z</time></trkpt><trkpt lat="43.86458581937831" lon="11.935515913262279"><ele>941.0</ele><time>2026-05-02T16:42:51Z</time></trkpt><trkpt lat="43.86460467909311" lon="11.935651919991685"><ele>941.0</ele><time>2026-05-02T16:43:19Z</time></trkpt><trkpt lat="43.86464822260932" lon="11.935754327136083"><ele>940.9999999999999</ele><time>2026-05-02T16:43:21Z</time></trkpt><trkpt lat="43.86470680421497" lon="11.935865996639523"><ele>940.9999999999999</ele><time>2026-05-02T16:43:23Z</time></trkpt><trkpt lat="43.864783049776435" lon="11.935963934333135"><ele>941.0</ele><time>2026-05-02T16:43:25Z</time></trkpt><trkpt lat="43.86483459683911" lon="11.936071178790144"><ele>941.0</ele><time>2026-05-02T16:43:27Z</time></trkpt><trkpt lat="43.864897600425124" lon="11.936181646592384"><ele>941.0</ele><time>2026-05-02T16:43:29Z</time></trkpt><trkpt lat="43.86498109258492" lon="11.936304597925027"><ele>940.9999999999999</ele><time>2026-05-02T16:43:31Z</time></trkpt><trkpt lat="43.86506089369547" lon="11.9364029079698"><ele>940.9999999999999</ele><time>2026-05-02T16:43:33Z</time></trkpt><trkpt lat="43.865081629522344" lon="11.936485826954128"><ele>941.0</ele><time>2026-05-02T16:43:36Z</time></trkpt><trkpt lat="43.865127560861374" lon="11.936592063704838"><ele>941.0</ele><time>2026-05-02T16:43:39Z</time></trkpt><trkpt lat="43.86517437260388" lon="11.936733866903946"><ele>939.5999999999999</ele><time>2026-05-02T16:43:41Z</time></trkpt><trkpt lat="43.865224129368" lon="11.936813639034597"><ele>938.1999999999999</ele><time>2026-05-02T16:43:42Z</time></trkpt><trkpt lat="43.865286829080695" lon="11.936917905977873"><ele>936.8000000000001</ele><time>2026-05-02T16:43:44Z</time></trkpt><trkpt lat="43.865367568765386" lon="11.937034177795443"><ele>935.4000000000001</ele><time>2026-05-02T16:43:46Z</time></trkpt><trkpt lat="43.865453518157636" lon="11.937146676167561"><ele>934.0</ele><time>2026-05-02T16:43:48Z</time></trkpt><trkpt lat="43.86553438266012" lon="11.937214586722646"><ele>934.0</ele><time>2026-05-02T16:43:50Z</time></trkpt><trkpt lat="43.865661769129304" lon="11.937247250452716"><ele>934.0000000000001</ele><time>2026-05-02T16:43:52Z</time></trkpt><trkpt lat="43.86576016407733" lon="11.937288145848221"><ele>934.0000000000001</ele><time>2026-05-02T16:43:54Z</time></trkpt><trkpt lat="43.86581651195399" lon="11.937328665542672"><ele>934.0</ele><time>2026-05-02T16:43:57Z</time></trkpt><trkpt lat="43.86588557297722" lon="11.937340437550187"><ele>934.0</ele><time>2026-05-02T16:43:59Z</time></trkpt><trkpt lat="43.86598191037387" lon="11.937343177081916"><ele>931.9999999999999</ele><time>2026-05-02T16:44:02Z</time></trkpt><trkpt lat="43.86604729513372" lon="11.937327685638634"><ele>930.0</ele><time>2026-05-02T16:44:04Z</time></trkpt><trkpt lat="43.86612049188783" lon="11.937310303744887"><ele>928.0</ele><time>2026-05-02T16:44:07Z</time></trkpt><trkpt lat="43.8661986888031" lon="11.937314786738055"><ele>926.0</ele><time>2026-05-02T16:44:09Z</time></trkpt><trkpt lat="43.86630776785015" lon="11.937347669582545"><ele>923.9999999999999</ele><time>2026-05-02T16:44:11Z</time></trkpt><trkpt lat="43.866393488746084" lon="11.937406114747587"><ele>922.0</ele><time>2026-05-02T16:44:12Z</time></trkpt><trkpt lat="43.86644883855752" lon="11.937453966015088"><ele>922.0</ele><time>2026-05-02T16:44:13Z</time></trkpt><trkpt lat="43.866509271738835" lon="11.93752108941344"><ele>922.0000000000001</ele><time>2026-05-02T16:44:14Z</time></trkpt><trkpt lat="43.866546626687835" lon="11.93759467395275"><ele>922.0</ele><time>2026-05-02T16:44:15Z</time></trkpt><trkpt lat="43.86658324860703" lon="11.937665872393424"><ele>922.0</ele><time>2026-05-02T16:44:18Z</time></trkpt><trkpt lat="43.86664830353676" lon="11.937746797672888"><ele>922.0000000000001</ele><time>2026-05-02T16:44:19Z</time></trkpt><trkpt lat="43.86669919769308" lon="11.937809492762415"><ele>922.0</ele><time>2026-05-02T16:44:21Z</time></trkpt><trkpt lat="43.86676083708826" lon="11.937885675628094"><ele>922.0</ele><time>2026-05-02T16:44:24Z</time></trkpt><trkpt lat="43.86683951559721" lon="11.937975391936334"><ele>922.25</ele><time>2026-05-02T16:44:27Z</time></trkpt><trkpt lat="43.8670679079184" lon="11.93815232171553"><ele>922.5</ele><time>2026-05-02T16:44:28Z</time></trkpt><trkpt lat="43.8671291829656" lon="11.938190421897279"><ele>922.75</ele><time>2026-05-02T16:44:29Z</time></trkpt><trkpt lat="43.86720900824324" lon="11.93823583261996"><ele>923.0</ele><time>2026-05-02T16:44:31Z</time></trkpt><trkpt lat="43.867269909027605" lon="11.9382640029844"><ele>923.0</ele><time>2026-05-02T16:44:33Z</time></trkpt><trkpt lat="43.867352901660084" lon="11.938288230209464"><ele>923.0</ele><time>2026-05-02T16:44:36Z</time></trkpt><trkpt lat="43.86742804344604" lon="11.938330041190017"><ele>923.0</ele><time>2026-05-02T16:44:38Z</time></trkpt><trkpt lat="43.86750727549784" lon="11.938405649704238"><ele>923.0</ele><time>2026-05-02T16:44:40Z</time></trkpt><trkpt lat="43.86759906722946" lon="11.938504897600595"><ele>923.0</ele><time>2026-05-02T16:44:42Z</time></trkpt><trkpt lat="43.86766958292968" lon="11.938587692950303"><ele>921.8333333333334</ele><time>2026-05-02T16:44:44Z</time></trkpt><trkpt lat="43.86771636448005" lon="11.938681838637688"><ele>920.6666666666667</ele><time>2026-05-02T16:44:46Z</time></trkpt><trkpt lat="43.86776766167927" lon="11.938761101015894"><ele>919.5</ele><time>2026-05-02T16:44:57Z</time></trkpt><trkpt lat="43.86781513531857" lon="11.938832021372406"><ele>918.3333333333333</ele><time>2026-05-02T16:44:59Z</time></trkpt><trkpt lat="43.8679007813618" lon="11.93885435399797"><ele>917.1666666666666</ele><time>2026-05-02T16:45:01Z</time></trkpt><trkpt lat="43.8679817459847" lon="11.93889047505082"><ele>916.0</ele><time>2026-05-02T16:45:03Z</time></trkpt><trkpt lat="43.868039286115334" lon="11.939005996581892"><ele>915.9999999999999</ele><time>2026-05-02T16:45:05Z</time></trkpt><trkpt lat="43.8680824498637" lon="11.939111089139864"><ele>916.0</ele><time>2026-05-02T16:45:07Z</time></trkpt><trkpt lat="43.86812065838619" lon="11.939208089315544"><ele>916.0</ele><time>2026-05-02T16:45:10Z</time></trkpt><trkpt lat="43.868101095709825" lon="11.93930625245703"><ele>916.0</ele><time>2026-05-02T16:45:12Z</time></trkpt><trkpt lat="43.86805997646186" lon="11.939417926616045"><ele>915.9999999999999</ele><time>2026-05-02T16:45:14Z</time></trkpt><trkpt lat="43.868057489867034" lon="11.939580106822456"><ele>916.0</ele><time>2026-05-02T16:45:16Z</time></trkpt><trkpt lat="43.868086720179846" lon="11.939662445488155"><ele>916.1666666666666</ele><time>2026-05-02T16:45:20Z</time></trkpt><trkpt lat="43.8681083933472" lon="11.939773086075393"><ele>916.3333333333333</ele><time>2026-05-02T16:45:23Z</time></trkpt><trkpt lat="43.86819342283748" lon="11.939890793513316"><ele>916.5</ele><time>2026-05-02T16:45:25Z</time></trkpt><trkpt lat="43.86823735309061" lon="11.93998587346309"><ele>916.6666666666667</ele><time>2026-05-02T16:45:28Z</time></trkpt><trkpt lat="43.86828338638557" lon="11.940070462743407"><ele>916.8333333333334</ele><time>2026-05-02T16:45:30Z</time></trkpt><trkpt lat="43.86830162580485" lon="11.940168027320164"><ele>917.0</ele><time>2026-05-02T16:45:32Z</time></trkpt><trkpt lat="43.868319664747375" lon="11.940290034141187"><ele>917.0000000000001</ele><time>2026-05-02T16:45:35Z</time></trkpt><trkpt lat="43.868337333634514" lon="11.940404419009862"><ele>917.0</ele><time>2026-05-02T16:45:36Z</time></trkpt><trkpt lat="43.86835289616327" lon="11.940511701733906"><ele>917.0</ele><time>2026-05-02T16:45:37Z</time></trkpt><trkpt lat="43.86835805257539" lon="11.940602392604049"><ele>917.0</ele><time>2026-05-02T16:45:38Z</time></trkpt><trkpt lat="43.86840947759842" lon="11.940756401441499"><ele>917.0000000000001</ele><time>2026-05-02T16:45:40Z</time></trkpt><trkpt lat="43.86839705178167" lon="11.940855752664014"><ele>917.0</ele><time>2026-05-02T16:45:42Z</time></trkpt><trkpt lat="43.86844933528089" lon="11.940980432742235"><ele>925.0</ele><time>2026-05-02T16:45:44Z</time></trkpt><trkpt lat="43.868516080441104" lon="11.941380316903155"><ele>933.0</ele><time>2026-05-02T16:45:47Z</time></trkpt><trkpt lat="43.86854581522215" lon="11.941500205730177"><ele>941.0</ele><time>2026-05-02T16:45:49Z</time></trkpt><trkpt lat="43.86850384168367" lon="11.941622874976476"><ele>941.0000000000001</ele><time>2026-05-02T16:45:50Z</time></trkpt><trkpt lat="43.8684783073569" lon="11.941706863053865"><ele>941.0</ele><time>2026-05-02T16:45:51Z</time></trkpt><trkpt lat="43.86847801226625" lon="11.941809740732658"><ele>941.0</ele><time>2026-05-02T16:45:52Z</time></trkpt><trkpt lat="43.86842200697546" lon="11.94185257216609"><ele>941.0</ele><time>2026-05-02T16:45:53Z</time></trkpt><trkpt lat="43.868409883328326" lon="11.9419980913911"><ele>941.0000000000001</ele><time>2026-05-02T16:45:55Z</time></trkpt><trkpt lat="43.86840907036908" lon="11.94212495408853"><ele>941.0</ele><time>2026-05-02T16:45:57Z</time></trkpt><trkpt lat="43.86840799214139" lon="11.94227843378291"><ele>938.4</ele><time>2026-05-02T16:45:59Z</time></trkpt><trkpt lat="43.868348651557504" lon="11.942421796763192"><ele>935.8</ele><time>2026-05-02T16:46:01Z</time></trkpt><trkpt lat="43.86827960116051" lon="11.942548554329663"><ele>933.1999999999999</ele><time>2026-05-02T16:46:03Z</time></trkpt><trkpt lat="43.86825772717182" lon="11.942633074008638"><ele>930.5999999999999</ele><time>2026-05-02T16:46:06Z</time></trkpt><trkpt lat="43.86827236981965" lon="11.942760089022517"><ele>928.0</ele><time>2026-05-02T16:46:08Z</time></trkpt><trkpt lat="43.86828963920101" lon="11.942917185311249"><ele>927.9999999999999</ele><time>2026-05-02T16:46:10Z</time></trkpt><trkpt lat="43.86829084089062" lon="11.943004928307612"><ele>928.0</ele><time>2026-05-02T16:46:12Z</time></trkpt><trkpt lat="43.86827532262947" lon="11.943149324853433"><ele>928.0</ele><time>2026-05-02T16:46:14Z</time></trkpt><trkpt lat="43.86829833080506" lon="11.943298215737649"><ele>928.0</ele><time>2026-05-02T16:46:16Z</time></trkpt><trkpt lat="43.86829192973894" lon="11.9434260067698"><ele>927.9999999999999</ele><time>2026-05-02T16:46:18Z</time></trkpt><trkpt lat="43.868291688007105" lon="11.943526817020812"><ele>928.0</ele><time>2026-05-02T16:46:20Z</time></trkpt><trkpt lat="43.86829456386311" lon="11.943658456006515"><ele>927.4999999999999</ele><time>2026-05-02T16:46:22Z</time></trkpt><trkpt lat="43.868284474377425" lon="11.943768715579893"><ele>927.0</ele><time>2026-05-02T16:46:24Z</time></trkpt><trkpt lat="43.86828755570129" lon="11.94390887284316"><ele>926.5</ele><time>2026-05-02T16:46:26Z</time></trkpt><trkpt lat="43.86829513282668" lon="11.944024008440168"><ele>926.0</ele><time>2026-05-02T16:46:28Z</time></trkpt><trkpt lat="43.868321597194715" lon="11.944162854831701"><ele>925.4999999999999</ele><time>2026-05-02T16:46:30Z</time></trkpt><trkpt lat="43.8683595466107" lon="11.944245021055103"><ele>925.0</ele><time>2026-05-02T16:46:33Z</time></trkpt><trkpt lat="43.86846179323588" lon="11.944277762323747"><ele>926.8333333333333</ele><time>2026-05-02T16:46:39Z</time></trkpt><trkpt lat="43.868570335029176" lon="11.944296102826776"><ele>928.6666666666666</ele><time>2026-05-02T16:46:41Z</time></trkpt><trkpt lat="43.86863716968247" lon="11.944305907207616"><ele>930.5</ele><time>2026-05-02T16:46:44Z</time></trkpt><trkpt lat="43.86872690887719" lon="11.944312219608639"><ele>932.3333333333333</ele><time>2026-05-02T16:46:45Z</time></trkpt><trkpt lat="43.86883852787012" lon="11.944314440914894"><ele>934.1666666666666</ele><time>2026-05-02T16:46:47Z</time></trkpt><trkpt lat="43.868907128991815" lon="11.944311962653961"><ele>936.0</ele><time>2026-05-02T16:46:49Z</time></trkpt><trkpt lat="43.86897359223044" lon="11.944336022169058"><ele>936.0</ele><time>2026-05-02T16:46:51Z</time></trkpt><trkpt lat="43.869052790001824" lon="11.944389695490534"><ele>936.0</ele><time>2026-05-02T16:46:54Z</time></trkpt><trkpt lat="43.8691267148802" lon="11.944473999426982"><ele>936.0</ele><time>2026-05-02T16:46:56Z</time></trkpt><trkpt lat="43.86919618072293" lon="11.944550606925878"><ele>936.0</ele><time>2026-05-02T16:46:57Z</time></trkpt><trkpt lat="43.86923949038399" lon="11.94462867583311"><ele>936.0</ele><time>2026-05-02T16:46:58Z</time></trkpt><trkpt lat="43.86929499598379" lon="11.94473936268322"><ele>936.0</ele><time>2026-05-02T16:47:00Z</time></trkpt><trkpt lat="43.8693683209328" lon="11.944897920346504"><ele>936.3333333333334</ele><time>2026-05-02T16:47:02Z</time></trkpt><trkpt lat="43.86941103927274" lon="11.944973806096993"><ele>936.6666666666667</ele><time>2026-05-02T16:47:03Z</time></trkpt><trkpt lat="43.86945382329755" lon="11.945041594913349"><ele>937.0</ele><time>2026-05-02T16:47:04Z</time></trkpt><trkpt lat="43.86953861083221" lon="11.945177491001939"><ele>937.3333333333334</ele><time>2026-05-02T16:47:06Z</time></trkpt><trkpt lat="43.869581323350225" lon="11.945246659679126"><ele>937.6666666666667</ele><time>2026-05-02T16:47:07Z</time></trkpt><trkpt lat="43.8696255076601" lon="11.945309238955927"><ele>938.0</ele><time>2026-05-02T16:47:08Z</time></trkpt><trkpt lat="43.86967842733851" lon="11.945377560223744"><ele>938.0</ele><time>2026-05-02T16:47:09Z</time></trkpt><trkpt lat="43.869761817554725" lon="11.945471251063307"><ele>938.0</ele><time>2026-05-02T16:47:11Z</time></trkpt><trkpt lat="43.869846839898116" lon="11.945525111408749"><ele>938.0</ele><time>2026-05-02T16:47:13Z</time></trkpt><trkpt lat="43.869940063949706" lon="11.945533177762906"><ele>938.0</ele><time>2026-05-02T16:47:15Z</time></trkpt><trkpt lat="43.87004878695826" lon="11.945523587207475"><ele>938.0</ele><time>2026-05-02T16:47:18Z</time></trkpt><trkpt lat="43.870145180699865" lon="11.945529582479969"><ele>936.2</ele><time>2026-05-02T16:47:20Z</time></trkpt><trkpt lat="43.87023113960304" lon="11.945542161859837"><ele>934.4</ele><time>2026-05-02T16:47:21Z</time></trkpt><trkpt lat="43.87035591169735" lon="11.945557521888471"><ele>932.6000000000001</ele><time>2026-05-02T16:47:23Z</time></trkpt><trkpt lat="43.87046463784999" lon="11.945563316425154"><ele>930.8000000000001</ele><time>2026-05-02T16:47:25Z</time></trkpt><trkpt lat="43.87055916723459" lon="11.945575524896693"><ele>929.0</ele><time>2026-05-02T16:47:28Z</time></trkpt><trkpt lat="43.87064169937187" lon="11.945582180514249"><ele>929.0000000000001</ele><time>2026-05-02T16:47:30Z</time></trkpt><trkpt lat="43.87074261801596" lon="11.94557691594752"><ele>929.0</ele><time>2026-05-02T16:47:33Z</time></trkpt><trkpt lat="43.87081191254064" lon="11.945584156947834"><ele>929.0</ele><time>2026-05-02T16:47:35Z</time></trkpt><trkpt lat="43.87090347983721" lon="11.945603808054372"><ele>929.0</ele><time>2026-05-02T16:47:38Z</time></trkpt><trkpt lat="43.87097440494791" lon="11.945619157227455"><ele>929.0000000000001</ele><time>2026-05-02T16:47:40Z</time></trkpt><trkpt lat="43.871049643925346" lon="11.945631214304836"><ele>929.0</ele><time>2026-05-02T16:47:43Z</time></trkpt><trkpt lat="43.87113724819929" lon="11.945630744539152"><ele>926.8000000000001</ele><time>2026-05-02T16:47:46Z</time></trkpt><trkpt lat="43.871276095407275" lon="11.945616087844757"><ele>924.6000000000001</ele><time>2026-05-02T16:48:19Z</time></trkpt><trkpt lat="43.87134881671138" lon="11.945616678282295"><ele>922.4</ele><time>2026-05-02T16:49:02Z</time></trkpt><trkpt lat="43.87143282915566" lon="11.945637888503848"><ele>920.2</ele><time>2026-05-02T16:49:05Z</time></trkpt><trkpt lat="43.87150113638012" lon="11.945668326330193"><ele>918.0</ele><time>2026-05-02T16:49:07Z</time></trkpt><trkpt lat="43.871576420034835" lon="11.945721034837696"><ele>918.0</ele><time>2026-05-02T16:49:09Z</time></trkpt><trkpt lat="43.871663700711004" lon="11.945766305124659"><ele>918.0</ele><time>2026-05-02T16:49:11Z</time></trkpt><trkpt lat="43.87176581471769" lon="11.945782044304039"><ele>918.0</ele><time>2026-05-02T16:49:13Z</time></trkpt><trkpt lat="43.871835001532496" lon="11.945775209521637"><ele>918.0</ele><time>2026-05-02T16:49:15Z</time></trkpt><trkpt lat="43.87190388437494" lon="11.945711563384437"><ele>918.0</ele><time>2026-05-02T16:49:18Z</time></trkpt><trkpt lat="43.87195767038761" lon="11.945659583209515"><ele>918.0</ele><time>2026-05-02T16:49:20Z</time></trkpt><trkpt lat="43.87204258686227" lon="11.945594038030602"><ele>915.8571428571429</ele><time>2026-05-02T16:49:22Z</time></trkpt><trkpt lat="43.87211061130407" lon="11.945571644918392"><ele>913.7142857142857</ele><time>2026-05-02T16:49:24Z</time></trkpt><trkpt lat="43.87216682420444" lon="11.94553081086174"><ele>911.5714285714286</ele><time>2026-05-02T16:49:26Z</time></trkpt><trkpt lat="43.87224857975165" lon="11.945499596826513"><ele>909.4285714285714</ele><time>2026-05-02T16:49:30Z</time></trkpt><trkpt lat="43.87231095549514" lon="11.945518601875433"><ele>907.2857142857142</ele><time>2026-05-02T16:49:32Z</time></trkpt><trkpt lat="43.8723767794662" lon="11.945582515875028"><ele>905.1428571428571</ele><time>2026-05-02T16:49:35Z</time></trkpt><trkpt lat="43.872436805540296" lon="11.94563802356288"><ele>903.0</ele><time>2026-05-02T16:49:36Z</time></trkpt><trkpt lat="43.87251683690643" lon="11.945696850202586"><ele>903.0</ele><time>2026-05-02T16:49:39Z</time></trkpt><trkpt lat="43.872603877893965" lon="11.945699990043043"><ele>903.0</ele><time>2026-05-02T16:49:41Z</time></trkpt><trkpt lat="43.87267272270053" lon="11.945686200277404"><ele>903.0</ele><time>2026-05-02T16:49:43Z</time></trkpt><trkpt lat="43.87269636747751" lon="11.94560441293624"><ele>903.0</ele><time>2026-05-02T16:49:45Z</time></trkpt><trkpt lat="43.872812544796865" lon="11.945531165901295"><ele>903.0</ele><time>2026-05-02T16:49:46Z</time></trkpt><trkpt lat="43.87290193641752" lon="11.94549983894899"><ele>903.0</ele><time>2026-05-02T16:49:47Z</time></trkpt><trkpt lat="43.87299869396273" lon="11.945484980735728"><ele>902.3333333333334</ele><time>2026-05-02T16:49:48Z</time></trkpt><trkpt lat="43.8731006678569" lon="11.945502615153622"><ele>901.6666666666667</ele><time>2026-05-02T16:49:49Z</time></trkpt><trkpt lat="43.873194341019094" lon="11.945505907161497"><ele>901.0</ele><time>2026-05-02T16:49:50Z</time></trkpt><trkpt lat="43.87327264986081" lon="11.945522788639343"><ele>900.3333333333334</ele><time>2026-05-02T16:49:51Z</time></trkpt><trkpt lat="43.8733258307874" lon="11.945571726142767"><ele>899.6666666666667</ele><time>2026-05-02T16:49:52Z</time></trkpt><trkpt lat="43.87337826651381" lon="11.945631829552747"><ele>899.0</ele><time>2026-05-02T16:49:53Z</time></trkpt><trkpt lat="43.873442112642024" lon="11.945690767898366"><ele>898.5000000000001</ele><time>2026-05-02T16:49:54Z</time></trkpt><trkpt lat="43.87353006663866" lon="11.945725549319066"><ele>898.0</ele><time>2026-05-02T16:49:55Z</time></trkpt><trkpt lat="43.87360955336336" lon="11.945760555209615"><ele>897.5</ele><time>2026-05-02T16:49:56Z</time></trkpt><trkpt lat="43.87367239686855" lon="11.945793056294042"><ele>897.0</ele><time>2026-05-02T16:49:57Z</time></trkpt><trkpt lat="43.87374409245066" lon="11.945796995929607"><ele>896.5000000000001</ele><time>2026-05-02T16:49:58Z</time></trkpt><trkpt lat="43.87386464672788" lon="11.945781310496317"><ele>896.0</ele><time>2026-05-02T16:50:00Z</time></trkpt><trkpt lat="43.87394052790473" lon="11.945755569081859"><ele>896.0000000000001</ele><time>2026-05-02T16:50:01Z</time></trkpt><trkpt lat="43.87401287199104" lon="11.9457308246662"><ele>896.0</ele><time>2026-05-02T16:50:02Z</time></trkpt><trkpt lat="43.8740794586126" lon="11.945707297181512"><ele>896.0</ele><time>2026-05-02T16:50:03Z</time></trkpt><trkpt lat="43.87420316001514" lon="11.94568892328652"><ele>896.0</ele><time>2026-05-02T16:50:05Z</time></trkpt><trkpt lat="43.8742817309328" lon="11.945661475243575"><ele>896.0000000000001</ele><time>2026-05-02T16:50:06Z</time></trkpt><trkpt lat="43.87434858861356" lon="11.945659237373759"><ele>896.0</ele><time>2026-05-02T16:50:07Z</time></trkpt><trkpt lat="43.87441649440057" lon="11.945658690385903"><ele>894.5000000000001</ele><time>2026-05-02T16:50:08Z</time></trkpt><trkpt lat="43.874514091522926" lon="11.945651247478976"><ele>893.0</ele><time>2026-05-02T16:50:10Z</time></trkpt><trkpt lat="43.87460970608266" lon="11.945682688499403"><ele>891.5</ele><time>2026-05-02T16:50:11Z</time></trkpt><trkpt lat="43.874687892635464" lon="11.94569713267172"><ele>890.0</ele><time>2026-05-02T16:50:12Z</time></trkpt><trkpt lat="43.874751970714215" lon="11.945719689782532"><ele>888.5000000000001</ele><time>2026-05-02T16:50:13Z</time></trkpt><trkpt lat="43.87482155353589" lon="11.945757140350997"><ele>887.0</ele><time>2026-05-02T16:50:14Z</time></trkpt><trkpt lat="43.87488359722465" lon="11.945799137470967"><ele>887.0</ele><time>2026-05-02T16:50:15Z</time></trkpt><trkpt lat="43.87499588856925" lon="11.945835769222231"><ele>887.0</ele><time>2026-05-02T16:50:17Z</time></trkpt><trkpt lat="43.87509634885564" lon="11.945834573719697"><ele>887.0</ele><time>2026-05-02T16:50:19Z</time></trkpt><trkpt lat="43.8751909217022" lon="11.945833445165555"><ele>887.0</ele><time>2026-05-02T16:50:21Z</time></trkpt><trkpt lat="43.87527362757539" lon="11.945865469885328"><ele>887.0</ele><time>2026-05-02T16:50:23Z</time></trkpt><trkpt lat="43.875327150322676" lon="11.945917003060282"><ele>885.6</ele><time>2026-05-02T16:50:25Z</time></trkpt><trkpt lat="43.875401467979486" lon="11.945978496881724"><ele>884.2</ele><time>2026-05-02T16:50:29Z</time></trkpt><trkpt lat="43.87547975227959" lon="11.946070196106326"><ele>882.8</ele><time>2026-05-02T16:51:19Z</time></trkpt><trkpt lat="43.87556611804641" lon="11.946192363598817"><ele>881.4</ele><time>2026-05-02T16:51:21Z</time></trkpt><trkpt lat="43.875618218619564" lon="11.946255125988229"><ele>880.0</ele><time>2026-05-02T16:51:22Z</time></trkpt><trkpt lat="43.87569517761816" lon="11.946359403962958"><ele>879.9999999999999</ele><time>2026-05-02T16:51:24Z</time></trkpt><trkpt lat="43.875722781136155" lon="11.946455444687258"><ele>880.0</ele><time>2026-05-02T16:51:27Z</time></trkpt><trkpt lat="43.875695618426306" lon="11.946582970149484"><ele>880.0</ele><time>2026-05-02T16:51:30Z</time></trkpt><trkpt lat="43.87566387770332" lon="11.946703172786139"><ele>880.0</ele><time>2026-05-02T16:51:32Z</time></trkpt><trkpt lat="43.87563938250711" lon="11.946823469045441"><ele>879.9999999999999</ele><time>2026-05-02T16:51:34Z</time></trkpt><trkpt lat="43.87561654957975" lon="11.94695015331608"><ele>880.0</ele><time>2026-05-02T16:51:36Z</time></trkpt><trkpt lat="43.87558333634287" lon="11.94709985989713"><ele>878.8333333333333</ele><time>2026-05-02T16:51:38Z</time></trkpt><trkpt lat="43.87555216134207" lon="11.94721861002769"><ele>877.6666666666666</ele><time>2026-05-02T16:51:40Z</time></trkpt><trkpt lat="43.87553719289172" lon="11.947335341801077"><ele>876.5</ele><time>2026-05-02T16:51:42Z</time></trkpt><trkpt lat="43.875517243700465" lon="11.947462167470633"><ele>875.3333333333333</ele><time>2026-05-02T16:51:44Z</time></trkpt><trkpt lat="43.87550925807099" lon="11.947575765238687"><ele>874.1666666666666</ele><time>2026-05-02T16:51:46Z</time></trkpt><trkpt lat="43.875503482708936" lon="11.947666154333865"><ele>873.0</ele><time>2026-05-02T16:51:48Z</time></trkpt><trkpt lat="43.875530046220895" lon="11.947774807809095"><ele>871.3333333333334</ele><time>2026-05-02T16:51:50Z</time></trkpt><trkpt lat="43.875564056497964" lon="11.947901853695305"><ele>869.6666666666667</ele><time>2026-05-02T16:51:52Z</time></trkpt><trkpt lat="43.87559150927372" lon="11.947986650126339"><ele>868.0</ele><time>2026-05-02T16:51:53Z</time></trkpt><trkpt lat="43.875628307216324" lon="11.948082393372287"><ele>866.3333333333334</ele><time>2026-05-02T16:51:54Z</time></trkpt><trkpt lat="43.875675531825735" lon="11.948184465180967"><ele>864.6666666666667</ele><time>2026-05-02T16:51:55Z</time></trkpt><trkpt lat="43.875709674215436" lon="11.948301590045164"><ele>863.0</ele><time>2026-05-02T16:51:56Z</time></trkpt><trkpt lat="43.87574250207167" lon="11.948394288932151"><ele>861.4285714285714</ele><time>2026-05-02T16:51:57Z</time></trkpt><trkpt lat="43.87576271366959" lon="11.948491238247245"><ele>859.8571428571429</ele><time>2026-05-02T16:51:58Z</time></trkpt><trkpt lat="43.875788844490984" lon="11.948594025050465"><ele>858.2857142857142</ele><time>2026-05-02T16:51:59Z</time></trkpt><trkpt lat="43.87581281941824" lon="11.948690061077082"><ele>856.7142857142858</ele><time>2026-05-02T16:52:00Z</time></trkpt><trkpt lat="43.875831262988285" lon="11.94877403604962"><ele>855.1428571428571</ele><time>2026-05-02T16:52:01Z</time></trkpt><trkpt lat="43.875854673255105" lon="11.94887183151642"><ele>853.5714285714286</ele><time>2026-05-02T16:52:02Z</time></trkpt><trkpt lat="43.87588351790774" lon="11.948986057012593"><ele>852.0</ele><time>2026-05-02T16:52:03Z</time></trkpt><trkpt lat="43.87591326014333" lon="11.949104133523104"><ele>853.1666666666666</ele><time>2026-05-02T16:52:04Z</time></trkpt><trkpt lat="43.875936936254796" lon="11.94920654057363"><ele>854.3333333333333</ele><time>2026-05-02T16:52:05Z</time></trkpt><trkpt lat="43.875962500396994" lon="11.949304593411545"><ele>855.5</ele><time>2026-05-02T16:52:06Z</time></trkpt><trkpt lat="43.87598616032912" lon="11.949399703155938"><ele>856.6666666666666</ele><time>2026-05-02T16:52:07Z</time></trkpt><trkpt lat="43.876016798500636" lon="11.949503108759268"><ele>857.8333333333333</ele><time>2026-05-02T16:52:08Z</time></trkpt><trkpt lat="43.876042272939095" lon="11.949611167757332"><ele>859.0</ele><time>2026-05-02T16:52:09Z</time></trkpt><trkpt lat="43.876068260757684" lon="11.949716495053977"><ele>856.4999999999999</ele><time>2026-05-02T16:52:10Z</time></trkpt><trkpt lat="43.876087903800574" lon="11.94980985782915"><ele>854.0</ele><time>2026-05-02T16:52:11Z</time></trkpt><trkpt lat="43.8761053862045" lon="11.949903320684506"><ele>851.5</ele><time>2026-05-02T16:52:12Z</time></trkpt><trkpt lat="43.87612254889369" lon="11.950013066972016"><ele>849.0</ele><time>2026-05-02T16:52:13Z</time></trkpt><trkpt lat="43.87613844980768" lon="11.950120211871518"><ele>846.4999999999999</ele><time>2026-05-02T16:52:14Z</time></trkpt><trkpt lat="43.876156866681576" lon="11.950293373436914"><ele>844.0</ele><time>2026-05-02T16:52:16Z</time></trkpt><trkpt lat="43.87618477621907" lon="11.950426365887294"><ele>842.3333333333333</ele><time>2026-05-02T16:52:18Z</time></trkpt><trkpt lat="43.87621980368421" lon="11.950503109332786"><ele>840.6666666666666</ele><time>2026-05-02T16:52:20Z</time></trkpt><trkpt lat="43.876281491197545" lon="11.95056022511272"><ele>839.0</ele><time>2026-05-02T16:52:23Z</time></trkpt><trkpt lat="43.87634782245306" lon="11.950537989437372"><ele>837.3333333333333</ele><time>2026-05-02T16:52:26Z</time></trkpt><trkpt lat="43.87644372708502" lon="11.950515305260236"><ele>835.6666666666666</ele><time>2026-05-02T16:52:28Z</time></trkpt><trkpt lat="43.87652964129991" lon="11.950526715754371"><ele>834.0</ele><time>2026-05-02T16:52:30Z</time></trkpt><trkpt lat="43.8766146865465" lon="11.950539479626254"><ele>834.0</ele><time>2026-05-02T16:52:32Z</time></trkpt><trkpt lat="43.876687367318524" lon="11.950563618500595"><ele>834.0</ele><time>2026-05-02T16:52:34Z</time></trkpt><trkpt lat="43.87677955193257" lon="11.950585544802863"><ele>834.0</ele><time>2026-05-02T16:52:36Z</time></trkpt><trkpt lat="43.87687813063505" lon="11.950616012443033"><ele>834.0</ele><time>2026-05-02T16:52:38Z</time></trkpt><trkpt lat="43.876946282507284" lon="11.950625774845593"><ele>834.0</ele><time>2026-05-02T16:52:39Z</time></trkpt><trkpt lat="43.87704322950891" lon="11.95066676474474"><ele>834.0</ele><time>2026-05-02T16:52:41Z</time></trkpt><trkpt lat="43.87715055905033" lon="11.95071235420886"><ele>833.6</ele><time>2026-05-02T16:52:43Z</time></trkpt><trkpt lat="43.87722648253932" lon="11.95078380394041"><ele>833.2</ele><time>2026-05-02T16:52:45Z</time></trkpt><trkpt lat="43.87732023328696" lon="11.950834867066707"><ele>832.8000000000001</ele><time>2026-05-02T16:52:47Z</time></trkpt><trkpt lat="43.87742516353875" lon="11.950934055164035"><ele>832.4000000000001</ele><time>2026-05-02T16:52:49Z</time></trkpt><trkpt lat="43.87752020861562" lon="11.951038489323333"><ele>832.0</ele><time>2026-05-02T16:52:51Z</time></trkpt><trkpt lat="43.87759245407717" lon="11.951072478033154"><ele>829.8333333333333</ele><time>2026-05-02T16:52:52Z</time></trkpt><trkpt lat="43.87764454861585" lon="11.951166972895246"><ele>827.6666666666666</ele><time>2026-05-02T16:52:53Z</time></trkpt><trkpt lat="43.87770990648903" lon="11.951218958700142"><ele>825.5</ele><time>2026-05-02T16:52:54Z</time></trkpt><trkpt lat="43.87776498465059" lon="11.951262767999065"><ele>823.3333333333333</ele><time>2026-05-02T16:52:55Z</time></trkpt><trkpt lat="43.87786569095306" lon="11.951347371973835"><ele>821.1666666666666</ele><time>2026-05-02T16:52:57Z</time></trkpt><trkpt lat="43.87793573794292" lon="11.951383903980728"><ele>819.0</ele><time>2026-05-02T16:52:58Z</time></trkpt><trkpt lat="43.87797344622228" lon="11.95146502173297"><ele>819.0</ele><time>2026-05-02T16:52:59Z</time></trkpt><trkpt lat="43.87803791590885" lon="11.951525338925068"><ele>819.0</ele><time>2026-05-02T16:53:00Z</time></trkpt><trkpt lat="43.87811490862832" lon="11.951587318072994"><ele>819.0</ele><time>2026-05-02T16:53:01Z</time></trkpt><trkpt lat="43.87818623577415" lon="11.951637366752212"><ele>819.0</ele><time>2026-05-02T16:53:02Z</time></trkpt><trkpt lat="43.878264963773724" lon="11.95166341114501"><ele>819.0</ele><time>2026-05-02T16:53:03Z</time></trkpt><trkpt lat="43.87833481262746" lon="11.951714266530695"><ele>819.0</ele><time>2026-05-02T16:53:04Z</time></trkpt><trkpt lat="43.8784032367798" lon="11.951754991632326"><ele>817.6666666666666</ele><time>2026-05-02T16:53:05Z</time></trkpt><trkpt lat="43.87847289948931" lon="11.951812038056095"><ele>816.3333333333333</ele><time>2026-05-02T16:53:06Z</time></trkpt><trkpt lat="43.87853859136235" lon="11.951859151890494"><ele>815.0</ele><time>2026-05-02T16:53:07Z</time></trkpt><trkpt lat="43.87861396116809" lon="11.951919064363834"><ele>813.6666666666666</ele><time>2026-05-02T16:53:08Z</time></trkpt><trkpt lat="43.878674930670904" lon="11.951977592343804"><ele>812.3333333333333</ele><time>2026-05-02T16:53:09Z</time></trkpt><trkpt lat="43.87873966840478" lon="11.952032563812198"><ele>811.0</ele><time>2026-05-02T16:53:10Z</time></trkpt><trkpt lat="43.8788071570628" lon="11.952095066366233"><ele>811.0</ele><time>2026-05-02T16:53:11Z</time></trkpt><trkpt lat="43.878874825776236" lon="11.952154480034707"><ele>811.0</ele><time>2026-05-02T16:53:12Z</time></trkpt><trkpt lat="43.878930745080226" lon="11.952205985371052"><ele>811.0</ele><time>2026-05-02T16:53:13Z</time></trkpt><trkpt lat="43.87898180469214" lon="11.952257240086249"><ele>811.0</ele><time>2026-05-02T16:53:14Z</time></trkpt><trkpt lat="43.879029710210645" lon="11.952344005817862"><ele>811.0</ele><time>2026-05-02T16:53:15Z</time></trkpt><trkpt lat="43.87907595620476" lon="11.952423648413092"><ele>811.0</ele><time>2026-05-02T16:53:16Z</time></trkpt><trkpt lat="43.8791046404813" lon="11.95251245425284"><ele>811.0</ele><time>2026-05-02T16:53:17Z</time></trkpt><trkpt lat="43.87916863187165" lon="11.95259908803685"><ele>808.8</ele><time>2026-05-02T16:53:18Z</time></trkpt><trkpt lat="43.87919568580183" lon="11.952719990223024"><ele>806.5999999999999</ele><time>2026-05-02T16:53:19Z</time></trkpt><trkpt lat="43.87922452326006" lon="11.952832311603954"><ele>804.4</ele><time>2026-05-02T16:53:20Z</time></trkpt><trkpt lat="43.879261584622164" lon="11.952946895244724"><ele>802.2</ele><time>2026-05-02T16:53:21Z</time></trkpt><trkpt lat="43.87930259747697" lon="11.953064065329885"><ele>800.0</ele><time>2026-05-02T16:53:22Z</time></trkpt><trkpt lat="43.87935422313396" lon="11.953168109596897"><ele>798.8333333333334</ele><time>2026-05-02T16:53:23Z</time></trkpt><trkpt lat="43.87940934633285" lon="11.953252760042483"><ele>797.6666666666667</ele><time>2026-05-02T16:53:24Z</time></trkpt><trkpt lat="43.879463646633276" lon="11.953322246258672"><ele>796.5</ele><time>2026-05-02T16:53:25Z</time></trkpt><trkpt lat="43.87953158435725" lon="11.953367107806747"><ele>795.3333333333333</ele><time>2026-05-02T16:53:26Z</time></trkpt><trkpt lat="43.87958942587865" lon="11.953417943360748"><ele>794.1666666666666</ele><time>2026-05-02T16:53:27Z</time></trkpt><trkpt lat="43.87967197984233" lon="11.953487070002396"><ele>793.0</ele><time>2026-05-02T16:53:29Z</time></trkpt><trkpt lat="43.879694612639895" lon="11.953570735366378"><ele>792.1666666666666</ele><time>2026-05-02T16:53:32Z</time></trkpt><trkpt lat="43.879689035839945" lon="11.953699836366333"><ele>791.3333333333333</ele><time>2026-05-02T16:53:33Z</time></trkpt><trkpt lat="43.879675135829686" lon="11.953812592155465"><ele>790.5</ele><time>2026-05-02T16:53:34Z</time></trkpt><trkpt lat="43.87967290738711" lon="11.953935028494655"><ele>789.6666666666667</ele><time>2026-05-02T16:53:35Z</time></trkpt><trkpt lat="43.87968442831263" lon="11.954038985623036"><ele>788.8333333333334</ele><time>2026-05-02T16:53:36Z</time></trkpt><trkpt lat="43.8796848258102" lon="11.954149185048012"><ele>788.0</ele><time>2026-05-02T16:53:37Z</time></trkpt><trkpt lat="43.8797020412082" lon="11.954235627820761"><ele>787.4</ele><time>2026-05-02T16:53:38Z</time></trkpt><trkpt lat="43.879745885243906" lon="11.954369901753363"><ele>786.8</ele><time>2026-05-02T16:53:40Z</time></trkpt><trkpt lat="43.87985530740085" lon="11.954496184440345"><ele>786.2</ele><time>2026-05-02T16:53:42Z</time></trkpt><trkpt lat="43.879907305983274" lon="11.954546510014485"><ele>785.6</ele><time>2026-05-02T16:53:43Z</time></trkpt><trkpt lat="43.87999064733" lon="11.95462359110337"><ele>785.0</ele><time>2026-05-02T16:53:44Z</time></trkpt><trkpt lat="43.880078040428245" lon="11.954702493538438"><ele>785.25</ele><time>2026-05-02T16:53:45Z</time></trkpt><trkpt lat="43.880171495322" lon="11.954788764985596"><ele>785.5</ele><time>2026-05-02T16:53:46Z</time></trkpt><trkpt lat="43.880272111045294" lon="11.954881686560974"><ele>785.75</ele><time>2026-05-02T16:53:47Z</time></trkpt><trkpt lat="43.88036710499355" lon="11.954969416264783"><ele>786.0</ele><time>2026-05-02T16:53:48Z</time></trkpt><trkpt lat="43.88045185768355" lon="11.955050762733203"><ele>786.4</ele><time>2026-05-02T16:53:49Z</time></trkpt><trkpt lat="43.88053217841104" lon="11.955131083458351"><ele>786.8</ele><time>2026-05-02T16:53:50Z</time></trkpt><trkpt lat="43.88061419784864" lon="11.955219364191134"><ele>787.1999999999999</ele><time>2026-05-02T16:53:51Z</time></trkpt><trkpt lat="43.88069337648187" lon="11.955315178921088"><ele>787.5999999999999</ele><time>2026-05-02T16:53:52Z</time></trkpt><trkpt lat="43.88076712643568" lon="11.955417140026901"><ele>788.0</ele><time>2026-05-02T16:53:53Z</time></trkpt><trkpt lat="43.88084749215727" lon="11.955532088299734"><ele>788.0</ele><time>2026-05-02T16:53:54Z</time></trkpt><trkpt lat="43.88092428410209" lon="11.955640320105823"><ele>788.0</ele><time>2026-05-02T16:53:55Z</time></trkpt><trkpt lat="43.881008810766275" lon="11.955757893853068"><ele>788.0</ele><time>2026-05-02T16:53:56Z</time></trkpt><trkpt lat="43.8810914716084" lon="11.955879425389186"><ele>788.0</ele><time>2026-05-02T16:53:57Z</time></trkpt><trkpt lat="43.88116326447443" lon="11.955994055302597"><ele>787.0</ele><time>2026-05-02T16:53:58Z</time></trkpt><trkpt lat="43.88123314088232" lon="11.95611519789228"><ele>786.0</ele><time>2026-05-02T16:53:59Z</time></trkpt><trkpt lat="43.88129906375573" lon="11.956232864926184"><ele>785.0</ele><time>2026-05-02T16:54:00Z</time></trkpt><trkpt lat="43.88135467146968" lon="11.956332120235956"><ele>784.0</ele><time>2026-05-02T16:54:01Z</time></trkpt><trkpt lat="43.88139843094908" lon="11.956410227409425"><ele>783.0</ele><time>2026-05-02T16:54:02Z</time></trkpt><trkpt lat="43.88147326242238" lon="11.956509045679223"><ele>783.0</ele><time>2026-05-02T16:54:03Z</time></trkpt><trkpt lat="43.88152621862849" lon="11.956641926951491"><ele>783.0</ele><time>2026-05-02T16:54:04Z</time></trkpt><trkpt lat="43.88158164821903" lon="11.95673527101779"><ele>783.0</ele><time>2026-05-02T16:54:05Z</time></trkpt><trkpt lat="43.881655300054675" lon="11.956835571284302"><ele>783.0</ele><time>2026-05-02T16:54:06Z</time></trkpt><trkpt lat="43.881725228204616" lon="11.956911155275382"><ele>783.0</ele><time>2026-05-02T16:54:07Z</time></trkpt><trkpt lat="43.88180325582559" lon="11.956981526853603"><ele>781.5999999999999</ele><time>2026-05-02T16:54:08Z</time></trkpt><trkpt lat="43.881882485889285" lon="11.957039713734504"><ele>780.1999999999999</ele><time>2026-05-02T16:54:09Z</time></trkpt><trkpt lat="43.88198502427679" lon="11.957076599288753"><ele>778.8</ele><time>2026-05-02T16:54:10Z</time></trkpt><trkpt lat="43.88209122142195" lon="11.95708921776515"><ele>777.4</ele><time>2026-05-02T16:54:11Z</time></trkpt><trkpt lat="43.88220138953537" lon="11.957081951113173"><ele>776.0</ele><time>2026-05-02T16:54:12Z</time></trkpt><trkpt lat="43.88228268988339" lon="11.957095079771783"><ele>776.0</ele><time>2026-05-02T16:54:13Z</time></trkpt><trkpt lat="43.88238277373974" lon="11.957135069954848"><ele>776.0</ele><time>2026-05-02T16:54:14Z</time></trkpt><trkpt lat="43.88248389237117" lon="11.957169804102493"><ele>776.0</ele><time>2026-05-02T16:54:15Z</time></trkpt><trkpt lat="43.88256731035521" lon="11.957219225705309"><ele>776.0</ele><time>2026-05-02T16:54:16Z</time></trkpt><trkpt lat="43.88263814558695" lon="11.957267909522104"><ele>776.0</ele><time>2026-05-02T16:54:17Z</time></trkpt><trkpt lat="43.882712067653685" lon="11.957324950928312"><ele>774.1999999999999</ele><time>2026-05-02T16:54:18Z</time></trkpt><trkpt lat="43.88277604718172" lon="11.957359030840717"><ele>772.4</ele><time>2026-05-02T16:54:19Z</time></trkpt><trkpt lat="43.882867671417564" lon="11.957343571248463"><ele>770.6</ele><time>2026-05-02T16:54:20Z</time></trkpt><trkpt lat="43.88296881030787" lon="11.957319543390282"><ele>768.8</ele><time>2026-05-02T16:54:21Z</time></trkpt><trkpt lat="43.883065764040865" lon="11.957295242433943"><ele>767.0</ele><time>2026-05-02T16:54:22Z</time></trkpt><trkpt lat="43.88319903952034" lon="11.957285770759029"><ele>767.0</ele><time>2026-05-02T16:54:23Z</time></trkpt><trkpt lat="43.88331465410946" lon="11.957251510542896"><ele>767.0</ele><time>2026-05-02T16:54:24Z</time></trkpt><trkpt lat="43.88340789633874" lon="11.957232529641622"><ele>767.0</ele><time>2026-05-02T16:54:25Z</time></trkpt><trkpt lat="43.883507812004474" lon="11.957221048640536"><ele>767.0</ele><time>2026-05-02T16:54:26Z</time></trkpt><trkpt lat="43.883615866739916" lon="11.95722573040432"><ele>767.0</ele><time>2026-05-02T16:54:27Z</time></trkpt><trkpt lat="43.88373242212402" lon="11.957244500721968"><ele>766.4000000000001</ele><time>2026-05-02T16:54:28Z</time></trkpt><trkpt lat="43.883829994208426" lon="11.95727607120649"><ele>765.8000000000001</ele><time>2026-05-02T16:54:29Z</time></trkpt><trkpt lat="43.88390828529678" lon="11.957318269320377"><ele>765.2</ele><time>2026-05-02T16:54:30Z</time></trkpt><trkpt lat="43.88397224664024" lon="11.9573579456488"><ele>764.6</ele><time>2026-05-02T16:54:31Z</time></trkpt><trkpt lat="43.884072603142165" lon="11.95744950820862"><ele>764.0</ele><time>2026-05-02T16:54:33Z</time></trkpt><trkpt lat="43.884127119909806" lon="11.957545263913214"><ele>764.6</ele><time>2026-05-02T16:54:34Z</time></trkpt><trkpt lat="43.884168604992354" lon="11.957646718728556"><ele>765.2</ele><time>2026-05-02T16:54:35Z</time></trkpt><trkpt lat="43.884312356985134" lon="11.957682816062281"><ele>765.8000000000001</ele><time>2026-05-02T16:54:36Z</time></trkpt><trkpt lat="43.88439269053376" lon="11.957767314489757"><ele>766.4000000000001</ele><time>2026-05-02T16:54:37Z</time></trkpt><trkpt lat="43.88446153429798" lon="11.957867228164316"><ele>767.0</ele><time>2026-05-02T16:54:38Z</time></trkpt><trkpt lat="43.88452375182152" lon="11.957955214894865"><ele>767.0</ele><time>2026-05-02T16:54:39Z</time></trkpt><trkpt lat="43.88458937046088" lon="11.95805052308729"><ele>767.0</ele><time>2026-05-02T16:54:40Z</time></trkpt><trkpt lat="43.88466133251355" lon="11.958151052902686"><ele>767.0</ele><time>2026-05-02T16:54:41Z</time></trkpt><trkpt lat="43.88474712688082" lon="11.958252889267792"><ele>767.0</ele><time>2026-05-02T16:54:42Z</time></trkpt><trkpt lat="43.884840512373096" lon="11.958345021298422"><ele>767.0</ele><time>2026-05-02T16:54:43Z</time></trkpt><trkpt lat="43.884936820997446" lon="11.958438345165323"><ele>767.75</ele><time>2026-05-02T16:54:44Z</time></trkpt><trkpt lat="43.88504118665922" lon="11.95853947637831"><ele>768.5</ele><time>2026-05-02T16:54:45Z</time></trkpt><trkpt lat="43.88513852461012" lon="11.958633797667185"><ele>769.25</ele><time>2026-05-02T16:54:46Z</time></trkpt><trkpt lat="43.88524714375351" lon="11.958712634903021"><ele>770.0</ele><time>2026-05-02T16:54:47Z</time></trkpt><trkpt lat="43.88534755697762" lon="11.958811375264423"><ele>770.0</ele><time>2026-05-02T16:54:48Z</time></trkpt><trkpt lat="43.885451601694726" lon="11.958909092441205"><ele>770.0</ele><time>2026-05-02T16:54:49Z</time></trkpt><trkpt lat="43.88554607867252" lon="11.959028721013134"><ele>770.0</ele><time>2026-05-02T16:54:50Z</time></trkpt><trkpt lat="43.88564557487452" lon="11.959125133664072"><ele>770.0</ele><time>2026-05-02T16:54:51Z</time></trkpt><trkpt lat="43.88573801691751" lon="11.959212865856887"><ele>768.5</ele><time>2026-05-02T16:54:52Z</time></trkpt><trkpt lat="43.88583845505951" lon="11.959257770043305"><ele>767.0</ele><time>2026-05-02T16:54:53Z</time></trkpt><trkpt lat="43.8859559677404" lon="11.959294333862992"><ele>765.5</ele><time>2026-05-02T16:54:54Z</time></trkpt><trkpt lat="43.88607591234849" lon="11.959286582615267"><ele>764.0</ele><time>2026-05-02T16:54:55Z</time></trkpt><trkpt lat="43.88619466810352" lon="11.959232751466423"><ele>768.25</ele><time>2026-05-02T16:54:56Z</time></trkpt><trkpt lat="43.886303849131856" lon="11.959118246225003"><ele>772.5</ele><time>2026-05-02T16:54:57Z</time></trkpt><trkpt lat="43.88640698803838" lon="11.958988871709053"><ele>776.75</ele><time>2026-05-02T16:54:58Z</time></trkpt><trkpt lat="43.886495535708875" lon="11.958853425001458"><ele>781.0</ele><time>2026-05-02T16:54:59Z</time></trkpt><trkpt lat="43.88660727657514" lon="11.958755592816912"><ele>781.0</ele><time>2026-05-02T16:55:00Z</time></trkpt><trkpt lat="43.88672091420126" lon="11.958681935402273"><ele>781.0</ele><time>2026-05-02T16:55:01Z</time></trkpt><trkpt lat="43.886849552611196" lon="11.958609567276914"><ele>781.0</ele><time>2026-05-02T16:55:02Z</time></trkpt><trkpt lat="43.8869802732114" lon="11.958543972430194"><ele>781.0</ele><time>2026-05-02T16:55:03Z</time></trkpt><trkpt lat="43.88710070954553" lon="11.95850791680813"><ele>783.75</ele><time>2026-05-02T16:55:04Z</time></trkpt><trkpt lat="43.88724316458499" lon="11.958501018736055"><ele>786.5</ele><time>2026-05-02T16:55:05Z</time></trkpt><trkpt lat="43.88740216714934" lon="11.958525303169418"><ele>789.25</ele><time>2026-05-02T16:55:06Z</time></trkpt><trkpt lat="43.887533802877066" lon="11.958564047966856"><ele>792.0</ele><time>2026-05-02T16:55:07Z</time></trkpt><trkpt lat="43.88766577813697" lon="11.958602844376806"><ele>795.5</ele><time>2026-05-02T16:55:08Z</time></trkpt><trkpt lat="43.8877882729797" lon="11.958591077420907"><ele>799.0</ele><time>2026-05-02T16:55:09Z</time></trkpt><trkpt lat="43.88790814170598" lon="11.958561118434382"><ele>802.5</ele><time>2026-05-02T16:55:10Z</time></trkpt><trkpt lat="43.88803689741688" lon="11.958494870090249"><ele>806.0</ele><time>2026-05-02T16:55:11Z</time></trkpt><trkpt lat="43.888153129781436" lon="11.958391714000117"><ele>804.0</ele><time>2026-05-02T16:55:12Z</time></trkpt><trkpt lat="43.8882624533664" lon="11.958285825016667"><ele>802.0</ele><time>2026-05-02T16:55:13Z</time></trkpt><trkpt lat="43.88835291850685" lon="11.958183143811159"><ele>800.0</ele><time>2026-05-02T16:55:14Z</time></trkpt><trkpt lat="43.88844893063616" lon="11.958068560193981"><ele>798.0</ele><time>2026-05-02T16:55:15Z</time></trkpt><trkpt lat="43.88853025540543" lon="11.95790374584023"><ele>798.0</ele><time>2026-05-02T16:55:16Z</time></trkpt><trkpt lat="43.888611011908374" lon="11.957727004316958"><ele>798.0</ele><time>2026-05-02T16:55:17Z</time></trkpt><trkpt lat="43.88867932196996" lon="11.957554210631628"><ele>798.0</ele><time>2026-05-02T16:55:18Z</time></trkpt><trkpt lat="43.888735913529445" lon="11.957367702562145"><ele>798.0</ele><time>2026-05-02T16:55:19Z</time></trkpt><trkpt lat="43.88877243875212" lon="11.95716774155921"><ele>796.75</ele><time>2026-05-02T16:55:20Z</time></trkpt><trkpt lat="43.88880051584644" lon="11.956936063145022"><ele>795.5</ele><time>2026-05-02T16:55:21Z</time></trkpt><trkpt lat="43.888835614933406" lon="11.956767824684556"><ele>794.25</ele><time>2026-05-02T16:55:22Z</time></trkpt><trkpt lat="43.88888247300962" lon="11.956604787984489"><ele>793.0</ele><time>2026-05-02T16:55:23Z</time></trkpt><trkpt lat="43.88893227193217" lon="11.95641389332495"><ele>792.75</ele><time>2026-05-02T16:55:24Z</time></trkpt><trkpt lat="43.888973727954536" lon="11.9562548763611"><ele>792.5</ele><time>2026-05-02T16:55:25Z</time></trkpt><trkpt lat="43.88902502356173" lon="11.95609819929302"><ele>792.25</ele><time>2026-05-02T16:55:26Z</time></trkpt><trkpt lat="43.88907021115491" lon="11.955955853480589"><ele>792.0</ele><time>2026-05-02T16:55:27Z</time></trkpt><trkpt lat="43.889131342096384" lon="11.955827861295933"><ele>792.25</ele><time>2026-05-02T16:55:28Z</time></trkpt><trkpt lat="43.88921723070864" lon="11.955710229788433"><ele>792.5</ele><time>2026-05-02T16:55:29Z</time></trkpt><trkpt lat="43.8893238355305" lon="11.955621916964173"><ele>792.75</ele><time>2026-05-02T16:55:30Z</time></trkpt><trkpt lat="43.889450101377236" lon="11.955594120332663"><ele>793.0</ele><time>2026-05-02T16:55:31Z</time></trkpt><trkpt lat="43.88958539932534" lon="11.955576531212513"><ele>793.0</ele><time>2026-05-02T16:55:32Z</time></trkpt><trkpt lat="43.88971861258358" lon="11.95555821669351"><ele>793.0</ele><time>2026-05-02T16:55:33Z</time></trkpt><trkpt lat="43.88986525582082" lon="11.955539313349316"><ele>793.0</ele><time>2026-05-02T16:55:34Z</time></trkpt><trkpt lat="43.89000718046502" lon="11.955522421347906"><ele>793.0</ele><time>2026-05-02T16:55:35Z</time></trkpt><trkpt lat="43.89013687251548" lon="11.955497386002765"><ele>792.5</ele><time>2026-05-02T16:55:36Z</time></trkpt><trkpt lat="43.89028289145549" lon="11.955480954484802"><ele>792.0</ele><time>2026-05-02T16:55:37Z</time></trkpt><trkpt lat="43.8904116449223" lon="11.95547428191024"><ele>791.5</ele><time>2026-05-02T16:55:38Z</time></trkpt><trkpt lat="43.89051734027429" lon="11.955384986309118"><ele>791.0</ele><time>2026-05-02T16:55:39Z</time></trkpt><trkpt lat="43.890636989430135" lon="11.955295080956667"><ele>791.0</ele><time>2026-05-02T16:55:40Z</time></trkpt><trkpt lat="43.89075895112029" lon="11.955229474346366"><ele>791.0</ele><time>2026-05-02T16:55:41Z</time></trkpt><trkpt lat="43.890883575366814" lon="11.955208267891292"><ele>791.0</ele><time>2026-05-02T16:55:42Z</time></trkpt><trkpt lat="43.891019983227714" lon="11.955197219930744"><ele>791.0</ele><time>2026-05-02T16:55:43Z</time></trkpt><trkpt lat="43.89116067365704" lon="11.95519441209308"><ele>789.0</ele><time>2026-05-02T16:55:44Z</time></trkpt><trkpt lat="43.89129600957744" lon="11.955174980614132"><ele>787.0</ele><time>2026-05-02T16:55:45Z</time></trkpt><trkpt lat="43.8914353143229" lon="11.955156804476127"><ele>785.0</ele><time>2026-05-02T16:55:46Z</time></trkpt><trkpt lat="43.89157852749443" lon="11.955148477968512"><ele>783.0</ele><time>2026-05-02T16:55:47Z</time></trkpt><trkpt lat="43.891715293081916" lon="11.955174735502817"><ele>782.5</ele><time>2026-05-02T16:55:48Z</time></trkpt><trkpt lat="43.89185522531379" lon="11.955186827896709"><ele>782.0</ele><time>2026-05-02T16:55:49Z</time></trkpt><trkpt lat="43.89198944721547" lon="11.955209141029755"><ele>781.5</ele><time>2026-05-02T16:55:50Z</time></trkpt><trkpt lat="43.89210294924661" lon="11.955232334570132"><ele>781.0</ele><time>2026-05-02T16:55:51Z</time></trkpt><trkpt lat="43.892205286632986" lon="11.955353585664557"><ele>781.0</ele><time>2026-05-02T16:55:52Z</time></trkpt><trkpt lat="43.892310021597055" lon="11.955433788476395"><ele>781.0</ele><time>2026-05-02T16:55:53Z</time></trkpt><trkpt lat="43.89240835672758" lon="11.955493696844266"><ele>781.0</ele><time>2026-05-02T16:55:54Z</time></trkpt><trkpt lat="43.89248762626112" lon="11.955539037648009"><ele>781.0</ele><time>2026-05-02T16:55:55Z</time></trkpt><trkpt lat="43.89256318654181" lon="11.955577490828086"><ele>781.0</ele><time>2026-05-02T16:55:56Z</time></trkpt><trkpt lat="43.89265826368998" lon="11.955472909130126"><ele>782.75</ele><time>2026-05-02T16:55:57Z</time></trkpt><trkpt lat="43.89272926877877" lon="11.955368900310868"><ele>784.5</ele><time>2026-05-02T16:55:58Z</time></trkpt><trkpt lat="43.892775920173506" lon="11.955215375060654"><ele>786.25</ele><time>2026-05-02T16:55:59Z</time></trkpt><trkpt lat="43.892816613197105" lon="11.955038567538079"><ele>788.0</ele><time>2026-05-02T16:56:00Z</time></trkpt><trkpt lat="43.89285226490194" lon="11.954889959273093"><ele>783.25</ele><time>2026-05-02T16:56:01Z</time></trkpt><trkpt lat="43.89291351081131" lon="11.954767018993127"><ele>778.5</ele><time>2026-05-02T16:56:02Z</time></trkpt><trkpt lat="43.89299649027518" lon="11.954667158277118"><ele>773.75</ele><time>2026-05-02T16:56:03Z</time></trkpt><trkpt lat="43.89310114310006" lon="11.95459176844133"><ele>769.0</ele><time>2026-05-02T16:56:04Z</time></trkpt><trkpt lat="43.8932167878761" lon="11.954593282756809"><ele>769.0</ele><time>2026-05-02T16:56:05Z</time></trkpt><trkpt lat="43.89333485844509" lon="11.954602593081352"><ele>769.0</ele><time>2026-05-02T16:56:06Z</time></trkpt><trkpt lat="43.89344804148177" lon="11.95465636670707"><ele>769.0</ele><time>2026-05-02T16:56:07Z</time></trkpt><trkpt lat="43.89358529965128" lon="11.95474955812921"><ele>769.0</ele><time>2026-05-02T16:56:08Z</time></trkpt><trkpt lat="43.89371678083006" lon="11.95485008267162"><ele>769.75</ele><time>2026-05-02T16:56:09Z</time></trkpt><trkpt lat="43.893845332050724" lon="11.954957638426725"><ele>770.5</ele><time>2026-05-02T16:56:10Z</time></trkpt><trkpt lat="43.89395607316194" lon="11.955069915273665"><ele>771.25</ele><time>2026-05-02T16:56:11Z</time></trkpt><trkpt lat="43.89405955488772" lon="11.955179648447452"><ele>772.0</ele><time>2026-05-02T16:56:12Z</time></trkpt><trkpt lat="43.894178173680245" lon="11.955305433174374"><ele>766.5</ele><time>2026-05-02T16:56:13Z</time></trkpt><trkpt lat="43.89428524004398" lon="11.955417629728744"><ele>761.0</ele><time>2026-05-02T16:56:14Z</time></trkpt><trkpt lat="43.89439500339106" lon="11.955507335764361"><ele>755.5</ele><time>2026-05-02T16:56:15Z</time></trkpt><trkpt lat="43.89448700141557" lon="11.95563552263265"><ele>750.0</ele><time>2026-05-02T16:56:16Z</time></trkpt><trkpt lat="43.894587294261584" lon="11.955761957569857"><ele>753.5</ele><time>2026-05-02T16:56:17Z</time></trkpt><trkpt lat="43.894680150807375" lon="11.955899733639303"><ele>757.0</ele><time>2026-05-02T16:56:18Z</time></trkpt><trkpt lat="43.89475262599664" lon="11.95603184085136"><ele>760.5</ele><time>2026-05-02T16:56:19Z</time></trkpt><trkpt lat="43.894824880478055" lon="11.956180007588177"><ele>764.0</ele><time>2026-05-02T16:56:20Z</time></trkpt><trkpt lat="43.894892740323726" lon="11.95632766199341"><ele>764.0</ele><time>2026-05-02T16:56:21Z</time></trkpt><trkpt lat="43.89498080077256" lon="11.956462579340435"><ele>764.0</ele><time>2026-05-02T16:56:22Z</time></trkpt><trkpt lat="43.89503095170514" lon="11.95659717152659"><ele>764.0</ele><time>2026-05-02T16:56:23Z</time></trkpt><trkpt lat="43.89506162692573" lon="11.956717844606857"><ele>764.0</ele><time>2026-05-02T16:56:24Z</time></trkpt><trkpt lat="43.89500752629142" lon="11.956871400488684"><ele>772.0</ele><time>2026-05-02T16:56:25Z</time></trkpt><trkpt lat="43.89504440718031" lon="11.95699318099967"><ele>780.0</ele><time>2026-05-02T16:56:26Z</time></trkpt><trkpt lat="43.89509696732668" lon="11.957121343916112"><ele>788.0</ele><time>2026-05-02T16:56:27Z</time></trkpt><trkpt lat="43.89533628364612" lon="11.95694354776804"><ele>789.75</ele><time>2026-05-02T16:56:28Z</time></trkpt><trkpt lat="43.89544785555196" lon="11.956883042487535"><ele>791.5</ele><time>2026-05-02T16:56:29Z</time></trkpt><trkpt lat="43.8955783974523" lon="11.956829456218616"><ele>793.25</ele><time>2026-05-02T16:56:30Z</time></trkpt><trkpt lat="43.895694400539654" lon="11.956738786822845"><ele>795.0</ele><time>2026-05-02T16:56:31Z</time></trkpt><trkpt lat="43.8958163877585" lon="11.956672916810701"><ele>787.5</ele><time>2026-05-02T16:56:32Z</time></trkpt><trkpt lat="43.8959305495237" lon="11.956619926304741"><ele>780.0</ele><time>2026-05-02T16:56:33Z</time></trkpt><trkpt lat="43.89603912559888" lon="11.95656550234694"><ele>772.5</ele><time>2026-05-02T16:56:34Z</time></trkpt><trkpt lat="43.89613483582727" lon="11.95650386297311"><ele>765.0</ele><time>2026-05-02T16:56:35Z</time></trkpt><trkpt lat="43.89624701506249" lon="11.956471629816615"><ele>765.0</ele><time>2026-05-02T16:56:36Z</time></trkpt><trkpt lat="43.89637025250202" lon="11.956483667167468"><ele>765.0</ele><time>2026-05-02T16:56:37Z</time></trkpt><trkpt lat="43.89649244436484" lon="11.956525613660338"><ele>765.0</ele><time>2026-05-02T16:56:38Z</time></trkpt><trkpt lat="43.89660335178523" lon="11.956640340002549"><ele>765.0</ele><time>2026-05-02T16:56:39Z</time></trkpt><trkpt lat="43.896714605224325" lon="11.95672345867644"><ele>765.6</ele><time>2026-05-02T16:56:40Z</time></trkpt><trkpt lat="43.89679219717093" lon="11.956819343452485"><ele>766.2</ele><time>2026-05-02T16:56:41Z</time></trkpt><trkpt lat="43.89684832885028" lon="11.956935178126143"><ele>766.8</ele><time>2026-05-02T16:56:42Z</time></trkpt><trkpt lat="43.89688380714712" lon="11.957078851484411"><ele>767.4</ele><time>2026-05-02T16:56:43Z</time></trkpt><trkpt lat="43.89692413714727" lon="11.957223757088133"><ele>768.0</ele><time>2026-05-02T16:56:44Z</time></trkpt><trkpt lat="43.89695768398016" lon="11.957345142665737"><ele>768.0</ele><time>2026-05-02T16:56:45Z</time></trkpt><trkpt lat="43.896985708044234" lon="11.957446544721321"><ele>768.0</ele><time>2026-05-02T16:56:46Z</time></trkpt><trkpt lat="43.89701020042131" lon="11.957535167687276"><ele>768.0</ele><time>2026-05-02T16:56:47Z</time></trkpt><trkpt lat="43.89704073795304" lon="11.95764046983028"><ele>768.0</ele><time>2026-05-02T16:56:49Z</time></trkpt><trkpt lat="43.89714621219208" lon="11.957642717910277"><ele>768.0</ele><time>2026-05-02T16:56:53Z</time></trkpt><trkpt lat="43.89715960957152" lon="11.957492427550292"><ele>768.0</ele><time>2026-05-02T16:56:56Z</time></trkpt><trkpt lat="43.8972032666958" lon="11.957421413640507"><ele>768.0</ele><time>2026-05-02T16:57:00Z</time></trkpt><trkpt lat="43.89717814621063" lon="11.957339514152201"><ele>768.0</ele><time>2026-05-02T16:59:25Z</time></trkpt><trkpt lat="43.89705765365166" lon="11.957283230732454"><ele>768.0</ele><time>2026-05-02T17:09:23Z</time></trkpt><trkpt lat="43.89714412697752" lon="11.957317437679546"><ele>768.0</ele><time>2026-05-02T17:09:34Z</time></trkpt><trkpt lat="43.89707893057231" lon="11.957291289462377"><ele>768.0</ele><time>2026-05-02T17:09:37Z</time></trkpt></trkseg></trk></gpx>